<?xml version="1.0" encoding="UTF-8" standalone="no" ?>
<gpx xmlns="http://www.topografix.com/GPX/1/1" xmlns:xsi="http://www.w3.org/2001/XMLSchema-instance" xsi:schemaLocation="http://www.topografix.com/GPX/1/1 http://www.topografix.com/GPX/1/1/gpx.xsd" version="1.1" creator="VisuGPX - https://www.visugpx.com">
  <metadata>
    <name>Bertangle</name>
    <desc><![CDATA[cœur et santé 18 pax]]></desc>
  </metadata>
  <trk>
    <name><![CDATA[Bertangle]]></name>
    <extensions>
      <line xmlns="http://www.topografix.com/GPX/gpx_style/0/2">
        <color>0000FF</color>
        <width>4</width>
      </line>
    </extensions>
    <trkseg>
      <trkpt lat="49.97123" lon="2.29973">
        <ele>95</ele>
        <time>2022-12-28T12:56:03Z</time>
      </trkpt>
      <trkpt lat="49.97121" lon="2.29973">
        <ele>95</ele>
        <time>2022-12-28T12:56:04Z</time>
      </trkpt>
      <trkpt lat="49.97119" lon="2.29973">
        <ele>94.9</ele>
        <time>2022-12-28T12:56:06Z</time>
      </trkpt>
      <trkpt lat="49.97118" lon="2.29972">
        <ele>94.9</ele>
        <time>2022-12-28T12:56:07Z</time>
      </trkpt>
      <trkpt lat="49.97117" lon="2.29971">
        <ele>94.9</ele>
        <time>2022-12-28T12:56:08Z</time>
      </trkpt>
      <trkpt lat="49.97116" lon="2.29971">
        <ele>94.8</ele>
        <time>2022-12-28T12:56:09Z</time>
      </trkpt>
      <trkpt lat="49.97114" lon="2.2997">
        <ele>94.8</ele>
        <time>2022-12-28T12:56:10Z</time>
      </trkpt>
      <trkpt lat="49.97113" lon="2.29969">
        <ele>94.8</ele>
        <time>2022-12-28T12:56:12Z</time>
      </trkpt>
      <trkpt lat="49.97111" lon="2.29969">
        <ele>94.8</ele>
        <time>2022-12-28T12:56:13Z</time>
      </trkpt>
      <trkpt lat="49.97109" lon="2.29968">
        <ele>94.7</ele>
        <time>2022-12-28T12:56:14Z</time>
      </trkpt>
      <trkpt lat="49.97108" lon="2.29968">
        <ele>94.7</ele>
        <time>2022-12-28T12:56:15Z</time>
      </trkpt>
      <trkpt lat="49.97107" lon="2.29967">
        <ele>94.7</ele>
        <time>2022-12-28T12:56:16Z</time>
      </trkpt>
      <trkpt lat="49.97106" lon="2.29968">
        <ele>94.7</ele>
        <time>2022-12-28T12:56:17Z</time>
      </trkpt>
      <trkpt lat="49.97105" lon="2.29968">
        <ele>94.7</ele>
        <time>2022-12-28T12:56:19Z</time>
      </trkpt>
      <trkpt lat="49.97104" lon="2.29967">
        <ele>94.6</ele>
        <time>2022-12-28T12:56:20Z</time>
      </trkpt>
      <trkpt lat="49.97103" lon="2.29966">
        <ele>94.6</ele>
        <time>2022-12-28T12:56:21Z</time>
      </trkpt>
      <trkpt lat="49.97102" lon="2.29967">
        <ele>94.6</ele>
        <time>2022-12-28T12:56:22Z</time>
      </trkpt>
      <trkpt lat="49.97087" lon="2.29963">
        <ele>94.3</ele>
        <time>2022-12-28T12:56:45Z</time>
      </trkpt>
      <trkpt lat="49.9703" lon="2.29924">
        <ele>91.2</ele>
        <time>2022-12-28T12:57:34Z</time>
      </trkpt>
      <trkpt lat="49.97028" lon="2.29922">
        <ele>91.1</ele>
        <time>2022-12-28T12:57:35Z</time>
      </trkpt>
      <trkpt lat="49.97027" lon="2.29922">
        <ele>91.1</ele>
        <time>2022-12-28T12:57:37Z</time>
      </trkpt>
      <trkpt lat="49.97027" lon="2.29921">
        <ele>91</ele>
        <time>2022-12-28T12:57:38Z</time>
      </trkpt>
      <trkpt lat="49.97026" lon="2.2992">
        <ele>91</ele>
        <time>2022-12-28T12:57:39Z</time>
      </trkpt>
      <trkpt lat="49.97025" lon="2.29919">
        <ele>90.9</ele>
        <time>2022-12-28T12:57:40Z</time>
      </trkpt>
      <trkpt lat="49.97024" lon="2.29919">
        <ele>90.9</ele>
        <time>2022-12-28T12:57:41Z</time>
      </trkpt>
      <trkpt lat="49.97023" lon="2.29919">
        <ele>90.9</ele>
        <time>2022-12-28T12:57:42Z</time>
      </trkpt>
      <trkpt lat="49.97022" lon="2.2992">
        <ele>90.8</ele>
        <time>2022-12-28T12:57:43Z</time>
      </trkpt>
      <trkpt lat="49.97021" lon="2.2992">
        <ele>90.8</ele>
        <time>2022-12-28T12:57:44Z</time>
      </trkpt>
      <trkpt lat="49.9702" lon="2.2992">
        <ele>90.7</ele>
        <time>2022-12-28T12:57:45Z</time>
      </trkpt>
      <trkpt lat="49.97017" lon="2.29921">
        <ele>90.7</ele>
        <time>2022-12-28T12:57:47Z</time>
      </trkpt>
      <trkpt lat="49.97016" lon="2.29921">
        <ele>90.6</ele>
        <time>2022-12-28T12:57:49Z</time>
      </trkpt>
      <trkpt lat="49.97015" lon="2.29922">
        <ele>90.6</ele>
        <time>2022-12-28T12:57:50Z</time>
      </trkpt>
      <trkpt lat="49.97014" lon="2.29922">
        <ele>90.6</ele>
        <time>2022-12-28T12:57:51Z</time>
      </trkpt>
      <trkpt lat="49.97013" lon="2.29921">
        <ele>90.6</ele>
        <time>2022-12-28T12:57:52Z</time>
      </trkpt>
      <trkpt lat="49.97012" lon="2.2992">
        <ele>90.5</ele>
        <time>2022-12-28T12:57:53Z</time>
      </trkpt>
      <trkpt lat="49.97011" lon="2.29918">
        <ele>90.4</ele>
        <time>2022-12-28T12:57:54Z</time>
      </trkpt>
      <trkpt lat="49.97011" lon="2.29917">
        <ele>90.4</ele>
        <time>2022-12-28T12:57:55Z</time>
      </trkpt>
      <trkpt lat="49.9701" lon="2.29916">
        <ele>90.3</ele>
        <time>2022-12-28T12:57:56Z</time>
      </trkpt>
      <trkpt lat="49.97009" lon="2.29913">
        <ele>90.3</ele>
        <time>2022-12-28T12:57:58Z</time>
      </trkpt>
      <trkpt lat="49.97008" lon="2.29912">
        <ele>90.3</ele>
        <time>2022-12-28T12:57:59Z</time>
      </trkpt>
      <trkpt lat="49.97007" lon="2.29911">
        <ele>90.1</ele>
        <time>2022-12-28T12:58:00Z</time>
      </trkpt>
      <trkpt lat="49.97007" lon="2.29909">
        <ele>90.1</ele>
        <time>2022-12-28T12:58:01Z</time>
      </trkpt>
      <trkpt lat="49.97007" lon="2.29908">
        <ele>90.1</ele>
        <time>2022-12-28T12:58:02Z</time>
      </trkpt>
      <trkpt lat="49.97007" lon="2.29907">
        <ele>90.1</ele>
        <time>2022-12-28T12:58:03Z</time>
      </trkpt>
      <trkpt lat="49.97006" lon="2.29905">
        <ele>90.1</ele>
        <time>2022-12-28T12:58:04Z</time>
      </trkpt>
      <trkpt lat="49.97006" lon="2.29903">
        <ele>90.1</ele>
        <time>2022-12-28T12:58:06Z</time>
      </trkpt>
      <trkpt lat="49.97006" lon="2.29901">
        <ele>90</ele>
        <time>2022-12-28T12:58:07Z</time>
      </trkpt>
      <trkpt lat="49.97006" lon="2.299">
        <ele>90</ele>
        <time>2022-12-28T12:58:08Z</time>
      </trkpt>
      <trkpt lat="49.97006" lon="2.299">
        <ele>90</ele>
        <time>2022-12-28T12:58:09Z</time>
      </trkpt>
      <trkpt lat="49.97006" lon="2.29903">
        <ele>90.1</ele>
        <time>2022-12-28T12:58:11Z</time>
      </trkpt>
      <trkpt lat="49.97006" lon="2.29904">
        <ele>90.1</ele>
        <time>2022-12-28T12:58:12Z</time>
      </trkpt>
      <trkpt lat="49.97007" lon="2.29904">
        <ele>90.1</ele>
        <time>2022-12-28T12:58:14Z</time>
      </trkpt>
      <trkpt lat="49.97008" lon="2.29903">
        <ele>90.2</ele>
        <time>2022-12-28T12:58:15Z</time>
      </trkpt>
      <trkpt lat="49.97008" lon="2.29903">
        <ele>90.2</ele>
        <time>2022-12-28T12:58:17Z</time>
      </trkpt>
      <trkpt lat="49.97008" lon="2.29903">
        <ele>90.2</ele>
        <time>2022-12-28T12:58:18Z</time>
      </trkpt>
      <trkpt lat="49.97008" lon="2.29903">
        <ele>90.2</ele>
        <time>2022-12-28T12:58:19Z</time>
      </trkpt>
      <trkpt lat="49.97009" lon="2.29903">
        <ele>90.2</ele>
        <time>2022-12-28T12:58:21Z</time>
      </trkpt>
      <trkpt lat="49.97009" lon="2.29903">
        <ele>90.2</ele>
        <time>2022-12-28T12:58:22Z</time>
      </trkpt>
      <trkpt lat="49.97009" lon="2.29903">
        <ele>90.2</ele>
        <time>2022-12-28T12:58:24Z</time>
      </trkpt>
      <trkpt lat="49.97009" lon="2.29903">
        <ele>90.2</ele>
        <time>2022-12-28T12:58:25Z</time>
      </trkpt>
      <trkpt lat="49.97009" lon="2.29903">
        <ele>90.1</ele>
        <time>2022-12-28T12:58:27Z</time>
      </trkpt>
      <trkpt lat="49.97009" lon="2.29903">
        <ele>90.1</ele>
        <time>2022-12-28T12:58:28Z</time>
      </trkpt>
      <trkpt lat="49.97009" lon="2.29903">
        <ele>90.1</ele>
        <time>2022-12-28T12:58:29Z</time>
      </trkpt>
      <trkpt lat="49.97009" lon="2.29903">
        <ele>90.1</ele>
        <time>2022-12-28T12:58:30Z</time>
      </trkpt>
      <trkpt lat="49.97009" lon="2.29903">
        <ele>90.1</ele>
        <time>2022-12-28T12:58:31Z</time>
      </trkpt>
      <trkpt lat="49.97009" lon="2.29902">
        <ele>90.1</ele>
        <time>2022-12-28T12:58:32Z</time>
      </trkpt>
      <trkpt lat="49.97009" lon="2.29902">
        <ele>90.1</ele>
        <time>2022-12-28T12:58:33Z</time>
      </trkpt>
      <trkpt lat="49.97009" lon="2.29902">
        <ele>90.1</ele>
        <time>2022-12-28T12:58:34Z</time>
      </trkpt>
      <trkpt lat="49.97009" lon="2.29902">
        <ele>90.1</ele>
        <time>2022-12-28T12:58:35Z</time>
      </trkpt>
      <trkpt lat="49.97009" lon="2.29902">
        <ele>90.1</ele>
        <time>2022-12-28T12:58:36Z</time>
      </trkpt>
      <trkpt lat="49.97009" lon="2.29902">
        <ele>90.1</ele>
        <time>2022-12-28T12:58:37Z</time>
      </trkpt>
      <trkpt lat="49.97009" lon="2.29902">
        <ele>90.1</ele>
        <time>2022-12-28T12:58:38Z</time>
      </trkpt>
      <trkpt lat="49.97009" lon="2.29902">
        <ele>90.1</ele>
        <time>2022-12-28T12:58:39Z</time>
      </trkpt>
      <trkpt lat="49.97009" lon="2.29902">
        <ele>90.1</ele>
        <time>2022-12-28T12:58:40Z</time>
      </trkpt>
      <trkpt lat="49.97009" lon="2.29902">
        <ele>90.1</ele>
        <time>2022-12-28T12:58:41Z</time>
      </trkpt>
      <trkpt lat="49.97009" lon="2.29902">
        <ele>90.1</ele>
        <time>2022-12-28T12:58:42Z</time>
      </trkpt>
      <trkpt lat="49.97009" lon="2.29902">
        <ele>90.1</ele>
        <time>2022-12-28T12:58:43Z</time>
      </trkpt>
      <trkpt lat="49.97009" lon="2.29902">
        <ele>90.1</ele>
        <time>2022-12-28T12:58:44Z</time>
      </trkpt>
      <trkpt lat="49.97009" lon="2.29902">
        <ele>90.1</ele>
        <time>2022-12-28T12:58:45Z</time>
      </trkpt>
      <trkpt lat="49.97009" lon="2.29902">
        <ele>90.1</ele>
        <time>2022-12-28T12:58:46Z</time>
      </trkpt>
      <trkpt lat="49.97009" lon="2.29902">
        <ele>90.1</ele>
        <time>2022-12-28T12:58:47Z</time>
      </trkpt>
      <trkpt lat="49.97009" lon="2.29902">
        <ele>90.1</ele>
        <time>2022-12-28T12:58:48Z</time>
      </trkpt>
      <trkpt lat="49.97009" lon="2.29902">
        <ele>90.1</ele>
        <time>2022-12-28T12:58:49Z</time>
      </trkpt>
      <trkpt lat="49.97009" lon="2.29902">
        <ele>90.1</ele>
        <time>2022-12-28T12:58:50Z</time>
      </trkpt>
      <trkpt lat="49.97009" lon="2.29902">
        <ele>90.1</ele>
        <time>2022-12-28T12:58:51Z</time>
      </trkpt>
      <trkpt lat="49.97009" lon="2.29901">
        <ele>90.1</ele>
        <time>2022-12-28T12:58:52Z</time>
      </trkpt>
      <trkpt lat="49.97009" lon="2.29901">
        <ele>90.1</ele>
        <time>2022-12-28T12:58:53Z</time>
      </trkpt>
      <trkpt lat="49.97009" lon="2.29901">
        <ele>90.1</ele>
        <time>2022-12-28T12:58:54Z</time>
      </trkpt>
      <trkpt lat="49.97009" lon="2.29901">
        <ele>90.1</ele>
        <time>2022-12-28T12:58:55Z</time>
      </trkpt>
      <trkpt lat="49.97009" lon="2.29901">
        <ele>90.1</ele>
        <time>2022-12-28T12:58:56Z</time>
      </trkpt>
      <trkpt lat="49.97009" lon="2.29901">
        <ele>90.1</ele>
        <time>2022-12-28T12:58:57Z</time>
      </trkpt>
      <trkpt lat="49.97009" lon="2.29901">
        <ele>90.1</ele>
        <time>2022-12-28T12:58:58Z</time>
      </trkpt>
      <trkpt lat="49.9701" lon="2.29901">
        <ele>90</ele>
        <time>2022-12-28T12:58:59Z</time>
      </trkpt>
      <trkpt lat="49.9701" lon="2.29901">
        <ele>90</ele>
        <time>2022-12-28T12:59:00Z</time>
      </trkpt>
      <trkpt lat="49.9701" lon="2.29901">
        <ele>90</ele>
        <time>2022-12-28T12:59:01Z</time>
      </trkpt>
      <trkpt lat="49.9701" lon="2.29901">
        <ele>90</ele>
        <time>2022-12-28T12:59:02Z</time>
      </trkpt>
      <trkpt lat="49.9701" lon="2.29901">
        <ele>90</ele>
        <time>2022-12-28T12:59:03Z</time>
      </trkpt>
      <trkpt lat="49.9701" lon="2.29901">
        <ele>90</ele>
        <time>2022-12-28T12:59:04Z</time>
      </trkpt>
      <trkpt lat="49.9701" lon="2.29901">
        <ele>90</ele>
        <time>2022-12-28T12:59:05Z</time>
      </trkpt>
      <trkpt lat="49.9701" lon="2.29901">
        <ele>90</ele>
        <time>2022-12-28T12:59:06Z</time>
      </trkpt>
      <trkpt lat="49.9701" lon="2.29901">
        <ele>90</ele>
        <time>2022-12-28T12:59:07Z</time>
      </trkpt>
      <trkpt lat="49.9701" lon="2.29901">
        <ele>90</ele>
        <time>2022-12-28T12:59:08Z</time>
      </trkpt>
      <trkpt lat="49.9701" lon="2.29901">
        <ele>90</ele>
        <time>2022-12-28T12:59:09Z</time>
      </trkpt>
      <trkpt lat="49.9701" lon="2.29901">
        <ele>90</ele>
        <time>2022-12-28T12:59:10Z</time>
      </trkpt>
      <trkpt lat="49.9701" lon="2.29901">
        <ele>90</ele>
        <time>2022-12-28T12:59:11Z</time>
      </trkpt>
      <trkpt lat="49.9701" lon="2.299">
        <ele>90</ele>
        <time>2022-12-28T12:59:12Z</time>
      </trkpt>
      <trkpt lat="49.9701" lon="2.299">
        <ele>90</ele>
        <time>2022-12-28T12:59:13Z</time>
      </trkpt>
      <trkpt lat="49.9701" lon="2.299">
        <ele>90</ele>
        <time>2022-12-28T12:59:14Z</time>
      </trkpt>
      <trkpt lat="49.9701" lon="2.299">
        <ele>90</ele>
        <time>2022-12-28T12:59:15Z</time>
      </trkpt>
      <trkpt lat="49.9701" lon="2.299">
        <ele>90</ele>
        <time>2022-12-28T12:59:16Z</time>
      </trkpt>
      <trkpt lat="49.9701" lon="2.299">
        <ele>90</ele>
        <time>2022-12-28T12:59:17Z</time>
      </trkpt>
      <trkpt lat="49.9701" lon="2.299">
        <ele>90</ele>
        <time>2022-12-28T12:59:18Z</time>
      </trkpt>
      <trkpt lat="49.9701" lon="2.299">
        <ele>90</ele>
        <time>2022-12-28T12:59:19Z</time>
      </trkpt>
      <trkpt lat="49.9701" lon="2.299">
        <ele>90</ele>
        <time>2022-12-28T12:59:20Z</time>
      </trkpt>
      <trkpt lat="49.9701" lon="2.299">
        <ele>90</ele>
        <time>2022-12-28T12:59:21Z</time>
      </trkpt>
      <trkpt lat="49.9701" lon="2.299">
        <ele>90</ele>
        <time>2022-12-28T12:59:22Z</time>
      </trkpt>
      <trkpt lat="49.9701" lon="2.299">
        <ele>90</ele>
        <time>2022-12-28T12:59:23Z</time>
      </trkpt>
      <trkpt lat="49.9701" lon="2.299">
        <ele>90</ele>
        <time>2022-12-28T12:59:24Z</time>
      </trkpt>
      <trkpt lat="49.9701" lon="2.299">
        <ele>90</ele>
        <time>2022-12-28T12:59:25Z</time>
      </trkpt>
      <trkpt lat="49.9701" lon="2.299">
        <ele>90</ele>
        <time>2022-12-28T12:59:26Z</time>
      </trkpt>
      <trkpt lat="49.9701" lon="2.299">
        <ele>90</ele>
        <time>2022-12-28T12:59:27Z</time>
      </trkpt>
      <trkpt lat="49.9701" lon="2.299">
        <ele>90</ele>
        <time>2022-12-28T12:59:28Z</time>
      </trkpt>
      <trkpt lat="49.9701" lon="2.299">
        <ele>90</ele>
        <time>2022-12-28T12:59:29Z</time>
      </trkpt>
      <trkpt lat="49.9701" lon="2.299">
        <ele>90</ele>
        <time>2022-12-28T12:59:30Z</time>
      </trkpt>
      <trkpt lat="49.9701" lon="2.299">
        <ele>90.1</ele>
        <time>2022-12-28T12:59:31Z</time>
      </trkpt>
      <trkpt lat="49.9701" lon="2.29899">
        <ele>90.1</ele>
        <time>2022-12-28T12:59:32Z</time>
      </trkpt>
      <trkpt lat="49.9701" lon="2.29899">
        <ele>90.1</ele>
        <time>2022-12-28T12:59:33Z</time>
      </trkpt>
      <trkpt lat="49.9701" lon="2.29899">
        <ele>90.1</ele>
        <time>2022-12-28T12:59:34Z</time>
      </trkpt>
      <trkpt lat="49.97011" lon="2.29899">
        <ele>90.1</ele>
        <time>2022-12-28T12:59:35Z</time>
      </trkpt>
      <trkpt lat="49.97011" lon="2.29899">
        <ele>90.1</ele>
        <time>2022-12-28T12:59:36Z</time>
      </trkpt>
      <trkpt lat="49.97011" lon="2.29899">
        <ele>90.1</ele>
        <time>2022-12-28T12:59:37Z</time>
      </trkpt>
      <trkpt lat="49.97011" lon="2.29899">
        <ele>90.1</ele>
        <time>2022-12-28T12:59:38Z</time>
      </trkpt>
      <trkpt lat="49.97011" lon="2.29899">
        <ele>90.1</ele>
        <time>2022-12-28T12:59:39Z</time>
      </trkpt>
      <trkpt lat="49.97011" lon="2.29899">
        <ele>90.1</ele>
        <time>2022-12-28T12:59:40Z</time>
      </trkpt>
      <trkpt lat="49.97011" lon="2.29899">
        <ele>90.1</ele>
        <time>2022-12-28T12:59:41Z</time>
      </trkpt>
      <trkpt lat="49.97011" lon="2.29899">
        <ele>90.1</ele>
        <time>2022-12-28T12:59:42Z</time>
      </trkpt>
      <trkpt lat="49.97011" lon="2.29899">
        <ele>90.1</ele>
        <time>2022-12-28T12:59:43Z</time>
      </trkpt>
      <trkpt lat="49.97011" lon="2.29899">
        <ele>90.1</ele>
        <time>2022-12-28T12:59:44Z</time>
      </trkpt>
      <trkpt lat="49.97011" lon="2.29899">
        <ele>90.1</ele>
        <time>2022-12-28T12:59:45Z</time>
      </trkpt>
      <trkpt lat="49.97011" lon="2.29899">
        <ele>90.1</ele>
        <time>2022-12-28T12:59:46Z</time>
      </trkpt>
      <trkpt lat="49.97011" lon="2.29899">
        <ele>90.1</ele>
        <time>2022-12-28T12:59:47Z</time>
      </trkpt>
      <trkpt lat="49.97011" lon="2.29899">
        <ele>90</ele>
        <time>2022-12-28T12:59:48Z</time>
      </trkpt>
      <trkpt lat="49.97011" lon="2.29899">
        <ele>90</ele>
        <time>2022-12-28T12:59:49Z</time>
      </trkpt>
      <trkpt lat="49.97011" lon="2.29899">
        <ele>90</ele>
        <time>2022-12-28T12:59:50Z</time>
      </trkpt>
      <trkpt lat="49.97011" lon="2.29899">
        <ele>90</ele>
        <time>2022-12-28T12:59:51Z</time>
      </trkpt>
      <trkpt lat="49.97011" lon="2.29898">
        <ele>90</ele>
        <time>2022-12-28T12:59:52Z</time>
      </trkpt>
      <trkpt lat="49.97012" lon="2.29898">
        <ele>90</ele>
        <time>2022-12-28T12:59:53Z</time>
      </trkpt>
      <trkpt lat="49.97013" lon="2.29898">
        <ele>90</ele>
        <time>2022-12-28T12:59:54Z</time>
      </trkpt>
      <trkpt lat="49.97013" lon="2.29898">
        <ele>90.1</ele>
        <time>2022-12-28T12:59:55Z</time>
      </trkpt>
      <trkpt lat="49.97013" lon="2.29898">
        <ele>90.1</ele>
        <time>2022-12-28T12:59:56Z</time>
      </trkpt>
      <trkpt lat="49.97013" lon="2.29898">
        <ele>90.1</ele>
        <time>2022-12-28T12:59:57Z</time>
      </trkpt>
      <trkpt lat="49.97013" lon="2.29898">
        <ele>90.1</ele>
        <time>2022-12-28T12:59:58Z</time>
      </trkpt>
      <trkpt lat="49.97013" lon="2.29898">
        <ele>90.1</ele>
        <time>2022-12-28T12:59:59Z</time>
      </trkpt>
      <trkpt lat="49.97014" lon="2.29898">
        <ele>90.1</ele>
        <time>2022-12-28T13:00:00Z</time>
      </trkpt>
      <trkpt lat="49.97014" lon="2.29898">
        <ele>90.1</ele>
        <time>2022-12-28T13:00:01Z</time>
      </trkpt>
      <trkpt lat="49.97014" lon="2.29898">
        <ele>90.1</ele>
        <time>2022-12-28T13:00:02Z</time>
      </trkpt>
      <trkpt lat="49.97014" lon="2.29898">
        <ele>90.1</ele>
        <time>2022-12-28T13:00:03Z</time>
      </trkpt>
      <trkpt lat="49.97014" lon="2.29898">
        <ele>90.1</ele>
        <time>2022-12-28T13:00:04Z</time>
      </trkpt>
      <trkpt lat="49.97014" lon="2.29898">
        <ele>90.1</ele>
        <time>2022-12-28T13:00:05Z</time>
      </trkpt>
      <trkpt lat="49.97014" lon="2.29898">
        <ele>90.1</ele>
        <time>2022-12-28T13:00:06Z</time>
      </trkpt>
      <trkpt lat="49.97014" lon="2.29898">
        <ele>90.1</ele>
        <time>2022-12-28T13:00:07Z</time>
      </trkpt>
      <trkpt lat="49.97014" lon="2.29898">
        <ele>90.1</ele>
        <time>2022-12-28T13:00:08Z</time>
      </trkpt>
      <trkpt lat="49.97014" lon="2.29898">
        <ele>90.1</ele>
        <time>2022-12-28T13:00:09Z</time>
      </trkpt>
      <trkpt lat="49.97014" lon="2.29897">
        <ele>90.1</ele>
        <time>2022-12-28T13:00:10Z</time>
      </trkpt>
      <trkpt lat="49.97014" lon="2.29897">
        <ele>90.1</ele>
        <time>2022-12-28T13:00:11Z</time>
      </trkpt>
      <trkpt lat="49.97013" lon="2.29897">
        <ele>90.1</ele>
        <time>2022-12-28T13:00:12Z</time>
      </trkpt>
      <trkpt lat="49.97013" lon="2.29897">
        <ele>90.1</ele>
        <time>2022-12-28T13:00:13Z</time>
      </trkpt>
      <trkpt lat="49.97013" lon="2.29897">
        <ele>90.1</ele>
        <time>2022-12-28T13:00:14Z</time>
      </trkpt>
      <trkpt lat="49.97013" lon="2.29897">
        <ele>90.1</ele>
        <time>2022-12-28T13:00:15Z</time>
      </trkpt>
      <trkpt lat="49.97013" lon="2.29897">
        <ele>90.1</ele>
        <time>2022-12-28T13:00:16Z</time>
      </trkpt>
      <trkpt lat="49.97013" lon="2.29897">
        <ele>90.1</ele>
        <time>2022-12-28T13:00:17Z</time>
      </trkpt>
      <trkpt lat="49.97013" lon="2.29896">
        <ele>90.1</ele>
        <time>2022-12-28T13:00:18Z</time>
      </trkpt>
      <trkpt lat="49.97013" lon="2.29896">
        <ele>90</ele>
        <time>2022-12-28T13:00:19Z</time>
      </trkpt>
      <trkpt lat="49.97013" lon="2.29896">
        <ele>90</ele>
        <time>2022-12-28T13:00:20Z</time>
      </trkpt>
      <trkpt lat="49.97013" lon="2.29896">
        <ele>89.9</ele>
        <time>2022-12-28T13:00:21Z</time>
      </trkpt>
      <trkpt lat="49.97013" lon="2.29896">
        <ele>89.9</ele>
        <time>2022-12-28T13:00:22Z</time>
      </trkpt>
      <trkpt lat="49.97013" lon="2.29896">
        <ele>89.9</ele>
        <time>2022-12-28T13:00:23Z</time>
      </trkpt>
      <trkpt lat="49.97013" lon="2.29896">
        <ele>89.9</ele>
        <time>2022-12-28T13:00:24Z</time>
      </trkpt>
      <trkpt lat="49.97013" lon="2.29896">
        <ele>89.9</ele>
        <time>2022-12-28T13:00:25Z</time>
      </trkpt>
      <trkpt lat="49.97013" lon="2.29895">
        <ele>89.9</ele>
        <time>2022-12-28T13:00:26Z</time>
      </trkpt>
      <trkpt lat="49.97013" lon="2.29895">
        <ele>89.9</ele>
        <time>2022-12-28T13:00:27Z</time>
      </trkpt>
      <trkpt lat="49.97013" lon="2.29895">
        <ele>89.9</ele>
        <time>2022-12-28T13:00:28Z</time>
      </trkpt>
      <trkpt lat="49.97013" lon="2.29895">
        <ele>89.9</ele>
        <time>2022-12-28T13:00:29Z</time>
      </trkpt>
      <trkpt lat="49.97013" lon="2.29895">
        <ele>89.9</ele>
        <time>2022-12-28T13:00:30Z</time>
      </trkpt>
      <trkpt lat="49.97013" lon="2.29895">
        <ele>89.9</ele>
        <time>2022-12-28T13:00:31Z</time>
      </trkpt>
      <trkpt lat="49.97013" lon="2.29895">
        <ele>89.9</ele>
        <time>2022-12-28T13:00:32Z</time>
      </trkpt>
      <trkpt lat="49.97013" lon="2.29894">
        <ele>89.9</ele>
        <time>2022-12-28T13:00:33Z</time>
      </trkpt>
      <trkpt lat="49.97013" lon="2.29894">
        <ele>89.9</ele>
        <time>2022-12-28T13:00:34Z</time>
      </trkpt>
      <trkpt lat="49.97013" lon="2.29894">
        <ele>89.9</ele>
        <time>2022-12-28T13:00:35Z</time>
      </trkpt>
      <trkpt lat="49.97012" lon="2.29894">
        <ele>89.9</ele>
        <time>2022-12-28T13:00:36Z</time>
      </trkpt>
      <trkpt lat="49.97012" lon="2.29894">
        <ele>89.9</ele>
        <time>2022-12-28T13:00:37Z</time>
      </trkpt>
      <trkpt lat="49.97012" lon="2.29894">
        <ele>89.9</ele>
        <time>2022-12-28T13:00:38Z</time>
      </trkpt>
      <trkpt lat="49.97012" lon="2.29894">
        <ele>89.9</ele>
        <time>2022-12-28T13:00:39Z</time>
      </trkpt>
      <trkpt lat="49.97012" lon="2.29894">
        <ele>89.9</ele>
        <time>2022-12-28T13:00:40Z</time>
      </trkpt>
      <trkpt lat="49.97012" lon="2.29893">
        <ele>89.9</ele>
        <time>2022-12-28T13:00:41Z</time>
      </trkpt>
      <trkpt lat="49.97012" lon="2.29893">
        <ele>89.9</ele>
        <time>2022-12-28T13:00:42Z</time>
      </trkpt>
      <trkpt lat="49.97012" lon="2.29893">
        <ele>89.9</ele>
        <time>2022-12-28T13:00:44Z</time>
      </trkpt>
      <trkpt lat="49.97012" lon="2.29893">
        <ele>89.9</ele>
        <time>2022-12-28T13:00:45Z</time>
      </trkpt>
      <trkpt lat="49.97012" lon="2.29893">
        <ele>89.9</ele>
        <time>2022-12-28T13:00:46Z</time>
      </trkpt>
      <trkpt lat="49.97012" lon="2.29893">
        <ele>89.9</ele>
        <time>2022-12-28T13:00:47Z</time>
      </trkpt>
      <trkpt lat="49.97012" lon="2.29893">
        <ele>89.9</ele>
        <time>2022-12-28T13:00:48Z</time>
      </trkpt>
      <trkpt lat="49.97012" lon="2.29893">
        <ele>89.9</ele>
        <time>2022-12-28T13:00:50Z</time>
      </trkpt>
      <trkpt lat="49.97012" lon="2.29892">
        <ele>89.9</ele>
        <time>2022-12-28T13:00:51Z</time>
      </trkpt>
      <trkpt lat="49.97013" lon="2.29884">
        <ele>89.8</ele>
        <time>2022-12-28T13:00:52Z</time>
      </trkpt>
      <trkpt lat="49.97012" lon="2.29884">
        <ele>89.8</ele>
        <time>2022-12-28T13:00:53Z</time>
      </trkpt>
      <trkpt lat="49.97012" lon="2.29883">
        <ele>89.8</ele>
        <time>2022-12-28T13:00:54Z</time>
      </trkpt>
      <trkpt lat="49.97011" lon="2.29882">
        <ele>89.8</ele>
        <time>2022-12-28T13:00:55Z</time>
      </trkpt>
      <trkpt lat="49.97011" lon="2.2988">
        <ele>89.8</ele>
        <time>2022-12-28T13:00:56Z</time>
      </trkpt>
      <trkpt lat="49.9701" lon="2.29879">
        <ele>89.8</ele>
        <time>2022-12-28T13:00:57Z</time>
      </trkpt>
      <trkpt lat="49.9701" lon="2.29877">
        <ele>89.7</ele>
        <time>2022-12-28T13:00:59Z</time>
      </trkpt>
      <trkpt lat="49.9701" lon="2.29876">
        <ele>89.7</ele>
        <time>2022-12-28T13:01:00Z</time>
      </trkpt>
      <trkpt lat="49.97009" lon="2.29875">
        <ele>89.7</ele>
        <time>2022-12-28T13:01:01Z</time>
      </trkpt>
      <trkpt lat="49.97009" lon="2.29873">
        <ele>89.6</ele>
        <time>2022-12-28T13:01:02Z</time>
      </trkpt>
      <trkpt lat="49.97009" lon="2.29872">
        <ele>89.6</ele>
        <time>2022-12-28T13:01:03Z</time>
      </trkpt>
      <trkpt lat="49.97009" lon="2.2987">
        <ele>89.6</ele>
        <time>2022-12-28T13:01:04Z</time>
      </trkpt>
      <trkpt lat="49.97009" lon="2.29869">
        <ele>89.6</ele>
        <time>2022-12-28T13:01:05Z</time>
      </trkpt>
      <trkpt lat="49.97008" lon="2.29867">
        <ele>89.6</ele>
        <time>2022-12-28T13:01:07Z</time>
      </trkpt>
      <trkpt lat="49.97008" lon="2.29866">
        <ele>89.6</ele>
        <time>2022-12-28T13:01:08Z</time>
      </trkpt>
      <trkpt lat="49.97008" lon="2.29864">
        <ele>89.5</ele>
        <time>2022-12-28T13:01:09Z</time>
      </trkpt>
      <trkpt lat="49.97007" lon="2.29863">
        <ele>89.5</ele>
        <time>2022-12-28T13:01:10Z</time>
      </trkpt>
      <trkpt lat="49.97007" lon="2.29861">
        <ele>89.5</ele>
        <time>2022-12-28T13:01:12Z</time>
      </trkpt>
      <trkpt lat="49.97007" lon="2.29859">
        <ele>89.4</ele>
        <time>2022-12-28T13:01:13Z</time>
      </trkpt>
      <trkpt lat="49.97007" lon="2.29857">
        <ele>89.4</ele>
        <time>2022-12-28T13:01:14Z</time>
      </trkpt>
      <trkpt lat="49.97007" lon="2.29855">
        <ele>89.4</ele>
        <time>2022-12-28T13:01:15Z</time>
      </trkpt>
      <trkpt lat="49.97007" lon="2.29853">
        <ele>89.4</ele>
        <time>2022-12-28T13:01:17Z</time>
      </trkpt>
      <trkpt lat="49.97008" lon="2.29851">
        <ele>89.4</ele>
        <time>2022-12-28T13:01:18Z</time>
      </trkpt>
      <trkpt lat="49.97008" lon="2.29849">
        <ele>89.4</ele>
        <time>2022-12-28T13:01:19Z</time>
      </trkpt>
      <trkpt lat="49.97009" lon="2.29847">
        <ele>89.4</ele>
        <time>2022-12-28T13:01:20Z</time>
      </trkpt>
      <trkpt lat="49.9701" lon="2.29845">
        <ele>89.3</ele>
        <time>2022-12-28T13:01:21Z</time>
      </trkpt>
      <trkpt lat="49.9701" lon="2.29843">
        <ele>89.3</ele>
        <time>2022-12-28T13:01:22Z</time>
      </trkpt>
      <trkpt lat="49.9701" lon="2.2984">
        <ele>89.3</ele>
        <time>2022-12-28T13:01:23Z</time>
      </trkpt>
      <trkpt lat="49.97011" lon="2.29838">
        <ele>89.3</ele>
        <time>2022-12-28T13:01:24Z</time>
      </trkpt>
      <trkpt lat="49.97012" lon="2.29835">
        <ele>89.3</ele>
        <time>2022-12-28T13:01:25Z</time>
      </trkpt>
      <trkpt lat="49.97012" lon="2.29834">
        <ele>89.3</ele>
        <time>2022-12-28T13:01:26Z</time>
      </trkpt>
      <trkpt lat="49.97012" lon="2.29833">
        <ele>89.3</ele>
        <time>2022-12-28T13:01:27Z</time>
      </trkpt>
      <trkpt lat="49.97013" lon="2.29831">
        <ele>89.2</ele>
        <time>2022-12-28T13:01:28Z</time>
      </trkpt>
      <trkpt lat="49.97014" lon="2.29829">
        <ele>89.2</ele>
        <time>2022-12-28T13:01:30Z</time>
      </trkpt>
      <trkpt lat="49.97014" lon="2.29826">
        <ele>89.2</ele>
        <time>2022-12-28T13:01:31Z</time>
      </trkpt>
      <trkpt lat="49.97015" lon="2.29824">
        <ele>89.2</ele>
        <time>2022-12-28T13:01:32Z</time>
      </trkpt>
      <trkpt lat="49.97017" lon="2.29822">
        <ele>89.2</ele>
        <time>2022-12-28T13:01:33Z</time>
      </trkpt>
      <trkpt lat="49.97017" lon="2.29821">
        <ele>89.1</ele>
        <time>2022-12-28T13:01:34Z</time>
      </trkpt>
      <trkpt lat="49.97018" lon="2.29818">
        <ele>89.1</ele>
        <time>2022-12-28T13:01:35Z</time>
      </trkpt>
      <trkpt lat="49.97019" lon="2.29817">
        <ele>89.1</ele>
        <time>2022-12-28T13:01:36Z</time>
      </trkpt>
      <trkpt lat="49.97019" lon="2.29816">
        <ele>89.1</ele>
        <time>2022-12-28T13:01:37Z</time>
      </trkpt>
      <trkpt lat="49.9702" lon="2.29813">
        <ele>89.1</ele>
        <time>2022-12-28T13:01:38Z</time>
      </trkpt>
      <trkpt lat="49.97021" lon="2.29812">
        <ele>89.1</ele>
        <time>2022-12-28T13:01:39Z</time>
      </trkpt>
      <trkpt lat="49.97022" lon="2.2981">
        <ele>89</ele>
        <time>2022-12-28T13:01:41Z</time>
      </trkpt>
      <trkpt lat="49.97023" lon="2.29808">
        <ele>89</ele>
        <time>2022-12-28T13:01:42Z</time>
      </trkpt>
      <trkpt lat="49.97024" lon="2.29802">
        <ele>89</ele>
        <time>2022-12-28T13:01:43Z</time>
      </trkpt>
      <trkpt lat="49.97024" lon="2.29801">
        <ele>89</ele>
        <time>2022-12-28T13:01:44Z</time>
      </trkpt>
      <trkpt lat="49.97024" lon="2.29799">
        <ele>89</ele>
        <time>2022-12-28T13:01:45Z</time>
      </trkpt>
      <trkpt lat="49.97025" lon="2.29797">
        <ele>88.9</ele>
        <time>2022-12-28T13:01:46Z</time>
      </trkpt>
      <trkpt lat="49.97026" lon="2.29792">
        <ele>88.9</ele>
        <time>2022-12-28T13:01:47Z</time>
      </trkpt>
      <trkpt lat="49.97026" lon="2.29789">
        <ele>88.9</ele>
        <time>2022-12-28T13:01:48Z</time>
      </trkpt>
      <trkpt lat="49.97026" lon="2.29788">
        <ele>88.9</ele>
        <time>2022-12-28T13:01:49Z</time>
      </trkpt>
      <trkpt lat="49.97027" lon="2.29786">
        <ele>88.9</ele>
        <time>2022-12-28T13:01:50Z</time>
      </trkpt>
      <trkpt lat="49.97027" lon="2.29784">
        <ele>88.9</ele>
        <time>2022-12-28T13:01:52Z</time>
      </trkpt>
      <trkpt lat="49.97028" lon="2.29781">
        <ele>88.9</ele>
        <time>2022-12-28T13:01:53Z</time>
      </trkpt>
      <trkpt lat="49.97029" lon="2.29779">
        <ele>88.8</ele>
        <time>2022-12-28T13:01:54Z</time>
      </trkpt>
      <trkpt lat="49.97029" lon="2.29777">
        <ele>88.8</ele>
        <time>2022-12-28T13:01:55Z</time>
      </trkpt>
      <trkpt lat="49.9703" lon="2.29775">
        <ele>88.8</ele>
        <time>2022-12-28T13:01:56Z</time>
      </trkpt>
      <trkpt lat="49.9703" lon="2.29771">
        <ele>88.8</ele>
        <time>2022-12-28T13:01:58Z</time>
      </trkpt>
      <trkpt lat="49.9703" lon="2.2977">
        <ele>88.8</ele>
        <time>2022-12-28T13:01:59Z</time>
      </trkpt>
      <trkpt lat="49.97031" lon="2.29767">
        <ele>88.8</ele>
        <time>2022-12-28T13:02:00Z</time>
      </trkpt>
      <trkpt lat="49.97031" lon="2.29766">
        <ele>88.8</ele>
        <time>2022-12-28T13:02:01Z</time>
      </trkpt>
      <trkpt lat="49.97031" lon="2.29764">
        <ele>88.8</ele>
        <time>2022-12-28T13:02:02Z</time>
      </trkpt>
      <trkpt lat="49.9703" lon="2.29762">
        <ele>88.7</ele>
        <time>2022-12-28T13:02:03Z</time>
      </trkpt>
      <trkpt lat="49.97031" lon="2.2976">
        <ele>88.7</ele>
        <time>2022-12-28T13:02:04Z</time>
      </trkpt>
      <trkpt lat="49.97031" lon="2.29759">
        <ele>88.7</ele>
        <time>2022-12-28T13:02:05Z</time>
      </trkpt>
      <trkpt lat="49.97032" lon="2.29757">
        <ele>88.7</ele>
        <time>2022-12-28T13:02:06Z</time>
      </trkpt>
      <trkpt lat="49.97034" lon="2.29753">
        <ele>88.7</ele>
        <time>2022-12-28T13:02:08Z</time>
      </trkpt>
      <trkpt lat="49.97034" lon="2.29752">
        <ele>88.6</ele>
        <time>2022-12-28T13:02:09Z</time>
      </trkpt>
      <trkpt lat="49.97035" lon="2.29751">
        <ele>88.6</ele>
        <time>2022-12-28T13:02:10Z</time>
      </trkpt>
      <trkpt lat="49.97035" lon="2.2975">
        <ele>88.6</ele>
        <time>2022-12-28T13:02:11Z</time>
      </trkpt>
      <trkpt lat="49.97036" lon="2.29749">
        <ele>88.6</ele>
        <time>2022-12-28T13:02:12Z</time>
      </trkpt>
      <trkpt lat="49.97036" lon="2.29747">
        <ele>88.6</ele>
        <time>2022-12-28T13:02:13Z</time>
      </trkpt>
      <trkpt lat="49.97037" lon="2.29746">
        <ele>88.6</ele>
        <time>2022-12-28T13:02:14Z</time>
      </trkpt>
      <trkpt lat="49.97037" lon="2.29744">
        <ele>88.6</ele>
        <time>2022-12-28T13:02:16Z</time>
      </trkpt>
      <trkpt lat="49.97038" lon="2.29743">
        <ele>88.6</ele>
        <time>2022-12-28T13:02:17Z</time>
      </trkpt>
      <trkpt lat="49.97039" lon="2.2974">
        <ele>88.5</ele>
        <time>2022-12-28T13:02:18Z</time>
      </trkpt>
      <trkpt lat="49.97039" lon="2.29739">
        <ele>88.5</ele>
        <time>2022-12-28T13:02:19Z</time>
      </trkpt>
      <trkpt lat="49.9704" lon="2.29738">
        <ele>88.5</ele>
        <time>2022-12-28T13:02:20Z</time>
      </trkpt>
      <trkpt lat="49.97041" lon="2.29737">
        <ele>88.5</ele>
        <time>2022-12-28T13:02:21Z</time>
      </trkpt>
      <trkpt lat="49.97041" lon="2.29736">
        <ele>88.5</ele>
        <time>2022-12-28T13:02:22Z</time>
      </trkpt>
      <trkpt lat="49.97043" lon="2.2973">
        <ele>88.4</ele>
        <time>2022-12-28T13:02:24Z</time>
      </trkpt>
      <trkpt lat="49.97043" lon="2.29729">
        <ele>88.4</ele>
        <time>2022-12-28T13:02:25Z</time>
      </trkpt>
      <trkpt lat="49.97044" lon="2.29727">
        <ele>88.4</ele>
        <time>2022-12-28T13:02:26Z</time>
      </trkpt>
      <trkpt lat="49.97044" lon="2.29726">
        <ele>88.4</ele>
        <time>2022-12-28T13:02:27Z</time>
      </trkpt>
      <trkpt lat="49.97043" lon="2.29721">
        <ele>88.3</ele>
        <time>2022-12-28T13:02:28Z</time>
      </trkpt>
      <trkpt lat="49.97043" lon="2.29721">
        <ele>88.3</ele>
        <time>2022-12-28T13:02:29Z</time>
      </trkpt>
      <trkpt lat="49.97043" lon="2.29719">
        <ele>88.3</ele>
        <time>2022-12-28T13:02:30Z</time>
      </trkpt>
      <trkpt lat="49.97044" lon="2.29716">
        <ele>88.3</ele>
        <time>2022-12-28T13:02:32Z</time>
      </trkpt>
      <trkpt lat="49.97045" lon="2.29716">
        <ele>88.3</ele>
        <time>2022-12-28T13:02:33Z</time>
      </trkpt>
      <trkpt lat="49.97046" lon="2.29715">
        <ele>88.3</ele>
        <time>2022-12-28T13:02:34Z</time>
      </trkpt>
      <trkpt lat="49.97047" lon="2.29715">
        <ele>88.2</ele>
        <time>2022-12-28T13:02:35Z</time>
      </trkpt>
      <trkpt lat="49.97047" lon="2.29715">
        <ele>88.2</ele>
        <time>2022-12-28T13:02:36Z</time>
      </trkpt>
      <trkpt lat="49.97048" lon="2.29715">
        <ele>88.2</ele>
        <time>2022-12-28T13:02:37Z</time>
      </trkpt>
      <trkpt lat="49.97047" lon="2.29714">
        <ele>88.2</ele>
        <time>2022-12-28T13:02:38Z</time>
      </trkpt>
      <trkpt lat="49.97048" lon="2.29712">
        <ele>88.2</ele>
        <time>2022-12-28T13:02:39Z</time>
      </trkpt>
      <trkpt lat="49.97048" lon="2.2971">
        <ele>88.2</ele>
        <time>2022-12-28T13:02:40Z</time>
      </trkpt>
      <trkpt lat="49.9705" lon="2.29708">
        <ele>88.2</ele>
        <time>2022-12-28T13:02:41Z</time>
      </trkpt>
      <trkpt lat="49.97051" lon="2.29708">
        <ele>88.1</ele>
        <time>2022-12-28T13:02:43Z</time>
      </trkpt>
      <trkpt lat="49.97052" lon="2.29707">
        <ele>88.1</ele>
        <time>2022-12-28T13:02:44Z</time>
      </trkpt>
      <trkpt lat="49.97053" lon="2.29705">
        <ele>88.1</ele>
        <time>2022-12-28T13:02:45Z</time>
      </trkpt>
      <trkpt lat="49.97053" lon="2.29704">
        <ele>88.1</ele>
        <time>2022-12-28T13:02:46Z</time>
      </trkpt>
      <trkpt lat="49.97054" lon="2.29702">
        <ele>88.1</ele>
        <time>2022-12-28T13:02:47Z</time>
      </trkpt>
      <trkpt lat="49.97056" lon="2.29701">
        <ele>88</ele>
        <time>2022-12-28T13:02:48Z</time>
      </trkpt>
      <trkpt lat="49.97057" lon="2.297">
        <ele>88</ele>
        <time>2022-12-28T13:02:49Z</time>
      </trkpt>
      <trkpt lat="49.97057" lon="2.29699">
        <ele>88</ele>
        <time>2022-12-28T13:02:50Z</time>
      </trkpt>
      <trkpt lat="49.97058" lon="2.29698">
        <ele>88</ele>
        <time>2022-12-28T13:02:51Z</time>
      </trkpt>
      <trkpt lat="49.97058" lon="2.29696">
        <ele>88</ele>
        <time>2022-12-28T13:02:52Z</time>
      </trkpt>
      <trkpt lat="49.97059" lon="2.29697">
        <ele>87.9</ele>
        <time>2022-12-28T13:02:54Z</time>
      </trkpt>
      <trkpt lat="49.9706" lon="2.29696">
        <ele>87.9</ele>
        <time>2022-12-28T13:02:55Z</time>
      </trkpt>
      <trkpt lat="49.97061" lon="2.29694">
        <ele>87.9</ele>
        <time>2022-12-28T13:02:56Z</time>
      </trkpt>
      <trkpt lat="49.97062" lon="2.29692">
        <ele>87.9</ele>
        <time>2022-12-28T13:02:57Z</time>
      </trkpt>
      <trkpt lat="49.97062" lon="2.2969">
        <ele>87.9</ele>
        <time>2022-12-28T13:02:58Z</time>
      </trkpt>
      <trkpt lat="49.97063" lon="2.29689">
        <ele>87.9</ele>
        <time>2022-12-28T13:02:59Z</time>
      </trkpt>
      <trkpt lat="49.97063" lon="2.29688">
        <ele>87.8</ele>
        <time>2022-12-28T13:03:00Z</time>
      </trkpt>
      <trkpt lat="49.97063" lon="2.29687">
        <ele>87.8</ele>
        <time>2022-12-28T13:03:01Z</time>
      </trkpt>
      <trkpt lat="49.97064" lon="2.29684">
        <ele>87.8</ele>
        <time>2022-12-28T13:03:03Z</time>
      </trkpt>
      <trkpt lat="49.97065" lon="2.29682">
        <ele>87.8</ele>
        <time>2022-12-28T13:03:04Z</time>
      </trkpt>
      <trkpt lat="49.97066" lon="2.2968">
        <ele>87.7</ele>
        <time>2022-12-28T13:03:05Z</time>
      </trkpt>
      <trkpt lat="49.97066" lon="2.29678">
        <ele>87.7</ele>
        <time>2022-12-28T13:03:06Z</time>
      </trkpt>
      <trkpt lat="49.97066" lon="2.29674">
        <ele>87.7</ele>
        <time>2022-12-28T13:03:08Z</time>
      </trkpt>
      <trkpt lat="49.97066" lon="2.2967">
        <ele>87.6</ele>
        <time>2022-12-28T13:03:09Z</time>
      </trkpt>
      <trkpt lat="49.97065" lon="2.29668">
        <ele>87.6</ele>
        <time>2022-12-28T13:03:10Z</time>
      </trkpt>
      <trkpt lat="49.97065" lon="2.29666">
        <ele>87.6</ele>
        <time>2022-12-28T13:03:11Z</time>
      </trkpt>
      <trkpt lat="49.97064" lon="2.29664">
        <ele>87.6</ele>
        <time>2022-12-28T13:03:12Z</time>
      </trkpt>
      <trkpt lat="49.97066" lon="2.2966">
        <ele>87.5</ele>
        <time>2022-12-28T13:03:13Z</time>
      </trkpt>
      <trkpt lat="49.97067" lon="2.29659">
        <ele>87.5</ele>
        <time>2022-12-28T13:03:14Z</time>
      </trkpt>
      <trkpt lat="49.97067" lon="2.29657">
        <ele>87.5</ele>
        <time>2022-12-28T13:03:15Z</time>
      </trkpt>
      <trkpt lat="49.97068" lon="2.29655">
        <ele>87.5</ele>
        <time>2022-12-28T13:03:16Z</time>
      </trkpt>
      <trkpt lat="49.97068" lon="2.29654">
        <ele>87.4</ele>
        <time>2022-12-28T13:03:17Z</time>
      </trkpt>
      <trkpt lat="49.97073" lon="2.29653">
        <ele>87.4</ele>
        <time>2022-12-28T13:03:19Z</time>
      </trkpt>
      <trkpt lat="49.97073" lon="2.29651">
        <ele>87.4</ele>
        <time>2022-12-28T13:03:20Z</time>
      </trkpt>
      <trkpt lat="49.97073" lon="2.2965">
        <ele>87.3</ele>
        <time>2022-12-28T13:03:21Z</time>
      </trkpt>
      <trkpt lat="49.97073" lon="2.29648">
        <ele>87.3</ele>
        <time>2022-12-28T13:03:22Z</time>
      </trkpt>
      <trkpt lat="49.97082" lon="2.29649">
        <ele>87.2</ele>
        <time>2022-12-28T13:03:23Z</time>
      </trkpt>
      <trkpt lat="49.97083" lon="2.2965">
        <ele>87.2</ele>
        <time>2022-12-28T13:03:24Z</time>
      </trkpt>
      <trkpt lat="49.97082" lon="2.29647">
        <ele>87.1</ele>
        <time>2022-12-28T13:03:25Z</time>
      </trkpt>
      <trkpt lat="49.97082" lon="2.29644">
        <ele>87.1</ele>
        <time>2022-12-28T13:03:26Z</time>
      </trkpt>
      <trkpt lat="49.97081" lon="2.2964">
        <ele>87.1</ele>
        <time>2022-12-28T13:03:28Z</time>
      </trkpt>
      <trkpt lat="49.9708" lon="2.29639">
        <ele>87.1</ele>
        <time>2022-12-28T13:03:29Z</time>
      </trkpt>
      <trkpt lat="49.97081" lon="2.29636">
        <ele>87</ele>
        <time>2022-12-28T13:03:30Z</time>
      </trkpt>
      <trkpt lat="49.9708" lon="2.29634">
        <ele>87</ele>
        <time>2022-12-28T13:03:31Z</time>
      </trkpt>
      <trkpt lat="49.9708" lon="2.29632">
        <ele>87</ele>
        <time>2022-12-28T13:03:32Z</time>
      </trkpt>
      <trkpt lat="49.9708" lon="2.2963">
        <ele>87</ele>
        <time>2022-12-28T13:03:33Z</time>
      </trkpt>
      <trkpt lat="49.97081" lon="2.29629">
        <ele>87</ele>
        <time>2022-12-28T13:03:35Z</time>
      </trkpt>
      <trkpt lat="49.97081" lon="2.29628">
        <ele>87</ele>
        <time>2022-12-28T13:03:36Z</time>
      </trkpt>
      <trkpt lat="49.97081" lon="2.29627">
        <ele>87</ele>
        <time>2022-12-28T13:03:37Z</time>
      </trkpt>
      <trkpt lat="49.97083" lon="2.29624">
        <ele>86.9</ele>
        <time>2022-12-28T13:03:38Z</time>
      </trkpt>
      <trkpt lat="49.97084" lon="2.29623">
        <ele>86.9</ele>
        <time>2022-12-28T13:03:40Z</time>
      </trkpt>
      <trkpt lat="49.97084" lon="2.29621">
        <ele>86.9</ele>
        <time>2022-12-28T13:03:41Z</time>
      </trkpt>
      <trkpt lat="49.97085" lon="2.2962">
        <ele>86.9</ele>
        <time>2022-12-28T13:03:42Z</time>
      </trkpt>
      <trkpt lat="49.97086" lon="2.29619">
        <ele>86.9</ele>
        <time>2022-12-28T13:03:43Z</time>
      </trkpt>
      <trkpt lat="49.97086" lon="2.29616">
        <ele>86.8</ele>
        <time>2022-12-28T13:03:44Z</time>
      </trkpt>
      <trkpt lat="49.97087" lon="2.29614">
        <ele>86.8</ele>
        <time>2022-12-28T13:03:46Z</time>
      </trkpt>
      <trkpt lat="49.97087" lon="2.29612">
        <ele>86.8</ele>
        <time>2022-12-28T13:03:47Z</time>
      </trkpt>
      <trkpt lat="49.97087" lon="2.2961">
        <ele>86.8</ele>
        <time>2022-12-28T13:03:48Z</time>
      </trkpt>
      <trkpt lat="49.97086" lon="2.29606">
        <ele>86.7</ele>
        <time>2022-12-28T13:03:49Z</time>
      </trkpt>
      <trkpt lat="49.97086" lon="2.29602">
        <ele>86.7</ele>
        <time>2022-12-28T13:03:50Z</time>
      </trkpt>
      <trkpt lat="49.97086" lon="2.29601">
        <ele>86.6</ele>
        <time>2022-12-28T13:03:51Z</time>
      </trkpt>
      <trkpt lat="49.97086" lon="2.29599">
        <ele>86.6</ele>
        <time>2022-12-28T13:03:52Z</time>
      </trkpt>
      <trkpt lat="49.97086" lon="2.29594">
        <ele>86.6</ele>
        <time>2022-12-28T13:03:53Z</time>
      </trkpt>
      <trkpt lat="49.97086" lon="2.29592">
        <ele>86.6</ele>
        <time>2022-12-28T13:03:55Z</time>
      </trkpt>
      <trkpt lat="49.97087" lon="2.29591">
        <ele>86.6</ele>
        <time>2022-12-28T13:03:56Z</time>
      </trkpt>
      <trkpt lat="49.97087" lon="2.29589">
        <ele>86.5</ele>
        <time>2022-12-28T13:03:57Z</time>
      </trkpt>
      <trkpt lat="49.97088" lon="2.29588">
        <ele>86.5</ele>
        <time>2022-12-28T13:03:58Z</time>
      </trkpt>
      <trkpt lat="49.97089" lon="2.29585">
        <ele>86.5</ele>
        <time>2022-12-28T13:03:59Z</time>
      </trkpt>
      <trkpt lat="49.97089" lon="2.29584">
        <ele>86.5</ele>
        <time>2022-12-28T13:04:00Z</time>
      </trkpt>
      <trkpt lat="49.9709" lon="2.29583">
        <ele>86.5</ele>
        <time>2022-12-28T13:04:01Z</time>
      </trkpt>
      <trkpt lat="49.97091" lon="2.2958">
        <ele>86.4</ele>
        <time>2022-12-28T13:04:03Z</time>
      </trkpt>
      <trkpt lat="49.97093" lon="2.2958">
        <ele>86.4</ele>
        <time>2022-12-28T13:04:04Z</time>
      </trkpt>
      <trkpt lat="49.97094" lon="2.29578">
        <ele>86.4</ele>
        <time>2022-12-28T13:04:05Z</time>
      </trkpt>
      <trkpt lat="49.97095" lon="2.29577">
        <ele>86.4</ele>
        <time>2022-12-28T13:04:06Z</time>
      </trkpt>
      <trkpt lat="49.97096" lon="2.29576">
        <ele>86.4</ele>
        <time>2022-12-28T13:04:07Z</time>
      </trkpt>
      <trkpt lat="49.97097" lon="2.29575">
        <ele>86.4</ele>
        <time>2022-12-28T13:04:08Z</time>
      </trkpt>
      <trkpt lat="49.97098" lon="2.29574">
        <ele>86.3</ele>
        <time>2022-12-28T13:04:10Z</time>
      </trkpt>
      <trkpt lat="49.97098" lon="2.29573">
        <ele>86.3</ele>
        <time>2022-12-28T13:04:11Z</time>
      </trkpt>
      <trkpt lat="49.97099" lon="2.29572">
        <ele>86.3</ele>
        <time>2022-12-28T13:04:12Z</time>
      </trkpt>
      <trkpt lat="49.971" lon="2.29571">
        <ele>86.3</ele>
        <time>2022-12-28T13:04:13Z</time>
      </trkpt>
      <trkpt lat="49.97101" lon="2.29571">
        <ele>86.3</ele>
        <time>2022-12-28T13:04:14Z</time>
      </trkpt>
      <trkpt lat="49.97102" lon="2.2957">
        <ele>86.2</ele>
        <time>2022-12-28T13:04:16Z</time>
      </trkpt>
      <trkpt lat="49.97103" lon="2.29569">
        <ele>86.2</ele>
        <time>2022-12-28T13:04:17Z</time>
      </trkpt>
      <trkpt lat="49.97104" lon="2.29568">
        <ele>86.2</ele>
        <time>2022-12-28T13:04:18Z</time>
      </trkpt>
      <trkpt lat="49.97105" lon="2.29566">
        <ele>86.2</ele>
        <time>2022-12-28T13:04:19Z</time>
      </trkpt>
      <trkpt lat="49.97106" lon="2.29565">
        <ele>86.2</ele>
        <time>2022-12-28T13:04:20Z</time>
      </trkpt>
      <trkpt lat="49.97107" lon="2.29565">
        <ele>86.1</ele>
        <time>2022-12-28T13:04:21Z</time>
      </trkpt>
      <trkpt lat="49.97107" lon="2.29564">
        <ele>86.1</ele>
        <time>2022-12-28T13:04:22Z</time>
      </trkpt>
      <trkpt lat="49.97109" lon="2.29561">
        <ele>86</ele>
        <time>2022-12-28T13:04:23Z</time>
      </trkpt>
      <trkpt lat="49.9711" lon="2.2956">
        <ele>86</ele>
        <time>2022-12-28T13:04:25Z</time>
      </trkpt>
      <trkpt lat="49.97111" lon="2.29559">
        <ele>86</ele>
        <time>2022-12-28T13:04:26Z</time>
      </trkpt>
      <trkpt lat="49.97112" lon="2.29558">
        <ele>86</ele>
        <time>2022-12-28T13:04:27Z</time>
      </trkpt>
      <trkpt lat="49.97114" lon="2.29555">
        <ele>85.9</ele>
        <time>2022-12-28T13:04:28Z</time>
      </trkpt>
      <trkpt lat="49.97114" lon="2.29553">
        <ele>85.9</ele>
        <time>2022-12-28T13:04:29Z</time>
      </trkpt>
      <trkpt lat="49.97115" lon="2.29552">
        <ele>85.8</ele>
        <time>2022-12-28T13:04:30Z</time>
      </trkpt>
      <trkpt lat="49.97116" lon="2.29551">
        <ele>85.8</ele>
        <time>2022-12-28T13:04:31Z</time>
      </trkpt>
      <trkpt lat="49.97117" lon="2.29549">
        <ele>85.8</ele>
        <time>2022-12-28T13:04:32Z</time>
      </trkpt>
      <trkpt lat="49.97119" lon="2.29548">
        <ele>85.7</ele>
        <time>2022-12-28T13:04:33Z</time>
      </trkpt>
      <trkpt lat="49.9712" lon="2.29541">
        <ele>85.6</ele>
        <time>2022-12-28T13:04:35Z</time>
      </trkpt>
      <trkpt lat="49.97122" lon="2.29539">
        <ele>85.5</ele>
        <time>2022-12-28T13:04:36Z</time>
      </trkpt>
      <trkpt lat="49.97122" lon="2.29538">
        <ele>85.5</ele>
        <time>2022-12-28T13:04:37Z</time>
      </trkpt>
      <trkpt lat="49.97123" lon="2.29537">
        <ele>85.5</ele>
        <time>2022-12-28T13:04:38Z</time>
      </trkpt>
      <trkpt lat="49.97124" lon="2.29534">
        <ele>85.4</ele>
        <time>2022-12-28T13:04:39Z</time>
      </trkpt>
      <trkpt lat="49.97125" lon="2.29533">
        <ele>85.3</ele>
        <time>2022-12-28T13:04:40Z</time>
      </trkpt>
      <trkpt lat="49.97127" lon="2.29532">
        <ele>85.3</ele>
        <time>2022-12-28T13:04:42Z</time>
      </trkpt>
      <trkpt lat="49.97128" lon="2.29531">
        <ele>85.2</ele>
        <time>2022-12-28T13:04:43Z</time>
      </trkpt>
      <trkpt lat="49.97129" lon="2.29527">
        <ele>85.1</ele>
        <time>2022-12-28T13:04:44Z</time>
      </trkpt>
      <trkpt lat="49.97129" lon="2.29527">
        <ele>85.1</ele>
        <time>2022-12-28T13:04:45Z</time>
      </trkpt>
      <trkpt lat="49.97131" lon="2.29525">
        <ele>85.1</ele>
        <time>2022-12-28T13:04:46Z</time>
      </trkpt>
      <trkpt lat="49.97132" lon="2.29525">
        <ele>85</ele>
        <time>2022-12-28T13:04:47Z</time>
      </trkpt>
      <trkpt lat="49.97133" lon="2.29524">
        <ele>85</ele>
        <time>2022-12-28T13:04:48Z</time>
      </trkpt>
      <trkpt lat="49.97135" lon="2.2952">
        <ele>84.9</ele>
        <time>2022-12-28T13:04:49Z</time>
      </trkpt>
      <trkpt lat="49.97135" lon="2.29519">
        <ele>84.8</ele>
        <time>2022-12-28T13:04:50Z</time>
      </trkpt>
      <trkpt lat="49.97136" lon="2.29517">
        <ele>84.8</ele>
        <time>2022-12-28T13:04:52Z</time>
      </trkpt>
      <trkpt lat="49.97138" lon="2.29516">
        <ele>84.7</ele>
        <time>2022-12-28T13:04:53Z</time>
      </trkpt>
      <trkpt lat="49.9714" lon="2.29514">
        <ele>84.6</ele>
        <time>2022-12-28T13:04:54Z</time>
      </trkpt>
      <trkpt lat="49.97141" lon="2.29513">
        <ele>84.6</ele>
        <time>2022-12-28T13:04:55Z</time>
      </trkpt>
      <trkpt lat="49.97142" lon="2.29511">
        <ele>84.5</ele>
        <time>2022-12-28T13:04:56Z</time>
      </trkpt>
      <trkpt lat="49.97143" lon="2.2951">
        <ele>84.5</ele>
        <time>2022-12-28T13:04:57Z</time>
      </trkpt>
      <trkpt lat="49.97144" lon="2.29509">
        <ele>84.5</ele>
        <time>2022-12-28T13:04:58Z</time>
      </trkpt>
      <trkpt lat="49.97145" lon="2.29506">
        <ele>84.3</ele>
        <time>2022-12-28T13:04:59Z</time>
      </trkpt>
      <trkpt lat="49.97145" lon="2.29505">
        <ele>84.3</ele>
        <time>2022-12-28T13:05:00Z</time>
      </trkpt>
      <trkpt lat="49.97146" lon="2.29504">
        <ele>84.3</ele>
        <time>2022-12-28T13:05:01Z</time>
      </trkpt>
      <trkpt lat="49.97147" lon="2.29503">
        <ele>84.2</ele>
        <time>2022-12-28T13:05:02Z</time>
      </trkpt>
      <trkpt lat="49.97149" lon="2.29502">
        <ele>84.2</ele>
        <time>2022-12-28T13:05:04Z</time>
      </trkpt>
      <trkpt lat="49.97149" lon="2.29499">
        <ele>84.1</ele>
        <time>2022-12-28T13:05:05Z</time>
      </trkpt>
      <trkpt lat="49.9715" lon="2.29498">
        <ele>84.1</ele>
        <time>2022-12-28T13:05:06Z</time>
      </trkpt>
      <trkpt lat="49.97151" lon="2.29498">
        <ele>84</ele>
        <time>2022-12-28T13:05:07Z</time>
      </trkpt>
      <trkpt lat="49.97154" lon="2.29495">
        <ele>83.9</ele>
        <time>2022-12-28T13:05:08Z</time>
      </trkpt>
      <trkpt lat="49.97155" lon="2.29494">
        <ele>83.8</ele>
        <time>2022-12-28T13:05:09Z</time>
      </trkpt>
      <trkpt lat="49.97157" lon="2.29492">
        <ele>83.8</ele>
        <time>2022-12-28T13:05:10Z</time>
      </trkpt>
      <trkpt lat="49.97158" lon="2.29492">
        <ele>83.7</ele>
        <time>2022-12-28T13:05:11Z</time>
      </trkpt>
      <trkpt lat="49.97159" lon="2.29491">
        <ele>83.7</ele>
        <time>2022-12-28T13:05:12Z</time>
      </trkpt>
      <trkpt lat="49.9716" lon="2.29491">
        <ele>83.7</ele>
        <time>2022-12-28T13:05:13Z</time>
      </trkpt>
      <trkpt lat="49.97161" lon="2.2949">
        <ele>83.6</ele>
        <time>2022-12-28T13:05:15Z</time>
      </trkpt>
      <trkpt lat="49.97163" lon="2.29488">
        <ele>83.5</ele>
        <time>2022-12-28T13:05:16Z</time>
      </trkpt>
      <trkpt lat="49.97165" lon="2.29487">
        <ele>83.5</ele>
        <time>2022-12-28T13:05:17Z</time>
      </trkpt>
      <trkpt lat="49.97166" lon="2.29487">
        <ele>83.4</ele>
        <time>2022-12-28T13:05:18Z</time>
      </trkpt>
      <trkpt lat="49.97166" lon="2.29486">
        <ele>83.4</ele>
        <time>2022-12-28T13:05:19Z</time>
      </trkpt>
      <trkpt lat="49.97169" lon="2.29486">
        <ele>83.3</ele>
        <time>2022-12-28T13:05:20Z</time>
      </trkpt>
      <trkpt lat="49.9717" lon="2.29486">
        <ele>83.3</ele>
        <time>2022-12-28T13:05:21Z</time>
      </trkpt>
      <trkpt lat="49.97171" lon="2.29485">
        <ele>83.2</ele>
        <time>2022-12-28T13:05:22Z</time>
      </trkpt>
      <trkpt lat="49.97172" lon="2.29485">
        <ele>83.2</ele>
        <time>2022-12-28T13:05:23Z</time>
      </trkpt>
      <trkpt lat="49.97173" lon="2.29483">
        <ele>83.1</ele>
        <time>2022-12-28T13:05:25Z</time>
      </trkpt>
      <trkpt lat="49.97174" lon="2.29481">
        <ele>83.1</ele>
        <time>2022-12-28T13:05:26Z</time>
      </trkpt>
      <trkpt lat="49.97175" lon="2.2948">
        <ele>83</ele>
        <time>2022-12-28T13:05:27Z</time>
      </trkpt>
      <trkpt lat="49.97176" lon="2.29479">
        <ele>83</ele>
        <time>2022-12-28T13:05:28Z</time>
      </trkpt>
      <trkpt lat="49.97178" lon="2.29478">
        <ele>82.9</ele>
        <time>2022-12-28T13:05:29Z</time>
      </trkpt>
      <trkpt lat="49.97179" lon="2.29477">
        <ele>82.9</ele>
        <time>2022-12-28T13:05:30Z</time>
      </trkpt>
      <trkpt lat="49.9718" lon="2.29476">
        <ele>82.8</ele>
        <time>2022-12-28T13:05:31Z</time>
      </trkpt>
      <trkpt lat="49.9718" lon="2.29475">
        <ele>82.8</ele>
        <time>2022-12-28T13:05:33Z</time>
      </trkpt>
      <trkpt lat="49.97181" lon="2.29474">
        <ele>82.8</ele>
        <time>2022-12-28T13:05:34Z</time>
      </trkpt>
      <trkpt lat="49.97182" lon="2.29474">
        <ele>82.8</ele>
        <time>2022-12-28T13:05:35Z</time>
      </trkpt>
      <trkpt lat="49.97183" lon="2.29473">
        <ele>82.7</ele>
        <time>2022-12-28T13:05:36Z</time>
      </trkpt>
      <trkpt lat="49.97183" lon="2.29472">
        <ele>82.7</ele>
        <time>2022-12-28T13:05:37Z</time>
      </trkpt>
      <trkpt lat="49.97184" lon="2.29471">
        <ele>82.7</ele>
        <time>2022-12-28T13:05:38Z</time>
      </trkpt>
      <trkpt lat="49.97185" lon="2.29469">
        <ele>82.6</ele>
        <time>2022-12-28T13:05:39Z</time>
      </trkpt>
      <trkpt lat="49.97185" lon="2.29468">
        <ele>82.6</ele>
        <time>2022-12-28T13:05:40Z</time>
      </trkpt>
      <trkpt lat="49.97186" lon="2.29467">
        <ele>82.6</ele>
        <time>2022-12-28T13:05:42Z</time>
      </trkpt>
      <trkpt lat="49.97187" lon="2.29466">
        <ele>82.6</ele>
        <time>2022-12-28T13:05:43Z</time>
      </trkpt>
      <trkpt lat="49.97188" lon="2.29465">
        <ele>82.5</ele>
        <time>2022-12-28T13:05:44Z</time>
      </trkpt>
      <trkpt lat="49.97188" lon="2.29464">
        <ele>82.5</ele>
        <time>2022-12-28T13:05:45Z</time>
      </trkpt>
      <trkpt lat="49.97189" lon="2.29463">
        <ele>82.5</ele>
        <time>2022-12-28T13:05:46Z</time>
      </trkpt>
      <trkpt lat="49.97191" lon="2.29461">
        <ele>82.4</ele>
        <time>2022-12-28T13:05:47Z</time>
      </trkpt>
      <trkpt lat="49.97192" lon="2.29461">
        <ele>82.4</ele>
        <time>2022-12-28T13:05:48Z</time>
      </trkpt>
      <trkpt lat="49.97193" lon="2.2946">
        <ele>82.4</ele>
        <time>2022-12-28T13:05:49Z</time>
      </trkpt>
      <trkpt lat="49.97194" lon="2.2946">
        <ele>82.4</ele>
        <time>2022-12-28T13:05:50Z</time>
      </trkpt>
      <trkpt lat="49.97196" lon="2.2946">
        <ele>82.4</ele>
        <time>2022-12-28T13:05:52Z</time>
      </trkpt>
      <trkpt lat="49.97197" lon="2.29459">
        <ele>82.3</ele>
        <time>2022-12-28T13:05:53Z</time>
      </trkpt>
      <trkpt lat="49.97198" lon="2.29459">
        <ele>82.3</ele>
        <time>2022-12-28T13:05:54Z</time>
      </trkpt>
      <trkpt lat="49.97199" lon="2.29458">
        <ele>82.3</ele>
        <time>2022-12-28T13:05:55Z</time>
      </trkpt>
      <trkpt lat="49.972" lon="2.29458">
        <ele>82.3</ele>
        <time>2022-12-28T13:05:56Z</time>
      </trkpt>
      <trkpt lat="49.97202" lon="2.29457">
        <ele>82.3</ele>
        <time>2022-12-28T13:05:58Z</time>
      </trkpt>
      <trkpt lat="49.97203" lon="2.29456">
        <ele>82.2</ele>
        <time>2022-12-28T13:05:59Z</time>
      </trkpt>
      <trkpt lat="49.97204" lon="2.29456">
        <ele>82.2</ele>
        <time>2022-12-28T13:06:00Z</time>
      </trkpt>
      <trkpt lat="49.97206" lon="2.29455">
        <ele>82.2</ele>
        <time>2022-12-28T13:06:01Z</time>
      </trkpt>
      <trkpt lat="49.97207" lon="2.29455">
        <ele>82.2</ele>
        <time>2022-12-28T13:06:02Z</time>
      </trkpt>
      <trkpt lat="49.97209" lon="2.29454">
        <ele>82.2</ele>
        <time>2022-12-28T13:06:03Z</time>
      </trkpt>
      <trkpt lat="49.97211" lon="2.29452">
        <ele>82.1</ele>
        <time>2022-12-28T13:06:05Z</time>
      </trkpt>
      <trkpt lat="49.97211" lon="2.29452">
        <ele>82.1</ele>
        <time>2022-12-28T13:06:06Z</time>
      </trkpt>
      <trkpt lat="49.97212" lon="2.29452">
        <ele>82.1</ele>
        <time>2022-12-28T13:06:07Z</time>
      </trkpt>
      <trkpt lat="49.97212" lon="2.29451">
        <ele>82.1</ele>
        <time>2022-12-28T13:06:08Z</time>
      </trkpt>
      <trkpt lat="49.97213" lon="2.2945">
        <ele>82.1</ele>
        <time>2022-12-28T13:06:09Z</time>
      </trkpt>
      <trkpt lat="49.97214" lon="2.29449">
        <ele>82.1</ele>
        <time>2022-12-28T13:06:10Z</time>
      </trkpt>
      <trkpt lat="49.97215" lon="2.29449">
        <ele>82.1</ele>
        <time>2022-12-28T13:06:12Z</time>
      </trkpt>
      <trkpt lat="49.97217" lon="2.29447">
        <ele>82.1</ele>
        <time>2022-12-28T13:06:13Z</time>
      </trkpt>
      <trkpt lat="49.97218" lon="2.29446">
        <ele>82.1</ele>
        <time>2022-12-28T13:06:14Z</time>
      </trkpt>
      <trkpt lat="49.97219" lon="2.29446">
        <ele>82</ele>
        <time>2022-12-28T13:06:15Z</time>
      </trkpt>
      <trkpt lat="49.9722" lon="2.29445">
        <ele>82</ele>
        <time>2022-12-28T13:06:16Z</time>
      </trkpt>
      <trkpt lat="49.9722" lon="2.29444">
        <ele>82</ele>
        <time>2022-12-28T13:06:17Z</time>
      </trkpt>
      <trkpt lat="49.97222" lon="2.29443">
        <ele>82</ele>
        <time>2022-12-28T13:06:18Z</time>
      </trkpt>
      <trkpt lat="49.97225" lon="2.29442">
        <ele>82</ele>
        <time>2022-12-28T13:06:19Z</time>
      </trkpt>
      <trkpt lat="49.97226" lon="2.29441">
        <ele>82</ele>
        <time>2022-12-28T13:06:21Z</time>
      </trkpt>
      <trkpt lat="49.97226" lon="2.29441">
        <ele>82</ele>
        <time>2022-12-28T13:06:22Z</time>
      </trkpt>
      <trkpt lat="49.97227" lon="2.2944">
        <ele>82</ele>
        <time>2022-12-28T13:06:23Z</time>
      </trkpt>
      <trkpt lat="49.97228" lon="2.2944">
        <ele>81.9</ele>
        <time>2022-12-28T13:06:24Z</time>
      </trkpt>
      <trkpt lat="49.97229" lon="2.29439">
        <ele>81.9</ele>
        <time>2022-12-28T13:06:25Z</time>
      </trkpt>
      <trkpt lat="49.97231" lon="2.29439">
        <ele>81.9</ele>
        <time>2022-12-28T13:06:26Z</time>
      </trkpt>
      <trkpt lat="49.97232" lon="2.29438">
        <ele>81.9</ele>
        <time>2022-12-28T13:06:28Z</time>
      </trkpt>
      <trkpt lat="49.97233" lon="2.29438">
        <ele>81.9</ele>
        <time>2022-12-28T13:06:29Z</time>
      </trkpt>
      <trkpt lat="49.97234" lon="2.29437">
        <ele>81.9</ele>
        <time>2022-12-28T13:06:30Z</time>
      </trkpt>
      <trkpt lat="49.97235" lon="2.29436">
        <ele>81.9</ele>
        <time>2022-12-28T13:06:31Z</time>
      </trkpt>
      <trkpt lat="49.97237" lon="2.29435">
        <ele>81.9</ele>
        <time>2022-12-28T13:06:32Z</time>
      </trkpt>
      <trkpt lat="49.97237" lon="2.29434">
        <ele>81.9</ele>
        <time>2022-12-28T13:06:33Z</time>
      </trkpt>
      <trkpt lat="49.97238" lon="2.29434">
        <ele>81.9</ele>
        <time>2022-12-28T13:06:34Z</time>
      </trkpt>
      <trkpt lat="49.97241" lon="2.29431">
        <ele>81.9</ele>
        <time>2022-12-28T13:06:35Z</time>
      </trkpt>
      <trkpt lat="49.97242" lon="2.2943">
        <ele>81.9</ele>
        <time>2022-12-28T13:06:37Z</time>
      </trkpt>
      <trkpt lat="49.97243" lon="2.29429">
        <ele>81.9</ele>
        <time>2022-12-28T13:06:38Z</time>
      </trkpt>
      <trkpt lat="49.97244" lon="2.29428">
        <ele>81.9</ele>
        <time>2022-12-28T13:06:39Z</time>
      </trkpt>
      <trkpt lat="49.97245" lon="2.29427">
        <ele>81.9</ele>
        <time>2022-12-28T13:06:40Z</time>
      </trkpt>
      <trkpt lat="49.97246" lon="2.29425">
        <ele>81.9</ele>
        <time>2022-12-28T13:06:41Z</time>
      </trkpt>
      <trkpt lat="49.97247" lon="2.29424">
        <ele>81.9</ele>
        <time>2022-12-28T13:06:43Z</time>
      </trkpt>
      <trkpt lat="49.97248" lon="2.29423">
        <ele>81.9</ele>
        <time>2022-12-28T13:06:44Z</time>
      </trkpt>
      <trkpt lat="49.97249" lon="2.29422">
        <ele>81.9</ele>
        <time>2022-12-28T13:06:45Z</time>
      </trkpt>
      <trkpt lat="49.9725" lon="2.29421">
        <ele>81.9</ele>
        <time>2022-12-28T13:06:46Z</time>
      </trkpt>
      <trkpt lat="49.97251" lon="2.2942">
        <ele>81.9</ele>
        <time>2022-12-28T13:06:47Z</time>
      </trkpt>
      <trkpt lat="49.97252" lon="2.29419">
        <ele>81.9</ele>
        <time>2022-12-28T13:06:48Z</time>
      </trkpt>
      <trkpt lat="49.97253" lon="2.29418">
        <ele>81.9</ele>
        <time>2022-12-28T13:06:49Z</time>
      </trkpt>
      <trkpt lat="49.97255" lon="2.29416">
        <ele>81.9</ele>
        <time>2022-12-28T13:06:50Z</time>
      </trkpt>
      <trkpt lat="49.97255" lon="2.29415">
        <ele>81.9</ele>
        <time>2022-12-28T13:06:51Z</time>
      </trkpt>
      <trkpt lat="49.97256" lon="2.29414">
        <ele>81.9</ele>
        <time>2022-12-28T13:06:52Z</time>
      </trkpt>
      <trkpt lat="49.97257" lon="2.29413">
        <ele>81.9</ele>
        <time>2022-12-28T13:06:53Z</time>
      </trkpt>
      <trkpt lat="49.97258" lon="2.29412">
        <ele>81.9</ele>
        <time>2022-12-28T13:06:55Z</time>
      </trkpt>
      <trkpt lat="49.97259" lon="2.29411">
        <ele>81.9</ele>
        <time>2022-12-28T13:06:56Z</time>
      </trkpt>
      <trkpt lat="49.97259" lon="2.2941">
        <ele>81.9</ele>
        <time>2022-12-28T13:06:57Z</time>
      </trkpt>
      <trkpt lat="49.9726" lon="2.29409">
        <ele>81.9</ele>
        <time>2022-12-28T13:06:58Z</time>
      </trkpt>
      <trkpt lat="49.97262" lon="2.29408">
        <ele>81.9</ele>
        <time>2022-12-28T13:06:59Z</time>
      </trkpt>
      <trkpt lat="49.97263" lon="2.29407">
        <ele>81.9</ele>
        <time>2022-12-28T13:07:00Z</time>
      </trkpt>
      <trkpt lat="49.97264" lon="2.29406">
        <ele>81.9</ele>
        <time>2022-12-28T13:07:01Z</time>
      </trkpt>
      <trkpt lat="49.97265" lon="2.29405">
        <ele>82</ele>
        <time>2022-12-28T13:07:03Z</time>
      </trkpt>
      <trkpt lat="49.97266" lon="2.29404">
        <ele>82</ele>
        <time>2022-12-28T13:07:04Z</time>
      </trkpt>
      <trkpt lat="49.97268" lon="2.29403">
        <ele>82</ele>
        <time>2022-12-28T13:07:05Z</time>
      </trkpt>
      <trkpt lat="49.97268" lon="2.29402">
        <ele>82</ele>
        <time>2022-12-28T13:07:06Z</time>
      </trkpt>
      <trkpt lat="49.97269" lon="2.29402">
        <ele>82</ele>
        <time>2022-12-28T13:07:07Z</time>
      </trkpt>
      <trkpt lat="49.97271" lon="2.294">
        <ele>82</ele>
        <time>2022-12-28T13:07:08Z</time>
      </trkpt>
      <trkpt lat="49.97271" lon="2.29399">
        <ele>82</ele>
        <time>2022-12-28T13:07:09Z</time>
      </trkpt>
      <trkpt lat="49.97272" lon="2.29398">
        <ele>82</ele>
        <time>2022-12-28T13:07:10Z</time>
      </trkpt>
      <trkpt lat="49.97274" lon="2.29396">
        <ele>82</ele>
        <time>2022-12-28T13:07:11Z</time>
      </trkpt>
      <trkpt lat="49.97274" lon="2.29396">
        <ele>82.1</ele>
        <time>2022-12-28T13:07:12Z</time>
      </trkpt>
      <trkpt lat="49.97275" lon="2.29395">
        <ele>82.1</ele>
        <time>2022-12-28T13:07:13Z</time>
      </trkpt>
      <trkpt lat="49.97276" lon="2.29393">
        <ele>82.1</ele>
        <time>2022-12-28T13:07:15Z</time>
      </trkpt>
      <trkpt lat="49.97277" lon="2.29391">
        <ele>82.1</ele>
        <time>2022-12-28T13:07:16Z</time>
      </trkpt>
      <trkpt lat="49.97278" lon="2.2939">
        <ele>82.1</ele>
        <time>2022-12-28T13:07:17Z</time>
      </trkpt>
      <trkpt lat="49.97278" lon="2.29388">
        <ele>82.1</ele>
        <time>2022-12-28T13:07:18Z</time>
      </trkpt>
      <trkpt lat="49.9728" lon="2.29387">
        <ele>82.1</ele>
        <time>2022-12-28T13:07:20Z</time>
      </trkpt>
      <trkpt lat="49.97281" lon="2.29385">
        <ele>82.1</ele>
        <time>2022-12-28T13:07:21Z</time>
      </trkpt>
      <trkpt lat="49.97282" lon="2.29383">
        <ele>82.1</ele>
        <time>2022-12-28T13:07:22Z</time>
      </trkpt>
      <trkpt lat="49.97284" lon="2.29381">
        <ele>82.1</ele>
        <time>2022-12-28T13:07:23Z</time>
      </trkpt>
      <trkpt lat="49.97285" lon="2.2938">
        <ele>82.1</ele>
        <time>2022-12-28T13:07:24Z</time>
      </trkpt>
      <trkpt lat="49.97286" lon="2.29379">
        <ele>82.1</ele>
        <time>2022-12-28T13:07:25Z</time>
      </trkpt>
      <trkpt lat="49.97286" lon="2.29379">
        <ele>82.1</ele>
        <time>2022-12-28T13:07:26Z</time>
      </trkpt>
      <trkpt lat="49.97287" lon="2.29378">
        <ele>82.1</ele>
        <time>2022-12-28T13:07:27Z</time>
      </trkpt>
      <trkpt lat="49.97289" lon="2.29376">
        <ele>82.2</ele>
        <time>2022-12-28T13:07:28Z</time>
      </trkpt>
      <trkpt lat="49.9729" lon="2.29375">
        <ele>82.2</ele>
        <time>2022-12-28T13:07:29Z</time>
      </trkpt>
      <trkpt lat="49.97291" lon="2.29374">
        <ele>82.2</ele>
        <time>2022-12-28T13:07:30Z</time>
      </trkpt>
      <trkpt lat="49.97292" lon="2.29373">
        <ele>82.2</ele>
        <time>2022-12-28T13:07:32Z</time>
      </trkpt>
      <trkpt lat="49.97293" lon="2.29372">
        <ele>82.2</ele>
        <time>2022-12-28T13:07:33Z</time>
      </trkpt>
      <trkpt lat="49.97294" lon="2.29371">
        <ele>82.3</ele>
        <time>2022-12-28T13:07:34Z</time>
      </trkpt>
      <trkpt lat="49.97296" lon="2.29369">
        <ele>82.3</ele>
        <time>2022-12-28T13:07:35Z</time>
      </trkpt>
      <trkpt lat="49.97297" lon="2.29369">
        <ele>82.3</ele>
        <time>2022-12-28T13:07:36Z</time>
      </trkpt>
      <trkpt lat="49.97298" lon="2.29367">
        <ele>82.4</ele>
        <time>2022-12-28T13:07:37Z</time>
      </trkpt>
      <trkpt lat="49.97299" lon="2.29366">
        <ele>82.4</ele>
        <time>2022-12-28T13:07:38Z</time>
      </trkpt>
      <trkpt lat="49.973" lon="2.29366">
        <ele>82.4</ele>
        <time>2022-12-28T13:07:39Z</time>
      </trkpt>
      <trkpt lat="49.97302" lon="2.29363">
        <ele>82.5</ele>
        <time>2022-12-28T13:07:40Z</time>
      </trkpt>
      <trkpt lat="49.97303" lon="2.29362">
        <ele>82.5</ele>
        <time>2022-12-28T13:07:42Z</time>
      </trkpt>
      <trkpt lat="49.97304" lon="2.29361">
        <ele>82.5</ele>
        <time>2022-12-28T13:07:43Z</time>
      </trkpt>
      <trkpt lat="49.97305" lon="2.29361">
        <ele>82.5</ele>
        <time>2022-12-28T13:07:44Z</time>
      </trkpt>
      <trkpt lat="49.97306" lon="2.2936">
        <ele>82.6</ele>
        <time>2022-12-28T13:07:45Z</time>
      </trkpt>
      <trkpt lat="49.97308" lon="2.29358">
        <ele>82.6</ele>
        <time>2022-12-28T13:07:46Z</time>
      </trkpt>
      <trkpt lat="49.97308" lon="2.29357">
        <ele>82.6</ele>
        <time>2022-12-28T13:07:47Z</time>
      </trkpt>
      <trkpt lat="49.97309" lon="2.29356">
        <ele>82.7</ele>
        <time>2022-12-28T13:07:48Z</time>
      </trkpt>
      <trkpt lat="49.9731" lon="2.29355">
        <ele>82.7</ele>
        <time>2022-12-28T13:07:49Z</time>
      </trkpt>
      <trkpt lat="49.97312" lon="2.29354">
        <ele>82.7</ele>
        <time>2022-12-28T13:07:50Z</time>
      </trkpt>
      <trkpt lat="49.97314" lon="2.29352">
        <ele>82.8</ele>
        <time>2022-12-28T13:07:52Z</time>
      </trkpt>
      <trkpt lat="49.97314" lon="2.29351">
        <ele>82.8</ele>
        <time>2022-12-28T13:07:53Z</time>
      </trkpt>
      <trkpt lat="49.97315" lon="2.29351">
        <ele>82.8</ele>
        <time>2022-12-28T13:07:54Z</time>
      </trkpt>
      <trkpt lat="49.97317" lon="2.29349">
        <ele>82.9</ele>
        <time>2022-12-28T13:07:55Z</time>
      </trkpt>
      <trkpt lat="49.97317" lon="2.29349">
        <ele>82.9</ele>
        <time>2022-12-28T13:07:56Z</time>
      </trkpt>
      <trkpt lat="49.97318" lon="2.29348">
        <ele>83</ele>
        <time>2022-12-28T13:07:57Z</time>
      </trkpt>
      <trkpt lat="49.97319" lon="2.29347">
        <ele>83</ele>
        <time>2022-12-28T13:07:58Z</time>
      </trkpt>
      <trkpt lat="49.9732" lon="2.29346">
        <ele>83.1</ele>
        <time>2022-12-28T13:07:59Z</time>
      </trkpt>
      <trkpt lat="49.97322" lon="2.29344">
        <ele>83.1</ele>
        <time>2022-12-28T13:08:01Z</time>
      </trkpt>
      <trkpt lat="49.97322" lon="2.29344">
        <ele>83.2</ele>
        <time>2022-12-28T13:08:02Z</time>
      </trkpt>
      <trkpt lat="49.97323" lon="2.29343">
        <ele>83.2</ele>
        <time>2022-12-28T13:08:03Z</time>
      </trkpt>
      <trkpt lat="49.97324" lon="2.29342">
        <ele>83.2</ele>
        <time>2022-12-28T13:08:04Z</time>
      </trkpt>
      <trkpt lat="49.97325" lon="2.29341">
        <ele>83.3</ele>
        <time>2022-12-28T13:08:05Z</time>
      </trkpt>
      <trkpt lat="49.97326" lon="2.2934">
        <ele>83.3</ele>
        <time>2022-12-28T13:08:06Z</time>
      </trkpt>
      <trkpt lat="49.97327" lon="2.29339">
        <ele>83.4</ele>
        <time>2022-12-28T13:08:07Z</time>
      </trkpt>
      <trkpt lat="49.97328" lon="2.29338">
        <ele>83.4</ele>
        <time>2022-12-28T13:08:08Z</time>
      </trkpt>
      <trkpt lat="49.97329" lon="2.29337">
        <ele>83.4</ele>
        <time>2022-12-28T13:08:10Z</time>
      </trkpt>
      <trkpt lat="49.9733" lon="2.29336">
        <ele>83.5</ele>
        <time>2022-12-28T13:08:11Z</time>
      </trkpt>
      <trkpt lat="49.97331" lon="2.29335">
        <ele>83.5</ele>
        <time>2022-12-28T13:08:12Z</time>
      </trkpt>
      <trkpt lat="49.97332" lon="2.29335">
        <ele>83.6</ele>
        <time>2022-12-28T13:08:13Z</time>
      </trkpt>
      <trkpt lat="49.97333" lon="2.29334">
        <ele>83.6</ele>
        <time>2022-12-28T13:08:14Z</time>
      </trkpt>
      <trkpt lat="49.97335" lon="2.29333">
        <ele>83.6</ele>
        <time>2022-12-28T13:08:15Z</time>
      </trkpt>
      <trkpt lat="49.97335" lon="2.29332">
        <ele>83.7</ele>
        <time>2022-12-28T13:08:16Z</time>
      </trkpt>
      <trkpt lat="49.97336" lon="2.29331">
        <ele>83.7</ele>
        <time>2022-12-28T13:08:17Z</time>
      </trkpt>
      <trkpt lat="49.97338" lon="2.29329">
        <ele>83.7</ele>
        <time>2022-12-28T13:08:19Z</time>
      </trkpt>
      <trkpt lat="49.97339" lon="2.29328">
        <ele>83.8</ele>
        <time>2022-12-28T13:08:20Z</time>
      </trkpt>
      <trkpt lat="49.9734" lon="2.29328">
        <ele>83.8</ele>
        <time>2022-12-28T13:08:21Z</time>
      </trkpt>
      <trkpt lat="49.97341" lon="2.29326">
        <ele>83.8</ele>
        <time>2022-12-28T13:08:22Z</time>
      </trkpt>
      <trkpt lat="49.97342" lon="2.29325">
        <ele>83.9</ele>
        <time>2022-12-28T13:08:23Z</time>
      </trkpt>
      <trkpt lat="49.97343" lon="2.29324">
        <ele>83.9</ele>
        <time>2022-12-28T13:08:24Z</time>
      </trkpt>
      <trkpt lat="49.97344" lon="2.29323">
        <ele>83.9</ele>
        <time>2022-12-28T13:08:25Z</time>
      </trkpt>
      <trkpt lat="49.97345" lon="2.29322">
        <ele>83.9</ele>
        <time>2022-12-28T13:08:26Z</time>
      </trkpt>
      <trkpt lat="49.97347" lon="2.2932">
        <ele>84</ele>
        <time>2022-12-28T13:08:28Z</time>
      </trkpt>
      <trkpt lat="49.97348" lon="2.29319">
        <ele>84</ele>
        <time>2022-12-28T13:08:29Z</time>
      </trkpt>
      <trkpt lat="49.97349" lon="2.29318">
        <ele>84</ele>
        <time>2022-12-28T13:08:30Z</time>
      </trkpt>
      <trkpt lat="49.97349" lon="2.29317">
        <ele>84.1</ele>
        <time>2022-12-28T13:08:31Z</time>
      </trkpt>
      <trkpt lat="49.97349" lon="2.29315">
        <ele>84.1</ele>
        <time>2022-12-28T13:08:32Z</time>
      </trkpt>
      <trkpt lat="49.97348" lon="2.29313">
        <ele>84.1</ele>
        <time>2022-12-28T13:08:33Z</time>
      </trkpt>
      <trkpt lat="49.9735" lon="2.29311">
        <ele>84.2</ele>
        <time>2022-12-28T13:08:35Z</time>
      </trkpt>
      <trkpt lat="49.9735" lon="2.2931">
        <ele>84.2</ele>
        <time>2022-12-28T13:08:36Z</time>
      </trkpt>
      <trkpt lat="49.97351" lon="2.29309">
        <ele>84.2</ele>
        <time>2022-12-28T13:08:37Z</time>
      </trkpt>
      <trkpt lat="49.97352" lon="2.29308">
        <ele>84.3</ele>
        <time>2022-12-28T13:08:38Z</time>
      </trkpt>
      <trkpt lat="49.97354" lon="2.29307">
        <ele>84.3</ele>
        <time>2022-12-28T13:08:39Z</time>
      </trkpt>
      <trkpt lat="49.97355" lon="2.29306">
        <ele>84.3</ele>
        <time>2022-12-28T13:08:40Z</time>
      </trkpt>
      <trkpt lat="49.97357" lon="2.29304">
        <ele>84.4</ele>
        <time>2022-12-28T13:08:42Z</time>
      </trkpt>
      <trkpt lat="49.97359" lon="2.29303">
        <ele>84.5</ele>
        <time>2022-12-28T13:08:43Z</time>
      </trkpt>
      <trkpt lat="49.9736" lon="2.29302">
        <ele>84.5</ele>
        <time>2022-12-28T13:08:44Z</time>
      </trkpt>
      <trkpt lat="49.9736" lon="2.29301">
        <ele>84.5</ele>
        <time>2022-12-28T13:08:45Z</time>
      </trkpt>
      <trkpt lat="49.97362" lon="2.293">
        <ele>84.6</ele>
        <time>2022-12-28T13:08:46Z</time>
      </trkpt>
      <trkpt lat="49.97363" lon="2.29299">
        <ele>84.6</ele>
        <time>2022-12-28T13:08:47Z</time>
      </trkpt>
      <trkpt lat="49.97365" lon="2.29298">
        <ele>84.6</ele>
        <time>2022-12-28T13:08:48Z</time>
      </trkpt>
      <trkpt lat="49.97366" lon="2.29297">
        <ele>84.6</ele>
        <time>2022-12-28T13:08:49Z</time>
      </trkpt>
      <trkpt lat="49.97367" lon="2.29296">
        <ele>84.7</ele>
        <time>2022-12-28T13:08:50Z</time>
      </trkpt>
      <trkpt lat="49.97368" lon="2.29295">
        <ele>84.7</ele>
        <time>2022-12-28T13:08:52Z</time>
      </trkpt>
      <trkpt lat="49.97369" lon="2.29295">
        <ele>84.7</ele>
        <time>2022-12-28T13:08:53Z</time>
      </trkpt>
      <trkpt lat="49.9737" lon="2.29294">
        <ele>84.7</ele>
        <time>2022-12-28T13:08:54Z</time>
      </trkpt>
      <trkpt lat="49.97371" lon="2.29293">
        <ele>84.7</ele>
        <time>2022-12-28T13:08:55Z</time>
      </trkpt>
      <trkpt lat="49.97373" lon="2.29292">
        <ele>84.7</ele>
        <time>2022-12-28T13:08:56Z</time>
      </trkpt>
      <trkpt lat="49.97374" lon="2.29291">
        <ele>84.7</ele>
        <time>2022-12-28T13:08:57Z</time>
      </trkpt>
      <trkpt lat="49.97375" lon="2.2929">
        <ele>84.7</ele>
        <time>2022-12-28T13:08:58Z</time>
      </trkpt>
      <trkpt lat="49.97376" lon="2.29288">
        <ele>84.7</ele>
        <time>2022-12-28T13:08:59Z</time>
      </trkpt>
      <trkpt lat="49.97377" lon="2.29286">
        <ele>84.7</ele>
        <time>2022-12-28T13:09:00Z</time>
      </trkpt>
      <trkpt lat="49.97378" lon="2.29285">
        <ele>84.6</ele>
        <time>2022-12-28T13:09:01Z</time>
      </trkpt>
      <trkpt lat="49.97379" lon="2.29284">
        <ele>84.6</ele>
        <time>2022-12-28T13:09:03Z</time>
      </trkpt>
      <trkpt lat="49.97379" lon="2.29283">
        <ele>84.6</ele>
        <time>2022-12-28T13:09:04Z</time>
      </trkpt>
      <trkpt lat="49.9738" lon="2.29282">
        <ele>84.6</ele>
        <time>2022-12-28T13:09:05Z</time>
      </trkpt>
      <trkpt lat="49.97382" lon="2.29279">
        <ele>84.6</ele>
        <time>2022-12-28T13:09:06Z</time>
      </trkpt>
      <trkpt lat="49.97382" lon="2.29278">
        <ele>84.6</ele>
        <time>2022-12-28T13:09:07Z</time>
      </trkpt>
      <trkpt lat="49.97383" lon="2.29278">
        <ele>84.6</ele>
        <time>2022-12-28T13:09:08Z</time>
      </trkpt>
      <trkpt lat="49.97384" lon="2.29275">
        <ele>84.6</ele>
        <time>2022-12-28T13:09:09Z</time>
      </trkpt>
      <trkpt lat="49.97385" lon="2.29274">
        <ele>84.6</ele>
        <time>2022-12-28T13:09:10Z</time>
      </trkpt>
      <trkpt lat="49.97385" lon="2.29273">
        <ele>84.5</ele>
        <time>2022-12-28T13:09:11Z</time>
      </trkpt>
      <trkpt lat="49.97386" lon="2.29272">
        <ele>84.5</ele>
        <time>2022-12-28T13:09:13Z</time>
      </trkpt>
      <trkpt lat="49.97387" lon="2.29271">
        <ele>84.5</ele>
        <time>2022-12-28T13:09:14Z</time>
      </trkpt>
      <trkpt lat="49.97388" lon="2.29269">
        <ele>84.5</ele>
        <time>2022-12-28T13:09:15Z</time>
      </trkpt>
      <trkpt lat="49.97389" lon="2.29267">
        <ele>84.5</ele>
        <time>2022-12-28T13:09:16Z</time>
      </trkpt>
      <trkpt lat="49.97389" lon="2.29267">
        <ele>84.5</ele>
        <time>2022-12-28T13:09:17Z</time>
      </trkpt>
      <trkpt lat="49.9739" lon="2.29265">
        <ele>84.5</ele>
        <time>2022-12-28T13:09:18Z</time>
      </trkpt>
      <trkpt lat="49.97391" lon="2.29264">
        <ele>84.4</ele>
        <time>2022-12-28T13:09:19Z</time>
      </trkpt>
      <trkpt lat="49.97392" lon="2.29262">
        <ele>84.4</ele>
        <time>2022-12-28T13:09:21Z</time>
      </trkpt>
      <trkpt lat="49.97392" lon="2.29261">
        <ele>84.4</ele>
        <time>2022-12-28T13:09:22Z</time>
      </trkpt>
      <trkpt lat="49.97393" lon="2.2926">
        <ele>84.4</ele>
        <time>2022-12-28T13:09:23Z</time>
      </trkpt>
      <trkpt lat="49.97394" lon="2.29258">
        <ele>84.4</ele>
        <time>2022-12-28T13:09:24Z</time>
      </trkpt>
      <trkpt lat="49.97395" lon="2.29257">
        <ele>84.3</ele>
        <time>2022-12-28T13:09:25Z</time>
      </trkpt>
      <trkpt lat="49.97396" lon="2.29255">
        <ele>84.3</ele>
        <time>2022-12-28T13:09:26Z</time>
      </trkpt>
      <trkpt lat="49.97396" lon="2.29254">
        <ele>84.3</ele>
        <time>2022-12-28T13:09:27Z</time>
      </trkpt>
      <trkpt lat="49.97397" lon="2.29253">
        <ele>84.3</ele>
        <time>2022-12-28T13:09:28Z</time>
      </trkpt>
      <trkpt lat="49.97398" lon="2.29251">
        <ele>84.2</ele>
        <time>2022-12-28T13:09:29Z</time>
      </trkpt>
      <trkpt lat="49.97399" lon="2.29249">
        <ele>84.2</ele>
        <time>2022-12-28T13:09:30Z</time>
      </trkpt>
      <trkpt lat="49.974" lon="2.29248">
        <ele>84.2</ele>
        <time>2022-12-28T13:09:31Z</time>
      </trkpt>
      <trkpt lat="49.97402" lon="2.29246">
        <ele>84.1</ele>
        <time>2022-12-28T13:09:33Z</time>
      </trkpt>
      <trkpt lat="49.97402" lon="2.29245">
        <ele>84.1</ele>
        <time>2022-12-28T13:09:34Z</time>
      </trkpt>
      <trkpt lat="49.97403" lon="2.29244">
        <ele>84.1</ele>
        <time>2022-12-28T13:09:35Z</time>
      </trkpt>
      <trkpt lat="49.97404" lon="2.29241">
        <ele>84</ele>
        <time>2022-12-28T13:09:36Z</time>
      </trkpt>
      <trkpt lat="49.97405" lon="2.2924">
        <ele>84</ele>
        <time>2022-12-28T13:09:37Z</time>
      </trkpt>
      <trkpt lat="49.97406" lon="2.29238">
        <ele>84</ele>
        <time>2022-12-28T13:09:38Z</time>
      </trkpt>
      <trkpt lat="49.97407" lon="2.29238">
        <ele>83.9</ele>
        <time>2022-12-28T13:09:39Z</time>
      </trkpt>
      <trkpt lat="49.97408" lon="2.29237">
        <ele>83.9</ele>
        <time>2022-12-28T13:09:40Z</time>
      </trkpt>
      <trkpt lat="49.97409" lon="2.29235">
        <ele>83.9</ele>
        <time>2022-12-28T13:09:41Z</time>
      </trkpt>
      <trkpt lat="49.9741" lon="2.29233">
        <ele>83.8</ele>
        <time>2022-12-28T13:09:42Z</time>
      </trkpt>
      <trkpt lat="49.97412" lon="2.29231">
        <ele>83.7</ele>
        <time>2022-12-28T13:09:43Z</time>
      </trkpt>
      <trkpt lat="49.97412" lon="2.2923">
        <ele>83.7</ele>
        <time>2022-12-28T13:09:45Z</time>
      </trkpt>
      <trkpt lat="49.97413" lon="2.29228">
        <ele>83.7</ele>
        <time>2022-12-28T13:09:46Z</time>
      </trkpt>
      <trkpt lat="49.97414" lon="2.29227">
        <ele>83.6</ele>
        <time>2022-12-28T13:09:47Z</time>
      </trkpt>
      <trkpt lat="49.97414" lon="2.29226">
        <ele>83.6</ele>
        <time>2022-12-28T13:09:48Z</time>
      </trkpt>
      <trkpt lat="49.97415" lon="2.29225">
        <ele>83.5</ele>
        <time>2022-12-28T13:09:49Z</time>
      </trkpt>
      <trkpt lat="49.97416" lon="2.29223">
        <ele>83.5</ele>
        <time>2022-12-28T13:09:50Z</time>
      </trkpt>
      <trkpt lat="49.97417" lon="2.29222">
        <ele>83.4</ele>
        <time>2022-12-28T13:09:51Z</time>
      </trkpt>
      <trkpt lat="49.97418" lon="2.29221">
        <ele>83.4</ele>
        <time>2022-12-28T13:09:52Z</time>
      </trkpt>
      <trkpt lat="49.97419" lon="2.29219">
        <ele>83.3</ele>
        <time>2022-12-28T13:09:54Z</time>
      </trkpt>
      <trkpt lat="49.97419" lon="2.29218">
        <ele>83.3</ele>
        <time>2022-12-28T13:09:55Z</time>
      </trkpt>
      <trkpt lat="49.97421" lon="2.29215">
        <ele>83.2</ele>
        <time>2022-12-28T13:09:56Z</time>
      </trkpt>
      <trkpt lat="49.97421" lon="2.29215">
        <ele>83.2</ele>
        <time>2022-12-28T13:09:57Z</time>
      </trkpt>
      <trkpt lat="49.97422" lon="2.29214">
        <ele>83.1</ele>
        <time>2022-12-28T13:09:58Z</time>
      </trkpt>
      <trkpt lat="49.97424" lon="2.29212">
        <ele>83</ele>
        <time>2022-12-28T13:09:59Z</time>
      </trkpt>
      <trkpt lat="49.97424" lon="2.29211">
        <ele>83</ele>
        <time>2022-12-28T13:10:00Z</time>
      </trkpt>
      <trkpt lat="49.97425" lon="2.2921">
        <ele>82.9</ele>
        <time>2022-12-28T13:10:01Z</time>
      </trkpt>
      <trkpt lat="49.97426" lon="2.29208">
        <ele>82.9</ele>
        <time>2022-12-28T13:10:03Z</time>
      </trkpt>
      <trkpt lat="49.97427" lon="2.29207">
        <ele>82.8</ele>
        <time>2022-12-28T13:10:04Z</time>
      </trkpt>
      <trkpt lat="49.97427" lon="2.29206">
        <ele>82.8</ele>
        <time>2022-12-28T13:10:05Z</time>
      </trkpt>
      <trkpt lat="49.97428" lon="2.29204">
        <ele>82.7</ele>
        <time>2022-12-28T13:10:06Z</time>
      </trkpt>
      <trkpt lat="49.97428" lon="2.29203">
        <ele>82.7</ele>
        <time>2022-12-28T13:10:07Z</time>
      </trkpt>
      <trkpt lat="49.97429" lon="2.29202">
        <ele>82.7</ele>
        <time>2022-12-28T13:10:08Z</time>
      </trkpt>
      <trkpt lat="49.9743" lon="2.29199">
        <ele>82.5</ele>
        <time>2022-12-28T13:10:09Z</time>
      </trkpt>
      <trkpt lat="49.97431" lon="2.29198">
        <ele>82.5</ele>
        <time>2022-12-28T13:10:10Z</time>
      </trkpt>
      <trkpt lat="49.97432" lon="2.29197">
        <ele>82.4</ele>
        <time>2022-12-28T13:10:11Z</time>
      </trkpt>
      <trkpt lat="49.97433" lon="2.29195">
        <ele>82.4</ele>
        <time>2022-12-28T13:10:12Z</time>
      </trkpt>
      <trkpt lat="49.97433" lon="2.29194">
        <ele>82.3</ele>
        <time>2022-12-28T13:10:14Z</time>
      </trkpt>
      <trkpt lat="49.97434" lon="2.29192">
        <ele>82.3</ele>
        <time>2022-12-28T13:10:15Z</time>
      </trkpt>
      <trkpt lat="49.97435" lon="2.29191">
        <ele>82.2</ele>
        <time>2022-12-28T13:10:16Z</time>
      </trkpt>
      <trkpt lat="49.97435" lon="2.29189">
        <ele>82.2</ele>
        <time>2022-12-28T13:10:17Z</time>
      </trkpt>
      <trkpt lat="49.97436" lon="2.29188">
        <ele>82.1</ele>
        <time>2022-12-28T13:10:18Z</time>
      </trkpt>
      <trkpt lat="49.97437" lon="2.29187">
        <ele>82</ele>
        <time>2022-12-28T13:10:19Z</time>
      </trkpt>
      <trkpt lat="49.97438" lon="2.29185">
        <ele>82</ele>
        <time>2022-12-28T13:10:20Z</time>
      </trkpt>
      <trkpt lat="49.97439" lon="2.29183">
        <ele>81.8</ele>
        <time>2022-12-28T13:10:22Z</time>
      </trkpt>
      <trkpt lat="49.97439" lon="2.29182">
        <ele>81.8</ele>
        <time>2022-12-28T13:10:23Z</time>
      </trkpt>
      <trkpt lat="49.9744" lon="2.29181">
        <ele>81.7</ele>
        <time>2022-12-28T13:10:24Z</time>
      </trkpt>
      <trkpt lat="49.97441" lon="2.29179">
        <ele>81.7</ele>
        <time>2022-12-28T13:10:25Z</time>
      </trkpt>
      <trkpt lat="49.97441" lon="2.29178">
        <ele>81.6</ele>
        <time>2022-12-28T13:10:26Z</time>
      </trkpt>
      <trkpt lat="49.97442" lon="2.29175">
        <ele>81.5</ele>
        <time>2022-12-28T13:10:27Z</time>
      </trkpt>
      <trkpt lat="49.97443" lon="2.29174">
        <ele>81.4</ele>
        <time>2022-12-28T13:10:29Z</time>
      </trkpt>
      <trkpt lat="49.97444" lon="2.29172">
        <ele>81.4</ele>
        <time>2022-12-28T13:10:30Z</time>
      </trkpt>
      <trkpt lat="49.97444" lon="2.29171">
        <ele>81.3</ele>
        <time>2022-12-28T13:10:31Z</time>
      </trkpt>
      <trkpt lat="49.97445" lon="2.2917">
        <ele>81.3</ele>
        <time>2022-12-28T13:10:32Z</time>
      </trkpt>
      <trkpt lat="49.97446" lon="2.29169">
        <ele>81.2</ele>
        <time>2022-12-28T13:10:33Z</time>
      </trkpt>
      <trkpt lat="49.97446" lon="2.29167">
        <ele>81.1</ele>
        <time>2022-12-28T13:10:34Z</time>
      </trkpt>
      <trkpt lat="49.97447" lon="2.29166">
        <ele>81.1</ele>
        <time>2022-12-28T13:10:35Z</time>
      </trkpt>
      <trkpt lat="49.97448" lon="2.29165">
        <ele>81</ele>
        <time>2022-12-28T13:10:36Z</time>
      </trkpt>
      <trkpt lat="49.97449" lon="2.29163">
        <ele>80.9</ele>
        <time>2022-12-28T13:10:37Z</time>
      </trkpt>
      <trkpt lat="49.97449" lon="2.29162">
        <ele>80.9</ele>
        <time>2022-12-28T13:10:38Z</time>
      </trkpt>
      <trkpt lat="49.9745" lon="2.2916">
        <ele>80.8</ele>
        <time>2022-12-28T13:10:40Z</time>
      </trkpt>
      <trkpt lat="49.97451" lon="2.29158">
        <ele>80.7</ele>
        <time>2022-12-28T13:10:41Z</time>
      </trkpt>
      <trkpt lat="49.97452" lon="2.29155">
        <ele>80.6</ele>
        <time>2022-12-28T13:10:43Z</time>
      </trkpt>
      <trkpt lat="49.97453" lon="2.29154">
        <ele>80.5</ele>
        <time>2022-12-28T13:10:44Z</time>
      </trkpt>
      <trkpt lat="49.97455" lon="2.29152">
        <ele>80.4</ele>
        <time>2022-12-28T13:10:45Z</time>
      </trkpt>
      <trkpt lat="49.97455" lon="2.29151">
        <ele>80.4</ele>
        <time>2022-12-28T13:10:46Z</time>
      </trkpt>
      <trkpt lat="49.97456" lon="2.2915">
        <ele>80.3</ele>
        <time>2022-12-28T13:10:47Z</time>
      </trkpt>
      <trkpt lat="49.97457" lon="2.29149">
        <ele>80.3</ele>
        <time>2022-12-28T13:10:48Z</time>
      </trkpt>
      <trkpt lat="49.97458" lon="2.29148">
        <ele>80.2</ele>
        <time>2022-12-28T13:10:49Z</time>
      </trkpt>
      <trkpt lat="49.97459" lon="2.29147">
        <ele>80.1</ele>
        <time>2022-12-28T13:10:50Z</time>
      </trkpt>
      <trkpt lat="49.9746" lon="2.29146">
        <ele>80.1</ele>
        <time>2022-12-28T13:10:51Z</time>
      </trkpt>
      <trkpt lat="49.97461" lon="2.29144">
        <ele>80</ele>
        <time>2022-12-28T13:10:52Z</time>
      </trkpt>
      <trkpt lat="49.97462" lon="2.29143">
        <ele>79.9</ele>
        <time>2022-12-28T13:10:53Z</time>
      </trkpt>
      <trkpt lat="49.97463" lon="2.29141">
        <ele>79.8</ele>
        <time>2022-12-28T13:10:54Z</time>
      </trkpt>
      <trkpt lat="49.97464" lon="2.2914">
        <ele>79.8</ele>
        <time>2022-12-28T13:10:56Z</time>
      </trkpt>
      <trkpt lat="49.97465" lon="2.29138">
        <ele>79.7</ele>
        <time>2022-12-28T13:10:57Z</time>
      </trkpt>
      <trkpt lat="49.97467" lon="2.29137">
        <ele>79.6</ele>
        <time>2022-12-28T13:10:58Z</time>
      </trkpt>
      <trkpt lat="49.97468" lon="2.29134">
        <ele>79.5</ele>
        <time>2022-12-28T13:10:59Z</time>
      </trkpt>
      <trkpt lat="49.97469" lon="2.29133">
        <ele>79.5</ele>
        <time>2022-12-28T13:11:00Z</time>
      </trkpt>
      <trkpt lat="49.97469" lon="2.29132">
        <ele>79.4</ele>
        <time>2022-12-28T13:11:01Z</time>
      </trkpt>
      <trkpt lat="49.9747" lon="2.29131">
        <ele>79.4</ele>
        <time>2022-12-28T13:11:02Z</time>
      </trkpt>
      <trkpt lat="49.97471" lon="2.29129">
        <ele>79.3</ele>
        <time>2022-12-28T13:11:03Z</time>
      </trkpt>
      <trkpt lat="49.97472" lon="2.29127">
        <ele>79.2</ele>
        <time>2022-12-28T13:11:05Z</time>
      </trkpt>
      <trkpt lat="49.97473" lon="2.29125">
        <ele>79.2</ele>
        <time>2022-12-28T13:11:06Z</time>
      </trkpt>
      <trkpt lat="49.97474" lon="2.29123">
        <ele>79.1</ele>
        <time>2022-12-28T13:11:07Z</time>
      </trkpt>
      <trkpt lat="49.97475" lon="2.29122">
        <ele>79</ele>
        <time>2022-12-28T13:11:08Z</time>
      </trkpt>
      <trkpt lat="49.97476" lon="2.2912">
        <ele>78.9</ele>
        <time>2022-12-28T13:11:09Z</time>
      </trkpt>
      <trkpt lat="49.97477" lon="2.29118">
        <ele>78.9</ele>
        <time>2022-12-28T13:11:10Z</time>
      </trkpt>
      <trkpt lat="49.97479" lon="2.29117">
        <ele>78.8</ele>
        <time>2022-12-28T13:11:11Z</time>
      </trkpt>
      <trkpt lat="49.9748" lon="2.29115">
        <ele>78.7</ele>
        <time>2022-12-28T13:11:12Z</time>
      </trkpt>
      <trkpt lat="49.97481" lon="2.29114">
        <ele>78.6</ele>
        <time>2022-12-28T13:11:13Z</time>
      </trkpt>
      <trkpt lat="49.97482" lon="2.29112">
        <ele>78.5</ele>
        <time>2022-12-28T13:11:14Z</time>
      </trkpt>
      <trkpt lat="49.97483" lon="2.2911">
        <ele>78.4</ele>
        <time>2022-12-28T13:11:16Z</time>
      </trkpt>
      <trkpt lat="49.97485" lon="2.29109">
        <ele>78.3</ele>
        <time>2022-12-28T13:11:17Z</time>
      </trkpt>
      <trkpt lat="49.97486" lon="2.29107">
        <ele>78.2</ele>
        <time>2022-12-28T13:11:18Z</time>
      </trkpt>
      <trkpt lat="49.97487" lon="2.29106">
        <ele>78.2</ele>
        <time>2022-12-28T13:11:19Z</time>
      </trkpt>
      <trkpt lat="49.97488" lon="2.29104">
        <ele>78.1</ele>
        <time>2022-12-28T13:11:20Z</time>
      </trkpt>
      <trkpt lat="49.97489" lon="2.29103">
        <ele>78</ele>
        <time>2022-12-28T13:11:21Z</time>
      </trkpt>
      <trkpt lat="49.97491" lon="2.29101">
        <ele>77.9</ele>
        <time>2022-12-28T13:11:22Z</time>
      </trkpt>
      <trkpt lat="49.97491" lon="2.29099">
        <ele>77.8</ele>
        <time>2022-12-28T13:11:23Z</time>
      </trkpt>
      <trkpt lat="49.97493" lon="2.29097">
        <ele>77.7</ele>
        <time>2022-12-28T13:11:24Z</time>
      </trkpt>
      <trkpt lat="49.97494" lon="2.29096">
        <ele>77.7</ele>
        <time>2022-12-28T13:11:25Z</time>
      </trkpt>
      <trkpt lat="49.97494" lon="2.29095">
        <ele>77.6</ele>
        <time>2022-12-28T13:11:26Z</time>
      </trkpt>
      <trkpt lat="49.97497" lon="2.29092">
        <ele>77.5</ele>
        <time>2022-12-28T13:11:27Z</time>
      </trkpt>
      <trkpt lat="49.97497" lon="2.29091">
        <ele>77.5</ele>
        <time>2022-12-28T13:11:29Z</time>
      </trkpt>
      <trkpt lat="49.97498" lon="2.2909">
        <ele>77.4</ele>
        <time>2022-12-28T13:11:30Z</time>
      </trkpt>
      <trkpt lat="49.97499" lon="2.29089">
        <ele>77.4</ele>
        <time>2022-12-28T13:11:31Z</time>
      </trkpt>
      <trkpt lat="49.97499" lon="2.29088">
        <ele>77.3</ele>
        <time>2022-12-28T13:11:32Z</time>
      </trkpt>
      <trkpt lat="49.97501" lon="2.29086">
        <ele>77.2</ele>
        <time>2022-12-28T13:11:33Z</time>
      </trkpt>
      <trkpt lat="49.97502" lon="2.29085">
        <ele>77.2</ele>
        <time>2022-12-28T13:11:34Z</time>
      </trkpt>
      <trkpt lat="49.97503" lon="2.29084">
        <ele>77.2</ele>
        <time>2022-12-28T13:11:35Z</time>
      </trkpt>
      <trkpt lat="49.97504" lon="2.29083">
        <ele>77.1</ele>
        <time>2022-12-28T13:11:36Z</time>
      </trkpt>
      <trkpt lat="49.97505" lon="2.29082">
        <ele>77.1</ele>
        <time>2022-12-28T13:11:37Z</time>
      </trkpt>
      <trkpt lat="49.97506" lon="2.2908">
        <ele>77</ele>
        <time>2022-12-28T13:11:38Z</time>
      </trkpt>
      <trkpt lat="49.97507" lon="2.29079">
        <ele>77</ele>
        <time>2022-12-28T13:11:39Z</time>
      </trkpt>
      <trkpt lat="49.97509" lon="2.29077">
        <ele>76.9</ele>
        <time>2022-12-28T13:11:41Z</time>
      </trkpt>
      <trkpt lat="49.9751" lon="2.29076">
        <ele>76.8</ele>
        <time>2022-12-28T13:11:42Z</time>
      </trkpt>
      <trkpt lat="49.9751" lon="2.29075">
        <ele>76.8</ele>
        <time>2022-12-28T13:11:43Z</time>
      </trkpt>
      <trkpt lat="49.97511" lon="2.29074">
        <ele>76.8</ele>
        <time>2022-12-28T13:11:44Z</time>
      </trkpt>
      <trkpt lat="49.97512" lon="2.29073">
        <ele>76.7</ele>
        <time>2022-12-28T13:11:45Z</time>
      </trkpt>
      <trkpt lat="49.97513" lon="2.29071">
        <ele>76.7</ele>
        <time>2022-12-28T13:11:46Z</time>
      </trkpt>
      <trkpt lat="49.97514" lon="2.2907">
        <ele>76.7</ele>
        <time>2022-12-28T13:11:47Z</time>
      </trkpt>
      <trkpt lat="49.97515" lon="2.29069">
        <ele>76.6</ele>
        <time>2022-12-28T13:11:48Z</time>
      </trkpt>
      <trkpt lat="49.97515" lon="2.29068">
        <ele>76.6</ele>
        <time>2022-12-28T13:11:49Z</time>
      </trkpt>
      <trkpt lat="49.97517" lon="2.29066">
        <ele>76.6</ele>
        <time>2022-12-28T13:11:50Z</time>
      </trkpt>
      <trkpt lat="49.97518" lon="2.29065">
        <ele>76.6</ele>
        <time>2022-12-28T13:11:51Z</time>
      </trkpt>
      <trkpt lat="49.97519" lon="2.29064">
        <ele>76.5</ele>
        <time>2022-12-28T13:11:52Z</time>
      </trkpt>
      <trkpt lat="49.9752" lon="2.29063">
        <ele>76.5</ele>
        <time>2022-12-28T13:11:53Z</time>
      </trkpt>
      <trkpt lat="49.97521" lon="2.29061">
        <ele>76.5</ele>
        <time>2022-12-28T13:11:55Z</time>
      </trkpt>
      <trkpt lat="49.97522" lon="2.2906">
        <ele>76.4</ele>
        <time>2022-12-28T13:11:56Z</time>
      </trkpt>
      <trkpt lat="49.97523" lon="2.29058">
        <ele>76.4</ele>
        <time>2022-12-28T13:11:57Z</time>
      </trkpt>
      <trkpt lat="49.97525" lon="2.29054">
        <ele>76.4</ele>
        <time>2022-12-28T13:11:58Z</time>
      </trkpt>
      <trkpt lat="49.97526" lon="2.29053">
        <ele>76.4</ele>
        <time>2022-12-28T13:12:00Z</time>
      </trkpt>
      <trkpt lat="49.97527" lon="2.29052">
        <ele>76.4</ele>
        <time>2022-12-28T13:12:01Z</time>
      </trkpt>
      <trkpt lat="49.97527" lon="2.29051">
        <ele>76.4</ele>
        <time>2022-12-28T13:12:02Z</time>
      </trkpt>
      <trkpt lat="49.97528" lon="2.2905">
        <ele>76.4</ele>
        <time>2022-12-28T13:12:03Z</time>
      </trkpt>
      <trkpt lat="49.97529" lon="2.29048">
        <ele>76.4</ele>
        <time>2022-12-28T13:12:04Z</time>
      </trkpt>
      <trkpt lat="49.97529" lon="2.29047">
        <ele>76.4</ele>
        <time>2022-12-28T13:12:05Z</time>
      </trkpt>
      <trkpt lat="49.9753" lon="2.29045">
        <ele>76.4</ele>
        <time>2022-12-28T13:12:06Z</time>
      </trkpt>
      <trkpt lat="49.9753" lon="2.29044">
        <ele>76.4</ele>
        <time>2022-12-28T13:12:07Z</time>
      </trkpt>
      <trkpt lat="49.97531" lon="2.29042">
        <ele>76.4</ele>
        <time>2022-12-28T13:12:08Z</time>
      </trkpt>
      <trkpt lat="49.97532" lon="2.29041">
        <ele>76.4</ele>
        <time>2022-12-28T13:12:09Z</time>
      </trkpt>
      <trkpt lat="49.97534" lon="2.29038">
        <ele>76.4</ele>
        <time>2022-12-28T13:12:10Z</time>
      </trkpt>
      <trkpt lat="49.97535" lon="2.29037">
        <ele>76.4</ele>
        <time>2022-12-28T13:12:12Z</time>
      </trkpt>
      <trkpt lat="49.97535" lon="2.29036">
        <ele>76.4</ele>
        <time>2022-12-28T13:12:13Z</time>
      </trkpt>
      <trkpt lat="49.97536" lon="2.29035">
        <ele>76.4</ele>
        <time>2022-12-28T13:12:14Z</time>
      </trkpt>
      <trkpt lat="49.97537" lon="2.29033">
        <ele>76.4</ele>
        <time>2022-12-28T13:12:15Z</time>
      </trkpt>
      <trkpt lat="49.97538" lon="2.2903">
        <ele>76.5</ele>
        <time>2022-12-28T13:12:16Z</time>
      </trkpt>
      <trkpt lat="49.97539" lon="2.29029">
        <ele>76.5</ele>
        <time>2022-12-28T13:12:17Z</time>
      </trkpt>
      <trkpt lat="49.97539" lon="2.29028">
        <ele>76.5</ele>
        <time>2022-12-28T13:12:18Z</time>
      </trkpt>
      <trkpt lat="49.9754" lon="2.29026">
        <ele>76.5</ele>
        <time>2022-12-28T13:12:20Z</time>
      </trkpt>
      <trkpt lat="49.97541" lon="2.29025">
        <ele>76.6</ele>
        <time>2022-12-28T13:12:21Z</time>
      </trkpt>
      <trkpt lat="49.97541" lon="2.29023">
        <ele>76.6</ele>
        <time>2022-12-28T13:12:22Z</time>
      </trkpt>
      <trkpt lat="49.97542" lon="2.29021">
        <ele>76.6</ele>
        <time>2022-12-28T13:12:23Z</time>
      </trkpt>
      <trkpt lat="49.97542" lon="2.29019">
        <ele>76.6</ele>
        <time>2022-12-28T13:12:24Z</time>
      </trkpt>
      <trkpt lat="49.97543" lon="2.29018">
        <ele>76.6</ele>
        <time>2022-12-28T13:12:25Z</time>
      </trkpt>
      <trkpt lat="49.97543" lon="2.29017">
        <ele>76.7</ele>
        <time>2022-12-28T13:12:26Z</time>
      </trkpt>
      <trkpt lat="49.97544" lon="2.29015">
        <ele>76.7</ele>
        <time>2022-12-28T13:12:27Z</time>
      </trkpt>
      <trkpt lat="49.97545" lon="2.29013">
        <ele>76.7</ele>
        <time>2022-12-28T13:12:28Z</time>
      </trkpt>
      <trkpt lat="49.97546" lon="2.29013">
        <ele>76.7</ele>
        <time>2022-12-28T13:12:29Z</time>
      </trkpt>
      <trkpt lat="49.97546" lon="2.29011">
        <ele>76.7</ele>
        <time>2022-12-28T13:12:30Z</time>
      </trkpt>
      <trkpt lat="49.97548" lon="2.29009">
        <ele>76.8</ele>
        <time>2022-12-28T13:12:31Z</time>
      </trkpt>
      <trkpt lat="49.97548" lon="2.29007">
        <ele>76.8</ele>
        <time>2022-12-28T13:12:33Z</time>
      </trkpt>
      <trkpt lat="49.97548" lon="2.29006">
        <ele>76.8</ele>
        <time>2022-12-28T13:12:34Z</time>
      </trkpt>
      <trkpt lat="49.97549" lon="2.29005">
        <ele>76.9</ele>
        <time>2022-12-28T13:12:35Z</time>
      </trkpt>
      <trkpt lat="49.97549" lon="2.29003">
        <ele>76.9</ele>
        <time>2022-12-28T13:12:36Z</time>
      </trkpt>
      <trkpt lat="49.97549" lon="2.29001">
        <ele>76.9</ele>
        <time>2022-12-28T13:12:37Z</time>
      </trkpt>
      <trkpt lat="49.9755" lon="2.28999">
        <ele>77</ele>
        <time>2022-12-28T13:12:38Z</time>
      </trkpt>
      <trkpt lat="49.9755" lon="2.28998">
        <ele>77</ele>
        <time>2022-12-28T13:12:39Z</time>
      </trkpt>
      <trkpt lat="49.9755" lon="2.28996">
        <ele>77</ele>
        <time>2022-12-28T13:12:40Z</time>
      </trkpt>
      <trkpt lat="49.97552" lon="2.28992">
        <ele>77.1</ele>
        <time>2022-12-28T13:12:42Z</time>
      </trkpt>
      <trkpt lat="49.97552" lon="2.28991">
        <ele>77.1</ele>
        <time>2022-12-28T13:12:43Z</time>
      </trkpt>
      <trkpt lat="49.97553" lon="2.2899">
        <ele>77.1</ele>
        <time>2022-12-28T13:12:44Z</time>
      </trkpt>
      <trkpt lat="49.97553" lon="2.28988">
        <ele>77.2</ele>
        <time>2022-12-28T13:12:45Z</time>
      </trkpt>
      <trkpt lat="49.97554" lon="2.28986">
        <ele>77.2</ele>
        <time>2022-12-28T13:12:46Z</time>
      </trkpt>
      <trkpt lat="49.97555" lon="2.28982">
        <ele>77.3</ele>
        <time>2022-12-28T13:12:47Z</time>
      </trkpt>
      <trkpt lat="49.97556" lon="2.28981">
        <ele>77.3</ele>
        <time>2022-12-28T13:12:49Z</time>
      </trkpt>
      <trkpt lat="49.97556" lon="2.28979">
        <ele>77.4</ele>
        <time>2022-12-28T13:12:50Z</time>
      </trkpt>
      <trkpt lat="49.97557" lon="2.28978">
        <ele>77.4</ele>
        <time>2022-12-28T13:12:51Z</time>
      </trkpt>
      <trkpt lat="49.97558" lon="2.28977">
        <ele>77.4</ele>
        <time>2022-12-28T13:12:52Z</time>
      </trkpt>
      <trkpt lat="49.97559" lon="2.28974">
        <ele>77.5</ele>
        <time>2022-12-28T13:12:53Z</time>
      </trkpt>
      <trkpt lat="49.97559" lon="2.28973">
        <ele>77.6</ele>
        <time>2022-12-28T13:12:54Z</time>
      </trkpt>
      <trkpt lat="49.9756" lon="2.28971">
        <ele>77.6</ele>
        <time>2022-12-28T13:12:55Z</time>
      </trkpt>
      <trkpt lat="49.97561" lon="2.2897">
        <ele>77.7</ele>
        <time>2022-12-28T13:12:56Z</time>
      </trkpt>
      <trkpt lat="49.97562" lon="2.28968">
        <ele>77.7</ele>
        <time>2022-12-28T13:12:57Z</time>
      </trkpt>
      <trkpt lat="49.97563" lon="2.28966">
        <ele>77.8</ele>
        <time>2022-12-28T13:12:58Z</time>
      </trkpt>
      <trkpt lat="49.97564" lon="2.28963">
        <ele>77.9</ele>
        <time>2022-12-28T13:13:00Z</time>
      </trkpt>
      <trkpt lat="49.97565" lon="2.28962">
        <ele>77.9</ele>
        <time>2022-12-28T13:13:01Z</time>
      </trkpt>
      <trkpt lat="49.97565" lon="2.28961">
        <ele>78</ele>
        <time>2022-12-28T13:13:02Z</time>
      </trkpt>
      <trkpt lat="49.97566" lon="2.28958">
        <ele>78.1</ele>
        <time>2022-12-28T13:13:03Z</time>
      </trkpt>
      <trkpt lat="49.97567" lon="2.28957">
        <ele>78.1</ele>
        <time>2022-12-28T13:13:04Z</time>
      </trkpt>
      <trkpt lat="49.97567" lon="2.28955">
        <ele>78.2</ele>
        <time>2022-12-28T13:13:05Z</time>
      </trkpt>
      <trkpt lat="49.97568" lon="2.28952">
        <ele>78.3</ele>
        <time>2022-12-28T13:13:06Z</time>
      </trkpt>
      <trkpt lat="49.97569" lon="2.2895">
        <ele>78.3</ele>
        <time>2022-12-28T13:13:07Z</time>
      </trkpt>
      <trkpt lat="49.9757" lon="2.28947">
        <ele>78.5</ele>
        <time>2022-12-28T13:13:09Z</time>
      </trkpt>
      <trkpt lat="49.97571" lon="2.28944">
        <ele>78.6</ele>
        <time>2022-12-28T13:13:10Z</time>
      </trkpt>
      <trkpt lat="49.97571" lon="2.28943">
        <ele>78.6</ele>
        <time>2022-12-28T13:13:11Z</time>
      </trkpt>
      <trkpt lat="49.97571" lon="2.28941">
        <ele>78.6</ele>
        <time>2022-12-28T13:13:12Z</time>
      </trkpt>
      <trkpt lat="49.97572" lon="2.28939">
        <ele>78.7</ele>
        <time>2022-12-28T13:13:13Z</time>
      </trkpt>
      <trkpt lat="49.97573" lon="2.28938">
        <ele>78.8</ele>
        <time>2022-12-28T13:13:14Z</time>
      </trkpt>
      <trkpt lat="49.97574" lon="2.28935">
        <ele>78.9</ele>
        <time>2022-12-28T13:13:15Z</time>
      </trkpt>
      <trkpt lat="49.97574" lon="2.28934">
        <ele>78.9</ele>
        <time>2022-12-28T13:13:17Z</time>
      </trkpt>
      <trkpt lat="49.97575" lon="2.28933">
        <ele>79</ele>
        <time>2022-12-28T13:13:18Z</time>
      </trkpt>
      <trkpt lat="49.97575" lon="2.2893">
        <ele>79.1</ele>
        <time>2022-12-28T13:13:19Z</time>
      </trkpt>
      <trkpt lat="49.97576" lon="2.28929">
        <ele>79.1</ele>
        <time>2022-12-28T13:13:20Z</time>
      </trkpt>
      <trkpt lat="49.97576" lon="2.28928">
        <ele>79.2</ele>
        <time>2022-12-28T13:13:21Z</time>
      </trkpt>
      <trkpt lat="49.97577" lon="2.28926">
        <ele>79.2</ele>
        <time>2022-12-28T13:13:22Z</time>
      </trkpt>
      <trkpt lat="49.97578" lon="2.28924">
        <ele>79.3</ele>
        <time>2022-12-28T13:13:23Z</time>
      </trkpt>
      <trkpt lat="49.97578" lon="2.28923">
        <ele>79.4</ele>
        <time>2022-12-28T13:13:25Z</time>
      </trkpt>
      <trkpt lat="49.97578" lon="2.28921">
        <ele>79.4</ele>
        <time>2022-12-28T13:13:26Z</time>
      </trkpt>
      <trkpt lat="49.97579" lon="2.2892">
        <ele>79.5</ele>
        <time>2022-12-28T13:13:27Z</time>
      </trkpt>
      <trkpt lat="49.97579" lon="2.28918">
        <ele>79.6</ele>
        <time>2022-12-28T13:13:28Z</time>
      </trkpt>
      <trkpt lat="49.9758" lon="2.28916">
        <ele>79.6</ele>
        <time>2022-12-28T13:13:29Z</time>
      </trkpt>
      <trkpt lat="49.9758" lon="2.28916">
        <ele>79.7</ele>
        <time>2022-12-28T13:13:30Z</time>
      </trkpt>
      <trkpt lat="49.97581" lon="2.28914">
        <ele>79.7</ele>
        <time>2022-12-28T13:13:31Z</time>
      </trkpt>
      <trkpt lat="49.97581" lon="2.28913">
        <ele>79.8</ele>
        <time>2022-12-28T13:13:32Z</time>
      </trkpt>
      <trkpt lat="49.97582" lon="2.28911">
        <ele>79.9</ele>
        <time>2022-12-28T13:13:34Z</time>
      </trkpt>
      <trkpt lat="49.97582" lon="2.2891">
        <ele>80</ele>
        <time>2022-12-28T13:13:35Z</time>
      </trkpt>
      <trkpt lat="49.97583" lon="2.28908">
        <ele>80</ele>
        <time>2022-12-28T13:13:36Z</time>
      </trkpt>
      <trkpt lat="49.97583" lon="2.28907">
        <ele>80.1</ele>
        <time>2022-12-28T13:13:37Z</time>
      </trkpt>
      <trkpt lat="49.97584" lon="2.28905">
        <ele>80.2</ele>
        <time>2022-12-28T13:13:38Z</time>
      </trkpt>
      <trkpt lat="49.97584" lon="2.28904">
        <ele>80.2</ele>
        <time>2022-12-28T13:13:39Z</time>
      </trkpt>
      <trkpt lat="49.97585" lon="2.28902">
        <ele>80.3</ele>
        <time>2022-12-28T13:13:40Z</time>
      </trkpt>
      <trkpt lat="49.97586" lon="2.28899">
        <ele>80.5</ele>
        <time>2022-12-28T13:13:41Z</time>
      </trkpt>
      <trkpt lat="49.97586" lon="2.28898">
        <ele>80.5</ele>
        <time>2022-12-28T13:13:43Z</time>
      </trkpt>
      <trkpt lat="49.97587" lon="2.28897">
        <ele>80.6</ele>
        <time>2022-12-28T13:13:44Z</time>
      </trkpt>
      <trkpt lat="49.97587" lon="2.28896">
        <ele>80.7</ele>
        <time>2022-12-28T13:13:45Z</time>
      </trkpt>
      <trkpt lat="49.97587" lon="2.28894">
        <ele>80.7</ele>
        <time>2022-12-28T13:13:46Z</time>
      </trkpt>
      <trkpt lat="49.97588" lon="2.28892">
        <ele>80.8</ele>
        <time>2022-12-28T13:13:47Z</time>
      </trkpt>
      <trkpt lat="49.97589" lon="2.2889">
        <ele>80.9</ele>
        <time>2022-12-28T13:13:49Z</time>
      </trkpt>
      <trkpt lat="49.97589" lon="2.28888">
        <ele>81</ele>
        <time>2022-12-28T13:13:50Z</time>
      </trkpt>
      <trkpt lat="49.97589" lon="2.28887">
        <ele>81.1</ele>
        <time>2022-12-28T13:13:51Z</time>
      </trkpt>
      <trkpt lat="49.9759" lon="2.28885">
        <ele>81.2</ele>
        <time>2022-12-28T13:13:52Z</time>
      </trkpt>
      <trkpt lat="49.9759" lon="2.28884">
        <ele>81.2</ele>
        <time>2022-12-28T13:13:53Z</time>
      </trkpt>
      <trkpt lat="49.9759" lon="2.28882">
        <ele>81.3</ele>
        <time>2022-12-28T13:13:54Z</time>
      </trkpt>
      <trkpt lat="49.97591" lon="2.2888">
        <ele>81.4</ele>
        <time>2022-12-28T13:13:56Z</time>
      </trkpt>
      <trkpt lat="49.97591" lon="2.28879">
        <ele>81.5</ele>
        <time>2022-12-28T13:13:57Z</time>
      </trkpt>
      <trkpt lat="49.97592" lon="2.28878">
        <ele>81.6</ele>
        <time>2022-12-28T13:13:58Z</time>
      </trkpt>
      <trkpt lat="49.97593" lon="2.28876">
        <ele>81.6</ele>
        <time>2022-12-28T13:13:59Z</time>
      </trkpt>
      <trkpt lat="49.97593" lon="2.28875">
        <ele>81.7</ele>
        <time>2022-12-28T13:14:00Z</time>
      </trkpt>
      <trkpt lat="49.97594" lon="2.28874">
        <ele>81.8</ele>
        <time>2022-12-28T13:14:02Z</time>
      </trkpt>
      <trkpt lat="49.97594" lon="2.28872">
        <ele>81.9</ele>
        <time>2022-12-28T13:14:03Z</time>
      </trkpt>
      <trkpt lat="49.97595" lon="2.2887">
        <ele>82</ele>
        <time>2022-12-28T13:14:04Z</time>
      </trkpt>
      <trkpt lat="49.97595" lon="2.28869">
        <ele>82</ele>
        <time>2022-12-28T13:14:05Z</time>
      </trkpt>
      <trkpt lat="49.97596" lon="2.28868">
        <ele>82.1</ele>
        <time>2022-12-28T13:14:06Z</time>
      </trkpt>
      <trkpt lat="49.97596" lon="2.28866">
        <ele>82.2</ele>
        <time>2022-12-28T13:14:08Z</time>
      </trkpt>
      <trkpt lat="49.97597" lon="2.28864">
        <ele>82.3</ele>
        <time>2022-12-28T13:14:09Z</time>
      </trkpt>
      <trkpt lat="49.97597" lon="2.28863">
        <ele>82.4</ele>
        <time>2022-12-28T13:14:10Z</time>
      </trkpt>
      <trkpt lat="49.97598" lon="2.28862">
        <ele>82.4</ele>
        <time>2022-12-28T13:14:11Z</time>
      </trkpt>
      <trkpt lat="49.97598" lon="2.28861">
        <ele>82.5</ele>
        <time>2022-12-28T13:14:12Z</time>
      </trkpt>
      <trkpt lat="49.97599" lon="2.28859">
        <ele>82.6</ele>
        <time>2022-12-28T13:14:13Z</time>
      </trkpt>
      <trkpt lat="49.97599" lon="2.28858">
        <ele>82.6</ele>
        <time>2022-12-28T13:14:14Z</time>
      </trkpt>
      <trkpt lat="49.976" lon="2.28857">
        <ele>82.7</ele>
        <time>2022-12-28T13:14:16Z</time>
      </trkpt>
      <trkpt lat="49.97601" lon="2.28855">
        <ele>82.8</ele>
        <time>2022-12-28T13:14:17Z</time>
      </trkpt>
      <trkpt lat="49.97601" lon="2.28854">
        <ele>82.9</ele>
        <time>2022-12-28T13:14:18Z</time>
      </trkpt>
      <trkpt lat="49.97602" lon="2.28853">
        <ele>82.9</ele>
        <time>2022-12-28T13:14:19Z</time>
      </trkpt>
      <trkpt lat="49.97603" lon="2.28852">
        <ele>83</ele>
        <time>2022-12-28T13:14:20Z</time>
      </trkpt>
      <trkpt lat="49.97603" lon="2.28851">
        <ele>83.1</ele>
        <time>2022-12-28T13:14:21Z</time>
      </trkpt>
      <trkpt lat="49.97604" lon="2.2885">
        <ele>83.1</ele>
        <time>2022-12-28T13:14:23Z</time>
      </trkpt>
      <trkpt lat="49.97605" lon="2.28849">
        <ele>83.2</ele>
        <time>2022-12-28T13:14:24Z</time>
      </trkpt>
      <trkpt lat="49.97606" lon="2.28848">
        <ele>83.3</ele>
        <time>2022-12-28T13:14:25Z</time>
      </trkpt>
      <trkpt lat="49.97606" lon="2.28847">
        <ele>83.4</ele>
        <time>2022-12-28T13:14:26Z</time>
      </trkpt>
      <trkpt lat="49.97607" lon="2.28845">
        <ele>83.4</ele>
        <time>2022-12-28T13:14:27Z</time>
      </trkpt>
      <trkpt lat="49.97608" lon="2.28843">
        <ele>83.6</ele>
        <time>2022-12-28T13:14:29Z</time>
      </trkpt>
      <trkpt lat="49.97609" lon="2.28842">
        <ele>83.6</ele>
        <time>2022-12-28T13:14:30Z</time>
      </trkpt>
      <trkpt lat="49.9761" lon="2.28841">
        <ele>83.7</ele>
        <time>2022-12-28T13:14:31Z</time>
      </trkpt>
      <trkpt lat="49.97611" lon="2.28839">
        <ele>83.8</ele>
        <time>2022-12-28T13:14:32Z</time>
      </trkpt>
      <trkpt lat="49.97612" lon="2.28838">
        <ele>83.9</ele>
        <time>2022-12-28T13:14:33Z</time>
      </trkpt>
      <trkpt lat="49.97613" lon="2.28836">
        <ele>84</ele>
        <time>2022-12-28T13:14:35Z</time>
      </trkpt>
      <trkpt lat="49.97614" lon="2.28834">
        <ele>84.1</ele>
        <time>2022-12-28T13:14:36Z</time>
      </trkpt>
      <trkpt lat="49.97615" lon="2.28833">
        <ele>84.2</ele>
        <time>2022-12-28T13:14:37Z</time>
      </trkpt>
      <trkpt lat="49.97616" lon="2.28832">
        <ele>84.3</ele>
        <time>2022-12-28T13:14:38Z</time>
      </trkpt>
      <trkpt lat="49.97617" lon="2.28829">
        <ele>84.4</ele>
        <time>2022-12-28T13:14:39Z</time>
      </trkpt>
      <trkpt lat="49.97619" lon="2.28827">
        <ele>84.5</ele>
        <time>2022-12-28T13:14:40Z</time>
      </trkpt>
      <trkpt lat="49.97619" lon="2.28826">
        <ele>84.6</ele>
        <time>2022-12-28T13:14:41Z</time>
      </trkpt>
      <trkpt lat="49.9762" lon="2.28825">
        <ele>84.6</ele>
        <time>2022-12-28T13:14:42Z</time>
      </trkpt>
      <trkpt lat="49.97622" lon="2.28823">
        <ele>84.8</ele>
        <time>2022-12-28T13:14:44Z</time>
      </trkpt>
      <trkpt lat="49.97622" lon="2.28822">
        <ele>84.8</ele>
        <time>2022-12-28T13:14:45Z</time>
      </trkpt>
      <trkpt lat="49.97623" lon="2.2882">
        <ele>84.9</ele>
        <time>2022-12-28T13:14:46Z</time>
      </trkpt>
      <trkpt lat="49.97624" lon="2.28819">
        <ele>85</ele>
        <time>2022-12-28T13:14:47Z</time>
      </trkpt>
      <trkpt lat="49.97626" lon="2.28816">
        <ele>85.2</ele>
        <time>2022-12-28T13:14:48Z</time>
      </trkpt>
      <trkpt lat="49.97627" lon="2.28815">
        <ele>85.2</ele>
        <time>2022-12-28T13:14:50Z</time>
      </trkpt>
      <trkpt lat="49.97628" lon="2.28814">
        <ele>85.3</ele>
        <time>2022-12-28T13:14:51Z</time>
      </trkpt>
      <trkpt lat="49.97629" lon="2.28813">
        <ele>85.4</ele>
        <time>2022-12-28T13:14:52Z</time>
      </trkpt>
      <trkpt lat="49.97629" lon="2.28811">
        <ele>85.4</ele>
        <time>2022-12-28T13:14:53Z</time>
      </trkpt>
      <trkpt lat="49.9763" lon="2.2881">
        <ele>85.5</ele>
        <time>2022-12-28T13:14:54Z</time>
      </trkpt>
      <trkpt lat="49.97631" lon="2.28808">
        <ele>85.6</ele>
        <time>2022-12-28T13:14:55Z</time>
      </trkpt>
      <trkpt lat="49.97633" lon="2.28806">
        <ele>85.7</ele>
        <time>2022-12-28T13:14:57Z</time>
      </trkpt>
      <trkpt lat="49.97634" lon="2.28805">
        <ele>85.8</ele>
        <time>2022-12-28T13:14:58Z</time>
      </trkpt>
      <trkpt lat="49.97635" lon="2.28804">
        <ele>85.8</ele>
        <time>2022-12-28T13:14:59Z</time>
      </trkpt>
      <trkpt lat="49.97635" lon="2.28803">
        <ele>85.9</ele>
        <time>2022-12-28T13:15:00Z</time>
      </trkpt>
      <trkpt lat="49.97636" lon="2.28802">
        <ele>85.9</ele>
        <time>2022-12-28T13:15:01Z</time>
      </trkpt>
      <trkpt lat="49.97638" lon="2.28801">
        <ele>86</ele>
        <time>2022-12-28T13:15:03Z</time>
      </trkpt>
      <trkpt lat="49.97638" lon="2.288">
        <ele>86.1</ele>
        <time>2022-12-28T13:15:04Z</time>
      </trkpt>
      <trkpt lat="49.9764" lon="2.28798">
        <ele>86.2</ele>
        <time>2022-12-28T13:15:05Z</time>
      </trkpt>
      <trkpt lat="49.97642" lon="2.28797">
        <ele>86.3</ele>
        <time>2022-12-28T13:15:06Z</time>
      </trkpt>
      <trkpt lat="49.97642" lon="2.28796">
        <ele>86.4</ele>
        <time>2022-12-28T13:15:07Z</time>
      </trkpt>
      <trkpt lat="49.97643" lon="2.28795">
        <ele>86.4</ele>
        <time>2022-12-28T13:15:09Z</time>
      </trkpt>
      <trkpt lat="49.97644" lon="2.28794">
        <ele>86.5</ele>
        <time>2022-12-28T13:15:10Z</time>
      </trkpt>
      <trkpt lat="49.97645" lon="2.28793">
        <ele>86.6</ele>
        <time>2022-12-28T13:15:11Z</time>
      </trkpt>
      <trkpt lat="49.97646" lon="2.28792">
        <ele>86.6</ele>
        <time>2022-12-28T13:15:12Z</time>
      </trkpt>
      <trkpt lat="49.97647" lon="2.28791">
        <ele>86.7</ele>
        <time>2022-12-28T13:15:13Z</time>
      </trkpt>
      <trkpt lat="49.97648" lon="2.28789">
        <ele>86.8</ele>
        <time>2022-12-28T13:15:14Z</time>
      </trkpt>
      <trkpt lat="49.97649" lon="2.28788">
        <ele>86.8</ele>
        <time>2022-12-28T13:15:15Z</time>
      </trkpt>
      <trkpt lat="49.97649" lon="2.28787">
        <ele>86.9</ele>
        <time>2022-12-28T13:15:17Z</time>
      </trkpt>
      <trkpt lat="49.9765" lon="2.28786">
        <ele>87</ele>
        <time>2022-12-28T13:15:18Z</time>
      </trkpt>
      <trkpt lat="49.97651" lon="2.28785">
        <ele>87.1</ele>
        <time>2022-12-28T13:15:19Z</time>
      </trkpt>
      <trkpt lat="49.97652" lon="2.28784">
        <ele>87.1</ele>
        <time>2022-12-28T13:15:20Z</time>
      </trkpt>
      <trkpt lat="49.97653" lon="2.28783">
        <ele>87.2</ele>
        <time>2022-12-28T13:15:21Z</time>
      </trkpt>
      <trkpt lat="49.97653" lon="2.28782">
        <ele>87.2</ele>
        <time>2022-12-28T13:15:23Z</time>
      </trkpt>
      <trkpt lat="49.97654" lon="2.28782">
        <ele>87.3</ele>
        <time>2022-12-28T13:15:24Z</time>
      </trkpt>
      <trkpt lat="49.97655" lon="2.2878">
        <ele>87.4</ele>
        <time>2022-12-28T13:15:25Z</time>
      </trkpt>
      <trkpt lat="49.97656" lon="2.2878">
        <ele>87.4</ele>
        <time>2022-12-28T13:15:26Z</time>
      </trkpt>
      <trkpt lat="49.97657" lon="2.28779">
        <ele>87.5</ele>
        <time>2022-12-28T13:15:27Z</time>
      </trkpt>
      <trkpt lat="49.97657" lon="2.28777">
        <ele>87.6</ele>
        <time>2022-12-28T13:15:28Z</time>
      </trkpt>
      <trkpt lat="49.97658" lon="2.28776">
        <ele>87.7</ele>
        <time>2022-12-28T13:15:29Z</time>
      </trkpt>
      <trkpt lat="49.97659" lon="2.28775">
        <ele>87.7</ele>
        <time>2022-12-28T13:15:31Z</time>
      </trkpt>
      <trkpt lat="49.9766" lon="2.28774">
        <ele>87.8</ele>
        <time>2022-12-28T13:15:32Z</time>
      </trkpt>
      <trkpt lat="49.97661" lon="2.28772">
        <ele>87.9</ele>
        <time>2022-12-28T13:15:33Z</time>
      </trkpt>
      <trkpt lat="49.97661" lon="2.28771">
        <ele>87.9</ele>
        <time>2022-12-28T13:15:34Z</time>
      </trkpt>
      <trkpt lat="49.97662" lon="2.2877">
        <ele>88</ele>
        <time>2022-12-28T13:15:35Z</time>
      </trkpt>
      <trkpt lat="49.97663" lon="2.28768">
        <ele>88.1</ele>
        <time>2022-12-28T13:15:36Z</time>
      </trkpt>
      <trkpt lat="49.97664" lon="2.28767">
        <ele>88.2</ele>
        <time>2022-12-28T13:15:37Z</time>
      </trkpt>
      <trkpt lat="49.97664" lon="2.28767">
        <ele>88.2</ele>
        <time>2022-12-28T13:15:39Z</time>
      </trkpt>
      <trkpt lat="49.97665" lon="2.28766">
        <ele>88.3</ele>
        <time>2022-12-28T13:15:40Z</time>
      </trkpt>
      <trkpt lat="49.97665" lon="2.28765">
        <ele>88.3</ele>
        <time>2022-12-28T13:15:41Z</time>
      </trkpt>
      <trkpt lat="49.97666" lon="2.28764">
        <ele>88.4</ele>
        <time>2022-12-28T13:15:42Z</time>
      </trkpt>
      <trkpt lat="49.97666" lon="2.28764">
        <ele>88.4</ele>
        <time>2022-12-28T13:15:43Z</time>
      </trkpt>
      <trkpt lat="49.97667" lon="2.28763">
        <ele>88.5</ele>
        <time>2022-12-28T13:15:44Z</time>
      </trkpt>
      <trkpt lat="49.97668" lon="2.28763">
        <ele>88.5</ele>
        <time>2022-12-28T13:15:45Z</time>
      </trkpt>
      <trkpt lat="49.97669" lon="2.28762">
        <ele>88.6</ele>
        <time>2022-12-28T13:15:47Z</time>
      </trkpt>
      <trkpt lat="49.9767" lon="2.28761">
        <ele>88.6</ele>
        <time>2022-12-28T13:15:48Z</time>
      </trkpt>
      <trkpt lat="49.97671" lon="2.2876">
        <ele>88.7</ele>
        <time>2022-12-28T13:15:49Z</time>
      </trkpt>
      <trkpt lat="49.97672" lon="2.28759">
        <ele>88.8</ele>
        <time>2022-12-28T13:15:50Z</time>
      </trkpt>
      <trkpt lat="49.97673" lon="2.28758">
        <ele>88.8</ele>
        <time>2022-12-28T13:15:51Z</time>
      </trkpt>
      <trkpt lat="49.97674" lon="2.28755">
        <ele>88.9</ele>
        <time>2022-12-28T13:15:53Z</time>
      </trkpt>
      <trkpt lat="49.97675" lon="2.28754">
        <ele>89</ele>
        <time>2022-12-28T13:15:54Z</time>
      </trkpt>
      <trkpt lat="49.97675" lon="2.28754">
        <ele>89</ele>
        <time>2022-12-28T13:15:55Z</time>
      </trkpt>
      <trkpt lat="49.97676" lon="2.28752">
        <ele>89.1</ele>
        <time>2022-12-28T13:15:56Z</time>
      </trkpt>
      <trkpt lat="49.97677" lon="2.28752">
        <ele>89.1</ele>
        <time>2022-12-28T13:15:57Z</time>
      </trkpt>
      <trkpt lat="49.97678" lon="2.28751">
        <ele>89.1</ele>
        <time>2022-12-28T13:15:58Z</time>
      </trkpt>
      <trkpt lat="49.9768" lon="2.28749">
        <ele>89.2</ele>
        <time>2022-12-28T13:16:00Z</time>
      </trkpt>
      <trkpt lat="49.9768" lon="2.28748">
        <ele>89.3</ele>
        <time>2022-12-28T13:16:01Z</time>
      </trkpt>
      <trkpt lat="49.97681" lon="2.28747">
        <ele>89.3</ele>
        <time>2022-12-28T13:16:02Z</time>
      </trkpt>
      <trkpt lat="49.97682" lon="2.28746">
        <ele>89.3</ele>
        <time>2022-12-28T13:16:03Z</time>
      </trkpt>
      <trkpt lat="49.97683" lon="2.28745">
        <ele>89.4</ele>
        <time>2022-12-28T13:16:04Z</time>
      </trkpt>
      <trkpt lat="49.97684" lon="2.28744">
        <ele>89.4</ele>
        <time>2022-12-28T13:16:06Z</time>
      </trkpt>
      <trkpt lat="49.97685" lon="2.28743">
        <ele>89.5</ele>
        <time>2022-12-28T13:16:07Z</time>
      </trkpt>
      <trkpt lat="49.97686" lon="2.28742">
        <ele>89.5</ele>
        <time>2022-12-28T13:16:08Z</time>
      </trkpt>
      <trkpt lat="49.97687" lon="2.2874">
        <ele>89.6</ele>
        <time>2022-12-28T13:16:09Z</time>
      </trkpt>
      <trkpt lat="49.97688" lon="2.28739">
        <ele>89.6</ele>
        <time>2022-12-28T13:16:10Z</time>
      </trkpt>
      <trkpt lat="49.97689" lon="2.28738">
        <ele>89.6</ele>
        <time>2022-12-28T13:16:11Z</time>
      </trkpt>
      <trkpt lat="49.9769" lon="2.28736">
        <ele>89.7</ele>
        <time>2022-12-28T13:16:13Z</time>
      </trkpt>
      <trkpt lat="49.97691" lon="2.28735">
        <ele>89.7</ele>
        <time>2022-12-28T13:16:14Z</time>
      </trkpt>
      <trkpt lat="49.97692" lon="2.28735">
        <ele>89.8</ele>
        <time>2022-12-28T13:16:15Z</time>
      </trkpt>
      <trkpt lat="49.97694" lon="2.28733">
        <ele>89.8</ele>
        <time>2022-12-28T13:16:16Z</time>
      </trkpt>
      <trkpt lat="49.97694" lon="2.28732">
        <ele>89.8</ele>
        <time>2022-12-28T13:16:17Z</time>
      </trkpt>
      <trkpt lat="49.97695" lon="2.28731">
        <ele>89.9</ele>
        <time>2022-12-28T13:16:18Z</time>
      </trkpt>
      <trkpt lat="49.97697" lon="2.28728">
        <ele>89.9</ele>
        <time>2022-12-28T13:16:19Z</time>
      </trkpt>
      <trkpt lat="49.97698" lon="2.28727">
        <ele>89.9</ele>
        <time>2022-12-28T13:16:21Z</time>
      </trkpt>
      <trkpt lat="49.97699" lon="2.28726">
        <ele>89.9</ele>
        <time>2022-12-28T13:16:22Z</time>
      </trkpt>
      <trkpt lat="49.97699" lon="2.28725">
        <ele>90</ele>
        <time>2022-12-28T13:16:23Z</time>
      </trkpt>
      <trkpt lat="49.977" lon="2.28724">
        <ele>90</ele>
        <time>2022-12-28T13:16:24Z</time>
      </trkpt>
      <trkpt lat="49.97701" lon="2.28724">
        <ele>90</ele>
        <time>2022-12-28T13:16:25Z</time>
      </trkpt>
      <trkpt lat="49.97702" lon="2.28723">
        <ele>90</ele>
        <time>2022-12-28T13:16:26Z</time>
      </trkpt>
      <trkpt lat="49.97703" lon="2.28722">
        <ele>90</ele>
        <time>2022-12-28T13:16:28Z</time>
      </trkpt>
      <trkpt lat="49.97703" lon="2.28721">
        <ele>90.1</ele>
        <time>2022-12-28T13:16:29Z</time>
      </trkpt>
      <trkpt lat="49.97705" lon="2.28719">
        <ele>90.1</ele>
        <time>2022-12-28T13:16:30Z</time>
      </trkpt>
      <trkpt lat="49.97705" lon="2.28718">
        <ele>90.1</ele>
        <time>2022-12-28T13:16:31Z</time>
      </trkpt>
      <trkpt lat="49.97706" lon="2.28718">
        <ele>90.1</ele>
        <time>2022-12-28T13:16:32Z</time>
      </trkpt>
      <trkpt lat="49.97707" lon="2.28717">
        <ele>90.1</ele>
        <time>2022-12-28T13:16:33Z</time>
      </trkpt>
      <trkpt lat="49.97708" lon="2.28715">
        <ele>90.2</ele>
        <time>2022-12-28T13:16:35Z</time>
      </trkpt>
      <trkpt lat="49.97708" lon="2.28714">
        <ele>90.2</ele>
        <time>2022-12-28T13:16:36Z</time>
      </trkpt>
      <trkpt lat="49.97709" lon="2.28713">
        <ele>90.2</ele>
        <time>2022-12-28T13:16:37Z</time>
      </trkpt>
      <trkpt lat="49.9771" lon="2.28711">
        <ele>90.2</ele>
        <time>2022-12-28T13:16:38Z</time>
      </trkpt>
      <trkpt lat="49.97711" lon="2.2871">
        <ele>90.2</ele>
        <time>2022-12-28T13:16:39Z</time>
      </trkpt>
      <trkpt lat="49.97712" lon="2.28709">
        <ele>90.3</ele>
        <time>2022-12-28T13:16:40Z</time>
      </trkpt>
      <trkpt lat="49.97712" lon="2.28707">
        <ele>90.3</ele>
        <time>2022-12-28T13:16:41Z</time>
      </trkpt>
      <trkpt lat="49.97714" lon="2.28705">
        <ele>90.3</ele>
        <time>2022-12-28T13:16:43Z</time>
      </trkpt>
      <trkpt lat="49.97715" lon="2.28704">
        <ele>90.4</ele>
        <time>2022-12-28T13:16:44Z</time>
      </trkpt>
      <trkpt lat="49.97715" lon="2.28703">
        <ele>90.4</ele>
        <time>2022-12-28T13:16:45Z</time>
      </trkpt>
      <trkpt lat="49.97716" lon="2.28702">
        <ele>90.4</ele>
        <time>2022-12-28T13:16:46Z</time>
      </trkpt>
      <trkpt lat="49.97717" lon="2.28701">
        <ele>90.4</ele>
        <time>2022-12-28T13:16:47Z</time>
      </trkpt>
      <trkpt lat="49.97718" lon="2.28699">
        <ele>90.5</ele>
        <time>2022-12-28T13:16:48Z</time>
      </trkpt>
      <trkpt lat="49.97718" lon="2.28699">
        <ele>90.5</ele>
        <time>2022-12-28T13:16:50Z</time>
      </trkpt>
      <trkpt lat="49.9772" lon="2.28697">
        <ele>90.5</ele>
        <time>2022-12-28T13:16:51Z</time>
      </trkpt>
      <trkpt lat="49.97721" lon="2.28695">
        <ele>90.6</ele>
        <time>2022-12-28T13:16:52Z</time>
      </trkpt>
      <trkpt lat="49.97722" lon="2.28694">
        <ele>90.6</ele>
        <time>2022-12-28T13:16:53Z</time>
      </trkpt>
      <trkpt lat="49.97723" lon="2.28693">
        <ele>90.6</ele>
        <time>2022-12-28T13:16:54Z</time>
      </trkpt>
      <trkpt lat="49.97724" lon="2.28692">
        <ele>90.6</ele>
        <time>2022-12-28T13:16:55Z</time>
      </trkpt>
      <trkpt lat="49.97725" lon="2.2869">
        <ele>90.7</ele>
        <time>2022-12-28T13:16:57Z</time>
      </trkpt>
      <trkpt lat="49.97726" lon="2.28689">
        <ele>90.7</ele>
        <time>2022-12-28T13:16:58Z</time>
      </trkpt>
      <trkpt lat="49.97727" lon="2.28688">
        <ele>90.7</ele>
        <time>2022-12-28T13:16:59Z</time>
      </trkpt>
      <trkpt lat="49.97729" lon="2.28686">
        <ele>90.8</ele>
        <time>2022-12-28T13:17:00Z</time>
      </trkpt>
      <trkpt lat="49.97729" lon="2.28685">
        <ele>90.8</ele>
        <time>2022-12-28T13:17:01Z</time>
      </trkpt>
      <trkpt lat="49.9773" lon="2.28684">
        <ele>90.8</ele>
        <time>2022-12-28T13:17:02Z</time>
      </trkpt>
      <trkpt lat="49.97731" lon="2.28683">
        <ele>90.8</ele>
        <time>2022-12-28T13:17:03Z</time>
      </trkpt>
      <trkpt lat="49.97732" lon="2.28682">
        <ele>90.8</ele>
        <time>2022-12-28T13:17:05Z</time>
      </trkpt>
      <trkpt lat="49.97734" lon="2.2868">
        <ele>90.9</ele>
        <time>2022-12-28T13:17:06Z</time>
      </trkpt>
      <trkpt lat="49.97735" lon="2.28679">
        <ele>90.9</ele>
        <time>2022-12-28T13:17:07Z</time>
      </trkpt>
      <trkpt lat="49.97737" lon="2.28677">
        <ele>90.9</ele>
        <time>2022-12-28T13:17:08Z</time>
      </trkpt>
      <trkpt lat="49.97737" lon="2.28677">
        <ele>91</ele>
        <time>2022-12-28T13:17:09Z</time>
      </trkpt>
      <trkpt lat="49.97738" lon="2.28676">
        <ele>91</ele>
        <time>2022-12-28T13:17:10Z</time>
      </trkpt>
      <trkpt lat="49.97739" lon="2.28675">
        <ele>91</ele>
        <time>2022-12-28T13:17:11Z</time>
      </trkpt>
      <trkpt lat="49.9774" lon="2.28674">
        <ele>91</ele>
        <time>2022-12-28T13:17:13Z</time>
      </trkpt>
      <trkpt lat="49.97741" lon="2.28673">
        <ele>91.1</ele>
        <time>2022-12-28T13:17:14Z</time>
      </trkpt>
      <trkpt lat="49.97742" lon="2.28671">
        <ele>91.1</ele>
        <time>2022-12-28T13:17:15Z</time>
      </trkpt>
      <trkpt lat="49.97743" lon="2.2867">
        <ele>91.1</ele>
        <time>2022-12-28T13:17:16Z</time>
      </trkpt>
      <trkpt lat="49.97743" lon="2.28669">
        <ele>91.1</ele>
        <time>2022-12-28T13:17:17Z</time>
      </trkpt>
      <trkpt lat="49.97745" lon="2.28667">
        <ele>91.2</ele>
        <time>2022-12-28T13:17:18Z</time>
      </trkpt>
      <trkpt lat="49.97746" lon="2.28666">
        <ele>91.2</ele>
        <time>2022-12-28T13:17:20Z</time>
      </trkpt>
      <trkpt lat="49.97746" lon="2.28665">
        <ele>91.2</ele>
        <time>2022-12-28T13:17:21Z</time>
      </trkpt>
      <trkpt lat="49.97747" lon="2.28664">
        <ele>91.3</ele>
        <time>2022-12-28T13:17:22Z</time>
      </trkpt>
      <trkpt lat="49.97748" lon="2.28662">
        <ele>91.3</ele>
        <time>2022-12-28T13:17:23Z</time>
      </trkpt>
      <trkpt lat="49.97749" lon="2.28661">
        <ele>91.3</ele>
        <time>2022-12-28T13:17:24Z</time>
      </trkpt>
      <trkpt lat="49.97751" lon="2.28659">
        <ele>91.4</ele>
        <time>2022-12-28T13:17:25Z</time>
      </trkpt>
      <trkpt lat="49.97751" lon="2.28658">
        <ele>91.4</ele>
        <time>2022-12-28T13:17:27Z</time>
      </trkpt>
      <trkpt lat="49.97752" lon="2.28657">
        <ele>91.4</ele>
        <time>2022-12-28T13:17:28Z</time>
      </trkpt>
      <trkpt lat="49.97753" lon="2.28656">
        <ele>91.5</ele>
        <time>2022-12-28T13:17:29Z</time>
      </trkpt>
      <trkpt lat="49.97754" lon="2.28654">
        <ele>91.5</ele>
        <time>2022-12-28T13:17:30Z</time>
      </trkpt>
      <trkpt lat="49.97755" lon="2.28653">
        <ele>91.5</ele>
        <time>2022-12-28T13:17:31Z</time>
      </trkpt>
      <trkpt lat="49.97755" lon="2.28652">
        <ele>91.6</ele>
        <time>2022-12-28T13:17:32Z</time>
      </trkpt>
      <trkpt lat="49.97756" lon="2.2865">
        <ele>91.6</ele>
        <time>2022-12-28T13:17:34Z</time>
      </trkpt>
      <trkpt lat="49.97757" lon="2.28649">
        <ele>91.6</ele>
        <time>2022-12-28T13:17:35Z</time>
      </trkpt>
      <trkpt lat="49.97758" lon="2.28647">
        <ele>91.6</ele>
        <time>2022-12-28T13:17:36Z</time>
      </trkpt>
      <trkpt lat="49.97759" lon="2.28646">
        <ele>91.7</ele>
        <time>2022-12-28T13:17:37Z</time>
      </trkpt>
      <trkpt lat="49.97759" lon="2.28645">
        <ele>91.7</ele>
        <time>2022-12-28T13:17:38Z</time>
      </trkpt>
      <trkpt lat="49.9776" lon="2.28644">
        <ele>91.7</ele>
        <time>2022-12-28T13:17:39Z</time>
      </trkpt>
      <trkpt lat="49.97761" lon="2.28642">
        <ele>91.7</ele>
        <time>2022-12-28T13:17:41Z</time>
      </trkpt>
      <trkpt lat="49.97763" lon="2.2864">
        <ele>91.8</ele>
        <time>2022-12-28T13:17:42Z</time>
      </trkpt>
      <trkpt lat="49.97763" lon="2.28639">
        <ele>91.8</ele>
        <time>2022-12-28T13:17:43Z</time>
      </trkpt>
      <trkpt lat="49.97764" lon="2.28638">
        <ele>91.8</ele>
        <time>2022-12-28T13:17:44Z</time>
      </trkpt>
      <trkpt lat="49.97765" lon="2.28636">
        <ele>91.9</ele>
        <time>2022-12-28T13:17:45Z</time>
      </trkpt>
      <trkpt lat="49.97766" lon="2.28635">
        <ele>91.9</ele>
        <time>2022-12-28T13:17:46Z</time>
      </trkpt>
      <trkpt lat="49.97767" lon="2.28633">
        <ele>91.9</ele>
        <time>2022-12-28T13:17:47Z</time>
      </trkpt>
      <trkpt lat="49.97768" lon="2.28632">
        <ele>91.9</ele>
        <time>2022-12-28T13:17:49Z</time>
      </trkpt>
      <trkpt lat="49.97769" lon="2.28631">
        <ele>92</ele>
        <time>2022-12-28T13:17:50Z</time>
      </trkpt>
      <trkpt lat="49.9777" lon="2.28629">
        <ele>92</ele>
        <time>2022-12-28T13:17:51Z</time>
      </trkpt>
      <trkpt lat="49.9777" lon="2.28628">
        <ele>92</ele>
        <time>2022-12-28T13:17:52Z</time>
      </trkpt>
      <trkpt lat="49.97771" lon="2.28627">
        <ele>92</ele>
        <time>2022-12-28T13:17:53Z</time>
      </trkpt>
      <trkpt lat="49.97772" lon="2.28625">
        <ele>92.1</ele>
        <time>2022-12-28T13:17:54Z</time>
      </trkpt>
      <trkpt lat="49.97773" lon="2.28623">
        <ele>92.1</ele>
        <time>2022-12-28T13:17:55Z</time>
      </trkpt>
      <trkpt lat="49.97774" lon="2.28622">
        <ele>92.1</ele>
        <time>2022-12-28T13:17:57Z</time>
      </trkpt>
      <trkpt lat="49.97774" lon="2.28621">
        <ele>92.2</ele>
        <time>2022-12-28T13:17:58Z</time>
      </trkpt>
      <trkpt lat="49.97775" lon="2.28619">
        <ele>92.2</ele>
        <time>2022-12-28T13:17:59Z</time>
      </trkpt>
      <trkpt lat="49.97777" lon="2.28617">
        <ele>92.2</ele>
        <time>2022-12-28T13:18:00Z</time>
      </trkpt>
      <trkpt lat="49.97778" lon="2.28616">
        <ele>92.3</ele>
        <time>2022-12-28T13:18:01Z</time>
      </trkpt>
      <trkpt lat="49.97778" lon="2.28615">
        <ele>92.3</ele>
        <time>2022-12-28T13:18:02Z</time>
      </trkpt>
      <trkpt lat="49.97779" lon="2.28614">
        <ele>92.3</ele>
        <time>2022-12-28T13:18:03Z</time>
      </trkpt>
      <trkpt lat="49.9778" lon="2.28612">
        <ele>92.3</ele>
        <time>2022-12-28T13:18:05Z</time>
      </trkpt>
      <trkpt lat="49.97781" lon="2.28611">
        <ele>92.4</ele>
        <time>2022-12-28T13:18:06Z</time>
      </trkpt>
      <trkpt lat="49.97782" lon="2.2861">
        <ele>92.4</ele>
        <time>2022-12-28T13:18:07Z</time>
      </trkpt>
      <trkpt lat="49.97784" lon="2.28607">
        <ele>92.5</ele>
        <time>2022-12-28T13:18:08Z</time>
      </trkpt>
      <trkpt lat="49.97784" lon="2.28606">
        <ele>92.5</ele>
        <time>2022-12-28T13:18:09Z</time>
      </trkpt>
      <trkpt lat="49.97785" lon="2.28605">
        <ele>92.5</ele>
        <time>2022-12-28T13:18:10Z</time>
      </trkpt>
      <trkpt lat="49.97786" lon="2.28603">
        <ele>92.6</ele>
        <time>2022-12-28T13:18:12Z</time>
      </trkpt>
      <trkpt lat="49.97787" lon="2.28602">
        <ele>92.6</ele>
        <time>2022-12-28T13:18:13Z</time>
      </trkpt>
      <trkpt lat="49.97788" lon="2.28601">
        <ele>92.6</ele>
        <time>2022-12-28T13:18:14Z</time>
      </trkpt>
      <trkpt lat="49.97789" lon="2.28598">
        <ele>92.7</ele>
        <time>2022-12-28T13:18:15Z</time>
      </trkpt>
      <trkpt lat="49.97789" lon="2.28597">
        <ele>92.7</ele>
        <time>2022-12-28T13:18:16Z</time>
      </trkpt>
      <trkpt lat="49.9779" lon="2.28596">
        <ele>92.7</ele>
        <time>2022-12-28T13:18:17Z</time>
      </trkpt>
      <trkpt lat="49.97791" lon="2.28593">
        <ele>92.8</ele>
        <time>2022-12-28T13:18:18Z</time>
      </trkpt>
      <trkpt lat="49.97792" lon="2.28592">
        <ele>92.8</ele>
        <time>2022-12-28T13:18:20Z</time>
      </trkpt>
      <trkpt lat="49.97792" lon="2.28591">
        <ele>92.9</ele>
        <time>2022-12-28T13:18:21Z</time>
      </trkpt>
      <trkpt lat="49.97793" lon="2.2859">
        <ele>92.9</ele>
        <time>2022-12-28T13:18:22Z</time>
      </trkpt>
      <trkpt lat="49.97794" lon="2.28588">
        <ele>92.9</ele>
        <time>2022-12-28T13:18:23Z</time>
      </trkpt>
      <trkpt lat="49.97794" lon="2.28587">
        <ele>92.9</ele>
        <time>2022-12-28T13:18:24Z</time>
      </trkpt>
      <trkpt lat="49.97796" lon="2.28584">
        <ele>93</ele>
        <time>2022-12-28T13:18:25Z</time>
      </trkpt>
      <trkpt lat="49.97797" lon="2.28583">
        <ele>93</ele>
        <time>2022-12-28T13:18:26Z</time>
      </trkpt>
      <trkpt lat="49.97797" lon="2.28582">
        <ele>93.1</ele>
        <time>2022-12-28T13:18:28Z</time>
      </trkpt>
      <trkpt lat="49.97798" lon="2.28581">
        <ele>93.1</ele>
        <time>2022-12-28T13:18:29Z</time>
      </trkpt>
      <trkpt lat="49.97798" lon="2.2858">
        <ele>93.1</ele>
        <time>2022-12-28T13:18:30Z</time>
      </trkpt>
      <trkpt lat="49.97799" lon="2.28579">
        <ele>93.2</ele>
        <time>2022-12-28T13:18:31Z</time>
      </trkpt>
      <trkpt lat="49.978" lon="2.28578">
        <ele>93.2</ele>
        <time>2022-12-28T13:18:32Z</time>
      </trkpt>
      <trkpt lat="49.978" lon="2.28577">
        <ele>93.2</ele>
        <time>2022-12-28T13:18:33Z</time>
      </trkpt>
      <trkpt lat="49.97801" lon="2.28576">
        <ele>93.3</ele>
        <time>2022-12-28T13:18:34Z</time>
      </trkpt>
      <trkpt lat="49.97802" lon="2.28574">
        <ele>93.3</ele>
        <time>2022-12-28T13:18:36Z</time>
      </trkpt>
      <trkpt lat="49.97803" lon="2.28573">
        <ele>93.3</ele>
        <time>2022-12-28T13:18:37Z</time>
      </trkpt>
      <trkpt lat="49.97803" lon="2.28572">
        <ele>93.4</ele>
        <time>2022-12-28T13:18:38Z</time>
      </trkpt>
      <trkpt lat="49.97804" lon="2.2857">
        <ele>93.4</ele>
        <time>2022-12-28T13:18:39Z</time>
      </trkpt>
      <trkpt lat="49.97805" lon="2.28569">
        <ele>93.5</ele>
        <time>2022-12-28T13:18:40Z</time>
      </trkpt>
      <trkpt lat="49.97805" lon="2.28568">
        <ele>93.5</ele>
        <time>2022-12-28T13:18:41Z</time>
      </trkpt>
      <trkpt lat="49.97806" lon="2.28566">
        <ele>93.5</ele>
        <time>2022-12-28T13:18:43Z</time>
      </trkpt>
      <trkpt lat="49.97807" lon="2.28565">
        <ele>93.6</ele>
        <time>2022-12-28T13:18:44Z</time>
      </trkpt>
      <trkpt lat="49.97807" lon="2.28564">
        <ele>93.6</ele>
        <time>2022-12-28T13:18:45Z</time>
      </trkpt>
      <trkpt lat="49.97808" lon="2.28562">
        <ele>93.7</ele>
        <time>2022-12-28T13:18:46Z</time>
      </trkpt>
      <trkpt lat="49.97809" lon="2.28561">
        <ele>93.7</ele>
        <time>2022-12-28T13:18:47Z</time>
      </trkpt>
      <trkpt lat="49.97809" lon="2.28559">
        <ele>93.7</ele>
        <time>2022-12-28T13:18:48Z</time>
      </trkpt>
      <trkpt lat="49.9781" lon="2.28558">
        <ele>93.8</ele>
        <time>2022-12-28T13:18:50Z</time>
      </trkpt>
      <trkpt lat="49.97812" lon="2.28556">
        <ele>93.8</ele>
        <time>2022-12-28T13:18:51Z</time>
      </trkpt>
      <trkpt lat="49.97812" lon="2.28555">
        <ele>93.9</ele>
        <time>2022-12-28T13:18:52Z</time>
      </trkpt>
      <trkpt lat="49.97813" lon="2.28554">
        <ele>93.9</ele>
        <time>2022-12-28T13:18:53Z</time>
      </trkpt>
      <trkpt lat="49.97814" lon="2.28553">
        <ele>93.9</ele>
        <time>2022-12-28T13:18:54Z</time>
      </trkpt>
      <trkpt lat="49.97815" lon="2.28552">
        <ele>94</ele>
        <time>2022-12-28T13:18:55Z</time>
      </trkpt>
      <trkpt lat="49.97816" lon="2.2855">
        <ele>94</ele>
        <time>2022-12-28T13:18:56Z</time>
      </trkpt>
      <trkpt lat="49.97817" lon="2.28549">
        <ele>94.1</ele>
        <time>2022-12-28T13:18:58Z</time>
      </trkpt>
      <trkpt lat="49.97818" lon="2.28546">
        <ele>94.1</ele>
        <time>2022-12-28T13:18:59Z</time>
      </trkpt>
      <trkpt lat="49.97818" lon="2.28545">
        <ele>94.1</ele>
        <time>2022-12-28T13:19:00Z</time>
      </trkpt>
      <trkpt lat="49.97819" lon="2.28544">
        <ele>94.2</ele>
        <time>2022-12-28T13:19:01Z</time>
      </trkpt>
      <trkpt lat="49.9782" lon="2.28542">
        <ele>94.2</ele>
        <time>2022-12-28T13:19:02Z</time>
      </trkpt>
      <trkpt lat="49.97821" lon="2.2854">
        <ele>94.2</ele>
        <time>2022-12-28T13:19:03Z</time>
      </trkpt>
      <trkpt lat="49.97821" lon="2.28539">
        <ele>94.3</ele>
        <time>2022-12-28T13:19:05Z</time>
      </trkpt>
      <trkpt lat="49.97822" lon="2.28538">
        <ele>94.3</ele>
        <time>2022-12-28T13:19:06Z</time>
      </trkpt>
      <trkpt lat="49.97823" lon="2.28537">
        <ele>94.3</ele>
        <time>2022-12-28T13:19:07Z</time>
      </trkpt>
      <trkpt lat="49.97823" lon="2.28535">
        <ele>94.4</ele>
        <time>2022-12-28T13:19:08Z</time>
      </trkpt>
      <trkpt lat="49.97824" lon="2.28534">
        <ele>94.4</ele>
        <time>2022-12-28T13:19:09Z</time>
      </trkpt>
      <trkpt lat="49.97825" lon="2.28533">
        <ele>94.4</ele>
        <time>2022-12-28T13:19:10Z</time>
      </trkpt>
      <trkpt lat="49.97826" lon="2.28531">
        <ele>94.5</ele>
        <time>2022-12-28T13:19:12Z</time>
      </trkpt>
      <trkpt lat="49.97827" lon="2.28529">
        <ele>94.5</ele>
        <time>2022-12-28T13:19:13Z</time>
      </trkpt>
      <trkpt lat="49.97828" lon="2.28528">
        <ele>94.5</ele>
        <time>2022-12-28T13:19:14Z</time>
      </trkpt>
      <trkpt lat="49.97828" lon="2.28527">
        <ele>94.6</ele>
        <time>2022-12-28T13:19:15Z</time>
      </trkpt>
      <trkpt lat="49.9783" lon="2.28524">
        <ele>94.6</ele>
        <time>2022-12-28T13:19:16Z</time>
      </trkpt>
      <trkpt lat="49.9783" lon="2.28523">
        <ele>94.7</ele>
        <time>2022-12-28T13:19:17Z</time>
      </trkpt>
      <trkpt lat="49.97831" lon="2.28523">
        <ele>94.7</ele>
        <time>2022-12-28T13:19:18Z</time>
      </trkpt>
      <trkpt lat="49.97832" lon="2.28521">
        <ele>94.7</ele>
        <time>2022-12-28T13:19:20Z</time>
      </trkpt>
      <trkpt lat="49.97833" lon="2.28519">
        <ele>94.8</ele>
        <time>2022-12-28T13:19:21Z</time>
      </trkpt>
      <trkpt lat="49.97834" lon="2.28518">
        <ele>94.8</ele>
        <time>2022-12-28T13:19:22Z</time>
      </trkpt>
      <trkpt lat="49.97835" lon="2.28517">
        <ele>94.8</ele>
        <time>2022-12-28T13:19:23Z</time>
      </trkpt>
      <trkpt lat="49.97836" lon="2.28515">
        <ele>94.9</ele>
        <time>2022-12-28T13:19:24Z</time>
      </trkpt>
      <trkpt lat="49.97836" lon="2.28514">
        <ele>94.9</ele>
        <time>2022-12-28T13:19:25Z</time>
      </trkpt>
      <trkpt lat="49.97838" lon="2.28512">
        <ele>95</ele>
        <time>2022-12-28T13:19:26Z</time>
      </trkpt>
      <trkpt lat="49.97839" lon="2.28509">
        <ele>95</ele>
        <time>2022-12-28T13:19:28Z</time>
      </trkpt>
      <trkpt lat="49.9784" lon="2.28508">
        <ele>95.1</ele>
        <time>2022-12-28T13:19:29Z</time>
      </trkpt>
      <trkpt lat="49.97841" lon="2.28507">
        <ele>95.1</ele>
        <time>2022-12-28T13:19:30Z</time>
      </trkpt>
      <trkpt lat="49.97843" lon="2.28504">
        <ele>95.2</ele>
        <time>2022-12-28T13:19:31Z</time>
      </trkpt>
      <trkpt lat="49.97843" lon="2.28504">
        <ele>95.2</ele>
        <time>2022-12-28T13:19:32Z</time>
      </trkpt>
      <trkpt lat="49.97843" lon="2.28503">
        <ele>95.2</ele>
        <time>2022-12-28T13:19:33Z</time>
      </trkpt>
      <trkpt lat="49.97845" lon="2.28501">
        <ele>95.3</ele>
        <time>2022-12-28T13:19:35Z</time>
      </trkpt>
      <trkpt lat="49.97845" lon="2.285">
        <ele>95.4</ele>
        <time>2022-12-28T13:19:36Z</time>
      </trkpt>
      <trkpt lat="49.97846" lon="2.28498">
        <ele>95.4</ele>
        <time>2022-12-28T13:19:37Z</time>
      </trkpt>
      <trkpt lat="49.97847" lon="2.28497">
        <ele>95.5</ele>
        <time>2022-12-28T13:19:39Z</time>
      </trkpt>
      <trkpt lat="49.97848" lon="2.28496">
        <ele>95.5</ele>
        <time>2022-12-28T13:19:40Z</time>
      </trkpt>
      <trkpt lat="49.97849" lon="2.28494">
        <ele>95.6</ele>
        <time>2022-12-28T13:19:41Z</time>
      </trkpt>
      <trkpt lat="49.97849" lon="2.28493">
        <ele>95.6</ele>
        <time>2022-12-28T13:19:42Z</time>
      </trkpt>
      <trkpt lat="49.9785" lon="2.28492">
        <ele>95.6</ele>
        <time>2022-12-28T13:19:43Z</time>
      </trkpt>
      <trkpt lat="49.97851" lon="2.2849">
        <ele>95.7</ele>
        <time>2022-12-28T13:19:44Z</time>
      </trkpt>
      <trkpt lat="49.97852" lon="2.28489">
        <ele>95.7</ele>
        <time>2022-12-28T13:19:45Z</time>
      </trkpt>
      <trkpt lat="49.97853" lon="2.28488">
        <ele>95.8</ele>
        <time>2022-12-28T13:19:47Z</time>
      </trkpt>
      <trkpt lat="49.97853" lon="2.28487">
        <ele>95.8</ele>
        <time>2022-12-28T13:19:48Z</time>
      </trkpt>
      <trkpt lat="49.97854" lon="2.28485">
        <ele>95.9</ele>
        <time>2022-12-28T13:19:49Z</time>
      </trkpt>
      <trkpt lat="49.97855" lon="2.28484">
        <ele>95.9</ele>
        <time>2022-12-28T13:19:50Z</time>
      </trkpt>
      <trkpt lat="49.97856" lon="2.28482">
        <ele>96</ele>
        <time>2022-12-28T13:19:51Z</time>
      </trkpt>
      <trkpt lat="49.97857" lon="2.28481">
        <ele>96</ele>
        <time>2022-12-28T13:19:52Z</time>
      </trkpt>
      <trkpt lat="49.97858" lon="2.2848">
        <ele>96.1</ele>
        <time>2022-12-28T13:19:54Z</time>
      </trkpt>
      <trkpt lat="49.97859" lon="2.28478">
        <ele>96.2</ele>
        <time>2022-12-28T13:19:55Z</time>
      </trkpt>
      <trkpt lat="49.9786" lon="2.28477">
        <ele>96.2</ele>
        <time>2022-12-28T13:19:56Z</time>
      </trkpt>
      <trkpt lat="49.9786" lon="2.28476">
        <ele>96.3</ele>
        <time>2022-12-28T13:19:57Z</time>
      </trkpt>
      <trkpt lat="49.97861" lon="2.28474">
        <ele>96.3</ele>
        <time>2022-12-28T13:19:58Z</time>
      </trkpt>
      <trkpt lat="49.97862" lon="2.28473">
        <ele>96.4</ele>
        <time>2022-12-28T13:19:59Z</time>
      </trkpt>
      <trkpt lat="49.97863" lon="2.28471">
        <ele>96.4</ele>
        <time>2022-12-28T13:20:01Z</time>
      </trkpt>
      <trkpt lat="49.97864" lon="2.28469">
        <ele>96.5</ele>
        <time>2022-12-28T13:20:02Z</time>
      </trkpt>
      <trkpt lat="49.97864" lon="2.28468">
        <ele>96.5</ele>
        <time>2022-12-28T13:20:03Z</time>
      </trkpt>
      <trkpt lat="49.97865" lon="2.28467">
        <ele>96.5</ele>
        <time>2022-12-28T13:20:04Z</time>
      </trkpt>
      <trkpt lat="49.97865" lon="2.28465">
        <ele>96.6</ele>
        <time>2022-12-28T13:20:05Z</time>
      </trkpt>
      <trkpt lat="49.97866" lon="2.28464">
        <ele>96.6</ele>
        <time>2022-12-28T13:20:07Z</time>
      </trkpt>
      <trkpt lat="49.97867" lon="2.28463">
        <ele>96.7</ele>
        <time>2022-12-28T13:20:08Z</time>
      </trkpt>
      <trkpt lat="49.97868" lon="2.2846">
        <ele>96.7</ele>
        <time>2022-12-28T13:20:09Z</time>
      </trkpt>
      <trkpt lat="49.97868" lon="2.28459">
        <ele>96.8</ele>
        <time>2022-12-28T13:20:10Z</time>
      </trkpt>
      <trkpt lat="49.97869" lon="2.28457">
        <ele>96.8</ele>
        <time>2022-12-28T13:20:11Z</time>
      </trkpt>
      <trkpt lat="49.97869" lon="2.28456">
        <ele>96.8</ele>
        <time>2022-12-28T13:20:12Z</time>
      </trkpt>
      <trkpt lat="49.9787" lon="2.28455">
        <ele>96.9</ele>
        <time>2022-12-28T13:20:14Z</time>
      </trkpt>
      <trkpt lat="49.97871" lon="2.28453">
        <ele>96.9</ele>
        <time>2022-12-28T13:20:15Z</time>
      </trkpt>
      <trkpt lat="49.97872" lon="2.28451">
        <ele>97</ele>
        <time>2022-12-28T13:20:16Z</time>
      </trkpt>
      <trkpt lat="49.97872" lon="2.28451">
        <ele>97</ele>
        <time>2022-12-28T13:20:17Z</time>
      </trkpt>
      <trkpt lat="49.97873" lon="2.2845">
        <ele>97.1</ele>
        <time>2022-12-28T13:20:18Z</time>
      </trkpt>
      <trkpt lat="49.97875" lon="2.28448">
        <ele>97.1</ele>
        <time>2022-12-28T13:20:19Z</time>
      </trkpt>
      <trkpt lat="49.97876" lon="2.28447">
        <ele>97.2</ele>
        <time>2022-12-28T13:20:21Z</time>
      </trkpt>
      <trkpt lat="49.97877" lon="2.28446">
        <ele>97.2</ele>
        <time>2022-12-28T13:20:22Z</time>
      </trkpt>
      <trkpt lat="49.97878" lon="2.28445">
        <ele>97.3</ele>
        <time>2022-12-28T13:20:23Z</time>
      </trkpt>
      <trkpt lat="49.97879" lon="2.28444">
        <ele>97.3</ele>
        <time>2022-12-28T13:20:24Z</time>
      </trkpt>
      <trkpt lat="49.9788" lon="2.28441">
        <ele>97.4</ele>
        <time>2022-12-28T13:20:25Z</time>
      </trkpt>
      <trkpt lat="49.97881" lon="2.2844">
        <ele>97.4</ele>
        <time>2022-12-28T13:20:27Z</time>
      </trkpt>
      <trkpt lat="49.97882" lon="2.28439">
        <ele>97.5</ele>
        <time>2022-12-28T13:20:28Z</time>
      </trkpt>
      <trkpt lat="49.97883" lon="2.28438">
        <ele>97.5</ele>
        <time>2022-12-28T13:20:29Z</time>
      </trkpt>
      <trkpt lat="49.97883" lon="2.28437">
        <ele>97.5</ele>
        <time>2022-12-28T13:20:30Z</time>
      </trkpt>
      <trkpt lat="49.97885" lon="2.28435">
        <ele>97.6</ele>
        <time>2022-12-28T13:20:31Z</time>
      </trkpt>
      <trkpt lat="49.97885" lon="2.28434">
        <ele>97.6</ele>
        <time>2022-12-28T13:20:32Z</time>
      </trkpt>
      <trkpt lat="49.97886" lon="2.28433">
        <ele>97.7</ele>
        <time>2022-12-28T13:20:34Z</time>
      </trkpt>
      <trkpt lat="49.97887" lon="2.28431">
        <ele>97.7</ele>
        <time>2022-12-28T13:20:35Z</time>
      </trkpt>
      <trkpt lat="49.97887" lon="2.28431">
        <ele>97.8</ele>
        <time>2022-12-28T13:20:36Z</time>
      </trkpt>
      <trkpt lat="49.97888" lon="2.28429">
        <ele>97.8</ele>
        <time>2022-12-28T13:20:37Z</time>
      </trkpt>
      <trkpt lat="49.97888" lon="2.28428">
        <ele>97.9</ele>
        <time>2022-12-28T13:20:38Z</time>
      </trkpt>
      <trkpt lat="49.97889" lon="2.28426">
        <ele>97.9</ele>
        <time>2022-12-28T13:20:39Z</time>
      </trkpt>
      <trkpt lat="49.97889" lon="2.28425">
        <ele>97.9</ele>
        <time>2022-12-28T13:20:40Z</time>
      </trkpt>
      <trkpt lat="49.9789" lon="2.28423">
        <ele>98</ele>
        <time>2022-12-28T13:20:41Z</time>
      </trkpt>
      <trkpt lat="49.97891" lon="2.28422">
        <ele>98.1</ele>
        <time>2022-12-28T13:20:43Z</time>
      </trkpt>
      <trkpt lat="49.97891" lon="2.28421">
        <ele>98.1</ele>
        <time>2022-12-28T13:20:44Z</time>
      </trkpt>
      <trkpt lat="49.97892" lon="2.28419">
        <ele>98.1</ele>
        <time>2022-12-28T13:20:45Z</time>
      </trkpt>
      <trkpt lat="49.97893" lon="2.28418">
        <ele>98.2</ele>
        <time>2022-12-28T13:20:46Z</time>
      </trkpt>
      <trkpt lat="49.97893" lon="2.28417">
        <ele>98.3</ele>
        <time>2022-12-28T13:20:47Z</time>
      </trkpt>
      <trkpt lat="49.97894" lon="2.28415">
        <ele>98.3</ele>
        <time>2022-12-28T13:20:49Z</time>
      </trkpt>
      <trkpt lat="49.97895" lon="2.28414">
        <ele>98.4</ele>
        <time>2022-12-28T13:20:50Z</time>
      </trkpt>
      <trkpt lat="49.97896" lon="2.28413">
        <ele>98.4</ele>
        <time>2022-12-28T13:20:51Z</time>
      </trkpt>
      <trkpt lat="49.97897" lon="2.28411">
        <ele>98.5</ele>
        <time>2022-12-28T13:20:52Z</time>
      </trkpt>
      <trkpt lat="49.97898" lon="2.2841">
        <ele>98.6</ele>
        <time>2022-12-28T13:20:53Z</time>
      </trkpt>
      <trkpt lat="49.97899" lon="2.28408">
        <ele>98.7</ele>
        <time>2022-12-28T13:20:54Z</time>
      </trkpt>
      <trkpt lat="49.97899" lon="2.28407">
        <ele>98.7</ele>
        <time>2022-12-28T13:20:56Z</time>
      </trkpt>
      <trkpt lat="49.979" lon="2.28406">
        <ele>98.8</ele>
        <time>2022-12-28T13:20:57Z</time>
      </trkpt>
      <trkpt lat="49.97901" lon="2.28405">
        <ele>98.8</ele>
        <time>2022-12-28T13:20:58Z</time>
      </trkpt>
      <trkpt lat="49.97902" lon="2.28404">
        <ele>98.9</ele>
        <time>2022-12-28T13:20:59Z</time>
      </trkpt>
      <trkpt lat="49.97902" lon="2.28403">
        <ele>98.9</ele>
        <time>2022-12-28T13:21:00Z</time>
      </trkpt>
      <trkpt lat="49.97904" lon="2.284">
        <ele>99</ele>
        <time>2022-12-28T13:21:01Z</time>
      </trkpt>
      <trkpt lat="49.97905" lon="2.284">
        <ele>99.1</ele>
        <time>2022-12-28T13:21:03Z</time>
      </trkpt>
      <trkpt lat="49.97905" lon="2.28399">
        <ele>99.1</ele>
        <time>2022-12-28T13:21:04Z</time>
      </trkpt>
      <trkpt lat="49.97905" lon="2.28398">
        <ele>99.2</ele>
        <time>2022-12-28T13:21:05Z</time>
      </trkpt>
      <trkpt lat="49.97906" lon="2.28397">
        <ele>99.2</ele>
        <time>2022-12-28T13:21:06Z</time>
      </trkpt>
      <trkpt lat="49.97907" lon="2.28395">
        <ele>99.2</ele>
        <time>2022-12-28T13:21:07Z</time>
      </trkpt>
      <trkpt lat="49.97907" lon="2.28394">
        <ele>99.3</ele>
        <time>2022-12-28T13:21:08Z</time>
      </trkpt>
      <trkpt lat="49.97908" lon="2.28393">
        <ele>99.3</ele>
        <time>2022-12-28T13:21:10Z</time>
      </trkpt>
      <trkpt lat="49.97909" lon="2.28392">
        <ele>99.3</ele>
        <time>2022-12-28T13:21:11Z</time>
      </trkpt>
      <trkpt lat="49.97909" lon="2.2839">
        <ele>99.4</ele>
        <time>2022-12-28T13:21:12Z</time>
      </trkpt>
      <trkpt lat="49.9791" lon="2.28389">
        <ele>99.4</ele>
        <time>2022-12-28T13:21:14Z</time>
      </trkpt>
      <trkpt lat="49.97911" lon="2.28388">
        <ele>99.4</ele>
        <time>2022-12-28T13:21:15Z</time>
      </trkpt>
      <trkpt lat="49.97911" lon="2.28387">
        <ele>99.4</ele>
        <time>2022-12-28T13:21:16Z</time>
      </trkpt>
      <trkpt lat="49.97912" lon="2.28387">
        <ele>99.5</ele>
        <time>2022-12-28T13:21:17Z</time>
      </trkpt>
      <trkpt lat="49.97913" lon="2.28386">
        <ele>99.5</ele>
        <time>2022-12-28T13:21:18Z</time>
      </trkpt>
      <trkpt lat="49.97913" lon="2.28386">
        <ele>99.5</ele>
        <time>2022-12-28T13:21:19Z</time>
      </trkpt>
      <trkpt lat="49.97913" lon="2.28385">
        <ele>99.5</ele>
        <time>2022-12-28T13:21:20Z</time>
      </trkpt>
      <trkpt lat="49.97914" lon="2.28384">
        <ele>99.6</ele>
        <time>2022-12-28T13:21:22Z</time>
      </trkpt>
      <trkpt lat="49.97914" lon="2.28383">
        <ele>99.6</ele>
        <time>2022-12-28T13:21:23Z</time>
      </trkpt>
      <trkpt lat="49.97914" lon="2.28383">
        <ele>99.6</ele>
        <time>2022-12-28T13:21:24Z</time>
      </trkpt>
      <trkpt lat="49.97914" lon="2.28383">
        <ele>99.6</ele>
        <time>2022-12-28T13:21:26Z</time>
      </trkpt>
      <trkpt lat="49.97913" lon="2.28383">
        <ele>99.6</ele>
        <time>2022-12-28T13:21:27Z</time>
      </trkpt>
      <trkpt lat="49.97913" lon="2.28383">
        <ele>99.6</ele>
        <time>2022-12-28T13:21:28Z</time>
      </trkpt>
      <trkpt lat="49.97913" lon="2.28384">
        <ele>99.6</ele>
        <time>2022-12-28T13:21:30Z</time>
      </trkpt>
      <trkpt lat="49.97913" lon="2.28384">
        <ele>99.6</ele>
        <time>2022-12-28T13:21:31Z</time>
      </trkpt>
      <trkpt lat="49.97913" lon="2.28385">
        <ele>99.7</ele>
        <time>2022-12-28T13:21:33Z</time>
      </trkpt>
      <trkpt lat="49.97913" lon="2.28385">
        <ele>99.7</ele>
        <time>2022-12-28T13:21:34Z</time>
      </trkpt>
      <trkpt lat="49.97912" lon="2.28386">
        <ele>99.7</ele>
        <time>2022-12-28T13:21:36Z</time>
      </trkpt>
      <trkpt lat="49.97912" lon="2.28386">
        <ele>99.7</ele>
        <time>2022-12-28T13:21:37Z</time>
      </trkpt>
      <trkpt lat="49.97912" lon="2.28386">
        <ele>99.7</ele>
        <time>2022-12-28T13:21:39Z</time>
      </trkpt>
      <trkpt lat="49.97912" lon="2.28386">
        <ele>99.7</ele>
        <time>2022-12-28T13:21:40Z</time>
      </trkpt>
      <trkpt lat="49.97912" lon="2.28387">
        <ele>99.7</ele>
        <time>2022-12-28T13:21:41Z</time>
      </trkpt>
      <trkpt lat="49.97912" lon="2.28387">
        <ele>99.7</ele>
        <time>2022-12-28T13:21:42Z</time>
      </trkpt>
      <trkpt lat="49.97912" lon="2.28387">
        <ele>99.7</ele>
        <time>2022-12-28T13:21:43Z</time>
      </trkpt>
      <trkpt lat="49.97912" lon="2.28387">
        <ele>99.7</ele>
        <time>2022-12-28T13:21:44Z</time>
      </trkpt>
      <trkpt lat="49.97912" lon="2.28387">
        <ele>99.7</ele>
        <time>2022-12-28T13:21:45Z</time>
      </trkpt>
      <trkpt lat="49.97912" lon="2.28387">
        <ele>99.7</ele>
        <time>2022-12-28T13:21:46Z</time>
      </trkpt>
      <trkpt lat="49.97912" lon="2.28387">
        <ele>99.7</ele>
        <time>2022-12-28T13:21:47Z</time>
      </trkpt>
      <trkpt lat="49.97912" lon="2.28387">
        <ele>99.7</ele>
        <time>2022-12-28T13:21:48Z</time>
      </trkpt>
      <trkpt lat="49.97912" lon="2.28387">
        <ele>99.7</ele>
        <time>2022-12-28T13:21:49Z</time>
      </trkpt>
      <trkpt lat="49.97912" lon="2.28387">
        <ele>99.7</ele>
        <time>2022-12-28T13:21:50Z</time>
      </trkpt>
      <trkpt lat="49.97912" lon="2.28387">
        <ele>99.7</ele>
        <time>2022-12-28T13:21:51Z</time>
      </trkpt>
      <trkpt lat="49.97912" lon="2.28387">
        <ele>99.7</ele>
        <time>2022-12-28T13:21:52Z</time>
      </trkpt>
      <trkpt lat="49.97912" lon="2.28387">
        <ele>99.7</ele>
        <time>2022-12-28T13:21:53Z</time>
      </trkpt>
      <trkpt lat="49.97912" lon="2.28387">
        <ele>99.7</ele>
        <time>2022-12-28T13:21:54Z</time>
      </trkpt>
      <trkpt lat="49.97912" lon="2.28387">
        <ele>99.7</ele>
        <time>2022-12-28T13:21:55Z</time>
      </trkpt>
      <trkpt lat="49.97912" lon="2.28387">
        <ele>99.7</ele>
        <time>2022-12-28T13:21:56Z</time>
      </trkpt>
      <trkpt lat="49.97912" lon="2.28387">
        <ele>99.7</ele>
        <time>2022-12-28T13:21:57Z</time>
      </trkpt>
      <trkpt lat="49.97912" lon="2.28387">
        <ele>99.7</ele>
        <time>2022-12-28T13:21:58Z</time>
      </trkpt>
      <trkpt lat="49.97912" lon="2.28387">
        <ele>99.7</ele>
        <time>2022-12-28T13:21:59Z</time>
      </trkpt>
      <trkpt lat="49.97912" lon="2.28387">
        <ele>99.7</ele>
        <time>2022-12-28T13:22:00Z</time>
      </trkpt>
      <trkpt lat="49.97912" lon="2.28387">
        <ele>99.7</ele>
        <time>2022-12-28T13:22:01Z</time>
      </trkpt>
      <trkpt lat="49.97912" lon="2.28387">
        <ele>99.7</ele>
        <time>2022-12-28T13:22:02Z</time>
      </trkpt>
      <trkpt lat="49.97912" lon="2.28387">
        <ele>99.7</ele>
        <time>2022-12-28T13:22:03Z</time>
      </trkpt>
      <trkpt lat="49.97912" lon="2.28387">
        <ele>99.7</ele>
        <time>2022-12-28T13:22:04Z</time>
      </trkpt>
      <trkpt lat="49.97912" lon="2.28387">
        <ele>99.7</ele>
        <time>2022-12-28T13:22:05Z</time>
      </trkpt>
      <trkpt lat="49.97912" lon="2.28387">
        <ele>99.7</ele>
        <time>2022-12-28T13:22:06Z</time>
      </trkpt>
      <trkpt lat="49.97912" lon="2.28387">
        <ele>99.7</ele>
        <time>2022-12-28T13:22:07Z</time>
      </trkpt>
      <trkpt lat="49.97912" lon="2.28387">
        <ele>99.7</ele>
        <time>2022-12-28T13:22:08Z</time>
      </trkpt>
      <trkpt lat="49.97912" lon="2.28387">
        <ele>99.7</ele>
        <time>2022-12-28T13:22:09Z</time>
      </trkpt>
      <trkpt lat="49.97912" lon="2.28387">
        <ele>99.7</ele>
        <time>2022-12-28T13:22:10Z</time>
      </trkpt>
      <trkpt lat="49.97912" lon="2.28387">
        <ele>99.7</ele>
        <time>2022-12-28T13:22:11Z</time>
      </trkpt>
      <trkpt lat="49.97912" lon="2.28387">
        <ele>99.7</ele>
        <time>2022-12-28T13:22:12Z</time>
      </trkpt>
      <trkpt lat="49.97912" lon="2.28387">
        <ele>99.7</ele>
        <time>2022-12-28T13:22:13Z</time>
      </trkpt>
      <trkpt lat="49.97912" lon="2.28387">
        <ele>99.7</ele>
        <time>2022-12-28T13:22:14Z</time>
      </trkpt>
      <trkpt lat="49.97912" lon="2.28387">
        <ele>99.7</ele>
        <time>2022-12-28T13:22:15Z</time>
      </trkpt>
      <trkpt lat="49.97912" lon="2.28387">
        <ele>99.7</ele>
        <time>2022-12-28T13:22:16Z</time>
      </trkpt>
      <trkpt lat="49.97912" lon="2.28387">
        <ele>99.7</ele>
        <time>2022-12-28T13:22:17Z</time>
      </trkpt>
      <trkpt lat="49.97912" lon="2.28387">
        <ele>99.7</ele>
        <time>2022-12-28T13:22:18Z</time>
      </trkpt>
      <trkpt lat="49.97912" lon="2.28387">
        <ele>99.7</ele>
        <time>2022-12-28T13:22:19Z</time>
      </trkpt>
      <trkpt lat="49.97912" lon="2.28387">
        <ele>99.7</ele>
        <time>2022-12-28T13:22:20Z</time>
      </trkpt>
      <trkpt lat="49.97912" lon="2.28387">
        <ele>99.7</ele>
        <time>2022-12-28T13:22:21Z</time>
      </trkpt>
      <trkpt lat="49.97912" lon="2.28387">
        <ele>99.7</ele>
        <time>2022-12-28T13:22:22Z</time>
      </trkpt>
      <trkpt lat="49.97912" lon="2.28387">
        <ele>99.7</ele>
        <time>2022-12-28T13:22:23Z</time>
      </trkpt>
      <trkpt lat="49.97912" lon="2.28387">
        <ele>99.7</ele>
        <time>2022-12-28T13:22:24Z</time>
      </trkpt>
      <trkpt lat="49.97912" lon="2.28387">
        <ele>99.7</ele>
        <time>2022-12-28T13:22:25Z</time>
      </trkpt>
      <trkpt lat="49.97912" lon="2.28387">
        <ele>99.7</ele>
        <time>2022-12-28T13:22:26Z</time>
      </trkpt>
      <trkpt lat="49.97912" lon="2.28387">
        <ele>99.7</ele>
        <time>2022-12-28T13:22:27Z</time>
      </trkpt>
      <trkpt lat="49.97912" lon="2.28387">
        <ele>99.7</ele>
        <time>2022-12-28T13:22:28Z</time>
      </trkpt>
      <trkpt lat="49.97912" lon="2.28387">
        <ele>99.7</ele>
        <time>2022-12-28T13:22:29Z</time>
      </trkpt>
      <trkpt lat="49.97912" lon="2.28387">
        <ele>99.7</ele>
        <time>2022-12-28T13:22:30Z</time>
      </trkpt>
      <trkpt lat="49.97912" lon="2.28387">
        <ele>99.7</ele>
        <time>2022-12-28T13:22:31Z</time>
      </trkpt>
      <trkpt lat="49.97912" lon="2.28387">
        <ele>99.7</ele>
        <time>2022-12-28T13:22:32Z</time>
      </trkpt>
      <trkpt lat="49.97912" lon="2.28387">
        <ele>99.7</ele>
        <time>2022-12-28T13:22:33Z</time>
      </trkpt>
      <trkpt lat="49.97912" lon="2.28387">
        <ele>99.7</ele>
        <time>2022-12-28T13:22:34Z</time>
      </trkpt>
      <trkpt lat="49.97912" lon="2.28387">
        <ele>99.7</ele>
        <time>2022-12-28T13:22:35Z</time>
      </trkpt>
      <trkpt lat="49.97912" lon="2.28387">
        <ele>99.7</ele>
        <time>2022-12-28T13:22:36Z</time>
      </trkpt>
      <trkpt lat="49.97912" lon="2.28387">
        <ele>99.7</ele>
        <time>2022-12-28T13:22:37Z</time>
      </trkpt>
      <trkpt lat="49.97912" lon="2.28387">
        <ele>99.7</ele>
        <time>2022-12-28T13:22:38Z</time>
      </trkpt>
      <trkpt lat="49.9791" lon="2.2839">
        <ele>99.8</ele>
        <time>2022-12-28T13:22:39Z</time>
      </trkpt>
      <trkpt lat="49.97909" lon="2.28392">
        <ele>99.8</ele>
        <time>2022-12-28T13:22:40Z</time>
      </trkpt>
      <trkpt lat="49.97908" lon="2.28393">
        <ele>99.9</ele>
        <time>2022-12-28T13:22:41Z</time>
      </trkpt>
      <trkpt lat="49.97908" lon="2.28394">
        <ele>99.9</ele>
        <time>2022-12-28T13:22:42Z</time>
      </trkpt>
      <trkpt lat="49.97908" lon="2.28394">
        <ele>99.9</ele>
        <time>2022-12-28T13:22:43Z</time>
      </trkpt>
      <trkpt lat="49.97908" lon="2.28394">
        <ele>99.9</ele>
        <time>2022-12-28T13:22:44Z</time>
      </trkpt>
      <trkpt lat="49.97908" lon="2.28395">
        <ele>99.9</ele>
        <time>2022-12-28T13:22:45Z</time>
      </trkpt>
      <trkpt lat="49.97908" lon="2.28395">
        <ele>99.9</ele>
        <time>2022-12-28T13:22:46Z</time>
      </trkpt>
      <trkpt lat="49.97908" lon="2.28395">
        <ele>99.9</ele>
        <time>2022-12-28T13:22:47Z</time>
      </trkpt>
      <trkpt lat="49.97908" lon="2.28395">
        <ele>99.9</ele>
        <time>2022-12-28T13:22:48Z</time>
      </trkpt>
      <trkpt lat="49.97908" lon="2.28395">
        <ele>99.9</ele>
        <time>2022-12-28T13:22:49Z</time>
      </trkpt>
      <trkpt lat="49.97908" lon="2.28395">
        <ele>99.9</ele>
        <time>2022-12-28T13:22:50Z</time>
      </trkpt>
      <trkpt lat="49.97908" lon="2.28395">
        <ele>99.9</ele>
        <time>2022-12-28T13:22:51Z</time>
      </trkpt>
      <trkpt lat="49.97908" lon="2.28395">
        <ele>99.9</ele>
        <time>2022-12-28T13:22:52Z</time>
      </trkpt>
      <trkpt lat="49.97908" lon="2.28395">
        <ele>99.9</ele>
        <time>2022-12-28T13:22:53Z</time>
      </trkpt>
      <trkpt lat="49.97908" lon="2.28395">
        <ele>99.9</ele>
        <time>2022-12-28T13:22:54Z</time>
      </trkpt>
      <trkpt lat="49.97908" lon="2.28395">
        <ele>99.9</ele>
        <time>2022-12-28T13:22:55Z</time>
      </trkpt>
      <trkpt lat="49.97908" lon="2.28395">
        <ele>99.9</ele>
        <time>2022-12-28T13:22:56Z</time>
      </trkpt>
      <trkpt lat="49.97908" lon="2.28395">
        <ele>99.9</ele>
        <time>2022-12-28T13:22:57Z</time>
      </trkpt>
      <trkpt lat="49.97908" lon="2.28395">
        <ele>99.9</ele>
        <time>2022-12-28T13:22:58Z</time>
      </trkpt>
      <trkpt lat="49.97908" lon="2.28395">
        <ele>99.9</ele>
        <time>2022-12-28T13:22:59Z</time>
      </trkpt>
      <trkpt lat="49.97908" lon="2.28395">
        <ele>99.9</ele>
        <time>2022-12-28T13:23:00Z</time>
      </trkpt>
      <trkpt lat="49.97908" lon="2.28395">
        <ele>99.9</ele>
        <time>2022-12-28T13:23:01Z</time>
      </trkpt>
      <trkpt lat="49.97908" lon="2.28395">
        <ele>99.9</ele>
        <time>2022-12-28T13:23:02Z</time>
      </trkpt>
      <trkpt lat="49.97908" lon="2.28395">
        <ele>99.9</ele>
        <time>2022-12-28T13:23:03Z</time>
      </trkpt>
      <trkpt lat="49.97908" lon="2.28395">
        <ele>99.9</ele>
        <time>2022-12-28T13:23:04Z</time>
      </trkpt>
      <trkpt lat="49.97907" lon="2.28394">
        <ele>99.9</ele>
        <time>2022-12-28T13:23:05Z</time>
      </trkpt>
      <trkpt lat="49.97907" lon="2.28394">
        <ele>99.9</ele>
        <time>2022-12-28T13:23:06Z</time>
      </trkpt>
      <trkpt lat="49.97907" lon="2.28395">
        <ele>99.9</ele>
        <time>2022-12-28T13:23:07Z</time>
      </trkpt>
      <trkpt lat="49.97907" lon="2.28395">
        <ele>99.9</ele>
        <time>2022-12-28T13:23:08Z</time>
      </trkpt>
      <trkpt lat="49.97907" lon="2.28395">
        <ele>99.9</ele>
        <time>2022-12-28T13:23:09Z</time>
      </trkpt>
      <trkpt lat="49.97907" lon="2.28395">
        <ele>99.9</ele>
        <time>2022-12-28T13:23:10Z</time>
      </trkpt>
      <trkpt lat="49.97907" lon="2.28394">
        <ele>100</ele>
        <time>2022-12-28T13:23:11Z</time>
      </trkpt>
      <trkpt lat="49.97907" lon="2.28392">
        <ele>100</ele>
        <time>2022-12-28T13:23:12Z</time>
      </trkpt>
      <trkpt lat="49.97907" lon="2.28391">
        <ele>100</ele>
        <time>2022-12-28T13:23:13Z</time>
      </trkpt>
      <trkpt lat="49.97907" lon="2.28389">
        <ele>100</ele>
        <time>2022-12-28T13:23:14Z</time>
      </trkpt>
      <trkpt lat="49.97907" lon="2.28388">
        <ele>100.1</ele>
        <time>2022-12-28T13:23:15Z</time>
      </trkpt>
      <trkpt lat="49.97907" lon="2.28386">
        <ele>100.1</ele>
        <time>2022-12-28T13:23:16Z</time>
      </trkpt>
      <trkpt lat="49.97907" lon="2.28384">
        <ele>100.1</ele>
        <time>2022-12-28T13:23:17Z</time>
      </trkpt>
      <trkpt lat="49.97908" lon="2.28383">
        <ele>100.2</ele>
        <time>2022-12-28T13:23:18Z</time>
      </trkpt>
      <trkpt lat="49.97909" lon="2.28382">
        <ele>100.2</ele>
        <time>2022-12-28T13:23:20Z</time>
      </trkpt>
      <trkpt lat="49.97909" lon="2.28381">
        <ele>100.2</ele>
        <time>2022-12-28T13:23:21Z</time>
      </trkpt>
      <trkpt lat="49.9791" lon="2.2838">
        <ele>100.2</ele>
        <time>2022-12-28T13:23:22Z</time>
      </trkpt>
      <trkpt lat="49.97911" lon="2.28377">
        <ele>100.3</ele>
        <time>2022-12-28T13:23:23Z</time>
      </trkpt>
      <trkpt lat="49.97911" lon="2.28376">
        <ele>100.3</ele>
        <time>2022-12-28T13:23:24Z</time>
      </trkpt>
      <trkpt lat="49.97912" lon="2.28375">
        <ele>100.3</ele>
        <time>2022-12-28T13:23:25Z</time>
      </trkpt>
      <trkpt lat="49.97912" lon="2.28373">
        <ele>100.4</ele>
        <time>2022-12-28T13:23:27Z</time>
      </trkpt>
      <trkpt lat="49.97913" lon="2.28371">
        <ele>100.4</ele>
        <time>2022-12-28T13:23:28Z</time>
      </trkpt>
      <trkpt lat="49.97914" lon="2.28369">
        <ele>100.5</ele>
        <time>2022-12-28T13:23:29Z</time>
      </trkpt>
      <trkpt lat="49.97914" lon="2.28368">
        <ele>100.5</ele>
        <time>2022-12-28T13:23:30Z</time>
      </trkpt>
      <trkpt lat="49.97915" lon="2.28366">
        <ele>100.5</ele>
        <time>2022-12-28T13:23:31Z</time>
      </trkpt>
      <trkpt lat="49.97916" lon="2.28364">
        <ele>100.6</ele>
        <time>2022-12-28T13:23:32Z</time>
      </trkpt>
      <trkpt lat="49.97917" lon="2.28362">
        <ele>100.6</ele>
        <time>2022-12-28T13:23:34Z</time>
      </trkpt>
      <trkpt lat="49.97917" lon="2.28361">
        <ele>100.6</ele>
        <time>2022-12-28T13:23:35Z</time>
      </trkpt>
      <trkpt lat="49.97918" lon="2.28359">
        <ele>100.7</ele>
        <time>2022-12-28T13:23:36Z</time>
      </trkpt>
      <trkpt lat="49.97918" lon="2.28358">
        <ele>100.7</ele>
        <time>2022-12-28T13:23:37Z</time>
      </trkpt>
      <trkpt lat="49.9792" lon="2.28354">
        <ele>100.8</ele>
        <time>2022-12-28T13:23:38Z</time>
      </trkpt>
      <trkpt lat="49.97921" lon="2.28353">
        <ele>100.8</ele>
        <time>2022-12-28T13:23:40Z</time>
      </trkpt>
      <trkpt lat="49.97922" lon="2.28351">
        <ele>100.8</ele>
        <time>2022-12-28T13:23:41Z</time>
      </trkpt>
      <trkpt lat="49.97922" lon="2.2835">
        <ele>100.8</ele>
        <time>2022-12-28T13:23:42Z</time>
      </trkpt>
      <trkpt lat="49.97923" lon="2.28349">
        <ele>100.9</ele>
        <time>2022-12-28T13:23:43Z</time>
      </trkpt>
      <trkpt lat="49.97924" lon="2.28346">
        <ele>100.9</ele>
        <time>2022-12-28T13:23:44Z</time>
      </trkpt>
      <trkpt lat="49.97925" lon="2.28345">
        <ele>100.9</ele>
        <time>2022-12-28T13:23:45Z</time>
      </trkpt>
      <trkpt lat="49.97925" lon="2.28344">
        <ele>100.9</ele>
        <time>2022-12-28T13:23:46Z</time>
      </trkpt>
      <trkpt lat="49.97926" lon="2.28342">
        <ele>101</ele>
        <time>2022-12-28T13:23:48Z</time>
      </trkpt>
      <trkpt lat="49.97927" lon="2.28341">
        <ele>101</ele>
        <time>2022-12-28T13:23:49Z</time>
      </trkpt>
      <trkpt lat="49.97929" lon="2.28338">
        <ele>101</ele>
        <time>2022-12-28T13:23:50Z</time>
      </trkpt>
      <trkpt lat="49.97929" lon="2.28336">
        <ele>101.1</ele>
        <time>2022-12-28T13:23:51Z</time>
      </trkpt>
      <trkpt lat="49.9793" lon="2.28335">
        <ele>101.1</ele>
        <time>2022-12-28T13:23:52Z</time>
      </trkpt>
      <trkpt lat="49.97931" lon="2.28332">
        <ele>101.1</ele>
        <time>2022-12-28T13:23:54Z</time>
      </trkpt>
      <trkpt lat="49.97931" lon="2.28331">
        <ele>101.1</ele>
        <time>2022-12-28T13:23:55Z</time>
      </trkpt>
      <trkpt lat="49.97931" lon="2.2833">
        <ele>101.2</ele>
        <time>2022-12-28T13:23:56Z</time>
      </trkpt>
      <trkpt lat="49.97932" lon="2.28327">
        <ele>101.2</ele>
        <time>2022-12-28T13:23:57Z</time>
      </trkpt>
      <trkpt lat="49.97933" lon="2.28326">
        <ele>101.2</ele>
        <time>2022-12-28T13:23:58Z</time>
      </trkpt>
      <trkpt lat="49.97934" lon="2.28324">
        <ele>101.2</ele>
        <time>2022-12-28T13:23:59Z</time>
      </trkpt>
      <trkpt lat="49.97934" lon="2.28322">
        <ele>101.2</ele>
        <time>2022-12-28T13:24:01Z</time>
      </trkpt>
      <trkpt lat="49.97935" lon="2.28321">
        <ele>101.2</ele>
        <time>2022-12-28T13:24:02Z</time>
      </trkpt>
      <trkpt lat="49.97936" lon="2.28318">
        <ele>101.3</ele>
        <time>2022-12-28T13:24:03Z</time>
      </trkpt>
      <trkpt lat="49.97936" lon="2.28316">
        <ele>101.3</ele>
        <time>2022-12-28T13:24:04Z</time>
      </trkpt>
      <trkpt lat="49.97936" lon="2.28314">
        <ele>101.3</ele>
        <time>2022-12-28T13:24:05Z</time>
      </trkpt>
      <trkpt lat="49.97937" lon="2.28312">
        <ele>101.3</ele>
        <time>2022-12-28T13:24:07Z</time>
      </trkpt>
      <trkpt lat="49.97937" lon="2.2831">
        <ele>101.3</ele>
        <time>2022-12-28T13:24:08Z</time>
      </trkpt>
      <trkpt lat="49.97938" lon="2.28309">
        <ele>101.3</ele>
        <time>2022-12-28T13:24:09Z</time>
      </trkpt>
      <trkpt lat="49.97938" lon="2.28307">
        <ele>101.4</ele>
        <time>2022-12-28T13:24:10Z</time>
      </trkpt>
      <trkpt lat="49.97938" lon="2.28306">
        <ele>101.4</ele>
        <time>2022-12-28T13:24:11Z</time>
      </trkpt>
      <trkpt lat="49.97938" lon="2.28302">
        <ele>101.4</ele>
        <time>2022-12-28T13:24:13Z</time>
      </trkpt>
      <trkpt lat="49.97938" lon="2.28301">
        <ele>101.4</ele>
        <time>2022-12-28T13:24:14Z</time>
      </trkpt>
      <trkpt lat="49.97938" lon="2.28299">
        <ele>101.3</ele>
        <time>2022-12-28T13:24:15Z</time>
      </trkpt>
      <trkpt lat="49.97938" lon="2.28298">
        <ele>101.3</ele>
        <time>2022-12-28T13:24:16Z</time>
      </trkpt>
      <trkpt lat="49.97937" lon="2.28296">
        <ele>101.3</ele>
        <time>2022-12-28T13:24:18Z</time>
      </trkpt>
      <trkpt lat="49.97937" lon="2.28295">
        <ele>101.3</ele>
        <time>2022-12-28T13:24:19Z</time>
      </trkpt>
      <trkpt lat="49.97936" lon="2.28293">
        <ele>101.3</ele>
        <time>2022-12-28T13:24:20Z</time>
      </trkpt>
      <trkpt lat="49.97935" lon="2.28292">
        <ele>101.3</ele>
        <time>2022-12-28T13:24:21Z</time>
      </trkpt>
      <trkpt lat="49.97935" lon="2.28291">
        <ele>101.2</ele>
        <time>2022-12-28T13:24:22Z</time>
      </trkpt>
      <trkpt lat="49.97933" lon="2.2829">
        <ele>101.2</ele>
        <time>2022-12-28T13:24:23Z</time>
      </trkpt>
      <trkpt lat="49.97932" lon="2.28288">
        <ele>101.2</ele>
        <time>2022-12-28T13:24:24Z</time>
      </trkpt>
      <trkpt lat="49.97931" lon="2.28288">
        <ele>101.2</ele>
        <time>2022-12-28T13:24:26Z</time>
      </trkpt>
      <trkpt lat="49.9793" lon="2.28287">
        <ele>101.2</ele>
        <time>2022-12-28T13:24:27Z</time>
      </trkpt>
      <trkpt lat="49.97929" lon="2.28285">
        <ele>101.1</ele>
        <time>2022-12-28T13:24:28Z</time>
      </trkpt>
      <trkpt lat="49.97928" lon="2.28285">
        <ele>101.1</ele>
        <time>2022-12-28T13:24:29Z</time>
      </trkpt>
      <trkpt lat="49.97926" lon="2.28284">
        <ele>101.1</ele>
        <time>2022-12-28T13:24:30Z</time>
      </trkpt>
      <trkpt lat="49.97925" lon="2.28283">
        <ele>101.1</ele>
        <time>2022-12-28T13:24:31Z</time>
      </trkpt>
      <trkpt lat="49.97924" lon="2.28283">
        <ele>101</ele>
        <time>2022-12-28T13:24:32Z</time>
      </trkpt>
      <trkpt lat="49.97923" lon="2.28282">
        <ele>101</ele>
        <time>2022-12-28T13:24:34Z</time>
      </trkpt>
      <trkpt lat="49.97922" lon="2.28282">
        <ele>101</ele>
        <time>2022-12-28T13:24:35Z</time>
      </trkpt>
      <trkpt lat="49.97921" lon="2.28281">
        <ele>101</ele>
        <time>2022-12-28T13:24:36Z</time>
      </trkpt>
      <trkpt lat="49.9792" lon="2.2828">
        <ele>101</ele>
        <time>2022-12-28T13:24:37Z</time>
      </trkpt>
      <trkpt lat="49.97919" lon="2.28279">
        <ele>101</ele>
        <time>2022-12-28T13:24:38Z</time>
      </trkpt>
      <trkpt lat="49.97918" lon="2.28278">
        <ele>100.9</ele>
        <time>2022-12-28T13:24:39Z</time>
      </trkpt>
      <trkpt lat="49.97917" lon="2.28278">
        <ele>100.9</ele>
        <time>2022-12-28T13:24:40Z</time>
      </trkpt>
      <trkpt lat="49.97915" lon="2.28277">
        <ele>100.9</ele>
        <time>2022-12-28T13:24:41Z</time>
      </trkpt>
      <trkpt lat="49.97914" lon="2.28276">
        <ele>100.8</ele>
        <time>2022-12-28T13:24:42Z</time>
      </trkpt>
      <trkpt lat="49.97913" lon="2.28275">
        <ele>100.8</ele>
        <time>2022-12-28T13:24:44Z</time>
      </trkpt>
      <trkpt lat="49.97912" lon="2.28274">
        <ele>100.8</ele>
        <time>2022-12-28T13:24:45Z</time>
      </trkpt>
      <trkpt lat="49.97911" lon="2.28273">
        <ele>100.7</ele>
        <time>2022-12-28T13:24:46Z</time>
      </trkpt>
      <trkpt lat="49.9791" lon="2.28272">
        <ele>100.7</ele>
        <time>2022-12-28T13:24:47Z</time>
      </trkpt>
      <trkpt lat="49.97908" lon="2.2827">
        <ele>100.6</ele>
        <time>2022-12-28T13:24:48Z</time>
      </trkpt>
      <trkpt lat="49.97907" lon="2.2827">
        <ele>100.6</ele>
        <time>2022-12-28T13:24:49Z</time>
      </trkpt>
      <trkpt lat="49.97907" lon="2.28269">
        <ele>100.5</ele>
        <time>2022-12-28T13:24:50Z</time>
      </trkpt>
      <trkpt lat="49.97905" lon="2.28269">
        <ele>100.5</ele>
        <time>2022-12-28T13:24:51Z</time>
      </trkpt>
      <trkpt lat="49.97904" lon="2.28268">
        <ele>100.4</ele>
        <time>2022-12-28T13:24:52Z</time>
      </trkpt>
      <trkpt lat="49.97903" lon="2.28268">
        <ele>100.4</ele>
        <time>2022-12-28T13:24:54Z</time>
      </trkpt>
      <trkpt lat="49.97902" lon="2.28268">
        <ele>100.3</ele>
        <time>2022-12-28T13:24:55Z</time>
      </trkpt>
      <trkpt lat="49.97901" lon="2.28267">
        <ele>100.3</ele>
        <time>2022-12-28T13:24:56Z</time>
      </trkpt>
      <trkpt lat="49.979" lon="2.28267">
        <ele>100.2</ele>
        <time>2022-12-28T13:24:57Z</time>
      </trkpt>
      <trkpt lat="49.97898" lon="2.28266">
        <ele>100.1</ele>
        <time>2022-12-28T13:24:58Z</time>
      </trkpt>
      <trkpt lat="49.97897" lon="2.28265">
        <ele>100</ele>
        <time>2022-12-28T13:24:59Z</time>
      </trkpt>
      <trkpt lat="49.97896" lon="2.28264">
        <ele>100</ele>
        <time>2022-12-28T13:25:00Z</time>
      </trkpt>
      <trkpt lat="49.97895" lon="2.28263">
        <ele>99.9</ele>
        <time>2022-12-28T13:25:01Z</time>
      </trkpt>
      <trkpt lat="49.97893" lon="2.28262">
        <ele>99.8</ele>
        <time>2022-12-28T13:25:02Z</time>
      </trkpt>
      <trkpt lat="49.97892" lon="2.28262">
        <ele>99.7</ele>
        <time>2022-12-28T13:25:04Z</time>
      </trkpt>
      <trkpt lat="49.97891" lon="2.28261">
        <ele>99.7</ele>
        <time>2022-12-28T13:25:05Z</time>
      </trkpt>
      <trkpt lat="49.9789" lon="2.2826">
        <ele>99.6</ele>
        <time>2022-12-28T13:25:06Z</time>
      </trkpt>
      <trkpt lat="49.97889" lon="2.28259">
        <ele>99.5</ele>
        <time>2022-12-28T13:25:07Z</time>
      </trkpt>
      <trkpt lat="49.97888" lon="2.28258">
        <ele>99.4</ele>
        <time>2022-12-28T13:25:09Z</time>
      </trkpt>
      <trkpt lat="49.97886" lon="2.28257">
        <ele>99.3</ele>
        <time>2022-12-28T13:25:10Z</time>
      </trkpt>
      <trkpt lat="49.97885" lon="2.28255">
        <ele>99.2</ele>
        <time>2022-12-28T13:25:11Z</time>
      </trkpt>
      <trkpt lat="49.97884" lon="2.28254">
        <ele>99.1</ele>
        <time>2022-12-28T13:25:12Z</time>
      </trkpt>
      <trkpt lat="49.97883" lon="2.28254">
        <ele>99</ele>
        <time>2022-12-28T13:25:13Z</time>
      </trkpt>
      <trkpt lat="49.97882" lon="2.28253">
        <ele>99</ele>
        <time>2022-12-28T13:25:14Z</time>
      </trkpt>
      <trkpt lat="49.97881" lon="2.28252">
        <ele>98.9</ele>
        <time>2022-12-28T13:25:15Z</time>
      </trkpt>
      <trkpt lat="49.9788" lon="2.28251">
        <ele>98.8</ele>
        <time>2022-12-28T13:25:16Z</time>
      </trkpt>
      <trkpt lat="49.97879" lon="2.28249">
        <ele>98.7</ele>
        <time>2022-12-28T13:25:17Z</time>
      </trkpt>
      <trkpt lat="49.97878" lon="2.28248">
        <ele>98.6</ele>
        <time>2022-12-28T13:25:18Z</time>
      </trkpt>
      <trkpt lat="49.97877" lon="2.28247">
        <ele>98.6</ele>
        <time>2022-12-28T13:25:19Z</time>
      </trkpt>
      <trkpt lat="49.97876" lon="2.28245">
        <ele>98.4</ele>
        <time>2022-12-28T13:25:20Z</time>
      </trkpt>
      <trkpt lat="49.97875" lon="2.28245">
        <ele>98.4</ele>
        <time>2022-12-28T13:25:22Z</time>
      </trkpt>
      <trkpt lat="49.97874" lon="2.28244">
        <ele>98.3</ele>
        <time>2022-12-28T13:25:23Z</time>
      </trkpt>
      <trkpt lat="49.97873" lon="2.28243">
        <ele>98.3</ele>
        <time>2022-12-28T13:25:24Z</time>
      </trkpt>
      <trkpt lat="49.97872" lon="2.28242">
        <ele>98.2</ele>
        <time>2022-12-28T13:25:25Z</time>
      </trkpt>
      <trkpt lat="49.97871" lon="2.28241">
        <ele>98.1</ele>
        <time>2022-12-28T13:25:26Z</time>
      </trkpt>
      <trkpt lat="49.9787" lon="2.2824">
        <ele>98</ele>
        <time>2022-12-28T13:25:28Z</time>
      </trkpt>
      <trkpt lat="49.97868" lon="2.28239">
        <ele>97.9</ele>
        <time>2022-12-28T13:25:29Z</time>
      </trkpt>
      <trkpt lat="49.97867" lon="2.28238">
        <ele>97.8</ele>
        <time>2022-12-28T13:25:30Z</time>
      </trkpt>
      <trkpt lat="49.97866" lon="2.28237">
        <ele>97.8</ele>
        <time>2022-12-28T13:25:31Z</time>
      </trkpt>
      <trkpt lat="49.97865" lon="2.28236">
        <ele>97.7</ele>
        <time>2022-12-28T13:25:32Z</time>
      </trkpt>
      <trkpt lat="49.97863" lon="2.28235">
        <ele>97.5</ele>
        <time>2022-12-28T13:25:33Z</time>
      </trkpt>
      <trkpt lat="49.97862" lon="2.28234">
        <ele>97.5</ele>
        <time>2022-12-28T13:25:35Z</time>
      </trkpt>
      <trkpt lat="49.97862" lon="2.28234">
        <ele>97.4</ele>
        <time>2022-12-28T13:25:36Z</time>
      </trkpt>
      <trkpt lat="49.97861" lon="2.28233">
        <ele>97.4</ele>
        <time>2022-12-28T13:25:37Z</time>
      </trkpt>
      <trkpt lat="49.9786" lon="2.28231">
        <ele>97.3</ele>
        <time>2022-12-28T13:25:38Z</time>
      </trkpt>
      <trkpt lat="49.9786" lon="2.2823">
        <ele>97.3</ele>
        <time>2022-12-28T13:25:39Z</time>
      </trkpt>
      <trkpt lat="49.97859" lon="2.28229">
        <ele>97.2</ele>
        <time>2022-12-28T13:25:40Z</time>
      </trkpt>
      <trkpt lat="49.97858" lon="2.28228">
        <ele>97.2</ele>
        <time>2022-12-28T13:25:41Z</time>
      </trkpt>
      <trkpt lat="49.97858" lon="2.28227">
        <ele>97.1</ele>
        <time>2022-12-28T13:25:42Z</time>
      </trkpt>
      <trkpt lat="49.97856" lon="2.28226">
        <ele>97.1</ele>
        <time>2022-12-28T13:25:43Z</time>
      </trkpt>
      <trkpt lat="49.97855" lon="2.28225">
        <ele>97</ele>
        <time>2022-12-28T13:25:44Z</time>
      </trkpt>
      <trkpt lat="49.97854" lon="2.28225">
        <ele>96.9</ele>
        <time>2022-12-28T13:25:46Z</time>
      </trkpt>
      <trkpt lat="49.97853" lon="2.28224">
        <ele>96.9</ele>
        <time>2022-12-28T13:25:47Z</time>
      </trkpt>
      <trkpt lat="49.97852" lon="2.28223">
        <ele>96.8</ele>
        <time>2022-12-28T13:25:48Z</time>
      </trkpt>
      <trkpt lat="49.97851" lon="2.28222">
        <ele>96.8</ele>
        <time>2022-12-28T13:25:49Z</time>
      </trkpt>
      <trkpt lat="49.9785" lon="2.28221">
        <ele>96.7</ele>
        <time>2022-12-28T13:25:50Z</time>
      </trkpt>
      <trkpt lat="49.97849" lon="2.28221">
        <ele>96.6</ele>
        <time>2022-12-28T13:25:51Z</time>
      </trkpt>
      <trkpt lat="49.97848" lon="2.2822">
        <ele>96.6</ele>
        <time>2022-12-28T13:25:52Z</time>
      </trkpt>
      <trkpt lat="49.97847" lon="2.28219">
        <ele>96.5</ele>
        <time>2022-12-28T13:25:53Z</time>
      </trkpt>
      <trkpt lat="49.97845" lon="2.28217">
        <ele>96.4</ele>
        <time>2022-12-28T13:25:55Z</time>
      </trkpt>
      <trkpt lat="49.97843" lon="2.28215">
        <ele>96.3</ele>
        <time>2022-12-28T13:25:56Z</time>
      </trkpt>
      <trkpt lat="49.97843" lon="2.28214">
        <ele>96.2</ele>
        <time>2022-12-28T13:25:57Z</time>
      </trkpt>
      <trkpt lat="49.97842" lon="2.28214">
        <ele>96.2</ele>
        <time>2022-12-28T13:25:58Z</time>
      </trkpt>
      <trkpt lat="49.97841" lon="2.28213">
        <ele>96.1</ele>
        <time>2022-12-28T13:25:59Z</time>
      </trkpt>
      <trkpt lat="49.9784" lon="2.28211">
        <ele>96</ele>
        <time>2022-12-28T13:26:01Z</time>
      </trkpt>
      <trkpt lat="49.9784" lon="2.28211">
        <ele>96</ele>
        <time>2022-12-28T13:26:02Z</time>
      </trkpt>
      <trkpt lat="49.97838" lon="2.28209">
        <ele>95.8</ele>
        <time>2022-12-28T13:26:03Z</time>
      </trkpt>
      <trkpt lat="49.97838" lon="2.28208">
        <ele>95.8</ele>
        <time>2022-12-28T13:26:04Z</time>
      </trkpt>
      <trkpt lat="49.97837" lon="2.28207">
        <ele>95.7</ele>
        <time>2022-12-28T13:26:05Z</time>
      </trkpt>
      <trkpt lat="49.97835" lon="2.28206">
        <ele>95.5</ele>
        <time>2022-12-28T13:26:06Z</time>
      </trkpt>
      <trkpt lat="49.97834" lon="2.28205">
        <ele>95.4</ele>
        <time>2022-12-28T13:26:07Z</time>
      </trkpt>
      <trkpt lat="49.97833" lon="2.28204">
        <ele>95.3</ele>
        <time>2022-12-28T13:26:08Z</time>
      </trkpt>
      <trkpt lat="49.97832" lon="2.28203">
        <ele>95.2</ele>
        <time>2022-12-28T13:26:09Z</time>
      </trkpt>
      <trkpt lat="49.97831" lon="2.28202">
        <ele>95.1</ele>
        <time>2022-12-28T13:26:11Z</time>
      </trkpt>
      <trkpt lat="49.9783" lon="2.28201">
        <ele>95</ele>
        <time>2022-12-28T13:26:12Z</time>
      </trkpt>
      <trkpt lat="49.97829" lon="2.282">
        <ele>94.9</ele>
        <time>2022-12-28T13:26:13Z</time>
      </trkpt>
      <trkpt lat="49.97828" lon="2.28199">
        <ele>94.8</ele>
        <time>2022-12-28T13:26:14Z</time>
      </trkpt>
      <trkpt lat="49.97827" lon="2.28198">
        <ele>94.7</ele>
        <time>2022-12-28T13:26:15Z</time>
      </trkpt>
      <trkpt lat="49.97826" lon="2.28197">
        <ele>94.6</ele>
        <time>2022-12-28T13:26:16Z</time>
      </trkpt>
      <trkpt lat="49.97824" lon="2.28196">
        <ele>94.5</ele>
        <time>2022-12-28T13:26:17Z</time>
      </trkpt>
      <trkpt lat="49.97823" lon="2.28195">
        <ele>94.4</ele>
        <time>2022-12-28T13:26:18Z</time>
      </trkpt>
      <trkpt lat="49.97822" lon="2.28194">
        <ele>94.3</ele>
        <time>2022-12-28T13:26:19Z</time>
      </trkpt>
      <trkpt lat="49.9782" lon="2.28193">
        <ele>94.1</ele>
        <time>2022-12-28T13:26:20Z</time>
      </trkpt>
      <trkpt lat="49.97819" lon="2.28192">
        <ele>94.1</ele>
        <time>2022-12-28T13:26:22Z</time>
      </trkpt>
      <trkpt lat="49.97819" lon="2.28191">
        <ele>94</ele>
        <time>2022-12-28T13:26:23Z</time>
      </trkpt>
      <trkpt lat="49.97817" lon="2.2819">
        <ele>93.9</ele>
        <time>2022-12-28T13:26:24Z</time>
      </trkpt>
      <trkpt lat="49.97816" lon="2.28189">
        <ele>93.8</ele>
        <time>2022-12-28T13:26:25Z</time>
      </trkpt>
      <trkpt lat="49.97814" lon="2.28188">
        <ele>93.7</ele>
        <time>2022-12-28T13:26:26Z</time>
      </trkpt>
      <trkpt lat="49.97814" lon="2.28187">
        <ele>93.6</ele>
        <time>2022-12-28T13:26:27Z</time>
      </trkpt>
      <trkpt lat="49.97813" lon="2.28186">
        <ele>93.5</ele>
        <time>2022-12-28T13:26:28Z</time>
      </trkpt>
      <trkpt lat="49.97812" lon="2.28185">
        <ele>93.5</ele>
        <time>2022-12-28T13:26:29Z</time>
      </trkpt>
      <trkpt lat="49.97811" lon="2.28184">
        <ele>93.4</ele>
        <time>2022-12-28T13:26:31Z</time>
      </trkpt>
      <trkpt lat="49.9781" lon="2.28183">
        <ele>93.3</ele>
        <time>2022-12-28T13:26:32Z</time>
      </trkpt>
      <trkpt lat="49.97809" lon="2.28183">
        <ele>93.2</ele>
        <time>2022-12-28T13:26:33Z</time>
      </trkpt>
      <trkpt lat="49.97807" lon="2.28182">
        <ele>93.1</ele>
        <time>2022-12-28T13:26:34Z</time>
      </trkpt>
      <trkpt lat="49.97806" lon="2.28181">
        <ele>93.1</ele>
        <time>2022-12-28T13:26:35Z</time>
      </trkpt>
      <trkpt lat="49.97804" lon="2.28181">
        <ele>92.9</ele>
        <time>2022-12-28T13:26:36Z</time>
      </trkpt>
      <trkpt lat="49.97803" lon="2.28181">
        <ele>92.9</ele>
        <time>2022-12-28T13:26:38Z</time>
      </trkpt>
      <trkpt lat="49.97802" lon="2.2818">
        <ele>92.8</ele>
        <time>2022-12-28T13:26:39Z</time>
      </trkpt>
      <trkpt lat="49.97801" lon="2.2818">
        <ele>92.7</ele>
        <time>2022-12-28T13:26:40Z</time>
      </trkpt>
      <trkpt lat="49.978" lon="2.2818">
        <ele>92.7</ele>
        <time>2022-12-28T13:26:41Z</time>
      </trkpt>
      <trkpt lat="49.97799" lon="2.28179">
        <ele>92.6</ele>
        <time>2022-12-28T13:26:42Z</time>
      </trkpt>
      <trkpt lat="49.97798" lon="2.28178">
        <ele>92.5</ele>
        <time>2022-12-28T13:26:43Z</time>
      </trkpt>
      <trkpt lat="49.97797" lon="2.28177">
        <ele>92.4</ele>
        <time>2022-12-28T13:26:44Z</time>
      </trkpt>
      <trkpt lat="49.97796" lon="2.28176">
        <ele>92.4</ele>
        <time>2022-12-28T13:26:45Z</time>
      </trkpt>
      <trkpt lat="49.97795" lon="2.28175">
        <ele>92.3</ele>
        <time>2022-12-28T13:26:47Z</time>
      </trkpt>
      <trkpt lat="49.97794" lon="2.28174">
        <ele>92.2</ele>
        <time>2022-12-28T13:26:48Z</time>
      </trkpt>
      <trkpt lat="49.97792" lon="2.28172">
        <ele>92.2</ele>
        <time>2022-12-28T13:26:49Z</time>
      </trkpt>
      <trkpt lat="49.97792" lon="2.28171">
        <ele>92.1</ele>
        <time>2022-12-28T13:26:50Z</time>
      </trkpt>
      <trkpt lat="49.97791" lon="2.2817">
        <ele>92.1</ele>
        <time>2022-12-28T13:26:51Z</time>
      </trkpt>
      <trkpt lat="49.97789" lon="2.28168">
        <ele>92</ele>
        <time>2022-12-28T13:26:53Z</time>
      </trkpt>
      <trkpt lat="49.97788" lon="2.28167">
        <ele>91.9</ele>
        <time>2022-12-28T13:26:54Z</time>
      </trkpt>
      <trkpt lat="49.97787" lon="2.28166">
        <ele>91.8</ele>
        <time>2022-12-28T13:26:55Z</time>
      </trkpt>
      <trkpt lat="49.97785" lon="2.28164">
        <ele>91.7</ele>
        <time>2022-12-28T13:26:56Z</time>
      </trkpt>
      <trkpt lat="49.97785" lon="2.28163">
        <ele>91.7</ele>
        <time>2022-12-28T13:26:57Z</time>
      </trkpt>
      <trkpt lat="49.97784" lon="2.28162">
        <ele>91.7</ele>
        <time>2022-12-28T13:26:58Z</time>
      </trkpt>
      <trkpt lat="49.97783" lon="2.28161">
        <ele>91.6</ele>
        <time>2022-12-28T13:27:00Z</time>
      </trkpt>
      <trkpt lat="49.97782" lon="2.2816">
        <ele>91.6</ele>
        <time>2022-12-28T13:27:01Z</time>
      </trkpt>
      <trkpt lat="49.9778" lon="2.28158">
        <ele>91.5</ele>
        <time>2022-12-28T13:27:02Z</time>
      </trkpt>
      <trkpt lat="49.97779" lon="2.28157">
        <ele>91.5</ele>
        <time>2022-12-28T13:27:03Z</time>
      </trkpt>
      <trkpt lat="49.97778" lon="2.28157">
        <ele>91.4</ele>
        <time>2022-12-28T13:27:04Z</time>
      </trkpt>
      <trkpt lat="49.97777" lon="2.28156">
        <ele>91.4</ele>
        <time>2022-12-28T13:27:05Z</time>
      </trkpt>
      <trkpt lat="49.97776" lon="2.28155">
        <ele>91.3</ele>
        <time>2022-12-28T13:27:06Z</time>
      </trkpt>
      <trkpt lat="49.97775" lon="2.28154">
        <ele>91.3</ele>
        <time>2022-12-28T13:27:08Z</time>
      </trkpt>
      <trkpt lat="49.97773" lon="2.28153">
        <ele>91.2</ele>
        <time>2022-12-28T13:27:09Z</time>
      </trkpt>
      <trkpt lat="49.97772" lon="2.28152">
        <ele>91.1</ele>
        <time>2022-12-28T13:27:10Z</time>
      </trkpt>
      <trkpt lat="49.97771" lon="2.28152">
        <ele>91.1</ele>
        <time>2022-12-28T13:27:11Z</time>
      </trkpt>
      <trkpt lat="49.9777" lon="2.2815">
        <ele>91</ele>
        <time>2022-12-28T13:27:12Z</time>
      </trkpt>
      <trkpt lat="49.97769" lon="2.2815">
        <ele>91</ele>
        <time>2022-12-28T13:27:13Z</time>
      </trkpt>
      <trkpt lat="49.97768" lon="2.28149">
        <ele>91</ele>
        <time>2022-12-28T13:27:14Z</time>
      </trkpt>
      <trkpt lat="49.97767" lon="2.28148">
        <ele>90.9</ele>
        <time>2022-12-28T13:27:16Z</time>
      </trkpt>
      <trkpt lat="49.97766" lon="2.28147">
        <ele>90.9</ele>
        <time>2022-12-28T13:27:17Z</time>
      </trkpt>
      <trkpt lat="49.97764" lon="2.28146">
        <ele>90.8</ele>
        <time>2022-12-28T13:27:18Z</time>
      </trkpt>
      <trkpt lat="49.97763" lon="2.28145">
        <ele>90.8</ele>
        <time>2022-12-28T13:27:19Z</time>
      </trkpt>
      <trkpt lat="49.97761" lon="2.28143">
        <ele>90.7</ele>
        <time>2022-12-28T13:27:20Z</time>
      </trkpt>
      <trkpt lat="49.97761" lon="2.28143">
        <ele>90.6</ele>
        <time>2022-12-28T13:27:21Z</time>
      </trkpt>
      <trkpt lat="49.9776" lon="2.28142">
        <ele>90.6</ele>
        <time>2022-12-28T13:27:23Z</time>
      </trkpt>
      <trkpt lat="49.97759" lon="2.28141">
        <ele>90.6</ele>
        <time>2022-12-28T13:27:24Z</time>
      </trkpt>
      <trkpt lat="49.97758" lon="2.2814">
        <ele>90.5</ele>
        <time>2022-12-28T13:27:25Z</time>
      </trkpt>
      <trkpt lat="49.97757" lon="2.28139">
        <ele>90.5</ele>
        <time>2022-12-28T13:27:26Z</time>
      </trkpt>
      <trkpt lat="49.97755" lon="2.28137">
        <ele>90.4</ele>
        <time>2022-12-28T13:27:27Z</time>
      </trkpt>
      <trkpt lat="49.97754" lon="2.28137">
        <ele>90.3</ele>
        <time>2022-12-28T13:27:28Z</time>
      </trkpt>
      <trkpt lat="49.97754" lon="2.28136">
        <ele>90.3</ele>
        <time>2022-12-28T13:27:29Z</time>
      </trkpt>
      <trkpt lat="49.97753" lon="2.28135">
        <ele>90.3</ele>
        <time>2022-12-28T13:27:30Z</time>
      </trkpt>
      <trkpt lat="49.97752" lon="2.28135">
        <ele>90.2</ele>
        <time>2022-12-28T13:27:31Z</time>
      </trkpt>
      <trkpt lat="49.97751" lon="2.28134">
        <ele>90.2</ele>
        <time>2022-12-28T13:27:32Z</time>
      </trkpt>
      <trkpt lat="49.97749" lon="2.28132">
        <ele>90.1</ele>
        <time>2022-12-28T13:27:33Z</time>
      </trkpt>
      <trkpt lat="49.97748" lon="2.28131">
        <ele>90</ele>
        <time>2022-12-28T13:27:35Z</time>
      </trkpt>
      <trkpt lat="49.97747" lon="2.28131">
        <ele>90</ele>
        <time>2022-12-28T13:27:36Z</time>
      </trkpt>
      <trkpt lat="49.97746" lon="2.2813">
        <ele>89.9</ele>
        <time>2022-12-28T13:27:37Z</time>
      </trkpt>
      <trkpt lat="49.97745" lon="2.28129">
        <ele>89.9</ele>
        <time>2022-12-28T13:27:38Z</time>
      </trkpt>
      <trkpt lat="49.97744" lon="2.28127">
        <ele>89.8</ele>
        <time>2022-12-28T13:27:39Z</time>
      </trkpt>
      <trkpt lat="49.97743" lon="2.28126">
        <ele>89.8</ele>
        <time>2022-12-28T13:27:40Z</time>
      </trkpt>
      <trkpt lat="49.97742" lon="2.28125">
        <ele>89.7</ele>
        <time>2022-12-28T13:27:42Z</time>
      </trkpt>
      <trkpt lat="49.97741" lon="2.28124">
        <ele>89.7</ele>
        <time>2022-12-28T13:27:43Z</time>
      </trkpt>
      <trkpt lat="49.97739" lon="2.28123">
        <ele>89.6</ele>
        <time>2022-12-28T13:27:44Z</time>
      </trkpt>
      <trkpt lat="49.97739" lon="2.28123">
        <ele>89.6</ele>
        <time>2022-12-28T13:27:45Z</time>
      </trkpt>
      <trkpt lat="49.97738" lon="2.28123">
        <ele>89.5</ele>
        <time>2022-12-28T13:27:46Z</time>
      </trkpt>
      <trkpt lat="49.97737" lon="2.28122">
        <ele>89.5</ele>
        <time>2022-12-28T13:27:47Z</time>
      </trkpt>
      <trkpt lat="49.97736" lon="2.28121">
        <ele>89.5</ele>
        <time>2022-12-28T13:27:48Z</time>
      </trkpt>
      <trkpt lat="49.97735" lon="2.2812">
        <ele>89.4</ele>
        <time>2022-12-28T13:27:49Z</time>
      </trkpt>
      <trkpt lat="49.97735" lon="2.28119">
        <ele>89.4</ele>
        <time>2022-12-28T13:27:50Z</time>
      </trkpt>
      <trkpt lat="49.97733" lon="2.28118">
        <ele>89.3</ele>
        <time>2022-12-28T13:27:52Z</time>
      </trkpt>
      <trkpt lat="49.97732" lon="2.28117">
        <ele>89.3</ele>
        <time>2022-12-28T13:27:53Z</time>
      </trkpt>
      <trkpt lat="49.97731" lon="2.28116">
        <ele>89.2</ele>
        <time>2022-12-28T13:27:54Z</time>
      </trkpt>
      <trkpt lat="49.9773" lon="2.28115">
        <ele>89.2</ele>
        <time>2022-12-28T13:27:55Z</time>
      </trkpt>
      <trkpt lat="49.97729" lon="2.28114">
        <ele>89.1</ele>
        <time>2022-12-28T13:27:56Z</time>
      </trkpt>
      <trkpt lat="49.97728" lon="2.28114">
        <ele>89.1</ele>
        <time>2022-12-28T13:27:58Z</time>
      </trkpt>
      <trkpt lat="49.97727" lon="2.28113">
        <ele>89</ele>
        <time>2022-12-28T13:27:59Z</time>
      </trkpt>
      <trkpt lat="49.97726" lon="2.28113">
        <ele>89</ele>
        <time>2022-12-28T13:28:00Z</time>
      </trkpt>
      <trkpt lat="49.97726" lon="2.28113">
        <ele>89</ele>
        <time>2022-12-28T13:28:01Z</time>
      </trkpt>
      <trkpt lat="49.97725" lon="2.28112">
        <ele>89</ele>
        <time>2022-12-28T13:28:02Z</time>
      </trkpt>
      <trkpt lat="49.97724" lon="2.28112">
        <ele>88.9</ele>
        <time>2022-12-28T13:28:03Z</time>
      </trkpt>
      <trkpt lat="49.97723" lon="2.28111">
        <ele>88.9</ele>
        <time>2022-12-28T13:28:04Z</time>
      </trkpt>
      <trkpt lat="49.97722" lon="2.2811">
        <ele>88.8</ele>
        <time>2022-12-28T13:28:05Z</time>
      </trkpt>
      <trkpt lat="49.97721" lon="2.2811">
        <ele>88.8</ele>
        <time>2022-12-28T13:28:06Z</time>
      </trkpt>
      <trkpt lat="49.9772" lon="2.28109">
        <ele>88.8</ele>
        <time>2022-12-28T13:28:07Z</time>
      </trkpt>
      <trkpt lat="49.97719" lon="2.28108">
        <ele>88.7</ele>
        <time>2022-12-28T13:28:09Z</time>
      </trkpt>
      <trkpt lat="49.97718" lon="2.28108">
        <ele>88.7</ele>
        <time>2022-12-28T13:28:10Z</time>
      </trkpt>
      <trkpt lat="49.97718" lon="2.28107">
        <ele>88.6</ele>
        <time>2022-12-28T13:28:11Z</time>
      </trkpt>
      <trkpt lat="49.97717" lon="2.28106">
        <ele>88.6</ele>
        <time>2022-12-28T13:28:12Z</time>
      </trkpt>
      <trkpt lat="49.97715" lon="2.28106">
        <ele>88.6</ele>
        <time>2022-12-28T13:28:13Z</time>
      </trkpt>
      <trkpt lat="49.97714" lon="2.28105">
        <ele>88.5</ele>
        <time>2022-12-28T13:28:14Z</time>
      </trkpt>
      <trkpt lat="49.97713" lon="2.28104">
        <ele>88.5</ele>
        <time>2022-12-28T13:28:15Z</time>
      </trkpt>
      <trkpt lat="49.97712" lon="2.28104">
        <ele>88.5</ele>
        <time>2022-12-28T13:28:16Z</time>
      </trkpt>
      <trkpt lat="49.97711" lon="2.28103">
        <ele>88.4</ele>
        <time>2022-12-28T13:28:18Z</time>
      </trkpt>
      <trkpt lat="49.9771" lon="2.28103">
        <ele>88.4</ele>
        <time>2022-12-28T13:28:19Z</time>
      </trkpt>
      <trkpt lat="49.97709" lon="2.28102">
        <ele>88.3</ele>
        <time>2022-12-28T13:28:20Z</time>
      </trkpt>
      <trkpt lat="49.97708" lon="2.28102">
        <ele>88.3</ele>
        <time>2022-12-28T13:28:21Z</time>
      </trkpt>
      <trkpt lat="49.97706" lon="2.28102">
        <ele>88.3</ele>
        <time>2022-12-28T13:28:22Z</time>
      </trkpt>
      <trkpt lat="49.97705" lon="2.28101">
        <ele>88.2</ele>
        <time>2022-12-28T13:28:23Z</time>
      </trkpt>
      <trkpt lat="49.97704" lon="2.28101">
        <ele>88.2</ele>
        <time>2022-12-28T13:28:24Z</time>
      </trkpt>
      <trkpt lat="49.97703" lon="2.28101">
        <ele>88.1</ele>
        <time>2022-12-28T13:28:25Z</time>
      </trkpt>
      <trkpt lat="49.97701" lon="2.28101">
        <ele>88.1</ele>
        <time>2022-12-28T13:28:27Z</time>
      </trkpt>
      <trkpt lat="49.977" lon="2.281">
        <ele>88.1</ele>
        <time>2022-12-28T13:28:28Z</time>
      </trkpt>
      <trkpt lat="49.97699" lon="2.281">
        <ele>88</ele>
        <time>2022-12-28T13:28:29Z</time>
      </trkpt>
      <trkpt lat="49.97698" lon="2.28099">
        <ele>88</ele>
        <time>2022-12-28T13:28:30Z</time>
      </trkpt>
      <trkpt lat="49.97696" lon="2.28099">
        <ele>87.9</ele>
        <time>2022-12-28T13:28:31Z</time>
      </trkpt>
      <trkpt lat="49.97695" lon="2.28098">
        <ele>87.9</ele>
        <time>2022-12-28T13:28:32Z</time>
      </trkpt>
      <trkpt lat="49.97694" lon="2.28098">
        <ele>87.9</ele>
        <time>2022-12-28T13:28:33Z</time>
      </trkpt>
      <trkpt lat="49.97692" lon="2.28097">
        <ele>87.8</ele>
        <time>2022-12-28T13:28:34Z</time>
      </trkpt>
      <trkpt lat="49.97691" lon="2.28096">
        <ele>87.8</ele>
        <time>2022-12-28T13:28:35Z</time>
      </trkpt>
      <trkpt lat="49.9769" lon="2.28096">
        <ele>87.8</ele>
        <time>2022-12-28T13:28:36Z</time>
      </trkpt>
      <trkpt lat="49.97689" lon="2.28095">
        <ele>87.7</ele>
        <time>2022-12-28T13:28:37Z</time>
      </trkpt>
      <trkpt lat="49.97688" lon="2.28095">
        <ele>87.7</ele>
        <time>2022-12-28T13:28:39Z</time>
      </trkpt>
      <trkpt lat="49.97687" lon="2.28094">
        <ele>87.6</ele>
        <time>2022-12-28T13:28:40Z</time>
      </trkpt>
      <trkpt lat="49.97686" lon="2.28093">
        <ele>87.6</ele>
        <time>2022-12-28T13:28:41Z</time>
      </trkpt>
      <trkpt lat="49.97685" lon="2.28092">
        <ele>87.6</ele>
        <time>2022-12-28T13:28:42Z</time>
      </trkpt>
      <trkpt lat="49.97684" lon="2.28091">
        <ele>87.5</ele>
        <time>2022-12-28T13:28:43Z</time>
      </trkpt>
      <trkpt lat="49.97683" lon="2.2809">
        <ele>87.5</ele>
        <time>2022-12-28T13:28:44Z</time>
      </trkpt>
      <trkpt lat="49.97682" lon="2.2809">
        <ele>87.5</ele>
        <time>2022-12-28T13:28:45Z</time>
      </trkpt>
      <trkpt lat="49.97681" lon="2.28089">
        <ele>87.4</ele>
        <time>2022-12-28T13:28:46Z</time>
      </trkpt>
      <trkpt lat="49.9768" lon="2.28088">
        <ele>87.4</ele>
        <time>2022-12-28T13:28:47Z</time>
      </trkpt>
      <trkpt lat="49.97678" lon="2.28087">
        <ele>87.4</ele>
        <time>2022-12-28T13:28:49Z</time>
      </trkpt>
      <trkpt lat="49.97677" lon="2.28087">
        <ele>87.3</ele>
        <time>2022-12-28T13:28:50Z</time>
      </trkpt>
      <trkpt lat="49.97676" lon="2.28086">
        <ele>87.3</ele>
        <time>2022-12-28T13:28:51Z</time>
      </trkpt>
      <trkpt lat="49.97675" lon="2.28085">
        <ele>87.3</ele>
        <time>2022-12-28T13:28:52Z</time>
      </trkpt>
      <trkpt lat="49.97674" lon="2.28084">
        <ele>87.2</ele>
        <time>2022-12-28T13:28:53Z</time>
      </trkpt>
      <trkpt lat="49.97672" lon="2.28083">
        <ele>87.2</ele>
        <time>2022-12-28T13:28:54Z</time>
      </trkpt>
      <trkpt lat="49.97671" lon="2.28083">
        <ele>87.2</ele>
        <time>2022-12-28T13:28:55Z</time>
      </trkpt>
      <trkpt lat="49.9767" lon="2.28082">
        <ele>87.1</ele>
        <time>2022-12-28T13:28:56Z</time>
      </trkpt>
      <trkpt lat="49.97669" lon="2.28081">
        <ele>87.1</ele>
        <time>2022-12-28T13:28:58Z</time>
      </trkpt>
      <trkpt lat="49.97667" lon="2.28081">
        <ele>87.1</ele>
        <time>2022-12-28T13:28:59Z</time>
      </trkpt>
      <trkpt lat="49.97666" lon="2.2808">
        <ele>87</ele>
        <time>2022-12-28T13:29:00Z</time>
      </trkpt>
      <trkpt lat="49.97665" lon="2.2808">
        <ele>87</ele>
        <time>2022-12-28T13:29:01Z</time>
      </trkpt>
      <trkpt lat="49.97664" lon="2.28079">
        <ele>87</ele>
        <time>2022-12-28T13:29:02Z</time>
      </trkpt>
      <trkpt lat="49.97663" lon="2.28079">
        <ele>86.9</ele>
        <time>2022-12-28T13:29:03Z</time>
      </trkpt>
      <trkpt lat="49.97661" lon="2.28078">
        <ele>86.9</ele>
        <time>2022-12-28T13:29:04Z</time>
      </trkpt>
      <trkpt lat="49.9766" lon="2.28077">
        <ele>86.9</ele>
        <time>2022-12-28T13:29:05Z</time>
      </trkpt>
      <trkpt lat="49.97658" lon="2.28076">
        <ele>86.8</ele>
        <time>2022-12-28T13:29:06Z</time>
      </trkpt>
      <trkpt lat="49.97657" lon="2.28076">
        <ele>86.8</ele>
        <time>2022-12-28T13:29:08Z</time>
      </trkpt>
      <trkpt lat="49.97656" lon="2.28075">
        <ele>86.7</ele>
        <time>2022-12-28T13:29:09Z</time>
      </trkpt>
      <trkpt lat="49.97654" lon="2.28074">
        <ele>86.6</ele>
        <time>2022-12-28T13:29:10Z</time>
      </trkpt>
      <trkpt lat="49.97654" lon="2.28073">
        <ele>86.6</ele>
        <time>2022-12-28T13:29:11Z</time>
      </trkpt>
      <trkpt lat="49.97653" lon="2.28073">
        <ele>86.6</ele>
        <time>2022-12-28T13:29:12Z</time>
      </trkpt>
      <trkpt lat="49.97652" lon="2.28072">
        <ele>86.5</ele>
        <time>2022-12-28T13:29:13Z</time>
      </trkpt>
      <trkpt lat="49.9765" lon="2.2807">
        <ele>86.5</ele>
        <time>2022-12-28T13:29:14Z</time>
      </trkpt>
      <trkpt lat="49.9765" lon="2.2807">
        <ele>86.4</ele>
        <time>2022-12-28T13:29:15Z</time>
      </trkpt>
      <trkpt lat="49.97649" lon="2.28069">
        <ele>86.4</ele>
        <time>2022-12-28T13:29:16Z</time>
      </trkpt>
      <trkpt lat="49.97648" lon="2.28068">
        <ele>86.3</ele>
        <time>2022-12-28T13:29:18Z</time>
      </trkpt>
      <trkpt lat="49.97647" lon="2.28067">
        <ele>86.3</ele>
        <time>2022-12-28T13:29:19Z</time>
      </trkpt>
      <trkpt lat="49.97646" lon="2.28066">
        <ele>86.3</ele>
        <time>2022-12-28T13:29:20Z</time>
      </trkpt>
      <trkpt lat="49.97645" lon="2.28066">
        <ele>86.2</ele>
        <time>2022-12-28T13:29:21Z</time>
      </trkpt>
      <trkpt lat="49.97643" lon="2.28064">
        <ele>86.1</ele>
        <time>2022-12-28T13:29:22Z</time>
      </trkpt>
      <trkpt lat="49.97642" lon="2.28064">
        <ele>86.1</ele>
        <time>2022-12-28T13:29:23Z</time>
      </trkpt>
      <trkpt lat="49.97642" lon="2.28063">
        <ele>86.1</ele>
        <time>2022-12-28T13:29:24Z</time>
      </trkpt>
      <trkpt lat="49.97641" lon="2.28062">
        <ele>86</ele>
        <time>2022-12-28T13:29:25Z</time>
      </trkpt>
      <trkpt lat="49.9764" lon="2.28061">
        <ele>86</ele>
        <time>2022-12-28T13:29:27Z</time>
      </trkpt>
      <trkpt lat="49.97639" lon="2.2806">
        <ele>85.9</ele>
        <time>2022-12-28T13:29:28Z</time>
      </trkpt>
      <trkpt lat="49.97637" lon="2.28059">
        <ele>85.9</ele>
        <time>2022-12-28T13:29:29Z</time>
      </trkpt>
      <trkpt lat="49.97636" lon="2.28059">
        <ele>85.8</ele>
        <time>2022-12-28T13:29:30Z</time>
      </trkpt>
      <trkpt lat="49.97635" lon="2.28059">
        <ele>85.8</ele>
        <time>2022-12-28T13:29:31Z</time>
      </trkpt>
      <trkpt lat="49.97633" lon="2.28058">
        <ele>85.7</ele>
        <time>2022-12-28T13:29:32Z</time>
      </trkpt>
      <trkpt lat="49.97632" lon="2.28058">
        <ele>85.7</ele>
        <time>2022-12-28T13:29:33Z</time>
      </trkpt>
      <trkpt lat="49.97631" lon="2.28057">
        <ele>85.6</ele>
        <time>2022-12-28T13:29:34Z</time>
      </trkpt>
      <trkpt lat="49.9763" lon="2.28057">
        <ele>85.6</ele>
        <time>2022-12-28T13:29:35Z</time>
      </trkpt>
      <trkpt lat="49.97629" lon="2.28056">
        <ele>85.5</ele>
        <time>2022-12-28T13:29:37Z</time>
      </trkpt>
      <trkpt lat="49.97628" lon="2.28055">
        <ele>85.5</ele>
        <time>2022-12-28T13:29:38Z</time>
      </trkpt>
      <trkpt lat="49.97628" lon="2.28056">
        <ele>85.5</ele>
        <time>2022-12-28T13:29:39Z</time>
      </trkpt>
      <trkpt lat="49.97627" lon="2.28056">
        <ele>85.4</ele>
        <time>2022-12-28T13:29:40Z</time>
      </trkpt>
      <trkpt lat="49.97626" lon="2.28056">
        <ele>85.4</ele>
        <time>2022-12-28T13:29:41Z</time>
      </trkpt>
      <trkpt lat="49.97624" lon="2.28055">
        <ele>85.3</ele>
        <time>2022-12-28T13:29:42Z</time>
      </trkpt>
      <trkpt lat="49.97623" lon="2.28054">
        <ele>85.3</ele>
        <time>2022-12-28T13:29:43Z</time>
      </trkpt>
      <trkpt lat="49.97622" lon="2.28054">
        <ele>85.3</ele>
        <time>2022-12-28T13:29:44Z</time>
      </trkpt>
      <trkpt lat="49.97621" lon="2.28053">
        <ele>85.3</ele>
        <time>2022-12-28T13:29:46Z</time>
      </trkpt>
      <trkpt lat="49.9762" lon="2.28053">
        <ele>85.2</ele>
        <time>2022-12-28T13:29:47Z</time>
      </trkpt>
      <trkpt lat="49.97619" lon="2.28053">
        <ele>85.2</ele>
        <time>2022-12-28T13:29:48Z</time>
      </trkpt>
      <trkpt lat="49.97618" lon="2.28052">
        <ele>85.2</ele>
        <time>2022-12-28T13:29:49Z</time>
      </trkpt>
      <trkpt lat="49.97618" lon="2.28051">
        <ele>85.1</ele>
        <time>2022-12-28T13:29:50Z</time>
      </trkpt>
      <trkpt lat="49.97617" lon="2.2805">
        <ele>85.1</ele>
        <time>2022-12-28T13:29:51Z</time>
      </trkpt>
      <trkpt lat="49.97615" lon="2.28048">
        <ele>85</ele>
        <time>2022-12-28T13:29:52Z</time>
      </trkpt>
      <trkpt lat="49.97615" lon="2.28048">
        <ele>85</ele>
        <time>2022-12-28T13:29:54Z</time>
      </trkpt>
      <trkpt lat="49.97614" lon="2.28048">
        <ele>85</ele>
        <time>2022-12-28T13:29:55Z</time>
      </trkpt>
      <trkpt lat="49.97613" lon="2.28048">
        <ele>84.9</ele>
        <time>2022-12-28T13:29:56Z</time>
      </trkpt>
      <trkpt lat="49.97612" lon="2.28047">
        <ele>84.9</ele>
        <time>2022-12-28T13:29:57Z</time>
      </trkpt>
      <trkpt lat="49.97611" lon="2.28047">
        <ele>84.9</ele>
        <time>2022-12-28T13:29:58Z</time>
      </trkpt>
      <trkpt lat="49.97609" lon="2.28046">
        <ele>84.8</ele>
        <time>2022-12-28T13:29:59Z</time>
      </trkpt>
      <trkpt lat="49.97608" lon="2.28046">
        <ele>84.7</ele>
        <time>2022-12-28T13:30:01Z</time>
      </trkpt>
      <trkpt lat="49.97607" lon="2.28045">
        <ele>84.7</ele>
        <time>2022-12-28T13:30:02Z</time>
      </trkpt>
      <trkpt lat="49.97606" lon="2.28044">
        <ele>84.7</ele>
        <time>2022-12-28T13:30:03Z</time>
      </trkpt>
      <trkpt lat="49.97605" lon="2.28044">
        <ele>84.6</ele>
        <time>2022-12-28T13:30:04Z</time>
      </trkpt>
      <trkpt lat="49.97603" lon="2.28042">
        <ele>84.5</ele>
        <time>2022-12-28T13:30:05Z</time>
      </trkpt>
      <trkpt lat="49.97602" lon="2.28042">
        <ele>84.5</ele>
        <time>2022-12-28T13:30:06Z</time>
      </trkpt>
      <trkpt lat="49.97601" lon="2.28041">
        <ele>84.5</ele>
        <time>2022-12-28T13:30:07Z</time>
      </trkpt>
      <trkpt lat="49.976" lon="2.2804">
        <ele>84.4</ele>
        <time>2022-12-28T13:30:09Z</time>
      </trkpt>
      <trkpt lat="49.97598" lon="2.28039">
        <ele>84.4</ele>
        <time>2022-12-28T13:30:10Z</time>
      </trkpt>
      <trkpt lat="49.97597" lon="2.28039">
        <ele>84.3</ele>
        <time>2022-12-28T13:30:11Z</time>
      </trkpt>
      <trkpt lat="49.97596" lon="2.28039">
        <ele>84.3</ele>
        <time>2022-12-28T13:30:12Z</time>
      </trkpt>
      <trkpt lat="49.97596" lon="2.28039">
        <ele>84.3</ele>
        <time>2022-12-28T13:30:13Z</time>
      </trkpt>
      <trkpt lat="49.97595" lon="2.28038">
        <ele>84.2</ele>
        <time>2022-12-28T13:30:14Z</time>
      </trkpt>
      <trkpt lat="49.97593" lon="2.28038">
        <ele>84.2</ele>
        <time>2022-12-28T13:30:15Z</time>
      </trkpt>
      <trkpt lat="49.97592" lon="2.28037">
        <ele>84.1</ele>
        <time>2022-12-28T13:30:16Z</time>
      </trkpt>
      <trkpt lat="49.97591" lon="2.28036">
        <ele>84.1</ele>
        <time>2022-12-28T13:30:18Z</time>
      </trkpt>
      <trkpt lat="49.9759" lon="2.28035">
        <ele>84.1</ele>
        <time>2022-12-28T13:30:19Z</time>
      </trkpt>
      <trkpt lat="49.97589" lon="2.28034">
        <ele>84</ele>
        <time>2022-12-28T13:30:20Z</time>
      </trkpt>
      <trkpt lat="49.97588" lon="2.28034">
        <ele>84</ele>
        <time>2022-12-28T13:30:21Z</time>
      </trkpt>
      <trkpt lat="49.97587" lon="2.28033">
        <ele>84</ele>
        <time>2022-12-28T13:30:22Z</time>
      </trkpt>
      <trkpt lat="49.97586" lon="2.28033">
        <ele>84</ele>
        <time>2022-12-28T13:30:23Z</time>
      </trkpt>
      <trkpt lat="49.97584" lon="2.28031">
        <ele>83.9</ele>
        <time>2022-12-28T13:30:25Z</time>
      </trkpt>
      <trkpt lat="49.97583" lon="2.28031">
        <ele>83.9</ele>
        <time>2022-12-28T13:30:26Z</time>
      </trkpt>
      <trkpt lat="49.97582" lon="2.2803">
        <ele>83.8</ele>
        <time>2022-12-28T13:30:27Z</time>
      </trkpt>
      <trkpt lat="49.97581" lon="2.2803">
        <ele>83.8</ele>
        <time>2022-12-28T13:30:28Z</time>
      </trkpt>
      <trkpt lat="49.9758" lon="2.28029">
        <ele>83.8</ele>
        <time>2022-12-28T13:30:29Z</time>
      </trkpt>
      <trkpt lat="49.97578" lon="2.28027">
        <ele>83.7</ele>
        <time>2022-12-28T13:30:30Z</time>
      </trkpt>
      <trkpt lat="49.97577" lon="2.28026">
        <ele>83.7</ele>
        <time>2022-12-28T13:30:32Z</time>
      </trkpt>
      <trkpt lat="49.97576" lon="2.28026">
        <ele>83.7</ele>
        <time>2022-12-28T13:30:33Z</time>
      </trkpt>
      <trkpt lat="49.97575" lon="2.28025">
        <ele>83.6</ele>
        <time>2022-12-28T13:30:34Z</time>
      </trkpt>
      <trkpt lat="49.97574" lon="2.28024">
        <ele>83.6</ele>
        <time>2022-12-28T13:30:35Z</time>
      </trkpt>
      <trkpt lat="49.97573" lon="2.28023">
        <ele>83.6</ele>
        <time>2022-12-28T13:30:37Z</time>
      </trkpt>
      <trkpt lat="49.97572" lon="2.28022">
        <ele>83.5</ele>
        <time>2022-12-28T13:30:38Z</time>
      </trkpt>
      <trkpt lat="49.9757" lon="2.28021">
        <ele>83.5</ele>
        <time>2022-12-28T13:30:39Z</time>
      </trkpt>
      <trkpt lat="49.97568" lon="2.2802">
        <ele>83.5</ele>
        <time>2022-12-28T13:30:40Z</time>
      </trkpt>
      <trkpt lat="49.97567" lon="2.2802">
        <ele>83.4</ele>
        <time>2022-12-28T13:30:41Z</time>
      </trkpt>
      <trkpt lat="49.97566" lon="2.28019">
        <ele>83.4</ele>
        <time>2022-12-28T13:30:42Z</time>
      </trkpt>
      <trkpt lat="49.97565" lon="2.28018">
        <ele>83.4</ele>
        <time>2022-12-28T13:30:43Z</time>
      </trkpt>
      <trkpt lat="49.97564" lon="2.28017">
        <ele>83.3</ele>
        <time>2022-12-28T13:30:44Z</time>
      </trkpt>
      <trkpt lat="49.97562" lon="2.28016">
        <ele>83.3</ele>
        <time>2022-12-28T13:30:45Z</time>
      </trkpt>
      <trkpt lat="49.9756" lon="2.28014">
        <ele>83.2</ele>
        <time>2022-12-28T13:30:46Z</time>
      </trkpt>
      <trkpt lat="49.9756" lon="2.28014">
        <ele>83.2</ele>
        <time>2022-12-28T13:30:48Z</time>
      </trkpt>
      <trkpt lat="49.97559" lon="2.28013">
        <ele>83.2</ele>
        <time>2022-12-28T13:30:49Z</time>
      </trkpt>
      <trkpt lat="49.97557" lon="2.28011">
        <ele>83.1</ele>
        <time>2022-12-28T13:30:50Z</time>
      </trkpt>
      <trkpt lat="49.97556" lon="2.2801">
        <ele>83.1</ele>
        <time>2022-12-28T13:30:51Z</time>
      </trkpt>
      <trkpt lat="49.97554" lon="2.28009">
        <ele>83.1</ele>
        <time>2022-12-28T13:30:53Z</time>
      </trkpt>
      <trkpt lat="49.97553" lon="2.28008">
        <ele>83</ele>
        <time>2022-12-28T13:30:54Z</time>
      </trkpt>
      <trkpt lat="49.97552" lon="2.28007">
        <ele>83</ele>
        <time>2022-12-28T13:30:55Z</time>
      </trkpt>
      <trkpt lat="49.97551" lon="2.28007">
        <ele>83</ele>
        <time>2022-12-28T13:30:57Z</time>
      </trkpt>
      <trkpt lat="49.9755" lon="2.28006">
        <ele>82.9</ele>
        <time>2022-12-28T13:30:58Z</time>
      </trkpt>
      <trkpt lat="49.97549" lon="2.28006">
        <ele>82.9</ele>
        <time>2022-12-28T13:30:59Z</time>
      </trkpt>
      <trkpt lat="49.97547" lon="2.28004">
        <ele>82.8</ele>
        <time>2022-12-28T13:31:00Z</time>
      </trkpt>
      <trkpt lat="49.97546" lon="2.28004">
        <ele>82.8</ele>
        <time>2022-12-28T13:31:01Z</time>
      </trkpt>
      <trkpt lat="49.97545" lon="2.28004">
        <ele>82.8</ele>
        <time>2022-12-28T13:31:02Z</time>
      </trkpt>
      <trkpt lat="49.97544" lon="2.28003">
        <ele>82.7</ele>
        <time>2022-12-28T13:31:03Z</time>
      </trkpt>
      <trkpt lat="49.97543" lon="2.28002">
        <ele>82.7</ele>
        <time>2022-12-28T13:31:04Z</time>
      </trkpt>
      <trkpt lat="49.97541" lon="2.28001">
        <ele>82.6</ele>
        <time>2022-12-28T13:31:05Z</time>
      </trkpt>
      <trkpt lat="49.9754" lon="2.28001">
        <ele>82.6</ele>
        <time>2022-12-28T13:31:07Z</time>
      </trkpt>
      <trkpt lat="49.97539" lon="2.28">
        <ele>82.6</ele>
        <time>2022-12-28T13:31:08Z</time>
      </trkpt>
      <trkpt lat="49.97537" lon="2.28">
        <ele>82.5</ele>
        <time>2022-12-28T13:31:09Z</time>
      </trkpt>
      <trkpt lat="49.97535" lon="2.27999">
        <ele>82.4</ele>
        <time>2022-12-28T13:31:10Z</time>
      </trkpt>
      <trkpt lat="49.97535" lon="2.27999">
        <ele>82.4</ele>
        <time>2022-12-28T13:31:11Z</time>
      </trkpt>
      <trkpt lat="49.97533" lon="2.27997">
        <ele>82.3</ele>
        <time>2022-12-28T13:31:12Z</time>
      </trkpt>
      <trkpt lat="49.97532" lon="2.27997">
        <ele>82.3</ele>
        <time>2022-12-28T13:31:13Z</time>
      </trkpt>
      <trkpt lat="49.97531" lon="2.27997">
        <ele>82.3</ele>
        <time>2022-12-28T13:31:14Z</time>
      </trkpt>
      <trkpt lat="49.97528" lon="2.27995">
        <ele>82.2</ele>
        <time>2022-12-28T13:31:15Z</time>
      </trkpt>
      <trkpt lat="49.97527" lon="2.27995">
        <ele>82.1</ele>
        <time>2022-12-28T13:31:17Z</time>
      </trkpt>
      <trkpt lat="49.97526" lon="2.27994">
        <ele>82.1</ele>
        <time>2022-12-28T13:31:18Z</time>
      </trkpt>
      <trkpt lat="49.97525" lon="2.27993">
        <ele>82.1</ele>
        <time>2022-12-28T13:31:19Z</time>
      </trkpt>
      <trkpt lat="49.97524" lon="2.27993">
        <ele>82</ele>
        <time>2022-12-28T13:31:20Z</time>
      </trkpt>
      <trkpt lat="49.97523" lon="2.27993">
        <ele>82</ele>
        <time>2022-12-28T13:31:21Z</time>
      </trkpt>
      <trkpt lat="49.97522" lon="2.27992">
        <ele>81.9</ele>
        <time>2022-12-28T13:31:22Z</time>
      </trkpt>
      <trkpt lat="49.97521" lon="2.27991">
        <ele>81.9</ele>
        <time>2022-12-28T13:31:23Z</time>
      </trkpt>
      <trkpt lat="49.97519" lon="2.27989">
        <ele>81.8</ele>
        <time>2022-12-28T13:31:24Z</time>
      </trkpt>
      <trkpt lat="49.97517" lon="2.27988">
        <ele>81.8</ele>
        <time>2022-12-28T13:31:26Z</time>
      </trkpt>
      <trkpt lat="49.97516" lon="2.27988">
        <ele>81.7</ele>
        <time>2022-12-28T13:31:27Z</time>
      </trkpt>
      <trkpt lat="49.97515" lon="2.27987">
        <ele>81.7</ele>
        <time>2022-12-28T13:31:28Z</time>
      </trkpt>
      <trkpt lat="49.97514" lon="2.27986">
        <ele>81.6</ele>
        <time>2022-12-28T13:31:29Z</time>
      </trkpt>
      <trkpt lat="49.97513" lon="2.27985">
        <ele>81.6</ele>
        <time>2022-12-28T13:31:31Z</time>
      </trkpt>
      <trkpt lat="49.97511" lon="2.27985">
        <ele>81.6</ele>
        <time>2022-12-28T13:31:32Z</time>
      </trkpt>
      <trkpt lat="49.9751" lon="2.27984">
        <ele>81.5</ele>
        <time>2022-12-28T13:31:33Z</time>
      </trkpt>
      <trkpt lat="49.97509" lon="2.27984">
        <ele>81.5</ele>
        <time>2022-12-28T13:31:34Z</time>
      </trkpt>
      <trkpt lat="49.97508" lon="2.27983">
        <ele>81.5</ele>
        <time>2022-12-28T13:31:35Z</time>
      </trkpt>
      <trkpt lat="49.97506" lon="2.27982">
        <ele>81.4</ele>
        <time>2022-12-28T13:31:36Z</time>
      </trkpt>
      <trkpt lat="49.97505" lon="2.27981">
        <ele>81.4</ele>
        <time>2022-12-28T13:31:37Z</time>
      </trkpt>
      <trkpt lat="49.97504" lon="2.27981">
        <ele>81.3</ele>
        <time>2022-12-28T13:31:38Z</time>
      </trkpt>
      <trkpt lat="49.97502" lon="2.2798">
        <ele>81.3</ele>
        <time>2022-12-28T13:31:39Z</time>
      </trkpt>
      <trkpt lat="49.97501" lon="2.27979">
        <ele>81.3</ele>
        <time>2022-12-28T13:31:41Z</time>
      </trkpt>
      <trkpt lat="49.975" lon="2.27978">
        <ele>81.2</ele>
        <time>2022-12-28T13:31:42Z</time>
      </trkpt>
      <trkpt lat="49.97499" lon="2.27978">
        <ele>81.2</ele>
        <time>2022-12-28T13:31:43Z</time>
      </trkpt>
      <trkpt lat="49.97498" lon="2.27977">
        <ele>81.2</ele>
        <time>2022-12-28T13:31:44Z</time>
      </trkpt>
      <trkpt lat="49.97497" lon="2.27976">
        <ele>81.1</ele>
        <time>2022-12-28T13:31:45Z</time>
      </trkpt>
      <trkpt lat="49.97496" lon="2.27975">
        <ele>81.1</ele>
        <time>2022-12-28T13:31:46Z</time>
      </trkpt>
      <trkpt lat="49.97494" lon="2.27975">
        <ele>81.1</ele>
        <time>2022-12-28T13:31:47Z</time>
      </trkpt>
      <trkpt lat="49.97493" lon="2.27974">
        <ele>81</ele>
        <time>2022-12-28T13:31:48Z</time>
      </trkpt>
      <trkpt lat="49.97491" lon="2.27972">
        <ele>81</ele>
        <time>2022-12-28T13:31:49Z</time>
      </trkpt>
      <trkpt lat="49.9749" lon="2.27972">
        <ele>80.9</ele>
        <time>2022-12-28T13:31:51Z</time>
      </trkpt>
      <trkpt lat="49.97489" lon="2.27971">
        <ele>80.9</ele>
        <time>2022-12-28T13:31:52Z</time>
      </trkpt>
      <trkpt lat="49.97488" lon="2.27971">
        <ele>80.9</ele>
        <time>2022-12-28T13:31:53Z</time>
      </trkpt>
      <trkpt lat="49.97487" lon="2.2797">
        <ele>80.9</ele>
        <time>2022-12-28T13:31:54Z</time>
      </trkpt>
      <trkpt lat="49.97485" lon="2.27969">
        <ele>80.8</ele>
        <time>2022-12-28T13:31:55Z</time>
      </trkpt>
      <trkpt lat="49.97484" lon="2.27969">
        <ele>80.8</ele>
        <time>2022-12-28T13:31:56Z</time>
      </trkpt>
      <trkpt lat="49.97482" lon="2.27968">
        <ele>80.8</ele>
        <time>2022-12-28T13:31:57Z</time>
      </trkpt>
      <trkpt lat="49.97481" lon="2.27968">
        <ele>80.7</ele>
        <time>2022-12-28T13:31:58Z</time>
      </trkpt>
      <trkpt lat="49.9748" lon="2.27967">
        <ele>80.7</ele>
        <time>2022-12-28T13:31:59Z</time>
      </trkpt>
      <trkpt lat="49.97478" lon="2.27966">
        <ele>80.7</ele>
        <time>2022-12-28T13:32:01Z</time>
      </trkpt>
      <trkpt lat="49.97477" lon="2.27966">
        <ele>80.6</ele>
        <time>2022-12-28T13:32:02Z</time>
      </trkpt>
      <trkpt lat="49.97476" lon="2.27965">
        <ele>80.6</ele>
        <time>2022-12-28T13:32:03Z</time>
      </trkpt>
      <trkpt lat="49.97475" lon="2.27965">
        <ele>80.6</ele>
        <time>2022-12-28T13:32:04Z</time>
      </trkpt>
      <trkpt lat="49.97474" lon="2.27964">
        <ele>80.6</ele>
        <time>2022-12-28T13:32:05Z</time>
      </trkpt>
      <trkpt lat="49.97472" lon="2.27964">
        <ele>80.5</ele>
        <time>2022-12-28T13:32:06Z</time>
      </trkpt>
      <trkpt lat="49.97471" lon="2.27964">
        <ele>80.5</ele>
        <time>2022-12-28T13:32:07Z</time>
      </trkpt>
      <trkpt lat="49.9747" lon="2.27963">
        <ele>80.5</ele>
        <time>2022-12-28T13:32:08Z</time>
      </trkpt>
      <trkpt lat="49.97468" lon="2.27963">
        <ele>80.4</ele>
        <time>2022-12-28T13:32:10Z</time>
      </trkpt>
      <trkpt lat="49.97466" lon="2.27962">
        <ele>80.4</ele>
        <time>2022-12-28T13:32:11Z</time>
      </trkpt>
      <trkpt lat="49.97466" lon="2.27962">
        <ele>80.4</ele>
        <time>2022-12-28T13:32:12Z</time>
      </trkpt>
      <trkpt lat="49.97465" lon="2.27961">
        <ele>80.3</ele>
        <time>2022-12-28T13:32:13Z</time>
      </trkpt>
      <trkpt lat="49.97464" lon="2.2796">
        <ele>80.3</ele>
        <time>2022-12-28T13:32:14Z</time>
      </trkpt>
      <trkpt lat="49.97462" lon="2.27959">
        <ele>80.3</ele>
        <time>2022-12-28T13:32:15Z</time>
      </trkpt>
      <trkpt lat="49.9746" lon="2.27958">
        <ele>80.2</ele>
        <time>2022-12-28T13:32:16Z</time>
      </trkpt>
      <trkpt lat="49.97459" lon="2.27957">
        <ele>80.2</ele>
        <time>2022-12-28T13:32:17Z</time>
      </trkpt>
      <trkpt lat="49.97459" lon="2.27956">
        <ele>80.2</ele>
        <time>2022-12-28T13:32:19Z</time>
      </trkpt>
      <trkpt lat="49.97458" lon="2.27956">
        <ele>80.2</ele>
        <time>2022-12-28T13:32:20Z</time>
      </trkpt>
      <trkpt lat="49.97457" lon="2.27955">
        <ele>80.2</ele>
        <time>2022-12-28T13:32:21Z</time>
      </trkpt>
      <trkpt lat="49.97456" lon="2.27954">
        <ele>80.2</ele>
        <time>2022-12-28T13:32:22Z</time>
      </trkpt>
      <trkpt lat="49.97455" lon="2.27953">
        <ele>80.1</ele>
        <time>2022-12-28T13:32:24Z</time>
      </trkpt>
      <trkpt lat="49.97453" lon="2.27952">
        <ele>80.1</ele>
        <time>2022-12-28T13:32:25Z</time>
      </trkpt>
      <trkpt lat="49.97452" lon="2.27951">
        <ele>80.1</ele>
        <time>2022-12-28T13:32:26Z</time>
      </trkpt>
      <trkpt lat="49.97451" lon="2.2795">
        <ele>80.1</ele>
        <time>2022-12-28T13:32:27Z</time>
      </trkpt>
      <trkpt lat="49.9745" lon="2.27949">
        <ele>80.1</ele>
        <time>2022-12-28T13:32:28Z</time>
      </trkpt>
      <trkpt lat="49.97449" lon="2.27948">
        <ele>80</ele>
        <time>2022-12-28T13:32:29Z</time>
      </trkpt>
      <trkpt lat="49.97448" lon="2.27948">
        <ele>80</ele>
        <time>2022-12-28T13:32:30Z</time>
      </trkpt>
      <trkpt lat="49.97446" lon="2.27947">
        <ele>80</ele>
        <time>2022-12-28T13:32:31Z</time>
      </trkpt>
      <trkpt lat="49.97445" lon="2.27946">
        <ele>80</ele>
        <time>2022-12-28T13:32:32Z</time>
      </trkpt>
      <trkpt lat="49.97443" lon="2.27944">
        <ele>79.9</ele>
        <time>2022-12-28T13:32:34Z</time>
      </trkpt>
      <trkpt lat="49.97442" lon="2.27944">
        <ele>79.9</ele>
        <time>2022-12-28T13:32:35Z</time>
      </trkpt>
      <trkpt lat="49.97441" lon="2.27943">
        <ele>79.9</ele>
        <time>2022-12-28T13:32:36Z</time>
      </trkpt>
      <trkpt lat="49.97439" lon="2.27943">
        <ele>79.8</ele>
        <time>2022-12-28T13:32:37Z</time>
      </trkpt>
      <trkpt lat="49.97439" lon="2.27942">
        <ele>79.8</ele>
        <time>2022-12-28T13:32:39Z</time>
      </trkpt>
      <trkpt lat="49.97438" lon="2.27942">
        <ele>79.8</ele>
        <time>2022-12-28T13:32:40Z</time>
      </trkpt>
      <trkpt lat="49.97436" lon="2.27941">
        <ele>79.7</ele>
        <time>2022-12-28T13:32:41Z</time>
      </trkpt>
      <trkpt lat="49.97435" lon="2.2794">
        <ele>79.7</ele>
        <time>2022-12-28T13:32:42Z</time>
      </trkpt>
      <trkpt lat="49.97433" lon="2.27939">
        <ele>79.6</ele>
        <time>2022-12-28T13:32:43Z</time>
      </trkpt>
      <trkpt lat="49.97432" lon="2.27939">
        <ele>79.6</ele>
        <time>2022-12-28T13:32:44Z</time>
      </trkpt>
      <trkpt lat="49.97431" lon="2.27938">
        <ele>79.6</ele>
        <time>2022-12-28T13:32:45Z</time>
      </trkpt>
      <trkpt lat="49.9743" lon="2.27937">
        <ele>79.5</ele>
        <time>2022-12-28T13:32:46Z</time>
      </trkpt>
      <trkpt lat="49.97429" lon="2.27937">
        <ele>79.5</ele>
        <time>2022-12-28T13:32:47Z</time>
      </trkpt>
      <trkpt lat="49.97426" lon="2.27935">
        <ele>79.4</ele>
        <time>2022-12-28T13:32:49Z</time>
      </trkpt>
      <trkpt lat="49.97425" lon="2.27934">
        <ele>79.4</ele>
        <time>2022-12-28T13:32:50Z</time>
      </trkpt>
      <trkpt lat="49.97424" lon="2.27934">
        <ele>79.4</ele>
        <time>2022-12-28T13:32:51Z</time>
      </trkpt>
      <trkpt lat="49.97423" lon="2.27932">
        <ele>79.3</ele>
        <time>2022-12-28T13:32:52Z</time>
      </trkpt>
      <trkpt lat="49.97422" lon="2.27932">
        <ele>79.3</ele>
        <time>2022-12-28T13:32:53Z</time>
      </trkpt>
      <trkpt lat="49.97421" lon="2.27931">
        <ele>79.3</ele>
        <time>2022-12-28T13:32:54Z</time>
      </trkpt>
      <trkpt lat="49.9742" lon="2.2793">
        <ele>79.2</ele>
        <time>2022-12-28T13:32:55Z</time>
      </trkpt>
      <trkpt lat="49.97418" lon="2.27929">
        <ele>79.1</ele>
        <time>2022-12-28T13:32:56Z</time>
      </trkpt>
      <trkpt lat="49.97416" lon="2.27928">
        <ele>79.1</ele>
        <time>2022-12-28T13:32:57Z</time>
      </trkpt>
      <trkpt lat="49.97415" lon="2.27927">
        <ele>79</ele>
        <time>2022-12-28T13:32:59Z</time>
      </trkpt>
      <trkpt lat="49.97414" lon="2.27927">
        <ele>79</ele>
        <time>2022-12-28T13:33:00Z</time>
      </trkpt>
      <trkpt lat="49.97413" lon="2.27926">
        <ele>78.9</ele>
        <time>2022-12-28T13:33:01Z</time>
      </trkpt>
      <trkpt lat="49.97412" lon="2.27926">
        <ele>78.9</ele>
        <time>2022-12-28T13:33:02Z</time>
      </trkpt>
      <trkpt lat="49.9741" lon="2.27925">
        <ele>78.8</ele>
        <time>2022-12-28T13:33:03Z</time>
      </trkpt>
      <trkpt lat="49.97409" lon="2.27924">
        <ele>78.8</ele>
        <time>2022-12-28T13:33:04Z</time>
      </trkpt>
      <trkpt lat="49.97408" lon="2.27924">
        <ele>78.7</ele>
        <time>2022-12-28T13:33:05Z</time>
      </trkpt>
      <trkpt lat="49.97406" lon="2.27923">
        <ele>78.7</ele>
        <time>2022-12-28T13:33:06Z</time>
      </trkpt>
      <trkpt lat="49.97405" lon="2.27922">
        <ele>78.6</ele>
        <time>2022-12-28T13:33:07Z</time>
      </trkpt>
      <trkpt lat="49.97403" lon="2.27922">
        <ele>78.6</ele>
        <time>2022-12-28T13:33:08Z</time>
      </trkpt>
      <trkpt lat="49.97402" lon="2.27921">
        <ele>78.5</ele>
        <time>2022-12-28T13:33:10Z</time>
      </trkpt>
      <trkpt lat="49.974" lon="2.27921">
        <ele>78.4</ele>
        <time>2022-12-28T13:33:11Z</time>
      </trkpt>
      <trkpt lat="49.97398" lon="2.2792">
        <ele>78.3</ele>
        <time>2022-12-28T13:33:12Z</time>
      </trkpt>
      <trkpt lat="49.97397" lon="2.2792">
        <ele>78.3</ele>
        <time>2022-12-28T13:33:13Z</time>
      </trkpt>
      <trkpt lat="49.97397" lon="2.27919">
        <ele>78.3</ele>
        <time>2022-12-28T13:33:14Z</time>
      </trkpt>
      <trkpt lat="49.97395" lon="2.27919">
        <ele>78.2</ele>
        <time>2022-12-28T13:33:15Z</time>
      </trkpt>
      <trkpt lat="49.97394" lon="2.27918">
        <ele>78.1</ele>
        <time>2022-12-28T13:33:16Z</time>
      </trkpt>
      <trkpt lat="49.97393" lon="2.27917">
        <ele>78.1</ele>
        <time>2022-12-28T13:33:17Z</time>
      </trkpt>
      <trkpt lat="49.97391" lon="2.27916">
        <ele>78</ele>
        <time>2022-12-28T13:33:19Z</time>
      </trkpt>
      <trkpt lat="49.9739" lon="2.27916">
        <ele>78</ele>
        <time>2022-12-28T13:33:20Z</time>
      </trkpt>
      <trkpt lat="49.97389" lon="2.27915">
        <ele>77.9</ele>
        <time>2022-12-28T13:33:21Z</time>
      </trkpt>
      <trkpt lat="49.97388" lon="2.27914">
        <ele>77.9</ele>
        <time>2022-12-28T13:33:22Z</time>
      </trkpt>
      <trkpt lat="49.97387" lon="2.27913">
        <ele>77.8</ele>
        <time>2022-12-28T13:33:23Z</time>
      </trkpt>
      <trkpt lat="49.97385" lon="2.27913">
        <ele>77.8</ele>
        <time>2022-12-28T13:33:24Z</time>
      </trkpt>
      <trkpt lat="49.97384" lon="2.27912">
        <ele>77.7</ele>
        <time>2022-12-28T13:33:26Z</time>
      </trkpt>
      <trkpt lat="49.97383" lon="2.27911">
        <ele>77.7</ele>
        <time>2022-12-28T13:33:27Z</time>
      </trkpt>
      <trkpt lat="49.97381" lon="2.2791">
        <ele>77.6</ele>
        <time>2022-12-28T13:33:28Z</time>
      </trkpt>
      <trkpt lat="49.97379" lon="2.27909">
        <ele>77.5</ele>
        <time>2022-12-28T13:33:29Z</time>
      </trkpt>
      <trkpt lat="49.97378" lon="2.27908">
        <ele>77.5</ele>
        <time>2022-12-28T13:33:30Z</time>
      </trkpt>
      <trkpt lat="49.97377" lon="2.27907">
        <ele>77.5</ele>
        <time>2022-12-28T13:33:31Z</time>
      </trkpt>
      <trkpt lat="49.97377" lon="2.27907">
        <ele>77.4</ele>
        <time>2022-12-28T13:33:32Z</time>
      </trkpt>
      <trkpt lat="49.97376" lon="2.27906">
        <ele>77.4</ele>
        <time>2022-12-28T13:33:33Z</time>
      </trkpt>
      <trkpt lat="49.97374" lon="2.27906">
        <ele>77.4</ele>
        <time>2022-12-28T13:33:34Z</time>
      </trkpt>
      <trkpt lat="49.97373" lon="2.27905">
        <ele>77.3</ele>
        <time>2022-12-28T13:33:36Z</time>
      </trkpt>
      <trkpt lat="49.97372" lon="2.27904">
        <ele>77.3</ele>
        <time>2022-12-28T13:33:37Z</time>
      </trkpt>
      <trkpt lat="49.97371" lon="2.27903">
        <ele>77.3</ele>
        <time>2022-12-28T13:33:38Z</time>
      </trkpt>
      <trkpt lat="49.9737" lon="2.27903">
        <ele>77.2</ele>
        <time>2022-12-28T13:33:39Z</time>
      </trkpt>
      <trkpt lat="49.97368" lon="2.27902">
        <ele>77.2</ele>
        <time>2022-12-28T13:33:40Z</time>
      </trkpt>
      <trkpt lat="49.97367" lon="2.27901">
        <ele>77.2</ele>
        <time>2022-12-28T13:33:41Z</time>
      </trkpt>
      <trkpt lat="49.97366" lon="2.27901">
        <ele>77.2</ele>
        <time>2022-12-28T13:33:42Z</time>
      </trkpt>
      <trkpt lat="49.97366" lon="2.279">
        <ele>77.1</ele>
        <time>2022-12-28T13:33:43Z</time>
      </trkpt>
      <trkpt lat="49.97365" lon="2.27899">
        <ele>77.1</ele>
        <time>2022-12-28T13:33:44Z</time>
      </trkpt>
      <trkpt lat="49.97363" lon="2.27898">
        <ele>77.1</ele>
        <time>2022-12-28T13:33:45Z</time>
      </trkpt>
      <trkpt lat="49.97362" lon="2.27897">
        <ele>77</ele>
        <time>2022-12-28T13:33:47Z</time>
      </trkpt>
      <trkpt lat="49.97361" lon="2.27897">
        <ele>77</ele>
        <time>2022-12-28T13:33:48Z</time>
      </trkpt>
      <trkpt lat="49.9736" lon="2.27896">
        <ele>76.9</ele>
        <time>2022-12-28T13:33:49Z</time>
      </trkpt>
      <trkpt lat="49.97359" lon="2.27895">
        <ele>76.9</ele>
        <time>2022-12-28T13:33:50Z</time>
      </trkpt>
      <trkpt lat="49.97357" lon="2.27894">
        <ele>76.8</ele>
        <time>2022-12-28T13:33:51Z</time>
      </trkpt>
      <trkpt lat="49.97356" lon="2.27894">
        <ele>76.8</ele>
        <time>2022-12-28T13:33:52Z</time>
      </trkpt>
      <trkpt lat="49.97355" lon="2.27893">
        <ele>76.8</ele>
        <time>2022-12-28T13:33:53Z</time>
      </trkpt>
      <trkpt lat="49.97354" lon="2.27893">
        <ele>76.7</ele>
        <time>2022-12-28T13:33:54Z</time>
      </trkpt>
      <trkpt lat="49.97353" lon="2.27893">
        <ele>76.7</ele>
        <time>2022-12-28T13:33:55Z</time>
      </trkpt>
      <trkpt lat="49.97351" lon="2.27892">
        <ele>76.6</ele>
        <time>2022-12-28T13:33:56Z</time>
      </trkpt>
      <trkpt lat="49.9735" lon="2.27892">
        <ele>76.6</ele>
        <time>2022-12-28T13:33:58Z</time>
      </trkpt>
      <trkpt lat="49.97349" lon="2.27892">
        <ele>76.6</ele>
        <time>2022-12-28T13:33:59Z</time>
      </trkpt>
      <trkpt lat="49.97348" lon="2.27891">
        <ele>76.5</ele>
        <time>2022-12-28T13:34:00Z</time>
      </trkpt>
      <trkpt lat="49.97346" lon="2.27891">
        <ele>76.5</ele>
        <time>2022-12-28T13:34:01Z</time>
      </trkpt>
      <trkpt lat="49.97345" lon="2.2789">
        <ele>76.4</ele>
        <time>2022-12-28T13:34:02Z</time>
      </trkpt>
      <trkpt lat="49.97344" lon="2.2789">
        <ele>76.4</ele>
        <time>2022-12-28T13:34:03Z</time>
      </trkpt>
      <trkpt lat="49.97343" lon="2.27889">
        <ele>76.4</ele>
        <time>2022-12-28T13:34:04Z</time>
      </trkpt>
      <trkpt lat="49.97342" lon="2.27888">
        <ele>76.3</ele>
        <time>2022-12-28T13:34:05Z</time>
      </trkpt>
      <trkpt lat="49.97341" lon="2.27887">
        <ele>76.3</ele>
        <time>2022-12-28T13:34:06Z</time>
      </trkpt>
      <trkpt lat="49.9734" lon="2.27886">
        <ele>76.2</ele>
        <time>2022-12-28T13:34:08Z</time>
      </trkpt>
      <trkpt lat="49.97338" lon="2.27884">
        <ele>76.2</ele>
        <time>2022-12-28T13:34:09Z</time>
      </trkpt>
      <trkpt lat="49.97337" lon="2.27884">
        <ele>76.1</ele>
        <time>2022-12-28T13:34:10Z</time>
      </trkpt>
      <trkpt lat="49.97337" lon="2.27883">
        <ele>76.1</ele>
        <time>2022-12-28T13:34:11Z</time>
      </trkpt>
      <trkpt lat="49.97335" lon="2.27882">
        <ele>76</ele>
        <time>2022-12-28T13:34:12Z</time>
      </trkpt>
      <trkpt lat="49.97334" lon="2.27882">
        <ele>76</ele>
        <time>2022-12-28T13:34:13Z</time>
      </trkpt>
      <trkpt lat="49.97332" lon="2.27881">
        <ele>75.9</ele>
        <time>2022-12-28T13:34:14Z</time>
      </trkpt>
      <trkpt lat="49.97331" lon="2.2788">
        <ele>75.9</ele>
        <time>2022-12-28T13:34:15Z</time>
      </trkpt>
      <trkpt lat="49.9733" lon="2.2788">
        <ele>75.9</ele>
        <time>2022-12-28T13:34:16Z</time>
      </trkpt>
      <trkpt lat="49.97328" lon="2.27879">
        <ele>75.8</ele>
        <time>2022-12-28T13:34:18Z</time>
      </trkpt>
      <trkpt lat="49.97328" lon="2.27878">
        <ele>75.8</ele>
        <time>2022-12-28T13:34:19Z</time>
      </trkpt>
      <trkpt lat="49.97327" lon="2.27878">
        <ele>75.7</ele>
        <time>2022-12-28T13:34:20Z</time>
      </trkpt>
      <trkpt lat="49.97325" lon="2.27877">
        <ele>75.7</ele>
        <time>2022-12-28T13:34:21Z</time>
      </trkpt>
      <trkpt lat="49.97324" lon="2.27876">
        <ele>75.6</ele>
        <time>2022-12-28T13:34:22Z</time>
      </trkpt>
      <trkpt lat="49.97323" lon="2.27876">
        <ele>75.6</ele>
        <time>2022-12-28T13:34:23Z</time>
      </trkpt>
      <trkpt lat="49.97322" lon="2.27875">
        <ele>75.5</ele>
        <time>2022-12-28T13:34:24Z</time>
      </trkpt>
      <trkpt lat="49.97321" lon="2.27874">
        <ele>75.5</ele>
        <time>2022-12-28T13:34:25Z</time>
      </trkpt>
      <trkpt lat="49.97318" lon="2.27873">
        <ele>75.4</ele>
        <time>2022-12-28T13:34:26Z</time>
      </trkpt>
      <trkpt lat="49.97317" lon="2.27872">
        <ele>75.3</ele>
        <time>2022-12-28T13:34:28Z</time>
      </trkpt>
      <trkpt lat="49.97316" lon="2.27871">
        <ele>75.3</ele>
        <time>2022-12-28T13:34:29Z</time>
      </trkpt>
      <trkpt lat="49.97316" lon="2.27871">
        <ele>75.2</ele>
        <time>2022-12-28T13:34:30Z</time>
      </trkpt>
      <trkpt lat="49.97315" lon="2.2787">
        <ele>75.2</ele>
        <time>2022-12-28T13:34:31Z</time>
      </trkpt>
      <trkpt lat="49.97313" lon="2.27869">
        <ele>75.1</ele>
        <time>2022-12-28T13:34:32Z</time>
      </trkpt>
      <trkpt lat="49.97312" lon="2.27868">
        <ele>75</ele>
        <time>2022-12-28T13:34:34Z</time>
      </trkpt>
      <trkpt lat="49.97311" lon="2.27867">
        <ele>74.9</ele>
        <time>2022-12-28T13:34:35Z</time>
      </trkpt>
      <trkpt lat="49.97309" lon="2.27867">
        <ele>74.9</ele>
        <time>2022-12-28T13:34:36Z</time>
      </trkpt>
      <trkpt lat="49.97308" lon="2.27866">
        <ele>74.8</ele>
        <time>2022-12-28T13:34:37Z</time>
      </trkpt>
      <trkpt lat="49.97307" lon="2.27865">
        <ele>74.7</ele>
        <time>2022-12-28T13:34:38Z</time>
      </trkpt>
      <trkpt lat="49.97305" lon="2.27864">
        <ele>74.6</ele>
        <time>2022-12-28T13:34:39Z</time>
      </trkpt>
      <trkpt lat="49.97304" lon="2.27863">
        <ele>74.6</ele>
        <time>2022-12-28T13:34:40Z</time>
      </trkpt>
      <trkpt lat="49.97303" lon="2.27863">
        <ele>74.5</ele>
        <time>2022-12-28T13:34:41Z</time>
      </trkpt>
      <trkpt lat="49.97302" lon="2.27862">
        <ele>74.5</ele>
        <time>2022-12-28T13:34:43Z</time>
      </trkpt>
      <trkpt lat="49.97301" lon="2.27861">
        <ele>74.5</ele>
        <time>2022-12-28T13:34:44Z</time>
      </trkpt>
      <trkpt lat="49.973" lon="2.27861">
        <ele>74.4</ele>
        <time>2022-12-28T13:34:45Z</time>
      </trkpt>
      <trkpt lat="49.97299" lon="2.2786">
        <ele>74.4</ele>
        <time>2022-12-28T13:34:46Z</time>
      </trkpt>
      <trkpt lat="49.97297" lon="2.27859">
        <ele>74.3</ele>
        <time>2022-12-28T13:34:47Z</time>
      </trkpt>
      <trkpt lat="49.97296" lon="2.27859">
        <ele>74.3</ele>
        <time>2022-12-28T13:34:48Z</time>
      </trkpt>
      <trkpt lat="49.97295" lon="2.27858">
        <ele>74.2</ele>
        <time>2022-12-28T13:34:49Z</time>
      </trkpt>
      <trkpt lat="49.97294" lon="2.27858">
        <ele>74.2</ele>
        <time>2022-12-28T13:34:50Z</time>
      </trkpt>
      <trkpt lat="49.97292" lon="2.27856">
        <ele>74.1</ele>
        <time>2022-12-28T13:34:51Z</time>
      </trkpt>
      <trkpt lat="49.97291" lon="2.27856">
        <ele>74.1</ele>
        <time>2022-12-28T13:34:53Z</time>
      </trkpt>
      <trkpt lat="49.9729" lon="2.27855">
        <ele>74.1</ele>
        <time>2022-12-28T13:34:54Z</time>
      </trkpt>
      <trkpt lat="49.97289" lon="2.27854">
        <ele>74</ele>
        <time>2022-12-28T13:34:55Z</time>
      </trkpt>
      <trkpt lat="49.97288" lon="2.27854">
        <ele>74</ele>
        <time>2022-12-28T13:34:56Z</time>
      </trkpt>
      <trkpt lat="49.97287" lon="2.27853">
        <ele>73.9</ele>
        <time>2022-12-28T13:34:57Z</time>
      </trkpt>
      <trkpt lat="49.97286" lon="2.27852">
        <ele>73.9</ele>
        <time>2022-12-28T13:34:58Z</time>
      </trkpt>
      <trkpt lat="49.97284" lon="2.27851">
        <ele>73.8</ele>
        <time>2022-12-28T13:34:59Z</time>
      </trkpt>
      <trkpt lat="49.97283" lon="2.27851">
        <ele>73.8</ele>
        <time>2022-12-28T13:35:00Z</time>
      </trkpt>
      <trkpt lat="49.97282" lon="2.2785">
        <ele>73.7</ele>
        <time>2022-12-28T13:35:01Z</time>
      </trkpt>
      <trkpt lat="49.97281" lon="2.27849">
        <ele>73.7</ele>
        <time>2022-12-28T13:35:02Z</time>
      </trkpt>
      <trkpt lat="49.9728" lon="2.27849">
        <ele>73.7</ele>
        <time>2022-12-28T13:35:04Z</time>
      </trkpt>
      <trkpt lat="49.97278" lon="2.27848">
        <ele>73.6</ele>
        <time>2022-12-28T13:35:05Z</time>
      </trkpt>
      <trkpt lat="49.97277" lon="2.27848">
        <ele>73.6</ele>
        <time>2022-12-28T13:35:06Z</time>
      </trkpt>
      <trkpt lat="49.97276" lon="2.27847">
        <ele>73.5</ele>
        <time>2022-12-28T13:35:07Z</time>
      </trkpt>
      <trkpt lat="49.97275" lon="2.27846">
        <ele>73.5</ele>
        <time>2022-12-28T13:35:08Z</time>
      </trkpt>
      <trkpt lat="49.97274" lon="2.27846">
        <ele>73.5</ele>
        <time>2022-12-28T13:35:09Z</time>
      </trkpt>
      <trkpt lat="49.97273" lon="2.27845">
        <ele>73.4</ele>
        <time>2022-12-28T13:35:10Z</time>
      </trkpt>
      <trkpt lat="49.97271" lon="2.27844">
        <ele>73.4</ele>
        <time>2022-12-28T13:35:11Z</time>
      </trkpt>
      <trkpt lat="49.9727" lon="2.27843">
        <ele>73.3</ele>
        <time>2022-12-28T13:35:12Z</time>
      </trkpt>
      <trkpt lat="49.97269" lon="2.27843">
        <ele>73.3</ele>
        <time>2022-12-28T13:35:14Z</time>
      </trkpt>
      <trkpt lat="49.97268" lon="2.27842">
        <ele>73.2</ele>
        <time>2022-12-28T13:35:15Z</time>
      </trkpt>
      <trkpt lat="49.97267" lon="2.27841">
        <ele>73.2</ele>
        <time>2022-12-28T13:35:16Z</time>
      </trkpt>
      <trkpt lat="49.97265" lon="2.2784">
        <ele>73.1</ele>
        <time>2022-12-28T13:35:17Z</time>
      </trkpt>
      <trkpt lat="49.97264" lon="2.27839">
        <ele>73.1</ele>
        <time>2022-12-28T13:35:18Z</time>
      </trkpt>
      <trkpt lat="49.97264" lon="2.27839">
        <ele>73</ele>
        <time>2022-12-28T13:35:19Z</time>
      </trkpt>
      <trkpt lat="49.97263" lon="2.27838">
        <ele>73</ele>
        <time>2022-12-28T13:35:20Z</time>
      </trkpt>
      <trkpt lat="49.97261" lon="2.27836">
        <ele>72.9</ele>
        <time>2022-12-28T13:35:21Z</time>
      </trkpt>
      <trkpt lat="49.9726" lon="2.27836">
        <ele>72.9</ele>
        <time>2022-12-28T13:35:22Z</time>
      </trkpt>
      <trkpt lat="49.97259" lon="2.27835">
        <ele>72.8</ele>
        <time>2022-12-28T13:35:24Z</time>
      </trkpt>
      <trkpt lat="49.97258" lon="2.27834">
        <ele>72.8</ele>
        <time>2022-12-28T13:35:25Z</time>
      </trkpt>
      <trkpt lat="49.97257" lon="2.27834">
        <ele>72.7</ele>
        <time>2022-12-28T13:35:26Z</time>
      </trkpt>
      <trkpt lat="49.97255" lon="2.27833">
        <ele>72.6</ele>
        <time>2022-12-28T13:35:27Z</time>
      </trkpt>
      <trkpt lat="49.97255" lon="2.27832">
        <ele>72.6</ele>
        <time>2022-12-28T13:35:28Z</time>
      </trkpt>
      <trkpt lat="49.97253" lon="2.27832">
        <ele>72.5</ele>
        <time>2022-12-28T13:35:29Z</time>
      </trkpt>
      <trkpt lat="49.97252" lon="2.27832">
        <ele>72.4</ele>
        <time>2022-12-28T13:35:30Z</time>
      </trkpt>
      <trkpt lat="49.97251" lon="2.27831">
        <ele>72.4</ele>
        <time>2022-12-28T13:35:31Z</time>
      </trkpt>
      <trkpt lat="49.97249" lon="2.27831">
        <ele>72.3</ele>
        <time>2022-12-28T13:35:32Z</time>
      </trkpt>
      <trkpt lat="49.97247" lon="2.2783">
        <ele>72.2</ele>
        <time>2022-12-28T13:35:33Z</time>
      </trkpt>
      <trkpt lat="49.97246" lon="2.2783">
        <ele>72.2</ele>
        <time>2022-12-28T13:35:35Z</time>
      </trkpt>
      <trkpt lat="49.97245" lon="2.27829">
        <ele>72.1</ele>
        <time>2022-12-28T13:35:36Z</time>
      </trkpt>
      <trkpt lat="49.97243" lon="2.27829">
        <ele>72</ele>
        <time>2022-12-28T13:35:37Z</time>
      </trkpt>
      <trkpt lat="49.97242" lon="2.27829">
        <ele>72</ele>
        <time>2022-12-28T13:35:38Z</time>
      </trkpt>
      <trkpt lat="49.97241" lon="2.27828">
        <ele>71.9</ele>
        <time>2022-12-28T13:35:39Z</time>
      </trkpt>
      <trkpt lat="49.9724" lon="2.27828">
        <ele>71.9</ele>
        <time>2022-12-28T13:35:40Z</time>
      </trkpt>
      <trkpt lat="49.97238" lon="2.27828">
        <ele>71.8</ele>
        <time>2022-12-28T13:35:41Z</time>
      </trkpt>
      <trkpt lat="49.97236" lon="2.27828">
        <ele>71.8</ele>
        <time>2022-12-28T13:35:42Z</time>
      </trkpt>
      <trkpt lat="49.97235" lon="2.27828">
        <ele>71.7</ele>
        <time>2022-12-28T13:35:43Z</time>
      </trkpt>
      <trkpt lat="49.97234" lon="2.27828">
        <ele>71.7</ele>
        <time>2022-12-28T13:35:44Z</time>
      </trkpt>
      <trkpt lat="49.97232" lon="2.27828">
        <ele>71.6</ele>
        <time>2022-12-28T13:35:46Z</time>
      </trkpt>
      <trkpt lat="49.9723" lon="2.27829">
        <ele>71.5</ele>
        <time>2022-12-28T13:35:47Z</time>
      </trkpt>
      <trkpt lat="49.97229" lon="2.27829">
        <ele>71.5</ele>
        <time>2022-12-28T13:35:48Z</time>
      </trkpt>
      <trkpt lat="49.97227" lon="2.2783">
        <ele>71.4</ele>
        <time>2022-12-28T13:35:49Z</time>
      </trkpt>
      <trkpt lat="49.97227" lon="2.2783">
        <ele>71.4</ele>
        <time>2022-12-28T13:35:50Z</time>
      </trkpt>
      <trkpt lat="49.97226" lon="2.2783">
        <ele>71.3</ele>
        <time>2022-12-28T13:35:51Z</time>
      </trkpt>
      <trkpt lat="49.97224" lon="2.27831">
        <ele>71.2</ele>
        <time>2022-12-28T13:35:52Z</time>
      </trkpt>
      <trkpt lat="49.97223" lon="2.27832">
        <ele>71.2</ele>
        <time>2022-12-28T13:35:53Z</time>
      </trkpt>
      <trkpt lat="49.97222" lon="2.27832">
        <ele>71.1</ele>
        <time>2022-12-28T13:35:54Z</time>
      </trkpt>
      <trkpt lat="49.9722" lon="2.27833">
        <ele>71.1</ele>
        <time>2022-12-28T13:35:55Z</time>
      </trkpt>
      <trkpt lat="49.9722" lon="2.27834">
        <ele>71</ele>
        <time>2022-12-28T13:35:57Z</time>
      </trkpt>
      <trkpt lat="49.97218" lon="2.27835">
        <ele>71</ele>
        <time>2022-12-28T13:35:58Z</time>
      </trkpt>
      <trkpt lat="49.97217" lon="2.27836">
        <ele>70.9</ele>
        <time>2022-12-28T13:35:59Z</time>
      </trkpt>
      <trkpt lat="49.97215" lon="2.27837">
        <ele>70.8</ele>
        <time>2022-12-28T13:36:00Z</time>
      </trkpt>
      <trkpt lat="49.97214" lon="2.27838">
        <ele>70.8</ele>
        <time>2022-12-28T13:36:01Z</time>
      </trkpt>
      <trkpt lat="49.97213" lon="2.27838">
        <ele>70.7</ele>
        <time>2022-12-28T13:36:02Z</time>
      </trkpt>
      <trkpt lat="49.97212" lon="2.27839">
        <ele>70.7</ele>
        <time>2022-12-28T13:36:03Z</time>
      </trkpt>
      <trkpt lat="49.97211" lon="2.27839">
        <ele>70.7</ele>
        <time>2022-12-28T13:36:04Z</time>
      </trkpt>
      <trkpt lat="49.9721" lon="2.2784">
        <ele>70.6</ele>
        <time>2022-12-28T13:36:05Z</time>
      </trkpt>
      <trkpt lat="49.97208" lon="2.2784">
        <ele>70.6</ele>
        <time>2022-12-28T13:36:06Z</time>
      </trkpt>
      <trkpt lat="49.97207" lon="2.27841">
        <ele>70.5</ele>
        <time>2022-12-28T13:36:08Z</time>
      </trkpt>
      <trkpt lat="49.97206" lon="2.27842">
        <ele>70.5</ele>
        <time>2022-12-28T13:36:09Z</time>
      </trkpt>
      <trkpt lat="49.97205" lon="2.27842">
        <ele>70.4</ele>
        <time>2022-12-28T13:36:10Z</time>
      </trkpt>
      <trkpt lat="49.97203" lon="2.27843">
        <ele>70.4</ele>
        <time>2022-12-28T13:36:11Z</time>
      </trkpt>
      <trkpt lat="49.97202" lon="2.27843">
        <ele>70.3</ele>
        <time>2022-12-28T13:36:12Z</time>
      </trkpt>
      <trkpt lat="49.97201" lon="2.27844">
        <ele>70.2</ele>
        <time>2022-12-28T13:36:13Z</time>
      </trkpt>
      <trkpt lat="49.97199" lon="2.27844">
        <ele>70.2</ele>
        <time>2022-12-28T13:36:14Z</time>
      </trkpt>
      <trkpt lat="49.97198" lon="2.27844">
        <ele>70.1</ele>
        <time>2022-12-28T13:36:15Z</time>
      </trkpt>
      <trkpt lat="49.97197" lon="2.27844">
        <ele>70.1</ele>
        <time>2022-12-28T13:36:16Z</time>
      </trkpt>
      <trkpt lat="49.97196" lon="2.27845">
        <ele>70</ele>
        <time>2022-12-28T13:36:17Z</time>
      </trkpt>
      <trkpt lat="49.97194" lon="2.27845">
        <ele>69.9</ele>
        <time>2022-12-28T13:36:18Z</time>
      </trkpt>
      <trkpt lat="49.97193" lon="2.27846">
        <ele>69.9</ele>
        <time>2022-12-28T13:36:19Z</time>
      </trkpt>
      <trkpt lat="49.97192" lon="2.27846">
        <ele>69.8</ele>
        <time>2022-12-28T13:36:21Z</time>
      </trkpt>
      <trkpt lat="49.97191" lon="2.27847">
        <ele>69.8</ele>
        <time>2022-12-28T13:36:22Z</time>
      </trkpt>
      <trkpt lat="49.97189" lon="2.27847">
        <ele>69.7</ele>
        <time>2022-12-28T13:36:23Z</time>
      </trkpt>
      <trkpt lat="49.97188" lon="2.27848">
        <ele>69.6</ele>
        <time>2022-12-28T13:36:24Z</time>
      </trkpt>
      <trkpt lat="49.97187" lon="2.27848">
        <ele>69.6</ele>
        <time>2022-12-28T13:36:25Z</time>
      </trkpt>
      <trkpt lat="49.97186" lon="2.27849">
        <ele>69.5</ele>
        <time>2022-12-28T13:36:26Z</time>
      </trkpt>
      <trkpt lat="49.97185" lon="2.2785">
        <ele>69.4</ele>
        <time>2022-12-28T13:36:27Z</time>
      </trkpt>
      <trkpt lat="49.97183" lon="2.27851">
        <ele>69.3</ele>
        <time>2022-12-28T13:36:28Z</time>
      </trkpt>
      <trkpt lat="49.97182" lon="2.27851">
        <ele>69.3</ele>
        <time>2022-12-28T13:36:29Z</time>
      </trkpt>
      <trkpt lat="49.97181" lon="2.27851">
        <ele>69.2</ele>
        <time>2022-12-28T13:36:30Z</time>
      </trkpt>
      <trkpt lat="49.9718" lon="2.27851">
        <ele>69.2</ele>
        <time>2022-12-28T13:36:31Z</time>
      </trkpt>
      <trkpt lat="49.97178" lon="2.27852">
        <ele>69.1</ele>
        <time>2022-12-28T13:36:33Z</time>
      </trkpt>
      <trkpt lat="49.97177" lon="2.27853">
        <ele>69</ele>
        <time>2022-12-28T13:36:34Z</time>
      </trkpt>
      <trkpt lat="49.97176" lon="2.27853">
        <ele>68.9</ele>
        <time>2022-12-28T13:36:35Z</time>
      </trkpt>
      <trkpt lat="49.97175" lon="2.27854">
        <ele>68.9</ele>
        <time>2022-12-28T13:36:36Z</time>
      </trkpt>
      <trkpt lat="49.97174" lon="2.27855">
        <ele>68.8</ele>
        <time>2022-12-28T13:36:37Z</time>
      </trkpt>
      <trkpt lat="49.97173" lon="2.27856">
        <ele>68.7</ele>
        <time>2022-12-28T13:36:38Z</time>
      </trkpt>
      <trkpt lat="49.97172" lon="2.27858">
        <ele>68.6</ele>
        <time>2022-12-28T13:36:39Z</time>
      </trkpt>
      <trkpt lat="49.97171" lon="2.27859">
        <ele>68.5</ele>
        <time>2022-12-28T13:36:40Z</time>
      </trkpt>
      <trkpt lat="49.97169" lon="2.2786">
        <ele>68.4</ele>
        <time>2022-12-28T13:36:42Z</time>
      </trkpt>
      <trkpt lat="49.97167" lon="2.27862">
        <ele>68.3</ele>
        <time>2022-12-28T13:36:43Z</time>
      </trkpt>
      <trkpt lat="49.97167" lon="2.27863">
        <ele>68.2</ele>
        <time>2022-12-28T13:36:44Z</time>
      </trkpt>
      <trkpt lat="49.97166" lon="2.27864">
        <ele>68.2</ele>
        <time>2022-12-28T13:36:45Z</time>
      </trkpt>
      <trkpt lat="49.97165" lon="2.27866">
        <ele>68.1</ele>
        <time>2022-12-28T13:36:47Z</time>
      </trkpt>
      <trkpt lat="49.97164" lon="2.27867">
        <ele>68</ele>
        <time>2022-12-28T13:36:48Z</time>
      </trkpt>
      <trkpt lat="49.97163" lon="2.27868">
        <ele>67.9</ele>
        <time>2022-12-28T13:36:49Z</time>
      </trkpt>
      <trkpt lat="49.97162" lon="2.27869">
        <ele>67.9</ele>
        <time>2022-12-28T13:36:50Z</time>
      </trkpt>
      <trkpt lat="49.97161" lon="2.2787">
        <ele>67.8</ele>
        <time>2022-12-28T13:36:51Z</time>
      </trkpt>
      <trkpt lat="49.9716" lon="2.27872">
        <ele>67.7</ele>
        <time>2022-12-28T13:36:53Z</time>
      </trkpt>
      <trkpt lat="49.97159" lon="2.27873">
        <ele>67.7</ele>
        <time>2022-12-28T13:36:54Z</time>
      </trkpt>
      <trkpt lat="49.97158" lon="2.27874">
        <ele>67.6</ele>
        <time>2022-12-28T13:36:55Z</time>
      </trkpt>
      <trkpt lat="49.97158" lon="2.27875">
        <ele>67.5</ele>
        <time>2022-12-28T13:36:56Z</time>
      </trkpt>
      <trkpt lat="49.97157" lon="2.27877">
        <ele>67.5</ele>
        <time>2022-12-28T13:36:57Z</time>
      </trkpt>
      <trkpt lat="49.97156" lon="2.27878">
        <ele>67.4</ele>
        <time>2022-12-28T13:36:58Z</time>
      </trkpt>
      <trkpt lat="49.97155" lon="2.2788">
        <ele>67.3</ele>
        <time>2022-12-28T13:37:00Z</time>
      </trkpt>
      <trkpt lat="49.97154" lon="2.27881">
        <ele>67.3</ele>
        <time>2022-12-28T13:37:01Z</time>
      </trkpt>
      <trkpt lat="49.97154" lon="2.27882">
        <ele>67.2</ele>
        <time>2022-12-28T13:37:02Z</time>
      </trkpt>
      <trkpt lat="49.97152" lon="2.27884">
        <ele>67.1</ele>
        <time>2022-12-28T13:37:03Z</time>
      </trkpt>
      <trkpt lat="49.97152" lon="2.27885">
        <ele>67</ele>
        <time>2022-12-28T13:37:04Z</time>
      </trkpt>
      <trkpt lat="49.97151" lon="2.27887">
        <ele>67</ele>
        <time>2022-12-28T13:37:05Z</time>
      </trkpt>
      <trkpt lat="49.9715" lon="2.27888">
        <ele>66.9</ele>
        <time>2022-12-28T13:37:06Z</time>
      </trkpt>
      <trkpt lat="49.97149" lon="2.2789">
        <ele>66.8</ele>
        <time>2022-12-28T13:37:07Z</time>
      </trkpt>
      <trkpt lat="49.97148" lon="2.2789">
        <ele>66.8</ele>
        <time>2022-12-28T13:37:09Z</time>
      </trkpt>
      <trkpt lat="49.97147" lon="2.27891">
        <ele>66.7</ele>
        <time>2022-12-28T13:37:10Z</time>
      </trkpt>
      <trkpt lat="49.97146" lon="2.27893">
        <ele>66.6</ele>
        <time>2022-12-28T13:37:11Z</time>
      </trkpt>
      <trkpt lat="49.97145" lon="2.27894">
        <ele>66.5</ele>
        <time>2022-12-28T13:37:12Z</time>
      </trkpt>
      <trkpt lat="49.97144" lon="2.27895">
        <ele>66.5</ele>
        <time>2022-12-28T13:37:13Z</time>
      </trkpt>
      <trkpt lat="49.97144" lon="2.27896">
        <ele>66.4</ele>
        <time>2022-12-28T13:37:14Z</time>
      </trkpt>
      <trkpt lat="49.97143" lon="2.27897">
        <ele>66.4</ele>
        <time>2022-12-28T13:37:15Z</time>
      </trkpt>
      <trkpt lat="49.97142" lon="2.27897">
        <ele>66.3</ele>
        <time>2022-12-28T13:37:16Z</time>
      </trkpt>
      <trkpt lat="49.9714" lon="2.27898">
        <ele>66.2</ele>
        <time>2022-12-28T13:37:17Z</time>
      </trkpt>
      <trkpt lat="49.97139" lon="2.27898">
        <ele>66.1</ele>
        <time>2022-12-28T13:37:19Z</time>
      </trkpt>
      <trkpt lat="49.97138" lon="2.27898">
        <ele>66.1</ele>
        <time>2022-12-28T13:37:20Z</time>
      </trkpt>
      <trkpt lat="49.97136" lon="2.27899">
        <ele>65.9</ele>
        <time>2022-12-28T13:37:21Z</time>
      </trkpt>
      <trkpt lat="49.97136" lon="2.27899">
        <ele>65.9</ele>
        <time>2022-12-28T13:37:22Z</time>
      </trkpt>
      <trkpt lat="49.97135" lon="2.279">
        <ele>65.8</ele>
        <time>2022-12-28T13:37:23Z</time>
      </trkpt>
      <trkpt lat="49.97133" lon="2.279">
        <ele>65.7</ele>
        <time>2022-12-28T13:37:24Z</time>
      </trkpt>
      <trkpt lat="49.97132" lon="2.27901">
        <ele>65.7</ele>
        <time>2022-12-28T13:37:25Z</time>
      </trkpt>
      <trkpt lat="49.97131" lon="2.27901">
        <ele>65.6</ele>
        <time>2022-12-28T13:37:27Z</time>
      </trkpt>
      <trkpt lat="49.9713" lon="2.27901">
        <ele>65.5</ele>
        <time>2022-12-28T13:37:28Z</time>
      </trkpt>
      <trkpt lat="49.97129" lon="2.27901">
        <ele>65.5</ele>
        <time>2022-12-28T13:37:29Z</time>
      </trkpt>
      <trkpt lat="49.97128" lon="2.27902">
        <ele>65.4</ele>
        <time>2022-12-28T13:37:30Z</time>
      </trkpt>
      <trkpt lat="49.97127" lon="2.27902">
        <ele>65.3</ele>
        <time>2022-12-28T13:37:31Z</time>
      </trkpt>
      <trkpt lat="49.97125" lon="2.27902">
        <ele>65.2</ele>
        <time>2022-12-28T13:37:32Z</time>
      </trkpt>
      <trkpt lat="49.97124" lon="2.27902">
        <ele>65.2</ele>
        <time>2022-12-28T13:37:33Z</time>
      </trkpt>
      <trkpt lat="49.97123" lon="2.27901">
        <ele>65.1</ele>
        <time>2022-12-28T13:37:35Z</time>
      </trkpt>
      <trkpt lat="49.97121" lon="2.27901">
        <ele>65</ele>
        <time>2022-12-28T13:37:36Z</time>
      </trkpt>
      <trkpt lat="49.9712" lon="2.27901">
        <ele>65</ele>
        <time>2022-12-28T13:37:37Z</time>
      </trkpt>
      <trkpt lat="49.97119" lon="2.27901">
        <ele>64.9</ele>
        <time>2022-12-28T13:37:38Z</time>
      </trkpt>
      <trkpt lat="49.97118" lon="2.27901">
        <ele>64.8</ele>
        <time>2022-12-28T13:37:39Z</time>
      </trkpt>
      <trkpt lat="49.97117" lon="2.27901">
        <ele>64.7</ele>
        <time>2022-12-28T13:37:40Z</time>
      </trkpt>
      <trkpt lat="49.97115" lon="2.27902">
        <ele>64.7</ele>
        <time>2022-12-28T13:37:41Z</time>
      </trkpt>
      <trkpt lat="49.97114" lon="2.27902">
        <ele>64.5</ele>
        <time>2022-12-28T13:37:42Z</time>
      </trkpt>
      <trkpt lat="49.97113" lon="2.27903">
        <ele>64.5</ele>
        <time>2022-12-28T13:37:44Z</time>
      </trkpt>
      <trkpt lat="49.97112" lon="2.27903">
        <ele>64.4</ele>
        <time>2022-12-28T13:37:45Z</time>
      </trkpt>
      <trkpt lat="49.9711" lon="2.27904">
        <ele>64.3</ele>
        <time>2022-12-28T13:37:46Z</time>
      </trkpt>
      <trkpt lat="49.97109" lon="2.27904">
        <ele>64.3</ele>
        <time>2022-12-28T13:37:47Z</time>
      </trkpt>
      <trkpt lat="49.97109" lon="2.27904">
        <ele>64.2</ele>
        <time>2022-12-28T13:37:48Z</time>
      </trkpt>
      <trkpt lat="49.97107" lon="2.27905">
        <ele>64.1</ele>
        <time>2022-12-28T13:37:49Z</time>
      </trkpt>
      <trkpt lat="49.97106" lon="2.27906">
        <ele>64.1</ele>
        <time>2022-12-28T13:37:50Z</time>
      </trkpt>
      <trkpt lat="49.97105" lon="2.27906">
        <ele>64</ele>
        <time>2022-12-28T13:37:51Z</time>
      </trkpt>
      <trkpt lat="49.97104" lon="2.27907">
        <ele>64</ele>
        <time>2022-12-28T13:37:52Z</time>
      </trkpt>
      <trkpt lat="49.97104" lon="2.27907">
        <ele>63.9</ele>
        <time>2022-12-28T13:37:54Z</time>
      </trkpt>
      <trkpt lat="49.97103" lon="2.27907">
        <ele>63.8</ele>
        <time>2022-12-28T13:37:55Z</time>
      </trkpt>
      <trkpt lat="49.97102" lon="2.27908">
        <ele>63.8</ele>
        <time>2022-12-28T13:37:56Z</time>
      </trkpt>
      <trkpt lat="49.97101" lon="2.27909">
        <ele>63.7</ele>
        <time>2022-12-28T13:37:57Z</time>
      </trkpt>
      <trkpt lat="49.97099" lon="2.2791">
        <ele>63.6</ele>
        <time>2022-12-28T13:37:58Z</time>
      </trkpt>
      <trkpt lat="49.97098" lon="2.27911">
        <ele>63.5</ele>
        <time>2022-12-28T13:37:59Z</time>
      </trkpt>
      <trkpt lat="49.97098" lon="2.27912">
        <ele>63.5</ele>
        <time>2022-12-28T13:38:01Z</time>
      </trkpt>
      <trkpt lat="49.97096" lon="2.27913">
        <ele>63.4</ele>
        <time>2022-12-28T13:38:02Z</time>
      </trkpt>
      <trkpt lat="49.97095" lon="2.27916">
        <ele>63.2</ele>
        <time>2022-12-28T13:38:03Z</time>
      </trkpt>
      <trkpt lat="49.97095" lon="2.27917">
        <ele>63.2</ele>
        <time>2022-12-28T13:38:04Z</time>
      </trkpt>
      <trkpt lat="49.97094" lon="2.27918">
        <ele>63.1</ele>
        <time>2022-12-28T13:38:05Z</time>
      </trkpt>
      <trkpt lat="49.97094" lon="2.2792">
        <ele>63.1</ele>
        <time>2022-12-28T13:38:06Z</time>
      </trkpt>
      <trkpt lat="49.97092" lon="2.27921">
        <ele>62.9</ele>
        <time>2022-12-28T13:38:07Z</time>
      </trkpt>
      <trkpt lat="49.97091" lon="2.27922">
        <ele>62.9</ele>
        <time>2022-12-28T13:38:09Z</time>
      </trkpt>
      <trkpt lat="49.97091" lon="2.27923">
        <ele>62.8</ele>
        <time>2022-12-28T13:38:10Z</time>
      </trkpt>
      <trkpt lat="49.9709" lon="2.27924">
        <ele>62.7</ele>
        <time>2022-12-28T13:38:11Z</time>
      </trkpt>
      <trkpt lat="49.97089" lon="2.27925">
        <ele>62.7</ele>
        <time>2022-12-28T13:38:12Z</time>
      </trkpt>
      <trkpt lat="49.97088" lon="2.27927">
        <ele>62.6</ele>
        <time>2022-12-28T13:38:13Z</time>
      </trkpt>
      <trkpt lat="49.97087" lon="2.27928">
        <ele>62.5</ele>
        <time>2022-12-28T13:38:14Z</time>
      </trkpt>
      <trkpt lat="49.97086" lon="2.27928">
        <ele>62.4</ele>
        <time>2022-12-28T13:38:16Z</time>
      </trkpt>
      <trkpt lat="49.97085" lon="2.27929">
        <ele>62.3</ele>
        <time>2022-12-28T13:38:17Z</time>
      </trkpt>
      <trkpt lat="49.97084" lon="2.2793">
        <ele>62.2</ele>
        <time>2022-12-28T13:38:18Z</time>
      </trkpt>
      <trkpt lat="49.97083" lon="2.2793">
        <ele>62.2</ele>
        <time>2022-12-28T13:38:19Z</time>
      </trkpt>
      <trkpt lat="49.97082" lon="2.27931">
        <ele>62.1</ele>
        <time>2022-12-28T13:38:20Z</time>
      </trkpt>
      <trkpt lat="49.97081" lon="2.27932">
        <ele>62</ele>
        <time>2022-12-28T13:38:22Z</time>
      </trkpt>
      <trkpt lat="49.9708" lon="2.27932">
        <ele>62</ele>
        <time>2022-12-28T13:38:23Z</time>
      </trkpt>
      <trkpt lat="49.97081" lon="2.27933">
        <ele>61.9</ele>
        <time>2022-12-28T13:38:25Z</time>
      </trkpt>
      <trkpt lat="49.97081" lon="2.27933">
        <ele>61.9</ele>
        <time>2022-12-28T13:38:26Z</time>
      </trkpt>
      <trkpt lat="49.97082" lon="2.27933">
        <ele>61.9</ele>
        <time>2022-12-28T13:38:27Z</time>
      </trkpt>
      <trkpt lat="49.97082" lon="2.27934">
        <ele>61.9</ele>
        <time>2022-12-28T13:38:29Z</time>
      </trkpt>
      <trkpt lat="49.97082" lon="2.27934">
        <ele>61.8</ele>
        <time>2022-12-28T13:38:30Z</time>
      </trkpt>
      <trkpt lat="49.97082" lon="2.27935">
        <ele>61.8</ele>
        <time>2022-12-28T13:38:32Z</time>
      </trkpt>
      <trkpt lat="49.97083" lon="2.27935">
        <ele>61.8</ele>
        <time>2022-12-28T13:38:33Z</time>
      </trkpt>
      <trkpt lat="49.97083" lon="2.27936">
        <ele>61.8</ele>
        <time>2022-12-28T13:38:34Z</time>
      </trkpt>
      <trkpt lat="49.97083" lon="2.27935">
        <ele>61.8</ele>
        <time>2022-12-28T13:38:36Z</time>
      </trkpt>
      <trkpt lat="49.97083" lon="2.27935">
        <ele>61.8</ele>
        <time>2022-12-28T13:38:37Z</time>
      </trkpt>
      <trkpt lat="49.97083" lon="2.27935">
        <ele>61.8</ele>
        <time>2022-12-28T13:38:39Z</time>
      </trkpt>
      <trkpt lat="49.97083" lon="2.27935">
        <ele>61.8</ele>
        <time>2022-12-28T13:38:40Z</time>
      </trkpt>
      <trkpt lat="49.97083" lon="2.27935">
        <ele>61.7</ele>
        <time>2022-12-28T13:38:42Z</time>
      </trkpt>
      <trkpt lat="49.97083" lon="2.27935">
        <ele>61.7</ele>
        <time>2022-12-28T13:38:43Z</time>
      </trkpt>
      <trkpt lat="49.97083" lon="2.27935">
        <ele>61.7</ele>
        <time>2022-12-28T13:38:44Z</time>
      </trkpt>
      <trkpt lat="49.97083" lon="2.27935">
        <ele>61.7</ele>
        <time>2022-12-28T13:38:45Z</time>
      </trkpt>
      <trkpt lat="49.97083" lon="2.27935">
        <ele>61.7</ele>
        <time>2022-12-28T13:38:46Z</time>
      </trkpt>
      <trkpt lat="49.97083" lon="2.27935">
        <ele>61.7</ele>
        <time>2022-12-28T13:38:47Z</time>
      </trkpt>
      <trkpt lat="49.97083" lon="2.27935">
        <ele>61.7</ele>
        <time>2022-12-28T13:38:48Z</time>
      </trkpt>
      <trkpt lat="49.97083" lon="2.27935">
        <ele>61.7</ele>
        <time>2022-12-28T13:38:49Z</time>
      </trkpt>
      <trkpt lat="49.97083" lon="2.27935">
        <ele>61.7</ele>
        <time>2022-12-28T13:38:50Z</time>
      </trkpt>
      <trkpt lat="49.97083" lon="2.27935">
        <ele>61.7</ele>
        <time>2022-12-28T13:38:51Z</time>
      </trkpt>
      <trkpt lat="49.97083" lon="2.27935">
        <ele>61.7</ele>
        <time>2022-12-28T13:38:52Z</time>
      </trkpt>
      <trkpt lat="49.97083" lon="2.27935">
        <ele>61.7</ele>
        <time>2022-12-28T13:38:53Z</time>
      </trkpt>
      <trkpt lat="49.97083" lon="2.27935">
        <ele>61.7</ele>
        <time>2022-12-28T13:38:54Z</time>
      </trkpt>
      <trkpt lat="49.97083" lon="2.27935">
        <ele>61.7</ele>
        <time>2022-12-28T13:38:55Z</time>
      </trkpt>
      <trkpt lat="49.97083" lon="2.27935">
        <ele>61.7</ele>
        <time>2022-12-28T13:38:56Z</time>
      </trkpt>
      <trkpt lat="49.97083" lon="2.27935">
        <ele>61.7</ele>
        <time>2022-12-28T13:38:57Z</time>
      </trkpt>
      <trkpt lat="49.97083" lon="2.27935">
        <ele>61.7</ele>
        <time>2022-12-28T13:38:58Z</time>
      </trkpt>
      <trkpt lat="49.97083" lon="2.27935">
        <ele>61.7</ele>
        <time>2022-12-28T13:38:59Z</time>
      </trkpt>
      <trkpt lat="49.97083" lon="2.27935">
        <ele>61.7</ele>
        <time>2022-12-28T13:39:00Z</time>
      </trkpt>
      <trkpt lat="49.97083" lon="2.27935">
        <ele>61.7</ele>
        <time>2022-12-28T13:39:01Z</time>
      </trkpt>
      <trkpt lat="49.97083" lon="2.27935">
        <ele>61.7</ele>
        <time>2022-12-28T13:39:02Z</time>
      </trkpt>
      <trkpt lat="49.97083" lon="2.27935">
        <ele>61.7</ele>
        <time>2022-12-28T13:39:03Z</time>
      </trkpt>
      <trkpt lat="49.97083" lon="2.27935">
        <ele>61.7</ele>
        <time>2022-12-28T13:39:04Z</time>
      </trkpt>
      <trkpt lat="49.97083" lon="2.27935">
        <ele>61.7</ele>
        <time>2022-12-28T13:39:05Z</time>
      </trkpt>
      <trkpt lat="49.97083" lon="2.27935">
        <ele>61.7</ele>
        <time>2022-12-28T13:39:06Z</time>
      </trkpt>
      <trkpt lat="49.97083" lon="2.27935">
        <ele>61.7</ele>
        <time>2022-12-28T13:39:07Z</time>
      </trkpt>
      <trkpt lat="49.97083" lon="2.27935">
        <ele>61.7</ele>
        <time>2022-12-28T13:39:08Z</time>
      </trkpt>
      <trkpt lat="49.97083" lon="2.27935">
        <ele>61.7</ele>
        <time>2022-12-28T13:39:09Z</time>
      </trkpt>
      <trkpt lat="49.97083" lon="2.27935">
        <ele>61.7</ele>
        <time>2022-12-28T13:39:10Z</time>
      </trkpt>
      <trkpt lat="49.97083" lon="2.27935">
        <ele>61.7</ele>
        <time>2022-12-28T13:39:11Z</time>
      </trkpt>
      <trkpt lat="49.97084" lon="2.27935">
        <ele>61.7</ele>
        <time>2022-12-28T13:39:12Z</time>
      </trkpt>
      <trkpt lat="49.97084" lon="2.27935">
        <ele>61.7</ele>
        <time>2022-12-28T13:39:13Z</time>
      </trkpt>
      <trkpt lat="49.97084" lon="2.27935">
        <ele>61.7</ele>
        <time>2022-12-28T13:39:14Z</time>
      </trkpt>
      <trkpt lat="49.97084" lon="2.27935">
        <ele>61.7</ele>
        <time>2022-12-28T13:39:15Z</time>
      </trkpt>
      <trkpt lat="49.97084" lon="2.27934">
        <ele>61.7</ele>
        <time>2022-12-28T13:39:16Z</time>
      </trkpt>
      <trkpt lat="49.97084" lon="2.27934">
        <ele>61.7</ele>
        <time>2022-12-28T13:39:17Z</time>
      </trkpt>
      <trkpt lat="49.97084" lon="2.27934">
        <ele>61.7</ele>
        <time>2022-12-28T13:39:18Z</time>
      </trkpt>
      <trkpt lat="49.97084" lon="2.27934">
        <ele>61.7</ele>
        <time>2022-12-28T13:39:19Z</time>
      </trkpt>
      <trkpt lat="49.97084" lon="2.27934">
        <ele>61.7</ele>
        <time>2022-12-28T13:39:20Z</time>
      </trkpt>
      <trkpt lat="49.97084" lon="2.27934">
        <ele>61.7</ele>
        <time>2022-12-28T13:39:21Z</time>
      </trkpt>
      <trkpt lat="49.97084" lon="2.27934">
        <ele>61.7</ele>
        <time>2022-12-28T13:39:22Z</time>
      </trkpt>
      <trkpt lat="49.97084" lon="2.27934">
        <ele>61.6</ele>
        <time>2022-12-28T13:39:23Z</time>
      </trkpt>
      <trkpt lat="49.97084" lon="2.27934">
        <ele>61.6</ele>
        <time>2022-12-28T13:39:24Z</time>
      </trkpt>
      <trkpt lat="49.97084" lon="2.27934">
        <ele>61.6</ele>
        <time>2022-12-28T13:39:25Z</time>
      </trkpt>
      <trkpt lat="49.97084" lon="2.27934">
        <ele>61.6</ele>
        <time>2022-12-28T13:39:26Z</time>
      </trkpt>
      <trkpt lat="49.97084" lon="2.27934">
        <ele>61.6</ele>
        <time>2022-12-28T13:39:27Z</time>
      </trkpt>
      <trkpt lat="49.97084" lon="2.27934">
        <ele>61.6</ele>
        <time>2022-12-28T13:39:28Z</time>
      </trkpt>
      <trkpt lat="49.97084" lon="2.27934">
        <ele>61.6</ele>
        <time>2022-12-28T13:39:29Z</time>
      </trkpt>
      <trkpt lat="49.97084" lon="2.27934">
        <ele>61.6</ele>
        <time>2022-12-28T13:39:30Z</time>
      </trkpt>
      <trkpt lat="49.97084" lon="2.27934">
        <ele>61.6</ele>
        <time>2022-12-28T13:39:31Z</time>
      </trkpt>
      <trkpt lat="49.97084" lon="2.27934">
        <ele>61.6</ele>
        <time>2022-12-28T13:39:32Z</time>
      </trkpt>
      <trkpt lat="49.97084" lon="2.27934">
        <ele>61.6</ele>
        <time>2022-12-28T13:39:33Z</time>
      </trkpt>
      <trkpt lat="49.97084" lon="2.27934">
        <ele>61.6</ele>
        <time>2022-12-28T13:39:34Z</time>
      </trkpt>
      <trkpt lat="49.97084" lon="2.27934">
        <ele>61.6</ele>
        <time>2022-12-28T13:39:35Z</time>
      </trkpt>
      <trkpt lat="49.97084" lon="2.27934">
        <ele>61.6</ele>
        <time>2022-12-28T13:39:36Z</time>
      </trkpt>
      <trkpt lat="49.97084" lon="2.27934">
        <ele>61.6</ele>
        <time>2022-12-28T13:39:37Z</time>
      </trkpt>
      <trkpt lat="49.97084" lon="2.27934">
        <ele>61.6</ele>
        <time>2022-12-28T13:39:38Z</time>
      </trkpt>
      <trkpt lat="49.97084" lon="2.27934">
        <ele>61.6</ele>
        <time>2022-12-28T13:39:39Z</time>
      </trkpt>
      <trkpt lat="49.97084" lon="2.27934">
        <ele>61.6</ele>
        <time>2022-12-28T13:39:40Z</time>
      </trkpt>
      <trkpt lat="49.97084" lon="2.27934">
        <ele>61.6</ele>
        <time>2022-12-28T13:39:41Z</time>
      </trkpt>
      <trkpt lat="49.97084" lon="2.27934">
        <ele>61.6</ele>
        <time>2022-12-28T13:39:42Z</time>
      </trkpt>
      <trkpt lat="49.97084" lon="2.27934">
        <ele>61.6</ele>
        <time>2022-12-28T13:39:43Z</time>
      </trkpt>
      <trkpt lat="49.97084" lon="2.27934">
        <ele>61.6</ele>
        <time>2022-12-28T13:39:44Z</time>
      </trkpt>
      <trkpt lat="49.97084" lon="2.27934">
        <ele>61.6</ele>
        <time>2022-12-28T13:39:45Z</time>
      </trkpt>
      <trkpt lat="49.97084" lon="2.27934">
        <ele>61.6</ele>
        <time>2022-12-28T13:39:46Z</time>
      </trkpt>
      <trkpt lat="49.97084" lon="2.27934">
        <ele>61.6</ele>
        <time>2022-12-28T13:39:47Z</time>
      </trkpt>
      <trkpt lat="49.97084" lon="2.27934">
        <ele>61.6</ele>
        <time>2022-12-28T13:39:48Z</time>
      </trkpt>
      <trkpt lat="49.97084" lon="2.27934">
        <ele>61.6</ele>
        <time>2022-12-28T13:39:49Z</time>
      </trkpt>
      <trkpt lat="49.97084" lon="2.27934">
        <ele>61.6</ele>
        <time>2022-12-28T13:39:50Z</time>
      </trkpt>
      <trkpt lat="49.97084" lon="2.27934">
        <ele>61.6</ele>
        <time>2022-12-28T13:39:51Z</time>
      </trkpt>
      <trkpt lat="49.97084" lon="2.27934">
        <ele>61.6</ele>
        <time>2022-12-28T13:39:52Z</time>
      </trkpt>
      <trkpt lat="49.97084" lon="2.27934">
        <ele>61.6</ele>
        <time>2022-12-28T13:39:53Z</time>
      </trkpt>
      <trkpt lat="49.97084" lon="2.27933">
        <ele>61.6</ele>
        <time>2022-12-28T13:39:54Z</time>
      </trkpt>
      <trkpt lat="49.97084" lon="2.27933">
        <ele>61.6</ele>
        <time>2022-12-28T13:39:55Z</time>
      </trkpt>
      <trkpt lat="49.97084" lon="2.27933">
        <ele>61.6</ele>
        <time>2022-12-28T13:39:56Z</time>
      </trkpt>
      <trkpt lat="49.97084" lon="2.27933">
        <ele>61.6</ele>
        <time>2022-12-28T13:39:57Z</time>
      </trkpt>
      <trkpt lat="49.97084" lon="2.27933">
        <ele>61.6</ele>
        <time>2022-12-28T13:39:58Z</time>
      </trkpt>
      <trkpt lat="49.97084" lon="2.27933">
        <ele>61.6</ele>
        <time>2022-12-28T13:39:59Z</time>
      </trkpt>
      <trkpt lat="49.97084" lon="2.27933">
        <ele>61.6</ele>
        <time>2022-12-28T13:40:00Z</time>
      </trkpt>
      <trkpt lat="49.97084" lon="2.27933">
        <ele>61.6</ele>
        <time>2022-12-28T13:40:01Z</time>
      </trkpt>
      <trkpt lat="49.97084" lon="2.27933">
        <ele>61.6</ele>
        <time>2022-12-28T13:40:02Z</time>
      </trkpt>
      <trkpt lat="49.97085" lon="2.27933">
        <ele>61.6</ele>
        <time>2022-12-28T13:40:03Z</time>
      </trkpt>
      <trkpt lat="49.97085" lon="2.27933">
        <ele>61.6</ele>
        <time>2022-12-28T13:40:04Z</time>
      </trkpt>
      <trkpt lat="49.97085" lon="2.27933">
        <ele>61.6</ele>
        <time>2022-12-28T13:40:05Z</time>
      </trkpt>
      <trkpt lat="49.97085" lon="2.27933">
        <ele>61.6</ele>
        <time>2022-12-28T13:40:06Z</time>
      </trkpt>
      <trkpt lat="49.97085" lon="2.27933">
        <ele>61.6</ele>
        <time>2022-12-28T13:40:07Z</time>
      </trkpt>
      <trkpt lat="49.97085" lon="2.27933">
        <ele>61.5</ele>
        <time>2022-12-28T13:40:08Z</time>
      </trkpt>
      <trkpt lat="49.97085" lon="2.27933">
        <ele>61.5</ele>
        <time>2022-12-28T13:40:09Z</time>
      </trkpt>
      <trkpt lat="49.97085" lon="2.27933">
        <ele>61.5</ele>
        <time>2022-12-28T13:40:10Z</time>
      </trkpt>
      <trkpt lat="49.97085" lon="2.27933">
        <ele>61.5</ele>
        <time>2022-12-28T13:40:11Z</time>
      </trkpt>
      <trkpt lat="49.97085" lon="2.27933">
        <ele>61.5</ele>
        <time>2022-12-28T13:40:12Z</time>
      </trkpt>
      <trkpt lat="49.97085" lon="2.27933">
        <ele>61.5</ele>
        <time>2022-12-28T13:40:13Z</time>
      </trkpt>
      <trkpt lat="49.97085" lon="2.27933">
        <ele>61.5</ele>
        <time>2022-12-28T13:40:14Z</time>
      </trkpt>
      <trkpt lat="49.97085" lon="2.27933">
        <ele>61.5</ele>
        <time>2022-12-28T13:40:15Z</time>
      </trkpt>
      <trkpt lat="49.97085" lon="2.27933">
        <ele>61.5</ele>
        <time>2022-12-28T13:40:16Z</time>
      </trkpt>
      <trkpt lat="49.97085" lon="2.27933">
        <ele>61.5</ele>
        <time>2022-12-28T13:40:17Z</time>
      </trkpt>
      <trkpt lat="49.97085" lon="2.27933">
        <ele>61.5</ele>
        <time>2022-12-28T13:40:18Z</time>
      </trkpt>
      <trkpt lat="49.97085" lon="2.27933">
        <ele>61.5</ele>
        <time>2022-12-28T13:40:19Z</time>
      </trkpt>
      <trkpt lat="49.97085" lon="2.27933">
        <ele>61.5</ele>
        <time>2022-12-28T13:40:20Z</time>
      </trkpt>
      <trkpt lat="49.97085" lon="2.27933">
        <ele>61.5</ele>
        <time>2022-12-28T13:40:21Z</time>
      </trkpt>
      <trkpt lat="49.97085" lon="2.27933">
        <ele>61.5</ele>
        <time>2022-12-28T13:40:22Z</time>
      </trkpt>
      <trkpt lat="49.97085" lon="2.27933">
        <ele>61.5</ele>
        <time>2022-12-28T13:40:23Z</time>
      </trkpt>
      <trkpt lat="49.97085" lon="2.27933">
        <ele>61.5</ele>
        <time>2022-12-28T13:40:24Z</time>
      </trkpt>
      <trkpt lat="49.97085" lon="2.27933">
        <ele>61.5</ele>
        <time>2022-12-28T13:40:25Z</time>
      </trkpt>
      <trkpt lat="49.97085" lon="2.27933">
        <ele>61.5</ele>
        <time>2022-12-28T13:40:26Z</time>
      </trkpt>
      <trkpt lat="49.97085" lon="2.27933">
        <ele>61.5</ele>
        <time>2022-12-28T13:40:27Z</time>
      </trkpt>
      <trkpt lat="49.97085" lon="2.27933">
        <ele>61.5</ele>
        <time>2022-12-28T13:40:28Z</time>
      </trkpt>
      <trkpt lat="49.97085" lon="2.27933">
        <ele>61.5</ele>
        <time>2022-12-28T13:40:29Z</time>
      </trkpt>
      <trkpt lat="49.97085" lon="2.27933">
        <ele>61.5</ele>
        <time>2022-12-28T13:40:30Z</time>
      </trkpt>
      <trkpt lat="49.97085" lon="2.27932">
        <ele>61.5</ele>
        <time>2022-12-28T13:40:31Z</time>
      </trkpt>
      <trkpt lat="49.97085" lon="2.27932">
        <ele>61.5</ele>
        <time>2022-12-28T13:40:32Z</time>
      </trkpt>
      <trkpt lat="49.97085" lon="2.27932">
        <ele>61.5</ele>
        <time>2022-12-28T13:40:33Z</time>
      </trkpt>
      <trkpt lat="49.97085" lon="2.27932">
        <ele>61.5</ele>
        <time>2022-12-28T13:40:34Z</time>
      </trkpt>
      <trkpt lat="49.97085" lon="2.27932">
        <ele>61.5</ele>
        <time>2022-12-28T13:40:35Z</time>
      </trkpt>
      <trkpt lat="49.97085" lon="2.27932">
        <ele>61.5</ele>
        <time>2022-12-28T13:40:36Z</time>
      </trkpt>
      <trkpt lat="49.97085" lon="2.27932">
        <ele>61.5</ele>
        <time>2022-12-28T13:40:37Z</time>
      </trkpt>
      <trkpt lat="49.97085" lon="2.27932">
        <ele>61.5</ele>
        <time>2022-12-28T13:40:38Z</time>
      </trkpt>
      <trkpt lat="49.97085" lon="2.27932">
        <ele>61.5</ele>
        <time>2022-12-28T13:40:39Z</time>
      </trkpt>
      <trkpt lat="49.97085" lon="2.27932">
        <ele>61.5</ele>
        <time>2022-12-28T13:40:40Z</time>
      </trkpt>
      <trkpt lat="49.97085" lon="2.27932">
        <ele>61.5</ele>
        <time>2022-12-28T13:40:41Z</time>
      </trkpt>
      <trkpt lat="49.97085" lon="2.27932">
        <ele>61.5</ele>
        <time>2022-12-28T13:40:42Z</time>
      </trkpt>
      <trkpt lat="49.97085" lon="2.27932">
        <ele>61.5</ele>
        <time>2022-12-28T13:40:43Z</time>
      </trkpt>
      <trkpt lat="49.97085" lon="2.27932">
        <ele>61.5</ele>
        <time>2022-12-28T13:40:44Z</time>
      </trkpt>
      <trkpt lat="49.97085" lon="2.27932">
        <ele>61.5</ele>
        <time>2022-12-28T13:40:45Z</time>
      </trkpt>
      <trkpt lat="49.97085" lon="2.27932">
        <ele>61.5</ele>
        <time>2022-12-28T13:40:46Z</time>
      </trkpt>
      <trkpt lat="49.97085" lon="2.27932">
        <ele>61.5</ele>
        <time>2022-12-28T13:40:47Z</time>
      </trkpt>
      <trkpt lat="49.97085" lon="2.27932">
        <ele>61.5</ele>
        <time>2022-12-28T13:40:48Z</time>
      </trkpt>
      <trkpt lat="49.97085" lon="2.27932">
        <ele>61.5</ele>
        <time>2022-12-28T13:40:49Z</time>
      </trkpt>
      <trkpt lat="49.97085" lon="2.27932">
        <ele>61.5</ele>
        <time>2022-12-28T13:40:50Z</time>
      </trkpt>
      <trkpt lat="49.97085" lon="2.27932">
        <ele>61.5</ele>
        <time>2022-12-28T13:40:51Z</time>
      </trkpt>
      <trkpt lat="49.97085" lon="2.27932">
        <ele>61.5</ele>
        <time>2022-12-28T13:40:52Z</time>
      </trkpt>
      <trkpt lat="49.97086" lon="2.27931">
        <ele>61.4</ele>
        <time>2022-12-28T13:40:53Z</time>
      </trkpt>
      <trkpt lat="49.97086" lon="2.27931">
        <ele>61.4</ele>
        <time>2022-12-28T13:40:54Z</time>
      </trkpt>
      <trkpt lat="49.97086" lon="2.2793">
        <ele>61.4</ele>
        <time>2022-12-28T13:40:55Z</time>
      </trkpt>
      <trkpt lat="49.97086" lon="2.2793">
        <ele>61.4</ele>
        <time>2022-12-28T13:40:56Z</time>
      </trkpt>
      <trkpt lat="49.97086" lon="2.2793">
        <ele>61.4</ele>
        <time>2022-12-28T13:40:57Z</time>
      </trkpt>
      <trkpt lat="49.97086" lon="2.2793">
        <ele>61.4</ele>
        <time>2022-12-28T13:40:58Z</time>
      </trkpt>
      <trkpt lat="49.97086" lon="2.2793">
        <ele>61.4</ele>
        <time>2022-12-28T13:40:59Z</time>
      </trkpt>
      <trkpt lat="49.97086" lon="2.2793">
        <ele>61.4</ele>
        <time>2022-12-28T13:41:00Z</time>
      </trkpt>
      <trkpt lat="49.97086" lon="2.2793">
        <ele>61.3</ele>
        <time>2022-12-28T13:41:01Z</time>
      </trkpt>
      <trkpt lat="49.97086" lon="2.2793">
        <ele>61.3</ele>
        <time>2022-12-28T13:41:02Z</time>
      </trkpt>
      <trkpt lat="49.97086" lon="2.2793">
        <ele>61.3</ele>
        <time>2022-12-28T13:41:03Z</time>
      </trkpt>
      <trkpt lat="49.97086" lon="2.2793">
        <ele>61.3</ele>
        <time>2022-12-28T13:41:04Z</time>
      </trkpt>
      <trkpt lat="49.97086" lon="2.2793">
        <ele>61.3</ele>
        <time>2022-12-28T13:41:05Z</time>
      </trkpt>
      <trkpt lat="49.97086" lon="2.2793">
        <ele>61.3</ele>
        <time>2022-12-28T13:41:06Z</time>
      </trkpt>
      <trkpt lat="49.97086" lon="2.2793">
        <ele>61.3</ele>
        <time>2022-12-28T13:41:07Z</time>
      </trkpt>
      <trkpt lat="49.97086" lon="2.2793">
        <ele>61.3</ele>
        <time>2022-12-28T13:41:08Z</time>
      </trkpt>
      <trkpt lat="49.97086" lon="2.2793">
        <ele>61.3</ele>
        <time>2022-12-28T13:41:09Z</time>
      </trkpt>
      <trkpt lat="49.97086" lon="2.2793">
        <ele>61.3</ele>
        <time>2022-12-28T13:41:10Z</time>
      </trkpt>
      <trkpt lat="49.97086" lon="2.2793">
        <ele>61.3</ele>
        <time>2022-12-28T13:41:11Z</time>
      </trkpt>
      <trkpt lat="49.97086" lon="2.2793">
        <ele>61.3</ele>
        <time>2022-12-28T13:41:12Z</time>
      </trkpt>
      <trkpt lat="49.97086" lon="2.2793">
        <ele>61.3</ele>
        <time>2022-12-28T13:41:13Z</time>
      </trkpt>
      <trkpt lat="49.97086" lon="2.2793">
        <ele>61.3</ele>
        <time>2022-12-28T13:41:14Z</time>
      </trkpt>
      <trkpt lat="49.97086" lon="2.2793">
        <ele>61.3</ele>
        <time>2022-12-28T13:41:15Z</time>
      </trkpt>
      <trkpt lat="49.97086" lon="2.2793">
        <ele>61.3</ele>
        <time>2022-12-28T13:41:16Z</time>
      </trkpt>
      <trkpt lat="49.97086" lon="2.2793">
        <ele>61.3</ele>
        <time>2022-12-28T13:41:17Z</time>
      </trkpt>
      <trkpt lat="49.97086" lon="2.2793">
        <ele>61.3</ele>
        <time>2022-12-28T13:41:18Z</time>
      </trkpt>
      <trkpt lat="49.97086" lon="2.2793">
        <ele>61.3</ele>
        <time>2022-12-28T13:41:19Z</time>
      </trkpt>
      <trkpt lat="49.97086" lon="2.2793">
        <ele>61.3</ele>
        <time>2022-12-28T13:41:20Z</time>
      </trkpt>
      <trkpt lat="49.97086" lon="2.2793">
        <ele>61.3</ele>
        <time>2022-12-28T13:41:21Z</time>
      </trkpt>
      <trkpt lat="49.97086" lon="2.2793">
        <ele>61.3</ele>
        <time>2022-12-28T13:41:22Z</time>
      </trkpt>
      <trkpt lat="49.97086" lon="2.2793">
        <ele>61.3</ele>
        <time>2022-12-28T13:41:23Z</time>
      </trkpt>
      <trkpt lat="49.97086" lon="2.2793">
        <ele>61.3</ele>
        <time>2022-12-28T13:41:24Z</time>
      </trkpt>
      <trkpt lat="49.97086" lon="2.2793">
        <ele>61.3</ele>
        <time>2022-12-28T13:41:25Z</time>
      </trkpt>
      <trkpt lat="49.97086" lon="2.2793">
        <ele>61.3</ele>
        <time>2022-12-28T13:41:26Z</time>
      </trkpt>
      <trkpt lat="49.97086" lon="2.2793">
        <ele>61.3</ele>
        <time>2022-12-28T13:41:27Z</time>
      </trkpt>
      <trkpt lat="49.97086" lon="2.2793">
        <ele>61.3</ele>
        <time>2022-12-28T13:41:28Z</time>
      </trkpt>
      <trkpt lat="49.97086" lon="2.2793">
        <ele>61.3</ele>
        <time>2022-12-28T13:41:29Z</time>
      </trkpt>
      <trkpt lat="49.97086" lon="2.2793">
        <ele>61.3</ele>
        <time>2022-12-28T13:41:30Z</time>
      </trkpt>
      <trkpt lat="49.97086" lon="2.2793">
        <ele>61.3</ele>
        <time>2022-12-28T13:41:31Z</time>
      </trkpt>
      <trkpt lat="49.97086" lon="2.2793">
        <ele>61.3</ele>
        <time>2022-12-28T13:41:32Z</time>
      </trkpt>
      <trkpt lat="49.97086" lon="2.2793">
        <ele>61.3</ele>
        <time>2022-12-28T13:41:33Z</time>
      </trkpt>
      <trkpt lat="49.97086" lon="2.2793">
        <ele>61.3</ele>
        <time>2022-12-28T13:41:34Z</time>
      </trkpt>
      <trkpt lat="49.97086" lon="2.2793">
        <ele>61.3</ele>
        <time>2022-12-28T13:41:35Z</time>
      </trkpt>
      <trkpt lat="49.97086" lon="2.2793">
        <ele>61.3</ele>
        <time>2022-12-28T13:41:36Z</time>
      </trkpt>
      <trkpt lat="49.97086" lon="2.2793">
        <ele>61.3</ele>
        <time>2022-12-28T13:41:37Z</time>
      </trkpt>
      <trkpt lat="49.97086" lon="2.2793">
        <ele>61.3</ele>
        <time>2022-12-28T13:41:38Z</time>
      </trkpt>
      <trkpt lat="49.97086" lon="2.2793">
        <ele>61.3</ele>
        <time>2022-12-28T13:41:39Z</time>
      </trkpt>
      <trkpt lat="49.97086" lon="2.2793">
        <ele>61.3</ele>
        <time>2022-12-28T13:41:40Z</time>
      </trkpt>
      <trkpt lat="49.97086" lon="2.2793">
        <ele>61.3</ele>
        <time>2022-12-28T13:41:41Z</time>
      </trkpt>
      <trkpt lat="49.97086" lon="2.2793">
        <ele>61.3</ele>
        <time>2022-12-28T13:41:42Z</time>
      </trkpt>
      <trkpt lat="49.97086" lon="2.2793">
        <ele>61.3</ele>
        <time>2022-12-28T13:41:43Z</time>
      </trkpt>
      <trkpt lat="49.97086" lon="2.2793">
        <ele>61.3</ele>
        <time>2022-12-28T13:41:44Z</time>
      </trkpt>
      <trkpt lat="49.97086" lon="2.2793">
        <ele>61.3</ele>
        <time>2022-12-28T13:41:45Z</time>
      </trkpt>
      <trkpt lat="49.97086" lon="2.2793">
        <ele>61.3</ele>
        <time>2022-12-28T13:41:46Z</time>
      </trkpt>
      <trkpt lat="49.97086" lon="2.2793">
        <ele>61.3</ele>
        <time>2022-12-28T13:41:47Z</time>
      </trkpt>
      <trkpt lat="49.97086" lon="2.2793">
        <ele>61.3</ele>
        <time>2022-12-28T13:41:48Z</time>
      </trkpt>
      <trkpt lat="49.97086" lon="2.2793">
        <ele>61.3</ele>
        <time>2022-12-28T13:41:49Z</time>
      </trkpt>
      <trkpt lat="49.97086" lon="2.2793">
        <ele>61.3</ele>
        <time>2022-12-28T13:41:50Z</time>
      </trkpt>
      <trkpt lat="49.97086" lon="2.2793">
        <ele>61.3</ele>
        <time>2022-12-28T13:41:51Z</time>
      </trkpt>
      <trkpt lat="49.97086" lon="2.2793">
        <ele>61.3</ele>
        <time>2022-12-28T13:41:52Z</time>
      </trkpt>
      <trkpt lat="49.97086" lon="2.2793">
        <ele>61.3</ele>
        <time>2022-12-28T13:41:53Z</time>
      </trkpt>
      <trkpt lat="49.97086" lon="2.2793">
        <ele>61.3</ele>
        <time>2022-12-28T13:41:54Z</time>
      </trkpt>
      <trkpt lat="49.97086" lon="2.2793">
        <ele>61.3</ele>
        <time>2022-12-28T13:41:55Z</time>
      </trkpt>
      <trkpt lat="49.97086" lon="2.2793">
        <ele>61.3</ele>
        <time>2022-12-28T13:41:56Z</time>
      </trkpt>
      <trkpt lat="49.97086" lon="2.2793">
        <ele>61.3</ele>
        <time>2022-12-28T13:41:57Z</time>
      </trkpt>
      <trkpt lat="49.97086" lon="2.2793">
        <ele>61.3</ele>
        <time>2022-12-28T13:41:58Z</time>
      </trkpt>
      <trkpt lat="49.97086" lon="2.2793">
        <ele>61.3</ele>
        <time>2022-12-28T13:41:59Z</time>
      </trkpt>
      <trkpt lat="49.97086" lon="2.2793">
        <ele>61.3</ele>
        <time>2022-12-28T13:42:00Z</time>
      </trkpt>
      <trkpt lat="49.97086" lon="2.2793">
        <ele>61.3</ele>
        <time>2022-12-28T13:42:01Z</time>
      </trkpt>
      <trkpt lat="49.97086" lon="2.2793">
        <ele>61.3</ele>
        <time>2022-12-28T13:42:02Z</time>
      </trkpt>
      <trkpt lat="49.97086" lon="2.2793">
        <ele>61.3</ele>
        <time>2022-12-28T13:42:03Z</time>
      </trkpt>
      <trkpt lat="49.97086" lon="2.2793">
        <ele>61.3</ele>
        <time>2022-12-28T13:42:04Z</time>
      </trkpt>
      <trkpt lat="49.97086" lon="2.2793">
        <ele>61.3</ele>
        <time>2022-12-28T13:42:05Z</time>
      </trkpt>
      <trkpt lat="49.97086" lon="2.2793">
        <ele>61.3</ele>
        <time>2022-12-28T13:42:06Z</time>
      </trkpt>
      <trkpt lat="49.97086" lon="2.2793">
        <ele>61.3</ele>
        <time>2022-12-28T13:42:07Z</time>
      </trkpt>
      <trkpt lat="49.97086" lon="2.2793">
        <ele>61.3</ele>
        <time>2022-12-28T13:42:08Z</time>
      </trkpt>
      <trkpt lat="49.97086" lon="2.2793">
        <ele>61.3</ele>
        <time>2022-12-28T13:42:09Z</time>
      </trkpt>
      <trkpt lat="49.97086" lon="2.2793">
        <ele>61.3</ele>
        <time>2022-12-28T13:42:10Z</time>
      </trkpt>
      <trkpt lat="49.97086" lon="2.2793">
        <ele>61.3</ele>
        <time>2022-12-28T13:42:11Z</time>
      </trkpt>
      <trkpt lat="49.97086" lon="2.2793">
        <ele>61.3</ele>
        <time>2022-12-28T13:42:12Z</time>
      </trkpt>
      <trkpt lat="49.97085" lon="2.2793">
        <ele>61.3</ele>
        <time>2022-12-28T13:42:13Z</time>
      </trkpt>
      <trkpt lat="49.97085" lon="2.2793">
        <ele>61.3</ele>
        <time>2022-12-28T13:42:14Z</time>
      </trkpt>
      <trkpt lat="49.97085" lon="2.2793">
        <ele>61.3</ele>
        <time>2022-12-28T13:42:15Z</time>
      </trkpt>
      <trkpt lat="49.97084" lon="2.27931">
        <ele>61.2</ele>
        <time>2022-12-28T13:42:16Z</time>
      </trkpt>
      <trkpt lat="49.97084" lon="2.27932">
        <ele>61.1</ele>
        <time>2022-12-28T13:42:17Z</time>
      </trkpt>
      <trkpt lat="49.97084" lon="2.27933">
        <ele>61.1</ele>
        <time>2022-12-28T13:42:18Z</time>
      </trkpt>
      <trkpt lat="49.97084" lon="2.27934">
        <ele>61</ele>
        <time>2022-12-28T13:42:19Z</time>
      </trkpt>
      <trkpt lat="49.97084" lon="2.27935">
        <ele>61</ele>
        <time>2022-12-28T13:42:21Z</time>
      </trkpt>
      <trkpt lat="49.97083" lon="2.27937">
        <ele>60.9</ele>
        <time>2022-12-28T13:42:22Z</time>
      </trkpt>
      <trkpt lat="49.97083" lon="2.27938">
        <ele>60.8</ele>
        <time>2022-12-28T13:42:23Z</time>
      </trkpt>
      <trkpt lat="49.97082" lon="2.2794">
        <ele>60.8</ele>
        <time>2022-12-28T13:42:24Z</time>
      </trkpt>
      <trkpt lat="49.9708" lon="2.27942">
        <ele>60.7</ele>
        <time>2022-12-28T13:42:25Z</time>
      </trkpt>
      <trkpt lat="49.9708" lon="2.27943">
        <ele>60.7</ele>
        <time>2022-12-28T13:42:26Z</time>
      </trkpt>
      <trkpt lat="49.97079" lon="2.27944">
        <ele>60.7</ele>
        <time>2022-12-28T13:42:27Z</time>
      </trkpt>
      <trkpt lat="49.97078" lon="2.27947">
        <ele>60.6</ele>
        <time>2022-12-28T13:42:29Z</time>
      </trkpt>
      <trkpt lat="49.97078" lon="2.27948">
        <ele>60.5</ele>
        <time>2022-12-28T13:42:30Z</time>
      </trkpt>
      <trkpt lat="49.97077" lon="2.2795">
        <ele>60.5</ele>
        <time>2022-12-28T13:42:31Z</time>
      </trkpt>
      <trkpt lat="49.97077" lon="2.27951">
        <ele>60.5</ele>
        <time>2022-12-28T13:42:32Z</time>
      </trkpt>
      <trkpt lat="49.97076" lon="2.27953">
        <ele>60.4</ele>
        <time>2022-12-28T13:42:33Z</time>
      </trkpt>
      <trkpt lat="49.97076" lon="2.27954">
        <ele>60.4</ele>
        <time>2022-12-28T13:42:34Z</time>
      </trkpt>
      <trkpt lat="49.97075" lon="2.27956">
        <ele>60.3</ele>
        <time>2022-12-28T13:42:36Z</time>
      </trkpt>
      <trkpt lat="49.97074" lon="2.27957">
        <ele>60.3</ele>
        <time>2022-12-28T13:42:37Z</time>
      </trkpt>
      <trkpt lat="49.97073" lon="2.27959">
        <ele>60.2</ele>
        <time>2022-12-28T13:42:38Z</time>
      </trkpt>
      <trkpt lat="49.97072" lon="2.2796">
        <ele>60.2</ele>
        <time>2022-12-28T13:42:39Z</time>
      </trkpt>
      <trkpt lat="49.97071" lon="2.27962">
        <ele>60.2</ele>
        <time>2022-12-28T13:42:41Z</time>
      </trkpt>
      <trkpt lat="49.9707" lon="2.27963">
        <ele>60.1</ele>
        <time>2022-12-28T13:42:42Z</time>
      </trkpt>
      <trkpt lat="49.97069" lon="2.27965">
        <ele>60.1</ele>
        <time>2022-12-28T13:42:43Z</time>
      </trkpt>
      <trkpt lat="49.97067" lon="2.27969">
        <ele>60</ele>
        <time>2022-12-28T13:42:44Z</time>
      </trkpt>
      <trkpt lat="49.97066" lon="2.27971">
        <ele>59.9</ele>
        <time>2022-12-28T13:42:45Z</time>
      </trkpt>
      <trkpt lat="49.97064" lon="2.27974">
        <ele>59.9</ele>
        <time>2022-12-28T13:42:46Z</time>
      </trkpt>
      <trkpt lat="49.97064" lon="2.27975">
        <ele>59.9</ele>
        <time>2022-12-28T13:42:47Z</time>
      </trkpt>
      <trkpt lat="49.97063" lon="2.27977">
        <ele>59.8</ele>
        <time>2022-12-28T13:42:48Z</time>
      </trkpt>
      <trkpt lat="49.97062" lon="2.2798">
        <ele>59.8</ele>
        <time>2022-12-28T13:42:49Z</time>
      </trkpt>
      <trkpt lat="49.97061" lon="2.27982">
        <ele>59.8</ele>
        <time>2022-12-28T13:42:50Z</time>
      </trkpt>
      <trkpt lat="49.9706" lon="2.27984">
        <ele>59.7</ele>
        <time>2022-12-28T13:42:51Z</time>
      </trkpt>
      <trkpt lat="49.97059" lon="2.27986">
        <ele>59.7</ele>
        <time>2022-12-28T13:42:52Z</time>
      </trkpt>
      <trkpt lat="49.97058" lon="2.27989">
        <ele>59.7</ele>
        <time>2022-12-28T13:42:54Z</time>
      </trkpt>
      <trkpt lat="49.97057" lon="2.27991">
        <ele>59.6</ele>
        <time>2022-12-28T13:42:55Z</time>
      </trkpt>
      <trkpt lat="49.97056" lon="2.27993">
        <ele>59.6</ele>
        <time>2022-12-28T13:42:56Z</time>
      </trkpt>
      <trkpt lat="49.97055" lon="2.27996">
        <ele>59.6</ele>
        <time>2022-12-28T13:42:57Z</time>
      </trkpt>
      <trkpt lat="49.97054" lon="2.27997">
        <ele>59.6</ele>
        <time>2022-12-28T13:42:58Z</time>
      </trkpt>
      <trkpt lat="49.97054" lon="2.27999">
        <ele>59.6</ele>
        <time>2022-12-28T13:42:59Z</time>
      </trkpt>
      <trkpt lat="49.97053" lon="2.28">
        <ele>59.6</ele>
        <time>2022-12-28T13:43:00Z</time>
      </trkpt>
      <trkpt lat="49.97052" lon="2.28002">
        <ele>59.6</ele>
        <time>2022-12-28T13:43:01Z</time>
      </trkpt>
      <trkpt lat="49.97051" lon="2.28004">
        <ele>59.6</ele>
        <time>2022-12-28T13:43:03Z</time>
      </trkpt>
      <trkpt lat="49.97051" lon="2.28006">
        <ele>59.6</ele>
        <time>2022-12-28T13:43:04Z</time>
      </trkpt>
      <trkpt lat="49.9705" lon="2.28009">
        <ele>59.6</ele>
        <time>2022-12-28T13:43:05Z</time>
      </trkpt>
      <trkpt lat="49.97049" lon="2.2801">
        <ele>59.6</ele>
        <time>2022-12-28T13:43:06Z</time>
      </trkpt>
      <trkpt lat="49.97049" lon="2.28012">
        <ele>59.6</ele>
        <time>2022-12-28T13:43:07Z</time>
      </trkpt>
      <trkpt lat="49.97048" lon="2.28014">
        <ele>59.6</ele>
        <time>2022-12-28T13:43:08Z</time>
      </trkpt>
      <trkpt lat="49.97048" lon="2.28016">
        <ele>59.6</ele>
        <time>2022-12-28T13:43:09Z</time>
      </trkpt>
      <trkpt lat="49.97047" lon="2.28017">
        <ele>59.6</ele>
        <time>2022-12-28T13:43:11Z</time>
      </trkpt>
      <trkpt lat="49.97047" lon="2.28019">
        <ele>59.6</ele>
        <time>2022-12-28T13:43:12Z</time>
      </trkpt>
      <trkpt lat="49.97046" lon="2.2802">
        <ele>59.6</ele>
        <time>2022-12-28T13:43:13Z</time>
      </trkpt>
      <trkpt lat="49.97046" lon="2.28022">
        <ele>59.6</ele>
        <time>2022-12-28T13:43:14Z</time>
      </trkpt>
      <trkpt lat="49.97045" lon="2.28025">
        <ele>59.6</ele>
        <time>2022-12-28T13:43:15Z</time>
      </trkpt>
      <trkpt lat="49.97045" lon="2.28026">
        <ele>59.6</ele>
        <time>2022-12-28T13:43:16Z</time>
      </trkpt>
      <trkpt lat="49.97044" lon="2.28027">
        <ele>59.6</ele>
        <time>2022-12-28T13:43:17Z</time>
      </trkpt>
      <trkpt lat="49.97044" lon="2.28028">
        <ele>59.6</ele>
        <time>2022-12-28T13:43:18Z</time>
      </trkpt>
      <trkpt lat="49.97044" lon="2.2803">
        <ele>59.6</ele>
        <time>2022-12-28T13:43:19Z</time>
      </trkpt>
      <trkpt lat="49.97043" lon="2.28032">
        <ele>59.6</ele>
        <time>2022-12-28T13:43:20Z</time>
      </trkpt>
      <trkpt lat="49.97043" lon="2.28033">
        <ele>59.6</ele>
        <time>2022-12-28T13:43:21Z</time>
      </trkpt>
      <trkpt lat="49.97042" lon="2.28036">
        <ele>59.6</ele>
        <time>2022-12-28T13:43:23Z</time>
      </trkpt>
      <trkpt lat="49.97041" lon="2.28039">
        <ele>59.6</ele>
        <time>2022-12-28T13:43:24Z</time>
      </trkpt>
      <trkpt lat="49.97041" lon="2.2804">
        <ele>59.6</ele>
        <time>2022-12-28T13:43:26Z</time>
      </trkpt>
      <trkpt lat="49.9704" lon="2.28042">
        <ele>59.6</ele>
        <time>2022-12-28T13:43:27Z</time>
      </trkpt>
      <trkpt lat="49.9704" lon="2.28043">
        <ele>59.6</ele>
        <time>2022-12-28T13:43:28Z</time>
      </trkpt>
      <trkpt lat="49.97039" lon="2.28045">
        <ele>59.6</ele>
        <time>2022-12-28T13:43:29Z</time>
      </trkpt>
      <trkpt lat="49.97038" lon="2.28048">
        <ele>59.7</ele>
        <time>2022-12-28T13:43:30Z</time>
      </trkpt>
      <trkpt lat="49.97038" lon="2.28049">
        <ele>59.7</ele>
        <time>2022-12-28T13:43:32Z</time>
      </trkpt>
      <trkpt lat="49.97038" lon="2.2805">
        <ele>59.7</ele>
        <time>2022-12-28T13:43:33Z</time>
      </trkpt>
      <trkpt lat="49.97037" lon="2.28052">
        <ele>59.7</ele>
        <time>2022-12-28T13:43:34Z</time>
      </trkpt>
      <trkpt lat="49.97037" lon="2.28053">
        <ele>59.7</ele>
        <time>2022-12-28T13:43:35Z</time>
      </trkpt>
      <trkpt lat="49.97037" lon="2.28055">
        <ele>59.7</ele>
        <time>2022-12-28T13:43:36Z</time>
      </trkpt>
      <trkpt lat="49.97036" lon="2.28056">
        <ele>59.7</ele>
        <time>2022-12-28T13:43:37Z</time>
      </trkpt>
      <trkpt lat="49.97036" lon="2.28058">
        <ele>59.7</ele>
        <time>2022-12-28T13:43:38Z</time>
      </trkpt>
      <trkpt lat="49.97036" lon="2.2806">
        <ele>59.7</ele>
        <time>2022-12-28T13:43:39Z</time>
      </trkpt>
      <trkpt lat="49.97036" lon="2.28062">
        <ele>59.7</ele>
        <time>2022-12-28T13:43:41Z</time>
      </trkpt>
      <trkpt lat="49.97036" lon="2.28065">
        <ele>59.7</ele>
        <time>2022-12-28T13:43:42Z</time>
      </trkpt>
      <trkpt lat="49.97036" lon="2.28068">
        <ele>59.7</ele>
        <time>2022-12-28T13:43:43Z</time>
      </trkpt>
      <trkpt lat="49.97036" lon="2.2807">
        <ele>59.7</ele>
        <time>2022-12-28T13:43:44Z</time>
      </trkpt>
      <trkpt lat="49.97035" lon="2.28071">
        <ele>59.7</ele>
        <time>2022-12-28T13:43:45Z</time>
      </trkpt>
      <trkpt lat="49.97035" lon="2.28073">
        <ele>59.8</ele>
        <time>2022-12-28T13:43:46Z</time>
      </trkpt>
      <trkpt lat="49.97035" lon="2.28076">
        <ele>59.8</ele>
        <time>2022-12-28T13:43:48Z</time>
      </trkpt>
      <trkpt lat="49.97034" lon="2.28078">
        <ele>59.8</ele>
        <time>2022-12-28T13:43:49Z</time>
      </trkpt>
      <trkpt lat="49.97034" lon="2.28081">
        <ele>59.8</ele>
        <time>2022-12-28T13:43:50Z</time>
      </trkpt>
      <trkpt lat="49.97033" lon="2.28084">
        <ele>59.8</ele>
        <time>2022-12-28T13:43:51Z</time>
      </trkpt>
      <trkpt lat="49.97033" lon="2.28085">
        <ele>59.8</ele>
        <time>2022-12-28T13:43:52Z</time>
      </trkpt>
      <trkpt lat="49.97033" lon="2.28087">
        <ele>59.8</ele>
        <time>2022-12-28T13:43:53Z</time>
      </trkpt>
      <trkpt lat="49.97032" lon="2.28089">
        <ele>59.8</ele>
        <time>2022-12-28T13:43:54Z</time>
      </trkpt>
      <trkpt lat="49.97032" lon="2.28092">
        <ele>59.8</ele>
        <time>2022-12-28T13:43:55Z</time>
      </trkpt>
      <trkpt lat="49.97032" lon="2.28094">
        <ele>59.8</ele>
        <time>2022-12-28T13:43:56Z</time>
      </trkpt>
      <trkpt lat="49.97032" lon="2.28096">
        <ele>59.9</ele>
        <time>2022-12-28T13:43:57Z</time>
      </trkpt>
      <trkpt lat="49.97032" lon="2.28099">
        <ele>59.9</ele>
        <time>2022-12-28T13:43:58Z</time>
      </trkpt>
      <trkpt lat="49.97032" lon="2.28101">
        <ele>59.9</ele>
        <time>2022-12-28T13:43:59Z</time>
      </trkpt>
      <trkpt lat="49.97032" lon="2.28104">
        <ele>59.9</ele>
        <time>2022-12-28T13:44:00Z</time>
      </trkpt>
      <trkpt lat="49.97031" lon="2.28106">
        <ele>59.9</ele>
        <time>2022-12-28T13:44:02Z</time>
      </trkpt>
      <trkpt lat="49.97031" lon="2.28107">
        <ele>59.9</ele>
        <time>2022-12-28T13:44:03Z</time>
      </trkpt>
      <trkpt lat="49.97031" lon="2.28109">
        <ele>59.9</ele>
        <time>2022-12-28T13:44:04Z</time>
      </trkpt>
      <trkpt lat="49.97031" lon="2.28111">
        <ele>59.9</ele>
        <time>2022-12-28T13:44:05Z</time>
      </trkpt>
      <trkpt lat="49.9703" lon="2.28113">
        <ele>59.9</ele>
        <time>2022-12-28T13:44:06Z</time>
      </trkpt>
      <trkpt lat="49.9703" lon="2.28115">
        <ele>59.9</ele>
        <time>2022-12-28T13:44:07Z</time>
      </trkpt>
      <trkpt lat="49.97029" lon="2.28118">
        <ele>59.9</ele>
        <time>2022-12-28T13:44:08Z</time>
      </trkpt>
      <trkpt lat="49.97029" lon="2.2812">
        <ele>59.9</ele>
        <time>2022-12-28T13:44:09Z</time>
      </trkpt>
      <trkpt lat="49.97028" lon="2.28122">
        <ele>59.9</ele>
        <time>2022-12-28T13:44:10Z</time>
      </trkpt>
      <trkpt lat="49.97028" lon="2.28124">
        <ele>59.9</ele>
        <time>2022-12-28T13:44:11Z</time>
      </trkpt>
      <trkpt lat="49.97027" lon="2.28126">
        <ele>59.9</ele>
        <time>2022-12-28T13:44:12Z</time>
      </trkpt>
      <trkpt lat="49.97027" lon="2.28128">
        <ele>59.9</ele>
        <time>2022-12-28T13:44:13Z</time>
      </trkpt>
      <trkpt lat="49.97027" lon="2.2813">
        <ele>59.9</ele>
        <time>2022-12-28T13:44:15Z</time>
      </trkpt>
      <trkpt lat="49.97026" lon="2.28133">
        <ele>60</ele>
        <time>2022-12-28T13:44:16Z</time>
      </trkpt>
      <trkpt lat="49.97025" lon="2.28134">
        <ele>60</ele>
        <time>2022-12-28T13:44:17Z</time>
      </trkpt>
      <trkpt lat="49.97025" lon="2.28135">
        <ele>60</ele>
        <time>2022-12-28T13:44:18Z</time>
      </trkpt>
      <trkpt lat="49.97025" lon="2.28137">
        <ele>60</ele>
        <time>2022-12-28T13:44:19Z</time>
      </trkpt>
      <trkpt lat="49.97024" lon="2.28139">
        <ele>60</ele>
        <time>2022-12-28T13:44:21Z</time>
      </trkpt>
      <trkpt lat="49.97024" lon="2.28142">
        <ele>60</ele>
        <time>2022-12-28T13:44:22Z</time>
      </trkpt>
      <trkpt lat="49.97023" lon="2.28144">
        <ele>60</ele>
        <time>2022-12-28T13:44:23Z</time>
      </trkpt>
      <trkpt lat="49.97023" lon="2.28146">
        <ele>60</ele>
        <time>2022-12-28T13:44:24Z</time>
      </trkpt>
      <trkpt lat="49.97022" lon="2.28148">
        <ele>60</ele>
        <time>2022-12-28T13:44:25Z</time>
      </trkpt>
      <trkpt lat="49.97022" lon="2.2815">
        <ele>60.1</ele>
        <time>2022-12-28T13:44:26Z</time>
      </trkpt>
      <trkpt lat="49.97021" lon="2.28152">
        <ele>60.1</ele>
        <time>2022-12-28T13:44:27Z</time>
      </trkpt>
      <trkpt lat="49.97021" lon="2.28153">
        <ele>60.1</ele>
        <time>2022-12-28T13:44:28Z</time>
      </trkpt>
      <trkpt lat="49.97021" lon="2.28155">
        <ele>60.1</ele>
        <time>2022-12-28T13:44:29Z</time>
      </trkpt>
      <trkpt lat="49.9702" lon="2.28158">
        <ele>60.1</ele>
        <time>2022-12-28T13:44:30Z</time>
      </trkpt>
      <trkpt lat="49.9702" lon="2.2816">
        <ele>60.1</ele>
        <time>2022-12-28T13:44:31Z</time>
      </trkpt>
      <trkpt lat="49.97019" lon="2.28162">
        <ele>60.2</ele>
        <time>2022-12-28T13:44:33Z</time>
      </trkpt>
      <trkpt lat="49.97019" lon="2.28164">
        <ele>60.2</ele>
        <time>2022-12-28T13:44:34Z</time>
      </trkpt>
      <trkpt lat="49.97019" lon="2.28166">
        <ele>60.2</ele>
        <time>2022-12-28T13:44:35Z</time>
      </trkpt>
      <trkpt lat="49.97018" lon="2.28168">
        <ele>60.2</ele>
        <time>2022-12-28T13:44:36Z</time>
      </trkpt>
      <trkpt lat="49.97018" lon="2.2817">
        <ele>60.2</ele>
        <time>2022-12-28T13:44:37Z</time>
      </trkpt>
      <trkpt lat="49.97018" lon="2.28173">
        <ele>60.3</ele>
        <time>2022-12-28T13:44:38Z</time>
      </trkpt>
      <trkpt lat="49.97017" lon="2.28174">
        <ele>60.3</ele>
        <time>2022-12-28T13:44:39Z</time>
      </trkpt>
      <trkpt lat="49.97017" lon="2.28176">
        <ele>60.3</ele>
        <time>2022-12-28T13:44:40Z</time>
      </trkpt>
      <trkpt lat="49.97017" lon="2.28178">
        <ele>60.3</ele>
        <time>2022-12-28T13:44:41Z</time>
      </trkpt>
      <trkpt lat="49.97017" lon="2.2818">
        <ele>60.3</ele>
        <time>2022-12-28T13:44:42Z</time>
      </trkpt>
      <trkpt lat="49.97016" lon="2.28182">
        <ele>60.3</ele>
        <time>2022-12-28T13:44:43Z</time>
      </trkpt>
      <trkpt lat="49.97016" lon="2.28184">
        <ele>60.4</ele>
        <time>2022-12-28T13:44:45Z</time>
      </trkpt>
      <trkpt lat="49.97016" lon="2.28186">
        <ele>60.4</ele>
        <time>2022-12-28T13:44:46Z</time>
      </trkpt>
      <trkpt lat="49.97016" lon="2.28189">
        <ele>60.4</ele>
        <time>2022-12-28T13:44:47Z</time>
      </trkpt>
      <trkpt lat="49.97015" lon="2.28191">
        <ele>60.4</ele>
        <time>2022-12-28T13:44:48Z</time>
      </trkpt>
      <trkpt lat="49.97015" lon="2.28193">
        <ele>60.4</ele>
        <time>2022-12-28T13:44:49Z</time>
      </trkpt>
      <trkpt lat="49.97015" lon="2.28195">
        <ele>60.4</ele>
        <time>2022-12-28T13:44:51Z</time>
      </trkpt>
      <trkpt lat="49.97014" lon="2.28198">
        <ele>60.5</ele>
        <time>2022-12-28T13:44:52Z</time>
      </trkpt>
      <trkpt lat="49.97014" lon="2.28199">
        <ele>60.5</ele>
        <time>2022-12-28T13:44:53Z</time>
      </trkpt>
      <trkpt lat="49.97014" lon="2.282">
        <ele>60.5</ele>
        <time>2022-12-28T13:44:54Z</time>
      </trkpt>
      <trkpt lat="49.97013" lon="2.28202">
        <ele>60.5</ele>
        <time>2022-12-28T13:44:55Z</time>
      </trkpt>
      <trkpt lat="49.97013" lon="2.28204">
        <ele>60.5</ele>
        <time>2022-12-28T13:44:56Z</time>
      </trkpt>
      <trkpt lat="49.97012" lon="2.28205">
        <ele>60.5</ele>
        <time>2022-12-28T13:44:57Z</time>
      </trkpt>
      <trkpt lat="49.97012" lon="2.28207">
        <ele>60.5</ele>
        <time>2022-12-28T13:44:58Z</time>
      </trkpt>
      <trkpt lat="49.97011" lon="2.28209">
        <ele>60.5</ele>
        <time>2022-12-28T13:44:59Z</time>
      </trkpt>
      <trkpt lat="49.97011" lon="2.28211">
        <ele>60.5</ele>
        <time>2022-12-28T13:45:00Z</time>
      </trkpt>
      <trkpt lat="49.97011" lon="2.28212">
        <ele>60.6</ele>
        <time>2022-12-28T13:45:02Z</time>
      </trkpt>
      <trkpt lat="49.9701" lon="2.28213">
        <ele>60.6</ele>
        <time>2022-12-28T13:45:03Z</time>
      </trkpt>
      <trkpt lat="49.9701" lon="2.28215">
        <ele>60.6</ele>
        <time>2022-12-28T13:45:04Z</time>
      </trkpt>
      <trkpt lat="49.9701" lon="2.28217">
        <ele>60.6</ele>
        <time>2022-12-28T13:45:05Z</time>
      </trkpt>
      <trkpt lat="49.9701" lon="2.28219">
        <ele>60.6</ele>
        <time>2022-12-28T13:45:06Z</time>
      </trkpt>
      <trkpt lat="49.97009" lon="2.28222">
        <ele>60.6</ele>
        <time>2022-12-28T13:45:07Z</time>
      </trkpt>
      <trkpt lat="49.97009" lon="2.28225">
        <ele>60.7</ele>
        <time>2022-12-28T13:45:09Z</time>
      </trkpt>
      <trkpt lat="49.97009" lon="2.28227">
        <ele>60.7</ele>
        <time>2022-12-28T13:45:10Z</time>
      </trkpt>
      <trkpt lat="49.97008" lon="2.2823">
        <ele>60.7</ele>
        <time>2022-12-28T13:45:11Z</time>
      </trkpt>
      <trkpt lat="49.97008" lon="2.28231">
        <ele>60.7</ele>
        <time>2022-12-28T13:45:12Z</time>
      </trkpt>
      <trkpt lat="49.97008" lon="2.28233">
        <ele>60.7</ele>
        <time>2022-12-28T13:45:13Z</time>
      </trkpt>
      <trkpt lat="49.97007" lon="2.28236">
        <ele>60.8</ele>
        <time>2022-12-28T13:45:14Z</time>
      </trkpt>
      <trkpt lat="49.97007" lon="2.28237">
        <ele>60.8</ele>
        <time>2022-12-28T13:45:15Z</time>
      </trkpt>
      <trkpt lat="49.97007" lon="2.28238">
        <ele>60.8</ele>
        <time>2022-12-28T13:45:16Z</time>
      </trkpt>
      <trkpt lat="49.97006" lon="2.28241">
        <ele>60.8</ele>
        <time>2022-12-28T13:45:17Z</time>
      </trkpt>
      <trkpt lat="49.97006" lon="2.28243">
        <ele>60.8</ele>
        <time>2022-12-28T13:45:18Z</time>
      </trkpt>
      <trkpt lat="49.97006" lon="2.28244">
        <ele>60.8</ele>
        <time>2022-12-28T13:45:19Z</time>
      </trkpt>
      <trkpt lat="49.97005" lon="2.28247">
        <ele>60.9</ele>
        <time>2022-12-28T13:45:21Z</time>
      </trkpt>
      <trkpt lat="49.97004" lon="2.28249">
        <ele>60.9</ele>
        <time>2022-12-28T13:45:22Z</time>
      </trkpt>
      <trkpt lat="49.97004" lon="2.2825">
        <ele>60.9</ele>
        <time>2022-12-28T13:45:23Z</time>
      </trkpt>
      <trkpt lat="49.97004" lon="2.28253">
        <ele>60.9</ele>
        <time>2022-12-28T13:45:24Z</time>
      </trkpt>
      <trkpt lat="49.97004" lon="2.28254">
        <ele>60.9</ele>
        <time>2022-12-28T13:45:25Z</time>
      </trkpt>
      <trkpt lat="49.97003" lon="2.28255">
        <ele>60.9</ele>
        <time>2022-12-28T13:45:26Z</time>
      </trkpt>
      <trkpt lat="49.97003" lon="2.28259">
        <ele>61</ele>
        <time>2022-12-28T13:45:27Z</time>
      </trkpt>
      <trkpt lat="49.97003" lon="2.2826">
        <ele>61</ele>
        <time>2022-12-28T13:45:28Z</time>
      </trkpt>
      <trkpt lat="49.97003" lon="2.28261">
        <ele>61</ele>
        <time>2022-12-28T13:45:29Z</time>
      </trkpt>
      <trkpt lat="49.97002" lon="2.28263">
        <ele>61</ele>
        <time>2022-12-28T13:45:31Z</time>
      </trkpt>
      <trkpt lat="49.97002" lon="2.28265">
        <ele>61</ele>
        <time>2022-12-28T13:45:32Z</time>
      </trkpt>
      <trkpt lat="49.97002" lon="2.28266">
        <ele>61.1</ele>
        <time>2022-12-28T13:45:33Z</time>
      </trkpt>
      <trkpt lat="49.97001" lon="2.28268">
        <ele>61.1</ele>
        <time>2022-12-28T13:45:34Z</time>
      </trkpt>
      <trkpt lat="49.97001" lon="2.2827">
        <ele>61.1</ele>
        <time>2022-12-28T13:45:35Z</time>
      </trkpt>
      <trkpt lat="49.97001" lon="2.28271">
        <ele>61.1</ele>
        <time>2022-12-28T13:45:36Z</time>
      </trkpt>
      <trkpt lat="49.97001" lon="2.28273">
        <ele>61.1</ele>
        <time>2022-12-28T13:45:37Z</time>
      </trkpt>
      <trkpt lat="49.97" lon="2.28275">
        <ele>61.2</ele>
        <time>2022-12-28T13:45:38Z</time>
      </trkpt>
      <trkpt lat="49.97" lon="2.28276">
        <ele>61.2</ele>
        <time>2022-12-28T13:45:39Z</time>
      </trkpt>
      <trkpt lat="49.96999" lon="2.2828">
        <ele>61.2</ele>
        <time>2022-12-28T13:45:41Z</time>
      </trkpt>
      <trkpt lat="49.96999" lon="2.28281">
        <ele>61.2</ele>
        <time>2022-12-28T13:45:42Z</time>
      </trkpt>
      <trkpt lat="49.96998" lon="2.28282">
        <ele>61.3</ele>
        <time>2022-12-28T13:45:43Z</time>
      </trkpt>
      <trkpt lat="49.96998" lon="2.28285">
        <ele>61.3</ele>
        <time>2022-12-28T13:45:44Z</time>
      </trkpt>
      <trkpt lat="49.96997" lon="2.28287">
        <ele>61.3</ele>
        <time>2022-12-28T13:45:46Z</time>
      </trkpt>
      <trkpt lat="49.96997" lon="2.28288">
        <ele>61.3</ele>
        <time>2022-12-28T13:45:47Z</time>
      </trkpt>
      <trkpt lat="49.96996" lon="2.2829">
        <ele>61.4</ele>
        <time>2022-12-28T13:45:48Z</time>
      </trkpt>
      <trkpt lat="49.96996" lon="2.28291">
        <ele>61.4</ele>
        <time>2022-12-28T13:45:49Z</time>
      </trkpt>
      <trkpt lat="49.96995" lon="2.28293">
        <ele>61.4</ele>
        <time>2022-12-28T13:45:50Z</time>
      </trkpt>
      <trkpt lat="49.96995" lon="2.28297">
        <ele>61.5</ele>
        <time>2022-12-28T13:45:51Z</time>
      </trkpt>
      <trkpt lat="49.96995" lon="2.28298">
        <ele>61.5</ele>
        <time>2022-12-28T13:45:52Z</time>
      </trkpt>
      <trkpt lat="49.96994" lon="2.283">
        <ele>61.5</ele>
        <time>2022-12-28T13:45:53Z</time>
      </trkpt>
      <trkpt lat="49.96994" lon="2.28303">
        <ele>61.5</ele>
        <time>2022-12-28T13:45:54Z</time>
      </trkpt>
      <trkpt lat="49.96994" lon="2.28305">
        <ele>61.6</ele>
        <time>2022-12-28T13:45:56Z</time>
      </trkpt>
      <trkpt lat="49.96993" lon="2.28307">
        <ele>61.6</ele>
        <time>2022-12-28T13:45:57Z</time>
      </trkpt>
      <trkpt lat="49.96993" lon="2.28308">
        <ele>61.6</ele>
        <time>2022-12-28T13:45:58Z</time>
      </trkpt>
      <trkpt lat="49.96993" lon="2.2831">
        <ele>61.6</ele>
        <time>2022-12-28T13:45:59Z</time>
      </trkpt>
      <trkpt lat="49.96992" lon="2.28313">
        <ele>61.7</ele>
        <time>2022-12-28T13:46:00Z</time>
      </trkpt>
      <trkpt lat="49.96991" lon="2.28314">
        <ele>61.7</ele>
        <time>2022-12-28T13:46:01Z</time>
      </trkpt>
      <trkpt lat="49.96991" lon="2.28317">
        <ele>61.7</ele>
        <time>2022-12-28T13:46:02Z</time>
      </trkpt>
      <trkpt lat="49.9699" lon="2.28318">
        <ele>61.7</ele>
        <time>2022-12-28T13:46:03Z</time>
      </trkpt>
      <trkpt lat="49.9699" lon="2.2832">
        <ele>61.7</ele>
        <time>2022-12-28T13:46:04Z</time>
      </trkpt>
      <trkpt lat="49.96989" lon="2.28322">
        <ele>61.8</ele>
        <time>2022-12-28T13:46:06Z</time>
      </trkpt>
      <trkpt lat="49.96989" lon="2.28324">
        <ele>61.8</ele>
        <time>2022-12-28T13:46:07Z</time>
      </trkpt>
      <trkpt lat="49.96988" lon="2.28326">
        <ele>61.8</ele>
        <time>2022-12-28T13:46:08Z</time>
      </trkpt>
      <trkpt lat="49.96987" lon="2.28328">
        <ele>61.9</ele>
        <time>2022-12-28T13:46:09Z</time>
      </trkpt>
      <trkpt lat="49.96987" lon="2.2833">
        <ele>61.9</ele>
        <time>2022-12-28T13:46:10Z</time>
      </trkpt>
      <trkpt lat="49.96986" lon="2.28332">
        <ele>61.9</ele>
        <time>2022-12-28T13:46:11Z</time>
      </trkpt>
      <trkpt lat="49.96986" lon="2.28334">
        <ele>61.9</ele>
        <time>2022-12-28T13:46:12Z</time>
      </trkpt>
      <trkpt lat="49.96986" lon="2.28336">
        <ele>61.9</ele>
        <time>2022-12-28T13:46:13Z</time>
      </trkpt>
      <trkpt lat="49.96985" lon="2.2834">
        <ele>62</ele>
        <time>2022-12-28T13:46:14Z</time>
      </trkpt>
      <trkpt lat="49.96985" lon="2.28341">
        <ele>62</ele>
        <time>2022-12-28T13:46:16Z</time>
      </trkpt>
      <trkpt lat="49.96984" lon="2.28343">
        <ele>62</ele>
        <time>2022-12-28T13:46:17Z</time>
      </trkpt>
      <trkpt lat="49.96984" lon="2.28345">
        <ele>62</ele>
        <time>2022-12-28T13:46:18Z</time>
      </trkpt>
      <trkpt lat="49.96984" lon="2.28346">
        <ele>62</ele>
        <time>2022-12-28T13:46:19Z</time>
      </trkpt>
      <trkpt lat="49.96983" lon="2.28348">
        <ele>62.1</ele>
        <time>2022-12-28T13:46:20Z</time>
      </trkpt>
      <trkpt lat="49.96982" lon="2.2835">
        <ele>62.1</ele>
        <time>2022-12-28T13:46:21Z</time>
      </trkpt>
      <trkpt lat="49.96982" lon="2.28352">
        <ele>62.1</ele>
        <time>2022-12-28T13:46:22Z</time>
      </trkpt>
      <trkpt lat="49.96981" lon="2.28354">
        <ele>62.1</ele>
        <time>2022-12-28T13:46:23Z</time>
      </trkpt>
      <trkpt lat="49.96981" lon="2.28356">
        <ele>62.1</ele>
        <time>2022-12-28T13:46:24Z</time>
      </trkpt>
      <trkpt lat="49.9698" lon="2.28359">
        <ele>62.2</ele>
        <time>2022-12-28T13:46:26Z</time>
      </trkpt>
      <trkpt lat="49.9698" lon="2.2836">
        <ele>62.2</ele>
        <time>2022-12-28T13:46:27Z</time>
      </trkpt>
      <trkpt lat="49.96979" lon="2.28362">
        <ele>62.2</ele>
        <time>2022-12-28T13:46:28Z</time>
      </trkpt>
      <trkpt lat="49.96979" lon="2.28364">
        <ele>62.2</ele>
        <time>2022-12-28T13:46:29Z</time>
      </trkpt>
      <trkpt lat="49.96978" lon="2.28366">
        <ele>62.2</ele>
        <time>2022-12-28T13:46:30Z</time>
      </trkpt>
      <trkpt lat="49.96978" lon="2.28368">
        <ele>62.3</ele>
        <time>2022-12-28T13:46:31Z</time>
      </trkpt>
      <trkpt lat="49.96977" lon="2.2837">
        <ele>62.3</ele>
        <time>2022-12-28T13:46:33Z</time>
      </trkpt>
      <trkpt lat="49.96977" lon="2.28373">
        <ele>62.3</ele>
        <time>2022-12-28T13:46:34Z</time>
      </trkpt>
      <trkpt lat="49.96976" lon="2.28374">
        <ele>62.3</ele>
        <time>2022-12-28T13:46:35Z</time>
      </trkpt>
      <trkpt lat="49.96976" lon="2.28376">
        <ele>62.3</ele>
        <time>2022-12-28T13:46:36Z</time>
      </trkpt>
      <trkpt lat="49.96976" lon="2.28377">
        <ele>62.4</ele>
        <time>2022-12-28T13:46:37Z</time>
      </trkpt>
      <trkpt lat="49.96975" lon="2.28379">
        <ele>62.4</ele>
        <time>2022-12-28T13:46:38Z</time>
      </trkpt>
      <trkpt lat="49.96975" lon="2.2838">
        <ele>62.4</ele>
        <time>2022-12-28T13:46:40Z</time>
      </trkpt>
      <trkpt lat="49.96974" lon="2.28382">
        <ele>62.4</ele>
        <time>2022-12-28T13:46:41Z</time>
      </trkpt>
      <trkpt lat="49.96974" lon="2.28384">
        <ele>62.4</ele>
        <time>2022-12-28T13:46:42Z</time>
      </trkpt>
      <trkpt lat="49.96973" lon="2.28385">
        <ele>62.5</ele>
        <time>2022-12-28T13:46:43Z</time>
      </trkpt>
      <trkpt lat="49.96973" lon="2.28387">
        <ele>62.5</ele>
        <time>2022-12-28T13:46:44Z</time>
      </trkpt>
      <trkpt lat="49.96972" lon="2.28389">
        <ele>62.5</ele>
        <time>2022-12-28T13:46:45Z</time>
      </trkpt>
      <trkpt lat="49.96971" lon="2.28392">
        <ele>62.5</ele>
        <time>2022-12-28T13:46:46Z</time>
      </trkpt>
      <trkpt lat="49.96971" lon="2.28393">
        <ele>62.5</ele>
        <time>2022-12-28T13:46:47Z</time>
      </trkpt>
      <trkpt lat="49.9697" lon="2.28394">
        <ele>62.5</ele>
        <time>2022-12-28T13:46:48Z</time>
      </trkpt>
      <trkpt lat="49.9697" lon="2.28396">
        <ele>62.6</ele>
        <time>2022-12-28T13:46:50Z</time>
      </trkpt>
      <trkpt lat="49.9697" lon="2.28398">
        <ele>62.6</ele>
        <time>2022-12-28T13:46:51Z</time>
      </trkpt>
      <trkpt lat="49.96969" lon="2.28399">
        <ele>62.6</ele>
        <time>2022-12-28T13:46:52Z</time>
      </trkpt>
      <trkpt lat="49.96968" lon="2.28402">
        <ele>62.6</ele>
        <time>2022-12-28T13:46:53Z</time>
      </trkpt>
      <trkpt lat="49.96968" lon="2.28403">
        <ele>62.6</ele>
        <time>2022-12-28T13:46:54Z</time>
      </trkpt>
      <trkpt lat="49.96967" lon="2.28404">
        <ele>62.6</ele>
        <time>2022-12-28T13:46:55Z</time>
      </trkpt>
      <trkpt lat="49.96966" lon="2.28407">
        <ele>62.7</ele>
        <time>2022-12-28T13:46:56Z</time>
      </trkpt>
      <trkpt lat="49.96966" lon="2.28409">
        <ele>62.7</ele>
        <time>2022-12-28T13:46:57Z</time>
      </trkpt>
      <trkpt lat="49.96965" lon="2.2841">
        <ele>62.7</ele>
        <time>2022-12-28T13:46:58Z</time>
      </trkpt>
      <trkpt lat="49.96964" lon="2.28413">
        <ele>62.8</ele>
        <time>2022-12-28T13:47:00Z</time>
      </trkpt>
      <trkpt lat="49.96963" lon="2.28414">
        <ele>62.8</ele>
        <time>2022-12-28T13:47:01Z</time>
      </trkpt>
      <trkpt lat="49.96963" lon="2.28416">
        <ele>62.8</ele>
        <time>2022-12-28T13:47:02Z</time>
      </trkpt>
      <trkpt lat="49.96962" lon="2.28417">
        <ele>62.8</ele>
        <time>2022-12-28T13:47:03Z</time>
      </trkpt>
      <trkpt lat="49.96962" lon="2.28418">
        <ele>62.8</ele>
        <time>2022-12-28T13:47:04Z</time>
      </trkpt>
      <trkpt lat="49.96961" lon="2.2842">
        <ele>62.9</ele>
        <time>2022-12-28T13:47:05Z</time>
      </trkpt>
      <trkpt lat="49.9696" lon="2.28422">
        <ele>62.9</ele>
        <time>2022-12-28T13:47:06Z</time>
      </trkpt>
      <trkpt lat="49.9696" lon="2.28424">
        <ele>62.9</ele>
        <time>2022-12-28T13:47:07Z</time>
      </trkpt>
      <trkpt lat="49.96959" lon="2.28427">
        <ele>63</ele>
        <time>2022-12-28T13:47:09Z</time>
      </trkpt>
      <trkpt lat="49.96958" lon="2.28428">
        <ele>63</ele>
        <time>2022-12-28T13:47:10Z</time>
      </trkpt>
      <trkpt lat="49.96958" lon="2.28429">
        <ele>63</ele>
        <time>2022-12-28T13:47:11Z</time>
      </trkpt>
      <trkpt lat="49.96957" lon="2.28432">
        <ele>63.1</ele>
        <time>2022-12-28T13:47:12Z</time>
      </trkpt>
      <trkpt lat="49.96957" lon="2.28433">
        <ele>63.1</ele>
        <time>2022-12-28T13:47:13Z</time>
      </trkpt>
      <trkpt lat="49.96956" lon="2.28435">
        <ele>63.1</ele>
        <time>2022-12-28T13:47:14Z</time>
      </trkpt>
      <trkpt lat="49.96955" lon="2.28437">
        <ele>63.1</ele>
        <time>2022-12-28T13:47:15Z</time>
      </trkpt>
      <trkpt lat="49.96955" lon="2.28439">
        <ele>63.2</ele>
        <time>2022-12-28T13:47:17Z</time>
      </trkpt>
      <trkpt lat="49.96954" lon="2.28441">
        <ele>63.2</ele>
        <time>2022-12-28T13:47:18Z</time>
      </trkpt>
      <trkpt lat="49.96953" lon="2.28443">
        <ele>63.2</ele>
        <time>2022-12-28T13:47:19Z</time>
      </trkpt>
      <trkpt lat="49.96952" lon="2.28446">
        <ele>63.3</ele>
        <time>2022-12-28T13:47:20Z</time>
      </trkpt>
      <trkpt lat="49.96952" lon="2.28447">
        <ele>63.3</ele>
        <time>2022-12-28T13:47:21Z</time>
      </trkpt>
      <trkpt lat="49.96951" lon="2.28448">
        <ele>63.3</ele>
        <time>2022-12-28T13:47:22Z</time>
      </trkpt>
      <trkpt lat="49.96951" lon="2.28451">
        <ele>63.3</ele>
        <time>2022-12-28T13:47:23Z</time>
      </trkpt>
      <trkpt lat="49.96951" lon="2.28453">
        <ele>63.4</ele>
        <time>2022-12-28T13:47:24Z</time>
      </trkpt>
      <trkpt lat="49.96951" lon="2.28455">
        <ele>63.4</ele>
        <time>2022-12-28T13:47:25Z</time>
      </trkpt>
      <trkpt lat="49.9695" lon="2.28457">
        <ele>63.4</ele>
        <time>2022-12-28T13:47:26Z</time>
      </trkpt>
      <trkpt lat="49.96949" lon="2.2846">
        <ele>63.5</ele>
        <time>2022-12-28T13:47:28Z</time>
      </trkpt>
      <trkpt lat="49.96949" lon="2.28462">
        <ele>63.5</ele>
        <time>2022-12-28T13:47:29Z</time>
      </trkpt>
      <trkpt lat="49.96949" lon="2.28463">
        <ele>63.5</ele>
        <time>2022-12-28T13:47:30Z</time>
      </trkpt>
      <trkpt lat="49.96948" lon="2.28465">
        <ele>63.5</ele>
        <time>2022-12-28T13:47:31Z</time>
      </trkpt>
      <trkpt lat="49.96948" lon="2.28467">
        <ele>63.6</ele>
        <time>2022-12-28T13:47:32Z</time>
      </trkpt>
      <trkpt lat="49.96947" lon="2.2847">
        <ele>63.6</ele>
        <time>2022-12-28T13:47:34Z</time>
      </trkpt>
      <trkpt lat="49.96946" lon="2.28472">
        <ele>63.6</ele>
        <time>2022-12-28T13:47:35Z</time>
      </trkpt>
      <trkpt lat="49.96945" lon="2.28474">
        <ele>63.6</ele>
        <time>2022-12-28T13:47:36Z</time>
      </trkpt>
      <trkpt lat="49.96945" lon="2.28476">
        <ele>63.7</ele>
        <time>2022-12-28T13:47:37Z</time>
      </trkpt>
      <trkpt lat="49.96944" lon="2.28478">
        <ele>63.7</ele>
        <time>2022-12-28T13:47:38Z</time>
      </trkpt>
      <trkpt lat="49.96943" lon="2.2848">
        <ele>63.7</ele>
        <time>2022-12-28T13:47:39Z</time>
      </trkpt>
      <trkpt lat="49.96943" lon="2.28481">
        <ele>63.8</ele>
        <time>2022-12-28T13:47:40Z</time>
      </trkpt>
      <trkpt lat="49.96942" lon="2.28483">
        <ele>63.8</ele>
        <time>2022-12-28T13:47:41Z</time>
      </trkpt>
      <trkpt lat="49.96941" lon="2.28484">
        <ele>63.8</ele>
        <time>2022-12-28T13:47:42Z</time>
      </trkpt>
      <trkpt lat="49.9694" lon="2.28487">
        <ele>63.9</ele>
        <time>2022-12-28T13:47:43Z</time>
      </trkpt>
      <trkpt lat="49.9694" lon="2.28488">
        <ele>63.9</ele>
        <time>2022-12-28T13:47:45Z</time>
      </trkpt>
      <trkpt lat="49.9694" lon="2.2849">
        <ele>63.9</ele>
        <time>2022-12-28T13:47:46Z</time>
      </trkpt>
      <trkpt lat="49.96939" lon="2.28491">
        <ele>63.9</ele>
        <time>2022-12-28T13:47:47Z</time>
      </trkpt>
      <trkpt lat="49.96938" lon="2.28494">
        <ele>64</ele>
        <time>2022-12-28T13:47:48Z</time>
      </trkpt>
      <trkpt lat="49.96938" lon="2.28495">
        <ele>64</ele>
        <time>2022-12-28T13:47:49Z</time>
      </trkpt>
      <trkpt lat="49.96938" lon="2.28497">
        <ele>64</ele>
        <time>2022-12-28T13:47:50Z</time>
      </trkpt>
      <trkpt lat="49.96938" lon="2.28498">
        <ele>64</ele>
        <time>2022-12-28T13:47:51Z</time>
      </trkpt>
      <trkpt lat="49.96937" lon="2.28502">
        <ele>64.1</ele>
        <time>2022-12-28T13:47:52Z</time>
      </trkpt>
      <trkpt lat="49.96936" lon="2.28503">
        <ele>64.1</ele>
        <time>2022-12-28T13:47:53Z</time>
      </trkpt>
      <trkpt lat="49.96936" lon="2.28504">
        <ele>64.1</ele>
        <time>2022-12-28T13:47:54Z</time>
      </trkpt>
      <trkpt lat="49.96935" lon="2.28505">
        <ele>64.2</ele>
        <time>2022-12-28T13:47:56Z</time>
      </trkpt>
      <trkpt lat="49.96935" lon="2.28507">
        <ele>64.2</ele>
        <time>2022-12-28T13:47:57Z</time>
      </trkpt>
      <trkpt lat="49.96934" lon="2.28508">
        <ele>64.2</ele>
        <time>2022-12-28T13:47:58Z</time>
      </trkpt>
      <trkpt lat="49.96934" lon="2.2851">
        <ele>64.2</ele>
        <time>2022-12-28T13:47:59Z</time>
      </trkpt>
      <trkpt lat="49.96934" lon="2.28511">
        <ele>64.3</ele>
        <time>2022-12-28T13:48:00Z</time>
      </trkpt>
      <trkpt lat="49.96933" lon="2.28513">
        <ele>64.3</ele>
        <time>2022-12-28T13:48:01Z</time>
      </trkpt>
      <trkpt lat="49.96933" lon="2.28514">
        <ele>64.3</ele>
        <time>2022-12-28T13:48:02Z</time>
      </trkpt>
      <trkpt lat="49.96932" lon="2.28516">
        <ele>64.3</ele>
        <time>2022-12-28T13:48:03Z</time>
      </trkpt>
      <trkpt lat="49.96932" lon="2.28518">
        <ele>64.4</ele>
        <time>2022-12-28T13:48:05Z</time>
      </trkpt>
      <trkpt lat="49.96932" lon="2.2852">
        <ele>64.4</ele>
        <time>2022-12-28T13:48:06Z</time>
      </trkpt>
      <trkpt lat="49.96931" lon="2.28521">
        <ele>64.4</ele>
        <time>2022-12-28T13:48:07Z</time>
      </trkpt>
      <trkpt lat="49.96931" lon="2.28523">
        <ele>64.4</ele>
        <time>2022-12-28T13:48:08Z</time>
      </trkpt>
      <trkpt lat="49.9693" lon="2.28525">
        <ele>64.4</ele>
        <time>2022-12-28T13:48:09Z</time>
      </trkpt>
      <trkpt lat="49.9693" lon="2.28526">
        <ele>64.4</ele>
        <time>2022-12-28T13:48:10Z</time>
      </trkpt>
      <trkpt lat="49.9693" lon="2.28528">
        <ele>64.4</ele>
        <time>2022-12-28T13:48:11Z</time>
      </trkpt>
      <trkpt lat="49.96929" lon="2.28531">
        <ele>64.4</ele>
        <time>2022-12-28T13:48:12Z</time>
      </trkpt>
      <trkpt lat="49.96929" lon="2.28532">
        <ele>64.4</ele>
        <time>2022-12-28T13:48:14Z</time>
      </trkpt>
      <trkpt lat="49.96929" lon="2.28534">
        <ele>64.4</ele>
        <time>2022-12-28T13:48:15Z</time>
      </trkpt>
      <trkpt lat="49.96928" lon="2.28537">
        <ele>64.5</ele>
        <time>2022-12-28T13:48:16Z</time>
      </trkpt>
      <trkpt lat="49.96928" lon="2.28538">
        <ele>64.5</ele>
        <time>2022-12-28T13:48:17Z</time>
      </trkpt>
      <trkpt lat="49.96927" lon="2.2854">
        <ele>64.5</ele>
        <time>2022-12-28T13:48:18Z</time>
      </trkpt>
      <trkpt lat="49.96927" lon="2.28541">
        <ele>64.5</ele>
        <time>2022-12-28T13:48:19Z</time>
      </trkpt>
      <trkpt lat="49.96927" lon="2.28543">
        <ele>64.5</ele>
        <time>2022-12-28T13:48:20Z</time>
      </trkpt>
      <trkpt lat="49.96926" lon="2.28545">
        <ele>64.5</ele>
        <time>2022-12-28T13:48:21Z</time>
      </trkpt>
      <trkpt lat="49.96926" lon="2.28548">
        <ele>64.5</ele>
        <time>2022-12-28T13:48:22Z</time>
      </trkpt>
      <trkpt lat="49.96925" lon="2.2855">
        <ele>64.5</ele>
        <time>2022-12-28T13:48:24Z</time>
      </trkpt>
      <trkpt lat="49.96925" lon="2.28552">
        <ele>64.6</ele>
        <time>2022-12-28T13:48:25Z</time>
      </trkpt>
      <trkpt lat="49.96925" lon="2.28554">
        <ele>64.6</ele>
        <time>2022-12-28T13:48:26Z</time>
      </trkpt>
      <trkpt lat="49.96925" lon="2.28555">
        <ele>64.6</ele>
        <time>2022-12-28T13:48:27Z</time>
      </trkpt>
      <trkpt lat="49.96924" lon="2.28558">
        <ele>64.6</ele>
        <time>2022-12-28T13:48:28Z</time>
      </trkpt>
      <trkpt lat="49.96924" lon="2.2856">
        <ele>64.6</ele>
        <time>2022-12-28T13:48:29Z</time>
      </trkpt>
      <trkpt lat="49.96924" lon="2.28561">
        <ele>64.6</ele>
        <time>2022-12-28T13:48:30Z</time>
      </trkpt>
      <trkpt lat="49.96923" lon="2.28564">
        <ele>64.6</ele>
        <time>2022-12-28T13:48:32Z</time>
      </trkpt>
      <trkpt lat="49.96923" lon="2.28565">
        <ele>64.6</ele>
        <time>2022-12-28T13:48:33Z</time>
      </trkpt>
      <trkpt lat="49.96922" lon="2.28568">
        <ele>64.6</ele>
        <time>2022-12-28T13:48:34Z</time>
      </trkpt>
      <trkpt lat="49.96922" lon="2.2857">
        <ele>64.7</ele>
        <time>2022-12-28T13:48:35Z</time>
      </trkpt>
      <trkpt lat="49.96922" lon="2.28573">
        <ele>64.7</ele>
        <time>2022-12-28T13:48:36Z</time>
      </trkpt>
      <trkpt lat="49.96921" lon="2.28574">
        <ele>64.7</ele>
        <time>2022-12-28T13:48:37Z</time>
      </trkpt>
      <trkpt lat="49.96921" lon="2.28576">
        <ele>64.7</ele>
        <time>2022-12-28T13:48:38Z</time>
      </trkpt>
      <trkpt lat="49.96921" lon="2.28578">
        <ele>64.7</ele>
        <time>2022-12-28T13:48:39Z</time>
      </trkpt>
      <trkpt lat="49.9692" lon="2.2858">
        <ele>64.7</ele>
        <time>2022-12-28T13:48:40Z</time>
      </trkpt>
      <trkpt lat="49.9692" lon="2.28582">
        <ele>64.7</ele>
        <time>2022-12-28T13:48:42Z</time>
      </trkpt>
      <trkpt lat="49.96919" lon="2.28584">
        <ele>64.7</ele>
        <time>2022-12-28T13:48:43Z</time>
      </trkpt>
      <trkpt lat="49.96919" lon="2.28586">
        <ele>64.7</ele>
        <time>2022-12-28T13:48:44Z</time>
      </trkpt>
      <trkpt lat="49.96918" lon="2.28588">
        <ele>64.7</ele>
        <time>2022-12-28T13:48:45Z</time>
      </trkpt>
      <trkpt lat="49.96918" lon="2.2859">
        <ele>64.7</ele>
        <time>2022-12-28T13:48:46Z</time>
      </trkpt>
      <trkpt lat="49.96918" lon="2.28592">
        <ele>64.7</ele>
        <time>2022-12-28T13:48:47Z</time>
      </trkpt>
      <trkpt lat="49.96918" lon="2.28593">
        <ele>64.6</ele>
        <time>2022-12-28T13:48:48Z</time>
      </trkpt>
      <trkpt lat="49.96917" lon="2.28595">
        <ele>64.6</ele>
        <time>2022-12-28T13:48:49Z</time>
      </trkpt>
      <trkpt lat="49.96917" lon="2.28597">
        <ele>64.6</ele>
        <time>2022-12-28T13:48:51Z</time>
      </trkpt>
      <trkpt lat="49.96916" lon="2.28599">
        <ele>64.6</ele>
        <time>2022-12-28T13:48:52Z</time>
      </trkpt>
      <trkpt lat="49.96916" lon="2.28601">
        <ele>64.6</ele>
        <time>2022-12-28T13:48:53Z</time>
      </trkpt>
      <trkpt lat="49.96916" lon="2.28603">
        <ele>64.6</ele>
        <time>2022-12-28T13:48:54Z</time>
      </trkpt>
      <trkpt lat="49.96915" lon="2.28604">
        <ele>64.6</ele>
        <time>2022-12-28T13:48:55Z</time>
      </trkpt>
      <trkpt lat="49.96915" lon="2.28606">
        <ele>64.5</ele>
        <time>2022-12-28T13:48:57Z</time>
      </trkpt>
      <trkpt lat="49.96915" lon="2.28607">
        <ele>64.5</ele>
        <time>2022-12-28T13:48:58Z</time>
      </trkpt>
      <trkpt lat="49.96914" lon="2.28609">
        <ele>64.5</ele>
        <time>2022-12-28T13:48:59Z</time>
      </trkpt>
      <trkpt lat="49.96914" lon="2.2861">
        <ele>64.5</ele>
        <time>2022-12-28T13:49:00Z</time>
      </trkpt>
      <trkpt lat="49.96913" lon="2.28612">
        <ele>64.5</ele>
        <time>2022-12-28T13:49:01Z</time>
      </trkpt>
      <trkpt lat="49.96913" lon="2.28613">
        <ele>64.4</ele>
        <time>2022-12-28T13:49:02Z</time>
      </trkpt>
      <trkpt lat="49.96912" lon="2.28615">
        <ele>64.4</ele>
        <time>2022-12-28T13:49:03Z</time>
      </trkpt>
      <trkpt lat="49.96912" lon="2.28616">
        <ele>64.4</ele>
        <time>2022-12-28T13:49:04Z</time>
      </trkpt>
      <trkpt lat="49.96911" lon="2.28618">
        <ele>64.4</ele>
        <time>2022-12-28T13:49:05Z</time>
      </trkpt>
      <trkpt lat="49.96911" lon="2.2862">
        <ele>64.3</ele>
        <time>2022-12-28T13:49:07Z</time>
      </trkpt>
      <trkpt lat="49.9691" lon="2.28621">
        <ele>64.3</ele>
        <time>2022-12-28T13:49:08Z</time>
      </trkpt>
      <trkpt lat="49.9691" lon="2.28622">
        <ele>64.3</ele>
        <time>2022-12-28T13:49:09Z</time>
      </trkpt>
      <trkpt lat="49.96909" lon="2.28624">
        <ele>64.3</ele>
        <time>2022-12-28T13:49:10Z</time>
      </trkpt>
      <trkpt lat="49.96909" lon="2.28625">
        <ele>64.2</ele>
        <time>2022-12-28T13:49:11Z</time>
      </trkpt>
      <trkpt lat="49.96908" lon="2.28629">
        <ele>64.2</ele>
        <time>2022-12-28T13:49:12Z</time>
      </trkpt>
      <trkpt lat="49.96908" lon="2.2863">
        <ele>64.1</ele>
        <time>2022-12-28T13:49:13Z</time>
      </trkpt>
      <trkpt lat="49.96907" lon="2.28631">
        <ele>64.1</ele>
        <time>2022-12-28T13:49:14Z</time>
      </trkpt>
      <trkpt lat="49.96907" lon="2.28634">
        <ele>64.1</ele>
        <time>2022-12-28T13:49:15Z</time>
      </trkpt>
      <trkpt lat="49.96906" lon="2.28635">
        <ele>64</ele>
        <time>2022-12-28T13:49:17Z</time>
      </trkpt>
      <trkpt lat="49.96906" lon="2.28637">
        <ele>64</ele>
        <time>2022-12-28T13:49:18Z</time>
      </trkpt>
      <trkpt lat="49.96905" lon="2.2864">
        <ele>63.9</ele>
        <time>2022-12-28T13:49:19Z</time>
      </trkpt>
      <trkpt lat="49.96905" lon="2.28641">
        <ele>63.9</ele>
        <time>2022-12-28T13:49:20Z</time>
      </trkpt>
      <trkpt lat="49.96904" lon="2.28642">
        <ele>63.9</ele>
        <time>2022-12-28T13:49:21Z</time>
      </trkpt>
      <trkpt lat="49.96904" lon="2.28645">
        <ele>63.9</ele>
        <time>2022-12-28T13:49:22Z</time>
      </trkpt>
      <trkpt lat="49.96903" lon="2.28647">
        <ele>63.8</ele>
        <time>2022-12-28T13:49:23Z</time>
      </trkpt>
      <trkpt lat="49.96903" lon="2.28649">
        <ele>63.8</ele>
        <time>2022-12-28T13:49:24Z</time>
      </trkpt>
      <trkpt lat="49.96902" lon="2.28651">
        <ele>63.7</ele>
        <time>2022-12-28T13:49:25Z</time>
      </trkpt>
      <trkpt lat="49.96901" lon="2.28653">
        <ele>63.7</ele>
        <time>2022-12-28T13:49:27Z</time>
      </trkpt>
      <trkpt lat="49.96901" lon="2.28655">
        <ele>63.7</ele>
        <time>2022-12-28T13:49:28Z</time>
      </trkpt>
      <trkpt lat="49.969" lon="2.28659">
        <ele>63.6</ele>
        <time>2022-12-28T13:49:29Z</time>
      </trkpt>
      <trkpt lat="49.969" lon="2.2866">
        <ele>63.6</ele>
        <time>2022-12-28T13:49:30Z</time>
      </trkpt>
      <trkpt lat="49.96899" lon="2.28661">
        <ele>63.6</ele>
        <time>2022-12-28T13:49:31Z</time>
      </trkpt>
      <trkpt lat="49.96898" lon="2.28664">
        <ele>63.6</ele>
        <time>2022-12-28T13:49:32Z</time>
      </trkpt>
      <trkpt lat="49.96898" lon="2.28665">
        <ele>63.5</ele>
        <time>2022-12-28T13:49:33Z</time>
      </trkpt>
      <trkpt lat="49.96898" lon="2.28666">
        <ele>63.5</ele>
        <time>2022-12-28T13:49:34Z</time>
      </trkpt>
      <trkpt lat="49.96897" lon="2.28669">
        <ele>63.5</ele>
        <time>2022-12-28T13:49:35Z</time>
      </trkpt>
      <trkpt lat="49.96897" lon="2.2867">
        <ele>63.5</ele>
        <time>2022-12-28T13:49:37Z</time>
      </trkpt>
      <trkpt lat="49.96897" lon="2.28671">
        <ele>63.5</ele>
        <time>2022-12-28T13:49:38Z</time>
      </trkpt>
      <trkpt lat="49.96897" lon="2.28673">
        <ele>63.5</ele>
        <time>2022-12-28T13:49:39Z</time>
      </trkpt>
      <trkpt lat="49.96896" lon="2.28674">
        <ele>63.5</ele>
        <time>2022-12-28T13:49:40Z</time>
      </trkpt>
      <trkpt lat="49.96896" lon="2.28676">
        <ele>63.5</ele>
        <time>2022-12-28T13:49:41Z</time>
      </trkpt>
      <trkpt lat="49.96895" lon="2.28678">
        <ele>63.5</ele>
        <time>2022-12-28T13:49:42Z</time>
      </trkpt>
      <trkpt lat="49.96895" lon="2.2868">
        <ele>63.4</ele>
        <time>2022-12-28T13:49:44Z</time>
      </trkpt>
      <trkpt lat="49.96894" lon="2.28682">
        <ele>63.4</ele>
        <time>2022-12-28T13:49:45Z</time>
      </trkpt>
      <trkpt lat="49.96894" lon="2.28683">
        <ele>63.4</ele>
        <time>2022-12-28T13:49:46Z</time>
      </trkpt>
      <trkpt lat="49.96894" lon="2.28685">
        <ele>63.4</ele>
        <time>2022-12-28T13:49:47Z</time>
      </trkpt>
      <trkpt lat="49.96893" lon="2.28686">
        <ele>63.4</ele>
        <time>2022-12-28T13:49:48Z</time>
      </trkpt>
      <trkpt lat="49.96893" lon="2.28688">
        <ele>63.4</ele>
        <time>2022-12-28T13:49:49Z</time>
      </trkpt>
      <trkpt lat="49.96893" lon="2.28689">
        <ele>63.4</ele>
        <time>2022-12-28T13:49:50Z</time>
      </trkpt>
      <trkpt lat="49.96892" lon="2.28691">
        <ele>63.4</ele>
        <time>2022-12-28T13:49:51Z</time>
      </trkpt>
      <trkpt lat="49.96891" lon="2.28692">
        <ele>63.4</ele>
        <time>2022-12-28T13:49:52Z</time>
      </trkpt>
      <trkpt lat="49.9689" lon="2.28695">
        <ele>63.4</ele>
        <time>2022-12-28T13:49:54Z</time>
      </trkpt>
      <trkpt lat="49.9689" lon="2.28697">
        <ele>63.4</ele>
        <time>2022-12-28T13:49:55Z</time>
      </trkpt>
      <trkpt lat="49.96889" lon="2.28699">
        <ele>63.4</ele>
        <time>2022-12-28T13:49:56Z</time>
      </trkpt>
      <trkpt lat="49.96888" lon="2.287">
        <ele>63.4</ele>
        <time>2022-12-28T13:49:57Z</time>
      </trkpt>
      <trkpt lat="49.96887" lon="2.28702">
        <ele>63.3</ele>
        <time>2022-12-28T13:49:58Z</time>
      </trkpt>
      <trkpt lat="49.96887" lon="2.28703">
        <ele>63.3</ele>
        <time>2022-12-28T13:50:00Z</time>
      </trkpt>
      <trkpt lat="49.96885" lon="2.28706">
        <ele>63.3</ele>
        <time>2022-12-28T13:50:01Z</time>
      </trkpt>
      <trkpt lat="49.96885" lon="2.28707">
        <ele>63.3</ele>
        <time>2022-12-28T13:50:02Z</time>
      </trkpt>
      <trkpt lat="49.96884" lon="2.28707">
        <ele>63.3</ele>
        <time>2022-12-28T13:50:03Z</time>
      </trkpt>
      <trkpt lat="49.96882" lon="2.2871">
        <ele>63.3</ele>
        <time>2022-12-28T13:50:04Z</time>
      </trkpt>
      <trkpt lat="49.96882" lon="2.28711">
        <ele>63.3</ele>
        <time>2022-12-28T13:50:05Z</time>
      </trkpt>
      <trkpt lat="49.96881" lon="2.28712">
        <ele>63.3</ele>
        <time>2022-12-28T13:50:06Z</time>
      </trkpt>
      <trkpt lat="49.9688" lon="2.28713">
        <ele>63.3</ele>
        <time>2022-12-28T13:50:07Z</time>
      </trkpt>
      <trkpt lat="49.96879" lon="2.28715">
        <ele>63.3</ele>
        <time>2022-12-28T13:50:08Z</time>
      </trkpt>
      <trkpt lat="49.96878" lon="2.28718">
        <ele>63.3</ele>
        <time>2022-12-28T13:50:09Z</time>
      </trkpt>
      <trkpt lat="49.96878" lon="2.28719">
        <ele>63.3</ele>
        <time>2022-12-28T13:50:11Z</time>
      </trkpt>
      <trkpt lat="49.96877" lon="2.2872">
        <ele>63.3</ele>
        <time>2022-12-28T13:50:12Z</time>
      </trkpt>
      <trkpt lat="49.96876" lon="2.28722">
        <ele>63.3</ele>
        <time>2022-12-28T13:50:13Z</time>
      </trkpt>
      <trkpt lat="49.96876" lon="2.28724">
        <ele>63.3</ele>
        <time>2022-12-28T13:50:14Z</time>
      </trkpt>
      <trkpt lat="49.96875" lon="2.28725">
        <ele>63.2</ele>
        <time>2022-12-28T13:50:15Z</time>
      </trkpt>
      <trkpt lat="49.96874" lon="2.28727">
        <ele>63.2</ele>
        <time>2022-12-28T13:50:16Z</time>
      </trkpt>
      <trkpt lat="49.96873" lon="2.28731">
        <ele>63.2</ele>
        <time>2022-12-28T13:50:17Z</time>
      </trkpt>
      <trkpt lat="49.96872" lon="2.28733">
        <ele>63.2</ele>
        <time>2022-12-28T13:50:19Z</time>
      </trkpt>
      <trkpt lat="49.96872" lon="2.28734">
        <ele>63.2</ele>
        <time>2022-12-28T13:50:20Z</time>
      </trkpt>
      <trkpt lat="49.96871" lon="2.28736">
        <ele>63.2</ele>
        <time>2022-12-28T13:50:21Z</time>
      </trkpt>
      <trkpt lat="49.9687" lon="2.28737">
        <ele>63.2</ele>
        <time>2022-12-28T13:50:22Z</time>
      </trkpt>
      <trkpt lat="49.96869" lon="2.2874">
        <ele>63.2</ele>
        <time>2022-12-28T13:50:23Z</time>
      </trkpt>
      <trkpt lat="49.96868" lon="2.28741">
        <ele>63.2</ele>
        <time>2022-12-28T13:50:24Z</time>
      </trkpt>
      <trkpt lat="49.96868" lon="2.28742">
        <ele>63.2</ele>
        <time>2022-12-28T13:50:25Z</time>
      </trkpt>
      <trkpt lat="49.96867" lon="2.28743">
        <ele>63.3</ele>
        <time>2022-12-28T13:50:26Z</time>
      </trkpt>
      <trkpt lat="49.96866" lon="2.28745">
        <ele>63.3</ele>
        <time>2022-12-28T13:50:28Z</time>
      </trkpt>
      <trkpt lat="49.96865" lon="2.28747">
        <ele>63.3</ele>
        <time>2022-12-28T13:50:29Z</time>
      </trkpt>
      <trkpt lat="49.96864" lon="2.28748">
        <ele>63.3</ele>
        <time>2022-12-28T13:50:30Z</time>
      </trkpt>
      <trkpt lat="49.96863" lon="2.2875">
        <ele>63.3</ele>
        <time>2022-12-28T13:50:31Z</time>
      </trkpt>
      <trkpt lat="49.96862" lon="2.28751">
        <ele>63.3</ele>
        <time>2022-12-28T13:50:32Z</time>
      </trkpt>
      <trkpt lat="49.96861" lon="2.28752">
        <ele>63.3</ele>
        <time>2022-12-28T13:50:33Z</time>
      </trkpt>
      <trkpt lat="49.9686" lon="2.28755">
        <ele>63.3</ele>
        <time>2022-12-28T13:50:34Z</time>
      </trkpt>
      <trkpt lat="49.96859" lon="2.28756">
        <ele>63.3</ele>
        <time>2022-12-28T13:50:35Z</time>
      </trkpt>
      <trkpt lat="49.96859" lon="2.28757">
        <ele>63.4</ele>
        <time>2022-12-28T13:50:36Z</time>
      </trkpt>
      <trkpt lat="49.96858" lon="2.28759">
        <ele>63.4</ele>
        <time>2022-12-28T13:50:38Z</time>
      </trkpt>
      <trkpt lat="49.96857" lon="2.28761">
        <ele>63.4</ele>
        <time>2022-12-28T13:50:39Z</time>
      </trkpt>
      <trkpt lat="49.96856" lon="2.28763">
        <ele>63.4</ele>
        <time>2022-12-28T13:50:40Z</time>
      </trkpt>
      <trkpt lat="49.96855" lon="2.28765">
        <ele>63.5</ele>
        <time>2022-12-28T13:50:41Z</time>
      </trkpt>
      <trkpt lat="49.96854" lon="2.28767">
        <ele>63.5</ele>
        <time>2022-12-28T13:50:43Z</time>
      </trkpt>
      <trkpt lat="49.96853" lon="2.28769">
        <ele>63.5</ele>
        <time>2022-12-28T13:50:44Z</time>
      </trkpt>
      <trkpt lat="49.96851" lon="2.28771">
        <ele>63.5</ele>
        <time>2022-12-28T13:50:45Z</time>
      </trkpt>
      <trkpt lat="49.9685" lon="2.28772">
        <ele>63.6</ele>
        <time>2022-12-28T13:50:46Z</time>
      </trkpt>
      <trkpt lat="49.96849" lon="2.28774">
        <ele>63.6</ele>
        <time>2022-12-28T13:50:47Z</time>
      </trkpt>
      <trkpt lat="49.96848" lon="2.28776">
        <ele>63.7</ele>
        <time>2022-12-28T13:50:48Z</time>
      </trkpt>
      <trkpt lat="49.96847" lon="2.28777">
        <ele>63.7</ele>
        <time>2022-12-28T13:50:49Z</time>
      </trkpt>
      <trkpt lat="49.96846" lon="2.28779">
        <ele>63.7</ele>
        <time>2022-12-28T13:50:50Z</time>
      </trkpt>
      <trkpt lat="49.96845" lon="2.28781">
        <ele>63.8</ele>
        <time>2022-12-28T13:50:51Z</time>
      </trkpt>
      <trkpt lat="49.96844" lon="2.28782">
        <ele>63.8</ele>
        <time>2022-12-28T13:50:53Z</time>
      </trkpt>
      <trkpt lat="49.96843" lon="2.28784">
        <ele>63.9</ele>
        <time>2022-12-28T13:50:54Z</time>
      </trkpt>
      <trkpt lat="49.96841" lon="2.28786">
        <ele>63.9</ele>
        <time>2022-12-28T13:50:55Z</time>
      </trkpt>
      <trkpt lat="49.9684" lon="2.28788">
        <ele>64</ele>
        <time>2022-12-28T13:50:56Z</time>
      </trkpt>
      <trkpt lat="49.96839" lon="2.28789">
        <ele>64.1</ele>
        <time>2022-12-28T13:50:57Z</time>
      </trkpt>
      <trkpt lat="49.96839" lon="2.2879">
        <ele>64.1</ele>
        <time>2022-12-28T13:50:58Z</time>
      </trkpt>
      <trkpt lat="49.96837" lon="2.28793">
        <ele>64.2</ele>
        <time>2022-12-28T13:50:59Z</time>
      </trkpt>
      <trkpt lat="49.96836" lon="2.28794">
        <ele>64.2</ele>
        <time>2022-12-28T13:51:01Z</time>
      </trkpt>
      <trkpt lat="49.96836" lon="2.28796">
        <ele>64.3</ele>
        <time>2022-12-28T13:51:02Z</time>
      </trkpt>
      <trkpt lat="49.96835" lon="2.28797">
        <ele>64.3</ele>
        <time>2022-12-28T13:51:03Z</time>
      </trkpt>
      <trkpt lat="49.96835" lon="2.28798">
        <ele>64.4</ele>
        <time>2022-12-28T13:51:04Z</time>
      </trkpt>
      <trkpt lat="49.96834" lon="2.28799">
        <ele>64.5</ele>
        <time>2022-12-28T13:51:05Z</time>
      </trkpt>
      <trkpt lat="49.96833" lon="2.28801">
        <ele>64.5</ele>
        <time>2022-12-28T13:51:06Z</time>
      </trkpt>
      <trkpt lat="49.96832" lon="2.28803">
        <ele>64.6</ele>
        <time>2022-12-28T13:51:08Z</time>
      </trkpt>
      <trkpt lat="49.96832" lon="2.28804">
        <ele>64.7</ele>
        <time>2022-12-28T13:51:09Z</time>
      </trkpt>
      <trkpt lat="49.96831" lon="2.28805">
        <ele>64.7</ele>
        <time>2022-12-28T13:51:10Z</time>
      </trkpt>
      <trkpt lat="49.9683" lon="2.28806">
        <ele>64.8</ele>
        <time>2022-12-28T13:51:11Z</time>
      </trkpt>
      <trkpt lat="49.96829" lon="2.28808">
        <ele>64.9</ele>
        <time>2022-12-28T13:51:12Z</time>
      </trkpt>
      <trkpt lat="49.96828" lon="2.28809">
        <ele>65</ele>
        <time>2022-12-28T13:51:14Z</time>
      </trkpt>
      <trkpt lat="49.96828" lon="2.28811">
        <ele>65</ele>
        <time>2022-12-28T13:51:15Z</time>
      </trkpt>
      <trkpt lat="49.96827" lon="2.28812">
        <ele>65.1</ele>
        <time>2022-12-28T13:51:16Z</time>
      </trkpt>
      <trkpt lat="49.96827" lon="2.28812">
        <ele>65.1</ele>
        <time>2022-12-28T13:51:17Z</time>
      </trkpt>
      <trkpt lat="49.96827" lon="2.28814">
        <ele>65.2</ele>
        <time>2022-12-28T13:51:18Z</time>
      </trkpt>
      <trkpt lat="49.96826" lon="2.28815">
        <ele>65.2</ele>
        <time>2022-12-28T13:51:19Z</time>
      </trkpt>
      <trkpt lat="49.96825" lon="2.28816">
        <ele>65.3</ele>
        <time>2022-12-28T13:51:20Z</time>
      </trkpt>
      <trkpt lat="49.96825" lon="2.28817">
        <ele>65.4</ele>
        <time>2022-12-28T13:51:22Z</time>
      </trkpt>
      <trkpt lat="49.96824" lon="2.28818">
        <ele>65.4</ele>
        <time>2022-12-28T13:51:23Z</time>
      </trkpt>
      <trkpt lat="49.96823" lon="2.28819">
        <ele>65.5</ele>
        <time>2022-12-28T13:51:24Z</time>
      </trkpt>
      <trkpt lat="49.96823" lon="2.2882">
        <ele>65.5</ele>
        <time>2022-12-28T13:51:25Z</time>
      </trkpt>
      <trkpt lat="49.96823" lon="2.28821">
        <ele>65.6</ele>
        <time>2022-12-28T13:51:26Z</time>
      </trkpt>
      <trkpt lat="49.96823" lon="2.28823">
        <ele>66</ele>
        <time>2022-12-28T13:51:27Z</time>
      </trkpt>
      <trkpt lat="49.96822" lon="2.28824">
        <ele>65.9</ele>
        <time>2022-12-28T13:51:29Z</time>
      </trkpt>
      <trkpt lat="49.96822" lon="2.28825">
        <ele>65.9</ele>
        <time>2022-12-28T13:51:30Z</time>
      </trkpt>
      <trkpt lat="49.96822" lon="2.28827">
        <ele>65.8</ele>
        <time>2022-12-28T13:51:31Z</time>
      </trkpt>
      <trkpt lat="49.96822" lon="2.28828">
        <ele>65.8</ele>
        <time>2022-12-28T13:51:32Z</time>
      </trkpt>
      <trkpt lat="49.96822" lon="2.28828">
        <ele>65.8</ele>
        <time>2022-12-28T13:51:33Z</time>
      </trkpt>
      <trkpt lat="49.96822" lon="2.2883">
        <ele>65.7</ele>
        <time>2022-12-28T13:51:35Z</time>
      </trkpt>
      <trkpt lat="49.96822" lon="2.28831">
        <ele>65.7</ele>
        <time>2022-12-28T13:51:37Z</time>
      </trkpt>
      <trkpt lat="49.96822" lon="2.28832">
        <ele>65.6</ele>
        <time>2022-12-28T13:51:38Z</time>
      </trkpt>
      <trkpt lat="49.96823" lon="2.28832">
        <ele>65.6</ele>
        <time>2022-12-28T13:51:39Z</time>
      </trkpt>
      <trkpt lat="49.96823" lon="2.28833">
        <ele>65.6</ele>
        <time>2022-12-28T13:51:40Z</time>
      </trkpt>
      <trkpt lat="49.96823" lon="2.28833">
        <ele>65.6</ele>
        <time>2022-12-28T13:51:41Z</time>
      </trkpt>
      <trkpt lat="49.96823" lon="2.28832">
        <ele>65.5</ele>
        <time>2022-12-28T13:51:43Z</time>
      </trkpt>
      <trkpt lat="49.96822" lon="2.2883">
        <ele>65.4</ele>
        <time>2022-12-28T13:51:44Z</time>
      </trkpt>
      <trkpt lat="49.96822" lon="2.28828">
        <ele>65.4</ele>
        <time>2022-12-28T13:51:46Z</time>
      </trkpt>
      <trkpt lat="49.96822" lon="2.28827">
        <ele>65.3</ele>
        <time>2022-12-28T13:51:47Z</time>
      </trkpt>
      <trkpt lat="49.96822" lon="2.28825">
        <ele>65.3</ele>
        <time>2022-12-28T13:51:49Z</time>
      </trkpt>
      <trkpt lat="49.96822" lon="2.28825">
        <ele>65.2</ele>
        <time>2022-12-28T13:51:50Z</time>
      </trkpt>
      <trkpt lat="49.96822" lon="2.28824">
        <ele>65.2</ele>
        <time>2022-12-28T13:51:52Z</time>
      </trkpt>
      <trkpt lat="49.96822" lon="2.28824">
        <ele>65.2</ele>
        <time>2022-12-28T13:51:53Z</time>
      </trkpt>
      <trkpt lat="49.96822" lon="2.28823">
        <ele>65.2</ele>
        <time>2022-12-28T13:51:55Z</time>
      </trkpt>
      <trkpt lat="49.96822" lon="2.28823">
        <ele>65.2</ele>
        <time>2022-12-28T13:51:56Z</time>
      </trkpt>
      <trkpt lat="49.96822" lon="2.28823">
        <ele>65.2</ele>
        <time>2022-12-28T13:51:58Z</time>
      </trkpt>
      <trkpt lat="49.96822" lon="2.28823">
        <ele>65.2</ele>
        <time>2022-12-28T13:51:59Z</time>
      </trkpt>
      <trkpt lat="49.96822" lon="2.28823">
        <ele>65.2</ele>
        <time>2022-12-28T13:52:00Z</time>
      </trkpt>
      <trkpt lat="49.96822" lon="2.28823">
        <ele>65.1</ele>
        <time>2022-12-28T13:52:01Z</time>
      </trkpt>
      <trkpt lat="49.96822" lon="2.28823">
        <ele>65.1</ele>
        <time>2022-12-28T13:52:02Z</time>
      </trkpt>
      <trkpt lat="49.96822" lon="2.28823">
        <ele>65.1</ele>
        <time>2022-12-28T13:52:03Z</time>
      </trkpt>
      <trkpt lat="49.96822" lon="2.28823">
        <ele>65.1</ele>
        <time>2022-12-28T13:52:04Z</time>
      </trkpt>
      <trkpt lat="49.96822" lon="2.28823">
        <ele>65.1</ele>
        <time>2022-12-28T13:52:05Z</time>
      </trkpt>
      <trkpt lat="49.96822" lon="2.28823">
        <ele>65.1</ele>
        <time>2022-12-28T13:52:06Z</time>
      </trkpt>
      <trkpt lat="49.96822" lon="2.28823">
        <ele>65.1</ele>
        <time>2022-12-28T13:52:07Z</time>
      </trkpt>
      <trkpt lat="49.96822" lon="2.28823">
        <ele>65.1</ele>
        <time>2022-12-28T13:52:08Z</time>
      </trkpt>
      <trkpt lat="49.96822" lon="2.28823">
        <ele>65.1</ele>
        <time>2022-12-28T13:52:09Z</time>
      </trkpt>
      <trkpt lat="49.96822" lon="2.28823">
        <ele>65.1</ele>
        <time>2022-12-28T13:52:10Z</time>
      </trkpt>
      <trkpt lat="49.96822" lon="2.28823">
        <ele>65.1</ele>
        <time>2022-12-28T13:52:11Z</time>
      </trkpt>
      <trkpt lat="49.96822" lon="2.28823">
        <ele>65.1</ele>
        <time>2022-12-28T13:52:12Z</time>
      </trkpt>
      <trkpt lat="49.96822" lon="2.28823">
        <ele>65.1</ele>
        <time>2022-12-28T13:52:13Z</time>
      </trkpt>
      <trkpt lat="49.96822" lon="2.28823">
        <ele>65.1</ele>
        <time>2022-12-28T13:52:14Z</time>
      </trkpt>
      <trkpt lat="49.96822" lon="2.28823">
        <ele>65.1</ele>
        <time>2022-12-28T13:52:15Z</time>
      </trkpt>
      <trkpt lat="49.96822" lon="2.28823">
        <ele>65.1</ele>
        <time>2022-12-28T13:52:16Z</time>
      </trkpt>
      <trkpt lat="49.96822" lon="2.28823">
        <ele>65.1</ele>
        <time>2022-12-28T13:52:17Z</time>
      </trkpt>
      <trkpt lat="49.96822" lon="2.28823">
        <ele>65.1</ele>
        <time>2022-12-28T13:52:18Z</time>
      </trkpt>
      <trkpt lat="49.96822" lon="2.28823">
        <ele>65.1</ele>
        <time>2022-12-28T13:52:19Z</time>
      </trkpt>
      <trkpt lat="49.96822" lon="2.28823">
        <ele>65.1</ele>
        <time>2022-12-28T13:52:20Z</time>
      </trkpt>
      <trkpt lat="49.96822" lon="2.28823">
        <ele>65.1</ele>
        <time>2022-12-28T13:52:21Z</time>
      </trkpt>
      <trkpt lat="49.96822" lon="2.28823">
        <ele>65.1</ele>
        <time>2022-12-28T13:52:22Z</time>
      </trkpt>
      <trkpt lat="49.96822" lon="2.28823">
        <ele>65.1</ele>
        <time>2022-12-28T13:52:23Z</time>
      </trkpt>
      <trkpt lat="49.96822" lon="2.28823">
        <ele>65.1</ele>
        <time>2022-12-28T13:52:24Z</time>
      </trkpt>
      <trkpt lat="49.96822" lon="2.28823">
        <ele>65.1</ele>
        <time>2022-12-28T13:52:25Z</time>
      </trkpt>
      <trkpt lat="49.96822" lon="2.28823">
        <ele>65.1</ele>
        <time>2022-12-28T13:52:26Z</time>
      </trkpt>
      <trkpt lat="49.96822" lon="2.28823">
        <ele>65.1</ele>
        <time>2022-12-28T13:52:27Z</time>
      </trkpt>
      <trkpt lat="49.96822" lon="2.28823">
        <ele>65.1</ele>
        <time>2022-12-28T13:52:28Z</time>
      </trkpt>
      <trkpt lat="49.96822" lon="2.28823">
        <ele>65.1</ele>
        <time>2022-12-28T13:52:29Z</time>
      </trkpt>
      <trkpt lat="49.96822" lon="2.28823">
        <ele>65.1</ele>
        <time>2022-12-28T13:52:30Z</time>
      </trkpt>
      <trkpt lat="49.96822" lon="2.28823">
        <ele>65.1</ele>
        <time>2022-12-28T13:52:31Z</time>
      </trkpt>
      <trkpt lat="49.96822" lon="2.28823">
        <ele>65.1</ele>
        <time>2022-12-28T13:52:32Z</time>
      </trkpt>
      <trkpt lat="49.96822" lon="2.28823">
        <ele>65.1</ele>
        <time>2022-12-28T13:52:33Z</time>
      </trkpt>
      <trkpt lat="49.96822" lon="2.28823">
        <ele>65.1</ele>
        <time>2022-12-28T13:52:34Z</time>
      </trkpt>
      <trkpt lat="49.96822" lon="2.28823">
        <ele>65.1</ele>
        <time>2022-12-28T13:52:35Z</time>
      </trkpt>
      <trkpt lat="49.96822" lon="2.28823">
        <ele>65.1</ele>
        <time>2022-12-28T13:52:36Z</time>
      </trkpt>
      <trkpt lat="49.96822" lon="2.28823">
        <ele>65.1</ele>
        <time>2022-12-28T13:52:37Z</time>
      </trkpt>
      <trkpt lat="49.96822" lon="2.28823">
        <ele>65.1</ele>
        <time>2022-12-28T13:52:38Z</time>
      </trkpt>
      <trkpt lat="49.96822" lon="2.28823">
        <ele>65.1</ele>
        <time>2022-12-28T13:52:39Z</time>
      </trkpt>
      <trkpt lat="49.96822" lon="2.28823">
        <ele>65.1</ele>
        <time>2022-12-28T13:52:40Z</time>
      </trkpt>
      <trkpt lat="49.96822" lon="2.28823">
        <ele>65.1</ele>
        <time>2022-12-28T13:52:41Z</time>
      </trkpt>
      <trkpt lat="49.96822" lon="2.28823">
        <ele>65.1</ele>
        <time>2022-12-28T13:52:42Z</time>
      </trkpt>
      <trkpt lat="49.96822" lon="2.28823">
        <ele>65.1</ele>
        <time>2022-12-28T13:52:43Z</time>
      </trkpt>
      <trkpt lat="49.96822" lon="2.28823">
        <ele>65.1</ele>
        <time>2022-12-28T13:52:44Z</time>
      </trkpt>
      <trkpt lat="49.96822" lon="2.28823">
        <ele>65.1</ele>
        <time>2022-12-28T13:52:45Z</time>
      </trkpt>
      <trkpt lat="49.96822" lon="2.28823">
        <ele>65.1</ele>
        <time>2022-12-28T13:52:46Z</time>
      </trkpt>
      <trkpt lat="49.96822" lon="2.28823">
        <ele>65.1</ele>
        <time>2022-12-28T13:52:47Z</time>
      </trkpt>
      <trkpt lat="49.96822" lon="2.28823">
        <ele>65.1</ele>
        <time>2022-12-28T13:52:48Z</time>
      </trkpt>
      <trkpt lat="49.96822" lon="2.28823">
        <ele>65.1</ele>
        <time>2022-12-28T13:52:49Z</time>
      </trkpt>
      <trkpt lat="49.96822" lon="2.28823">
        <ele>65.1</ele>
        <time>2022-12-28T13:52:50Z</time>
      </trkpt>
      <trkpt lat="49.96822" lon="2.28823">
        <ele>65.1</ele>
        <time>2022-12-28T13:52:51Z</time>
      </trkpt>
      <trkpt lat="49.96822" lon="2.28823">
        <ele>65.1</ele>
        <time>2022-12-28T13:52:52Z</time>
      </trkpt>
      <trkpt lat="49.96822" lon="2.28823">
        <ele>65.1</ele>
        <time>2022-12-28T13:52:53Z</time>
      </trkpt>
      <trkpt lat="49.96822" lon="2.28823">
        <ele>65.1</ele>
        <time>2022-12-28T13:52:54Z</time>
      </trkpt>
      <trkpt lat="49.96822" lon="2.28823">
        <ele>65.1</ele>
        <time>2022-12-28T13:52:55Z</time>
      </trkpt>
      <trkpt lat="49.96822" lon="2.28823">
        <ele>65.1</ele>
        <time>2022-12-28T13:52:56Z</time>
      </trkpt>
      <trkpt lat="49.96822" lon="2.28823">
        <ele>65.1</ele>
        <time>2022-12-28T13:52:57Z</time>
      </trkpt>
      <trkpt lat="49.96822" lon="2.28823">
        <ele>65.1</ele>
        <time>2022-12-28T13:52:58Z</time>
      </trkpt>
      <trkpt lat="49.96822" lon="2.28823">
        <ele>65.1</ele>
        <time>2022-12-28T13:52:59Z</time>
      </trkpt>
      <trkpt lat="49.96822" lon="2.28823">
        <ele>65.1</ele>
        <time>2022-12-28T13:53:00Z</time>
      </trkpt>
      <trkpt lat="49.96822" lon="2.28823">
        <ele>65.1</ele>
        <time>2022-12-28T13:53:01Z</time>
      </trkpt>
      <trkpt lat="49.96822" lon="2.28823">
        <ele>65.1</ele>
        <time>2022-12-28T13:53:02Z</time>
      </trkpt>
      <trkpt lat="49.96822" lon="2.28823">
        <ele>65.1</ele>
        <time>2022-12-28T13:53:03Z</time>
      </trkpt>
      <trkpt lat="49.96822" lon="2.28823">
        <ele>65.1</ele>
        <time>2022-12-28T13:53:04Z</time>
      </trkpt>
      <trkpt lat="49.96822" lon="2.28823">
        <ele>65.1</ele>
        <time>2022-12-28T13:53:05Z</time>
      </trkpt>
      <trkpt lat="49.96822" lon="2.28823">
        <ele>65.1</ele>
        <time>2022-12-28T13:53:06Z</time>
      </trkpt>
      <trkpt lat="49.96822" lon="2.28823">
        <ele>65.1</ele>
        <time>2022-12-28T13:53:07Z</time>
      </trkpt>
      <trkpt lat="49.96822" lon="2.28823">
        <ele>65.1</ele>
        <time>2022-12-28T13:53:08Z</time>
      </trkpt>
      <trkpt lat="49.96822" lon="2.28823">
        <ele>65.1</ele>
        <time>2022-12-28T13:53:09Z</time>
      </trkpt>
      <trkpt lat="49.96822" lon="2.28823">
        <ele>65.1</ele>
        <time>2022-12-28T13:53:10Z</time>
      </trkpt>
      <trkpt lat="49.96822" lon="2.28823">
        <ele>65.1</ele>
        <time>2022-12-28T13:53:11Z</time>
      </trkpt>
      <trkpt lat="49.96822" lon="2.28823">
        <ele>65.1</ele>
        <time>2022-12-28T13:53:12Z</time>
      </trkpt>
      <trkpt lat="49.96822" lon="2.28823">
        <ele>65.1</ele>
        <time>2022-12-28T13:53:13Z</time>
      </trkpt>
      <trkpt lat="49.96822" lon="2.28823">
        <ele>65.1</ele>
        <time>2022-12-28T13:53:14Z</time>
      </trkpt>
      <trkpt lat="49.96822" lon="2.28823">
        <ele>65.1</ele>
        <time>2022-12-28T13:53:15Z</time>
      </trkpt>
      <trkpt lat="49.96822" lon="2.28823">
        <ele>65.1</ele>
        <time>2022-12-28T13:53:16Z</time>
      </trkpt>
      <trkpt lat="49.96822" lon="2.28823">
        <ele>65.1</ele>
        <time>2022-12-28T13:53:17Z</time>
      </trkpt>
      <trkpt lat="49.96822" lon="2.28823">
        <ele>65.1</ele>
        <time>2022-12-28T13:53:18Z</time>
      </trkpt>
      <trkpt lat="49.96822" lon="2.28823">
        <ele>65.1</ele>
        <time>2022-12-28T13:53:19Z</time>
      </trkpt>
      <trkpt lat="49.96822" lon="2.28823">
        <ele>65.1</ele>
        <time>2022-12-28T13:53:20Z</time>
      </trkpt>
      <trkpt lat="49.96822" lon="2.28823">
        <ele>65.1</ele>
        <time>2022-12-28T13:53:21Z</time>
      </trkpt>
      <trkpt lat="49.96822" lon="2.28823">
        <ele>65.1</ele>
        <time>2022-12-28T13:53:22Z</time>
      </trkpt>
      <trkpt lat="49.96822" lon="2.28823">
        <ele>65.1</ele>
        <time>2022-12-28T13:53:23Z</time>
      </trkpt>
      <trkpt lat="49.96822" lon="2.28823">
        <ele>65.1</ele>
        <time>2022-12-28T13:53:24Z</time>
      </trkpt>
      <trkpt lat="49.96822" lon="2.28823">
        <ele>65.1</ele>
        <time>2022-12-28T13:53:25Z</time>
      </trkpt>
      <trkpt lat="49.96822" lon="2.28823">
        <ele>65.1</ele>
        <time>2022-12-28T13:53:26Z</time>
      </trkpt>
      <trkpt lat="49.96824" lon="2.28821">
        <ele>65</ele>
        <time>2022-12-28T13:53:27Z</time>
      </trkpt>
      <trkpt lat="49.96825" lon="2.2882">
        <ele>64.9</ele>
        <time>2022-12-28T13:53:28Z</time>
      </trkpt>
      <trkpt lat="49.96825" lon="2.2882">
        <ele>64.9</ele>
        <time>2022-12-28T13:53:29Z</time>
      </trkpt>
      <trkpt lat="49.96825" lon="2.2882">
        <ele>64.9</ele>
        <time>2022-12-28T13:53:30Z</time>
      </trkpt>
      <trkpt lat="49.96824" lon="2.2882">
        <ele>64.9</ele>
        <time>2022-12-28T13:53:31Z</time>
      </trkpt>
      <trkpt lat="49.96824" lon="2.2882">
        <ele>64.8</ele>
        <time>2022-12-28T13:53:32Z</time>
      </trkpt>
      <trkpt lat="49.96823" lon="2.2882">
        <ele>64.8</ele>
        <time>2022-12-28T13:53:33Z</time>
      </trkpt>
      <trkpt lat="49.96822" lon="2.2882">
        <ele>64.8</ele>
        <time>2022-12-28T13:53:34Z</time>
      </trkpt>
      <trkpt lat="49.96821" lon="2.28819">
        <ele>64.7</ele>
        <time>2022-12-28T13:53:35Z</time>
      </trkpt>
      <trkpt lat="49.96821" lon="2.28819">
        <ele>64.7</ele>
        <time>2022-12-28T13:53:36Z</time>
      </trkpt>
      <trkpt lat="49.9682" lon="2.28818">
        <ele>64.7</ele>
        <time>2022-12-28T13:53:38Z</time>
      </trkpt>
      <trkpt lat="49.9682" lon="2.28818">
        <ele>64.6</ele>
        <time>2022-12-28T13:53:39Z</time>
      </trkpt>
      <trkpt lat="49.96819" lon="2.28817">
        <ele>64.6</ele>
        <time>2022-12-28T13:53:40Z</time>
      </trkpt>
      <trkpt lat="49.96817" lon="2.28816">
        <ele>64.5</ele>
        <time>2022-12-28T13:53:41Z</time>
      </trkpt>
      <trkpt lat="49.96816" lon="2.28816">
        <ele>64.4</ele>
        <time>2022-12-28T13:53:43Z</time>
      </trkpt>
      <trkpt lat="49.96815" lon="2.28815">
        <ele>64.4</ele>
        <time>2022-12-28T13:53:44Z</time>
      </trkpt>
      <trkpt lat="49.96814" lon="2.28814">
        <ele>64.3</ele>
        <time>2022-12-28T13:53:45Z</time>
      </trkpt>
      <trkpt lat="49.96812" lon="2.28813">
        <ele>64.2</ele>
        <time>2022-12-28T13:53:46Z</time>
      </trkpt>
      <trkpt lat="49.9681" lon="2.28812">
        <ele>64.2</ele>
        <time>2022-12-28T13:53:47Z</time>
      </trkpt>
      <trkpt lat="49.96809" lon="2.28811">
        <ele>64.1</ele>
        <time>2022-12-28T13:53:48Z</time>
      </trkpt>
      <trkpt lat="49.96808" lon="2.2881">
        <ele>64.1</ele>
        <time>2022-12-28T13:53:49Z</time>
      </trkpt>
      <trkpt lat="49.96807" lon="2.28809">
        <ele>64.1</ele>
        <time>2022-12-28T13:53:51Z</time>
      </trkpt>
      <trkpt lat="49.96806" lon="2.28808">
        <ele>64</ele>
        <time>2022-12-28T13:53:52Z</time>
      </trkpt>
      <trkpt lat="49.96805" lon="2.28807">
        <ele>64</ele>
        <time>2022-12-28T13:53:53Z</time>
      </trkpt>
      <trkpt lat="49.96804" lon="2.28806">
        <ele>64</ele>
        <time>2022-12-28T13:53:54Z</time>
      </trkpt>
      <trkpt lat="49.96804" lon="2.28805">
        <ele>64</ele>
        <time>2022-12-28T13:53:55Z</time>
      </trkpt>
      <trkpt lat="49.96803" lon="2.28804">
        <ele>63.9</ele>
        <time>2022-12-28T13:53:56Z</time>
      </trkpt>
      <trkpt lat="49.96802" lon="2.28802">
        <ele>63.9</ele>
        <time>2022-12-28T13:53:57Z</time>
      </trkpt>
      <trkpt lat="49.96801" lon="2.28801">
        <ele>63.9</ele>
        <time>2022-12-28T13:53:58Z</time>
      </trkpt>
      <trkpt lat="49.968" lon="2.28801">
        <ele>63.9</ele>
        <time>2022-12-28T13:54:00Z</time>
      </trkpt>
      <trkpt lat="49.96799" lon="2.288">
        <ele>63.9</ele>
        <time>2022-12-28T13:54:01Z</time>
      </trkpt>
      <trkpt lat="49.96798" lon="2.28798">
        <ele>63.8</ele>
        <time>2022-12-28T13:54:02Z</time>
      </trkpt>
      <trkpt lat="49.96797" lon="2.28797">
        <ele>63.8</ele>
        <time>2022-12-28T13:54:03Z</time>
      </trkpt>
      <trkpt lat="49.96796" lon="2.28796">
        <ele>63.8</ele>
        <time>2022-12-28T13:54:04Z</time>
      </trkpt>
      <trkpt lat="49.96795" lon="2.28796">
        <ele>63.8</ele>
        <time>2022-12-28T13:54:05Z</time>
      </trkpt>
      <trkpt lat="49.96794" lon="2.28794">
        <ele>63.8</ele>
        <time>2022-12-28T13:54:07Z</time>
      </trkpt>
      <trkpt lat="49.96793" lon="2.28793">
        <ele>63.8</ele>
        <time>2022-12-28T13:54:08Z</time>
      </trkpt>
      <trkpt lat="49.96792" lon="2.28793">
        <ele>63.8</ele>
        <time>2022-12-28T13:54:09Z</time>
      </trkpt>
      <trkpt lat="49.96791" lon="2.28792">
        <ele>63.8</ele>
        <time>2022-12-28T13:54:10Z</time>
      </trkpt>
      <trkpt lat="49.9679" lon="2.28792">
        <ele>63.8</ele>
        <time>2022-12-28T13:54:11Z</time>
      </trkpt>
      <trkpt lat="49.96789" lon="2.28791">
        <ele>63.8</ele>
        <time>2022-12-28T13:54:12Z</time>
      </trkpt>
      <trkpt lat="49.96788" lon="2.2879">
        <ele>63.8</ele>
        <time>2022-12-28T13:54:13Z</time>
      </trkpt>
      <trkpt lat="49.96786" lon="2.28788">
        <ele>63.8</ele>
        <time>2022-12-28T13:54:15Z</time>
      </trkpt>
      <trkpt lat="49.96785" lon="2.28788">
        <ele>63.8</ele>
        <time>2022-12-28T13:54:16Z</time>
      </trkpt>
      <trkpt lat="49.96785" lon="2.28787">
        <ele>63.8</ele>
        <time>2022-12-28T13:54:17Z</time>
      </trkpt>
      <trkpt lat="49.96784" lon="2.28786">
        <ele>63.8</ele>
        <time>2022-12-28T13:54:18Z</time>
      </trkpt>
      <trkpt lat="49.96783" lon="2.28784">
        <ele>63.8</ele>
        <time>2022-12-28T13:54:19Z</time>
      </trkpt>
      <trkpt lat="49.96782" lon="2.28783">
        <ele>63.8</ele>
        <time>2022-12-28T13:54:20Z</time>
      </trkpt>
      <trkpt lat="49.96782" lon="2.28782">
        <ele>63.8</ele>
        <time>2022-12-28T13:54:21Z</time>
      </trkpt>
      <trkpt lat="49.96781" lon="2.2878">
        <ele>63.9</ele>
        <time>2022-12-28T13:54:23Z</time>
      </trkpt>
      <trkpt lat="49.9678" lon="2.28779">
        <ele>63.9</ele>
        <time>2022-12-28T13:54:24Z</time>
      </trkpt>
      <trkpt lat="49.96779" lon="2.28778">
        <ele>63.9</ele>
        <time>2022-12-28T13:54:25Z</time>
      </trkpt>
      <trkpt lat="49.96779" lon="2.28777">
        <ele>63.9</ele>
        <time>2022-12-28T13:54:26Z</time>
      </trkpt>
      <trkpt lat="49.96778" lon="2.28775">
        <ele>64</ele>
        <time>2022-12-28T13:54:27Z</time>
      </trkpt>
      <trkpt lat="49.96777" lon="2.28774">
        <ele>64</ele>
        <time>2022-12-28T13:54:28Z</time>
      </trkpt>
      <trkpt lat="49.96777" lon="2.28773">
        <ele>64</ele>
        <time>2022-12-28T13:54:29Z</time>
      </trkpt>
      <trkpt lat="49.96776" lon="2.28771">
        <ele>64.1</ele>
        <time>2022-12-28T13:54:30Z</time>
      </trkpt>
      <trkpt lat="49.96775" lon="2.2877">
        <ele>64.1</ele>
        <time>2022-12-28T13:54:31Z</time>
      </trkpt>
      <trkpt lat="49.96775" lon="2.28768">
        <ele>64.2</ele>
        <time>2022-12-28T13:54:32Z</time>
      </trkpt>
      <trkpt lat="49.96774" lon="2.28767">
        <ele>64.2</ele>
        <time>2022-12-28T13:54:34Z</time>
      </trkpt>
      <trkpt lat="49.96774" lon="2.28765">
        <ele>64.2</ele>
        <time>2022-12-28T13:54:35Z</time>
      </trkpt>
      <trkpt lat="49.96773" lon="2.28764">
        <ele>64.3</ele>
        <time>2022-12-28T13:54:36Z</time>
      </trkpt>
      <trkpt lat="49.96773" lon="2.28762">
        <ele>64.3</ele>
        <time>2022-12-28T13:54:37Z</time>
      </trkpt>
      <trkpt lat="49.96772" lon="2.2876">
        <ele>64.4</ele>
        <time>2022-12-28T13:54:38Z</time>
      </trkpt>
      <trkpt lat="49.96772" lon="2.28759">
        <ele>64.4</ele>
        <time>2022-12-28T13:54:39Z</time>
      </trkpt>
      <trkpt lat="49.96771" lon="2.28757">
        <ele>64.5</ele>
        <time>2022-12-28T13:54:41Z</time>
      </trkpt>
      <trkpt lat="49.96771" lon="2.28755">
        <ele>64.6</ele>
        <time>2022-12-28T13:54:42Z</time>
      </trkpt>
      <trkpt lat="49.96771" lon="2.28754">
        <ele>64.6</ele>
        <time>2022-12-28T13:54:43Z</time>
      </trkpt>
      <trkpt lat="49.9677" lon="2.28751">
        <ele>64.7</ele>
        <time>2022-12-28T13:54:44Z</time>
      </trkpt>
      <trkpt lat="49.9677" lon="2.2875">
        <ele>64.8</ele>
        <time>2022-12-28T13:54:45Z</time>
      </trkpt>
      <trkpt lat="49.9677" lon="2.28749">
        <ele>64.9</ele>
        <time>2022-12-28T13:54:46Z</time>
      </trkpt>
      <trkpt lat="49.9677" lon="2.28745">
        <ele>65</ele>
        <time>2022-12-28T13:54:48Z</time>
      </trkpt>
      <trkpt lat="49.96769" lon="2.28744">
        <ele>65.1</ele>
        <time>2022-12-28T13:54:49Z</time>
      </trkpt>
      <trkpt lat="49.96769" lon="2.28743">
        <ele>65.1</ele>
        <time>2022-12-28T13:54:50Z</time>
      </trkpt>
      <trkpt lat="49.96768" lon="2.28741">
        <ele>65.2</ele>
        <time>2022-12-28T13:54:51Z</time>
      </trkpt>
      <trkpt lat="49.96768" lon="2.28739">
        <ele>65.4</ele>
        <time>2022-12-28T13:54:52Z</time>
      </trkpt>
      <trkpt lat="49.96767" lon="2.28737">
        <ele>65.5</ele>
        <time>2022-12-28T13:54:53Z</time>
      </trkpt>
      <trkpt lat="49.96766" lon="2.28735">
        <ele>65.6</ele>
        <time>2022-12-28T13:54:54Z</time>
      </trkpt>
      <trkpt lat="49.96766" lon="2.28733">
        <ele>65.7</ele>
        <time>2022-12-28T13:54:56Z</time>
      </trkpt>
      <trkpt lat="49.96765" lon="2.28732">
        <ele>65.8</ele>
        <time>2022-12-28T13:54:57Z</time>
      </trkpt>
      <trkpt lat="49.96764" lon="2.28729">
        <ele>66</ele>
        <time>2022-12-28T13:54:58Z</time>
      </trkpt>
      <trkpt lat="49.96763" lon="2.28727">
        <ele>66.1</ele>
        <time>2022-12-28T13:54:59Z</time>
      </trkpt>
      <trkpt lat="49.96763" lon="2.28726">
        <ele>66.2</ele>
        <time>2022-12-28T13:55:00Z</time>
      </trkpt>
      <trkpt lat="49.96762" lon="2.28723">
        <ele>66.4</ele>
        <time>2022-12-28T13:55:01Z</time>
      </trkpt>
      <trkpt lat="49.96762" lon="2.28722">
        <ele>66.5</ele>
        <time>2022-12-28T13:55:02Z</time>
      </trkpt>
      <trkpt lat="49.96761" lon="2.2872">
        <ele>66.6</ele>
        <time>2022-12-28T13:55:04Z</time>
      </trkpt>
      <trkpt lat="49.96761" lon="2.28719">
        <ele>66.7</ele>
        <time>2022-12-28T13:55:05Z</time>
      </trkpt>
      <trkpt lat="49.9676" lon="2.28717">
        <ele>66.8</ele>
        <time>2022-12-28T13:55:06Z</time>
      </trkpt>
      <trkpt lat="49.96759" lon="2.28716">
        <ele>66.9</ele>
        <time>2022-12-28T13:55:07Z</time>
      </trkpt>
      <trkpt lat="49.96759" lon="2.28714">
        <ele>67</ele>
        <time>2022-12-28T13:55:08Z</time>
      </trkpt>
      <trkpt lat="49.96758" lon="2.28712">
        <ele>67.2</ele>
        <time>2022-12-28T13:55:10Z</time>
      </trkpt>
      <trkpt lat="49.96757" lon="2.28711">
        <ele>67.3</ele>
        <time>2022-12-28T13:55:11Z</time>
      </trkpt>
      <trkpt lat="49.96757" lon="2.28709">
        <ele>67.4</ele>
        <time>2022-12-28T13:55:12Z</time>
      </trkpt>
      <trkpt lat="49.96756" lon="2.28707">
        <ele>67.5</ele>
        <time>2022-12-28T13:55:13Z</time>
      </trkpt>
      <trkpt lat="49.96756" lon="2.28705">
        <ele>67.7</ele>
        <time>2022-12-28T13:55:14Z</time>
      </trkpt>
      <trkpt lat="49.96755" lon="2.28704">
        <ele>67.8</ele>
        <time>2022-12-28T13:55:15Z</time>
      </trkpt>
      <trkpt lat="49.96755" lon="2.28702">
        <ele>67.9</ele>
        <time>2022-12-28T13:55:16Z</time>
      </trkpt>
      <trkpt lat="49.96754" lon="2.28698">
        <ele>68.2</ele>
        <time>2022-12-28T13:55:18Z</time>
      </trkpt>
      <trkpt lat="49.96753" lon="2.28697">
        <ele>68.3</ele>
        <time>2022-12-28T13:55:19Z</time>
      </trkpt>
      <trkpt lat="49.96753" lon="2.28696">
        <ele>68.4</ele>
        <time>2022-12-28T13:55:21Z</time>
      </trkpt>
      <trkpt lat="49.96752" lon="2.28694">
        <ele>68.5</ele>
        <time>2022-12-28T13:55:22Z</time>
      </trkpt>
      <trkpt lat="49.96752" lon="2.28693">
        <ele>68.6</ele>
        <time>2022-12-28T13:55:23Z</time>
      </trkpt>
      <trkpt lat="49.96752" lon="2.28691">
        <ele>68.7</ele>
        <time>2022-12-28T13:55:24Z</time>
      </trkpt>
      <trkpt lat="49.96751" lon="2.2869">
        <ele>68.8</ele>
        <time>2022-12-28T13:55:25Z</time>
      </trkpt>
      <trkpt lat="49.96751" lon="2.28689">
        <ele>68.9</ele>
        <time>2022-12-28T13:55:27Z</time>
      </trkpt>
      <trkpt lat="49.9675" lon="2.28688">
        <ele>69</ele>
        <time>2022-12-28T13:55:28Z</time>
      </trkpt>
      <trkpt lat="49.9675" lon="2.28687">
        <ele>69.1</ele>
        <time>2022-12-28T13:55:29Z</time>
      </trkpt>
      <trkpt lat="49.9675" lon="2.28686">
        <ele>69.1</ele>
        <time>2022-12-28T13:55:30Z</time>
      </trkpt>
      <trkpt lat="49.96749" lon="2.28685">
        <ele>69.2</ele>
        <time>2022-12-28T13:55:31Z</time>
      </trkpt>
      <trkpt lat="49.96749" lon="2.28684">
        <ele>69.3</ele>
        <time>2022-12-28T13:55:32Z</time>
      </trkpt>
      <trkpt lat="49.96748" lon="2.28683">
        <ele>69.4</ele>
        <time>2022-12-28T13:55:34Z</time>
      </trkpt>
      <trkpt lat="49.96747" lon="2.28682">
        <ele>69.5</ele>
        <time>2022-12-28T13:55:35Z</time>
      </trkpt>
      <trkpt lat="49.96747" lon="2.28681">
        <ele>69.6</ele>
        <time>2022-12-28T13:55:36Z</time>
      </trkpt>
      <trkpt lat="49.96746" lon="2.28679">
        <ele>69.7</ele>
        <time>2022-12-28T13:55:37Z</time>
      </trkpt>
      <trkpt lat="49.96746" lon="2.28678">
        <ele>69.8</ele>
        <time>2022-12-28T13:55:38Z</time>
      </trkpt>
      <trkpt lat="49.96745" lon="2.28677">
        <ele>69.9</ele>
        <time>2022-12-28T13:55:39Z</time>
      </trkpt>
      <trkpt lat="49.96744" lon="2.28675">
        <ele>70.1</ele>
        <time>2022-12-28T13:55:41Z</time>
      </trkpt>
      <trkpt lat="49.96743" lon="2.28674">
        <ele>70.1</ele>
        <time>2022-12-28T13:55:42Z</time>
      </trkpt>
      <trkpt lat="49.96743" lon="2.28673">
        <ele>70.2</ele>
        <time>2022-12-28T13:55:43Z</time>
      </trkpt>
      <trkpt lat="49.96742" lon="2.28672">
        <ele>70.3</ele>
        <time>2022-12-28T13:55:44Z</time>
      </trkpt>
      <trkpt lat="49.96741" lon="2.28671">
        <ele>70.4</ele>
        <time>2022-12-28T13:55:45Z</time>
      </trkpt>
      <trkpt lat="49.96741" lon="2.2867">
        <ele>70.5</ele>
        <time>2022-12-28T13:55:46Z</time>
      </trkpt>
      <trkpt lat="49.9674" lon="2.28668">
        <ele>70.6</ele>
        <time>2022-12-28T13:55:47Z</time>
      </trkpt>
      <trkpt lat="49.96739" lon="2.28667">
        <ele>70.7</ele>
        <time>2022-12-28T13:55:49Z</time>
      </trkpt>
      <trkpt lat="49.96739" lon="2.28666">
        <ele>70.8</ele>
        <time>2022-12-28T13:55:50Z</time>
      </trkpt>
      <trkpt lat="49.96738" lon="2.28664">
        <ele>70.9</ele>
        <time>2022-12-28T13:55:51Z</time>
      </trkpt>
      <trkpt lat="49.96738" lon="2.28663">
        <ele>70.9</ele>
        <time>2022-12-28T13:55:52Z</time>
      </trkpt>
      <trkpt lat="49.96737" lon="2.28662">
        <ele>71</ele>
        <time>2022-12-28T13:55:53Z</time>
      </trkpt>
      <trkpt lat="49.96737" lon="2.28661">
        <ele>71.1</ele>
        <time>2022-12-28T13:55:55Z</time>
      </trkpt>
      <trkpt lat="49.96736" lon="2.2866">
        <ele>71.1</ele>
        <time>2022-12-28T13:55:56Z</time>
      </trkpt>
      <trkpt lat="49.96736" lon="2.28659">
        <ele>71.2</ele>
        <time>2022-12-28T13:55:57Z</time>
      </trkpt>
      <trkpt lat="49.96735" lon="2.28658">
        <ele>71.3</ele>
        <time>2022-12-28T13:55:58Z</time>
      </trkpt>
      <trkpt lat="49.96735" lon="2.28657">
        <ele>71.3</ele>
        <time>2022-12-28T13:55:59Z</time>
      </trkpt>
      <trkpt lat="49.96734" lon="2.28656">
        <ele>71.4</ele>
        <time>2022-12-28T13:56:00Z</time>
      </trkpt>
      <trkpt lat="49.96733" lon="2.28655">
        <ele>71.5</ele>
        <time>2022-12-28T13:56:01Z</time>
      </trkpt>
      <trkpt lat="49.96733" lon="2.28654">
        <ele>71.5</ele>
        <time>2022-12-28T13:56:02Z</time>
      </trkpt>
      <trkpt lat="49.96732" lon="2.28653">
        <ele>71.6</ele>
        <time>2022-12-28T13:56:04Z</time>
      </trkpt>
      <trkpt lat="49.96731" lon="2.28652">
        <ele>71.7</ele>
        <time>2022-12-28T13:56:05Z</time>
      </trkpt>
      <trkpt lat="49.96731" lon="2.2865">
        <ele>71.8</ele>
        <time>2022-12-28T13:56:06Z</time>
      </trkpt>
      <trkpt lat="49.9673" lon="2.28649">
        <ele>71.8</ele>
        <time>2022-12-28T13:56:07Z</time>
      </trkpt>
      <trkpt lat="49.96729" lon="2.28646">
        <ele>72</ele>
        <time>2022-12-28T13:56:09Z</time>
      </trkpt>
      <trkpt lat="49.96728" lon="2.28645">
        <ele>72.1</ele>
        <time>2022-12-28T13:56:10Z</time>
      </trkpt>
      <trkpt lat="49.96728" lon="2.28644">
        <ele>72.1</ele>
        <time>2022-12-28T13:56:11Z</time>
      </trkpt>
      <trkpt lat="49.96727" lon="2.28643">
        <ele>72.2</ele>
        <time>2022-12-28T13:56:12Z</time>
      </trkpt>
      <trkpt lat="49.96726" lon="2.28642">
        <ele>72.2</ele>
        <time>2022-12-28T13:56:13Z</time>
      </trkpt>
      <trkpt lat="49.96726" lon="2.28641">
        <ele>72.3</ele>
        <time>2022-12-28T13:56:14Z</time>
      </trkpt>
      <trkpt lat="49.96725" lon="2.28639">
        <ele>72.4</ele>
        <time>2022-12-28T13:56:15Z</time>
      </trkpt>
      <trkpt lat="49.96724" lon="2.28638">
        <ele>72.5</ele>
        <time>2022-12-28T13:56:17Z</time>
      </trkpt>
      <trkpt lat="49.96723" lon="2.28636">
        <ele>72.6</ele>
        <time>2022-12-28T13:56:18Z</time>
      </trkpt>
      <trkpt lat="49.96722" lon="2.28635">
        <ele>72.6</ele>
        <time>2022-12-28T13:56:19Z</time>
      </trkpt>
      <trkpt lat="49.96721" lon="2.28634">
        <ele>72.7</ele>
        <time>2022-12-28T13:56:20Z</time>
      </trkpt>
      <trkpt lat="49.9672" lon="2.28632">
        <ele>72.8</ele>
        <time>2022-12-28T13:56:21Z</time>
      </trkpt>
      <trkpt lat="49.96719" lon="2.28631">
        <ele>72.9</ele>
        <time>2022-12-28T13:56:23Z</time>
      </trkpt>
      <trkpt lat="49.96718" lon="2.2863">
        <ele>72.9</ele>
        <time>2022-12-28T13:56:24Z</time>
      </trkpt>
      <trkpt lat="49.96718" lon="2.28629">
        <ele>73</ele>
        <time>2022-12-28T13:56:25Z</time>
      </trkpt>
      <trkpt lat="49.96717" lon="2.28628">
        <ele>73</ele>
        <time>2022-12-28T13:56:26Z</time>
      </trkpt>
      <trkpt lat="49.96716" lon="2.28627">
        <ele>73.1</ele>
        <time>2022-12-28T13:56:27Z</time>
      </trkpt>
      <trkpt lat="49.96715" lon="2.28626">
        <ele>73.2</ele>
        <time>2022-12-28T13:56:29Z</time>
      </trkpt>
      <trkpt lat="49.96714" lon="2.28624">
        <ele>73.2</ele>
        <time>2022-12-28T13:56:30Z</time>
      </trkpt>
      <trkpt lat="49.96713" lon="2.28622">
        <ele>73.3</ele>
        <time>2022-12-28T13:56:31Z</time>
      </trkpt>
      <trkpt lat="49.96712" lon="2.28621">
        <ele>73.4</ele>
        <time>2022-12-28T13:56:32Z</time>
      </trkpt>
      <trkpt lat="49.96711" lon="2.2862">
        <ele>73.5</ele>
        <time>2022-12-28T13:56:34Z</time>
      </trkpt>
      <trkpt lat="49.9671" lon="2.28618">
        <ele>73.5</ele>
        <time>2022-12-28T13:56:35Z</time>
      </trkpt>
      <trkpt lat="49.96708" lon="2.28616">
        <ele>73.7</ele>
        <time>2022-12-28T13:56:36Z</time>
      </trkpt>
      <trkpt lat="49.96708" lon="2.28615">
        <ele>73.7</ele>
        <time>2022-12-28T13:56:37Z</time>
      </trkpt>
      <trkpt lat="49.96707" lon="2.28614">
        <ele>73.7</ele>
        <time>2022-12-28T13:56:38Z</time>
      </trkpt>
      <trkpt lat="49.96706" lon="2.28613">
        <ele>73.8</ele>
        <time>2022-12-28T13:56:40Z</time>
      </trkpt>
      <trkpt lat="49.96705" lon="2.28611">
        <ele>73.9</ele>
        <time>2022-12-28T13:56:41Z</time>
      </trkpt>
      <trkpt lat="49.96705" lon="2.2861">
        <ele>73.9</ele>
        <time>2022-12-28T13:56:42Z</time>
      </trkpt>
      <trkpt lat="49.96704" lon="2.28608">
        <ele>74</ele>
        <time>2022-12-28T13:56:43Z</time>
      </trkpt>
      <trkpt lat="49.96703" lon="2.28607">
        <ele>74</ele>
        <time>2022-12-28T13:56:44Z</time>
      </trkpt>
      <trkpt lat="49.96702" lon="2.28606">
        <ele>74</ele>
        <time>2022-12-28T13:56:45Z</time>
      </trkpt>
      <trkpt lat="49.96701" lon="2.28604">
        <ele>74.1</ele>
        <time>2022-12-28T13:56:47Z</time>
      </trkpt>
      <trkpt lat="49.967" lon="2.28602">
        <ele>74.2</ele>
        <time>2022-12-28T13:56:48Z</time>
      </trkpt>
      <trkpt lat="49.967" lon="2.28601">
        <ele>74.2</ele>
        <time>2022-12-28T13:56:49Z</time>
      </trkpt>
      <trkpt lat="49.96699" lon="2.286">
        <ele>74.2</ele>
        <time>2022-12-28T13:56:50Z</time>
      </trkpt>
      <trkpt lat="49.96698" lon="2.28599">
        <ele>74.3</ele>
        <time>2022-12-28T13:56:51Z</time>
      </trkpt>
      <trkpt lat="49.96698" lon="2.28598">
        <ele>74.3</ele>
        <time>2022-12-28T13:56:52Z</time>
      </trkpt>
      <trkpt lat="49.96697" lon="2.28596">
        <ele>74.3</ele>
        <time>2022-12-28T13:56:54Z</time>
      </trkpt>
      <trkpt lat="49.96696" lon="2.28595">
        <ele>74.4</ele>
        <time>2022-12-28T13:56:55Z</time>
      </trkpt>
      <trkpt lat="49.96695" lon="2.28593">
        <ele>74.4</ele>
        <time>2022-12-28T13:56:56Z</time>
      </trkpt>
      <trkpt lat="49.96695" lon="2.28593">
        <ele>74.4</ele>
        <time>2022-12-28T13:56:57Z</time>
      </trkpt>
      <trkpt lat="49.96694" lon="2.28591">
        <ele>74.5</ele>
        <time>2022-12-28T13:56:58Z</time>
      </trkpt>
      <trkpt lat="49.96694" lon="2.2859">
        <ele>74.5</ele>
        <time>2022-12-28T13:57:00Z</time>
      </trkpt>
      <trkpt lat="49.96693" lon="2.28589">
        <ele>74.5</ele>
        <time>2022-12-28T13:57:01Z</time>
      </trkpt>
      <trkpt lat="49.96692" lon="2.28588">
        <ele>74.5</ele>
        <time>2022-12-28T13:57:02Z</time>
      </trkpt>
      <trkpt lat="49.96692" lon="2.28587">
        <ele>74.6</ele>
        <time>2022-12-28T13:57:03Z</time>
      </trkpt>
      <trkpt lat="49.96691" lon="2.28586">
        <ele>74.6</ele>
        <time>2022-12-28T13:57:04Z</time>
      </trkpt>
      <trkpt lat="49.9669" lon="2.28583">
        <ele>74.7</ele>
        <time>2022-12-28T13:57:06Z</time>
      </trkpt>
      <trkpt lat="49.96689" lon="2.28581">
        <ele>74.7</ele>
        <time>2022-12-28T13:57:07Z</time>
      </trkpt>
      <trkpt lat="49.96688" lon="2.2858">
        <ele>74.7</ele>
        <time>2022-12-28T13:57:09Z</time>
      </trkpt>
      <trkpt lat="49.96687" lon="2.28577">
        <ele>74.8</ele>
        <time>2022-12-28T13:57:10Z</time>
      </trkpt>
      <trkpt lat="49.96687" lon="2.28576">
        <ele>74.8</ele>
        <time>2022-12-28T13:57:11Z</time>
      </trkpt>
      <trkpt lat="49.96686" lon="2.28575">
        <ele>74.8</ele>
        <time>2022-12-28T13:57:12Z</time>
      </trkpt>
      <trkpt lat="49.96686" lon="2.28574">
        <ele>74.8</ele>
        <time>2022-12-28T13:57:13Z</time>
      </trkpt>
      <trkpt lat="49.96685" lon="2.28573">
        <ele>74.8</ele>
        <time>2022-12-28T13:57:15Z</time>
      </trkpt>
      <trkpt lat="49.96684" lon="2.28571">
        <ele>74.9</ele>
        <time>2022-12-28T13:57:16Z</time>
      </trkpt>
      <trkpt lat="49.96683" lon="2.28569">
        <ele>74.9</ele>
        <time>2022-12-28T13:57:17Z</time>
      </trkpt>
      <trkpt lat="49.96683" lon="2.28568">
        <ele>74.9</ele>
        <time>2022-12-28T13:57:18Z</time>
      </trkpt>
      <trkpt lat="49.96682" lon="2.28567">
        <ele>74.9</ele>
        <time>2022-12-28T13:57:19Z</time>
      </trkpt>
      <trkpt lat="49.96682" lon="2.28565">
        <ele>75</ele>
        <time>2022-12-28T13:57:21Z</time>
      </trkpt>
      <trkpt lat="49.96681" lon="2.28563">
        <ele>75</ele>
        <time>2022-12-28T13:57:22Z</time>
      </trkpt>
      <trkpt lat="49.9668" lon="2.28562">
        <ele>75</ele>
        <time>2022-12-28T13:57:23Z</time>
      </trkpt>
      <trkpt lat="49.96679" lon="2.28561">
        <ele>75</ele>
        <time>2022-12-28T13:57:24Z</time>
      </trkpt>
      <trkpt lat="49.96679" lon="2.2856">
        <ele>75</ele>
        <time>2022-12-28T13:57:25Z</time>
      </trkpt>
      <trkpt lat="49.96678" lon="2.28559">
        <ele>75.1</ele>
        <time>2022-12-28T13:57:26Z</time>
      </trkpt>
      <trkpt lat="49.96676" lon="2.28556">
        <ele>75.1</ele>
        <time>2022-12-28T13:57:28Z</time>
      </trkpt>
      <trkpt lat="49.96676" lon="2.28555">
        <ele>75.1</ele>
        <time>2022-12-28T13:57:29Z</time>
      </trkpt>
      <trkpt lat="49.96675" lon="2.28554">
        <ele>75.1</ele>
        <time>2022-12-28T13:57:30Z</time>
      </trkpt>
      <trkpt lat="49.96674" lon="2.28553">
        <ele>75.1</ele>
        <time>2022-12-28T13:57:31Z</time>
      </trkpt>
      <trkpt lat="49.96673" lon="2.28552">
        <ele>75.2</ele>
        <time>2022-12-28T13:57:33Z</time>
      </trkpt>
      <trkpt lat="49.96672" lon="2.2855">
        <ele>75.2</ele>
        <time>2022-12-28T13:57:34Z</time>
      </trkpt>
      <trkpt lat="49.96672" lon="2.28549">
        <ele>75.2</ele>
        <time>2022-12-28T13:57:35Z</time>
      </trkpt>
      <trkpt lat="49.96671" lon="2.28548">
        <ele>75.2</ele>
        <time>2022-12-28T13:57:36Z</time>
      </trkpt>
      <trkpt lat="49.96671" lon="2.28546">
        <ele>75.2</ele>
        <time>2022-12-28T13:57:38Z</time>
      </trkpt>
      <trkpt lat="49.9667" lon="2.28544">
        <ele>75.3</ele>
        <time>2022-12-28T13:57:39Z</time>
      </trkpt>
      <trkpt lat="49.9667" lon="2.28543">
        <ele>75.3</ele>
        <time>2022-12-28T13:57:40Z</time>
      </trkpt>
      <trkpt lat="49.96669" lon="2.28542">
        <ele>75.3</ele>
        <time>2022-12-28T13:57:41Z</time>
      </trkpt>
      <trkpt lat="49.96668" lon="2.2854">
        <ele>75.3</ele>
        <time>2022-12-28T13:57:42Z</time>
      </trkpt>
      <trkpt lat="49.96668" lon="2.28539">
        <ele>75.3</ele>
        <time>2022-12-28T13:57:43Z</time>
      </trkpt>
      <trkpt lat="49.96667" lon="2.28537">
        <ele>75.3</ele>
        <time>2022-12-28T13:57:45Z</time>
      </trkpt>
      <trkpt lat="49.96667" lon="2.28536">
        <ele>75.3</ele>
        <time>2022-12-28T13:57:46Z</time>
      </trkpt>
      <trkpt lat="49.96666" lon="2.28534">
        <ele>75.3</ele>
        <time>2022-12-28T13:57:47Z</time>
      </trkpt>
      <trkpt lat="49.96665" lon="2.28533">
        <ele>75.4</ele>
        <time>2022-12-28T13:57:48Z</time>
      </trkpt>
      <trkpt lat="49.96665" lon="2.28532">
        <ele>75.4</ele>
        <time>2022-12-28T13:57:49Z</time>
      </trkpt>
      <trkpt lat="49.96664" lon="2.28531">
        <ele>75.4</ele>
        <time>2022-12-28T13:57:50Z</time>
      </trkpt>
      <trkpt lat="49.96663" lon="2.28528">
        <ele>75.4</ele>
        <time>2022-12-28T13:57:52Z</time>
      </trkpt>
      <trkpt lat="49.96664" lon="2.28527">
        <ele>75.4</ele>
        <time>2022-12-28T13:57:53Z</time>
      </trkpt>
      <trkpt lat="49.96664" lon="2.28525">
        <ele>75.4</ele>
        <time>2022-12-28T13:57:54Z</time>
      </trkpt>
      <trkpt lat="49.96664" lon="2.28524">
        <ele>75.4</ele>
        <time>2022-12-28T13:57:55Z</time>
      </trkpt>
      <trkpt lat="49.96663" lon="2.28521">
        <ele>75.5</ele>
        <time>2022-12-28T13:57:56Z</time>
      </trkpt>
      <trkpt lat="49.96662" lon="2.28519">
        <ele>75.5</ele>
        <time>2022-12-28T13:57:58Z</time>
      </trkpt>
      <trkpt lat="49.96662" lon="2.28518">
        <ele>75.5</ele>
        <time>2022-12-28T13:57:59Z</time>
      </trkpt>
      <trkpt lat="49.96661" lon="2.28516">
        <ele>75.5</ele>
        <time>2022-12-28T13:58:00Z</time>
      </trkpt>
      <trkpt lat="49.9666" lon="2.28514">
        <ele>75.5</ele>
        <time>2022-12-28T13:58:01Z</time>
      </trkpt>
      <trkpt lat="49.96659" lon="2.28513">
        <ele>75.5</ele>
        <time>2022-12-28T13:58:02Z</time>
      </trkpt>
      <trkpt lat="49.96658" lon="2.28511">
        <ele>75.5</ele>
        <time>2022-12-28T13:58:03Z</time>
      </trkpt>
      <trkpt lat="49.96657" lon="2.28509">
        <ele>75.6</ele>
        <time>2022-12-28T13:58:05Z</time>
      </trkpt>
      <trkpt lat="49.96657" lon="2.28507">
        <ele>75.6</ele>
        <time>2022-12-28T13:58:06Z</time>
      </trkpt>
      <trkpt lat="49.96656" lon="2.28506">
        <ele>75.6</ele>
        <time>2022-12-28T13:58:07Z</time>
      </trkpt>
      <trkpt lat="49.96655" lon="2.28505">
        <ele>75.6</ele>
        <time>2022-12-28T13:58:08Z</time>
      </trkpt>
      <trkpt lat="49.96655" lon="2.28504">
        <ele>75.6</ele>
        <time>2022-12-28T13:58:09Z</time>
      </trkpt>
      <trkpt lat="49.96654" lon="2.28502">
        <ele>75.6</ele>
        <time>2022-12-28T13:58:10Z</time>
      </trkpt>
      <trkpt lat="49.96654" lon="2.28501">
        <ele>75.6</ele>
        <time>2022-12-28T13:58:12Z</time>
      </trkpt>
      <trkpt lat="49.96653" lon="2.28499">
        <ele>75.6</ele>
        <time>2022-12-28T13:58:13Z</time>
      </trkpt>
      <trkpt lat="49.96653" lon="2.28498">
        <ele>75.6</ele>
        <time>2022-12-28T13:58:14Z</time>
      </trkpt>
      <trkpt lat="49.96652" lon="2.28497">
        <ele>75.6</ele>
        <time>2022-12-28T13:58:15Z</time>
      </trkpt>
      <trkpt lat="49.96652" lon="2.28497">
        <ele>75.6</ele>
        <time>2022-12-28T13:58:17Z</time>
      </trkpt>
      <trkpt lat="49.96651" lon="2.28495">
        <ele>75.6</ele>
        <time>2022-12-28T13:58:18Z</time>
      </trkpt>
      <trkpt lat="49.96651" lon="2.28495">
        <ele>75.6</ele>
        <time>2022-12-28T13:58:19Z</time>
      </trkpt>
      <trkpt lat="49.96651" lon="2.28494">
        <ele>75.7</ele>
        <time>2022-12-28T13:58:20Z</time>
      </trkpt>
      <trkpt lat="49.9665" lon="2.28493">
        <ele>75.7</ele>
        <time>2022-12-28T13:58:21Z</time>
      </trkpt>
      <trkpt lat="49.9665" lon="2.28491">
        <ele>75.6</ele>
        <time>2022-12-28T13:58:22Z</time>
      </trkpt>
      <trkpt lat="49.96649" lon="2.2849">
        <ele>75.6</ele>
        <time>2022-12-28T13:58:23Z</time>
      </trkpt>
      <trkpt lat="49.96648" lon="2.28488">
        <ele>75.6</ele>
        <time>2022-12-28T13:58:25Z</time>
      </trkpt>
      <trkpt lat="49.96648" lon="2.28487">
        <ele>75.6</ele>
        <time>2022-12-28T13:58:26Z</time>
      </trkpt>
      <trkpt lat="49.96647" lon="2.28486">
        <ele>75.6</ele>
        <time>2022-12-28T13:58:27Z</time>
      </trkpt>
      <trkpt lat="49.96646" lon="2.28485">
        <ele>75.6</ele>
        <time>2022-12-28T13:58:28Z</time>
      </trkpt>
      <trkpt lat="49.96645" lon="2.28484">
        <ele>75.6</ele>
        <time>2022-12-28T13:58:29Z</time>
      </trkpt>
      <trkpt lat="49.96645" lon="2.28483">
        <ele>75.5</ele>
        <time>2022-12-28T13:58:30Z</time>
      </trkpt>
      <trkpt lat="49.96643" lon="2.28481">
        <ele>75.5</ele>
        <time>2022-12-28T13:58:32Z</time>
      </trkpt>
      <trkpt lat="49.96642" lon="2.2848">
        <ele>75.5</ele>
        <time>2022-12-28T13:58:33Z</time>
      </trkpt>
      <trkpt lat="49.96642" lon="2.28478">
        <ele>75.5</ele>
        <time>2022-12-28T13:58:34Z</time>
      </trkpt>
      <trkpt lat="49.96641" lon="2.28477">
        <ele>75.5</ele>
        <time>2022-12-28T13:58:35Z</time>
      </trkpt>
      <trkpt lat="49.9664" lon="2.28475">
        <ele>75.5</ele>
        <time>2022-12-28T13:58:36Z</time>
      </trkpt>
      <trkpt lat="49.96639" lon="2.28472">
        <ele>75.4</ele>
        <time>2022-12-28T13:58:37Z</time>
      </trkpt>
      <trkpt lat="49.96639" lon="2.28471">
        <ele>75.4</ele>
        <time>2022-12-28T13:58:39Z</time>
      </trkpt>
      <trkpt lat="49.96638" lon="2.2847">
        <ele>75.4</ele>
        <time>2022-12-28T13:58:40Z</time>
      </trkpt>
      <trkpt lat="49.96638" lon="2.28469">
        <ele>75.4</ele>
        <time>2022-12-28T13:58:41Z</time>
      </trkpt>
      <trkpt lat="49.96637" lon="2.28466">
        <ele>75.4</ele>
        <time>2022-12-28T13:58:42Z</time>
      </trkpt>
      <trkpt lat="49.96636" lon="2.28465">
        <ele>75.4</ele>
        <time>2022-12-28T13:58:43Z</time>
      </trkpt>
      <trkpt lat="49.96636" lon="2.28463">
        <ele>75.3</ele>
        <time>2022-12-28T13:58:44Z</time>
      </trkpt>
      <trkpt lat="49.96635" lon="2.28462">
        <ele>75.3</ele>
        <time>2022-12-28T13:58:45Z</time>
      </trkpt>
      <trkpt lat="49.96635" lon="2.2846">
        <ele>75.3</ele>
        <time>2022-12-28T13:58:46Z</time>
      </trkpt>
      <trkpt lat="49.96634" lon="2.28458">
        <ele>75.3</ele>
        <time>2022-12-28T13:58:48Z</time>
      </trkpt>
      <trkpt lat="49.96633" lon="2.28456">
        <ele>75.3</ele>
        <time>2022-12-28T13:58:49Z</time>
      </trkpt>
      <trkpt lat="49.96633" lon="2.28455">
        <ele>75.3</ele>
        <time>2022-12-28T13:58:50Z</time>
      </trkpt>
      <trkpt lat="49.96632" lon="2.28453">
        <ele>75.2</ele>
        <time>2022-12-28T13:58:51Z</time>
      </trkpt>
      <trkpt lat="49.96631" lon="2.28451">
        <ele>75.2</ele>
        <time>2022-12-28T13:58:52Z</time>
      </trkpt>
      <trkpt lat="49.96631" lon="2.28449">
        <ele>75.2</ele>
        <time>2022-12-28T13:58:53Z</time>
      </trkpt>
      <trkpt lat="49.9663" lon="2.28447">
        <ele>75.2</ele>
        <time>2022-12-28T13:58:54Z</time>
      </trkpt>
      <trkpt lat="49.9663" lon="2.28445">
        <ele>75.2</ele>
        <time>2022-12-28T13:58:56Z</time>
      </trkpt>
      <trkpt lat="49.96629" lon="2.28444">
        <ele>75.2</ele>
        <time>2022-12-28T13:58:57Z</time>
      </trkpt>
      <trkpt lat="49.96629" lon="2.28441">
        <ele>75.1</ele>
        <time>2022-12-28T13:58:58Z</time>
      </trkpt>
      <trkpt lat="49.96628" lon="2.28439">
        <ele>75.1</ele>
        <time>2022-12-28T13:58:59Z</time>
      </trkpt>
      <trkpt lat="49.96628" lon="2.28438">
        <ele>75.1</ele>
        <time>2022-12-28T13:59:00Z</time>
      </trkpt>
      <trkpt lat="49.96627" lon="2.28436">
        <ele>75.1</ele>
        <time>2022-12-28T13:59:01Z</time>
      </trkpt>
      <trkpt lat="49.96627" lon="2.28434">
        <ele>75.1</ele>
        <time>2022-12-28T13:59:02Z</time>
      </trkpt>
      <trkpt lat="49.96626" lon="2.28432">
        <ele>75.1</ele>
        <time>2022-12-28T13:59:04Z</time>
      </trkpt>
      <trkpt lat="49.96626" lon="2.2843">
        <ele>75</ele>
        <time>2022-12-28T13:59:05Z</time>
      </trkpt>
      <trkpt lat="49.96625" lon="2.28428">
        <ele>75</ele>
        <time>2022-12-28T13:59:06Z</time>
      </trkpt>
      <trkpt lat="49.96625" lon="2.28427">
        <ele>75</ele>
        <time>2022-12-28T13:59:07Z</time>
      </trkpt>
      <trkpt lat="49.96624" lon="2.28424">
        <ele>75</ele>
        <time>2022-12-28T13:59:08Z</time>
      </trkpt>
      <trkpt lat="49.96623" lon="2.28421">
        <ele>75</ele>
        <time>2022-12-28T13:59:09Z</time>
      </trkpt>
      <trkpt lat="49.96623" lon="2.28419">
        <ele>74.9</ele>
        <time>2022-12-28T13:59:11Z</time>
      </trkpt>
      <trkpt lat="49.96623" lon="2.28418">
        <ele>74.9</ele>
        <time>2022-12-28T13:59:12Z</time>
      </trkpt>
      <trkpt lat="49.96622" lon="2.28416">
        <ele>74.9</ele>
        <time>2022-12-28T13:59:13Z</time>
      </trkpt>
      <trkpt lat="49.96622" lon="2.28415">
        <ele>74.9</ele>
        <time>2022-12-28T13:59:14Z</time>
      </trkpt>
      <trkpt lat="49.96622" lon="2.28413">
        <ele>74.9</ele>
        <time>2022-12-28T13:59:15Z</time>
      </trkpt>
      <trkpt lat="49.96621" lon="2.28409">
        <ele>74.8</ele>
        <time>2022-12-28T13:59:16Z</time>
      </trkpt>
      <trkpt lat="49.96621" lon="2.28408">
        <ele>74.8</ele>
        <time>2022-12-28T13:59:18Z</time>
      </trkpt>
      <trkpt lat="49.96621" lon="2.28406">
        <ele>74.8</ele>
        <time>2022-12-28T13:59:19Z</time>
      </trkpt>
      <trkpt lat="49.9662" lon="2.28405">
        <ele>74.8</ele>
        <time>2022-12-28T13:59:20Z</time>
      </trkpt>
      <trkpt lat="49.9662" lon="2.28403">
        <ele>74.8</ele>
        <time>2022-12-28T13:59:21Z</time>
      </trkpt>
      <trkpt lat="49.9662" lon="2.28401">
        <ele>74.8</ele>
        <time>2022-12-28T13:59:22Z</time>
      </trkpt>
      <trkpt lat="49.96619" lon="2.284">
        <ele>74.7</ele>
        <time>2022-12-28T13:59:23Z</time>
      </trkpt>
      <trkpt lat="49.96619" lon="2.28398">
        <ele>74.7</ele>
        <time>2022-12-28T13:59:24Z</time>
      </trkpt>
      <trkpt lat="49.96618" lon="2.28395">
        <ele>74.7</ele>
        <time>2022-12-28T13:59:26Z</time>
      </trkpt>
      <trkpt lat="49.96618" lon="2.28394">
        <ele>74.7</ele>
        <time>2022-12-28T13:59:27Z</time>
      </trkpt>
      <trkpt lat="49.96618" lon="2.28392">
        <ele>74.6</ele>
        <time>2022-12-28T13:59:28Z</time>
      </trkpt>
      <trkpt lat="49.96617" lon="2.28391">
        <ele>74.6</ele>
        <time>2022-12-28T13:59:29Z</time>
      </trkpt>
      <trkpt lat="49.96617" lon="2.2839">
        <ele>74.6</ele>
        <time>2022-12-28T13:59:30Z</time>
      </trkpt>
      <trkpt lat="49.96617" lon="2.28388">
        <ele>74.6</ele>
        <time>2022-12-28T13:59:31Z</time>
      </trkpt>
      <trkpt lat="49.96617" lon="2.28385">
        <ele>74.5</ele>
        <time>2022-12-28T13:59:32Z</time>
      </trkpt>
      <trkpt lat="49.96617" lon="2.28384">
        <ele>74.5</ele>
        <time>2022-12-28T13:59:34Z</time>
      </trkpt>
      <trkpt lat="49.96616" lon="2.28383">
        <ele>74.5</ele>
        <time>2022-12-28T13:59:35Z</time>
      </trkpt>
      <trkpt lat="49.96616" lon="2.28381">
        <ele>74.5</ele>
        <time>2022-12-28T13:59:36Z</time>
      </trkpt>
      <trkpt lat="49.96616" lon="2.28379">
        <ele>74.5</ele>
        <time>2022-12-28T13:59:37Z</time>
      </trkpt>
      <trkpt lat="49.96616" lon="2.28378">
        <ele>74.4</ele>
        <time>2022-12-28T13:59:38Z</time>
      </trkpt>
      <trkpt lat="49.96615" lon="2.28375">
        <ele>74.4</ele>
        <time>2022-12-28T13:59:39Z</time>
      </trkpt>
      <trkpt lat="49.96615" lon="2.28374">
        <ele>74.4</ele>
        <time>2022-12-28T13:59:41Z</time>
      </trkpt>
      <trkpt lat="49.96614" lon="2.28372">
        <ele>74.4</ele>
        <time>2022-12-28T13:59:42Z</time>
      </trkpt>
      <trkpt lat="49.96614" lon="2.2837">
        <ele>74.3</ele>
        <time>2022-12-28T13:59:43Z</time>
      </trkpt>
      <trkpt lat="49.96614" lon="2.28369">
        <ele>74.3</ele>
        <time>2022-12-28T13:59:44Z</time>
      </trkpt>
      <trkpt lat="49.96614" lon="2.28367">
        <ele>74.3</ele>
        <time>2022-12-28T13:59:45Z</time>
      </trkpt>
      <trkpt lat="49.96613" lon="2.28365">
        <ele>74.3</ele>
        <time>2022-12-28T13:59:46Z</time>
      </trkpt>
      <trkpt lat="49.96613" lon="2.28362">
        <ele>74.2</ele>
        <time>2022-12-28T13:59:47Z</time>
      </trkpt>
      <trkpt lat="49.96613" lon="2.28361">
        <ele>74.2</ele>
        <time>2022-12-28T13:59:49Z</time>
      </trkpt>
      <trkpt lat="49.96613" lon="2.28359">
        <ele>74.2</ele>
        <time>2022-12-28T13:59:50Z</time>
      </trkpt>
      <trkpt lat="49.96613" lon="2.28357">
        <ele>74.1</ele>
        <time>2022-12-28T13:59:51Z</time>
      </trkpt>
      <trkpt lat="49.96613" lon="2.28355">
        <ele>74.1</ele>
        <time>2022-12-28T13:59:52Z</time>
      </trkpt>
      <trkpt lat="49.96613" lon="2.28353">
        <ele>74</ele>
        <time>2022-12-28T13:59:53Z</time>
      </trkpt>
      <trkpt lat="49.96612" lon="2.28351">
        <ele>74</ele>
        <time>2022-12-28T13:59:54Z</time>
      </trkpt>
      <trkpt lat="49.96612" lon="2.2835">
        <ele>74</ele>
        <time>2022-12-28T13:59:55Z</time>
      </trkpt>
      <trkpt lat="49.96612" lon="2.28348">
        <ele>73.9</ele>
        <time>2022-12-28T13:59:57Z</time>
      </trkpt>
      <trkpt lat="49.96612" lon="2.28345">
        <ele>73.8</ele>
        <time>2022-12-28T13:59:58Z</time>
      </trkpt>
      <trkpt lat="49.96612" lon="2.28344">
        <ele>73.8</ele>
        <time>2022-12-28T13:59:59Z</time>
      </trkpt>
      <trkpt lat="49.96612" lon="2.28342">
        <ele>73.8</ele>
        <time>2022-12-28T14:00:00Z</time>
      </trkpt>
      <trkpt lat="49.96612" lon="2.2834">
        <ele>73.7</ele>
        <time>2022-12-28T14:00:01Z</time>
      </trkpt>
      <trkpt lat="49.96611" lon="2.28339">
        <ele>73.7</ele>
        <time>2022-12-28T14:00:02Z</time>
      </trkpt>
      <trkpt lat="49.96611" lon="2.28337">
        <ele>73.7</ele>
        <time>2022-12-28T14:00:03Z</time>
      </trkpt>
      <trkpt lat="49.96611" lon="2.28334">
        <ele>73.6</ele>
        <time>2022-12-28T14:00:04Z</time>
      </trkpt>
      <trkpt lat="49.96611" lon="2.28332">
        <ele>73.5</ele>
        <time>2022-12-28T14:00:05Z</time>
      </trkpt>
      <trkpt lat="49.96611" lon="2.28331">
        <ele>73.5</ele>
        <time>2022-12-28T14:00:07Z</time>
      </trkpt>
      <trkpt lat="49.96611" lon="2.28329">
        <ele>73.5</ele>
        <time>2022-12-28T14:00:08Z</time>
      </trkpt>
      <trkpt lat="49.96611" lon="2.28328">
        <ele>73.4</ele>
        <time>2022-12-28T14:00:09Z</time>
      </trkpt>
      <trkpt lat="49.96611" lon="2.28326">
        <ele>73.4</ele>
        <time>2022-12-28T14:00:10Z</time>
      </trkpt>
      <trkpt lat="49.9661" lon="2.28324">
        <ele>73.4</ele>
        <time>2022-12-28T14:00:11Z</time>
      </trkpt>
      <trkpt lat="49.9661" lon="2.28323">
        <ele>73.3</ele>
        <time>2022-12-28T14:00:12Z</time>
      </trkpt>
      <trkpt lat="49.9661" lon="2.28321">
        <ele>73.3</ele>
        <time>2022-12-28T14:00:13Z</time>
      </trkpt>
      <trkpt lat="49.96609" lon="2.2832">
        <ele>73.3</ele>
        <time>2022-12-28T14:00:14Z</time>
      </trkpt>
      <trkpt lat="49.96609" lon="2.28318">
        <ele>73.2</ele>
        <time>2022-12-28T14:00:15Z</time>
      </trkpt>
      <trkpt lat="49.96609" lon="2.28317">
        <ele>73.2</ele>
        <time>2022-12-28T14:00:16Z</time>
      </trkpt>
      <trkpt lat="49.96608" lon="2.28314">
        <ele>73.1</ele>
        <time>2022-12-28T14:00:18Z</time>
      </trkpt>
      <trkpt lat="49.96608" lon="2.28313">
        <ele>73.1</ele>
        <time>2022-12-28T14:00:19Z</time>
      </trkpt>
      <trkpt lat="49.96608" lon="2.28311">
        <ele>73.1</ele>
        <time>2022-12-28T14:00:20Z</time>
      </trkpt>
      <trkpt lat="49.96607" lon="2.2831">
        <ele>73</ele>
        <time>2022-12-28T14:00:21Z</time>
      </trkpt>
      <trkpt lat="49.96607" lon="2.28308">
        <ele>73</ele>
        <time>2022-12-28T14:00:22Z</time>
      </trkpt>
      <trkpt lat="49.96607" lon="2.28306">
        <ele>72.9</ele>
        <time>2022-12-28T14:00:23Z</time>
      </trkpt>
      <trkpt lat="49.96606" lon="2.28305">
        <ele>72.9</ele>
        <time>2022-12-28T14:00:24Z</time>
      </trkpt>
      <trkpt lat="49.96606" lon="2.28303">
        <ele>72.9</ele>
        <time>2022-12-28T14:00:25Z</time>
      </trkpt>
      <trkpt lat="49.96606" lon="2.28301">
        <ele>72.8</ele>
        <time>2022-12-28T14:00:26Z</time>
      </trkpt>
      <trkpt lat="49.96606" lon="2.28298">
        <ele>72.8</ele>
        <time>2022-12-28T14:00:27Z</time>
      </trkpt>
      <trkpt lat="49.96606" lon="2.28297">
        <ele>72.7</ele>
        <time>2022-12-28T14:00:29Z</time>
      </trkpt>
      <trkpt lat="49.96606" lon="2.28295">
        <ele>72.7</ele>
        <time>2022-12-28T14:00:30Z</time>
      </trkpt>
      <trkpt lat="49.96606" lon="2.28294">
        <ele>72.6</ele>
        <time>2022-12-28T14:00:31Z</time>
      </trkpt>
      <trkpt lat="49.96606" lon="2.28292">
        <ele>72.6</ele>
        <time>2022-12-28T14:00:32Z</time>
      </trkpt>
      <trkpt lat="49.96606" lon="2.2829">
        <ele>72.5</ele>
        <time>2022-12-28T14:00:33Z</time>
      </trkpt>
      <trkpt lat="49.96606" lon="2.28288">
        <ele>72.5</ele>
        <time>2022-12-28T14:00:34Z</time>
      </trkpt>
      <trkpt lat="49.96606" lon="2.28287">
        <ele>72.5</ele>
        <time>2022-12-28T14:00:35Z</time>
      </trkpt>
      <trkpt lat="49.96605" lon="2.28285">
        <ele>72.4</ele>
        <time>2022-12-28T14:00:37Z</time>
      </trkpt>
      <trkpt lat="49.96605" lon="2.28283">
        <ele>72.4</ele>
        <time>2022-12-28T14:00:38Z</time>
      </trkpt>
      <trkpt lat="49.96605" lon="2.28281">
        <ele>72.3</ele>
        <time>2022-12-28T14:00:39Z</time>
      </trkpt>
      <trkpt lat="49.96605" lon="2.2828">
        <ele>72.3</ele>
        <time>2022-12-28T14:00:40Z</time>
      </trkpt>
      <trkpt lat="49.96604" lon="2.28278">
        <ele>72.2</ele>
        <time>2022-12-28T14:00:41Z</time>
      </trkpt>
      <trkpt lat="49.96604" lon="2.28275">
        <ele>72.2</ele>
        <time>2022-12-28T14:00:42Z</time>
      </trkpt>
      <trkpt lat="49.96604" lon="2.28274">
        <ele>72.1</ele>
        <time>2022-12-28T14:00:43Z</time>
      </trkpt>
      <trkpt lat="49.96604" lon="2.28272">
        <ele>72.1</ele>
        <time>2022-12-28T14:00:45Z</time>
      </trkpt>
      <trkpt lat="49.96604" lon="2.28271">
        <ele>72.1</ele>
        <time>2022-12-28T14:00:46Z</time>
      </trkpt>
      <trkpt lat="49.96603" lon="2.28269">
        <ele>72</ele>
        <time>2022-12-28T14:00:47Z</time>
      </trkpt>
      <trkpt lat="49.96603" lon="2.28267">
        <ele>72</ele>
        <time>2022-12-28T14:00:48Z</time>
      </trkpt>
      <trkpt lat="49.96603" lon="2.28265">
        <ele>72</ele>
        <time>2022-12-28T14:00:49Z</time>
      </trkpt>
      <trkpt lat="49.96603" lon="2.28264">
        <ele>71.9</ele>
        <time>2022-12-28T14:00:50Z</time>
      </trkpt>
      <trkpt lat="49.96602" lon="2.28262">
        <ele>71.9</ele>
        <time>2022-12-28T14:00:52Z</time>
      </trkpt>
      <trkpt lat="49.96602" lon="2.28261">
        <ele>71.9</ele>
        <time>2022-12-28T14:00:53Z</time>
      </trkpt>
      <trkpt lat="49.96602" lon="2.2826">
        <ele>71.8</ele>
        <time>2022-12-28T14:00:54Z</time>
      </trkpt>
      <trkpt lat="49.96602" lon="2.28258">
        <ele>71.8</ele>
        <time>2022-12-28T14:00:55Z</time>
      </trkpt>
      <trkpt lat="49.96601" lon="2.28257">
        <ele>71.8</ele>
        <time>2022-12-28T14:00:56Z</time>
      </trkpt>
      <trkpt lat="49.96601" lon="2.28255">
        <ele>71.7</ele>
        <time>2022-12-28T14:00:58Z</time>
      </trkpt>
      <trkpt lat="49.96601" lon="2.28254">
        <ele>71.7</ele>
        <time>2022-12-28T14:00:59Z</time>
      </trkpt>
      <trkpt lat="49.96601" lon="2.28253">
        <ele>71.7</ele>
        <time>2022-12-28T14:01:00Z</time>
      </trkpt>
      <trkpt lat="49.96601" lon="2.28251">
        <ele>71.7</ele>
        <time>2022-12-28T14:01:01Z</time>
      </trkpt>
      <trkpt lat="49.966" lon="2.2825">
        <ele>71.7</ele>
        <time>2022-12-28T14:01:02Z</time>
      </trkpt>
      <trkpt lat="49.966" lon="2.28248">
        <ele>71.6</ele>
        <time>2022-12-28T14:01:04Z</time>
      </trkpt>
      <trkpt lat="49.966" lon="2.28247">
        <ele>71.6</ele>
        <time>2022-12-28T14:01:05Z</time>
      </trkpt>
      <trkpt lat="49.966" lon="2.28245">
        <ele>71.6</ele>
        <time>2022-12-28T14:01:06Z</time>
      </trkpt>
      <trkpt lat="49.966" lon="2.28244">
        <ele>71.6</ele>
        <time>2022-12-28T14:01:07Z</time>
      </trkpt>
      <trkpt lat="49.966" lon="2.28243">
        <ele>71.6</ele>
        <time>2022-12-28T14:01:08Z</time>
      </trkpt>
      <trkpt lat="49.966" lon="2.28241">
        <ele>71.5</ele>
        <time>2022-12-28T14:01:09Z</time>
      </trkpt>
      <trkpt lat="49.966" lon="2.28239">
        <ele>71.5</ele>
        <time>2022-12-28T14:01:10Z</time>
      </trkpt>
      <trkpt lat="49.96599" lon="2.28238">
        <ele>71.5</ele>
        <time>2022-12-28T14:01:12Z</time>
      </trkpt>
      <trkpt lat="49.96599" lon="2.28237">
        <ele>71.5</ele>
        <time>2022-12-28T14:01:13Z</time>
      </trkpt>
      <trkpt lat="49.966" lon="2.28235">
        <ele>71.5</ele>
        <time>2022-12-28T14:01:14Z</time>
      </trkpt>
      <trkpt lat="49.966" lon="2.28234">
        <ele>71.5</ele>
        <time>2022-12-28T14:01:15Z</time>
      </trkpt>
      <trkpt lat="49.96598" lon="2.28234">
        <ele>71.4</ele>
        <time>2022-12-28T14:01:17Z</time>
      </trkpt>
      <trkpt lat="49.96598" lon="2.28233">
        <ele>71.4</ele>
        <time>2022-12-28T14:01:18Z</time>
      </trkpt>
      <trkpt lat="49.96597" lon="2.28232">
        <ele>71.4</ele>
        <time>2022-12-28T14:01:20Z</time>
      </trkpt>
      <trkpt lat="49.96597" lon="2.28233">
        <ele>71.4</ele>
        <time>2022-12-28T14:01:21Z</time>
      </trkpt>
      <trkpt lat="49.96597" lon="2.28234">
        <ele>71.4</ele>
        <time>2022-12-28T14:01:23Z</time>
      </trkpt>
      <trkpt lat="49.96596" lon="2.28235">
        <ele>71.4</ele>
        <time>2022-12-28T14:01:24Z</time>
      </trkpt>
      <trkpt lat="49.96597" lon="2.28236">
        <ele>71.4</ele>
        <time>2022-12-28T14:01:25Z</time>
      </trkpt>
      <trkpt lat="49.96597" lon="2.28236">
        <ele>71.4</ele>
        <time>2022-12-28T14:01:27Z</time>
      </trkpt>
      <trkpt lat="49.96597" lon="2.28237">
        <ele>71.4</ele>
        <time>2022-12-28T14:01:28Z</time>
      </trkpt>
      <trkpt lat="49.96597" lon="2.28237">
        <ele>71.4</ele>
        <time>2022-12-28T14:01:30Z</time>
      </trkpt>
      <trkpt lat="49.96597" lon="2.28237">
        <ele>71.4</ele>
        <time>2022-12-28T14:01:31Z</time>
      </trkpt>
      <trkpt lat="49.96597" lon="2.28237">
        <ele>71.4</ele>
        <time>2022-12-28T14:01:33Z</time>
      </trkpt>
      <trkpt lat="49.96597" lon="2.28237">
        <ele>71.4</ele>
        <time>2022-12-28T14:01:34Z</time>
      </trkpt>
      <trkpt lat="49.96597" lon="2.28237">
        <ele>71.4</ele>
        <time>2022-12-28T14:01:35Z</time>
      </trkpt>
      <trkpt lat="49.96597" lon="2.28236">
        <ele>71.4</ele>
        <time>2022-12-28T14:01:37Z</time>
      </trkpt>
      <trkpt lat="49.96597" lon="2.28236">
        <ele>71.4</ele>
        <time>2022-12-28T14:01:38Z</time>
      </trkpt>
      <trkpt lat="49.96597" lon="2.28235">
        <ele>71.4</ele>
        <time>2022-12-28T14:01:39Z</time>
      </trkpt>
      <trkpt lat="49.96597" lon="2.28234">
        <ele>71.4</ele>
        <time>2022-12-28T14:01:40Z</time>
      </trkpt>
      <trkpt lat="49.96597" lon="2.28233">
        <ele>71.4</ele>
        <time>2022-12-28T14:01:41Z</time>
      </trkpt>
      <trkpt lat="49.96597" lon="2.28231">
        <ele>71.4</ele>
        <time>2022-12-28T14:01:42Z</time>
      </trkpt>
      <trkpt lat="49.96597" lon="2.28229">
        <ele>71.4</ele>
        <time>2022-12-28T14:01:44Z</time>
      </trkpt>
      <trkpt lat="49.96597" lon="2.28228">
        <ele>71.4</ele>
        <time>2022-12-28T14:01:45Z</time>
      </trkpt>
      <trkpt lat="49.96597" lon="2.28225">
        <ele>71.4</ele>
        <time>2022-12-28T14:01:46Z</time>
      </trkpt>
      <trkpt lat="49.96597" lon="2.28224">
        <ele>71.4</ele>
        <time>2022-12-28T14:01:47Z</time>
      </trkpt>
      <trkpt lat="49.96597" lon="2.28223">
        <ele>71.4</ele>
        <time>2022-12-28T14:01:48Z</time>
      </trkpt>
      <trkpt lat="49.96597" lon="2.28222">
        <ele>71.5</ele>
        <time>2022-12-28T14:01:49Z</time>
      </trkpt>
      <trkpt lat="49.96597" lon="2.28219">
        <ele>71.5</ele>
        <time>2022-12-28T14:01:51Z</time>
      </trkpt>
      <trkpt lat="49.96597" lon="2.28218">
        <ele>71.5</ele>
        <time>2022-12-28T14:01:52Z</time>
      </trkpt>
      <trkpt lat="49.96596" lon="2.28217">
        <ele>71.5</ele>
        <time>2022-12-28T14:01:53Z</time>
      </trkpt>
      <trkpt lat="49.96596" lon="2.28215">
        <ele>71.5</ele>
        <time>2022-12-28T14:01:55Z</time>
      </trkpt>
      <trkpt lat="49.96596" lon="2.28214">
        <ele>71.6</ele>
        <time>2022-12-28T14:01:56Z</time>
      </trkpt>
      <trkpt lat="49.96596" lon="2.28212">
        <ele>71.6</ele>
        <time>2022-12-28T14:01:57Z</time>
      </trkpt>
      <trkpt lat="49.96596" lon="2.28211">
        <ele>71.6</ele>
        <time>2022-12-28T14:01:58Z</time>
      </trkpt>
      <trkpt lat="49.96596" lon="2.28209">
        <ele>71.7</ele>
        <time>2022-12-28T14:01:59Z</time>
      </trkpt>
      <trkpt lat="49.96596" lon="2.28207">
        <ele>71.7</ele>
        <time>2022-12-28T14:02:00Z</time>
      </trkpt>
      <trkpt lat="49.96595" lon="2.28204">
        <ele>71.8</ele>
        <time>2022-12-28T14:02:01Z</time>
      </trkpt>
      <trkpt lat="49.96595" lon="2.28203">
        <ele>71.8</ele>
        <time>2022-12-28T14:02:03Z</time>
      </trkpt>
      <trkpt lat="49.96595" lon="2.28201">
        <ele>71.8</ele>
        <time>2022-12-28T14:02:04Z</time>
      </trkpt>
      <trkpt lat="49.96594" lon="2.282">
        <ele>71.8</ele>
        <time>2022-12-28T14:02:05Z</time>
      </trkpt>
      <trkpt lat="49.96594" lon="2.28198">
        <ele>71.9</ele>
        <time>2022-12-28T14:02:06Z</time>
      </trkpt>
      <trkpt lat="49.96594" lon="2.28196">
        <ele>71.9</ele>
        <time>2022-12-28T14:02:08Z</time>
      </trkpt>
      <trkpt lat="49.96593" lon="2.28194">
        <ele>72.1</ele>
        <time>2022-12-28T14:02:09Z</time>
      </trkpt>
      <trkpt lat="49.96593" lon="2.28192">
        <ele>72.1</ele>
        <time>2022-12-28T14:02:10Z</time>
      </trkpt>
      <trkpt lat="49.96593" lon="2.28191">
        <ele>72.1</ele>
        <time>2022-12-28T14:02:12Z</time>
      </trkpt>
      <trkpt lat="49.96592" lon="2.28189">
        <ele>72.1</ele>
        <time>2022-12-28T14:02:13Z</time>
      </trkpt>
      <trkpt lat="49.96591" lon="2.28188">
        <ele>72.1</ele>
        <time>2022-12-28T14:02:14Z</time>
      </trkpt>
      <trkpt lat="49.96591" lon="2.28188">
        <ele>72.2</ele>
        <time>2022-12-28T14:02:15Z</time>
      </trkpt>
      <trkpt lat="49.9659" lon="2.28188">
        <ele>72.2</ele>
        <time>2022-12-28T14:02:16Z</time>
      </trkpt>
      <trkpt lat="49.96589" lon="2.28188">
        <ele>72.2</ele>
        <time>2022-12-28T14:02:17Z</time>
      </trkpt>
      <trkpt lat="49.96588" lon="2.28188">
        <ele>72.2</ele>
        <time>2022-12-28T14:02:19Z</time>
      </trkpt>
      <trkpt lat="49.96588" lon="2.28188">
        <ele>72.2</ele>
        <time>2022-12-28T14:02:20Z</time>
      </trkpt>
      <trkpt lat="49.96587" lon="2.28189">
        <ele>72.3</ele>
        <time>2022-12-28T14:02:21Z</time>
      </trkpt>
      <trkpt lat="49.96587" lon="2.28189">
        <ele>72.3</ele>
        <time>2022-12-28T14:02:23Z</time>
      </trkpt>
      <trkpt lat="49.96587" lon="2.2819">
        <ele>72.3</ele>
        <time>2022-12-28T14:02:24Z</time>
      </trkpt>
      <trkpt lat="49.96587" lon="2.2819">
        <ele>72.3</ele>
        <time>2022-12-28T14:02:26Z</time>
      </trkpt>
      <trkpt lat="49.96587" lon="2.28189">
        <ele>72.3</ele>
        <time>2022-12-28T14:02:27Z</time>
      </trkpt>
      <trkpt lat="49.96587" lon="2.28189">
        <ele>72.3</ele>
        <time>2022-12-28T14:02:28Z</time>
      </trkpt>
      <trkpt lat="49.96587" lon="2.28188">
        <ele>72.3</ele>
        <time>2022-12-28T14:02:29Z</time>
      </trkpt>
      <trkpt lat="49.96587" lon="2.28188">
        <ele>72.3</ele>
        <time>2022-12-28T14:02:31Z</time>
      </trkpt>
      <trkpt lat="49.96587" lon="2.28188">
        <ele>72.4</ele>
        <time>2022-12-28T14:02:32Z</time>
      </trkpt>
      <trkpt lat="49.96587" lon="2.28187">
        <ele>72.4</ele>
        <time>2022-12-28T14:02:34Z</time>
      </trkpt>
      <trkpt lat="49.96587" lon="2.28187">
        <ele>72.5</ele>
        <time>2022-12-28T14:02:35Z</time>
      </trkpt>
      <trkpt lat="49.96587" lon="2.28187">
        <ele>72.5</ele>
        <time>2022-12-28T14:02:36Z</time>
      </trkpt>
      <trkpt lat="49.96588" lon="2.28187">
        <ele>72.5</ele>
        <time>2022-12-28T14:02:38Z</time>
      </trkpt>
      <trkpt lat="49.96588" lon="2.28187">
        <ele>72.5</ele>
        <time>2022-12-28T14:02:39Z</time>
      </trkpt>
      <trkpt lat="49.96588" lon="2.28187">
        <ele>72.5</ele>
        <time>2022-12-28T14:02:40Z</time>
      </trkpt>
      <trkpt lat="49.96587" lon="2.28187">
        <ele>72.5</ele>
        <time>2022-12-28T14:02:41Z</time>
      </trkpt>
      <trkpt lat="49.96587" lon="2.28187">
        <ele>72.5</ele>
        <time>2022-12-28T14:02:42Z</time>
      </trkpt>
      <trkpt lat="49.96587" lon="2.28187">
        <ele>72.5</ele>
        <time>2022-12-28T14:02:43Z</time>
      </trkpt>
      <trkpt lat="49.96587" lon="2.28186">
        <ele>72.5</ele>
        <time>2022-12-28T14:02:44Z</time>
      </trkpt>
      <trkpt lat="49.96587" lon="2.28186">
        <ele>72.5</ele>
        <time>2022-12-28T14:02:45Z</time>
      </trkpt>
      <trkpt lat="49.96587" lon="2.28186">
        <ele>72.5</ele>
        <time>2022-12-28T14:02:46Z</time>
      </trkpt>
      <trkpt lat="49.96587" lon="2.28186">
        <ele>72.5</ele>
        <time>2022-12-28T14:02:47Z</time>
      </trkpt>
      <trkpt lat="49.96587" lon="2.28186">
        <ele>72.5</ele>
        <time>2022-12-28T14:02:48Z</time>
      </trkpt>
      <trkpt lat="49.96587" lon="2.28186">
        <ele>72.5</ele>
        <time>2022-12-28T14:02:49Z</time>
      </trkpt>
      <trkpt lat="49.96587" lon="2.28186">
        <ele>72.5</ele>
        <time>2022-12-28T14:02:50Z</time>
      </trkpt>
      <trkpt lat="49.96587" lon="2.28186">
        <ele>72.5</ele>
        <time>2022-12-28T14:02:51Z</time>
      </trkpt>
      <trkpt lat="49.96587" lon="2.28186">
        <ele>72.5</ele>
        <time>2022-12-28T14:02:52Z</time>
      </trkpt>
      <trkpt lat="49.96587" lon="2.28186">
        <ele>72.5</ele>
        <time>2022-12-28T14:02:53Z</time>
      </trkpt>
      <trkpt lat="49.96587" lon="2.28186">
        <ele>72.5</ele>
        <time>2022-12-28T14:02:54Z</time>
      </trkpt>
      <trkpt lat="49.96587" lon="2.28186">
        <ele>72.5</ele>
        <time>2022-12-28T14:02:55Z</time>
      </trkpt>
      <trkpt lat="49.96587" lon="2.28186">
        <ele>72.5</ele>
        <time>2022-12-28T14:02:56Z</time>
      </trkpt>
      <trkpt lat="49.96587" lon="2.28186">
        <ele>72.5</ele>
        <time>2022-12-28T14:02:57Z</time>
      </trkpt>
      <trkpt lat="49.96587" lon="2.28186">
        <ele>72.5</ele>
        <time>2022-12-28T14:02:58Z</time>
      </trkpt>
      <trkpt lat="49.96587" lon="2.28186">
        <ele>72.5</ele>
        <time>2022-12-28T14:02:59Z</time>
      </trkpt>
      <trkpt lat="49.96587" lon="2.28186">
        <ele>72.5</ele>
        <time>2022-12-28T14:03:00Z</time>
      </trkpt>
      <trkpt lat="49.96587" lon="2.28186">
        <ele>72.5</ele>
        <time>2022-12-28T14:03:01Z</time>
      </trkpt>
      <trkpt lat="49.96587" lon="2.28186">
        <ele>72.5</ele>
        <time>2022-12-28T14:03:02Z</time>
      </trkpt>
      <trkpt lat="49.96587" lon="2.28186">
        <ele>72.5</ele>
        <time>2022-12-28T14:03:03Z</time>
      </trkpt>
      <trkpt lat="49.96587" lon="2.28186">
        <ele>72.5</ele>
        <time>2022-12-28T14:03:04Z</time>
      </trkpt>
      <trkpt lat="49.96587" lon="2.28186">
        <ele>72.5</ele>
        <time>2022-12-28T14:03:05Z</time>
      </trkpt>
      <trkpt lat="49.96587" lon="2.28186">
        <ele>72.5</ele>
        <time>2022-12-28T14:03:06Z</time>
      </trkpt>
      <trkpt lat="49.96587" lon="2.28186">
        <ele>72.5</ele>
        <time>2022-12-28T14:03:07Z</time>
      </trkpt>
      <trkpt lat="49.96587" lon="2.28186">
        <ele>72.5</ele>
        <time>2022-12-28T14:03:08Z</time>
      </trkpt>
      <trkpt lat="49.96587" lon="2.28186">
        <ele>72.5</ele>
        <time>2022-12-28T14:03:09Z</time>
      </trkpt>
      <trkpt lat="49.96587" lon="2.28186">
        <ele>72.5</ele>
        <time>2022-12-28T14:03:10Z</time>
      </trkpt>
      <trkpt lat="49.96587" lon="2.28186">
        <ele>72.5</ele>
        <time>2022-12-28T14:03:11Z</time>
      </trkpt>
      <trkpt lat="49.96587" lon="2.28186">
        <ele>72.5</ele>
        <time>2022-12-28T14:03:12Z</time>
      </trkpt>
      <trkpt lat="49.96587" lon="2.28186">
        <ele>72.5</ele>
        <time>2022-12-28T14:03:13Z</time>
      </trkpt>
      <trkpt lat="49.96587" lon="2.28186">
        <ele>72.5</ele>
        <time>2022-12-28T14:03:14Z</time>
      </trkpt>
      <trkpt lat="49.96587" lon="2.28186">
        <ele>72.5</ele>
        <time>2022-12-28T14:03:15Z</time>
      </trkpt>
      <trkpt lat="49.96587" lon="2.28186">
        <ele>72.5</ele>
        <time>2022-12-28T14:03:16Z</time>
      </trkpt>
      <trkpt lat="49.96587" lon="2.28186">
        <ele>72.5</ele>
        <time>2022-12-28T14:03:17Z</time>
      </trkpt>
      <trkpt lat="49.96587" lon="2.28186">
        <ele>72.5</ele>
        <time>2022-12-28T14:03:18Z</time>
      </trkpt>
      <trkpt lat="49.96587" lon="2.28186">
        <ele>72.5</ele>
        <time>2022-12-28T14:03:19Z</time>
      </trkpt>
      <trkpt lat="49.96587" lon="2.28186">
        <ele>72.5</ele>
        <time>2022-12-28T14:03:20Z</time>
      </trkpt>
      <trkpt lat="49.96587" lon="2.28186">
        <ele>72.5</ele>
        <time>2022-12-28T14:03:21Z</time>
      </trkpt>
      <trkpt lat="49.96587" lon="2.28186">
        <ele>72.5</ele>
        <time>2022-12-28T14:03:22Z</time>
      </trkpt>
      <trkpt lat="49.96587" lon="2.28186">
        <ele>72.5</ele>
        <time>2022-12-28T14:03:23Z</time>
      </trkpt>
      <trkpt lat="49.96587" lon="2.28186">
        <ele>72.5</ele>
        <time>2022-12-28T14:03:24Z</time>
      </trkpt>
      <trkpt lat="49.96587" lon="2.28186">
        <ele>72.5</ele>
        <time>2022-12-28T14:03:25Z</time>
      </trkpt>
      <trkpt lat="49.96587" lon="2.28186">
        <ele>72.5</ele>
        <time>2022-12-28T14:03:26Z</time>
      </trkpt>
      <trkpt lat="49.96587" lon="2.28186">
        <ele>72.5</ele>
        <time>2022-12-28T14:03:27Z</time>
      </trkpt>
      <trkpt lat="49.96587" lon="2.28186">
        <ele>72.5</ele>
        <time>2022-12-28T14:03:28Z</time>
      </trkpt>
      <trkpt lat="49.96587" lon="2.28186">
        <ele>72.5</ele>
        <time>2022-12-28T14:03:29Z</time>
      </trkpt>
      <trkpt lat="49.96587" lon="2.28186">
        <ele>72.5</ele>
        <time>2022-12-28T14:03:30Z</time>
      </trkpt>
      <trkpt lat="49.96587" lon="2.28186">
        <ele>72.5</ele>
        <time>2022-12-28T14:03:31Z</time>
      </trkpt>
      <trkpt lat="49.96587" lon="2.28186">
        <ele>72.5</ele>
        <time>2022-12-28T14:03:32Z</time>
      </trkpt>
      <trkpt lat="49.96587" lon="2.28186">
        <ele>72.5</ele>
        <time>2022-12-28T14:03:33Z</time>
      </trkpt>
      <trkpt lat="49.96587" lon="2.28186">
        <ele>72.5</ele>
        <time>2022-12-28T14:03:34Z</time>
      </trkpt>
      <trkpt lat="49.96587" lon="2.28186">
        <ele>72.5</ele>
        <time>2022-12-28T14:03:35Z</time>
      </trkpt>
      <trkpt lat="49.96587" lon="2.28186">
        <ele>72.5</ele>
        <time>2022-12-28T14:03:36Z</time>
      </trkpt>
      <trkpt lat="49.96587" lon="2.28186">
        <ele>72.5</ele>
        <time>2022-12-28T14:03:37Z</time>
      </trkpt>
      <trkpt lat="49.96587" lon="2.28186">
        <ele>72.5</ele>
        <time>2022-12-28T14:03:38Z</time>
      </trkpt>
      <trkpt lat="49.96587" lon="2.28186">
        <ele>72.5</ele>
        <time>2022-12-28T14:03:39Z</time>
      </trkpt>
      <trkpt lat="49.96587" lon="2.28186">
        <ele>72.5</ele>
        <time>2022-12-28T14:03:40Z</time>
      </trkpt>
      <trkpt lat="49.96587" lon="2.28186">
        <ele>72.5</ele>
        <time>2022-12-28T14:03:41Z</time>
      </trkpt>
      <trkpt lat="49.96587" lon="2.28186">
        <ele>72.5</ele>
        <time>2022-12-28T14:03:42Z</time>
      </trkpt>
      <trkpt lat="49.96587" lon="2.28186">
        <ele>72.5</ele>
        <time>2022-12-28T14:03:43Z</time>
      </trkpt>
      <trkpt lat="49.96587" lon="2.28186">
        <ele>72.5</ele>
        <time>2022-12-28T14:03:44Z</time>
      </trkpt>
      <trkpt lat="49.96587" lon="2.28186">
        <ele>72.5</ele>
        <time>2022-12-28T14:03:45Z</time>
      </trkpt>
      <trkpt lat="49.96587" lon="2.28186">
        <ele>72.5</ele>
        <time>2022-12-28T14:03:46Z</time>
      </trkpt>
      <trkpt lat="49.96587" lon="2.28186">
        <ele>72.5</ele>
        <time>2022-12-28T14:03:47Z</time>
      </trkpt>
      <trkpt lat="49.96587" lon="2.28186">
        <ele>72.5</ele>
        <time>2022-12-28T14:03:48Z</time>
      </trkpt>
      <trkpt lat="49.96587" lon="2.28186">
        <ele>72.5</ele>
        <time>2022-12-28T14:03:49Z</time>
      </trkpt>
      <trkpt lat="49.96587" lon="2.28186">
        <ele>72.5</ele>
        <time>2022-12-28T14:03:50Z</time>
      </trkpt>
      <trkpt lat="49.96587" lon="2.28186">
        <ele>72.5</ele>
        <time>2022-12-28T14:03:51Z</time>
      </trkpt>
      <trkpt lat="49.96587" lon="2.28186">
        <ele>72.5</ele>
        <time>2022-12-28T14:03:52Z</time>
      </trkpt>
      <trkpt lat="49.96587" lon="2.28186">
        <ele>72.5</ele>
        <time>2022-12-28T14:03:53Z</time>
      </trkpt>
      <trkpt lat="49.96587" lon="2.28186">
        <ele>72.5</ele>
        <time>2022-12-28T14:03:54Z</time>
      </trkpt>
      <trkpt lat="49.96587" lon="2.28186">
        <ele>72.5</ele>
        <time>2022-12-28T14:03:55Z</time>
      </trkpt>
      <trkpt lat="49.96587" lon="2.28186">
        <ele>72.5</ele>
        <time>2022-12-28T14:03:56Z</time>
      </trkpt>
      <trkpt lat="49.96587" lon="2.28186">
        <ele>72.5</ele>
        <time>2022-12-28T14:03:57Z</time>
      </trkpt>
      <trkpt lat="49.96587" lon="2.28186">
        <ele>72.5</ele>
        <time>2022-12-28T14:03:58Z</time>
      </trkpt>
      <trkpt lat="49.96587" lon="2.28186">
        <ele>72.5</ele>
        <time>2022-12-28T14:03:59Z</time>
      </trkpt>
      <trkpt lat="49.96587" lon="2.28186">
        <ele>72.5</ele>
        <time>2022-12-28T14:04:00Z</time>
      </trkpt>
      <trkpt lat="49.96587" lon="2.28186">
        <ele>72.5</ele>
        <time>2022-12-28T14:04:01Z</time>
      </trkpt>
      <trkpt lat="49.96587" lon="2.28186">
        <ele>72.5</ele>
        <time>2022-12-28T14:04:02Z</time>
      </trkpt>
      <trkpt lat="49.96587" lon="2.28186">
        <ele>72.5</ele>
        <time>2022-12-28T14:04:03Z</time>
      </trkpt>
      <trkpt lat="49.96587" lon="2.28186">
        <ele>72.5</ele>
        <time>2022-12-28T14:04:04Z</time>
      </trkpt>
      <trkpt lat="49.96587" lon="2.28186">
        <ele>72.5</ele>
        <time>2022-12-28T14:04:05Z</time>
      </trkpt>
      <trkpt lat="49.96587" lon="2.28186">
        <ele>72.5</ele>
        <time>2022-12-28T14:04:06Z</time>
      </trkpt>
      <trkpt lat="49.96587" lon="2.28186">
        <ele>72.5</ele>
        <time>2022-12-28T14:04:07Z</time>
      </trkpt>
      <trkpt lat="49.96587" lon="2.28186">
        <ele>72.5</ele>
        <time>2022-12-28T14:04:08Z</time>
      </trkpt>
      <trkpt lat="49.96587" lon="2.28186">
        <ele>72.5</ele>
        <time>2022-12-28T14:04:09Z</time>
      </trkpt>
      <trkpt lat="49.96587" lon="2.28186">
        <ele>72.5</ele>
        <time>2022-12-28T14:04:10Z</time>
      </trkpt>
      <trkpt lat="49.96587" lon="2.28186">
        <ele>72.5</ele>
        <time>2022-12-28T14:04:11Z</time>
      </trkpt>
      <trkpt lat="49.96587" lon="2.28186">
        <ele>72.5</ele>
        <time>2022-12-28T14:04:12Z</time>
      </trkpt>
      <trkpt lat="49.96587" lon="2.28186">
        <ele>72.5</ele>
        <time>2022-12-28T14:04:13Z</time>
      </trkpt>
      <trkpt lat="49.96587" lon="2.28186">
        <ele>72.5</ele>
        <time>2022-12-28T14:04:14Z</time>
      </trkpt>
      <trkpt lat="49.96587" lon="2.28186">
        <ele>72.5</ele>
        <time>2022-12-28T14:04:15Z</time>
      </trkpt>
      <trkpt lat="49.96587" lon="2.28186">
        <ele>72.5</ele>
        <time>2022-12-28T14:04:16Z</time>
      </trkpt>
      <trkpt lat="49.96587" lon="2.28186">
        <ele>72.5</ele>
        <time>2022-12-28T14:04:17Z</time>
      </trkpt>
      <trkpt lat="49.96587" lon="2.28186">
        <ele>72.5</ele>
        <time>2022-12-28T14:04:18Z</time>
      </trkpt>
      <trkpt lat="49.96587" lon="2.28186">
        <ele>72.5</ele>
        <time>2022-12-28T14:04:19Z</time>
      </trkpt>
      <trkpt lat="49.96587" lon="2.28186">
        <ele>72.5</ele>
        <time>2022-12-28T14:04:20Z</time>
      </trkpt>
      <trkpt lat="49.96587" lon="2.28186">
        <ele>72.5</ele>
        <time>2022-12-28T14:04:21Z</time>
      </trkpt>
      <trkpt lat="49.96587" lon="2.28186">
        <ele>72.5</ele>
        <time>2022-12-28T14:04:22Z</time>
      </trkpt>
      <trkpt lat="49.96587" lon="2.28186">
        <ele>72.5</ele>
        <time>2022-12-28T14:04:23Z</time>
      </trkpt>
      <trkpt lat="49.96587" lon="2.28186">
        <ele>72.5</ele>
        <time>2022-12-28T14:04:24Z</time>
      </trkpt>
      <trkpt lat="49.96587" lon="2.28186">
        <ele>72.5</ele>
        <time>2022-12-28T14:04:25Z</time>
      </trkpt>
      <trkpt lat="49.96587" lon="2.28186">
        <ele>72.5</ele>
        <time>2022-12-28T14:04:26Z</time>
      </trkpt>
      <trkpt lat="49.96587" lon="2.28186">
        <ele>72.5</ele>
        <time>2022-12-28T14:04:27Z</time>
      </trkpt>
      <trkpt lat="49.96587" lon="2.28186">
        <ele>72.5</ele>
        <time>2022-12-28T14:04:28Z</time>
      </trkpt>
      <trkpt lat="49.96587" lon="2.28186">
        <ele>72.5</ele>
        <time>2022-12-28T14:04:29Z</time>
      </trkpt>
      <trkpt lat="49.96587" lon="2.28186">
        <ele>72.5</ele>
        <time>2022-12-28T14:04:30Z</time>
      </trkpt>
      <trkpt lat="49.96587" lon="2.28186">
        <ele>72.5</ele>
        <time>2022-12-28T14:04:31Z</time>
      </trkpt>
      <trkpt lat="49.96587" lon="2.28186">
        <ele>72.5</ele>
        <time>2022-12-28T14:04:32Z</time>
      </trkpt>
      <trkpt lat="49.96587" lon="2.28186">
        <ele>72.5</ele>
        <time>2022-12-28T14:04:33Z</time>
      </trkpt>
      <trkpt lat="49.96587" lon="2.28186">
        <ele>72.5</ele>
        <time>2022-12-28T14:04:34Z</time>
      </trkpt>
      <trkpt lat="49.96587" lon="2.28186">
        <ele>72.5</ele>
        <time>2022-12-28T14:04:35Z</time>
      </trkpt>
      <trkpt lat="49.96587" lon="2.28186">
        <ele>72.5</ele>
        <time>2022-12-28T14:04:36Z</time>
      </trkpt>
      <trkpt lat="49.96587" lon="2.28186">
        <ele>72.5</ele>
        <time>2022-12-28T14:04:37Z</time>
      </trkpt>
      <trkpt lat="49.96587" lon="2.28186">
        <ele>72.5</ele>
        <time>2022-12-28T14:04:38Z</time>
      </trkpt>
      <trkpt lat="49.96587" lon="2.28186">
        <ele>72.5</ele>
        <time>2022-12-28T14:04:39Z</time>
      </trkpt>
      <trkpt lat="49.96587" lon="2.28186">
        <ele>72.5</ele>
        <time>2022-12-28T14:04:40Z</time>
      </trkpt>
      <trkpt lat="49.96587" lon="2.28186">
        <ele>72.5</ele>
        <time>2022-12-28T14:04:41Z</time>
      </trkpt>
      <trkpt lat="49.96587" lon="2.28186">
        <ele>72.5</ele>
        <time>2022-12-28T14:04:42Z</time>
      </trkpt>
      <trkpt lat="49.96587" lon="2.28186">
        <ele>72.5</ele>
        <time>2022-12-28T14:04:43Z</time>
      </trkpt>
      <trkpt lat="49.96587" lon="2.28186">
        <ele>72.5</ele>
        <time>2022-12-28T14:04:44Z</time>
      </trkpt>
      <trkpt lat="49.96587" lon="2.28186">
        <ele>72.5</ele>
        <time>2022-12-28T14:04:45Z</time>
      </trkpt>
      <trkpt lat="49.96587" lon="2.28186">
        <ele>72.5</ele>
        <time>2022-12-28T14:04:46Z</time>
      </trkpt>
      <trkpt lat="49.96587" lon="2.28186">
        <ele>72.5</ele>
        <time>2022-12-28T14:04:47Z</time>
      </trkpt>
      <trkpt lat="49.96587" lon="2.28186">
        <ele>72.5</ele>
        <time>2022-12-28T14:04:48Z</time>
      </trkpt>
      <trkpt lat="49.96587" lon="2.28186">
        <ele>72.5</ele>
        <time>2022-12-28T14:04:49Z</time>
      </trkpt>
      <trkpt lat="49.96587" lon="2.28186">
        <ele>72.5</ele>
        <time>2022-12-28T14:04:50Z</time>
      </trkpt>
      <trkpt lat="49.96587" lon="2.28186">
        <ele>72.5</ele>
        <time>2022-12-28T14:04:51Z</time>
      </trkpt>
      <trkpt lat="49.96587" lon="2.28186">
        <ele>72.5</ele>
        <time>2022-12-28T14:04:52Z</time>
      </trkpt>
      <trkpt lat="49.96587" lon="2.28186">
        <ele>72.5</ele>
        <time>2022-12-28T14:04:53Z</time>
      </trkpt>
      <trkpt lat="49.96587" lon="2.28186">
        <ele>72.5</ele>
        <time>2022-12-28T14:04:54Z</time>
      </trkpt>
      <trkpt lat="49.96587" lon="2.28186">
        <ele>72.5</ele>
        <time>2022-12-28T14:04:55Z</time>
      </trkpt>
      <trkpt lat="49.96587" lon="2.28186">
        <ele>72.5</ele>
        <time>2022-12-28T14:04:56Z</time>
      </trkpt>
      <trkpt lat="49.96587" lon="2.28186">
        <ele>72.5</ele>
        <time>2022-12-28T14:04:57Z</time>
      </trkpt>
      <trkpt lat="49.96587" lon="2.28186">
        <ele>72.5</ele>
        <time>2022-12-28T14:04:58Z</time>
      </trkpt>
      <trkpt lat="49.96587" lon="2.28186">
        <ele>72.5</ele>
        <time>2022-12-28T14:04:59Z</time>
      </trkpt>
      <trkpt lat="49.96587" lon="2.28186">
        <ele>72.5</ele>
        <time>2022-12-28T14:05:00Z</time>
      </trkpt>
      <trkpt lat="49.96587" lon="2.28186">
        <ele>72.5</ele>
        <time>2022-12-28T14:05:01Z</time>
      </trkpt>
      <trkpt lat="49.96587" lon="2.28186">
        <ele>72.5</ele>
        <time>2022-12-28T14:05:02Z</time>
      </trkpt>
      <trkpt lat="49.96587" lon="2.28186">
        <ele>72.5</ele>
        <time>2022-12-28T14:05:03Z</time>
      </trkpt>
      <trkpt lat="49.96587" lon="2.28186">
        <ele>72.5</ele>
        <time>2022-12-28T14:05:04Z</time>
      </trkpt>
      <trkpt lat="49.96587" lon="2.28186">
        <ele>72.5</ele>
        <time>2022-12-28T14:05:05Z</time>
      </trkpt>
      <trkpt lat="49.96587" lon="2.28186">
        <ele>72.5</ele>
        <time>2022-12-28T14:05:06Z</time>
      </trkpt>
      <trkpt lat="49.96587" lon="2.28186">
        <ele>72.5</ele>
        <time>2022-12-28T14:05:07Z</time>
      </trkpt>
      <trkpt lat="49.96587" lon="2.28186">
        <ele>72.5</ele>
        <time>2022-12-28T14:05:08Z</time>
      </trkpt>
      <trkpt lat="49.96587" lon="2.28186">
        <ele>72.5</ele>
        <time>2022-12-28T14:05:09Z</time>
      </trkpt>
      <trkpt lat="49.96587" lon="2.28186">
        <ele>72.5</ele>
        <time>2022-12-28T14:05:10Z</time>
      </trkpt>
      <trkpt lat="49.96587" lon="2.28186">
        <ele>72.5</ele>
        <time>2022-12-28T14:05:11Z</time>
      </trkpt>
      <trkpt lat="49.96587" lon="2.28186">
        <ele>72.5</ele>
        <time>2022-12-28T14:05:12Z</time>
      </trkpt>
      <trkpt lat="49.96587" lon="2.28186">
        <ele>72.5</ele>
        <time>2022-12-28T14:05:13Z</time>
      </trkpt>
      <trkpt lat="49.96587" lon="2.28186">
        <ele>72.5</ele>
        <time>2022-12-28T14:05:14Z</time>
      </trkpt>
      <trkpt lat="49.96587" lon="2.28186">
        <ele>72.5</ele>
        <time>2022-12-28T14:05:15Z</time>
      </trkpt>
      <trkpt lat="49.96587" lon="2.28186">
        <ele>72.5</ele>
        <time>2022-12-28T14:05:16Z</time>
      </trkpt>
      <trkpt lat="49.96587" lon="2.28186">
        <ele>72.5</ele>
        <time>2022-12-28T14:05:17Z</time>
      </trkpt>
      <trkpt lat="49.96587" lon="2.28186">
        <ele>72.5</ele>
        <time>2022-12-28T14:05:18Z</time>
      </trkpt>
      <trkpt lat="49.96587" lon="2.28186">
        <ele>72.5</ele>
        <time>2022-12-28T14:05:19Z</time>
      </trkpt>
      <trkpt lat="49.96587" lon="2.28186">
        <ele>72.5</ele>
        <time>2022-12-28T14:05:20Z</time>
      </trkpt>
      <trkpt lat="49.96587" lon="2.28186">
        <ele>72.5</ele>
        <time>2022-12-28T14:05:21Z</time>
      </trkpt>
      <trkpt lat="49.96587" lon="2.28186">
        <ele>72.5</ele>
        <time>2022-12-28T14:05:22Z</time>
      </trkpt>
      <trkpt lat="49.96587" lon="2.28186">
        <ele>72.5</ele>
        <time>2022-12-28T14:05:23Z</time>
      </trkpt>
      <trkpt lat="49.96587" lon="2.28186">
        <ele>72.5</ele>
        <time>2022-12-28T14:05:24Z</time>
      </trkpt>
      <trkpt lat="49.96587" lon="2.28186">
        <ele>72.5</ele>
        <time>2022-12-28T14:05:25Z</time>
      </trkpt>
      <trkpt lat="49.96587" lon="2.28186">
        <ele>72.5</ele>
        <time>2022-12-28T14:05:26Z</time>
      </trkpt>
      <trkpt lat="49.96587" lon="2.28186">
        <ele>72.5</ele>
        <time>2022-12-28T14:05:27Z</time>
      </trkpt>
      <trkpt lat="49.96587" lon="2.28186">
        <ele>72.5</ele>
        <time>2022-12-28T14:05:28Z</time>
      </trkpt>
      <trkpt lat="49.96587" lon="2.28186">
        <ele>72.5</ele>
        <time>2022-12-28T14:05:29Z</time>
      </trkpt>
      <trkpt lat="49.96587" lon="2.28186">
        <ele>72.5</ele>
        <time>2022-12-28T14:05:30Z</time>
      </trkpt>
      <trkpt lat="49.96587" lon="2.28186">
        <ele>72.5</ele>
        <time>2022-12-28T14:05:31Z</time>
      </trkpt>
      <trkpt lat="49.96587" lon="2.28186">
        <ele>72.5</ele>
        <time>2022-12-28T14:05:32Z</time>
      </trkpt>
      <trkpt lat="49.96587" lon="2.28186">
        <ele>72.5</ele>
        <time>2022-12-28T14:05:33Z</time>
      </trkpt>
      <trkpt lat="49.96587" lon="2.28186">
        <ele>72.5</ele>
        <time>2022-12-28T14:05:34Z</time>
      </trkpt>
      <trkpt lat="49.96587" lon="2.28186">
        <ele>72.5</ele>
        <time>2022-12-28T14:05:35Z</time>
      </trkpt>
      <trkpt lat="49.96587" lon="2.28186">
        <ele>72.5</ele>
        <time>2022-12-28T14:05:36Z</time>
      </trkpt>
      <trkpt lat="49.96587" lon="2.28186">
        <ele>72.5</ele>
        <time>2022-12-28T14:05:37Z</time>
      </trkpt>
      <trkpt lat="49.96587" lon="2.28186">
        <ele>72.5</ele>
        <time>2022-12-28T14:05:38Z</time>
      </trkpt>
      <trkpt lat="49.96587" lon="2.28186">
        <ele>72.5</ele>
        <time>2022-12-28T14:05:39Z</time>
      </trkpt>
      <trkpt lat="49.96587" lon="2.28186">
        <ele>72.5</ele>
        <time>2022-12-28T14:05:40Z</time>
      </trkpt>
      <trkpt lat="49.96587" lon="2.28186">
        <ele>72.5</ele>
        <time>2022-12-28T14:05:41Z</time>
      </trkpt>
      <trkpt lat="49.96587" lon="2.28186">
        <ele>72.5</ele>
        <time>2022-12-28T14:05:42Z</time>
      </trkpt>
      <trkpt lat="49.96587" lon="2.28186">
        <ele>72.5</ele>
        <time>2022-12-28T14:05:43Z</time>
      </trkpt>
      <trkpt lat="49.96587" lon="2.28186">
        <ele>72.5</ele>
        <time>2022-12-28T14:05:44Z</time>
      </trkpt>
      <trkpt lat="49.96587" lon="2.28186">
        <ele>72.5</ele>
        <time>2022-12-28T14:05:45Z</time>
      </trkpt>
      <trkpt lat="49.96588" lon="2.28186">
        <ele>72.5</ele>
        <time>2022-12-28T14:05:46Z</time>
      </trkpt>
      <trkpt lat="49.96589" lon="2.28186">
        <ele>72.5</ele>
        <time>2022-12-28T14:05:47Z</time>
      </trkpt>
      <trkpt lat="49.9659" lon="2.28187">
        <ele>72.6</ele>
        <time>2022-12-28T14:05:48Z</time>
      </trkpt>
      <trkpt lat="49.9659" lon="2.28188">
        <ele>72.6</ele>
        <time>2022-12-28T14:05:49Z</time>
      </trkpt>
      <trkpt lat="49.9659" lon="2.28189">
        <ele>72.6</ele>
        <time>2022-12-28T14:05:50Z</time>
      </trkpt>
      <trkpt lat="49.9659" lon="2.2819">
        <ele>72.6</ele>
        <time>2022-12-28T14:05:51Z</time>
      </trkpt>
      <trkpt lat="49.9659" lon="2.28191">
        <ele>72.7</ele>
        <time>2022-12-28T14:05:52Z</time>
      </trkpt>
      <trkpt lat="49.9659" lon="2.28192">
        <ele>72.7</ele>
        <time>2022-12-28T14:05:53Z</time>
      </trkpt>
      <trkpt lat="49.96591" lon="2.28194">
        <ele>72.7</ele>
        <time>2022-12-28T14:05:54Z</time>
      </trkpt>
      <trkpt lat="49.96591" lon="2.28195">
        <ele>72.7</ele>
        <time>2022-12-28T14:05:55Z</time>
      </trkpt>
      <trkpt lat="49.96591" lon="2.28196">
        <ele>72.8</ele>
        <time>2022-12-28T14:05:56Z</time>
      </trkpt>
      <trkpt lat="49.96592" lon="2.28198">
        <ele>72.8</ele>
        <time>2022-12-28T14:05:57Z</time>
      </trkpt>
      <trkpt lat="49.96592" lon="2.28199">
        <ele>72.8</ele>
        <time>2022-12-28T14:05:58Z</time>
      </trkpt>
      <trkpt lat="49.96592" lon="2.28201">
        <ele>72.9</ele>
        <time>2022-12-28T14:05:59Z</time>
      </trkpt>
      <trkpt lat="49.96592" lon="2.28202">
        <ele>72.9</ele>
        <time>2022-12-28T14:06:00Z</time>
      </trkpt>
      <trkpt lat="49.96592" lon="2.28203">
        <ele>72.9</ele>
        <time>2022-12-28T14:06:01Z</time>
      </trkpt>
      <trkpt lat="49.96592" lon="2.28204">
        <ele>72.9</ele>
        <time>2022-12-28T14:06:02Z</time>
      </trkpt>
      <trkpt lat="49.96593" lon="2.28205">
        <ele>72.9</ele>
        <time>2022-12-28T14:06:03Z</time>
      </trkpt>
      <trkpt lat="49.96593" lon="2.28206">
        <ele>73</ele>
        <time>2022-12-28T14:06:04Z</time>
      </trkpt>
      <trkpt lat="49.96593" lon="2.28207">
        <ele>73</ele>
        <time>2022-12-28T14:06:05Z</time>
      </trkpt>
      <trkpt lat="49.96593" lon="2.28208">
        <ele>73</ele>
        <time>2022-12-28T14:06:06Z</time>
      </trkpt>
      <trkpt lat="49.96593" lon="2.28209">
        <ele>73</ele>
        <time>2022-12-28T14:06:07Z</time>
      </trkpt>
      <trkpt lat="49.96592" lon="2.28211">
        <ele>73.1</ele>
        <time>2022-12-28T14:06:08Z</time>
      </trkpt>
      <trkpt lat="49.96592" lon="2.28212">
        <ele>73.1</ele>
        <time>2022-12-28T14:06:09Z</time>
      </trkpt>
      <trkpt lat="49.96592" lon="2.28215">
        <ele>73.1</ele>
        <time>2022-12-28T14:06:10Z</time>
      </trkpt>
      <trkpt lat="49.96592" lon="2.28216">
        <ele>73.2</ele>
        <time>2022-12-28T14:06:11Z</time>
      </trkpt>
      <trkpt lat="49.96592" lon="2.28217">
        <ele>73.2</ele>
        <time>2022-12-28T14:06:12Z</time>
      </trkpt>
      <trkpt lat="49.96591" lon="2.2822">
        <ele>73.2</ele>
        <time>2022-12-28T14:06:13Z</time>
      </trkpt>
      <trkpt lat="49.96591" lon="2.28221">
        <ele>73.3</ele>
        <time>2022-12-28T14:06:14Z</time>
      </trkpt>
      <trkpt lat="49.9659" lon="2.28223">
        <ele>73.3</ele>
        <time>2022-12-28T14:06:15Z</time>
      </trkpt>
      <trkpt lat="49.96589" lon="2.28225">
        <ele>73.3</ele>
        <time>2022-12-28T14:06:16Z</time>
      </trkpt>
      <trkpt lat="49.96588" lon="2.28226">
        <ele>73.3</ele>
        <time>2022-12-28T14:06:18Z</time>
      </trkpt>
      <trkpt lat="49.96588" lon="2.28228">
        <ele>73.4</ele>
        <time>2022-12-28T14:06:19Z</time>
      </trkpt>
      <trkpt lat="49.96586" lon="2.28229">
        <ele>73.4</ele>
        <time>2022-12-28T14:06:20Z</time>
      </trkpt>
      <trkpt lat="49.96585" lon="2.28231">
        <ele>73.4</ele>
        <time>2022-12-28T14:06:21Z</time>
      </trkpt>
      <trkpt lat="49.96584" lon="2.28232">
        <ele>73.4</ele>
        <time>2022-12-28T14:06:22Z</time>
      </trkpt>
      <trkpt lat="49.96583" lon="2.28233">
        <ele>73.5</ele>
        <time>2022-12-28T14:06:23Z</time>
      </trkpt>
      <trkpt lat="49.96582" lon="2.28235">
        <ele>73.5</ele>
        <time>2022-12-28T14:06:25Z</time>
      </trkpt>
      <trkpt lat="49.96581" lon="2.28235">
        <ele>73.5</ele>
        <time>2022-12-28T14:06:26Z</time>
      </trkpt>
      <trkpt lat="49.9658" lon="2.28236">
        <ele>73.5</ele>
        <time>2022-12-28T14:06:27Z</time>
      </trkpt>
      <trkpt lat="49.96578" lon="2.28236">
        <ele>73.5</ele>
        <time>2022-12-28T14:06:28Z</time>
      </trkpt>
      <trkpt lat="49.96577" lon="2.28237">
        <ele>73.6</ele>
        <time>2022-12-28T14:06:29Z</time>
      </trkpt>
      <trkpt lat="49.96576" lon="2.28239">
        <ele>73.6</ele>
        <time>2022-12-28T14:06:30Z</time>
      </trkpt>
      <trkpt lat="49.96575" lon="2.2824">
        <ele>73.6</ele>
        <time>2022-12-28T14:06:31Z</time>
      </trkpt>
      <trkpt lat="49.96574" lon="2.28241">
        <ele>73.6</ele>
        <time>2022-12-28T14:06:33Z</time>
      </trkpt>
      <trkpt lat="49.96573" lon="2.28242">
        <ele>73.7</ele>
        <time>2022-12-28T14:06:34Z</time>
      </trkpt>
      <trkpt lat="49.96572" lon="2.28243">
        <ele>73.7</ele>
        <time>2022-12-28T14:06:35Z</time>
      </trkpt>
      <trkpt lat="49.96571" lon="2.28244">
        <ele>73.7</ele>
        <time>2022-12-28T14:06:36Z</time>
      </trkpt>
      <trkpt lat="49.96569" lon="2.28246">
        <ele>73.7</ele>
        <time>2022-12-28T14:06:37Z</time>
      </trkpt>
      <trkpt lat="49.96568" lon="2.28247">
        <ele>73.7</ele>
        <time>2022-12-28T14:06:38Z</time>
      </trkpt>
      <trkpt lat="49.96567" lon="2.28248">
        <ele>73.8</ele>
        <time>2022-12-28T14:06:39Z</time>
      </trkpt>
      <trkpt lat="49.96567" lon="2.28249">
        <ele>73.8</ele>
        <time>2022-12-28T14:06:41Z</time>
      </trkpt>
      <trkpt lat="49.96566" lon="2.2825">
        <ele>73.8</ele>
        <time>2022-12-28T14:06:42Z</time>
      </trkpt>
      <trkpt lat="49.96565" lon="2.28251">
        <ele>73.8</ele>
        <time>2022-12-28T14:06:43Z</time>
      </trkpt>
      <trkpt lat="49.96564" lon="2.28252">
        <ele>73.8</ele>
        <time>2022-12-28T14:06:44Z</time>
      </trkpt>
      <trkpt lat="49.96562" lon="2.28254">
        <ele>73.8</ele>
        <time>2022-12-28T14:06:45Z</time>
      </trkpt>
      <trkpt lat="49.96561" lon="2.28255">
        <ele>73.9</ele>
        <time>2022-12-28T14:06:46Z</time>
      </trkpt>
      <trkpt lat="49.9656" lon="2.28256">
        <ele>73.9</ele>
        <time>2022-12-28T14:06:48Z</time>
      </trkpt>
      <trkpt lat="49.9656" lon="2.28257">
        <ele>73.9</ele>
        <time>2022-12-28T14:06:49Z</time>
      </trkpt>
      <trkpt lat="49.96558" lon="2.28258">
        <ele>73.9</ele>
        <time>2022-12-28T14:06:50Z</time>
      </trkpt>
      <trkpt lat="49.96558" lon="2.28258">
        <ele>73.9</ele>
        <time>2022-12-28T14:06:51Z</time>
      </trkpt>
      <trkpt lat="49.96557" lon="2.28259">
        <ele>73.9</ele>
        <time>2022-12-28T14:06:52Z</time>
      </trkpt>
      <trkpt lat="49.96556" lon="2.2826">
        <ele>74</ele>
        <time>2022-12-28T14:06:53Z</time>
      </trkpt>
      <trkpt lat="49.96554" lon="2.2826">
        <ele>74</ele>
        <time>2022-12-28T14:06:54Z</time>
      </trkpt>
      <trkpt lat="49.96554" lon="2.2826">
        <ele>74</ele>
        <time>2022-12-28T14:06:56Z</time>
      </trkpt>
      <trkpt lat="49.96553" lon="2.2826">
        <ele>74</ele>
        <time>2022-12-28T14:06:57Z</time>
      </trkpt>
      <trkpt lat="49.96552" lon="2.28259">
        <ele>74</ele>
        <time>2022-12-28T14:06:58Z</time>
      </trkpt>
      <trkpt lat="49.96551" lon="2.28259">
        <ele>74</ele>
        <time>2022-12-28T14:06:59Z</time>
      </trkpt>
      <trkpt lat="49.9655" lon="2.28259">
        <ele>74.1</ele>
        <time>2022-12-28T14:07:00Z</time>
      </trkpt>
      <trkpt lat="49.96549" lon="2.28259">
        <ele>74.1</ele>
        <time>2022-12-28T14:07:01Z</time>
      </trkpt>
      <trkpt lat="49.96547" lon="2.28259">
        <ele>74.1</ele>
        <time>2022-12-28T14:07:02Z</time>
      </trkpt>
      <trkpt lat="49.96546" lon="2.2826">
        <ele>74.1</ele>
        <time>2022-12-28T14:07:04Z</time>
      </trkpt>
      <trkpt lat="49.96545" lon="2.2826">
        <ele>74.1</ele>
        <time>2022-12-28T14:07:05Z</time>
      </trkpt>
      <trkpt lat="49.96544" lon="2.28261">
        <ele>74.1</ele>
        <time>2022-12-28T14:07:06Z</time>
      </trkpt>
      <trkpt lat="49.96543" lon="2.28261">
        <ele>74.2</ele>
        <time>2022-12-28T14:07:07Z</time>
      </trkpt>
      <trkpt lat="49.96542" lon="2.28262">
        <ele>74.2</ele>
        <time>2022-12-28T14:07:08Z</time>
      </trkpt>
      <trkpt lat="49.96541" lon="2.28263">
        <ele>74.2</ele>
        <time>2022-12-28T14:07:09Z</time>
      </trkpt>
      <trkpt lat="49.96539" lon="2.28264">
        <ele>74.2</ele>
        <time>2022-12-28T14:07:11Z</time>
      </trkpt>
      <trkpt lat="49.96538" lon="2.28265">
        <ele>74.2</ele>
        <time>2022-12-28T14:07:12Z</time>
      </trkpt>
      <trkpt lat="49.96537" lon="2.28265">
        <ele>74.3</ele>
        <time>2022-12-28T14:07:13Z</time>
      </trkpt>
      <trkpt lat="49.96536" lon="2.28266">
        <ele>74.3</ele>
        <time>2022-12-28T14:07:14Z</time>
      </trkpt>
      <trkpt lat="49.96535" lon="2.28267">
        <ele>74.3</ele>
        <time>2022-12-28T14:07:15Z</time>
      </trkpt>
      <trkpt lat="49.96534" lon="2.28268">
        <ele>74.3</ele>
        <time>2022-12-28T14:07:16Z</time>
      </trkpt>
      <trkpt lat="49.96532" lon="2.28269">
        <ele>74.4</ele>
        <time>2022-12-28T14:07:18Z</time>
      </trkpt>
      <trkpt lat="49.96531" lon="2.28269">
        <ele>74.4</ele>
        <time>2022-12-28T14:07:19Z</time>
      </trkpt>
      <trkpt lat="49.9653" lon="2.2827">
        <ele>74.4</ele>
        <time>2022-12-28T14:07:20Z</time>
      </trkpt>
      <trkpt lat="49.96529" lon="2.2827">
        <ele>74.5</ele>
        <time>2022-12-28T14:07:21Z</time>
      </trkpt>
      <trkpt lat="49.96528" lon="2.28271">
        <ele>74.5</ele>
        <time>2022-12-28T14:07:22Z</time>
      </trkpt>
      <trkpt lat="49.96527" lon="2.28271">
        <ele>74.5</ele>
        <time>2022-12-28T14:07:23Z</time>
      </trkpt>
      <trkpt lat="49.96526" lon="2.28272">
        <ele>74.5</ele>
        <time>2022-12-28T14:07:25Z</time>
      </trkpt>
      <trkpt lat="49.96525" lon="2.28273">
        <ele>74.6</ele>
        <time>2022-12-28T14:07:26Z</time>
      </trkpt>
      <trkpt lat="49.96524" lon="2.28273">
        <ele>74.6</ele>
        <time>2022-12-28T14:07:27Z</time>
      </trkpt>
      <trkpt lat="49.96523" lon="2.28274">
        <ele>74.6</ele>
        <time>2022-12-28T14:07:28Z</time>
      </trkpt>
      <trkpt lat="49.96522" lon="2.28274">
        <ele>74.6</ele>
        <time>2022-12-28T14:07:29Z</time>
      </trkpt>
      <trkpt lat="49.96521" lon="2.28275">
        <ele>74.7</ele>
        <time>2022-12-28T14:07:30Z</time>
      </trkpt>
      <trkpt lat="49.9652" lon="2.28276">
        <ele>74.7</ele>
        <time>2022-12-28T14:07:32Z</time>
      </trkpt>
      <trkpt lat="49.96519" lon="2.28276">
        <ele>74.7</ele>
        <time>2022-12-28T14:07:33Z</time>
      </trkpt>
      <trkpt lat="49.96518" lon="2.28277">
        <ele>74.7</ele>
        <time>2022-12-28T14:07:34Z</time>
      </trkpt>
      <trkpt lat="49.96516" lon="2.28278">
        <ele>74.8</ele>
        <time>2022-12-28T14:07:35Z</time>
      </trkpt>
      <trkpt lat="49.96516" lon="2.28278">
        <ele>74.8</ele>
        <time>2022-12-28T14:07:36Z</time>
      </trkpt>
      <trkpt lat="49.96515" lon="2.28279">
        <ele>74.8</ele>
        <time>2022-12-28T14:07:37Z</time>
      </trkpt>
      <trkpt lat="49.96513" lon="2.28279">
        <ele>74.8</ele>
        <time>2022-12-28T14:07:39Z</time>
      </trkpt>
      <trkpt lat="49.96513" lon="2.28279">
        <ele>74.8</ele>
        <time>2022-12-28T14:07:40Z</time>
      </trkpt>
      <trkpt lat="49.96511" lon="2.2828">
        <ele>74.8</ele>
        <time>2022-12-28T14:07:41Z</time>
      </trkpt>
      <trkpt lat="49.9651" lon="2.2828">
        <ele>74.8</ele>
        <time>2022-12-28T14:07:42Z</time>
      </trkpt>
      <trkpt lat="49.96509" lon="2.28281">
        <ele>74.8</ele>
        <time>2022-12-28T14:07:43Z</time>
      </trkpt>
      <trkpt lat="49.96508" lon="2.28281">
        <ele>74.9</ele>
        <time>2022-12-28T14:07:45Z</time>
      </trkpt>
      <trkpt lat="49.96506" lon="2.28282">
        <ele>74.9</ele>
        <time>2022-12-28T14:07:46Z</time>
      </trkpt>
      <trkpt lat="49.96505" lon="2.28283">
        <ele>74.9</ele>
        <time>2022-12-28T14:07:47Z</time>
      </trkpt>
      <trkpt lat="49.96503" lon="2.28284">
        <ele>74.9</ele>
        <time>2022-12-28T14:07:48Z</time>
      </trkpt>
      <trkpt lat="49.96502" lon="2.28284">
        <ele>74.9</ele>
        <time>2022-12-28T14:07:49Z</time>
      </trkpt>
      <trkpt lat="49.965" lon="2.28285">
        <ele>74.9</ele>
        <time>2022-12-28T14:07:50Z</time>
      </trkpt>
      <trkpt lat="49.96499" lon="2.28285">
        <ele>75</ele>
        <time>2022-12-28T14:07:52Z</time>
      </trkpt>
      <trkpt lat="49.96498" lon="2.28286">
        <ele>75</ele>
        <time>2022-12-28T14:07:53Z</time>
      </trkpt>
      <trkpt lat="49.96497" lon="2.28288">
        <ele>75</ele>
        <time>2022-12-28T14:07:54Z</time>
      </trkpt>
      <trkpt lat="49.96495" lon="2.28289">
        <ele>75</ele>
        <time>2022-12-28T14:07:55Z</time>
      </trkpt>
      <trkpt lat="49.96494" lon="2.2829">
        <ele>75</ele>
        <time>2022-12-28T14:07:56Z</time>
      </trkpt>
      <trkpt lat="49.96492" lon="2.2829">
        <ele>75</ele>
        <time>2022-12-28T14:07:57Z</time>
      </trkpt>
      <trkpt lat="49.96491" lon="2.28291">
        <ele>75</ele>
        <time>2022-12-28T14:07:59Z</time>
      </trkpt>
      <trkpt lat="49.9649" lon="2.28291">
        <ele>75</ele>
        <time>2022-12-28T14:08:00Z</time>
      </trkpt>
      <trkpt lat="49.96488" lon="2.28292">
        <ele>75.1</ele>
        <time>2022-12-28T14:08:01Z</time>
      </trkpt>
      <trkpt lat="49.96486" lon="2.28293">
        <ele>75.1</ele>
        <time>2022-12-28T14:08:02Z</time>
      </trkpt>
      <trkpt lat="49.96485" lon="2.28294">
        <ele>75.1</ele>
        <time>2022-12-28T14:08:03Z</time>
      </trkpt>
      <trkpt lat="49.96484" lon="2.28294">
        <ele>75.1</ele>
        <time>2022-12-28T14:08:04Z</time>
      </trkpt>
      <trkpt lat="49.96483" lon="2.28295">
        <ele>75.1</ele>
        <time>2022-12-28T14:08:06Z</time>
      </trkpt>
      <trkpt lat="49.96481" lon="2.28296">
        <ele>75.1</ele>
        <time>2022-12-28T14:08:07Z</time>
      </trkpt>
      <trkpt lat="49.96479" lon="2.28298">
        <ele>75.1</ele>
        <time>2022-12-28T14:08:08Z</time>
      </trkpt>
      <trkpt lat="49.96478" lon="2.28298">
        <ele>75.2</ele>
        <time>2022-12-28T14:08:09Z</time>
      </trkpt>
      <trkpt lat="49.96477" lon="2.28299">
        <ele>75.2</ele>
        <time>2022-12-28T14:08:10Z</time>
      </trkpt>
      <trkpt lat="49.96475" lon="2.283">
        <ele>75.2</ele>
        <time>2022-12-28T14:08:11Z</time>
      </trkpt>
      <trkpt lat="49.96475" lon="2.28301">
        <ele>75.2</ele>
        <time>2022-12-28T14:08:13Z</time>
      </trkpt>
      <trkpt lat="49.96474" lon="2.28302">
        <ele>75.2</ele>
        <time>2022-12-28T14:08:14Z</time>
      </trkpt>
      <trkpt lat="49.96472" lon="2.28303">
        <ele>75.2</ele>
        <time>2022-12-28T14:08:15Z</time>
      </trkpt>
      <trkpt lat="49.96471" lon="2.28304">
        <ele>75.2</ele>
        <time>2022-12-28T14:08:16Z</time>
      </trkpt>
      <trkpt lat="49.9647" lon="2.28305">
        <ele>75.2</ele>
        <time>2022-12-28T14:08:17Z</time>
      </trkpt>
      <trkpt lat="49.96469" lon="2.28305">
        <ele>75.2</ele>
        <time>2022-12-28T14:08:18Z</time>
      </trkpt>
      <trkpt lat="49.96467" lon="2.28306">
        <ele>75.2</ele>
        <time>2022-12-28T14:08:20Z</time>
      </trkpt>
      <trkpt lat="49.96466" lon="2.28307">
        <ele>75.2</ele>
        <time>2022-12-28T14:08:21Z</time>
      </trkpt>
      <trkpt lat="49.96464" lon="2.28309">
        <ele>75.2</ele>
        <time>2022-12-28T14:08:22Z</time>
      </trkpt>
      <trkpt lat="49.96463" lon="2.28309">
        <ele>75.2</ele>
        <time>2022-12-28T14:08:23Z</time>
      </trkpt>
      <trkpt lat="49.96463" lon="2.2831">
        <ele>75.2</ele>
        <time>2022-12-28T14:08:24Z</time>
      </trkpt>
      <trkpt lat="49.96461" lon="2.28311">
        <ele>75.2</ele>
        <time>2022-12-28T14:08:26Z</time>
      </trkpt>
      <trkpt lat="49.9646" lon="2.28312">
        <ele>75.2</ele>
        <time>2022-12-28T14:08:27Z</time>
      </trkpt>
      <trkpt lat="49.96459" lon="2.28314">
        <ele>75.2</ele>
        <time>2022-12-28T14:08:28Z</time>
      </trkpt>
      <trkpt lat="49.96458" lon="2.28315">
        <ele>75.2</ele>
        <time>2022-12-28T14:08:29Z</time>
      </trkpt>
      <trkpt lat="49.96457" lon="2.28316">
        <ele>75.2</ele>
        <time>2022-12-28T14:08:30Z</time>
      </trkpt>
      <trkpt lat="49.96456" lon="2.28317">
        <ele>75.2</ele>
        <time>2022-12-28T14:08:31Z</time>
      </trkpt>
      <trkpt lat="49.96455" lon="2.28318">
        <ele>75.2</ele>
        <time>2022-12-28T14:08:32Z</time>
      </trkpt>
      <trkpt lat="49.96454" lon="2.28319">
        <ele>75.2</ele>
        <time>2022-12-28T14:08:34Z</time>
      </trkpt>
      <trkpt lat="49.96453" lon="2.2832">
        <ele>75.2</ele>
        <time>2022-12-28T14:08:35Z</time>
      </trkpt>
      <trkpt lat="49.96452" lon="2.28321">
        <ele>75.2</ele>
        <time>2022-12-28T14:08:36Z</time>
      </trkpt>
      <trkpt lat="49.9645" lon="2.28323">
        <ele>75.2</ele>
        <time>2022-12-28T14:08:37Z</time>
      </trkpt>
      <trkpt lat="49.96449" lon="2.28323">
        <ele>75.2</ele>
        <time>2022-12-28T14:08:38Z</time>
      </trkpt>
      <trkpt lat="49.96449" lon="2.28324">
        <ele>75.1</ele>
        <time>2022-12-28T14:08:39Z</time>
      </trkpt>
      <trkpt lat="49.96447" lon="2.28326">
        <ele>75.1</ele>
        <time>2022-12-28T14:08:40Z</time>
      </trkpt>
      <trkpt lat="49.96446" lon="2.28327">
        <ele>75.1</ele>
        <time>2022-12-28T14:08:42Z</time>
      </trkpt>
      <trkpt lat="49.96446" lon="2.28328">
        <ele>75.1</ele>
        <time>2022-12-28T14:08:43Z</time>
      </trkpt>
      <trkpt lat="49.96444" lon="2.28329">
        <ele>75.1</ele>
        <time>2022-12-28T14:08:44Z</time>
      </trkpt>
      <trkpt lat="49.96443" lon="2.2833">
        <ele>75.1</ele>
        <time>2022-12-28T14:08:45Z</time>
      </trkpt>
      <trkpt lat="49.96443" lon="2.28331">
        <ele>75.1</ele>
        <time>2022-12-28T14:08:46Z</time>
      </trkpt>
      <trkpt lat="49.96442" lon="2.28331">
        <ele>75.1</ele>
        <time>2022-12-28T14:08:47Z</time>
      </trkpt>
      <trkpt lat="49.96441" lon="2.28332">
        <ele>75.1</ele>
        <time>2022-12-28T14:08:48Z</time>
      </trkpt>
      <trkpt lat="49.9644" lon="2.28332">
        <ele>75.1</ele>
        <time>2022-12-28T14:08:49Z</time>
      </trkpt>
      <trkpt lat="49.96438" lon="2.28333">
        <ele>75.1</ele>
        <time>2022-12-28T14:08:51Z</time>
      </trkpt>
      <trkpt lat="49.96437" lon="2.28333">
        <ele>75.1</ele>
        <time>2022-12-28T14:08:52Z</time>
      </trkpt>
      <trkpt lat="49.96436" lon="2.28334">
        <ele>75.1</ele>
        <time>2022-12-28T14:08:53Z</time>
      </trkpt>
      <trkpt lat="49.96435" lon="2.28335">
        <ele>75</ele>
        <time>2022-12-28T14:08:54Z</time>
      </trkpt>
      <trkpt lat="49.96434" lon="2.28336">
        <ele>75</ele>
        <time>2022-12-28T14:08:55Z</time>
      </trkpt>
      <trkpt lat="49.96433" lon="2.28336">
        <ele>75</ele>
        <time>2022-12-28T14:08:56Z</time>
      </trkpt>
      <trkpt lat="49.96432" lon="2.28337">
        <ele>75</ele>
        <time>2022-12-28T14:08:57Z</time>
      </trkpt>
      <trkpt lat="49.96431" lon="2.28338">
        <ele>75</ele>
        <time>2022-12-28T14:08:58Z</time>
      </trkpt>
      <trkpt lat="49.9643" lon="2.28339">
        <ele>75</ele>
        <time>2022-12-28T14:08:59Z</time>
      </trkpt>
      <trkpt lat="49.96428" lon="2.28341">
        <ele>75</ele>
        <time>2022-12-28T14:09:01Z</time>
      </trkpt>
      <trkpt lat="49.96428" lon="2.28341">
        <ele>75</ele>
        <time>2022-12-28T14:09:02Z</time>
      </trkpt>
      <trkpt lat="49.96427" lon="2.28342">
        <ele>75</ele>
        <time>2022-12-28T14:09:03Z</time>
      </trkpt>
      <trkpt lat="49.96425" lon="2.28343">
        <ele>75</ele>
        <time>2022-12-28T14:09:04Z</time>
      </trkpt>
      <trkpt lat="49.96425" lon="2.28343">
        <ele>75</ele>
        <time>2022-12-28T14:09:05Z</time>
      </trkpt>
      <trkpt lat="49.96424" lon="2.28344">
        <ele>75</ele>
        <time>2022-12-28T14:09:06Z</time>
      </trkpt>
      <trkpt lat="49.96422" lon="2.28345">
        <ele>75</ele>
        <time>2022-12-28T14:09:07Z</time>
      </trkpt>
      <trkpt lat="49.96421" lon="2.28346">
        <ele>75</ele>
        <time>2022-12-28T14:09:09Z</time>
      </trkpt>
      <trkpt lat="49.9642" lon="2.28346">
        <ele>75</ele>
        <time>2022-12-28T14:09:10Z</time>
      </trkpt>
      <trkpt lat="49.96418" lon="2.28347">
        <ele>75</ele>
        <time>2022-12-28T14:09:11Z</time>
      </trkpt>
      <trkpt lat="49.96417" lon="2.28347">
        <ele>75</ele>
        <time>2022-12-28T14:09:12Z</time>
      </trkpt>
      <trkpt lat="49.96416" lon="2.28348">
        <ele>74.9</ele>
        <time>2022-12-28T14:09:13Z</time>
      </trkpt>
      <trkpt lat="49.96415" lon="2.28348">
        <ele>74.9</ele>
        <time>2022-12-28T14:09:14Z</time>
      </trkpt>
      <trkpt lat="49.96412" lon="2.2835">
        <ele>74.9</ele>
        <time>2022-12-28T14:09:15Z</time>
      </trkpt>
      <trkpt lat="49.96411" lon="2.28351">
        <ele>74.9</ele>
        <time>2022-12-28T14:09:17Z</time>
      </trkpt>
      <trkpt lat="49.9641" lon="2.28351">
        <ele>74.9</ele>
        <time>2022-12-28T14:09:18Z</time>
      </trkpt>
      <trkpt lat="49.96409" lon="2.28352">
        <ele>74.9</ele>
        <time>2022-12-28T14:09:19Z</time>
      </trkpt>
      <trkpt lat="49.96408" lon="2.28353">
        <ele>74.9</ele>
        <time>2022-12-28T14:09:20Z</time>
      </trkpt>
      <trkpt lat="49.96406" lon="2.28354">
        <ele>74.9</ele>
        <time>2022-12-28T14:09:21Z</time>
      </trkpt>
      <trkpt lat="49.96405" lon="2.28354">
        <ele>74.9</ele>
        <time>2022-12-28T14:09:23Z</time>
      </trkpt>
      <trkpt lat="49.96404" lon="2.28355">
        <ele>74.9</ele>
        <time>2022-12-28T14:09:24Z</time>
      </trkpt>
      <trkpt lat="49.96402" lon="2.28357">
        <ele>74.9</ele>
        <time>2022-12-28T14:09:25Z</time>
      </trkpt>
      <trkpt lat="49.96401" lon="2.28358">
        <ele>74.9</ele>
        <time>2022-12-28T14:09:26Z</time>
      </trkpt>
      <trkpt lat="49.964" lon="2.28359">
        <ele>74.9</ele>
        <time>2022-12-28T14:09:27Z</time>
      </trkpt>
      <trkpt lat="49.96398" lon="2.2836">
        <ele>74.9</ele>
        <time>2022-12-28T14:09:28Z</time>
      </trkpt>
      <trkpt lat="49.96397" lon="2.2836">
        <ele>74.9</ele>
        <time>2022-12-28T14:09:29Z</time>
      </trkpt>
      <trkpt lat="49.96395" lon="2.28361">
        <ele>74.9</ele>
        <time>2022-12-28T14:09:30Z</time>
      </trkpt>
      <trkpt lat="49.96394" lon="2.28362">
        <ele>74.9</ele>
        <time>2022-12-28T14:09:32Z</time>
      </trkpt>
      <trkpt lat="49.96393" lon="2.28362">
        <ele>74.9</ele>
        <time>2022-12-28T14:09:33Z</time>
      </trkpt>
      <trkpt lat="49.96392" lon="2.28363">
        <ele>74.9</ele>
        <time>2022-12-28T14:09:34Z</time>
      </trkpt>
      <trkpt lat="49.96391" lon="2.28364">
        <ele>74.9</ele>
        <time>2022-12-28T14:09:35Z</time>
      </trkpt>
      <trkpt lat="49.9639" lon="2.28365">
        <ele>74.9</ele>
        <time>2022-12-28T14:09:36Z</time>
      </trkpt>
      <trkpt lat="49.96389" lon="2.28366">
        <ele>74.9</ele>
        <time>2022-12-28T14:09:37Z</time>
      </trkpt>
      <trkpt lat="49.96388" lon="2.28366">
        <ele>74.9</ele>
        <time>2022-12-28T14:09:38Z</time>
      </trkpt>
      <trkpt lat="49.96387" lon="2.28367">
        <ele>74.9</ele>
        <time>2022-12-28T14:09:39Z</time>
      </trkpt>
      <trkpt lat="49.96384" lon="2.28368">
        <ele>74.9</ele>
        <time>2022-12-28T14:09:41Z</time>
      </trkpt>
      <trkpt lat="49.96384" lon="2.28368">
        <ele>74.9</ele>
        <time>2022-12-28T14:09:42Z</time>
      </trkpt>
      <trkpt lat="49.96383" lon="2.28369">
        <ele>74.9</ele>
        <time>2022-12-28T14:09:43Z</time>
      </trkpt>
      <trkpt lat="49.96382" lon="2.28369">
        <ele>74.9</ele>
        <time>2022-12-28T14:09:44Z</time>
      </trkpt>
      <trkpt lat="49.96381" lon="2.2837">
        <ele>74.9</ele>
        <time>2022-12-28T14:09:45Z</time>
      </trkpt>
      <trkpt lat="49.9638" lon="2.28371">
        <ele>74.9</ele>
        <time>2022-12-28T14:09:47Z</time>
      </trkpt>
      <trkpt lat="49.96379" lon="2.28371">
        <ele>74.9</ele>
        <time>2022-12-28T14:09:48Z</time>
      </trkpt>
      <trkpt lat="49.96377" lon="2.28373">
        <ele>74.9</ele>
        <time>2022-12-28T14:09:49Z</time>
      </trkpt>
      <trkpt lat="49.96376" lon="2.28373">
        <ele>74.9</ele>
        <time>2022-12-28T14:09:50Z</time>
      </trkpt>
      <trkpt lat="49.96375" lon="2.28374">
        <ele>74.9</ele>
        <time>2022-12-28T14:09:51Z</time>
      </trkpt>
      <trkpt lat="49.96375" lon="2.28375">
        <ele>74.9</ele>
        <time>2022-12-28T14:09:52Z</time>
      </trkpt>
      <trkpt lat="49.96374" lon="2.28375">
        <ele>74.9</ele>
        <time>2022-12-28T14:09:53Z</time>
      </trkpt>
      <trkpt lat="49.96373" lon="2.28376">
        <ele>74.9</ele>
        <time>2022-12-28T14:09:54Z</time>
      </trkpt>
      <trkpt lat="49.96372" lon="2.28377">
        <ele>74.9</ele>
        <time>2022-12-28T14:09:56Z</time>
      </trkpt>
      <trkpt lat="49.96371" lon="2.28378">
        <ele>74.9</ele>
        <time>2022-12-28T14:09:57Z</time>
      </trkpt>
      <trkpt lat="49.9637" lon="2.28378">
        <ele>74.9</ele>
        <time>2022-12-28T14:09:58Z</time>
      </trkpt>
      <trkpt lat="49.96369" lon="2.28379">
        <ele>74.9</ele>
        <time>2022-12-28T14:09:59Z</time>
      </trkpt>
      <trkpt lat="49.96369" lon="2.28379">
        <ele>74.9</ele>
        <time>2022-12-28T14:10:00Z</time>
      </trkpt>
      <trkpt lat="49.96369" lon="2.28379">
        <ele>74.9</ele>
        <time>2022-12-28T14:10:01Z</time>
      </trkpt>
      <trkpt lat="49.96369" lon="2.2838">
        <ele>74.9</ele>
        <time>2022-12-28T14:10:02Z</time>
      </trkpt>
      <trkpt lat="49.96368" lon="2.2838">
        <ele>74.9</ele>
        <time>2022-12-28T14:10:04Z</time>
      </trkpt>
      <trkpt lat="49.96367" lon="2.28381">
        <ele>74.9</ele>
        <time>2022-12-28T14:10:05Z</time>
      </trkpt>
      <trkpt lat="49.96366" lon="2.28381">
        <ele>74.9</ele>
        <time>2022-12-28T14:10:06Z</time>
      </trkpt>
      <trkpt lat="49.96366" lon="2.28382">
        <ele>74.9</ele>
        <time>2022-12-28T14:10:07Z</time>
      </trkpt>
      <trkpt lat="49.96365" lon="2.28382">
        <ele>74.9</ele>
        <time>2022-12-28T14:10:08Z</time>
      </trkpt>
      <trkpt lat="49.96363" lon="2.28382">
        <ele>74.9</ele>
        <time>2022-12-28T14:10:09Z</time>
      </trkpt>
      <trkpt lat="49.96362" lon="2.28382">
        <ele>74.9</ele>
        <time>2022-12-28T14:10:10Z</time>
      </trkpt>
      <trkpt lat="49.96361" lon="2.28382">
        <ele>74.9</ele>
        <time>2022-12-28T14:10:11Z</time>
      </trkpt>
      <trkpt lat="49.9636" lon="2.28383">
        <ele>74.9</ele>
        <time>2022-12-28T14:10:13Z</time>
      </trkpt>
      <trkpt lat="49.96359" lon="2.28383">
        <ele>74.9</ele>
        <time>2022-12-28T14:10:14Z</time>
      </trkpt>
      <trkpt lat="49.96358" lon="2.28383">
        <ele>74.9</ele>
        <time>2022-12-28T14:10:15Z</time>
      </trkpt>
      <trkpt lat="49.96357" lon="2.28383">
        <ele>74.9</ele>
        <time>2022-12-28T14:10:16Z</time>
      </trkpt>
      <trkpt lat="49.96356" lon="2.28383">
        <ele>74.9</ele>
        <time>2022-12-28T14:10:17Z</time>
      </trkpt>
      <trkpt lat="49.96355" lon="2.28383">
        <ele>74.9</ele>
        <time>2022-12-28T14:10:18Z</time>
      </trkpt>
      <trkpt lat="49.96354" lon="2.28383">
        <ele>74.9</ele>
        <time>2022-12-28T14:10:19Z</time>
      </trkpt>
      <trkpt lat="49.96351" lon="2.28384">
        <ele>74.9</ele>
        <time>2022-12-28T14:10:20Z</time>
      </trkpt>
      <trkpt lat="49.9635" lon="2.28385">
        <ele>75</ele>
        <time>2022-12-28T14:10:22Z</time>
      </trkpt>
      <trkpt lat="49.96349" lon="2.28385">
        <ele>75</ele>
        <time>2022-12-28T14:10:23Z</time>
      </trkpt>
      <trkpt lat="49.96348" lon="2.28386">
        <ele>75</ele>
        <time>2022-12-28T14:10:24Z</time>
      </trkpt>
      <trkpt lat="49.96347" lon="2.28386">
        <ele>75</ele>
        <time>2022-12-28T14:10:25Z</time>
      </trkpt>
      <trkpt lat="49.96345" lon="2.28388">
        <ele>75</ele>
        <time>2022-12-28T14:10:26Z</time>
      </trkpt>
      <trkpt lat="49.96344" lon="2.28389">
        <ele>75</ele>
        <time>2022-12-28T14:10:27Z</time>
      </trkpt>
      <trkpt lat="49.96342" lon="2.2839">
        <ele>75</ele>
        <time>2022-12-28T14:10:28Z</time>
      </trkpt>
      <trkpt lat="49.96341" lon="2.28391">
        <ele>75</ele>
        <time>2022-12-28T14:10:29Z</time>
      </trkpt>
      <trkpt lat="49.96339" lon="2.28394">
        <ele>75</ele>
        <time>2022-12-28T14:10:31Z</time>
      </trkpt>
      <trkpt lat="49.96338" lon="2.28395">
        <ele>75</ele>
        <time>2022-12-28T14:10:32Z</time>
      </trkpt>
      <trkpt lat="49.96337" lon="2.28396">
        <ele>75</ele>
        <time>2022-12-28T14:10:33Z</time>
      </trkpt>
      <trkpt lat="49.96335" lon="2.28397">
        <ele>75</ele>
        <time>2022-12-28T14:10:34Z</time>
      </trkpt>
      <trkpt lat="49.96334" lon="2.28398">
        <ele>75</ele>
        <time>2022-12-28T14:10:35Z</time>
      </trkpt>
      <trkpt lat="49.96332" lon="2.28402">
        <ele>75</ele>
        <time>2022-12-28T14:10:36Z</time>
      </trkpt>
      <trkpt lat="49.96331" lon="2.28403">
        <ele>75</ele>
        <time>2022-12-28T14:10:37Z</time>
      </trkpt>
      <trkpt lat="49.9633" lon="2.28405">
        <ele>75</ele>
        <time>2022-12-28T14:10:39Z</time>
      </trkpt>
      <trkpt lat="49.96328" lon="2.28406">
        <ele>75</ele>
        <time>2022-12-28T14:10:40Z</time>
      </trkpt>
      <trkpt lat="49.96327" lon="2.28407">
        <ele>75</ele>
        <time>2022-12-28T14:10:41Z</time>
      </trkpt>
      <trkpt lat="49.96326" lon="2.28409">
        <ele>75</ele>
        <time>2022-12-28T14:10:42Z</time>
      </trkpt>
      <trkpt lat="49.96324" lon="2.2841">
        <ele>75</ele>
        <time>2022-12-28T14:10:43Z</time>
      </trkpt>
      <trkpt lat="49.96323" lon="2.28411">
        <ele>75</ele>
        <time>2022-12-28T14:10:44Z</time>
      </trkpt>
      <trkpt lat="49.96322" lon="2.28411">
        <ele>75</ele>
        <time>2022-12-28T14:10:45Z</time>
      </trkpt>
      <trkpt lat="49.96321" lon="2.28412">
        <ele>75</ele>
        <time>2022-12-28T14:10:46Z</time>
      </trkpt>
      <trkpt lat="49.9632" lon="2.28414">
        <ele>75</ele>
        <time>2022-12-28T14:10:48Z</time>
      </trkpt>
      <trkpt lat="49.96319" lon="2.28415">
        <ele>75</ele>
        <time>2022-12-28T14:10:49Z</time>
      </trkpt>
      <trkpt lat="49.96318" lon="2.28416">
        <ele>75</ele>
        <time>2022-12-28T14:10:50Z</time>
      </trkpt>
      <trkpt lat="49.96317" lon="2.28417">
        <ele>75</ele>
        <time>2022-12-28T14:10:51Z</time>
      </trkpt>
      <trkpt lat="49.96316" lon="2.28419">
        <ele>75</ele>
        <time>2022-12-28T14:10:52Z</time>
      </trkpt>
      <trkpt lat="49.96315" lon="2.28419">
        <ele>75</ele>
        <time>2022-12-28T14:10:53Z</time>
      </trkpt>
      <trkpt lat="49.96314" lon="2.28419">
        <ele>75</ele>
        <time>2022-12-28T14:10:54Z</time>
      </trkpt>
      <trkpt lat="49.96312" lon="2.2842">
        <ele>75</ele>
        <time>2022-12-28T14:10:56Z</time>
      </trkpt>
      <trkpt lat="49.96311" lon="2.2842">
        <ele>75</ele>
        <time>2022-12-28T14:10:57Z</time>
      </trkpt>
      <trkpt lat="49.9631" lon="2.2842">
        <ele>75</ele>
        <time>2022-12-28T14:10:58Z</time>
      </trkpt>
      <trkpt lat="49.96309" lon="2.2842">
        <ele>75</ele>
        <time>2022-12-28T14:10:59Z</time>
      </trkpt>
      <trkpt lat="49.96308" lon="2.28421">
        <ele>75</ele>
        <time>2022-12-28T14:11:00Z</time>
      </trkpt>
      <trkpt lat="49.96307" lon="2.28421">
        <ele>75</ele>
        <time>2022-12-28T14:11:01Z</time>
      </trkpt>
      <trkpt lat="49.96306" lon="2.28422">
        <ele>75</ele>
        <time>2022-12-28T14:11:03Z</time>
      </trkpt>
      <trkpt lat="49.96305" lon="2.28422">
        <ele>75</ele>
        <time>2022-12-28T14:11:04Z</time>
      </trkpt>
      <trkpt lat="49.96304" lon="2.28423">
        <ele>75</ele>
        <time>2022-12-28T14:11:05Z</time>
      </trkpt>
      <trkpt lat="49.96303" lon="2.28423">
        <ele>75</ele>
        <time>2022-12-28T14:11:06Z</time>
      </trkpt>
      <trkpt lat="49.96301" lon="2.28423">
        <ele>75</ele>
        <time>2022-12-28T14:11:07Z</time>
      </trkpt>
      <trkpt lat="49.963" lon="2.28425">
        <ele>75</ele>
        <time>2022-12-28T14:11:08Z</time>
      </trkpt>
      <trkpt lat="49.96299" lon="2.28425">
        <ele>75</ele>
        <time>2022-12-28T14:11:09Z</time>
      </trkpt>
      <trkpt lat="49.96298" lon="2.28426">
        <ele>75</ele>
        <time>2022-12-28T14:11:11Z</time>
      </trkpt>
      <trkpt lat="49.96297" lon="2.28427">
        <ele>75</ele>
        <time>2022-12-28T14:11:12Z</time>
      </trkpt>
      <trkpt lat="49.96296" lon="2.28427">
        <ele>75</ele>
        <time>2022-12-28T14:11:13Z</time>
      </trkpt>
      <trkpt lat="49.96295" lon="2.28428">
        <ele>75</ele>
        <time>2022-12-28T14:11:14Z</time>
      </trkpt>
      <trkpt lat="49.96293" lon="2.2843">
        <ele>75</ele>
        <time>2022-12-28T14:11:15Z</time>
      </trkpt>
      <trkpt lat="49.96293" lon="2.2843">
        <ele>75</ele>
        <time>2022-12-28T14:11:16Z</time>
      </trkpt>
      <trkpt lat="49.96292" lon="2.28431">
        <ele>75</ele>
        <time>2022-12-28T14:11:17Z</time>
      </trkpt>
      <trkpt lat="49.96291" lon="2.28432">
        <ele>75</ele>
        <time>2022-12-28T14:11:18Z</time>
      </trkpt>
      <trkpt lat="49.9629" lon="2.28433">
        <ele>75</ele>
        <time>2022-12-28T14:11:20Z</time>
      </trkpt>
      <trkpt lat="49.96289" lon="2.28433">
        <ele>75</ele>
        <time>2022-12-28T14:11:21Z</time>
      </trkpt>
      <trkpt lat="49.96287" lon="2.28434">
        <ele>75</ele>
        <time>2022-12-28T14:11:22Z</time>
      </trkpt>
      <trkpt lat="49.96286" lon="2.28435">
        <ele>75</ele>
        <time>2022-12-28T14:11:23Z</time>
      </trkpt>
      <trkpt lat="49.96285" lon="2.28436">
        <ele>75</ele>
        <time>2022-12-28T14:11:24Z</time>
      </trkpt>
      <trkpt lat="49.96284" lon="2.28436">
        <ele>75</ele>
        <time>2022-12-28T14:11:25Z</time>
      </trkpt>
      <trkpt lat="49.96283" lon="2.28437">
        <ele>75</ele>
        <time>2022-12-28T14:11:26Z</time>
      </trkpt>
      <trkpt lat="49.96282" lon="2.28438">
        <ele>75</ele>
        <time>2022-12-28T14:11:27Z</time>
      </trkpt>
      <trkpt lat="49.96282" lon="2.28439">
        <ele>75</ele>
        <time>2022-12-28T14:11:28Z</time>
      </trkpt>
      <trkpt lat="49.96281" lon="2.28439">
        <ele>75</ele>
        <time>2022-12-28T14:11:30Z</time>
      </trkpt>
      <trkpt lat="49.9628" lon="2.2844">
        <ele>75</ele>
        <time>2022-12-28T14:11:31Z</time>
      </trkpt>
      <trkpt lat="49.96279" lon="2.2844">
        <ele>75</ele>
        <time>2022-12-28T14:11:32Z</time>
      </trkpt>
      <trkpt lat="49.96278" lon="2.28441">
        <ele>75</ele>
        <time>2022-12-28T14:11:33Z</time>
      </trkpt>
      <trkpt lat="49.96277" lon="2.28442">
        <ele>74.9</ele>
        <time>2022-12-28T14:11:34Z</time>
      </trkpt>
      <trkpt lat="49.96275" lon="2.28442">
        <ele>74.9</ele>
        <time>2022-12-28T14:11:35Z</time>
      </trkpt>
      <trkpt lat="49.96274" lon="2.28442">
        <ele>74.9</ele>
        <time>2022-12-28T14:11:36Z</time>
      </trkpt>
      <trkpt lat="49.96271" lon="2.28442">
        <ele>74.9</ele>
        <time>2022-12-28T14:11:37Z</time>
      </trkpt>
      <trkpt lat="49.9627" lon="2.28442">
        <ele>74.9</ele>
        <time>2022-12-28T14:11:39Z</time>
      </trkpt>
      <trkpt lat="49.96269" lon="2.28442">
        <ele>74.9</ele>
        <time>2022-12-28T14:11:40Z</time>
      </trkpt>
      <trkpt lat="49.96268" lon="2.28442">
        <ele>74.9</ele>
        <time>2022-12-28T14:11:41Z</time>
      </trkpt>
      <trkpt lat="49.96267" lon="2.28442">
        <ele>74.9</ele>
        <time>2022-12-28T14:11:42Z</time>
      </trkpt>
      <trkpt lat="49.96264" lon="2.28443">
        <ele>74.9</ele>
        <time>2022-12-28T14:11:43Z</time>
      </trkpt>
      <trkpt lat="49.96263" lon="2.28443">
        <ele>74.9</ele>
        <time>2022-12-28T14:11:44Z</time>
      </trkpt>
      <trkpt lat="49.96262" lon="2.28443">
        <ele>74.9</ele>
        <time>2022-12-28T14:11:45Z</time>
      </trkpt>
      <trkpt lat="49.9626" lon="2.28443">
        <ele>74.9</ele>
        <time>2022-12-28T14:11:46Z</time>
      </trkpt>
      <trkpt lat="49.96258" lon="2.28443">
        <ele>74.9</ele>
        <time>2022-12-28T14:11:48Z</time>
      </trkpt>
      <trkpt lat="49.96257" lon="2.28444">
        <ele>74.9</ele>
        <time>2022-12-28T14:11:49Z</time>
      </trkpt>
      <trkpt lat="49.96256" lon="2.28446">
        <ele>74.9</ele>
        <time>2022-12-28T14:11:50Z</time>
      </trkpt>
      <trkpt lat="49.96255" lon="2.28446">
        <ele>74.9</ele>
        <time>2022-12-28T14:11:51Z</time>
      </trkpt>
      <trkpt lat="49.96254" lon="2.28447">
        <ele>74.9</ele>
        <time>2022-12-28T14:11:52Z</time>
      </trkpt>
      <trkpt lat="49.96252" lon="2.28448">
        <ele>74.9</ele>
        <time>2022-12-28T14:11:53Z</time>
      </trkpt>
      <trkpt lat="49.96251" lon="2.28449">
        <ele>74.9</ele>
        <time>2022-12-28T14:11:54Z</time>
      </trkpt>
      <trkpt lat="49.9625" lon="2.2845">
        <ele>74.9</ele>
        <time>2022-12-28T14:11:55Z</time>
      </trkpt>
      <trkpt lat="49.96249" lon="2.28451">
        <ele>74.9</ele>
        <time>2022-12-28T14:11:56Z</time>
      </trkpt>
      <trkpt lat="49.96247" lon="2.28452">
        <ele>74.9</ele>
        <time>2022-12-28T14:11:58Z</time>
      </trkpt>
      <trkpt lat="49.96246" lon="2.28453">
        <ele>74.9</ele>
        <time>2022-12-28T14:11:59Z</time>
      </trkpt>
      <trkpt lat="49.96246" lon="2.28453">
        <ele>74.9</ele>
        <time>2022-12-28T14:12:00Z</time>
      </trkpt>
      <trkpt lat="49.96245" lon="2.28454">
        <ele>74.9</ele>
        <time>2022-12-28T14:12:01Z</time>
      </trkpt>
      <trkpt lat="49.96246" lon="2.28455">
        <ele>74.9</ele>
        <time>2022-12-28T14:12:02Z</time>
      </trkpt>
      <trkpt lat="49.96245" lon="2.28456">
        <ele>74.9</ele>
        <time>2022-12-28T14:12:03Z</time>
      </trkpt>
      <trkpt lat="49.96244" lon="2.28457">
        <ele>74.9</ele>
        <time>2022-12-28T14:12:04Z</time>
      </trkpt>
      <trkpt lat="49.96244" lon="2.28458">
        <ele>74.9</ele>
        <time>2022-12-28T14:12:05Z</time>
      </trkpt>
      <trkpt lat="49.96243" lon="2.28459">
        <ele>74.9</ele>
        <time>2022-12-28T14:12:07Z</time>
      </trkpt>
      <trkpt lat="49.96243" lon="2.2846">
        <ele>74.9</ele>
        <time>2022-12-28T14:12:08Z</time>
      </trkpt>
      <trkpt lat="49.96241" lon="2.28461">
        <ele>74.9</ele>
        <time>2022-12-28T14:12:09Z</time>
      </trkpt>
      <trkpt lat="49.9624" lon="2.28462">
        <ele>74.9</ele>
        <time>2022-12-28T14:12:10Z</time>
      </trkpt>
      <trkpt lat="49.9624" lon="2.28463">
        <ele>74.9</ele>
        <time>2022-12-28T14:12:11Z</time>
      </trkpt>
      <trkpt lat="49.96239" lon="2.28464">
        <ele>74.9</ele>
        <time>2022-12-28T14:12:12Z</time>
      </trkpt>
      <trkpt lat="49.96238" lon="2.28465">
        <ele>74.9</ele>
        <time>2022-12-28T14:12:13Z</time>
      </trkpt>
      <trkpt lat="49.96238" lon="2.28466">
        <ele>74.9</ele>
        <time>2022-12-28T14:12:14Z</time>
      </trkpt>
      <trkpt lat="49.96236" lon="2.28466">
        <ele>74.9</ele>
        <time>2022-12-28T14:12:15Z</time>
      </trkpt>
      <trkpt lat="49.96235" lon="2.28467">
        <ele>74.9</ele>
        <time>2022-12-28T14:12:17Z</time>
      </trkpt>
      <trkpt lat="49.96234" lon="2.28468">
        <ele>74.9</ele>
        <time>2022-12-28T14:12:18Z</time>
      </trkpt>
      <trkpt lat="49.96233" lon="2.28468">
        <ele>74.9</ele>
        <time>2022-12-28T14:12:19Z</time>
      </trkpt>
      <trkpt lat="49.96231" lon="2.28469">
        <ele>74.9</ele>
        <time>2022-12-28T14:12:20Z</time>
      </trkpt>
      <trkpt lat="49.9623" lon="2.28469">
        <ele>74.9</ele>
        <time>2022-12-28T14:12:21Z</time>
      </trkpt>
      <trkpt lat="49.9623" lon="2.28469">
        <ele>74.9</ele>
        <time>2022-12-28T14:12:22Z</time>
      </trkpt>
      <trkpt lat="49.96229" lon="2.28469">
        <ele>74.9</ele>
        <time>2022-12-28T14:12:23Z</time>
      </trkpt>
      <trkpt lat="49.96227" lon="2.28469">
        <ele>74.9</ele>
        <time>2022-12-28T14:12:24Z</time>
      </trkpt>
      <trkpt lat="49.96227" lon="2.2847">
        <ele>74.9</ele>
        <time>2022-12-28T14:12:25Z</time>
      </trkpt>
      <trkpt lat="49.96226" lon="2.2847">
        <ele>74.9</ele>
        <time>2022-12-28T14:12:27Z</time>
      </trkpt>
      <trkpt lat="49.96225" lon="2.2847">
        <ele>74.9</ele>
        <time>2022-12-28T14:12:28Z</time>
      </trkpt>
      <trkpt lat="49.96224" lon="2.28471">
        <ele>74.9</ele>
        <time>2022-12-28T14:12:29Z</time>
      </trkpt>
      <trkpt lat="49.96224" lon="2.28471">
        <ele>74.9</ele>
        <time>2022-12-28T14:12:30Z</time>
      </trkpt>
      <trkpt lat="49.96223" lon="2.28472">
        <ele>74.9</ele>
        <time>2022-12-28T14:12:31Z</time>
      </trkpt>
      <trkpt lat="49.96222" lon="2.28472">
        <ele>74.8</ele>
        <time>2022-12-28T14:12:32Z</time>
      </trkpt>
      <trkpt lat="49.96222" lon="2.28473">
        <ele>74.8</ele>
        <time>2022-12-28T14:12:33Z</time>
      </trkpt>
      <trkpt lat="49.96221" lon="2.28474">
        <ele>74.8</ele>
        <time>2022-12-28T14:12:34Z</time>
      </trkpt>
      <trkpt lat="49.9622" lon="2.28475">
        <ele>74.8</ele>
        <time>2022-12-28T14:12:35Z</time>
      </trkpt>
      <trkpt lat="49.96219" lon="2.28475">
        <ele>74.8</ele>
        <time>2022-12-28T14:12:37Z</time>
      </trkpt>
      <trkpt lat="49.96218" lon="2.28476">
        <ele>74.8</ele>
        <time>2022-12-28T14:12:38Z</time>
      </trkpt>
      <trkpt lat="49.96217" lon="2.28477">
        <ele>74.8</ele>
        <time>2022-12-28T14:12:39Z</time>
      </trkpt>
      <trkpt lat="49.96216" lon="2.28477">
        <ele>74.8</ele>
        <time>2022-12-28T14:12:40Z</time>
      </trkpt>
      <trkpt lat="49.96215" lon="2.28478">
        <ele>74.8</ele>
        <time>2022-12-28T14:12:41Z</time>
      </trkpt>
      <trkpt lat="49.96213" lon="2.28478">
        <ele>74.8</ele>
        <time>2022-12-28T14:12:43Z</time>
      </trkpt>
      <trkpt lat="49.96212" lon="2.28478">
        <ele>74.8</ele>
        <time>2022-12-28T14:12:44Z</time>
      </trkpt>
      <trkpt lat="49.96212" lon="2.28479">
        <ele>74.8</ele>
        <time>2022-12-28T14:12:45Z</time>
      </trkpt>
      <trkpt lat="49.96211" lon="2.2848">
        <ele>74.8</ele>
        <time>2022-12-28T14:12:46Z</time>
      </trkpt>
      <trkpt lat="49.9621" lon="2.2848">
        <ele>74.8</ele>
        <time>2022-12-28T14:12:47Z</time>
      </trkpt>
      <trkpt lat="49.96209" lon="2.28481">
        <ele>74.7</ele>
        <time>2022-12-28T14:12:48Z</time>
      </trkpt>
      <trkpt lat="49.96208" lon="2.28482">
        <ele>74.7</ele>
        <time>2022-12-28T14:12:49Z</time>
      </trkpt>
      <trkpt lat="49.96207" lon="2.28483">
        <ele>74.7</ele>
        <time>2022-12-28T14:12:50Z</time>
      </trkpt>
      <trkpt lat="49.96206" lon="2.28484">
        <ele>74.7</ele>
        <time>2022-12-28T14:12:51Z</time>
      </trkpt>
      <trkpt lat="49.96204" lon="2.28485">
        <ele>74.7</ele>
        <time>2022-12-28T14:12:52Z</time>
      </trkpt>
      <trkpt lat="49.96203" lon="2.28485">
        <ele>74.7</ele>
        <time>2022-12-28T14:12:54Z</time>
      </trkpt>
      <trkpt lat="49.96202" lon="2.28486">
        <ele>74.7</ele>
        <time>2022-12-28T14:12:55Z</time>
      </trkpt>
      <trkpt lat="49.962" lon="2.28487">
        <ele>74.7</ele>
        <time>2022-12-28T14:12:56Z</time>
      </trkpt>
      <trkpt lat="49.96199" lon="2.28487">
        <ele>74.7</ele>
        <time>2022-12-28T14:12:57Z</time>
      </trkpt>
      <trkpt lat="49.96198" lon="2.28487">
        <ele>74.7</ele>
        <time>2022-12-28T14:12:58Z</time>
      </trkpt>
      <trkpt lat="49.96196" lon="2.28488">
        <ele>74.6</ele>
        <time>2022-12-28T14:12:59Z</time>
      </trkpt>
      <trkpt lat="49.96195" lon="2.28489">
        <ele>74.6</ele>
        <time>2022-12-28T14:13:00Z</time>
      </trkpt>
      <trkpt lat="49.96194" lon="2.28489">
        <ele>74.6</ele>
        <time>2022-12-28T14:13:01Z</time>
      </trkpt>
      <trkpt lat="49.96191" lon="2.2849">
        <ele>74.6</ele>
        <time>2022-12-28T14:13:02Z</time>
      </trkpt>
      <trkpt lat="49.96191" lon="2.28491">
        <ele>74.6</ele>
        <time>2022-12-28T14:13:03Z</time>
      </trkpt>
      <trkpt lat="49.96189" lon="2.28491">
        <ele>74.6</ele>
        <time>2022-12-28T14:13:05Z</time>
      </trkpt>
      <trkpt lat="49.96188" lon="2.28492">
        <ele>74.6</ele>
        <time>2022-12-28T14:13:06Z</time>
      </trkpt>
      <trkpt lat="49.96185" lon="2.28494">
        <ele>74.5</ele>
        <time>2022-12-28T14:13:07Z</time>
      </trkpt>
      <trkpt lat="49.96184" lon="2.28494">
        <ele>74.5</ele>
        <time>2022-12-28T14:13:08Z</time>
      </trkpt>
      <trkpt lat="49.96182" lon="2.28496">
        <ele>74.5</ele>
        <time>2022-12-28T14:13:09Z</time>
      </trkpt>
      <trkpt lat="49.96181" lon="2.28496">
        <ele>74.5</ele>
        <time>2022-12-28T14:13:10Z</time>
      </trkpt>
      <trkpt lat="49.9618" lon="2.28496">
        <ele>74.5</ele>
        <time>2022-12-28T14:13:11Z</time>
      </trkpt>
      <trkpt lat="49.96178" lon="2.28497">
        <ele>74.5</ele>
        <time>2022-12-28T14:13:12Z</time>
      </trkpt>
      <trkpt lat="49.96177" lon="2.28498">
        <ele>74.5</ele>
        <time>2022-12-28T14:13:13Z</time>
      </trkpt>
      <trkpt lat="49.96176" lon="2.28498">
        <ele>74.4</ele>
        <time>2022-12-28T14:13:15Z</time>
      </trkpt>
      <trkpt lat="49.96174" lon="2.285">
        <ele>74.4</ele>
        <time>2022-12-28T14:13:16Z</time>
      </trkpt>
      <trkpt lat="49.96172" lon="2.28502">
        <ele>74.4</ele>
        <time>2022-12-28T14:13:17Z</time>
      </trkpt>
      <trkpt lat="49.96171" lon="2.28503">
        <ele>74.4</ele>
        <time>2022-12-28T14:13:18Z</time>
      </trkpt>
      <trkpt lat="49.96169" lon="2.28504">
        <ele>74.4</ele>
        <time>2022-12-28T14:13:19Z</time>
      </trkpt>
      <trkpt lat="49.96168" lon="2.28504">
        <ele>74.4</ele>
        <time>2022-12-28T14:13:20Z</time>
      </trkpt>
      <trkpt lat="49.96167" lon="2.28505">
        <ele>74.4</ele>
        <time>2022-12-28T14:13:21Z</time>
      </trkpt>
      <trkpt lat="49.96165" lon="2.28506">
        <ele>74.4</ele>
        <time>2022-12-28T14:13:23Z</time>
      </trkpt>
      <trkpt lat="49.96164" lon="2.28506">
        <ele>74.4</ele>
        <time>2022-12-28T14:13:24Z</time>
      </trkpt>
      <trkpt lat="49.96162" lon="2.28507">
        <ele>74.4</ele>
        <time>2022-12-28T14:13:25Z</time>
      </trkpt>
      <trkpt lat="49.96161" lon="2.28508">
        <ele>74.4</ele>
        <time>2022-12-28T14:13:26Z</time>
      </trkpt>
      <trkpt lat="49.9616" lon="2.28508">
        <ele>74.4</ele>
        <time>2022-12-28T14:13:27Z</time>
      </trkpt>
      <trkpt lat="49.96158" lon="2.28509">
        <ele>74.3</ele>
        <time>2022-12-28T14:13:28Z</time>
      </trkpt>
      <trkpt lat="49.96157" lon="2.28509">
        <ele>74.3</ele>
        <time>2022-12-28T14:13:29Z</time>
      </trkpt>
      <trkpt lat="49.96156" lon="2.28509">
        <ele>74.3</ele>
        <time>2022-12-28T14:13:30Z</time>
      </trkpt>
      <trkpt lat="49.96155" lon="2.2851">
        <ele>74.3</ele>
        <time>2022-12-28T14:13:32Z</time>
      </trkpt>
      <trkpt lat="49.96154" lon="2.28511">
        <ele>74.3</ele>
        <time>2022-12-28T14:13:33Z</time>
      </trkpt>
      <trkpt lat="49.96152" lon="2.28511">
        <ele>74.3</ele>
        <time>2022-12-28T14:13:34Z</time>
      </trkpt>
      <trkpt lat="49.96151" lon="2.28511">
        <ele>74.3</ele>
        <time>2022-12-28T14:13:35Z</time>
      </trkpt>
      <trkpt lat="49.9615" lon="2.28512">
        <ele>74.3</ele>
        <time>2022-12-28T14:13:36Z</time>
      </trkpt>
      <trkpt lat="49.96148" lon="2.28513">
        <ele>74.3</ele>
        <time>2022-12-28T14:13:38Z</time>
      </trkpt>
      <trkpt lat="49.96147" lon="2.28514">
        <ele>74.3</ele>
        <time>2022-12-28T14:13:39Z</time>
      </trkpt>
      <trkpt lat="49.96145" lon="2.28515">
        <ele>74.2</ele>
        <time>2022-12-28T14:13:40Z</time>
      </trkpt>
      <trkpt lat="49.96145" lon="2.28516">
        <ele>74.2</ele>
        <time>2022-12-28T14:13:41Z</time>
      </trkpt>
      <trkpt lat="49.96144" lon="2.28516">
        <ele>74.2</ele>
        <time>2022-12-28T14:13:42Z</time>
      </trkpt>
      <trkpt lat="49.96143" lon="2.28517">
        <ele>74.2</ele>
        <time>2022-12-28T14:13:44Z</time>
      </trkpt>
      <trkpt lat="49.96142" lon="2.2852">
        <ele>74.2</ele>
        <time>2022-12-28T14:13:46Z</time>
      </trkpt>
      <trkpt lat="49.96142" lon="2.28522">
        <ele>74.2</ele>
        <time>2022-12-28T14:13:47Z</time>
      </trkpt>
      <trkpt lat="49.96143" lon="2.28523">
        <ele>74.2</ele>
        <time>2022-12-28T14:13:48Z</time>
      </trkpt>
      <trkpt lat="49.96142" lon="2.28523">
        <ele>74.2</ele>
        <time>2022-12-28T14:13:50Z</time>
      </trkpt>
      <trkpt lat="49.96142" lon="2.28522">
        <ele>74.2</ele>
        <time>2022-12-28T14:13:51Z</time>
      </trkpt>
      <trkpt lat="49.96141" lon="2.28521">
        <ele>74.2</ele>
        <time>2022-12-28T14:13:53Z</time>
      </trkpt>
      <trkpt lat="49.96141" lon="2.28519">
        <ele>74.2</ele>
        <time>2022-12-28T14:13:54Z</time>
      </trkpt>
      <trkpt lat="49.9614" lon="2.28517">
        <ele>74.2</ele>
        <time>2022-12-28T14:13:56Z</time>
      </trkpt>
      <trkpt lat="49.9614" lon="2.28516">
        <ele>74.2</ele>
        <time>2022-12-28T14:13:57Z</time>
      </trkpt>
      <trkpt lat="49.9614" lon="2.28516">
        <ele>74.2</ele>
        <time>2022-12-28T14:13:58Z</time>
      </trkpt>
      <trkpt lat="49.9614" lon="2.28516">
        <ele>74.2</ele>
        <time>2022-12-28T14:14:00Z</time>
      </trkpt>
      <trkpt lat="49.96141" lon="2.28516">
        <ele>74.2</ele>
        <time>2022-12-28T14:14:01Z</time>
      </trkpt>
      <trkpt lat="49.96141" lon="2.28516">
        <ele>74.2</ele>
        <time>2022-12-28T14:14:02Z</time>
      </trkpt>
      <trkpt lat="49.96141" lon="2.28517">
        <ele>74.2</ele>
        <time>2022-12-28T14:14:04Z</time>
      </trkpt>
      <trkpt lat="49.96141" lon="2.28517">
        <ele>74.2</ele>
        <time>2022-12-28T14:14:05Z</time>
      </trkpt>
      <trkpt lat="49.96141" lon="2.28517">
        <ele>74.2</ele>
        <time>2022-12-28T14:14:06Z</time>
      </trkpt>
      <trkpt lat="49.96141" lon="2.28518">
        <ele>74.2</ele>
        <time>2022-12-28T14:14:08Z</time>
      </trkpt>
      <trkpt lat="49.9614" lon="2.28519">
        <ele>74.2</ele>
        <time>2022-12-28T14:14:10Z</time>
      </trkpt>
      <trkpt lat="49.96141" lon="2.28519">
        <ele>74.2</ele>
        <time>2022-12-28T14:14:11Z</time>
      </trkpt>
      <trkpt lat="49.96142" lon="2.28518">
        <ele>74.2</ele>
        <time>2022-12-28T14:14:13Z</time>
      </trkpt>
      <trkpt lat="49.96142" lon="2.28518">
        <ele>74.2</ele>
        <time>2022-12-28T14:14:14Z</time>
      </trkpt>
      <trkpt lat="49.96143" lon="2.28518">
        <ele>74.2</ele>
        <time>2022-12-28T14:14:16Z</time>
      </trkpt>
      <trkpt lat="49.96143" lon="2.28518">
        <ele>74.2</ele>
        <time>2022-12-28T14:14:17Z</time>
      </trkpt>
      <trkpt lat="49.96143" lon="2.28518">
        <ele>74.2</ele>
        <time>2022-12-28T14:14:18Z</time>
      </trkpt>
      <trkpt lat="49.96143" lon="2.28518">
        <ele>74.2</ele>
        <time>2022-12-28T14:14:20Z</time>
      </trkpt>
      <trkpt lat="49.96143" lon="2.28518">
        <ele>74.2</ele>
        <time>2022-12-28T14:14:21Z</time>
      </trkpt>
      <trkpt lat="49.96143" lon="2.28519">
        <ele>74.2</ele>
        <time>2022-12-28T14:14:23Z</time>
      </trkpt>
      <trkpt lat="49.96144" lon="2.28519">
        <ele>74.2</ele>
        <time>2022-12-28T14:14:24Z</time>
      </trkpt>
      <trkpt lat="49.96144" lon="2.28519">
        <ele>74.2</ele>
        <time>2022-12-28T14:14:26Z</time>
      </trkpt>
      <trkpt lat="49.96144" lon="2.28519">
        <ele>74.2</ele>
        <time>2022-12-28T14:14:27Z</time>
      </trkpt>
      <trkpt lat="49.96144" lon="2.28519">
        <ele>74.2</ele>
        <time>2022-12-28T14:14:28Z</time>
      </trkpt>
      <trkpt lat="49.96144" lon="2.28519">
        <ele>74.2</ele>
        <time>2022-12-28T14:14:29Z</time>
      </trkpt>
      <trkpt lat="49.96145" lon="2.28519">
        <ele>74.2</ele>
        <time>2022-12-28T14:14:30Z</time>
      </trkpt>
      <trkpt lat="49.96145" lon="2.28519">
        <ele>74.2</ele>
        <time>2022-12-28T14:14:31Z</time>
      </trkpt>
      <trkpt lat="49.96145" lon="2.28519">
        <ele>74.2</ele>
        <time>2022-12-28T14:14:32Z</time>
      </trkpt>
      <trkpt lat="49.96145" lon="2.28519">
        <ele>74.2</ele>
        <time>2022-12-28T14:14:33Z</time>
      </trkpt>
      <trkpt lat="49.96145" lon="2.28519">
        <ele>74.2</ele>
        <time>2022-12-28T14:14:34Z</time>
      </trkpt>
      <trkpt lat="49.96145" lon="2.28519">
        <ele>74.2</ele>
        <time>2022-12-28T14:14:35Z</time>
      </trkpt>
      <trkpt lat="49.96145" lon="2.28519">
        <ele>74.2</ele>
        <time>2022-12-28T14:14:36Z</time>
      </trkpt>
      <trkpt lat="49.96145" lon="2.28519">
        <ele>74.2</ele>
        <time>2022-12-28T14:14:37Z</time>
      </trkpt>
      <trkpt lat="49.96145" lon="2.28519">
        <ele>74.2</ele>
        <time>2022-12-28T14:14:38Z</time>
      </trkpt>
      <trkpt lat="49.96145" lon="2.28519">
        <ele>74.2</ele>
        <time>2022-12-28T14:14:39Z</time>
      </trkpt>
      <trkpt lat="49.96145" lon="2.28519">
        <ele>74.2</ele>
        <time>2022-12-28T14:14:40Z</time>
      </trkpt>
      <trkpt lat="49.96145" lon="2.28519">
        <ele>74.2</ele>
        <time>2022-12-28T14:14:41Z</time>
      </trkpt>
      <trkpt lat="49.96145" lon="2.28519">
        <ele>74.2</ele>
        <time>2022-12-28T14:14:42Z</time>
      </trkpt>
      <trkpt lat="49.96145" lon="2.28519">
        <ele>74.2</ele>
        <time>2022-12-28T14:14:43Z</time>
      </trkpt>
      <trkpt lat="49.96145" lon="2.28519">
        <ele>74.2</ele>
        <time>2022-12-28T14:14:44Z</time>
      </trkpt>
      <trkpt lat="49.96145" lon="2.28519">
        <ele>74.2</ele>
        <time>2022-12-28T14:14:45Z</time>
      </trkpt>
      <trkpt lat="49.96145" lon="2.28519">
        <ele>74.2</ele>
        <time>2022-12-28T14:14:46Z</time>
      </trkpt>
      <trkpt lat="49.96145" lon="2.28519">
        <ele>74.2</ele>
        <time>2022-12-28T14:14:47Z</time>
      </trkpt>
      <trkpt lat="49.96145" lon="2.28519">
        <ele>74.2</ele>
        <time>2022-12-28T14:14:48Z</time>
      </trkpt>
      <trkpt lat="49.96145" lon="2.28519">
        <ele>74.2</ele>
        <time>2022-12-28T14:14:49Z</time>
      </trkpt>
      <trkpt lat="49.96145" lon="2.28519">
        <ele>74.2</ele>
        <time>2022-12-28T14:14:50Z</time>
      </trkpt>
      <trkpt lat="49.96145" lon="2.28519">
        <ele>74.2</ele>
        <time>2022-12-28T14:14:51Z</time>
      </trkpt>
      <trkpt lat="49.96145" lon="2.28519">
        <ele>74.2</ele>
        <time>2022-12-28T14:14:52Z</time>
      </trkpt>
      <trkpt lat="49.96145" lon="2.28519">
        <ele>74.2</ele>
        <time>2022-12-28T14:14:53Z</time>
      </trkpt>
      <trkpt lat="49.96145" lon="2.28519">
        <ele>74.2</ele>
        <time>2022-12-28T14:14:54Z</time>
      </trkpt>
      <trkpt lat="49.96145" lon="2.28519">
        <ele>74.2</ele>
        <time>2022-12-28T14:14:55Z</time>
      </trkpt>
      <trkpt lat="49.96145" lon="2.28519">
        <ele>74.2</ele>
        <time>2022-12-28T14:14:56Z</time>
      </trkpt>
      <trkpt lat="49.96145" lon="2.28519">
        <ele>74.2</ele>
        <time>2022-12-28T14:14:57Z</time>
      </trkpt>
      <trkpt lat="49.96145" lon="2.28519">
        <ele>74.2</ele>
        <time>2022-12-28T14:14:58Z</time>
      </trkpt>
      <trkpt lat="49.96145" lon="2.28519">
        <ele>74.2</ele>
        <time>2022-12-28T14:14:59Z</time>
      </trkpt>
      <trkpt lat="49.96145" lon="2.28519">
        <ele>74.2</ele>
        <time>2022-12-28T14:15:00Z</time>
      </trkpt>
      <trkpt lat="49.96145" lon="2.28519">
        <ele>74.2</ele>
        <time>2022-12-28T14:15:01Z</time>
      </trkpt>
      <trkpt lat="49.96145" lon="2.28519">
        <ele>74.2</ele>
        <time>2022-12-28T14:15:02Z</time>
      </trkpt>
      <trkpt lat="49.96145" lon="2.28519">
        <ele>74.2</ele>
        <time>2022-12-28T14:15:03Z</time>
      </trkpt>
      <trkpt lat="49.96145" lon="2.28519">
        <ele>74.2</ele>
        <time>2022-12-28T14:15:04Z</time>
      </trkpt>
      <trkpt lat="49.96145" lon="2.28519">
        <ele>74.2</ele>
        <time>2022-12-28T14:15:05Z</time>
      </trkpt>
      <trkpt lat="49.96145" lon="2.28519">
        <ele>74.2</ele>
        <time>2022-12-28T14:15:06Z</time>
      </trkpt>
      <trkpt lat="49.96145" lon="2.28519">
        <ele>74.2</ele>
        <time>2022-12-28T14:15:07Z</time>
      </trkpt>
      <trkpt lat="49.96145" lon="2.28519">
        <ele>74.2</ele>
        <time>2022-12-28T14:15:08Z</time>
      </trkpt>
      <trkpt lat="49.96145" lon="2.28519">
        <ele>74.2</ele>
        <time>2022-12-28T14:15:09Z</time>
      </trkpt>
      <trkpt lat="49.96145" lon="2.28519">
        <ele>74.2</ele>
        <time>2022-12-28T14:15:10Z</time>
      </trkpt>
      <trkpt lat="49.96145" lon="2.28519">
        <ele>74.2</ele>
        <time>2022-12-28T14:15:11Z</time>
      </trkpt>
      <trkpt lat="49.96145" lon="2.28519">
        <ele>74.2</ele>
        <time>2022-12-28T14:15:12Z</time>
      </trkpt>
      <trkpt lat="49.96145" lon="2.28519">
        <ele>74.2</ele>
        <time>2022-12-28T14:15:13Z</time>
      </trkpt>
      <trkpt lat="49.96145" lon="2.28519">
        <ele>74.2</ele>
        <time>2022-12-28T14:15:14Z</time>
      </trkpt>
      <trkpt lat="49.96145" lon="2.28519">
        <ele>74.2</ele>
        <time>2022-12-28T14:15:15Z</time>
      </trkpt>
      <trkpt lat="49.96145" lon="2.28519">
        <ele>74.2</ele>
        <time>2022-12-28T14:15:16Z</time>
      </trkpt>
      <trkpt lat="49.96145" lon="2.28519">
        <ele>74.2</ele>
        <time>2022-12-28T14:15:17Z</time>
      </trkpt>
      <trkpt lat="49.96145" lon="2.28519">
        <ele>74.2</ele>
        <time>2022-12-28T14:15:18Z</time>
      </trkpt>
      <trkpt lat="49.96145" lon="2.28519">
        <ele>74.2</ele>
        <time>2022-12-28T14:15:19Z</time>
      </trkpt>
      <trkpt lat="49.96145" lon="2.28519">
        <ele>74.2</ele>
        <time>2022-12-28T14:15:20Z</time>
      </trkpt>
      <trkpt lat="49.96145" lon="2.28519">
        <ele>74.2</ele>
        <time>2022-12-28T14:15:21Z</time>
      </trkpt>
      <trkpt lat="49.96145" lon="2.28519">
        <ele>74.2</ele>
        <time>2022-12-28T14:15:22Z</time>
      </trkpt>
      <trkpt lat="49.96145" lon="2.28519">
        <ele>74.2</ele>
        <time>2022-12-28T14:15:23Z</time>
      </trkpt>
      <trkpt lat="49.96145" lon="2.28519">
        <ele>74.2</ele>
        <time>2022-12-28T14:15:24Z</time>
      </trkpt>
      <trkpt lat="49.96145" lon="2.28519">
        <ele>74.2</ele>
        <time>2022-12-28T14:15:25Z</time>
      </trkpt>
      <trkpt lat="49.96145" lon="2.28519">
        <ele>74.2</ele>
        <time>2022-12-28T14:15:26Z</time>
      </trkpt>
      <trkpt lat="49.96145" lon="2.28519">
        <ele>74.2</ele>
        <time>2022-12-28T14:15:27Z</time>
      </trkpt>
      <trkpt lat="49.96145" lon="2.28519">
        <ele>74.2</ele>
        <time>2022-12-28T14:15:28Z</time>
      </trkpt>
      <trkpt lat="49.96145" lon="2.28519">
        <ele>74.2</ele>
        <time>2022-12-28T14:15:29Z</time>
      </trkpt>
      <trkpt lat="49.96145" lon="2.28519">
        <ele>74.2</ele>
        <time>2022-12-28T14:15:30Z</time>
      </trkpt>
      <trkpt lat="49.96145" lon="2.28519">
        <ele>74.2</ele>
        <time>2022-12-28T14:15:31Z</time>
      </trkpt>
      <trkpt lat="49.96145" lon="2.28519">
        <ele>74.2</ele>
        <time>2022-12-28T14:15:32Z</time>
      </trkpt>
      <trkpt lat="49.96145" lon="2.28519">
        <ele>74.2</ele>
        <time>2022-12-28T14:15:33Z</time>
      </trkpt>
      <trkpt lat="49.96145" lon="2.28519">
        <ele>74.2</ele>
        <time>2022-12-28T14:15:34Z</time>
      </trkpt>
      <trkpt lat="49.96145" lon="2.28519">
        <ele>74.2</ele>
        <time>2022-12-28T14:15:35Z</time>
      </trkpt>
      <trkpt lat="49.96145" lon="2.28519">
        <ele>74.2</ele>
        <time>2022-12-28T14:15:36Z</time>
      </trkpt>
      <trkpt lat="49.96145" lon="2.28519">
        <ele>74.2</ele>
        <time>2022-12-28T14:15:37Z</time>
      </trkpt>
      <trkpt lat="49.96145" lon="2.28519">
        <ele>74.2</ele>
        <time>2022-12-28T14:15:38Z</time>
      </trkpt>
      <trkpt lat="49.96145" lon="2.28519">
        <ele>74.2</ele>
        <time>2022-12-28T14:15:39Z</time>
      </trkpt>
      <trkpt lat="49.96145" lon="2.28519">
        <ele>74.2</ele>
        <time>2022-12-28T14:15:40Z</time>
      </trkpt>
      <trkpt lat="49.96145" lon="2.28519">
        <ele>74.2</ele>
        <time>2022-12-28T14:15:41Z</time>
      </trkpt>
      <trkpt lat="49.96145" lon="2.28519">
        <ele>74.2</ele>
        <time>2022-12-28T14:15:42Z</time>
      </trkpt>
      <trkpt lat="49.96145" lon="2.28519">
        <ele>74.2</ele>
        <time>2022-12-28T14:15:43Z</time>
      </trkpt>
      <trkpt lat="49.96145" lon="2.28519">
        <ele>74.2</ele>
        <time>2022-12-28T14:15:44Z</time>
      </trkpt>
      <trkpt lat="49.96145" lon="2.28519">
        <ele>74.2</ele>
        <time>2022-12-28T14:15:45Z</time>
      </trkpt>
      <trkpt lat="49.96145" lon="2.28519">
        <ele>74.2</ele>
        <time>2022-12-28T14:15:46Z</time>
      </trkpt>
      <trkpt lat="49.96145" lon="2.28519">
        <ele>74.2</ele>
        <time>2022-12-28T14:15:47Z</time>
      </trkpt>
      <trkpt lat="49.96145" lon="2.28518">
        <ele>74.2</ele>
        <time>2022-12-28T14:15:48Z</time>
      </trkpt>
      <trkpt lat="49.96145" lon="2.28518">
        <ele>74.2</ele>
        <time>2022-12-28T14:15:49Z</time>
      </trkpt>
      <trkpt lat="49.96145" lon="2.28518">
        <ele>74.2</ele>
        <time>2022-12-28T14:15:50Z</time>
      </trkpt>
      <trkpt lat="49.96145" lon="2.28518">
        <ele>74.2</ele>
        <time>2022-12-28T14:15:51Z</time>
      </trkpt>
      <trkpt lat="49.96145" lon="2.28519">
        <ele>74.2</ele>
        <time>2022-12-28T14:15:52Z</time>
      </trkpt>
      <trkpt lat="49.96145" lon="2.28519">
        <ele>74.2</ele>
        <time>2022-12-28T14:15:53Z</time>
      </trkpt>
      <trkpt lat="49.96145" lon="2.28519">
        <ele>74.2</ele>
        <time>2022-12-28T14:15:55Z</time>
      </trkpt>
      <trkpt lat="49.96145" lon="2.28519">
        <ele>74.2</ele>
        <time>2022-12-28T14:15:56Z</time>
      </trkpt>
      <trkpt lat="49.96144" lon="2.28519">
        <ele>74.2</ele>
        <time>2022-12-28T14:15:57Z</time>
      </trkpt>
      <trkpt lat="49.96144" lon="2.28519">
        <ele>74.2</ele>
        <time>2022-12-28T14:15:58Z</time>
      </trkpt>
      <trkpt lat="49.96143" lon="2.28518">
        <ele>74.2</ele>
        <time>2022-12-28T14:15:59Z</time>
      </trkpt>
      <trkpt lat="49.96142" lon="2.28518">
        <ele>74.2</ele>
        <time>2022-12-28T14:16:01Z</time>
      </trkpt>
      <trkpt lat="49.96141" lon="2.28519">
        <ele>74.2</ele>
        <time>2022-12-28T14:16:02Z</time>
      </trkpt>
      <trkpt lat="49.96142" lon="2.28519">
        <ele>74.2</ele>
        <time>2022-12-28T14:16:04Z</time>
      </trkpt>
      <trkpt lat="49.96142" lon="2.2852">
        <ele>74.2</ele>
        <time>2022-12-28T14:16:05Z</time>
      </trkpt>
      <trkpt lat="49.96142" lon="2.2852">
        <ele>74.2</ele>
        <time>2022-12-28T14:16:06Z</time>
      </trkpt>
      <trkpt lat="49.96142" lon="2.2852">
        <ele>74.2</ele>
        <time>2022-12-28T14:16:08Z</time>
      </trkpt>
      <trkpt lat="49.96142" lon="2.2852">
        <ele>74.2</ele>
        <time>2022-12-28T14:16:09Z</time>
      </trkpt>
      <trkpt lat="49.96142" lon="2.2852">
        <ele>74.2</ele>
        <time>2022-12-28T14:16:10Z</time>
      </trkpt>
      <trkpt lat="49.96143" lon="2.28519">
        <ele>74.2</ele>
        <time>2022-12-28T14:16:12Z</time>
      </trkpt>
      <trkpt lat="49.96143" lon="2.28519">
        <ele>74.2</ele>
        <time>2022-12-28T14:16:13Z</time>
      </trkpt>
      <trkpt lat="49.96143" lon="2.28519">
        <ele>74.2</ele>
        <time>2022-12-28T14:16:15Z</time>
      </trkpt>
      <trkpt lat="49.96143" lon="2.28519">
        <ele>74.2</ele>
        <time>2022-12-28T14:16:16Z</time>
      </trkpt>
      <trkpt lat="49.96143" lon="2.28519">
        <ele>74.2</ele>
        <time>2022-12-28T14:16:17Z</time>
      </trkpt>
      <trkpt lat="49.96143" lon="2.28519">
        <ele>74.2</ele>
        <time>2022-12-28T14:16:19Z</time>
      </trkpt>
      <trkpt lat="49.96142" lon="2.28519">
        <ele>74.2</ele>
        <time>2022-12-28T14:16:20Z</time>
      </trkpt>
      <trkpt lat="49.96142" lon="2.28518">
        <ele>74.2</ele>
        <time>2022-12-28T14:16:21Z</time>
      </trkpt>
      <trkpt lat="49.96142" lon="2.28518">
        <ele>74.2</ele>
        <time>2022-12-28T14:16:22Z</time>
      </trkpt>
      <trkpt lat="49.96142" lon="2.28518">
        <ele>74.2</ele>
        <time>2022-12-28T14:16:23Z</time>
      </trkpt>
      <trkpt lat="49.96142" lon="2.28518">
        <ele>74.2</ele>
        <time>2022-12-28T14:16:24Z</time>
      </trkpt>
      <trkpt lat="49.96142" lon="2.28518">
        <ele>74.2</ele>
        <time>2022-12-28T14:16:25Z</time>
      </trkpt>
      <trkpt lat="49.96142" lon="2.28518">
        <ele>74.2</ele>
        <time>2022-12-28T14:16:26Z</time>
      </trkpt>
      <trkpt lat="49.96142" lon="2.28518">
        <ele>74.2</ele>
        <time>2022-12-28T14:16:27Z</time>
      </trkpt>
      <trkpt lat="49.96142" lon="2.28518">
        <ele>74.2</ele>
        <time>2022-12-28T14:16:28Z</time>
      </trkpt>
      <trkpt lat="49.96142" lon="2.28518">
        <ele>74.2</ele>
        <time>2022-12-28T14:16:29Z</time>
      </trkpt>
      <trkpt lat="49.96142" lon="2.28518">
        <ele>74.2</ele>
        <time>2022-12-28T14:16:30Z</time>
      </trkpt>
      <trkpt lat="49.96142" lon="2.28518">
        <ele>74.2</ele>
        <time>2022-12-28T14:16:31Z</time>
      </trkpt>
      <trkpt lat="49.96142" lon="2.28518">
        <ele>74.2</ele>
        <time>2022-12-28T14:16:32Z</time>
      </trkpt>
      <trkpt lat="49.96142" lon="2.28518">
        <ele>74.2</ele>
        <time>2022-12-28T14:16:33Z</time>
      </trkpt>
      <trkpt lat="49.96142" lon="2.28518">
        <ele>74.2</ele>
        <time>2022-12-28T14:16:34Z</time>
      </trkpt>
      <trkpt lat="49.96142" lon="2.28518">
        <ele>74.2</ele>
        <time>2022-12-28T14:16:35Z</time>
      </trkpt>
      <trkpt lat="49.96142" lon="2.28518">
        <ele>74.2</ele>
        <time>2022-12-28T14:16:36Z</time>
      </trkpt>
      <trkpt lat="49.96142" lon="2.28518">
        <ele>74.2</ele>
        <time>2022-12-28T14:16:37Z</time>
      </trkpt>
      <trkpt lat="49.96142" lon="2.28518">
        <ele>74.2</ele>
        <time>2022-12-28T14:16:38Z</time>
      </trkpt>
      <trkpt lat="49.96142" lon="2.28518">
        <ele>74.2</ele>
        <time>2022-12-28T14:16:39Z</time>
      </trkpt>
      <trkpt lat="49.96142" lon="2.28518">
        <ele>74.2</ele>
        <time>2022-12-28T14:16:40Z</time>
      </trkpt>
      <trkpt lat="49.96142" lon="2.28518">
        <ele>74.2</ele>
        <time>2022-12-28T14:16:41Z</time>
      </trkpt>
      <trkpt lat="49.96142" lon="2.28518">
        <ele>74.2</ele>
        <time>2022-12-28T14:16:42Z</time>
      </trkpt>
      <trkpt lat="49.96142" lon="2.28518">
        <ele>74.2</ele>
        <time>2022-12-28T14:16:43Z</time>
      </trkpt>
      <trkpt lat="49.96142" lon="2.28518">
        <ele>74.2</ele>
        <time>2022-12-28T14:16:44Z</time>
      </trkpt>
      <trkpt lat="49.96142" lon="2.28518">
        <ele>74.2</ele>
        <time>2022-12-28T14:16:45Z</time>
      </trkpt>
      <trkpt lat="49.96142" lon="2.28518">
        <ele>74.2</ele>
        <time>2022-12-28T14:16:46Z</time>
      </trkpt>
      <trkpt lat="49.96142" lon="2.28518">
        <ele>74.2</ele>
        <time>2022-12-28T14:16:47Z</time>
      </trkpt>
      <trkpt lat="49.96142" lon="2.28518">
        <ele>74.2</ele>
        <time>2022-12-28T14:16:48Z</time>
      </trkpt>
      <trkpt lat="49.96142" lon="2.28518">
        <ele>74.2</ele>
        <time>2022-12-28T14:16:49Z</time>
      </trkpt>
      <trkpt lat="49.96142" lon="2.28518">
        <ele>74.2</ele>
        <time>2022-12-28T14:16:50Z</time>
      </trkpt>
      <trkpt lat="49.96142" lon="2.28518">
        <ele>74.2</ele>
        <time>2022-12-28T14:16:51Z</time>
      </trkpt>
      <trkpt lat="49.96142" lon="2.28518">
        <ele>74.2</ele>
        <time>2022-12-28T14:16:52Z</time>
      </trkpt>
      <trkpt lat="49.96142" lon="2.28518">
        <ele>74.2</ele>
        <time>2022-12-28T14:16:53Z</time>
      </trkpt>
      <trkpt lat="49.96142" lon="2.28518">
        <ele>74.2</ele>
        <time>2022-12-28T14:16:54Z</time>
      </trkpt>
      <trkpt lat="49.96142" lon="2.28518">
        <ele>74.2</ele>
        <time>2022-12-28T14:16:55Z</time>
      </trkpt>
      <trkpt lat="49.96142" lon="2.28518">
        <ele>74.2</ele>
        <time>2022-12-28T14:16:56Z</time>
      </trkpt>
      <trkpt lat="49.96142" lon="2.28518">
        <ele>74.2</ele>
        <time>2022-12-28T14:16:57Z</time>
      </trkpt>
      <trkpt lat="49.96142" lon="2.28518">
        <ele>74.2</ele>
        <time>2022-12-28T14:16:58Z</time>
      </trkpt>
      <trkpt lat="49.96142" lon="2.28518">
        <ele>74.2</ele>
        <time>2022-12-28T14:16:59Z</time>
      </trkpt>
      <trkpt lat="49.96142" lon="2.28518">
        <ele>74.2</ele>
        <time>2022-12-28T14:17:00Z</time>
      </trkpt>
      <trkpt lat="49.9614" lon="2.28518">
        <ele>74.2</ele>
        <time>2022-12-28T14:17:01Z</time>
      </trkpt>
      <trkpt lat="49.96139" lon="2.28518">
        <ele>74.2</ele>
        <time>2022-12-28T14:17:02Z</time>
      </trkpt>
      <trkpt lat="49.96137" lon="2.28518">
        <ele>74.2</ele>
        <time>2022-12-28T14:17:03Z</time>
      </trkpt>
      <trkpt lat="49.96136" lon="2.28518">
        <ele>74.2</ele>
        <time>2022-12-28T14:17:04Z</time>
      </trkpt>
      <trkpt lat="49.96137" lon="2.28518">
        <ele>74.2</ele>
        <time>2022-12-28T14:17:05Z</time>
      </trkpt>
      <trkpt lat="49.96136" lon="2.28518">
        <ele>74.2</ele>
        <time>2022-12-28T14:17:06Z</time>
      </trkpt>
      <trkpt lat="49.96135" lon="2.28518">
        <ele>74.2</ele>
        <time>2022-12-28T14:17:07Z</time>
      </trkpt>
      <trkpt lat="49.96133" lon="2.28519">
        <ele>74.1</ele>
        <time>2022-12-28T14:17:09Z</time>
      </trkpt>
      <trkpt lat="49.96131" lon="2.2852">
        <ele>74.1</ele>
        <time>2022-12-28T14:17:10Z</time>
      </trkpt>
      <trkpt lat="49.9613" lon="2.2852">
        <ele>74.1</ele>
        <time>2022-12-28T14:17:11Z</time>
      </trkpt>
      <trkpt lat="49.96129" lon="2.2852">
        <ele>74.1</ele>
        <time>2022-12-28T14:17:12Z</time>
      </trkpt>
      <trkpt lat="49.96128" lon="2.28521">
        <ele>74.1</ele>
        <time>2022-12-28T14:17:13Z</time>
      </trkpt>
      <trkpt lat="49.96126" lon="2.28522">
        <ele>74</ele>
        <time>2022-12-28T14:17:14Z</time>
      </trkpt>
      <trkpt lat="49.96125" lon="2.28523">
        <ele>74</ele>
        <time>2022-12-28T14:17:16Z</time>
      </trkpt>
      <trkpt lat="49.96124" lon="2.28524">
        <ele>74</ele>
        <time>2022-12-28T14:17:17Z</time>
      </trkpt>
      <trkpt lat="49.96123" lon="2.28525">
        <ele>74</ele>
        <time>2022-12-28T14:17:18Z</time>
      </trkpt>
      <trkpt lat="49.96121" lon="2.28526">
        <ele>74</ele>
        <time>2022-12-28T14:17:19Z</time>
      </trkpt>
      <trkpt lat="49.96121" lon="2.28527">
        <ele>73.9</ele>
        <time>2022-12-28T14:17:20Z</time>
      </trkpt>
      <trkpt lat="49.9612" lon="2.28528">
        <ele>73.9</ele>
        <time>2022-12-28T14:17:22Z</time>
      </trkpt>
      <trkpt lat="49.96119" lon="2.28529">
        <ele>73.9</ele>
        <time>2022-12-28T14:17:23Z</time>
      </trkpt>
      <trkpt lat="49.96118" lon="2.28529">
        <ele>73.9</ele>
        <time>2022-12-28T14:17:24Z</time>
      </trkpt>
      <trkpt lat="49.96117" lon="2.28531">
        <ele>73.9</ele>
        <time>2022-12-28T14:17:25Z</time>
      </trkpt>
      <trkpt lat="49.96116" lon="2.28532">
        <ele>73.9</ele>
        <time>2022-12-28T14:17:26Z</time>
      </trkpt>
      <trkpt lat="49.96115" lon="2.28533">
        <ele>73.8</ele>
        <time>2022-12-28T14:17:27Z</time>
      </trkpt>
      <trkpt lat="49.96114" lon="2.28534">
        <ele>73.8</ele>
        <time>2022-12-28T14:17:29Z</time>
      </trkpt>
      <trkpt lat="49.96113" lon="2.28535">
        <ele>73.8</ele>
        <time>2022-12-28T14:17:30Z</time>
      </trkpt>
      <trkpt lat="49.96112" lon="2.28536">
        <ele>73.8</ele>
        <time>2022-12-28T14:17:31Z</time>
      </trkpt>
      <trkpt lat="49.96111" lon="2.28538">
        <ele>73.8</ele>
        <time>2022-12-28T14:17:32Z</time>
      </trkpt>
      <trkpt lat="49.96109" lon="2.28541">
        <ele>73.7</ele>
        <time>2022-12-28T14:17:33Z</time>
      </trkpt>
      <trkpt lat="49.96108" lon="2.28543">
        <ele>73.7</ele>
        <time>2022-12-28T14:17:34Z</time>
      </trkpt>
      <trkpt lat="49.96107" lon="2.28544">
        <ele>73.7</ele>
        <time>2022-12-28T14:17:35Z</time>
      </trkpt>
      <trkpt lat="49.96106" lon="2.28546">
        <ele>73.6</ele>
        <time>2022-12-28T14:17:37Z</time>
      </trkpt>
      <trkpt lat="49.96106" lon="2.28547">
        <ele>73.6</ele>
        <time>2022-12-28T14:17:38Z</time>
      </trkpt>
      <trkpt lat="49.96104" lon="2.28549">
        <ele>73.6</ele>
        <time>2022-12-28T14:17:39Z</time>
      </trkpt>
      <trkpt lat="49.96103" lon="2.28551">
        <ele>73.5</ele>
        <time>2022-12-28T14:17:40Z</time>
      </trkpt>
      <trkpt lat="49.96102" lon="2.28552">
        <ele>73.5</ele>
        <time>2022-12-28T14:17:41Z</time>
      </trkpt>
      <trkpt lat="49.96102" lon="2.28553">
        <ele>73.5</ele>
        <time>2022-12-28T14:17:42Z</time>
      </trkpt>
      <trkpt lat="49.96101" lon="2.28554">
        <ele>73.5</ele>
        <time>2022-12-28T14:17:44Z</time>
      </trkpt>
      <trkpt lat="49.961" lon="2.28555">
        <ele>73.5</ele>
        <time>2022-12-28T14:17:45Z</time>
      </trkpt>
      <trkpt lat="49.96099" lon="2.28556">
        <ele>73.4</ele>
        <time>2022-12-28T14:17:46Z</time>
      </trkpt>
      <trkpt lat="49.96097" lon="2.28558">
        <ele>73.4</ele>
        <time>2022-12-28T14:17:47Z</time>
      </trkpt>
      <trkpt lat="49.96097" lon="2.28559">
        <ele>73.4</ele>
        <time>2022-12-28T14:17:48Z</time>
      </trkpt>
      <trkpt lat="49.96096" lon="2.2856">
        <ele>73.4</ele>
        <time>2022-12-28T14:17:49Z</time>
      </trkpt>
      <trkpt lat="49.96094" lon="2.28562">
        <ele>73.3</ele>
        <time>2022-12-28T14:17:51Z</time>
      </trkpt>
      <trkpt lat="49.96093" lon="2.28562">
        <ele>73.3</ele>
        <time>2022-12-28T14:17:52Z</time>
      </trkpt>
      <trkpt lat="49.96093" lon="2.28563">
        <ele>73.3</ele>
        <time>2022-12-28T14:17:53Z</time>
      </trkpt>
      <trkpt lat="49.96091" lon="2.28564">
        <ele>73.3</ele>
        <time>2022-12-28T14:17:54Z</time>
      </trkpt>
      <trkpt lat="49.9609" lon="2.28565">
        <ele>73.3</ele>
        <time>2022-12-28T14:17:55Z</time>
      </trkpt>
      <trkpt lat="49.96089" lon="2.28566">
        <ele>73.2</ele>
        <time>2022-12-28T14:17:56Z</time>
      </trkpt>
      <trkpt lat="49.96088" lon="2.28567">
        <ele>73.2</ele>
        <time>2022-12-28T14:17:57Z</time>
      </trkpt>
      <trkpt lat="49.96087" lon="2.28568">
        <ele>73.2</ele>
        <time>2022-12-28T14:17:58Z</time>
      </trkpt>
      <trkpt lat="49.96086" lon="2.28569">
        <ele>73.2</ele>
        <time>2022-12-28T14:18:00Z</time>
      </trkpt>
      <trkpt lat="49.96085" lon="2.2857">
        <ele>73.2</ele>
        <time>2022-12-28T14:18:01Z</time>
      </trkpt>
      <trkpt lat="49.96084" lon="2.2857">
        <ele>73.1</ele>
        <time>2022-12-28T14:18:02Z</time>
      </trkpt>
      <trkpt lat="49.96083" lon="2.28571">
        <ele>73.1</ele>
        <time>2022-12-28T14:18:03Z</time>
      </trkpt>
      <trkpt lat="49.96082" lon="2.28572">
        <ele>73.1</ele>
        <time>2022-12-28T14:18:04Z</time>
      </trkpt>
      <trkpt lat="49.96081" lon="2.28573">
        <ele>73.1</ele>
        <time>2022-12-28T14:18:05Z</time>
      </trkpt>
      <trkpt lat="49.96079" lon="2.28574">
        <ele>73</ele>
        <time>2022-12-28T14:18:06Z</time>
      </trkpt>
      <trkpt lat="49.96078" lon="2.28574">
        <ele>73</ele>
        <time>2022-12-28T14:18:08Z</time>
      </trkpt>
      <trkpt lat="49.96077" lon="2.28575">
        <ele>73</ele>
        <time>2022-12-28T14:18:09Z</time>
      </trkpt>
      <trkpt lat="49.96076" lon="2.28575">
        <ele>73</ele>
        <time>2022-12-28T14:18:10Z</time>
      </trkpt>
      <trkpt lat="49.96075" lon="2.28576">
        <ele>72.9</ele>
        <time>2022-12-28T14:18:11Z</time>
      </trkpt>
      <trkpt lat="49.96074" lon="2.28577">
        <ele>72.9</ele>
        <time>2022-12-28T14:18:12Z</time>
      </trkpt>
      <trkpt lat="49.96072" lon="2.28577">
        <ele>72.9</ele>
        <time>2022-12-28T14:18:13Z</time>
      </trkpt>
      <trkpt lat="49.96071" lon="2.28578">
        <ele>72.8</ele>
        <time>2022-12-28T14:18:14Z</time>
      </trkpt>
      <trkpt lat="49.9607" lon="2.28579">
        <ele>72.8</ele>
        <time>2022-12-28T14:18:16Z</time>
      </trkpt>
      <trkpt lat="49.96068" lon="2.2858">
        <ele>72.8</ele>
        <time>2022-12-28T14:18:17Z</time>
      </trkpt>
      <trkpt lat="49.96067" lon="2.2858">
        <ele>72.8</ele>
        <time>2022-12-28T14:18:18Z</time>
      </trkpt>
      <trkpt lat="49.96066" lon="2.28581">
        <ele>72.7</ele>
        <time>2022-12-28T14:18:19Z</time>
      </trkpt>
      <trkpt lat="49.96066" lon="2.28582">
        <ele>72.7</ele>
        <time>2022-12-28T14:18:20Z</time>
      </trkpt>
      <trkpt lat="49.96065" lon="2.28582">
        <ele>72.7</ele>
        <time>2022-12-28T14:18:21Z</time>
      </trkpt>
      <trkpt lat="49.96063" lon="2.28583">
        <ele>72.7</ele>
        <time>2022-12-28T14:18:22Z</time>
      </trkpt>
      <trkpt lat="49.96061" lon="2.28585">
        <ele>72.6</ele>
        <time>2022-12-28T14:18:24Z</time>
      </trkpt>
      <trkpt lat="49.96061" lon="2.28585">
        <ele>72.6</ele>
        <time>2022-12-28T14:18:25Z</time>
      </trkpt>
      <trkpt lat="49.9606" lon="2.28586">
        <ele>72.6</ele>
        <time>2022-12-28T14:18:26Z</time>
      </trkpt>
      <trkpt lat="49.96059" lon="2.28586">
        <ele>72.6</ele>
        <time>2022-12-28T14:18:27Z</time>
      </trkpt>
      <trkpt lat="49.96057" lon="2.28587">
        <ele>72.5</ele>
        <time>2022-12-28T14:18:28Z</time>
      </trkpt>
      <trkpt lat="49.96056" lon="2.28589">
        <ele>72.5</ele>
        <time>2022-12-28T14:18:29Z</time>
      </trkpt>
      <trkpt lat="49.96055" lon="2.28589">
        <ele>72.5</ele>
        <time>2022-12-28T14:18:30Z</time>
      </trkpt>
      <trkpt lat="49.96054" lon="2.2859">
        <ele>72.4</ele>
        <time>2022-12-28T14:18:32Z</time>
      </trkpt>
      <trkpt lat="49.96053" lon="2.28591">
        <ele>72.4</ele>
        <time>2022-12-28T14:18:33Z</time>
      </trkpt>
      <trkpt lat="49.96052" lon="2.28592">
        <ele>72.4</ele>
        <time>2022-12-28T14:18:34Z</time>
      </trkpt>
      <trkpt lat="49.9605" lon="2.28593">
        <ele>72.3</ele>
        <time>2022-12-28T14:18:35Z</time>
      </trkpt>
      <trkpt lat="49.96049" lon="2.28594">
        <ele>72.3</ele>
        <time>2022-12-28T14:18:36Z</time>
      </trkpt>
      <trkpt lat="49.96048" lon="2.28595">
        <ele>72.3</ele>
        <time>2022-12-28T14:18:37Z</time>
      </trkpt>
      <trkpt lat="49.96046" lon="2.28596">
        <ele>72.2</ele>
        <time>2022-12-28T14:18:38Z</time>
      </trkpt>
      <trkpt lat="49.96044" lon="2.28598">
        <ele>72.2</ele>
        <time>2022-12-28T14:18:39Z</time>
      </trkpt>
      <trkpt lat="49.96043" lon="2.28599">
        <ele>72.1</ele>
        <time>2022-12-28T14:18:41Z</time>
      </trkpt>
      <trkpt lat="49.96042" lon="2.28599">
        <ele>72.1</ele>
        <time>2022-12-28T14:18:42Z</time>
      </trkpt>
      <trkpt lat="49.96041" lon="2.286">
        <ele>72.1</ele>
        <time>2022-12-28T14:18:43Z</time>
      </trkpt>
      <trkpt lat="49.9604" lon="2.28601">
        <ele>72.1</ele>
        <time>2022-12-28T14:18:44Z</time>
      </trkpt>
      <trkpt lat="49.96039" lon="2.28601">
        <ele>72</ele>
        <time>2022-12-28T14:18:45Z</time>
      </trkpt>
      <trkpt lat="49.96038" lon="2.28602">
        <ele>72</ele>
        <time>2022-12-28T14:18:46Z</time>
      </trkpt>
      <trkpt lat="49.96036" lon="2.28603">
        <ele>72</ele>
        <time>2022-12-28T14:18:48Z</time>
      </trkpt>
      <trkpt lat="49.96035" lon="2.28603">
        <ele>71.9</ele>
        <time>2022-12-28T14:18:49Z</time>
      </trkpt>
      <trkpt lat="49.96034" lon="2.28604">
        <ele>71.9</ele>
        <time>2022-12-28T14:18:50Z</time>
      </trkpt>
      <trkpt lat="49.96033" lon="2.28604">
        <ele>71.9</ele>
        <time>2022-12-28T14:18:51Z</time>
      </trkpt>
      <trkpt lat="49.96031" lon="2.28606">
        <ele>71.8</ele>
        <time>2022-12-28T14:18:52Z</time>
      </trkpt>
      <trkpt lat="49.9603" lon="2.28606">
        <ele>71.8</ele>
        <time>2022-12-28T14:18:54Z</time>
      </trkpt>
      <trkpt lat="49.96029" lon="2.28607">
        <ele>71.8</ele>
        <time>2022-12-28T14:18:55Z</time>
      </trkpt>
      <trkpt lat="49.96028" lon="2.28608">
        <ele>71.7</ele>
        <time>2022-12-28T14:18:56Z</time>
      </trkpt>
      <trkpt lat="49.96027" lon="2.28609">
        <ele>71.7</ele>
        <time>2022-12-28T14:18:57Z</time>
      </trkpt>
      <trkpt lat="49.96026" lon="2.2861">
        <ele>71.7</ele>
        <time>2022-12-28T14:18:58Z</time>
      </trkpt>
      <trkpt lat="49.96024" lon="2.28611">
        <ele>71.6</ele>
        <time>2022-12-28T14:18:59Z</time>
      </trkpt>
      <trkpt lat="49.96024" lon="2.28612">
        <ele>71.6</ele>
        <time>2022-12-28T14:19:00Z</time>
      </trkpt>
      <trkpt lat="49.96023" lon="2.28612">
        <ele>71.6</ele>
        <time>2022-12-28T14:19:01Z</time>
      </trkpt>
      <trkpt lat="49.96022" lon="2.28613">
        <ele>71.5</ele>
        <time>2022-12-28T14:19:03Z</time>
      </trkpt>
      <trkpt lat="49.9602" lon="2.28613">
        <ele>71.5</ele>
        <time>2022-12-28T14:19:04Z</time>
      </trkpt>
      <trkpt lat="49.96018" lon="2.28615">
        <ele>71.4</ele>
        <time>2022-12-28T14:19:05Z</time>
      </trkpt>
      <trkpt lat="49.96018" lon="2.28615">
        <ele>71.4</ele>
        <time>2022-12-28T14:19:06Z</time>
      </trkpt>
      <trkpt lat="49.96017" lon="2.28616">
        <ele>71.4</ele>
        <time>2022-12-28T14:19:07Z</time>
      </trkpt>
      <trkpt lat="49.96016" lon="2.28617">
        <ele>71.4</ele>
        <time>2022-12-28T14:19:08Z</time>
      </trkpt>
      <trkpt lat="49.96014" lon="2.28617">
        <ele>71.3</ele>
        <time>2022-12-28T14:19:09Z</time>
      </trkpt>
      <trkpt lat="49.96012" lon="2.28619">
        <ele>71.2</ele>
        <time>2022-12-28T14:19:10Z</time>
      </trkpt>
      <trkpt lat="49.96011" lon="2.28619">
        <ele>71.2</ele>
        <time>2022-12-28T14:19:12Z</time>
      </trkpt>
      <trkpt lat="49.9601" lon="2.2862">
        <ele>71.2</ele>
        <time>2022-12-28T14:19:13Z</time>
      </trkpt>
      <trkpt lat="49.96009" lon="2.28621">
        <ele>71.2</ele>
        <time>2022-12-28T14:19:14Z</time>
      </trkpt>
      <trkpt lat="49.96007" lon="2.28622">
        <ele>71.1</ele>
        <time>2022-12-28T14:19:15Z</time>
      </trkpt>
      <trkpt lat="49.96006" lon="2.28623">
        <ele>71.1</ele>
        <time>2022-12-28T14:19:16Z</time>
      </trkpt>
      <trkpt lat="49.96005" lon="2.28623">
        <ele>71.1</ele>
        <time>2022-12-28T14:19:17Z</time>
      </trkpt>
      <trkpt lat="49.96004" lon="2.28624">
        <ele>71.1</ele>
        <time>2022-12-28T14:19:18Z</time>
      </trkpt>
      <trkpt lat="49.96001" lon="2.28626">
        <ele>71</ele>
        <time>2022-12-28T14:19:19Z</time>
      </trkpt>
      <trkpt lat="49.96001" lon="2.28627">
        <ele>71</ele>
        <time>2022-12-28T14:19:21Z</time>
      </trkpt>
      <trkpt lat="49.96" lon="2.28627">
        <ele>71</ele>
        <time>2022-12-28T14:19:22Z</time>
      </trkpt>
      <trkpt lat="49.95999" lon="2.28628">
        <ele>70.9</ele>
        <time>2022-12-28T14:19:23Z</time>
      </trkpt>
      <trkpt lat="49.95998" lon="2.28629">
        <ele>70.9</ele>
        <time>2022-12-28T14:19:24Z</time>
      </trkpt>
      <trkpt lat="49.95996" lon="2.28631">
        <ele>70.9</ele>
        <time>2022-12-28T14:19:25Z</time>
      </trkpt>
      <trkpt lat="49.95995" lon="2.28631">
        <ele>70.9</ele>
        <time>2022-12-28T14:19:26Z</time>
      </trkpt>
      <trkpt lat="49.95995" lon="2.28632">
        <ele>70.8</ele>
        <time>2022-12-28T14:19:27Z</time>
      </trkpt>
      <trkpt lat="49.95994" lon="2.28633">
        <ele>70.8</ele>
        <time>2022-12-28T14:19:28Z</time>
      </trkpt>
      <trkpt lat="49.95992" lon="2.28634">
        <ele>70.8</ele>
        <time>2022-12-28T14:19:30Z</time>
      </trkpt>
      <trkpt lat="49.95992" lon="2.28635">
        <ele>70.8</ele>
        <time>2022-12-28T14:19:31Z</time>
      </trkpt>
      <trkpt lat="49.95991" lon="2.28636">
        <ele>70.8</ele>
        <time>2022-12-28T14:19:32Z</time>
      </trkpt>
      <trkpt lat="49.9599" lon="2.28637">
        <ele>70.7</ele>
        <time>2022-12-28T14:19:33Z</time>
      </trkpt>
      <trkpt lat="49.95988" lon="2.28639">
        <ele>70.7</ele>
        <time>2022-12-28T14:19:34Z</time>
      </trkpt>
      <trkpt lat="49.95987" lon="2.2864">
        <ele>70.7</ele>
        <time>2022-12-28T14:19:36Z</time>
      </trkpt>
      <trkpt lat="49.95986" lon="2.28641">
        <ele>70.6</ele>
        <time>2022-12-28T14:19:37Z</time>
      </trkpt>
      <trkpt lat="49.95985" lon="2.28642">
        <ele>70.6</ele>
        <time>2022-12-28T14:19:38Z</time>
      </trkpt>
      <trkpt lat="49.95984" lon="2.28643">
        <ele>70.6</ele>
        <time>2022-12-28T14:19:39Z</time>
      </trkpt>
      <trkpt lat="49.95983" lon="2.28644">
        <ele>70.5</ele>
        <time>2022-12-28T14:19:40Z</time>
      </trkpt>
      <trkpt lat="49.95982" lon="2.28644">
        <ele>70.5</ele>
        <time>2022-12-28T14:19:41Z</time>
      </trkpt>
      <trkpt lat="49.9598" lon="2.28645">
        <ele>70.5</ele>
        <time>2022-12-28T14:19:42Z</time>
      </trkpt>
      <trkpt lat="49.95979" lon="2.28646">
        <ele>70.4</ele>
        <time>2022-12-28T14:19:43Z</time>
      </trkpt>
      <trkpt lat="49.95977" lon="2.28647">
        <ele>70.4</ele>
        <time>2022-12-28T14:19:45Z</time>
      </trkpt>
      <trkpt lat="49.95976" lon="2.28648">
        <ele>70.4</ele>
        <time>2022-12-28T14:19:46Z</time>
      </trkpt>
      <trkpt lat="49.95974" lon="2.28649">
        <ele>70.3</ele>
        <time>2022-12-28T14:19:47Z</time>
      </trkpt>
      <trkpt lat="49.95973" lon="2.2865">
        <ele>70.3</ele>
        <time>2022-12-28T14:19:48Z</time>
      </trkpt>
      <trkpt lat="49.95973" lon="2.2865">
        <ele>70.3</ele>
        <time>2022-12-28T14:19:49Z</time>
      </trkpt>
      <trkpt lat="49.95971" lon="2.28651">
        <ele>70.2</ele>
        <time>2022-12-28T14:19:50Z</time>
      </trkpt>
      <trkpt lat="49.9597" lon="2.28652">
        <ele>70.2</ele>
        <time>2022-12-28T14:19:51Z</time>
      </trkpt>
      <trkpt lat="49.95969" lon="2.28653">
        <ele>70.2</ele>
        <time>2022-12-28T14:19:52Z</time>
      </trkpt>
      <trkpt lat="49.95967" lon="2.28654">
        <ele>70.1</ele>
        <time>2022-12-28T14:19:54Z</time>
      </trkpt>
      <trkpt lat="49.95965" lon="2.28655">
        <ele>70.1</ele>
        <time>2022-12-28T14:19:55Z</time>
      </trkpt>
      <trkpt lat="49.95964" lon="2.28655">
        <ele>70.1</ele>
        <time>2022-12-28T14:19:56Z</time>
      </trkpt>
      <trkpt lat="49.95963" lon="2.28656">
        <ele>70</ele>
        <time>2022-12-28T14:19:57Z</time>
      </trkpt>
      <trkpt lat="49.95962" lon="2.28657">
        <ele>70</ele>
        <time>2022-12-28T14:19:58Z</time>
      </trkpt>
      <trkpt lat="49.95961" lon="2.28657">
        <ele>70</ele>
        <time>2022-12-28T14:20:00Z</time>
      </trkpt>
      <trkpt lat="49.95959" lon="2.28658">
        <ele>69.9</ele>
        <time>2022-12-28T14:20:01Z</time>
      </trkpt>
      <trkpt lat="49.95958" lon="2.28658">
        <ele>69.9</ele>
        <time>2022-12-28T14:20:02Z</time>
      </trkpt>
      <trkpt lat="49.95957" lon="2.28659">
        <ele>69.9</ele>
        <time>2022-12-28T14:20:03Z</time>
      </trkpt>
      <trkpt lat="49.95956" lon="2.28659">
        <ele>69.9</ele>
        <time>2022-12-28T14:20:04Z</time>
      </trkpt>
      <trkpt lat="49.95955" lon="2.2866">
        <ele>69.9</ele>
        <time>2022-12-28T14:20:05Z</time>
      </trkpt>
      <trkpt lat="49.95954" lon="2.2866">
        <ele>69.8</ele>
        <time>2022-12-28T14:20:06Z</time>
      </trkpt>
      <trkpt lat="49.95952" lon="2.28661">
        <ele>69.8</ele>
        <time>2022-12-28T14:20:07Z</time>
      </trkpt>
      <trkpt lat="49.95951" lon="2.28662">
        <ele>69.8</ele>
        <time>2022-12-28T14:20:08Z</time>
      </trkpt>
      <trkpt lat="49.95951" lon="2.28662">
        <ele>69.8</ele>
        <time>2022-12-28T14:20:09Z</time>
      </trkpt>
      <trkpt lat="49.95948" lon="2.28664">
        <ele>69.7</ele>
        <time>2022-12-28T14:20:11Z</time>
      </trkpt>
      <trkpt lat="49.95948" lon="2.28664">
        <ele>69.7</ele>
        <time>2022-12-28T14:20:12Z</time>
      </trkpt>
      <trkpt lat="49.95947" lon="2.28665">
        <ele>69.7</ele>
        <time>2022-12-28T14:20:13Z</time>
      </trkpt>
      <trkpt lat="49.95946" lon="2.28665">
        <ele>69.7</ele>
        <time>2022-12-28T14:20:14Z</time>
      </trkpt>
      <trkpt lat="49.95944" lon="2.28666">
        <ele>69.7</ele>
        <time>2022-12-28T14:20:15Z</time>
      </trkpt>
      <trkpt lat="49.95944" lon="2.28667">
        <ele>69.7</ele>
        <time>2022-12-28T14:20:16Z</time>
      </trkpt>
      <trkpt lat="49.95943" lon="2.28668">
        <ele>69.7</ele>
        <time>2022-12-28T14:20:17Z</time>
      </trkpt>
      <trkpt lat="49.95942" lon="2.28669">
        <ele>69.6</ele>
        <time>2022-12-28T14:20:18Z</time>
      </trkpt>
      <trkpt lat="49.95941" lon="2.28669">
        <ele>69.6</ele>
        <time>2022-12-28T14:20:19Z</time>
      </trkpt>
      <trkpt lat="49.95939" lon="2.28671">
        <ele>69.6</ele>
        <time>2022-12-28T14:20:21Z</time>
      </trkpt>
      <trkpt lat="49.95939" lon="2.28671">
        <ele>69.6</ele>
        <time>2022-12-28T14:20:22Z</time>
      </trkpt>
      <trkpt lat="49.95937" lon="2.28672">
        <ele>69.6</ele>
        <time>2022-12-28T14:20:23Z</time>
      </trkpt>
      <trkpt lat="49.95936" lon="2.28673">
        <ele>69.5</ele>
        <time>2022-12-28T14:20:24Z</time>
      </trkpt>
      <trkpt lat="49.95935" lon="2.28674">
        <ele>69.5</ele>
        <time>2022-12-28T14:20:25Z</time>
      </trkpt>
      <trkpt lat="49.95935" lon="2.28674">
        <ele>69.5</ele>
        <time>2022-12-28T14:20:26Z</time>
      </trkpt>
      <trkpt lat="49.95934" lon="2.28675">
        <ele>69.5</ele>
        <time>2022-12-28T14:20:27Z</time>
      </trkpt>
      <trkpt lat="49.95932" lon="2.28676">
        <ele>69.5</ele>
        <time>2022-12-28T14:20:28Z</time>
      </trkpt>
      <trkpt lat="49.95931" lon="2.28676">
        <ele>69.5</ele>
        <time>2022-12-28T14:20:30Z</time>
      </trkpt>
      <trkpt lat="49.9593" lon="2.28677">
        <ele>69.5</ele>
        <time>2022-12-28T14:20:31Z</time>
      </trkpt>
      <trkpt lat="49.95928" lon="2.28678">
        <ele>69.4</ele>
        <time>2022-12-28T14:20:32Z</time>
      </trkpt>
      <trkpt lat="49.95927" lon="2.28678">
        <ele>69.4</ele>
        <time>2022-12-28T14:20:33Z</time>
      </trkpt>
      <trkpt lat="49.95927" lon="2.28679">
        <ele>69.4</ele>
        <time>2022-12-28T14:20:34Z</time>
      </trkpt>
      <trkpt lat="49.95926" lon="2.28679">
        <ele>69.4</ele>
        <time>2022-12-28T14:20:35Z</time>
      </trkpt>
      <trkpt lat="49.95924" lon="2.28681">
        <ele>69.4</ele>
        <time>2022-12-28T14:20:36Z</time>
      </trkpt>
      <trkpt lat="49.95923" lon="2.28681">
        <ele>69.3</ele>
        <time>2022-12-28T14:20:37Z</time>
      </trkpt>
      <trkpt lat="49.95922" lon="2.28682">
        <ele>69.3</ele>
        <time>2022-12-28T14:20:39Z</time>
      </trkpt>
      <trkpt lat="49.95921" lon="2.28682">
        <ele>69.3</ele>
        <time>2022-12-28T14:20:40Z</time>
      </trkpt>
      <trkpt lat="49.95919" lon="2.28683">
        <ele>69.3</ele>
        <time>2022-12-28T14:20:41Z</time>
      </trkpt>
      <trkpt lat="49.95918" lon="2.28684">
        <ele>69.2</ele>
        <time>2022-12-28T14:20:42Z</time>
      </trkpt>
      <trkpt lat="49.95917" lon="2.28685">
        <ele>69.2</ele>
        <time>2022-12-28T14:20:43Z</time>
      </trkpt>
      <trkpt lat="49.95916" lon="2.28686">
        <ele>69.2</ele>
        <time>2022-12-28T14:20:44Z</time>
      </trkpt>
      <trkpt lat="49.95915" lon="2.28688">
        <ele>69.2</ele>
        <time>2022-12-28T14:20:46Z</time>
      </trkpt>
      <trkpt lat="49.95914" lon="2.28688">
        <ele>69.2</ele>
        <time>2022-12-28T14:20:47Z</time>
      </trkpt>
      <trkpt lat="49.95913" lon="2.28689">
        <ele>69.1</ele>
        <time>2022-12-28T14:20:48Z</time>
      </trkpt>
      <trkpt lat="49.95912" lon="2.28689">
        <ele>69.1</ele>
        <time>2022-12-28T14:20:49Z</time>
      </trkpt>
      <trkpt lat="49.9591" lon="2.2869">
        <ele>69.1</ele>
        <time>2022-12-28T14:20:50Z</time>
      </trkpt>
      <trkpt lat="49.95909" lon="2.2869">
        <ele>69.1</ele>
        <time>2022-12-28T14:20:51Z</time>
      </trkpt>
      <trkpt lat="49.95907" lon="2.28691">
        <ele>69</ele>
        <time>2022-12-28T14:20:53Z</time>
      </trkpt>
      <trkpt lat="49.95906" lon="2.28691">
        <ele>69</ele>
        <time>2022-12-28T14:20:54Z</time>
      </trkpt>
      <trkpt lat="49.95904" lon="2.28692">
        <ele>69</ele>
        <time>2022-12-28T14:20:55Z</time>
      </trkpt>
      <trkpt lat="49.95903" lon="2.28692">
        <ele>68.9</ele>
        <time>2022-12-28T14:20:56Z</time>
      </trkpt>
      <trkpt lat="49.95902" lon="2.28693">
        <ele>68.9</ele>
        <time>2022-12-28T14:20:57Z</time>
      </trkpt>
      <trkpt lat="49.959" lon="2.28694">
        <ele>68.9</ele>
        <time>2022-12-28T14:20:58Z</time>
      </trkpt>
      <trkpt lat="49.95899" lon="2.28694">
        <ele>68.8</ele>
        <time>2022-12-28T14:21:00Z</time>
      </trkpt>
      <trkpt lat="49.95898" lon="2.28695">
        <ele>68.8</ele>
        <time>2022-12-28T14:21:01Z</time>
      </trkpt>
      <trkpt lat="49.95897" lon="2.28696">
        <ele>68.8</ele>
        <time>2022-12-28T14:21:02Z</time>
      </trkpt>
      <trkpt lat="49.95896" lon="2.28696">
        <ele>68.8</ele>
        <time>2022-12-28T14:21:03Z</time>
      </trkpt>
      <trkpt lat="49.95895" lon="2.28698">
        <ele>68.7</ele>
        <time>2022-12-28T14:21:04Z</time>
      </trkpt>
      <trkpt lat="49.95894" lon="2.28698">
        <ele>68.7</ele>
        <time>2022-12-28T14:21:05Z</time>
      </trkpt>
      <trkpt lat="49.95893" lon="2.28699">
        <ele>68.7</ele>
        <time>2022-12-28T14:21:06Z</time>
      </trkpt>
      <trkpt lat="49.95892" lon="2.28699">
        <ele>68.7</ele>
        <time>2022-12-28T14:21:07Z</time>
      </trkpt>
      <trkpt lat="49.95891" lon="2.287">
        <ele>68.6</ele>
        <time>2022-12-28T14:21:08Z</time>
      </trkpt>
      <trkpt lat="49.9589" lon="2.28702">
        <ele>68.6</ele>
        <time>2022-12-28T14:21:10Z</time>
      </trkpt>
      <trkpt lat="49.95888" lon="2.28703">
        <ele>68.6</ele>
        <time>2022-12-28T14:21:11Z</time>
      </trkpt>
      <trkpt lat="49.95888" lon="2.28704">
        <ele>68.5</ele>
        <time>2022-12-28T14:21:12Z</time>
      </trkpt>
      <trkpt lat="49.95887" lon="2.28705">
        <ele>68.5</ele>
        <time>2022-12-28T14:21:13Z</time>
      </trkpt>
      <trkpt lat="49.95886" lon="2.28706">
        <ele>68.5</ele>
        <time>2022-12-28T14:21:14Z</time>
      </trkpt>
      <trkpt lat="49.95885" lon="2.28707">
        <ele>68.5</ele>
        <time>2022-12-28T14:21:15Z</time>
      </trkpt>
      <trkpt lat="49.95883" lon="2.28709">
        <ele>68.4</ele>
        <time>2022-12-28T14:21:16Z</time>
      </trkpt>
      <trkpt lat="49.95882" lon="2.28709">
        <ele>68.4</ele>
        <time>2022-12-28T14:21:17Z</time>
      </trkpt>
      <trkpt lat="49.95882" lon="2.28709">
        <ele>68.4</ele>
        <time>2022-12-28T14:21:18Z</time>
      </trkpt>
      <trkpt lat="49.9588" lon="2.2871">
        <ele>68.4</ele>
        <time>2022-12-28T14:21:20Z</time>
      </trkpt>
      <trkpt lat="49.95879" lon="2.28711">
        <ele>68.3</ele>
        <time>2022-12-28T14:21:21Z</time>
      </trkpt>
      <trkpt lat="49.95878" lon="2.28711">
        <ele>68.3</ele>
        <time>2022-12-28T14:21:22Z</time>
      </trkpt>
      <trkpt lat="49.95877" lon="2.28712">
        <ele>68.3</ele>
        <time>2022-12-28T14:21:23Z</time>
      </trkpt>
      <trkpt lat="49.95876" lon="2.28713">
        <ele>68.3</ele>
        <time>2022-12-28T14:21:24Z</time>
      </trkpt>
      <trkpt lat="49.95875" lon="2.28713">
        <ele>68.3</ele>
        <time>2022-12-28T14:21:25Z</time>
      </trkpt>
      <trkpt lat="49.95873" lon="2.28714">
        <ele>68.2</ele>
        <time>2022-12-28T14:21:26Z</time>
      </trkpt>
      <trkpt lat="49.95872" lon="2.28714">
        <ele>68.2</ele>
        <time>2022-12-28T14:21:27Z</time>
      </trkpt>
      <trkpt lat="49.95871" lon="2.28715">
        <ele>68.2</ele>
        <time>2022-12-28T14:21:28Z</time>
      </trkpt>
      <trkpt lat="49.95869" lon="2.28715">
        <ele>68.1</ele>
        <time>2022-12-28T14:21:30Z</time>
      </trkpt>
      <trkpt lat="49.95867" lon="2.28716">
        <ele>68.1</ele>
        <time>2022-12-28T14:21:31Z</time>
      </trkpt>
      <trkpt lat="49.95867" lon="2.28716">
        <ele>68.1</ele>
        <time>2022-12-28T14:21:32Z</time>
      </trkpt>
      <trkpt lat="49.95865" lon="2.28717">
        <ele>68</ele>
        <time>2022-12-28T14:21:33Z</time>
      </trkpt>
      <trkpt lat="49.95864" lon="2.28718">
        <ele>68</ele>
        <time>2022-12-28T14:21:34Z</time>
      </trkpt>
      <trkpt lat="49.95863" lon="2.28718">
        <ele>68</ele>
        <time>2022-12-28T14:21:35Z</time>
      </trkpt>
      <trkpt lat="49.95862" lon="2.28719">
        <ele>68</ele>
        <time>2022-12-28T14:21:36Z</time>
      </trkpt>
      <trkpt lat="49.95861" lon="2.2872">
        <ele>67.9</ele>
        <time>2022-12-28T14:21:37Z</time>
      </trkpt>
      <trkpt lat="49.9586" lon="2.28721">
        <ele>67.9</ele>
        <time>2022-12-28T14:21:38Z</time>
      </trkpt>
      <trkpt lat="49.95858" lon="2.28722">
        <ele>67.9</ele>
        <time>2022-12-28T14:21:39Z</time>
      </trkpt>
      <trkpt lat="49.95857" lon="2.28724">
        <ele>67.8</ele>
        <time>2022-12-28T14:21:41Z</time>
      </trkpt>
      <trkpt lat="49.95856" lon="2.28726">
        <ele>67.8</ele>
        <time>2022-12-28T14:21:42Z</time>
      </trkpt>
      <trkpt lat="49.95855" lon="2.28727">
        <ele>67.7</ele>
        <time>2022-12-28T14:21:43Z</time>
      </trkpt>
      <trkpt lat="49.95854" lon="2.28728">
        <ele>67.7</ele>
        <time>2022-12-28T14:21:44Z</time>
      </trkpt>
      <trkpt lat="49.95853" lon="2.28729">
        <ele>67.7</ele>
        <time>2022-12-28T14:21:45Z</time>
      </trkpt>
      <trkpt lat="49.95852" lon="2.2873">
        <ele>67.6</ele>
        <time>2022-12-28T14:21:46Z</time>
      </trkpt>
      <trkpt lat="49.95851" lon="2.28731">
        <ele>67.6</ele>
        <time>2022-12-28T14:21:47Z</time>
      </trkpt>
      <trkpt lat="49.9585" lon="2.28732">
        <ele>67.6</ele>
        <time>2022-12-28T14:21:48Z</time>
      </trkpt>
      <trkpt lat="49.95848" lon="2.28733">
        <ele>67.5</ele>
        <time>2022-12-28T14:21:50Z</time>
      </trkpt>
      <trkpt lat="49.95846" lon="2.28735">
        <ele>67.5</ele>
        <time>2022-12-28T14:21:51Z</time>
      </trkpt>
      <trkpt lat="49.95846" lon="2.28735">
        <ele>67.4</ele>
        <time>2022-12-28T14:21:52Z</time>
      </trkpt>
      <trkpt lat="49.95845" lon="2.28736">
        <ele>67.4</ele>
        <time>2022-12-28T14:21:53Z</time>
      </trkpt>
      <trkpt lat="49.95844" lon="2.28736">
        <ele>67.4</ele>
        <time>2022-12-28T14:21:54Z</time>
      </trkpt>
      <trkpt lat="49.95842" lon="2.28737">
        <ele>67.3</ele>
        <time>2022-12-28T14:21:55Z</time>
      </trkpt>
      <trkpt lat="49.95841" lon="2.28738">
        <ele>67.3</ele>
        <time>2022-12-28T14:21:57Z</time>
      </trkpt>
      <trkpt lat="49.95839" lon="2.28738">
        <ele>67.2</ele>
        <time>2022-12-28T14:21:58Z</time>
      </trkpt>
      <trkpt lat="49.95837" lon="2.28739">
        <ele>67.2</ele>
        <time>2022-12-28T14:21:59Z</time>
      </trkpt>
      <trkpt lat="49.95836" lon="2.28739">
        <ele>67.1</ele>
        <time>2022-12-28T14:22:00Z</time>
      </trkpt>
      <trkpt lat="49.95835" lon="2.2874">
        <ele>67.1</ele>
        <time>2022-12-28T14:22:01Z</time>
      </trkpt>
      <trkpt lat="49.95835" lon="2.28741">
        <ele>67.1</ele>
        <time>2022-12-28T14:22:02Z</time>
      </trkpt>
      <trkpt lat="49.95834" lon="2.28742">
        <ele>67.1</ele>
        <time>2022-12-28T14:22:03Z</time>
      </trkpt>
      <trkpt lat="49.95832" lon="2.28742">
        <ele>67</ele>
        <time>2022-12-28T14:22:04Z</time>
      </trkpt>
      <trkpt lat="49.95831" lon="2.28743">
        <ele>67</ele>
        <time>2022-12-28T14:22:06Z</time>
      </trkpt>
      <trkpt lat="49.9583" lon="2.28743">
        <ele>66.9</ele>
        <time>2022-12-28T14:22:07Z</time>
      </trkpt>
      <trkpt lat="49.95829" lon="2.28743">
        <ele>66.9</ele>
        <time>2022-12-28T14:22:08Z</time>
      </trkpt>
      <trkpt lat="49.95827" lon="2.28744">
        <ele>66.9</ele>
        <time>2022-12-28T14:22:09Z</time>
      </trkpt>
      <trkpt lat="49.95826" lon="2.28744">
        <ele>66.8</ele>
        <time>2022-12-28T14:22:10Z</time>
      </trkpt>
      <trkpt lat="49.95825" lon="2.28745">
        <ele>66.8</ele>
        <time>2022-12-28T14:22:11Z</time>
      </trkpt>
      <trkpt lat="49.95823" lon="2.28746">
        <ele>66.7</ele>
        <time>2022-12-28T14:22:13Z</time>
      </trkpt>
      <trkpt lat="49.95822" lon="2.28747">
        <ele>66.7</ele>
        <time>2022-12-28T14:22:14Z</time>
      </trkpt>
      <trkpt lat="49.95822" lon="2.28747">
        <ele>66.7</ele>
        <time>2022-12-28T14:22:15Z</time>
      </trkpt>
      <trkpt lat="49.9582" lon="2.28749">
        <ele>66.6</ele>
        <time>2022-12-28T14:22:16Z</time>
      </trkpt>
      <trkpt lat="49.95819" lon="2.28749">
        <ele>66.6</ele>
        <time>2022-12-28T14:22:17Z</time>
      </trkpt>
      <trkpt lat="49.95819" lon="2.2875">
        <ele>66.6</ele>
        <time>2022-12-28T14:22:18Z</time>
      </trkpt>
      <trkpt lat="49.95818" lon="2.28751">
        <ele>66.6</ele>
        <time>2022-12-28T14:22:19Z</time>
      </trkpt>
      <trkpt lat="49.95816" lon="2.28751">
        <ele>66.5</ele>
        <time>2022-12-28T14:22:20Z</time>
      </trkpt>
      <trkpt lat="49.95815" lon="2.28752">
        <ele>66.5</ele>
        <time>2022-12-28T14:22:22Z</time>
      </trkpt>
      <trkpt lat="49.95814" lon="2.28753">
        <ele>66.4</ele>
        <time>2022-12-28T14:22:23Z</time>
      </trkpt>
      <trkpt lat="49.95813" lon="2.28754">
        <ele>66.4</ele>
        <time>2022-12-28T14:22:24Z</time>
      </trkpt>
      <trkpt lat="49.95811" lon="2.28754">
        <ele>66.4</ele>
        <time>2022-12-28T14:22:25Z</time>
      </trkpt>
      <trkpt lat="49.9581" lon="2.28755">
        <ele>66.3</ele>
        <time>2022-12-28T14:22:26Z</time>
      </trkpt>
      <trkpt lat="49.95809" lon="2.28756">
        <ele>66.3</ele>
        <time>2022-12-28T14:22:27Z</time>
      </trkpt>
      <trkpt lat="49.95808" lon="2.28757">
        <ele>66.2</ele>
        <time>2022-12-28T14:22:28Z</time>
      </trkpt>
      <trkpt lat="49.95807" lon="2.28758">
        <ele>66.2</ele>
        <time>2022-12-28T14:22:30Z</time>
      </trkpt>
      <trkpt lat="49.95807" lon="2.28758">
        <ele>66.2</ele>
        <time>2022-12-28T14:22:31Z</time>
      </trkpt>
      <trkpt lat="49.95805" lon="2.2876">
        <ele>66.1</ele>
        <time>2022-12-28T14:22:32Z</time>
      </trkpt>
      <trkpt lat="49.95804" lon="2.28762">
        <ele>66.1</ele>
        <time>2022-12-28T14:22:33Z</time>
      </trkpt>
      <trkpt lat="49.95803" lon="2.28762">
        <ele>66</ele>
        <time>2022-12-28T14:22:34Z</time>
      </trkpt>
      <trkpt lat="49.95802" lon="2.28763">
        <ele>66</ele>
        <time>2022-12-28T14:22:35Z</time>
      </trkpt>
      <trkpt lat="49.95801" lon="2.28764">
        <ele>65.9</ele>
        <time>2022-12-28T14:22:36Z</time>
      </trkpt>
      <trkpt lat="49.958" lon="2.28765">
        <ele>65.9</ele>
        <time>2022-12-28T14:22:37Z</time>
      </trkpt>
      <trkpt lat="49.95798" lon="2.28766">
        <ele>65.8</ele>
        <time>2022-12-28T14:22:39Z</time>
      </trkpt>
      <trkpt lat="49.95797" lon="2.28766">
        <ele>65.8</ele>
        <time>2022-12-28T14:22:40Z</time>
      </trkpt>
      <trkpt lat="49.95796" lon="2.28767">
        <ele>65.8</ele>
        <time>2022-12-28T14:22:41Z</time>
      </trkpt>
      <trkpt lat="49.95795" lon="2.28767">
        <ele>65.7</ele>
        <time>2022-12-28T14:22:42Z</time>
      </trkpt>
      <trkpt lat="49.95794" lon="2.28768">
        <ele>65.7</ele>
        <time>2022-12-28T14:22:43Z</time>
      </trkpt>
      <trkpt lat="49.95793" lon="2.28769">
        <ele>65.7</ele>
        <time>2022-12-28T14:22:44Z</time>
      </trkpt>
      <trkpt lat="49.95792" lon="2.2877">
        <ele>65.6</ele>
        <time>2022-12-28T14:22:45Z</time>
      </trkpt>
      <trkpt lat="49.9579" lon="2.28771">
        <ele>65.6</ele>
        <time>2022-12-28T14:22:46Z</time>
      </trkpt>
      <trkpt lat="49.95789" lon="2.28771">
        <ele>65.6</ele>
        <time>2022-12-28T14:22:47Z</time>
      </trkpt>
      <trkpt lat="49.95787" lon="2.28772">
        <ele>65.5</ele>
        <time>2022-12-28T14:22:49Z</time>
      </trkpt>
      <trkpt lat="49.95786" lon="2.28772">
        <ele>65.5</ele>
        <time>2022-12-28T14:22:50Z</time>
      </trkpt>
      <trkpt lat="49.95785" lon="2.28774">
        <ele>65.5</ele>
        <time>2022-12-28T14:22:51Z</time>
      </trkpt>
      <trkpt lat="49.95784" lon="2.28774">
        <ele>65.4</ele>
        <time>2022-12-28T14:22:52Z</time>
      </trkpt>
      <trkpt lat="49.95782" lon="2.28775">
        <ele>65.4</ele>
        <time>2022-12-28T14:22:53Z</time>
      </trkpt>
      <trkpt lat="49.95781" lon="2.28776">
        <ele>65.4</ele>
        <time>2022-12-28T14:22:55Z</time>
      </trkpt>
      <trkpt lat="49.95779" lon="2.28776">
        <ele>65.3</ele>
        <time>2022-12-28T14:22:56Z</time>
      </trkpt>
      <trkpt lat="49.95778" lon="2.28777">
        <ele>65.3</ele>
        <time>2022-12-28T14:22:57Z</time>
      </trkpt>
      <trkpt lat="49.95776" lon="2.28778">
        <ele>65.3</ele>
        <time>2022-12-28T14:22:58Z</time>
      </trkpt>
      <trkpt lat="49.95775" lon="2.28778">
        <ele>65.3</ele>
        <time>2022-12-28T14:23:00Z</time>
      </trkpt>
      <trkpt lat="49.95775" lon="2.28779">
        <ele>65.3</ele>
        <time>2022-12-28T14:23:01Z</time>
      </trkpt>
      <trkpt lat="49.95773" lon="2.2878">
        <ele>65.2</ele>
        <time>2022-12-28T14:23:02Z</time>
      </trkpt>
      <trkpt lat="49.95772" lon="2.2878">
        <ele>65.2</ele>
        <time>2022-12-28T14:23:03Z</time>
      </trkpt>
      <trkpt lat="49.95771" lon="2.28781">
        <ele>65.2</ele>
        <time>2022-12-28T14:23:04Z</time>
      </trkpt>
      <trkpt lat="49.9577" lon="2.28782">
        <ele>65.2</ele>
        <time>2022-12-28T14:23:06Z</time>
      </trkpt>
      <trkpt lat="49.95768" lon="2.28782">
        <ele>65.2</ele>
        <time>2022-12-28T14:23:07Z</time>
      </trkpt>
      <trkpt lat="49.95768" lon="2.28783">
        <ele>65.1</ele>
        <time>2022-12-28T14:23:08Z</time>
      </trkpt>
      <trkpt lat="49.95767" lon="2.28784">
        <ele>65.1</ele>
        <time>2022-12-28T14:23:09Z</time>
      </trkpt>
      <trkpt lat="49.95766" lon="2.28785">
        <ele>65.1</ele>
        <time>2022-12-28T14:23:10Z</time>
      </trkpt>
      <trkpt lat="49.95765" lon="2.28786">
        <ele>65.1</ele>
        <time>2022-12-28T14:23:11Z</time>
      </trkpt>
      <trkpt lat="49.95764" lon="2.28787">
        <ele>65.1</ele>
        <time>2022-12-28T14:23:12Z</time>
      </trkpt>
      <trkpt lat="49.95763" lon="2.28787">
        <ele>65.1</ele>
        <time>2022-12-28T14:23:13Z</time>
      </trkpt>
      <trkpt lat="49.95761" lon="2.28788">
        <ele>65.1</ele>
        <time>2022-12-28T14:23:14Z</time>
      </trkpt>
      <trkpt lat="49.95761" lon="2.28789">
        <ele>65.1</ele>
        <time>2022-12-28T14:23:16Z</time>
      </trkpt>
      <trkpt lat="49.9576" lon="2.2879">
        <ele>65.1</ele>
        <time>2022-12-28T14:23:17Z</time>
      </trkpt>
      <trkpt lat="49.95759" lon="2.2879">
        <ele>65.1</ele>
        <time>2022-12-28T14:23:18Z</time>
      </trkpt>
      <trkpt lat="49.95758" lon="2.28791">
        <ele>65.1</ele>
        <time>2022-12-28T14:23:19Z</time>
      </trkpt>
      <trkpt lat="49.95757" lon="2.28792">
        <ele>65.1</ele>
        <time>2022-12-28T14:23:20Z</time>
      </trkpt>
      <trkpt lat="49.95755" lon="2.28793">
        <ele>65.1</ele>
        <time>2022-12-28T14:23:22Z</time>
      </trkpt>
      <trkpt lat="49.95755" lon="2.28792">
        <ele>65.1</ele>
        <time>2022-12-28T14:23:23Z</time>
      </trkpt>
      <trkpt lat="49.95753" lon="2.28792">
        <ele>65</ele>
        <time>2022-12-28T14:23:24Z</time>
      </trkpt>
      <trkpt lat="49.95751" lon="2.28792">
        <ele>65</ele>
        <time>2022-12-28T14:23:25Z</time>
      </trkpt>
      <trkpt lat="49.95751" lon="2.28793">
        <ele>65</ele>
        <time>2022-12-28T14:23:26Z</time>
      </trkpt>
      <trkpt lat="49.9575" lon="2.28793">
        <ele>65</ele>
        <time>2022-12-28T14:23:27Z</time>
      </trkpt>
      <trkpt lat="49.95749" lon="2.28794">
        <ele>65</ele>
        <time>2022-12-28T14:23:28Z</time>
      </trkpt>
      <trkpt lat="49.95748" lon="2.28795">
        <ele>65</ele>
        <time>2022-12-28T14:23:30Z</time>
      </trkpt>
      <trkpt lat="49.95747" lon="2.28796">
        <ele>65</ele>
        <time>2022-12-28T14:23:31Z</time>
      </trkpt>
      <trkpt lat="49.95744" lon="2.28797">
        <ele>65</ele>
        <time>2022-12-28T14:23:32Z</time>
      </trkpt>
      <trkpt lat="49.95744" lon="2.28798">
        <ele>65</ele>
        <time>2022-12-28T14:23:33Z</time>
      </trkpt>
      <trkpt lat="49.95743" lon="2.28798">
        <ele>65</ele>
        <time>2022-12-28T14:23:34Z</time>
      </trkpt>
      <trkpt lat="49.95742" lon="2.28799">
        <ele>65</ele>
        <time>2022-12-28T14:23:35Z</time>
      </trkpt>
      <trkpt lat="49.9574" lon="2.28801">
        <ele>65</ele>
        <time>2022-12-28T14:23:36Z</time>
      </trkpt>
      <trkpt lat="49.95739" lon="2.28802">
        <ele>65</ele>
        <time>2022-12-28T14:23:37Z</time>
      </trkpt>
      <trkpt lat="49.95738" lon="2.28802">
        <ele>65</ele>
        <time>2022-12-28T14:23:38Z</time>
      </trkpt>
      <trkpt lat="49.95737" lon="2.28803">
        <ele>65</ele>
        <time>2022-12-28T14:23:40Z</time>
      </trkpt>
      <trkpt lat="49.95736" lon="2.28804">
        <ele>65</ele>
        <time>2022-12-28T14:23:41Z</time>
      </trkpt>
      <trkpt lat="49.95734" lon="2.28804">
        <ele>65</ele>
        <time>2022-12-28T14:23:42Z</time>
      </trkpt>
      <trkpt lat="49.95733" lon="2.28805">
        <ele>65</ele>
        <time>2022-12-28T14:23:43Z</time>
      </trkpt>
      <trkpt lat="49.95732" lon="2.28805">
        <ele>65</ele>
        <time>2022-12-28T14:23:44Z</time>
      </trkpt>
      <trkpt lat="49.95731" lon="2.28806">
        <ele>65</ele>
        <time>2022-12-28T14:23:45Z</time>
      </trkpt>
      <trkpt lat="49.95729" lon="2.28807">
        <ele>65</ele>
        <time>2022-12-28T14:23:46Z</time>
      </trkpt>
      <trkpt lat="49.95728" lon="2.28808">
        <ele>65</ele>
        <time>2022-12-28T14:23:47Z</time>
      </trkpt>
      <trkpt lat="49.95727" lon="2.28809">
        <ele>65</ele>
        <time>2022-12-28T14:23:48Z</time>
      </trkpt>
      <trkpt lat="49.95726" lon="2.28809">
        <ele>65</ele>
        <time>2022-12-28T14:23:49Z</time>
      </trkpt>
      <trkpt lat="49.95725" lon="2.2881">
        <ele>65</ele>
        <time>2022-12-28T14:23:51Z</time>
      </trkpt>
      <trkpt lat="49.95723" lon="2.28811">
        <ele>65</ele>
        <time>2022-12-28T14:23:52Z</time>
      </trkpt>
      <trkpt lat="49.95722" lon="2.28812">
        <ele>65</ele>
        <time>2022-12-28T14:23:53Z</time>
      </trkpt>
      <trkpt lat="49.95722" lon="2.28812">
        <ele>65</ele>
        <time>2022-12-28T14:23:54Z</time>
      </trkpt>
      <trkpt lat="49.9572" lon="2.28813">
        <ele>65</ele>
        <time>2022-12-28T14:23:55Z</time>
      </trkpt>
      <trkpt lat="49.95719" lon="2.28814">
        <ele>65</ele>
        <time>2022-12-28T14:23:56Z</time>
      </trkpt>
      <trkpt lat="49.95718" lon="2.28815">
        <ele>65.1</ele>
        <time>2022-12-28T14:23:57Z</time>
      </trkpt>
      <trkpt lat="49.95717" lon="2.28816">
        <ele>65.1</ele>
        <time>2022-12-28T14:23:58Z</time>
      </trkpt>
      <trkpt lat="49.95716" lon="2.28816">
        <ele>65.1</ele>
        <time>2022-12-28T14:23:59Z</time>
      </trkpt>
      <trkpt lat="49.95715" lon="2.28817">
        <ele>65.1</ele>
        <time>2022-12-28T14:24:01Z</time>
      </trkpt>
      <trkpt lat="49.95713" lon="2.28818">
        <ele>65.1</ele>
        <time>2022-12-28T14:24:02Z</time>
      </trkpt>
      <trkpt lat="49.95713" lon="2.28819">
        <ele>65.1</ele>
        <time>2022-12-28T14:24:03Z</time>
      </trkpt>
      <trkpt lat="49.95712" lon="2.2882">
        <ele>65.1</ele>
        <time>2022-12-28T14:24:04Z</time>
      </trkpt>
      <trkpt lat="49.95711" lon="2.28821">
        <ele>65.1</ele>
        <time>2022-12-28T14:24:05Z</time>
      </trkpt>
      <trkpt lat="49.9571" lon="2.28822">
        <ele>65.1</ele>
        <time>2022-12-28T14:24:06Z</time>
      </trkpt>
      <trkpt lat="49.95709" lon="2.28823">
        <ele>65.1</ele>
        <time>2022-12-28T14:24:07Z</time>
      </trkpt>
      <trkpt lat="49.95708" lon="2.28824">
        <ele>65.2</ele>
        <time>2022-12-28T14:24:09Z</time>
      </trkpt>
      <trkpt lat="49.95706" lon="2.28824">
        <ele>65.2</ele>
        <time>2022-12-28T14:24:10Z</time>
      </trkpt>
      <trkpt lat="49.95705" lon="2.28825">
        <ele>65.2</ele>
        <time>2022-12-28T14:24:11Z</time>
      </trkpt>
      <trkpt lat="49.95704" lon="2.28825">
        <ele>65.2</ele>
        <time>2022-12-28T14:24:12Z</time>
      </trkpt>
      <trkpt lat="49.95703" lon="2.28826">
        <ele>65.2</ele>
        <time>2022-12-28T14:24:13Z</time>
      </trkpt>
      <trkpt lat="49.95702" lon="2.28827">
        <ele>65.2</ele>
        <time>2022-12-28T14:24:14Z</time>
      </trkpt>
      <trkpt lat="49.95701" lon="2.28827">
        <ele>65.3</ele>
        <time>2022-12-28T14:24:15Z</time>
      </trkpt>
      <trkpt lat="49.957" lon="2.28828">
        <ele>65.3</ele>
        <time>2022-12-28T14:24:16Z</time>
      </trkpt>
      <trkpt lat="49.95699" lon="2.28829">
        <ele>65.3</ele>
        <time>2022-12-28T14:24:18Z</time>
      </trkpt>
      <trkpt lat="49.95698" lon="2.2883">
        <ele>65.3</ele>
        <time>2022-12-28T14:24:19Z</time>
      </trkpt>
      <trkpt lat="49.95698" lon="2.2883">
        <ele>65.3</ele>
        <time>2022-12-28T14:24:20Z</time>
      </trkpt>
      <trkpt lat="49.95697" lon="2.28831">
        <ele>65.3</ele>
        <time>2022-12-28T14:24:21Z</time>
      </trkpt>
      <trkpt lat="49.95696" lon="2.28833">
        <ele>65.4</ele>
        <time>2022-12-28T14:24:22Z</time>
      </trkpt>
      <trkpt lat="49.95695" lon="2.28833">
        <ele>65.4</ele>
        <time>2022-12-28T14:24:23Z</time>
      </trkpt>
      <trkpt lat="49.95694" lon="2.28834">
        <ele>65.4</ele>
        <time>2022-12-28T14:24:25Z</time>
      </trkpt>
      <trkpt lat="49.95693" lon="2.28835">
        <ele>65.4</ele>
        <time>2022-12-28T14:24:26Z</time>
      </trkpt>
      <trkpt lat="49.95692" lon="2.28835">
        <ele>65.4</ele>
        <time>2022-12-28T14:24:27Z</time>
      </trkpt>
      <trkpt lat="49.95691" lon="2.28836">
        <ele>65.5</ele>
        <time>2022-12-28T14:24:28Z</time>
      </trkpt>
      <trkpt lat="49.9569" lon="2.28836">
        <ele>65.5</ele>
        <time>2022-12-28T14:24:29Z</time>
      </trkpt>
      <trkpt lat="49.9569" lon="2.28836">
        <ele>65.5</ele>
        <time>2022-12-28T14:24:30Z</time>
      </trkpt>
      <trkpt lat="49.95688" lon="2.28837">
        <ele>65.5</ele>
        <time>2022-12-28T14:24:32Z</time>
      </trkpt>
      <trkpt lat="49.95688" lon="2.28837">
        <ele>65.5</ele>
        <time>2022-12-28T14:24:33Z</time>
      </trkpt>
      <trkpt lat="49.95687" lon="2.28837">
        <ele>65.6</ele>
        <time>2022-12-28T14:24:34Z</time>
      </trkpt>
      <trkpt lat="49.95686" lon="2.28838">
        <ele>65.6</ele>
        <time>2022-12-28T14:24:35Z</time>
      </trkpt>
      <trkpt lat="49.95685" lon="2.28838">
        <ele>65.6</ele>
        <time>2022-12-28T14:24:36Z</time>
      </trkpt>
      <trkpt lat="49.95684" lon="2.28838">
        <ele>65.6</ele>
        <time>2022-12-28T14:24:37Z</time>
      </trkpt>
      <trkpt lat="49.95683" lon="2.28838">
        <ele>65.7</ele>
        <time>2022-12-28T14:24:38Z</time>
      </trkpt>
      <trkpt lat="49.95682" lon="2.28838">
        <ele>65.7</ele>
        <time>2022-12-28T14:24:40Z</time>
      </trkpt>
      <trkpt lat="49.95681" lon="2.28838">
        <ele>65.7</ele>
        <time>2022-12-28T14:24:41Z</time>
      </trkpt>
      <trkpt lat="49.9568" lon="2.28838">
        <ele>65.7</ele>
        <time>2022-12-28T14:24:42Z</time>
      </trkpt>
      <trkpt lat="49.9568" lon="2.28839">
        <ele>65.8</ele>
        <time>2022-12-28T14:24:43Z</time>
      </trkpt>
      <trkpt lat="49.95678" lon="2.2884">
        <ele>65.8</ele>
        <time>2022-12-28T14:24:45Z</time>
      </trkpt>
      <trkpt lat="49.95677" lon="2.2884">
        <ele>65.8</ele>
        <time>2022-12-28T14:24:46Z</time>
      </trkpt>
      <trkpt lat="49.95676" lon="2.28841">
        <ele>65.9</ele>
        <time>2022-12-28T14:24:47Z</time>
      </trkpt>
      <trkpt lat="49.95675" lon="2.28842">
        <ele>65.9</ele>
        <time>2022-12-28T14:24:48Z</time>
      </trkpt>
      <trkpt lat="49.95674" lon="2.28842">
        <ele>65.9</ele>
        <time>2022-12-28T14:24:50Z</time>
      </trkpt>
      <trkpt lat="49.95673" lon="2.28842">
        <ele>66</ele>
        <time>2022-12-28T14:24:51Z</time>
      </trkpt>
      <trkpt lat="49.95672" lon="2.28842">
        <ele>66</ele>
        <time>2022-12-28T14:24:52Z</time>
      </trkpt>
      <trkpt lat="49.95671" lon="2.28842">
        <ele>66</ele>
        <time>2022-12-28T14:24:53Z</time>
      </trkpt>
      <trkpt lat="49.9567" lon="2.28842">
        <ele>66</ele>
        <time>2022-12-28T14:24:54Z</time>
      </trkpt>
      <trkpt lat="49.95669" lon="2.28842">
        <ele>66.1</ele>
        <time>2022-12-28T14:24:55Z</time>
      </trkpt>
      <trkpt lat="49.95669" lon="2.28842">
        <ele>66.1</ele>
        <time>2022-12-28T14:24:56Z</time>
      </trkpt>
      <trkpt lat="49.95667" lon="2.28843">
        <ele>66.1</ele>
        <time>2022-12-28T14:24:58Z</time>
      </trkpt>
      <trkpt lat="49.95666" lon="2.28843">
        <ele>66.2</ele>
        <time>2022-12-28T14:24:59Z</time>
      </trkpt>
      <trkpt lat="49.95665" lon="2.28844">
        <ele>66.2</ele>
        <time>2022-12-28T14:25:00Z</time>
      </trkpt>
      <trkpt lat="49.95664" lon="2.28844">
        <ele>66.2</ele>
        <time>2022-12-28T14:25:01Z</time>
      </trkpt>
      <trkpt lat="49.95663" lon="2.28845">
        <ele>66.3</ele>
        <time>2022-12-28T14:25:03Z</time>
      </trkpt>
      <trkpt lat="49.95662" lon="2.28845">
        <ele>66.3</ele>
        <time>2022-12-28T14:25:04Z</time>
      </trkpt>
      <trkpt lat="49.95661" lon="2.28845">
        <ele>66.3</ele>
        <time>2022-12-28T14:25:05Z</time>
      </trkpt>
      <trkpt lat="49.9566" lon="2.28845">
        <ele>66.3</ele>
        <time>2022-12-28T14:25:06Z</time>
      </trkpt>
      <trkpt lat="49.95658" lon="2.28845">
        <ele>66.4</ele>
        <time>2022-12-28T14:25:08Z</time>
      </trkpt>
      <trkpt lat="49.95657" lon="2.28845">
        <ele>66.4</ele>
        <time>2022-12-28T14:25:09Z</time>
      </trkpt>
      <trkpt lat="49.95657" lon="2.28844">
        <ele>66.4</ele>
        <time>2022-12-28T14:25:10Z</time>
      </trkpt>
      <trkpt lat="49.95656" lon="2.28844">
        <ele>66.4</ele>
        <time>2022-12-28T14:25:11Z</time>
      </trkpt>
      <trkpt lat="49.95655" lon="2.28844">
        <ele>66.5</ele>
        <time>2022-12-28T14:25:12Z</time>
      </trkpt>
      <trkpt lat="49.95654" lon="2.28845">
        <ele>66.5</ele>
        <time>2022-12-28T14:25:13Z</time>
      </trkpt>
      <trkpt lat="49.95653" lon="2.28845">
        <ele>66.5</ele>
        <time>2022-12-28T14:25:14Z</time>
      </trkpt>
      <trkpt lat="49.95652" lon="2.28844">
        <ele>66.5</ele>
        <time>2022-12-28T14:25:16Z</time>
      </trkpt>
      <trkpt lat="49.95652" lon="2.28844">
        <ele>66.5</ele>
        <time>2022-12-28T14:25:17Z</time>
      </trkpt>
      <trkpt lat="49.9565" lon="2.28844">
        <ele>66.6</ele>
        <time>2022-12-28T14:25:18Z</time>
      </trkpt>
      <trkpt lat="49.9565" lon="2.28844">
        <ele>66.6</ele>
        <time>2022-12-28T14:25:19Z</time>
      </trkpt>
      <trkpt lat="49.95649" lon="2.28843">
        <ele>66.6</ele>
        <time>2022-12-28T14:25:20Z</time>
      </trkpt>
      <trkpt lat="49.95648" lon="2.28843">
        <ele>66.6</ele>
        <time>2022-12-28T14:25:21Z</time>
      </trkpt>
      <trkpt lat="49.95647" lon="2.28843">
        <ele>66.7</ele>
        <time>2022-12-28T14:25:23Z</time>
      </trkpt>
      <trkpt lat="49.95646" lon="2.28843">
        <ele>66.7</ele>
        <time>2022-12-28T14:25:24Z</time>
      </trkpt>
      <trkpt lat="49.95646" lon="2.28844">
        <ele>66.7</ele>
        <time>2022-12-28T14:25:26Z</time>
      </trkpt>
      <trkpt lat="49.95646" lon="2.28845">
        <ele>66.7</ele>
        <time>2022-12-28T14:25:27Z</time>
      </trkpt>
      <trkpt lat="49.95646" lon="2.28845">
        <ele>66.7</ele>
        <time>2022-12-28T14:25:29Z</time>
      </trkpt>
      <trkpt lat="49.95646" lon="2.28845">
        <ele>66.7</ele>
        <time>2022-12-28T14:25:30Z</time>
      </trkpt>
      <trkpt lat="49.95646" lon="2.28845">
        <ele>66.7</ele>
        <time>2022-12-28T14:25:31Z</time>
      </trkpt>
      <trkpt lat="49.95646" lon="2.28845">
        <ele>66.7</ele>
        <time>2022-12-28T14:25:33Z</time>
      </trkpt>
      <trkpt lat="49.95646" lon="2.28845">
        <ele>66.7</ele>
        <time>2022-12-28T14:25:34Z</time>
      </trkpt>
      <trkpt lat="49.95646" lon="2.28846">
        <ele>66.7</ele>
        <time>2022-12-28T14:25:36Z</time>
      </trkpt>
      <trkpt lat="49.95646" lon="2.28846">
        <ele>66.7</ele>
        <time>2022-12-28T14:25:37Z</time>
      </trkpt>
      <trkpt lat="49.95646" lon="2.28846">
        <ele>66.7</ele>
        <time>2022-12-28T14:25:38Z</time>
      </trkpt>
      <trkpt lat="49.95646" lon="2.28846">
        <ele>66.7</ele>
        <time>2022-12-28T14:25:40Z</time>
      </trkpt>
      <trkpt lat="49.95646" lon="2.28846">
        <ele>66.8</ele>
        <time>2022-12-28T14:25:41Z</time>
      </trkpt>
      <trkpt lat="49.95647" lon="2.28845">
        <ele>66.8</ele>
        <time>2022-12-28T14:25:42Z</time>
      </trkpt>
      <trkpt lat="49.95647" lon="2.28845">
        <ele>66.8</ele>
        <time>2022-12-28T14:25:43Z</time>
      </trkpt>
      <trkpt lat="49.95647" lon="2.28845">
        <ele>66.8</ele>
        <time>2022-12-28T14:25:44Z</time>
      </trkpt>
      <trkpt lat="49.95647" lon="2.28845">
        <ele>66.8</ele>
        <time>2022-12-28T14:25:45Z</time>
      </trkpt>
      <trkpt lat="49.95647" lon="2.28845">
        <ele>66.8</ele>
        <time>2022-12-28T14:25:46Z</time>
      </trkpt>
      <trkpt lat="49.95647" lon="2.28845">
        <ele>66.8</ele>
        <time>2022-12-28T14:25:47Z</time>
      </trkpt>
      <trkpt lat="49.95647" lon="2.28845">
        <ele>66.8</ele>
        <time>2022-12-28T14:25:48Z</time>
      </trkpt>
      <trkpt lat="49.95647" lon="2.28845">
        <ele>66.8</ele>
        <time>2022-12-28T14:25:49Z</time>
      </trkpt>
      <trkpt lat="49.95647" lon="2.28845">
        <ele>66.8</ele>
        <time>2022-12-28T14:25:50Z</time>
      </trkpt>
      <trkpt lat="49.95647" lon="2.28845">
        <ele>66.8</ele>
        <time>2022-12-28T14:25:51Z</time>
      </trkpt>
      <trkpt lat="49.95647" lon="2.28845">
        <ele>66.8</ele>
        <time>2022-12-28T14:25:52Z</time>
      </trkpt>
      <trkpt lat="49.95647" lon="2.28845">
        <ele>66.8</ele>
        <time>2022-12-28T14:25:53Z</time>
      </trkpt>
      <trkpt lat="49.95647" lon="2.28845">
        <ele>66.8</ele>
        <time>2022-12-28T14:25:54Z</time>
      </trkpt>
      <trkpt lat="49.95647" lon="2.28845">
        <ele>66.8</ele>
        <time>2022-12-28T14:25:55Z</time>
      </trkpt>
      <trkpt lat="49.95647" lon="2.28845">
        <ele>66.8</ele>
        <time>2022-12-28T14:25:56Z</time>
      </trkpt>
      <trkpt lat="49.95647" lon="2.28845">
        <ele>66.8</ele>
        <time>2022-12-28T14:25:57Z</time>
      </trkpt>
      <trkpt lat="49.95647" lon="2.28845">
        <ele>66.8</ele>
        <time>2022-12-28T14:25:58Z</time>
      </trkpt>
      <trkpt lat="49.95647" lon="2.28845">
        <ele>66.8</ele>
        <time>2022-12-28T14:25:59Z</time>
      </trkpt>
      <trkpt lat="49.95647" lon="2.28845">
        <ele>66.8</ele>
        <time>2022-12-28T14:26:00Z</time>
      </trkpt>
      <trkpt lat="49.95647" lon="2.28845">
        <ele>66.8</ele>
        <time>2022-12-28T14:26:01Z</time>
      </trkpt>
      <trkpt lat="49.95647" lon="2.28845">
        <ele>66.8</ele>
        <time>2022-12-28T14:26:02Z</time>
      </trkpt>
      <trkpt lat="49.95647" lon="2.28845">
        <ele>66.8</ele>
        <time>2022-12-28T14:26:03Z</time>
      </trkpt>
      <trkpt lat="49.95647" lon="2.28845">
        <ele>66.8</ele>
        <time>2022-12-28T14:26:04Z</time>
      </trkpt>
      <trkpt lat="49.95647" lon="2.28845">
        <ele>66.8</ele>
        <time>2022-12-28T14:26:05Z</time>
      </trkpt>
      <trkpt lat="49.95647" lon="2.28845">
        <ele>66.8</ele>
        <time>2022-12-28T14:26:06Z</time>
      </trkpt>
      <trkpt lat="49.95647" lon="2.28845">
        <ele>66.8</ele>
        <time>2022-12-28T14:26:07Z</time>
      </trkpt>
      <trkpt lat="49.95647" lon="2.28845">
        <ele>66.8</ele>
        <time>2022-12-28T14:26:08Z</time>
      </trkpt>
      <trkpt lat="49.95647" lon="2.28845">
        <ele>66.8</ele>
        <time>2022-12-28T14:26:09Z</time>
      </trkpt>
      <trkpt lat="49.95647" lon="2.28845">
        <ele>66.8</ele>
        <time>2022-12-28T14:26:10Z</time>
      </trkpt>
      <trkpt lat="49.95647" lon="2.28845">
        <ele>66.8</ele>
        <time>2022-12-28T14:26:11Z</time>
      </trkpt>
      <trkpt lat="49.95647" lon="2.28845">
        <ele>66.8</ele>
        <time>2022-12-28T14:26:12Z</time>
      </trkpt>
      <trkpt lat="49.95647" lon="2.28845">
        <ele>66.8</ele>
        <time>2022-12-28T14:26:13Z</time>
      </trkpt>
      <trkpt lat="49.95647" lon="2.28845">
        <ele>66.8</ele>
        <time>2022-12-28T14:26:14Z</time>
      </trkpt>
      <trkpt lat="49.95647" lon="2.28845">
        <ele>66.8</ele>
        <time>2022-12-28T14:26:15Z</time>
      </trkpt>
      <trkpt lat="49.95647" lon="2.28845">
        <ele>66.8</ele>
        <time>2022-12-28T14:26:16Z</time>
      </trkpt>
      <trkpt lat="49.95647" lon="2.28845">
        <ele>66.8</ele>
        <time>2022-12-28T14:26:17Z</time>
      </trkpt>
      <trkpt lat="49.95647" lon="2.28845">
        <ele>66.8</ele>
        <time>2022-12-28T14:26:18Z</time>
      </trkpt>
      <trkpt lat="49.95647" lon="2.28845">
        <ele>66.8</ele>
        <time>2022-12-28T14:26:19Z</time>
      </trkpt>
      <trkpt lat="49.95647" lon="2.28845">
        <ele>66.8</ele>
        <time>2022-12-28T14:26:20Z</time>
      </trkpt>
      <trkpt lat="49.95647" lon="2.28845">
        <ele>66.8</ele>
        <time>2022-12-28T14:26:21Z</time>
      </trkpt>
      <trkpt lat="49.95647" lon="2.28845">
        <ele>66.8</ele>
        <time>2022-12-28T14:26:22Z</time>
      </trkpt>
      <trkpt lat="49.95647" lon="2.28845">
        <ele>66.8</ele>
        <time>2022-12-28T14:26:23Z</time>
      </trkpt>
      <trkpt lat="49.95647" lon="2.28845">
        <ele>66.8</ele>
        <time>2022-12-28T14:26:24Z</time>
      </trkpt>
      <trkpt lat="49.95647" lon="2.28845">
        <ele>66.8</ele>
        <time>2022-12-28T14:26:25Z</time>
      </trkpt>
      <trkpt lat="49.95647" lon="2.28845">
        <ele>66.8</ele>
        <time>2022-12-28T14:26:26Z</time>
      </trkpt>
      <trkpt lat="49.95647" lon="2.28845">
        <ele>66.8</ele>
        <time>2022-12-28T14:26:27Z</time>
      </trkpt>
      <trkpt lat="49.95647" lon="2.28845">
        <ele>66.8</ele>
        <time>2022-12-28T14:26:28Z</time>
      </trkpt>
      <trkpt lat="49.95647" lon="2.28845">
        <ele>66.8</ele>
        <time>2022-12-28T14:26:29Z</time>
      </trkpt>
      <trkpt lat="49.95647" lon="2.28845">
        <ele>66.8</ele>
        <time>2022-12-28T14:26:30Z</time>
      </trkpt>
      <trkpt lat="49.95647" lon="2.28845">
        <ele>66.8</ele>
        <time>2022-12-28T14:26:31Z</time>
      </trkpt>
      <trkpt lat="49.95647" lon="2.28845">
        <ele>66.8</ele>
        <time>2022-12-28T14:26:32Z</time>
      </trkpt>
      <trkpt lat="49.95647" lon="2.28845">
        <ele>66.8</ele>
        <time>2022-12-28T14:26:33Z</time>
      </trkpt>
      <trkpt lat="49.95647" lon="2.28845">
        <ele>66.8</ele>
        <time>2022-12-28T14:26:34Z</time>
      </trkpt>
      <trkpt lat="49.95647" lon="2.28845">
        <ele>66.8</ele>
        <time>2022-12-28T14:26:35Z</time>
      </trkpt>
      <trkpt lat="49.95647" lon="2.28845">
        <ele>66.8</ele>
        <time>2022-12-28T14:26:36Z</time>
      </trkpt>
      <trkpt lat="49.95647" lon="2.28845">
        <ele>66.8</ele>
        <time>2022-12-28T14:26:37Z</time>
      </trkpt>
      <trkpt lat="49.95647" lon="2.28845">
        <ele>66.8</ele>
        <time>2022-12-28T14:26:38Z</time>
      </trkpt>
      <trkpt lat="49.95647" lon="2.28845">
        <ele>66.8</ele>
        <time>2022-12-28T14:26:39Z</time>
      </trkpt>
      <trkpt lat="49.95647" lon="2.28845">
        <ele>66.8</ele>
        <time>2022-12-28T14:26:40Z</time>
      </trkpt>
      <trkpt lat="49.95647" lon="2.28845">
        <ele>66.8</ele>
        <time>2022-12-28T14:26:41Z</time>
      </trkpt>
      <trkpt lat="49.95647" lon="2.28845">
        <ele>66.8</ele>
        <time>2022-12-28T14:26:42Z</time>
      </trkpt>
      <trkpt lat="49.95647" lon="2.28845">
        <ele>66.8</ele>
        <time>2022-12-28T14:26:43Z</time>
      </trkpt>
      <trkpt lat="49.95647" lon="2.28845">
        <ele>66.8</ele>
        <time>2022-12-28T14:26:44Z</time>
      </trkpt>
      <trkpt lat="49.95647" lon="2.28845">
        <ele>66.8</ele>
        <time>2022-12-28T14:26:45Z</time>
      </trkpt>
      <trkpt lat="49.95647" lon="2.28845">
        <ele>66.8</ele>
        <time>2022-12-28T14:26:46Z</time>
      </trkpt>
      <trkpt lat="49.95647" lon="2.28845">
        <ele>66.8</ele>
        <time>2022-12-28T14:26:47Z</time>
      </trkpt>
      <trkpt lat="49.95647" lon="2.28845">
        <ele>66.8</ele>
        <time>2022-12-28T14:26:48Z</time>
      </trkpt>
      <trkpt lat="49.95647" lon="2.28845">
        <ele>66.8</ele>
        <time>2022-12-28T14:26:49Z</time>
      </trkpt>
      <trkpt lat="49.95647" lon="2.28845">
        <ele>66.8</ele>
        <time>2022-12-28T14:26:50Z</time>
      </trkpt>
      <trkpt lat="49.95647" lon="2.28845">
        <ele>66.8</ele>
        <time>2022-12-28T14:26:51Z</time>
      </trkpt>
      <trkpt lat="49.95647" lon="2.28845">
        <ele>66.8</ele>
        <time>2022-12-28T14:26:52Z</time>
      </trkpt>
      <trkpt lat="49.95647" lon="2.28845">
        <ele>66.8</ele>
        <time>2022-12-28T14:26:53Z</time>
      </trkpt>
      <trkpt lat="49.95647" lon="2.28845">
        <ele>66.8</ele>
        <time>2022-12-28T14:26:54Z</time>
      </trkpt>
      <trkpt lat="49.95647" lon="2.28845">
        <ele>66.8</ele>
        <time>2022-12-28T14:26:55Z</time>
      </trkpt>
      <trkpt lat="49.95647" lon="2.28845">
        <ele>66.8</ele>
        <time>2022-12-28T14:26:56Z</time>
      </trkpt>
      <trkpt lat="49.95647" lon="2.28845">
        <ele>66.8</ele>
        <time>2022-12-28T14:26:57Z</time>
      </trkpt>
      <trkpt lat="49.95647" lon="2.28845">
        <ele>66.8</ele>
        <time>2022-12-28T14:26:58Z</time>
      </trkpt>
      <trkpt lat="49.95647" lon="2.28845">
        <ele>66.8</ele>
        <time>2022-12-28T14:26:59Z</time>
      </trkpt>
      <trkpt lat="49.95647" lon="2.28845">
        <ele>66.8</ele>
        <time>2022-12-28T14:27:00Z</time>
      </trkpt>
      <trkpt lat="49.95647" lon="2.28845">
        <ele>66.8</ele>
        <time>2022-12-28T14:27:01Z</time>
      </trkpt>
      <trkpt lat="49.95647" lon="2.28845">
        <ele>66.8</ele>
        <time>2022-12-28T14:27:02Z</time>
      </trkpt>
      <trkpt lat="49.95647" lon="2.28845">
        <ele>66.8</ele>
        <time>2022-12-28T14:27:03Z</time>
      </trkpt>
      <trkpt lat="49.95647" lon="2.28845">
        <ele>66.8</ele>
        <time>2022-12-28T14:27:04Z</time>
      </trkpt>
      <trkpt lat="49.95647" lon="2.28845">
        <ele>66.8</ele>
        <time>2022-12-28T14:27:05Z</time>
      </trkpt>
      <trkpt lat="49.95647" lon="2.28845">
        <ele>66.8</ele>
        <time>2022-12-28T14:27:06Z</time>
      </trkpt>
      <trkpt lat="49.95648" lon="2.28845">
        <ele>66.8</ele>
        <time>2022-12-28T14:27:07Z</time>
      </trkpt>
      <trkpt lat="49.9565" lon="2.28844">
        <ele>66.8</ele>
        <time>2022-12-28T14:27:08Z</time>
      </trkpt>
      <trkpt lat="49.95649" lon="2.28844">
        <ele>66.8</ele>
        <time>2022-12-28T14:27:09Z</time>
      </trkpt>
      <trkpt lat="49.95648" lon="2.28845">
        <ele>66.9</ele>
        <time>2022-12-28T14:27:10Z</time>
      </trkpt>
      <trkpt lat="49.95647" lon="2.28845">
        <ele>66.9</ele>
        <time>2022-12-28T14:27:11Z</time>
      </trkpt>
      <trkpt lat="49.95647" lon="2.28846">
        <ele>66.9</ele>
        <time>2022-12-28T14:27:12Z</time>
      </trkpt>
      <trkpt lat="49.95646" lon="2.28847">
        <ele>66.9</ele>
        <time>2022-12-28T14:27:13Z</time>
      </trkpt>
      <trkpt lat="49.95645" lon="2.28847">
        <ele>67</ele>
        <time>2022-12-28T14:27:14Z</time>
      </trkpt>
      <trkpt lat="49.95644" lon="2.28847">
        <ele>67</ele>
        <time>2022-12-28T14:27:15Z</time>
      </trkpt>
      <trkpt lat="49.95643" lon="2.28847">
        <ele>67</ele>
        <time>2022-12-28T14:27:16Z</time>
      </trkpt>
      <trkpt lat="49.95642" lon="2.28848">
        <ele>67</ele>
        <time>2022-12-28T14:27:17Z</time>
      </trkpt>
      <trkpt lat="49.9564" lon="2.28848">
        <ele>67.1</ele>
        <time>2022-12-28T14:27:18Z</time>
      </trkpt>
      <trkpt lat="49.95639" lon="2.28849">
        <ele>67.1</ele>
        <time>2022-12-28T14:27:20Z</time>
      </trkpt>
      <trkpt lat="49.95638" lon="2.28849">
        <ele>67.1</ele>
        <time>2022-12-28T14:27:21Z</time>
      </trkpt>
      <trkpt lat="49.95637" lon="2.2885">
        <ele>67.1</ele>
        <time>2022-12-28T14:27:22Z</time>
      </trkpt>
      <trkpt lat="49.95635" lon="2.2885">
        <ele>67.2</ele>
        <time>2022-12-28T14:27:23Z</time>
      </trkpt>
      <trkpt lat="49.95634" lon="2.28851">
        <ele>67.2</ele>
        <time>2022-12-28T14:27:24Z</time>
      </trkpt>
      <trkpt lat="49.95633" lon="2.28851">
        <ele>67.2</ele>
        <time>2022-12-28T14:27:25Z</time>
      </trkpt>
      <trkpt lat="49.95632" lon="2.28852">
        <ele>67.2</ele>
        <time>2022-12-28T14:27:26Z</time>
      </trkpt>
      <trkpt lat="49.9563" lon="2.28854">
        <ele>67.2</ele>
        <time>2022-12-28T14:27:28Z</time>
      </trkpt>
      <trkpt lat="49.95629" lon="2.28854">
        <ele>67.3</ele>
        <time>2022-12-28T14:27:29Z</time>
      </trkpt>
      <trkpt lat="49.95628" lon="2.28855">
        <ele>67.3</ele>
        <time>2022-12-28T14:27:31Z</time>
      </trkpt>
      <trkpt lat="49.95627" lon="2.28855">
        <ele>67.3</ele>
        <time>2022-12-28T14:27:32Z</time>
      </trkpt>
      <trkpt lat="49.95626" lon="2.28856">
        <ele>67.3</ele>
        <time>2022-12-28T14:27:33Z</time>
      </trkpt>
      <trkpt lat="49.95625" lon="2.28856">
        <ele>67.3</ele>
        <time>2022-12-28T14:27:34Z</time>
      </trkpt>
      <trkpt lat="49.95625" lon="2.28857">
        <ele>67.3</ele>
        <time>2022-12-28T14:27:35Z</time>
      </trkpt>
      <trkpt lat="49.95625" lon="2.28858">
        <ele>67.3</ele>
        <time>2022-12-28T14:27:36Z</time>
      </trkpt>
      <trkpt lat="49.95624" lon="2.28858">
        <ele>67.3</ele>
        <time>2022-12-28T14:27:37Z</time>
      </trkpt>
      <trkpt lat="49.95624" lon="2.2886">
        <ele>67.3</ele>
        <time>2022-12-28T14:27:38Z</time>
      </trkpt>
      <trkpt lat="49.95623" lon="2.28861">
        <ele>67.3</ele>
        <time>2022-12-28T14:27:39Z</time>
      </trkpt>
      <trkpt lat="49.95623" lon="2.28862">
        <ele>67.3</ele>
        <time>2022-12-28T14:27:40Z</time>
      </trkpt>
      <trkpt lat="49.95622" lon="2.28863">
        <ele>67.4</ele>
        <time>2022-12-28T14:27:41Z</time>
      </trkpt>
      <trkpt lat="49.95621" lon="2.28863">
        <ele>67.4</ele>
        <time>2022-12-28T14:27:42Z</time>
      </trkpt>
      <trkpt lat="49.9562" lon="2.28865">
        <ele>67.4</ele>
        <time>2022-12-28T14:27:44Z</time>
      </trkpt>
      <trkpt lat="49.9562" lon="2.28865">
        <ele>67.4</ele>
        <time>2022-12-28T14:27:45Z</time>
      </trkpt>
      <trkpt lat="49.95619" lon="2.28866">
        <ele>67.4</ele>
        <time>2022-12-28T14:27:46Z</time>
      </trkpt>
      <trkpt lat="49.95618" lon="2.28867">
        <ele>67.4</ele>
        <time>2022-12-28T14:27:47Z</time>
      </trkpt>
      <trkpt lat="49.95617" lon="2.28868">
        <ele>67.4</ele>
        <time>2022-12-28T14:27:48Z</time>
      </trkpt>
      <trkpt lat="49.95616" lon="2.28868">
        <ele>67.4</ele>
        <time>2022-12-28T14:27:50Z</time>
      </trkpt>
      <trkpt lat="49.95615" lon="2.28869">
        <ele>67.4</ele>
        <time>2022-12-28T14:27:51Z</time>
      </trkpt>
      <trkpt lat="49.95614" lon="2.28869">
        <ele>67.4</ele>
        <time>2022-12-28T14:27:52Z</time>
      </trkpt>
      <trkpt lat="49.95614" lon="2.28869">
        <ele>67.4</ele>
        <time>2022-12-28T14:27:53Z</time>
      </trkpt>
      <trkpt lat="49.95613" lon="2.2887">
        <ele>67.5</ele>
        <time>2022-12-28T14:27:54Z</time>
      </trkpt>
      <trkpt lat="49.95612" lon="2.2887">
        <ele>67.5</ele>
        <time>2022-12-28T14:27:55Z</time>
      </trkpt>
      <trkpt lat="49.95611" lon="2.2887">
        <ele>67.5</ele>
        <time>2022-12-28T14:27:56Z</time>
      </trkpt>
      <trkpt lat="49.9561" lon="2.2887">
        <ele>67.5</ele>
        <time>2022-12-28T14:27:57Z</time>
      </trkpt>
      <trkpt lat="49.95608" lon="2.2887">
        <ele>67.5</ele>
        <time>2022-12-28T14:27:58Z</time>
      </trkpt>
      <trkpt lat="49.95608" lon="2.2887">
        <ele>67.5</ele>
        <time>2022-12-28T14:27:59Z</time>
      </trkpt>
      <trkpt lat="49.95607" lon="2.28869">
        <ele>67.5</ele>
        <time>2022-12-28T14:28:01Z</time>
      </trkpt>
      <trkpt lat="49.95606" lon="2.28868">
        <ele>67.5</ele>
        <time>2022-12-28T14:28:02Z</time>
      </trkpt>
      <trkpt lat="49.95605" lon="2.28868">
        <ele>67.5</ele>
        <time>2022-12-28T14:28:03Z</time>
      </trkpt>
      <trkpt lat="49.95604" lon="2.28868">
        <ele>67.5</ele>
        <time>2022-12-28T14:28:04Z</time>
      </trkpt>
      <trkpt lat="49.95603" lon="2.28869">
        <ele>67.5</ele>
        <time>2022-12-28T14:28:05Z</time>
      </trkpt>
      <trkpt lat="49.95602" lon="2.28869">
        <ele>67.6</ele>
        <time>2022-12-28T14:28:06Z</time>
      </trkpt>
      <trkpt lat="49.95601" lon="2.28869">
        <ele>67.6</ele>
        <time>2022-12-28T14:28:07Z</time>
      </trkpt>
      <trkpt lat="49.956" lon="2.2887">
        <ele>67.6</ele>
        <time>2022-12-28T14:28:08Z</time>
      </trkpt>
      <trkpt lat="49.95599" lon="2.28871">
        <ele>67.6</ele>
        <time>2022-12-28T14:28:09Z</time>
      </trkpt>
      <trkpt lat="49.95597" lon="2.28872">
        <ele>67.6</ele>
        <time>2022-12-28T14:28:10Z</time>
      </trkpt>
      <trkpt lat="49.95596" lon="2.28873">
        <ele>67.6</ele>
        <time>2022-12-28T14:28:11Z</time>
      </trkpt>
      <trkpt lat="49.95595" lon="2.28874">
        <ele>67.6</ele>
        <time>2022-12-28T14:28:13Z</time>
      </trkpt>
      <trkpt lat="49.95594" lon="2.28875">
        <ele>67.6</ele>
        <time>2022-12-28T14:28:14Z</time>
      </trkpt>
      <trkpt lat="49.95593" lon="2.28875">
        <ele>67.6</ele>
        <time>2022-12-28T14:28:15Z</time>
      </trkpt>
      <trkpt lat="49.95593" lon="2.28876">
        <ele>67.6</ele>
        <time>2022-12-28T14:28:16Z</time>
      </trkpt>
      <trkpt lat="49.95591" lon="2.28878">
        <ele>67.6</ele>
        <time>2022-12-28T14:28:17Z</time>
      </trkpt>
      <trkpt lat="49.9559" lon="2.28879">
        <ele>67.6</ele>
        <time>2022-12-28T14:28:18Z</time>
      </trkpt>
      <trkpt lat="49.9559" lon="2.2888">
        <ele>67.6</ele>
        <time>2022-12-28T14:28:19Z</time>
      </trkpt>
      <trkpt lat="49.95589" lon="2.2888">
        <ele>67.7</ele>
        <time>2022-12-28T14:28:21Z</time>
      </trkpt>
      <trkpt lat="49.95588" lon="2.28881">
        <ele>67.7</ele>
        <time>2022-12-28T14:28:22Z</time>
      </trkpt>
      <trkpt lat="49.95587" lon="2.28882">
        <ele>67.7</ele>
        <time>2022-12-28T14:28:23Z</time>
      </trkpt>
      <trkpt lat="49.95585" lon="2.28883">
        <ele>67.7</ele>
        <time>2022-12-28T14:28:24Z</time>
      </trkpt>
      <trkpt lat="49.95584" lon="2.28883">
        <ele>67.7</ele>
        <time>2022-12-28T14:28:25Z</time>
      </trkpt>
      <trkpt lat="49.95583" lon="2.28884">
        <ele>67.7</ele>
        <time>2022-12-28T14:28:26Z</time>
      </trkpt>
      <trkpt lat="49.95582" lon="2.28884">
        <ele>67.7</ele>
        <time>2022-12-28T14:28:27Z</time>
      </trkpt>
      <trkpt lat="49.95581" lon="2.28885">
        <ele>67.7</ele>
        <time>2022-12-28T14:28:29Z</time>
      </trkpt>
      <trkpt lat="49.9558" lon="2.28886">
        <ele>67.7</ele>
        <time>2022-12-28T14:28:30Z</time>
      </trkpt>
      <trkpt lat="49.95579" lon="2.28886">
        <ele>67.7</ele>
        <time>2022-12-28T14:28:31Z</time>
      </trkpt>
      <trkpt lat="49.95578" lon="2.28887">
        <ele>67.7</ele>
        <time>2022-12-28T14:28:32Z</time>
      </trkpt>
      <trkpt lat="49.95576" lon="2.28888">
        <ele>67.7</ele>
        <time>2022-12-28T14:28:33Z</time>
      </trkpt>
      <trkpt lat="49.95575" lon="2.28889">
        <ele>67.7</ele>
        <time>2022-12-28T14:28:34Z</time>
      </trkpt>
      <trkpt lat="49.95574" lon="2.2889">
        <ele>67.7</ele>
        <time>2022-12-28T14:28:35Z</time>
      </trkpt>
      <trkpt lat="49.95573" lon="2.28891">
        <ele>67.7</ele>
        <time>2022-12-28T14:28:36Z</time>
      </trkpt>
      <trkpt lat="49.95571" lon="2.28892">
        <ele>67.7</ele>
        <time>2022-12-28T14:28:38Z</time>
      </trkpt>
      <trkpt lat="49.9557" lon="2.28893">
        <ele>67.7</ele>
        <time>2022-12-28T14:28:39Z</time>
      </trkpt>
      <trkpt lat="49.95569" lon="2.28894">
        <ele>67.7</ele>
        <time>2022-12-28T14:28:40Z</time>
      </trkpt>
      <trkpt lat="49.95567" lon="2.28896">
        <ele>67.7</ele>
        <time>2022-12-28T14:28:41Z</time>
      </trkpt>
      <trkpt lat="49.95566" lon="2.28896">
        <ele>67.7</ele>
        <time>2022-12-28T14:28:42Z</time>
      </trkpt>
      <trkpt lat="49.95565" lon="2.28897">
        <ele>67.8</ele>
        <time>2022-12-28T14:28:43Z</time>
      </trkpt>
      <trkpt lat="49.95564" lon="2.28898">
        <ele>67.8</ele>
        <time>2022-12-28T14:28:44Z</time>
      </trkpt>
      <trkpt lat="49.95563" lon="2.28899">
        <ele>67.8</ele>
        <time>2022-12-28T14:28:45Z</time>
      </trkpt>
      <trkpt lat="49.95562" lon="2.28899">
        <ele>67.8</ele>
        <time>2022-12-28T14:28:47Z</time>
      </trkpt>
      <trkpt lat="49.9556" lon="2.28901">
        <ele>67.8</ele>
        <time>2022-12-28T14:28:48Z</time>
      </trkpt>
      <trkpt lat="49.95559" lon="2.28901">
        <ele>67.8</ele>
        <time>2022-12-28T14:28:49Z</time>
      </trkpt>
      <trkpt lat="49.95558" lon="2.28902">
        <ele>67.8</ele>
        <time>2022-12-28T14:28:50Z</time>
      </trkpt>
      <trkpt lat="49.95558" lon="2.28903">
        <ele>67.8</ele>
        <time>2022-12-28T14:28:51Z</time>
      </trkpt>
      <trkpt lat="49.95557" lon="2.28903">
        <ele>67.8</ele>
        <time>2022-12-28T14:28:52Z</time>
      </trkpt>
      <trkpt lat="49.95555" lon="2.28905">
        <ele>67.8</ele>
        <time>2022-12-28T14:28:53Z</time>
      </trkpt>
      <trkpt lat="49.95555" lon="2.28905">
        <ele>67.8</ele>
        <time>2022-12-28T14:28:55Z</time>
      </trkpt>
      <trkpt lat="49.95554" lon="2.28906">
        <ele>67.8</ele>
        <time>2022-12-28T14:28:56Z</time>
      </trkpt>
      <trkpt lat="49.95553" lon="2.28906">
        <ele>67.9</ele>
        <time>2022-12-28T14:28:57Z</time>
      </trkpt>
      <trkpt lat="49.95552" lon="2.28907">
        <ele>67.9</ele>
        <time>2022-12-28T14:28:58Z</time>
      </trkpt>
      <trkpt lat="49.95551" lon="2.28908">
        <ele>67.9</ele>
        <time>2022-12-28T14:28:59Z</time>
      </trkpt>
      <trkpt lat="49.95551" lon="2.28908">
        <ele>67.9</ele>
        <time>2022-12-28T14:29:00Z</time>
      </trkpt>
      <trkpt lat="49.95549" lon="2.28909">
        <ele>67.9</ele>
        <time>2022-12-28T14:29:01Z</time>
      </trkpt>
      <trkpt lat="49.95548" lon="2.28909">
        <ele>67.9</ele>
        <time>2022-12-28T14:29:03Z</time>
      </trkpt>
      <trkpt lat="49.95547" lon="2.2891">
        <ele>67.9</ele>
        <time>2022-12-28T14:29:04Z</time>
      </trkpt>
      <trkpt lat="49.95546" lon="2.2891">
        <ele>68</ele>
        <time>2022-12-28T14:29:05Z</time>
      </trkpt>
      <trkpt lat="49.95545" lon="2.28911">
        <ele>68</ele>
        <time>2022-12-28T14:29:06Z</time>
      </trkpt>
      <trkpt lat="49.95544" lon="2.28911">
        <ele>68</ele>
        <time>2022-12-28T14:29:07Z</time>
      </trkpt>
      <trkpt lat="49.95543" lon="2.28912">
        <ele>68</ele>
        <time>2022-12-28T14:29:08Z</time>
      </trkpt>
      <trkpt lat="49.95542" lon="2.28912">
        <ele>68</ele>
        <time>2022-12-28T14:29:09Z</time>
      </trkpt>
      <trkpt lat="49.95541" lon="2.28913">
        <ele>68</ele>
        <time>2022-12-28T14:29:10Z</time>
      </trkpt>
      <trkpt lat="49.95539" lon="2.28914">
        <ele>68.1</ele>
        <time>2022-12-28T14:29:12Z</time>
      </trkpt>
      <trkpt lat="49.95538" lon="2.28914">
        <ele>68.1</ele>
        <time>2022-12-28T14:29:13Z</time>
      </trkpt>
      <trkpt lat="49.95537" lon="2.28915">
        <ele>68.1</ele>
        <time>2022-12-28T14:29:14Z</time>
      </trkpt>
      <trkpt lat="49.95536" lon="2.28915">
        <ele>68.1</ele>
        <time>2022-12-28T14:29:15Z</time>
      </trkpt>
      <trkpt lat="49.95535" lon="2.28916">
        <ele>68.1</ele>
        <time>2022-12-28T14:29:16Z</time>
      </trkpt>
      <trkpt lat="49.95534" lon="2.28916">
        <ele>68.1</ele>
        <time>2022-12-28T14:29:17Z</time>
      </trkpt>
      <trkpt lat="49.95533" lon="2.28918">
        <ele>68.2</ele>
        <time>2022-12-28T14:29:18Z</time>
      </trkpt>
      <trkpt lat="49.95532" lon="2.28919">
        <ele>68.2</ele>
        <time>2022-12-28T14:29:20Z</time>
      </trkpt>
      <trkpt lat="49.95531" lon="2.2892">
        <ele>68.2</ele>
        <time>2022-12-28T14:29:21Z</time>
      </trkpt>
      <trkpt lat="49.95529" lon="2.28921">
        <ele>68.3</ele>
        <time>2022-12-28T14:29:22Z</time>
      </trkpt>
      <trkpt lat="49.95529" lon="2.28922">
        <ele>68.3</ele>
        <time>2022-12-28T14:29:23Z</time>
      </trkpt>
      <trkpt lat="49.95528" lon="2.28923">
        <ele>68.4</ele>
        <time>2022-12-28T14:29:24Z</time>
      </trkpt>
      <trkpt lat="49.95527" lon="2.28925">
        <ele>68.4</ele>
        <time>2022-12-28T14:29:25Z</time>
      </trkpt>
      <trkpt lat="49.95526" lon="2.28926">
        <ele>68.5</ele>
        <time>2022-12-28T14:29:26Z</time>
      </trkpt>
      <trkpt lat="49.95526" lon="2.28927">
        <ele>68.5</ele>
        <time>2022-12-28T14:29:28Z</time>
      </trkpt>
      <trkpt lat="49.95525" lon="2.28928">
        <ele>68.5</ele>
        <time>2022-12-28T14:29:29Z</time>
      </trkpt>
      <trkpt lat="49.95524" lon="2.28929">
        <ele>68.6</ele>
        <time>2022-12-28T14:29:30Z</time>
      </trkpt>
      <trkpt lat="49.95523" lon="2.2893">
        <ele>68.6</ele>
        <time>2022-12-28T14:29:31Z</time>
      </trkpt>
      <trkpt lat="49.95523" lon="2.28931">
        <ele>68.6</ele>
        <time>2022-12-28T14:29:32Z</time>
      </trkpt>
      <trkpt lat="49.95522" lon="2.28932">
        <ele>68.6</ele>
        <time>2022-12-28T14:29:33Z</time>
      </trkpt>
      <trkpt lat="49.95521" lon="2.28934">
        <ele>68.7</ele>
        <time>2022-12-28T14:29:34Z</time>
      </trkpt>
      <trkpt lat="49.9552" lon="2.28936">
        <ele>68.7</ele>
        <time>2022-12-28T14:29:35Z</time>
      </trkpt>
      <trkpt lat="49.9552" lon="2.28937">
        <ele>68.8</ele>
        <time>2022-12-28T14:29:37Z</time>
      </trkpt>
      <trkpt lat="49.95519" lon="2.28938">
        <ele>68.8</ele>
        <time>2022-12-28T14:29:38Z</time>
      </trkpt>
      <trkpt lat="49.95518" lon="2.28939">
        <ele>68.8</ele>
        <time>2022-12-28T14:29:39Z</time>
      </trkpt>
      <trkpt lat="49.95518" lon="2.2894">
        <ele>68.8</ele>
        <time>2022-12-28T14:29:40Z</time>
      </trkpt>
      <trkpt lat="49.95517" lon="2.2894">
        <ele>68.9</ele>
        <time>2022-12-28T14:29:41Z</time>
      </trkpt>
      <trkpt lat="49.95517" lon="2.28941">
        <ele>68.9</ele>
        <time>2022-12-28T14:29:42Z</time>
      </trkpt>
      <trkpt lat="49.95515" lon="2.28942">
        <ele>68.9</ele>
        <time>2022-12-28T14:29:44Z</time>
      </trkpt>
      <trkpt lat="49.95514" lon="2.28944">
        <ele>69</ele>
        <time>2022-12-28T14:29:45Z</time>
      </trkpt>
      <trkpt lat="49.95513" lon="2.28944">
        <ele>69</ele>
        <time>2022-12-28T14:29:46Z</time>
      </trkpt>
      <trkpt lat="49.95513" lon="2.28945">
        <ele>69</ele>
        <time>2022-12-28T14:29:47Z</time>
      </trkpt>
      <trkpt lat="49.95512" lon="2.28945">
        <ele>69</ele>
        <time>2022-12-28T14:29:48Z</time>
      </trkpt>
      <trkpt lat="49.95511" lon="2.28946">
        <ele>69</ele>
        <time>2022-12-28T14:29:49Z</time>
      </trkpt>
      <trkpt lat="49.9551" lon="2.28947">
        <ele>69.1</ele>
        <time>2022-12-28T14:29:50Z</time>
      </trkpt>
      <trkpt lat="49.95509" lon="2.28948">
        <ele>69.1</ele>
        <time>2022-12-28T14:29:51Z</time>
      </trkpt>
      <trkpt lat="49.95508" lon="2.28949">
        <ele>69.1</ele>
        <time>2022-12-28T14:29:53Z</time>
      </trkpt>
      <trkpt lat="49.95506" lon="2.28951">
        <ele>69.1</ele>
        <time>2022-12-28T14:29:54Z</time>
      </trkpt>
      <trkpt lat="49.95506" lon="2.28951">
        <ele>69.1</ele>
        <time>2022-12-28T14:29:55Z</time>
      </trkpt>
      <trkpt lat="49.95506" lon="2.28953">
        <ele>69.1</ele>
        <time>2022-12-28T14:29:56Z</time>
      </trkpt>
      <trkpt lat="49.95506" lon="2.28955">
        <ele>69.1</ele>
        <time>2022-12-28T14:29:57Z</time>
      </trkpt>
      <trkpt lat="49.95505" lon="2.28956">
        <ele>69.2</ele>
        <time>2022-12-28T14:29:58Z</time>
      </trkpt>
      <trkpt lat="49.95505" lon="2.28958">
        <ele>69.2</ele>
        <time>2022-12-28T14:29:59Z</time>
      </trkpt>
      <trkpt lat="49.95504" lon="2.2896">
        <ele>69.2</ele>
        <time>2022-12-28T14:30:01Z</time>
      </trkpt>
      <trkpt lat="49.95503" lon="2.28962">
        <ele>69.2</ele>
        <time>2022-12-28T14:30:02Z</time>
      </trkpt>
      <trkpt lat="49.95502" lon="2.28963">
        <ele>69.2</ele>
        <time>2022-12-28T14:30:03Z</time>
      </trkpt>
      <trkpt lat="49.95502" lon="2.28964">
        <ele>69.2</ele>
        <time>2022-12-28T14:30:04Z</time>
      </trkpt>
      <trkpt lat="49.95501" lon="2.28965">
        <ele>69.2</ele>
        <time>2022-12-28T14:30:05Z</time>
      </trkpt>
      <trkpt lat="49.955" lon="2.28966">
        <ele>69.2</ele>
        <time>2022-12-28T14:30:06Z</time>
      </trkpt>
      <trkpt lat="49.955" lon="2.28967">
        <ele>69.2</ele>
        <time>2022-12-28T14:30:07Z</time>
      </trkpt>
      <trkpt lat="49.95499" lon="2.28968">
        <ele>69.3</ele>
        <time>2022-12-28T14:30:08Z</time>
      </trkpt>
      <trkpt lat="49.95498" lon="2.2897">
        <ele>69.3</ele>
        <time>2022-12-28T14:30:10Z</time>
      </trkpt>
      <trkpt lat="49.95498" lon="2.28971">
        <ele>69.3</ele>
        <time>2022-12-28T14:30:11Z</time>
      </trkpt>
      <trkpt lat="49.95497" lon="2.28972">
        <ele>69.3</ele>
        <time>2022-12-28T14:30:12Z</time>
      </trkpt>
      <trkpt lat="49.95496" lon="2.28973">
        <ele>69.3</ele>
        <time>2022-12-28T14:30:13Z</time>
      </trkpt>
      <trkpt lat="49.95495" lon="2.28975">
        <ele>69.3</ele>
        <time>2022-12-28T14:30:14Z</time>
      </trkpt>
      <trkpt lat="49.95495" lon="2.28976">
        <ele>69.4</ele>
        <time>2022-12-28T14:30:15Z</time>
      </trkpt>
      <trkpt lat="49.95494" lon="2.28977">
        <ele>69.4</ele>
        <time>2022-12-28T14:30:16Z</time>
      </trkpt>
      <trkpt lat="49.95494" lon="2.28979">
        <ele>69.4</ele>
        <time>2022-12-28T14:30:17Z</time>
      </trkpt>
      <trkpt lat="49.95493" lon="2.2898">
        <ele>69.4</ele>
        <time>2022-12-28T14:30:19Z</time>
      </trkpt>
      <trkpt lat="49.95492" lon="2.28982">
        <ele>69.5</ele>
        <time>2022-12-28T14:30:20Z</time>
      </trkpt>
      <trkpt lat="49.95491" lon="2.28983">
        <ele>69.5</ele>
        <time>2022-12-28T14:30:21Z</time>
      </trkpt>
      <trkpt lat="49.9549" lon="2.28985">
        <ele>69.5</ele>
        <time>2022-12-28T14:30:22Z</time>
      </trkpt>
      <trkpt lat="49.95489" lon="2.28985">
        <ele>69.5</ele>
        <time>2022-12-28T14:30:23Z</time>
      </trkpt>
      <trkpt lat="49.95488" lon="2.28986">
        <ele>69.6</ele>
        <time>2022-12-28T14:30:24Z</time>
      </trkpt>
      <trkpt lat="49.95487" lon="2.28987">
        <ele>69.6</ele>
        <time>2022-12-28T14:30:25Z</time>
      </trkpt>
      <trkpt lat="49.95486" lon="2.28987">
        <ele>69.6</ele>
        <time>2022-12-28T14:30:27Z</time>
      </trkpt>
      <trkpt lat="49.95485" lon="2.28988">
        <ele>69.7</ele>
        <time>2022-12-28T14:30:28Z</time>
      </trkpt>
      <trkpt lat="49.95484" lon="2.28988">
        <ele>69.7</ele>
        <time>2022-12-28T14:30:29Z</time>
      </trkpt>
      <trkpt lat="49.95483" lon="2.28988">
        <ele>69.7</ele>
        <time>2022-12-28T14:30:30Z</time>
      </trkpt>
      <trkpt lat="49.95483" lon="2.28989">
        <ele>69.7</ele>
        <time>2022-12-28T14:30:31Z</time>
      </trkpt>
      <trkpt lat="49.95482" lon="2.28989">
        <ele>69.7</ele>
        <time>2022-12-28T14:30:32Z</time>
      </trkpt>
      <trkpt lat="49.95481" lon="2.2899">
        <ele>69.7</ele>
        <time>2022-12-28T14:30:33Z</time>
      </trkpt>
      <trkpt lat="49.95479" lon="2.28991">
        <ele>69.8</ele>
        <time>2022-12-28T14:30:34Z</time>
      </trkpt>
      <trkpt lat="49.95478" lon="2.28992">
        <ele>69.8</ele>
        <time>2022-12-28T14:30:36Z</time>
      </trkpt>
      <trkpt lat="49.95477" lon="2.28992">
        <ele>69.8</ele>
        <time>2022-12-28T14:30:37Z</time>
      </trkpt>
      <trkpt lat="49.95476" lon="2.28993">
        <ele>69.8</ele>
        <time>2022-12-28T14:30:38Z</time>
      </trkpt>
      <trkpt lat="49.95475" lon="2.28994">
        <ele>69.8</ele>
        <time>2022-12-28T14:30:39Z</time>
      </trkpt>
      <trkpt lat="49.95475" lon="2.28994">
        <ele>69.8</ele>
        <time>2022-12-28T14:30:40Z</time>
      </trkpt>
      <trkpt lat="49.95474" lon="2.28995">
        <ele>69.8</ele>
        <time>2022-12-28T14:30:41Z</time>
      </trkpt>
      <trkpt lat="49.95473" lon="2.28995">
        <ele>69.8</ele>
        <time>2022-12-28T14:30:42Z</time>
      </trkpt>
      <trkpt lat="49.95471" lon="2.28997">
        <ele>69.8</ele>
        <time>2022-12-28T14:30:43Z</time>
      </trkpt>
      <trkpt lat="49.9547" lon="2.28997">
        <ele>69.8</ele>
        <time>2022-12-28T14:30:44Z</time>
      </trkpt>
      <trkpt lat="49.95469" lon="2.28998">
        <ele>69.8</ele>
        <time>2022-12-28T14:30:46Z</time>
      </trkpt>
      <trkpt lat="49.95468" lon="2.28999">
        <ele>69.8</ele>
        <time>2022-12-28T14:30:47Z</time>
      </trkpt>
      <trkpt lat="49.95467" lon="2.29">
        <ele>69.8</ele>
        <time>2022-12-28T14:30:48Z</time>
      </trkpt>
      <trkpt lat="49.95467" lon="2.29001">
        <ele>69.8</ele>
        <time>2022-12-28T14:30:49Z</time>
      </trkpt>
      <trkpt lat="49.95465" lon="2.29002">
        <ele>69.8</ele>
        <time>2022-12-28T14:30:50Z</time>
      </trkpt>
      <trkpt lat="49.95465" lon="2.29003">
        <ele>69.8</ele>
        <time>2022-12-28T14:30:51Z</time>
      </trkpt>
      <trkpt lat="49.95464" lon="2.29003">
        <ele>69.8</ele>
        <time>2022-12-28T14:30:52Z</time>
      </trkpt>
      <trkpt lat="49.95463" lon="2.29003">
        <ele>69.8</ele>
        <time>2022-12-28T14:30:53Z</time>
      </trkpt>
      <trkpt lat="49.95462" lon="2.29005">
        <ele>69.8</ele>
        <time>2022-12-28T14:30:54Z</time>
      </trkpt>
      <trkpt lat="49.95461" lon="2.29005">
        <ele>69.8</ele>
        <time>2022-12-28T14:30:55Z</time>
      </trkpt>
      <trkpt lat="49.9546" lon="2.29006">
        <ele>69.8</ele>
        <time>2022-12-28T14:30:57Z</time>
      </trkpt>
      <trkpt lat="49.95458" lon="2.29007">
        <ele>69.8</ele>
        <time>2022-12-28T14:30:58Z</time>
      </trkpt>
      <trkpt lat="49.95457" lon="2.29008">
        <ele>69.8</ele>
        <time>2022-12-28T14:30:59Z</time>
      </trkpt>
      <trkpt lat="49.95455" lon="2.29009">
        <ele>69.8</ele>
        <time>2022-12-28T14:31:00Z</time>
      </trkpt>
      <trkpt lat="49.95453" lon="2.29009">
        <ele>69.8</ele>
        <time>2022-12-28T14:31:01Z</time>
      </trkpt>
      <trkpt lat="49.95453" lon="2.2901">
        <ele>69.8</ele>
        <time>2022-12-28T14:31:02Z</time>
      </trkpt>
      <trkpt lat="49.95452" lon="2.2901">
        <ele>69.8</ele>
        <time>2022-12-28T14:31:03Z</time>
      </trkpt>
      <trkpt lat="49.9545" lon="2.29011">
        <ele>69.8</ele>
        <time>2022-12-28T14:31:04Z</time>
      </trkpt>
      <trkpt lat="49.95449" lon="2.29012">
        <ele>69.8</ele>
        <time>2022-12-28T14:31:05Z</time>
      </trkpt>
      <trkpt lat="49.95448" lon="2.29012">
        <ele>69.8</ele>
        <time>2022-12-28T14:31:06Z</time>
      </trkpt>
      <trkpt lat="49.95447" lon="2.29013">
        <ele>69.8</ele>
        <time>2022-12-28T14:31:08Z</time>
      </trkpt>
      <trkpt lat="49.95445" lon="2.29014">
        <ele>69.8</ele>
        <time>2022-12-28T14:31:09Z</time>
      </trkpt>
      <trkpt lat="49.95444" lon="2.29015">
        <ele>69.8</ele>
        <time>2022-12-28T14:31:10Z</time>
      </trkpt>
      <trkpt lat="49.95442" lon="2.29016">
        <ele>69.8</ele>
        <time>2022-12-28T14:31:11Z</time>
      </trkpt>
      <trkpt lat="49.95441" lon="2.29016">
        <ele>69.8</ele>
        <time>2022-12-28T14:31:12Z</time>
      </trkpt>
      <trkpt lat="49.95439" lon="2.29017">
        <ele>69.8</ele>
        <time>2022-12-28T14:31:13Z</time>
      </trkpt>
      <trkpt lat="49.95438" lon="2.29019">
        <ele>69.8</ele>
        <time>2022-12-28T14:31:14Z</time>
      </trkpt>
      <trkpt lat="49.95437" lon="2.2902">
        <ele>69.8</ele>
        <time>2022-12-28T14:31:15Z</time>
      </trkpt>
      <trkpt lat="49.95436" lon="2.2902">
        <ele>69.8</ele>
        <time>2022-12-28T14:31:16Z</time>
      </trkpt>
      <trkpt lat="49.95435" lon="2.29021">
        <ele>69.8</ele>
        <time>2022-12-28T14:31:17Z</time>
      </trkpt>
      <trkpt lat="49.95434" lon="2.29022">
        <ele>69.8</ele>
        <time>2022-12-28T14:31:18Z</time>
      </trkpt>
      <trkpt lat="49.95432" lon="2.29022">
        <ele>69.8</ele>
        <time>2022-12-28T14:31:19Z</time>
      </trkpt>
      <trkpt lat="49.95431" lon="2.29022">
        <ele>69.8</ele>
        <time>2022-12-28T14:31:21Z</time>
      </trkpt>
      <trkpt lat="49.95429" lon="2.29023">
        <ele>69.8</ele>
        <time>2022-12-28T14:31:22Z</time>
      </trkpt>
      <trkpt lat="49.95428" lon="2.29024">
        <ele>69.7</ele>
        <time>2022-12-28T14:31:23Z</time>
      </trkpt>
      <trkpt lat="49.95427" lon="2.29025">
        <ele>69.7</ele>
        <time>2022-12-28T14:31:24Z</time>
      </trkpt>
      <trkpt lat="49.95425" lon="2.29025">
        <ele>69.7</ele>
        <time>2022-12-28T14:31:25Z</time>
      </trkpt>
      <trkpt lat="49.95424" lon="2.29025">
        <ele>69.7</ele>
        <time>2022-12-28T14:31:26Z</time>
      </trkpt>
      <trkpt lat="49.95422" lon="2.29027">
        <ele>69.7</ele>
        <time>2022-12-28T14:31:27Z</time>
      </trkpt>
      <trkpt lat="49.95421" lon="2.29027">
        <ele>69.7</ele>
        <time>2022-12-28T14:31:28Z</time>
      </trkpt>
      <trkpt lat="49.9542" lon="2.29028">
        <ele>69.7</ele>
        <time>2022-12-28T14:31:29Z</time>
      </trkpt>
      <trkpt lat="49.95419" lon="2.29029">
        <ele>69.7</ele>
        <time>2022-12-28T14:31:31Z</time>
      </trkpt>
      <trkpt lat="49.95418" lon="2.29031">
        <ele>69.6</ele>
        <time>2022-12-28T14:31:32Z</time>
      </trkpt>
      <trkpt lat="49.95416" lon="2.29033">
        <ele>69.6</ele>
        <time>2022-12-28T14:31:33Z</time>
      </trkpt>
      <trkpt lat="49.95415" lon="2.29034">
        <ele>69.6</ele>
        <time>2022-12-28T14:31:34Z</time>
      </trkpt>
      <trkpt lat="49.95414" lon="2.29034">
        <ele>69.6</ele>
        <time>2022-12-28T14:31:35Z</time>
      </trkpt>
      <trkpt lat="49.95413" lon="2.29035">
        <ele>69.6</ele>
        <time>2022-12-28T14:31:36Z</time>
      </trkpt>
      <trkpt lat="49.95411" lon="2.29036">
        <ele>69.6</ele>
        <time>2022-12-28T14:31:37Z</time>
      </trkpt>
      <trkpt lat="49.9541" lon="2.29038">
        <ele>69.6</ele>
        <time>2022-12-28T14:31:38Z</time>
      </trkpt>
      <trkpt lat="49.95408" lon="2.29039">
        <ele>69.5</ele>
        <time>2022-12-28T14:31:40Z</time>
      </trkpt>
      <trkpt lat="49.95407" lon="2.2904">
        <ele>69.5</ele>
        <time>2022-12-28T14:31:41Z</time>
      </trkpt>
      <trkpt lat="49.95406" lon="2.29041">
        <ele>69.5</ele>
        <time>2022-12-28T14:31:42Z</time>
      </trkpt>
      <trkpt lat="49.95405" lon="2.29042">
        <ele>69.5</ele>
        <time>2022-12-28T14:31:43Z</time>
      </trkpt>
      <trkpt lat="49.95404" lon="2.29043">
        <ele>69.5</ele>
        <time>2022-12-28T14:31:44Z</time>
      </trkpt>
      <trkpt lat="49.95402" lon="2.29044">
        <ele>69.5</ele>
        <time>2022-12-28T14:31:46Z</time>
      </trkpt>
      <trkpt lat="49.95402" lon="2.29045">
        <ele>69.5</ele>
        <time>2022-12-28T14:31:47Z</time>
      </trkpt>
      <trkpt lat="49.95401" lon="2.29045">
        <ele>69.4</ele>
        <time>2022-12-28T14:31:48Z</time>
      </trkpt>
      <trkpt lat="49.954" lon="2.29046">
        <ele>69.4</ele>
        <time>2022-12-28T14:31:49Z</time>
      </trkpt>
      <trkpt lat="49.95398" lon="2.29048">
        <ele>69.4</ele>
        <time>2022-12-28T14:31:50Z</time>
      </trkpt>
      <trkpt lat="49.95398" lon="2.29048">
        <ele>69.4</ele>
        <time>2022-12-28T14:31:51Z</time>
      </trkpt>
      <trkpt lat="49.95397" lon="2.29049">
        <ele>69.4</ele>
        <time>2022-12-28T14:31:52Z</time>
      </trkpt>
      <trkpt lat="49.95396" lon="2.2905">
        <ele>69.4</ele>
        <time>2022-12-28T14:31:53Z</time>
      </trkpt>
      <trkpt lat="49.95395" lon="2.29051">
        <ele>69.4</ele>
        <time>2022-12-28T14:31:54Z</time>
      </trkpt>
      <trkpt lat="49.95393" lon="2.29052">
        <ele>69.3</ele>
        <time>2022-12-28T14:31:56Z</time>
      </trkpt>
      <trkpt lat="49.95392" lon="2.29052">
        <ele>69.3</ele>
        <time>2022-12-28T14:31:57Z</time>
      </trkpt>
      <trkpt lat="49.95391" lon="2.29053">
        <ele>69.3</ele>
        <time>2022-12-28T14:31:58Z</time>
      </trkpt>
      <trkpt lat="49.9539" lon="2.29054">
        <ele>69.3</ele>
        <time>2022-12-28T14:31:59Z</time>
      </trkpt>
      <trkpt lat="49.95388" lon="2.29055">
        <ele>69.3</ele>
        <time>2022-12-28T14:32:00Z</time>
      </trkpt>
      <trkpt lat="49.95387" lon="2.29055">
        <ele>69.2</ele>
        <time>2022-12-28T14:32:01Z</time>
      </trkpt>
      <trkpt lat="49.95387" lon="2.29056">
        <ele>69.2</ele>
        <time>2022-12-28T14:32:02Z</time>
      </trkpt>
      <trkpt lat="49.95386" lon="2.29057">
        <ele>69.2</ele>
        <time>2022-12-28T14:32:03Z</time>
      </trkpt>
      <trkpt lat="49.95385" lon="2.29058">
        <ele>69.2</ele>
        <time>2022-12-28T14:32:04Z</time>
      </trkpt>
      <trkpt lat="49.95383" lon="2.29059">
        <ele>69.2</ele>
        <time>2022-12-28T14:32:05Z</time>
      </trkpt>
      <trkpt lat="49.95382" lon="2.2906">
        <ele>69.1</ele>
        <time>2022-12-28T14:32:06Z</time>
      </trkpt>
      <trkpt lat="49.95381" lon="2.29061">
        <ele>69.1</ele>
        <time>2022-12-28T14:32:08Z</time>
      </trkpt>
      <trkpt lat="49.9538" lon="2.29062">
        <ele>69.1</ele>
        <time>2022-12-28T14:32:09Z</time>
      </trkpt>
      <trkpt lat="49.95379" lon="2.29062">
        <ele>69.1</ele>
        <time>2022-12-28T14:32:10Z</time>
      </trkpt>
      <trkpt lat="49.95377" lon="2.29063">
        <ele>69</ele>
        <time>2022-12-28T14:32:11Z</time>
      </trkpt>
      <trkpt lat="49.95375" lon="2.29065">
        <ele>69</ele>
        <time>2022-12-28T14:32:12Z</time>
      </trkpt>
      <trkpt lat="49.95374" lon="2.29065">
        <ele>69</ele>
        <time>2022-12-28T14:32:14Z</time>
      </trkpt>
      <trkpt lat="49.95373" lon="2.29066">
        <ele>68.9</ele>
        <time>2022-12-28T14:32:15Z</time>
      </trkpt>
      <trkpt lat="49.95371" lon="2.29068">
        <ele>68.9</ele>
        <time>2022-12-28T14:32:16Z</time>
      </trkpt>
      <trkpt lat="49.9537" lon="2.29068">
        <ele>68.9</ele>
        <time>2022-12-28T14:32:17Z</time>
      </trkpt>
      <trkpt lat="49.9537" lon="2.29068">
        <ele>68.9</ele>
        <time>2022-12-28T14:32:18Z</time>
      </trkpt>
      <trkpt lat="49.95368" lon="2.29069">
        <ele>68.8</ele>
        <time>2022-12-28T14:32:19Z</time>
      </trkpt>
      <trkpt lat="49.95367" lon="2.2907">
        <ele>68.8</ele>
        <time>2022-12-28T14:32:20Z</time>
      </trkpt>
      <trkpt lat="49.95365" lon="2.29071">
        <ele>68.8</ele>
        <time>2022-12-28T14:32:21Z</time>
      </trkpt>
      <trkpt lat="49.95364" lon="2.29072">
        <ele>68.7</ele>
        <time>2022-12-28T14:32:22Z</time>
      </trkpt>
      <trkpt lat="49.95364" lon="2.29072">
        <ele>68.7</ele>
        <time>2022-12-28T14:32:23Z</time>
      </trkpt>
      <trkpt lat="49.95362" lon="2.29073">
        <ele>68.7</ele>
        <time>2022-12-28T14:32:25Z</time>
      </trkpt>
      <trkpt lat="49.95361" lon="2.29073">
        <ele>68.7</ele>
        <time>2022-12-28T14:32:26Z</time>
      </trkpt>
      <trkpt lat="49.95359" lon="2.29074">
        <ele>68.7</ele>
        <time>2022-12-28T14:32:27Z</time>
      </trkpt>
      <trkpt lat="49.95358" lon="2.29075">
        <ele>68.6</ele>
        <time>2022-12-28T14:32:28Z</time>
      </trkpt>
      <trkpt lat="49.95357" lon="2.29075">
        <ele>68.6</ele>
        <time>2022-12-28T14:32:29Z</time>
      </trkpt>
      <trkpt lat="49.95356" lon="2.29077">
        <ele>68.6</ele>
        <time>2022-12-28T14:32:30Z</time>
      </trkpt>
      <trkpt lat="49.95355" lon="2.29078">
        <ele>68.6</ele>
        <time>2022-12-28T14:32:31Z</time>
      </trkpt>
      <trkpt lat="49.95354" lon="2.29079">
        <ele>68.6</ele>
        <time>2022-12-28T14:32:32Z</time>
      </trkpt>
      <trkpt lat="49.95352" lon="2.2908">
        <ele>68.5</ele>
        <time>2022-12-28T14:32:33Z</time>
      </trkpt>
      <trkpt lat="49.95351" lon="2.29081">
        <ele>68.5</ele>
        <time>2022-12-28T14:32:35Z</time>
      </trkpt>
      <trkpt lat="49.95348" lon="2.29082">
        <ele>68.5</ele>
        <time>2022-12-28T14:32:36Z</time>
      </trkpt>
      <trkpt lat="49.95347" lon="2.29082">
        <ele>68.4</ele>
        <time>2022-12-28T14:32:37Z</time>
      </trkpt>
      <trkpt lat="49.95345" lon="2.29083">
        <ele>68.4</ele>
        <time>2022-12-28T14:32:38Z</time>
      </trkpt>
      <trkpt lat="49.95344" lon="2.29084">
        <ele>68.4</ele>
        <time>2022-12-28T14:32:39Z</time>
      </trkpt>
      <trkpt lat="49.95343" lon="2.29084">
        <ele>68.4</ele>
        <time>2022-12-28T14:32:40Z</time>
      </trkpt>
      <trkpt lat="49.95342" lon="2.29085">
        <ele>68.3</ele>
        <time>2022-12-28T14:32:41Z</time>
      </trkpt>
      <trkpt lat="49.9534" lon="2.29086">
        <ele>68.3</ele>
        <time>2022-12-28T14:32:42Z</time>
      </trkpt>
      <trkpt lat="49.95338" lon="2.29086">
        <ele>68.3</ele>
        <time>2022-12-28T14:32:44Z</time>
      </trkpt>
      <trkpt lat="49.95337" lon="2.29087">
        <ele>68.2</ele>
        <time>2022-12-28T14:32:45Z</time>
      </trkpt>
      <trkpt lat="49.95335" lon="2.29088">
        <ele>68.2</ele>
        <time>2022-12-28T14:32:46Z</time>
      </trkpt>
      <trkpt lat="49.95334" lon="2.29089">
        <ele>68.2</ele>
        <time>2022-12-28T14:32:47Z</time>
      </trkpt>
      <trkpt lat="49.95333" lon="2.2909">
        <ele>68.1</ele>
        <time>2022-12-28T14:32:48Z</time>
      </trkpt>
      <trkpt lat="49.95331" lon="2.29091">
        <ele>68.1</ele>
        <time>2022-12-28T14:32:50Z</time>
      </trkpt>
      <trkpt lat="49.9533" lon="2.29092">
        <ele>68</ele>
        <time>2022-12-28T14:32:51Z</time>
      </trkpt>
      <trkpt lat="49.95329" lon="2.29093">
        <ele>68</ele>
        <time>2022-12-28T14:32:52Z</time>
      </trkpt>
      <trkpt lat="49.95328" lon="2.29094">
        <ele>68</ele>
        <time>2022-12-28T14:32:53Z</time>
      </trkpt>
      <trkpt lat="49.95326" lon="2.29095">
        <ele>68</ele>
        <time>2022-12-28T14:32:54Z</time>
      </trkpt>
      <trkpt lat="49.95325" lon="2.29096">
        <ele>67.9</ele>
        <time>2022-12-28T14:32:55Z</time>
      </trkpt>
      <trkpt lat="49.95324" lon="2.29097">
        <ele>67.9</ele>
        <time>2022-12-28T14:32:56Z</time>
      </trkpt>
      <trkpt lat="49.95322" lon="2.29098">
        <ele>67.9</ele>
        <time>2022-12-28T14:32:57Z</time>
      </trkpt>
      <trkpt lat="49.95321" lon="2.29098">
        <ele>67.8</ele>
        <time>2022-12-28T14:32:58Z</time>
      </trkpt>
      <trkpt lat="49.9532" lon="2.29099">
        <ele>67.8</ele>
        <time>2022-12-28T14:32:59Z</time>
      </trkpt>
      <trkpt lat="49.95318" lon="2.291">
        <ele>67.8</ele>
        <time>2022-12-28T14:33:00Z</time>
      </trkpt>
      <trkpt lat="49.95316" lon="2.29101">
        <ele>67.7</ele>
        <time>2022-12-28T14:33:01Z</time>
      </trkpt>
      <trkpt lat="49.95315" lon="2.29102">
        <ele>67.7</ele>
        <time>2022-12-28T14:33:03Z</time>
      </trkpt>
      <trkpt lat="49.95314" lon="2.29102">
        <ele>67.7</ele>
        <time>2022-12-28T14:33:04Z</time>
      </trkpt>
      <trkpt lat="49.95313" lon="2.29103">
        <ele>67.7</ele>
        <time>2022-12-28T14:33:05Z</time>
      </trkpt>
      <trkpt lat="49.95312" lon="2.29104">
        <ele>67.7</ele>
        <time>2022-12-28T14:33:06Z</time>
      </trkpt>
      <trkpt lat="49.95311" lon="2.29105">
        <ele>67.7</ele>
        <time>2022-12-28T14:33:07Z</time>
      </trkpt>
      <trkpt lat="49.95309" lon="2.29107">
        <ele>67.6</ele>
        <time>2022-12-28T14:33:08Z</time>
      </trkpt>
      <trkpt lat="49.95308" lon="2.29108">
        <ele>67.6</ele>
        <time>2022-12-28T14:33:10Z</time>
      </trkpt>
      <trkpt lat="49.95306" lon="2.29109">
        <ele>67.6</ele>
        <time>2022-12-28T14:33:11Z</time>
      </trkpt>
      <trkpt lat="49.95305" lon="2.29109">
        <ele>67.6</ele>
        <time>2022-12-28T14:33:12Z</time>
      </trkpt>
      <trkpt lat="49.95304" lon="2.2911">
        <ele>67.6</ele>
        <time>2022-12-28T14:33:13Z</time>
      </trkpt>
      <trkpt lat="49.95303" lon="2.29111">
        <ele>67.6</ele>
        <time>2022-12-28T14:33:14Z</time>
      </trkpt>
      <trkpt lat="49.95302" lon="2.29112">
        <ele>67.6</ele>
        <time>2022-12-28T14:33:15Z</time>
      </trkpt>
      <trkpt lat="49.95301" lon="2.29113">
        <ele>67.5</ele>
        <time>2022-12-28T14:33:16Z</time>
      </trkpt>
      <trkpt lat="49.953" lon="2.29114">
        <ele>67.5</ele>
        <time>2022-12-28T14:33:17Z</time>
      </trkpt>
      <trkpt lat="49.95299" lon="2.29115">
        <ele>67.5</ele>
        <time>2022-12-28T14:33:18Z</time>
      </trkpt>
      <trkpt lat="49.95298" lon="2.29115">
        <ele>67.5</ele>
        <time>2022-12-28T14:33:19Z</time>
      </trkpt>
      <trkpt lat="49.95296" lon="2.29117">
        <ele>67.5</ele>
        <time>2022-12-28T14:33:21Z</time>
      </trkpt>
      <trkpt lat="49.95295" lon="2.29118">
        <ele>67.5</ele>
        <time>2022-12-28T14:33:22Z</time>
      </trkpt>
      <trkpt lat="49.95293" lon="2.29119">
        <ele>67.4</ele>
        <time>2022-12-28T14:33:23Z</time>
      </trkpt>
      <trkpt lat="49.95292" lon="2.2912">
        <ele>67.4</ele>
        <time>2022-12-28T14:33:24Z</time>
      </trkpt>
      <trkpt lat="49.95291" lon="2.29121">
        <ele>67.4</ele>
        <time>2022-12-28T14:33:25Z</time>
      </trkpt>
      <trkpt lat="49.9529" lon="2.29122">
        <ele>67.4</ele>
        <time>2022-12-28T14:33:26Z</time>
      </trkpt>
      <trkpt lat="49.9529" lon="2.29122">
        <ele>67.4</ele>
        <time>2022-12-28T14:33:27Z</time>
      </trkpt>
      <trkpt lat="49.95288" lon="2.29124">
        <ele>67.4</ele>
        <time>2022-12-28T14:33:29Z</time>
      </trkpt>
      <trkpt lat="49.95287" lon="2.29125">
        <ele>67.4</ele>
        <time>2022-12-28T14:33:30Z</time>
      </trkpt>
      <trkpt lat="49.95285" lon="2.29126">
        <ele>67.3</ele>
        <time>2022-12-28T14:33:31Z</time>
      </trkpt>
      <trkpt lat="49.95284" lon="2.29127">
        <ele>67.3</ele>
        <time>2022-12-28T14:33:32Z</time>
      </trkpt>
      <trkpt lat="49.95282" lon="2.29128">
        <ele>67.3</ele>
        <time>2022-12-28T14:33:33Z</time>
      </trkpt>
      <trkpt lat="49.95281" lon="2.2913">
        <ele>67.3</ele>
        <time>2022-12-28T14:33:35Z</time>
      </trkpt>
      <trkpt lat="49.9528" lon="2.29131">
        <ele>67.3</ele>
        <time>2022-12-28T14:33:36Z</time>
      </trkpt>
      <trkpt lat="49.95278" lon="2.29133">
        <ele>67.2</ele>
        <time>2022-12-28T14:33:37Z</time>
      </trkpt>
      <trkpt lat="49.95277" lon="2.29134">
        <ele>67.2</ele>
        <time>2022-12-28T14:33:38Z</time>
      </trkpt>
      <trkpt lat="49.95276" lon="2.29135">
        <ele>67.2</ele>
        <time>2022-12-28T14:33:39Z</time>
      </trkpt>
      <trkpt lat="49.95275" lon="2.29135">
        <ele>67.2</ele>
        <time>2022-12-28T14:33:40Z</time>
      </trkpt>
      <trkpt lat="49.95274" lon="2.29136">
        <ele>67.2</ele>
        <time>2022-12-28T14:33:41Z</time>
      </trkpt>
      <trkpt lat="49.95273" lon="2.29136">
        <ele>67.2</ele>
        <time>2022-12-28T14:33:43Z</time>
      </trkpt>
      <trkpt lat="49.95271" lon="2.29137">
        <ele>67.1</ele>
        <time>2022-12-28T14:33:44Z</time>
      </trkpt>
      <trkpt lat="49.95269" lon="2.29138">
        <ele>67.1</ele>
        <time>2022-12-28T14:33:45Z</time>
      </trkpt>
      <trkpt lat="49.95268" lon="2.29138">
        <ele>67.1</ele>
        <time>2022-12-28T14:33:46Z</time>
      </trkpt>
      <trkpt lat="49.95267" lon="2.29138">
        <ele>67.1</ele>
        <time>2022-12-28T14:33:47Z</time>
      </trkpt>
      <trkpt lat="49.95266" lon="2.29139">
        <ele>67.1</ele>
        <time>2022-12-28T14:33:48Z</time>
      </trkpt>
      <trkpt lat="49.95264" lon="2.2914">
        <ele>67</ele>
        <time>2022-12-28T14:33:49Z</time>
      </trkpt>
      <trkpt lat="49.95263" lon="2.29141">
        <ele>67</ele>
        <time>2022-12-28T14:33:50Z</time>
      </trkpt>
      <trkpt lat="49.95262" lon="2.29141">
        <ele>67</ele>
        <time>2022-12-28T14:33:52Z</time>
      </trkpt>
      <trkpt lat="49.95261" lon="2.29142">
        <ele>67</ele>
        <time>2022-12-28T14:33:53Z</time>
      </trkpt>
      <trkpt lat="49.95259" lon="2.29143">
        <ele>66.9</ele>
        <time>2022-12-28T14:33:54Z</time>
      </trkpt>
      <trkpt lat="49.95257" lon="2.29144">
        <ele>66.9</ele>
        <time>2022-12-28T14:33:55Z</time>
      </trkpt>
      <trkpt lat="49.95256" lon="2.29144">
        <ele>66.9</ele>
        <time>2022-12-28T14:33:56Z</time>
      </trkpt>
      <trkpt lat="49.95255" lon="2.29145">
        <ele>66.9</ele>
        <time>2022-12-28T14:33:57Z</time>
      </trkpt>
      <trkpt lat="49.95253" lon="2.29146">
        <ele>66.9</ele>
        <time>2022-12-28T14:33:58Z</time>
      </trkpt>
      <trkpt lat="49.95253" lon="2.29146">
        <ele>66.8</ele>
        <time>2022-12-28T14:33:59Z</time>
      </trkpt>
      <trkpt lat="49.95251" lon="2.29148">
        <ele>66.8</ele>
        <time>2022-12-28T14:34:00Z</time>
      </trkpt>
      <trkpt lat="49.9525" lon="2.29148">
        <ele>66.8</ele>
        <time>2022-12-28T14:34:01Z</time>
      </trkpt>
      <trkpt lat="49.95249" lon="2.29148">
        <ele>66.8</ele>
        <time>2022-12-28T14:34:02Z</time>
      </trkpt>
      <trkpt lat="49.95247" lon="2.2915">
        <ele>66.7</ele>
        <time>2022-12-28T14:34:03Z</time>
      </trkpt>
      <trkpt lat="49.95246" lon="2.2915">
        <ele>66.7</ele>
        <time>2022-12-28T14:34:05Z</time>
      </trkpt>
      <trkpt lat="49.95246" lon="2.2915">
        <ele>66.7</ele>
        <time>2022-12-28T14:34:06Z</time>
      </trkpt>
      <trkpt lat="49.95245" lon="2.29151">
        <ele>66.7</ele>
        <time>2022-12-28T14:34:07Z</time>
      </trkpt>
      <trkpt lat="49.95243" lon="2.29152">
        <ele>66.7</ele>
        <time>2022-12-28T14:34:08Z</time>
      </trkpt>
      <trkpt lat="49.95242" lon="2.29153">
        <ele>66.7</ele>
        <time>2022-12-28T14:34:09Z</time>
      </trkpt>
      <trkpt lat="49.95241" lon="2.29153">
        <ele>66.6</ele>
        <time>2022-12-28T14:34:10Z</time>
      </trkpt>
      <trkpt lat="49.95239" lon="2.29154">
        <ele>66.6</ele>
        <time>2022-12-28T14:34:12Z</time>
      </trkpt>
      <trkpt lat="49.95237" lon="2.29155">
        <ele>66.6</ele>
        <time>2022-12-28T14:34:13Z</time>
      </trkpt>
      <trkpt lat="49.95236" lon="2.29156">
        <ele>66.6</ele>
        <time>2022-12-28T14:34:14Z</time>
      </trkpt>
      <trkpt lat="49.95235" lon="2.29157">
        <ele>66.5</ele>
        <time>2022-12-28T14:34:15Z</time>
      </trkpt>
      <trkpt lat="49.95234" lon="2.29157">
        <ele>66.5</ele>
        <time>2022-12-28T14:34:17Z</time>
      </trkpt>
      <trkpt lat="49.95233" lon="2.29158">
        <ele>66.5</ele>
        <time>2022-12-28T14:34:18Z</time>
      </trkpt>
      <trkpt lat="49.95231" lon="2.29159">
        <ele>66.5</ele>
        <time>2022-12-28T14:34:19Z</time>
      </trkpt>
      <trkpt lat="49.9523" lon="2.29159">
        <ele>66.5</ele>
        <time>2022-12-28T14:34:20Z</time>
      </trkpt>
      <trkpt lat="49.95228" lon="2.29161">
        <ele>66.4</ele>
        <time>2022-12-28T14:34:21Z</time>
      </trkpt>
      <trkpt lat="49.95227" lon="2.29161">
        <ele>66.4</ele>
        <time>2022-12-28T14:34:22Z</time>
      </trkpt>
      <trkpt lat="49.95227" lon="2.29162">
        <ele>66.4</ele>
        <time>2022-12-28T14:34:23Z</time>
      </trkpt>
      <trkpt lat="49.95226" lon="2.29163">
        <ele>66.4</ele>
        <time>2022-12-28T14:34:24Z</time>
      </trkpt>
      <trkpt lat="49.95225" lon="2.29164">
        <ele>66.4</ele>
        <time>2022-12-28T14:34:25Z</time>
      </trkpt>
      <trkpt lat="49.95224" lon="2.29165">
        <ele>66.4</ele>
        <time>2022-12-28T14:34:26Z</time>
      </trkpt>
      <trkpt lat="49.95223" lon="2.29166">
        <ele>66.4</ele>
        <time>2022-12-28T14:34:27Z</time>
      </trkpt>
      <trkpt lat="49.95221" lon="2.29167">
        <ele>66.4</ele>
        <time>2022-12-28T14:34:29Z</time>
      </trkpt>
      <trkpt lat="49.9522" lon="2.29167">
        <ele>66.3</ele>
        <time>2022-12-28T14:34:30Z</time>
      </trkpt>
      <trkpt lat="49.95219" lon="2.29168">
        <ele>66.3</ele>
        <time>2022-12-28T14:34:31Z</time>
      </trkpt>
      <trkpt lat="49.95218" lon="2.29169">
        <ele>66.3</ele>
        <time>2022-12-28T14:34:32Z</time>
      </trkpt>
      <trkpt lat="49.95216" lon="2.2917">
        <ele>66.3</ele>
        <time>2022-12-28T14:34:33Z</time>
      </trkpt>
      <trkpt lat="49.95215" lon="2.29171">
        <ele>66.3</ele>
        <time>2022-12-28T14:34:34Z</time>
      </trkpt>
      <trkpt lat="49.95214" lon="2.29172">
        <ele>66.3</ele>
        <time>2022-12-28T14:34:36Z</time>
      </trkpt>
      <trkpt lat="49.95213" lon="2.29173">
        <ele>66.3</ele>
        <time>2022-12-28T14:34:37Z</time>
      </trkpt>
      <trkpt lat="49.95212" lon="2.29174">
        <ele>66.3</ele>
        <time>2022-12-28T14:34:38Z</time>
      </trkpt>
      <trkpt lat="49.95211" lon="2.29175">
        <ele>66.3</ele>
        <time>2022-12-28T14:34:39Z</time>
      </trkpt>
      <trkpt lat="49.9521" lon="2.29176">
        <ele>66.3</ele>
        <time>2022-12-28T14:34:40Z</time>
      </trkpt>
      <trkpt lat="49.95209" lon="2.29177">
        <ele>66.3</ele>
        <time>2022-12-28T14:34:41Z</time>
      </trkpt>
      <trkpt lat="49.95207" lon="2.29178">
        <ele>66.3</ele>
        <time>2022-12-28T14:34:43Z</time>
      </trkpt>
      <trkpt lat="49.95205" lon="2.29179">
        <ele>66.2</ele>
        <time>2022-12-28T14:34:44Z</time>
      </trkpt>
      <trkpt lat="49.95204" lon="2.2918">
        <ele>66.2</ele>
        <time>2022-12-28T14:34:45Z</time>
      </trkpt>
      <trkpt lat="49.95203" lon="2.2918">
        <ele>66.2</ele>
        <time>2022-12-28T14:34:46Z</time>
      </trkpt>
      <trkpt lat="49.95202" lon="2.29181">
        <ele>66.2</ele>
        <time>2022-12-28T14:34:47Z</time>
      </trkpt>
      <trkpt lat="49.952" lon="2.29182">
        <ele>66.2</ele>
        <time>2022-12-28T14:34:49Z</time>
      </trkpt>
      <trkpt lat="49.95198" lon="2.29183">
        <ele>66.2</ele>
        <time>2022-12-28T14:34:50Z</time>
      </trkpt>
      <trkpt lat="49.95197" lon="2.29184">
        <ele>66.2</ele>
        <time>2022-12-28T14:34:51Z</time>
      </trkpt>
      <trkpt lat="49.95197" lon="2.29184">
        <ele>66.2</ele>
        <time>2022-12-28T14:34:52Z</time>
      </trkpt>
      <trkpt lat="49.95195" lon="2.29185">
        <ele>66.2</ele>
        <time>2022-12-28T14:34:53Z</time>
      </trkpt>
      <trkpt lat="49.95194" lon="2.29186">
        <ele>66.3</ele>
        <time>2022-12-28T14:34:54Z</time>
      </trkpt>
      <trkpt lat="49.95192" lon="2.29187">
        <ele>66.3</ele>
        <time>2022-12-28T14:34:56Z</time>
      </trkpt>
      <trkpt lat="49.95191" lon="2.29188">
        <ele>66.3</ele>
        <time>2022-12-28T14:34:57Z</time>
      </trkpt>
      <trkpt lat="49.9519" lon="2.29189">
        <ele>66.3</ele>
        <time>2022-12-28T14:34:58Z</time>
      </trkpt>
      <trkpt lat="49.95189" lon="2.2919">
        <ele>66.3</ele>
        <time>2022-12-28T14:34:59Z</time>
      </trkpt>
      <trkpt lat="49.95187" lon="2.29192">
        <ele>66.3</ele>
        <time>2022-12-28T14:35:00Z</time>
      </trkpt>
      <trkpt lat="49.95186" lon="2.29193">
        <ele>66.3</ele>
        <time>2022-12-28T14:35:02Z</time>
      </trkpt>
      <trkpt lat="49.95185" lon="2.29193">
        <ele>66.3</ele>
        <time>2022-12-28T14:35:03Z</time>
      </trkpt>
      <trkpt lat="49.95183" lon="2.29195">
        <ele>66.3</ele>
        <time>2022-12-28T14:35:04Z</time>
      </trkpt>
      <trkpt lat="49.95182" lon="2.29195">
        <ele>66.3</ele>
        <time>2022-12-28T14:35:05Z</time>
      </trkpt>
      <trkpt lat="49.95182" lon="2.29196">
        <ele>66.3</ele>
        <time>2022-12-28T14:35:06Z</time>
      </trkpt>
      <trkpt lat="49.95181" lon="2.29196">
        <ele>66.3</ele>
        <time>2022-12-28T14:35:07Z</time>
      </trkpt>
      <trkpt lat="49.95179" lon="2.29197">
        <ele>66.3</ele>
        <time>2022-12-28T14:35:08Z</time>
      </trkpt>
      <trkpt lat="49.95179" lon="2.29198">
        <ele>66.3</ele>
        <time>2022-12-28T14:35:09Z</time>
      </trkpt>
      <trkpt lat="49.95178" lon="2.29199">
        <ele>66.3</ele>
        <time>2022-12-28T14:35:10Z</time>
      </trkpt>
      <trkpt lat="49.95177" lon="2.29199">
        <ele>66.3</ele>
        <time>2022-12-28T14:35:11Z</time>
      </trkpt>
      <trkpt lat="49.95176" lon="2.292">
        <ele>66.3</ele>
        <time>2022-12-28T14:35:13Z</time>
      </trkpt>
      <trkpt lat="49.95174" lon="2.29201">
        <ele>66.3</ele>
        <time>2022-12-28T14:35:14Z</time>
      </trkpt>
      <trkpt lat="49.95174" lon="2.29201">
        <ele>66.3</ele>
        <time>2022-12-28T14:35:15Z</time>
      </trkpt>
      <trkpt lat="49.95173" lon="2.29202">
        <ele>66.4</ele>
        <time>2022-12-28T14:35:16Z</time>
      </trkpt>
      <trkpt lat="49.95172" lon="2.29203">
        <ele>66.4</ele>
        <time>2022-12-28T14:35:17Z</time>
      </trkpt>
      <trkpt lat="49.95171" lon="2.29204">
        <ele>66.4</ele>
        <time>2022-12-28T14:35:18Z</time>
      </trkpt>
      <trkpt lat="49.95169" lon="2.29206">
        <ele>66.4</ele>
        <time>2022-12-28T14:35:19Z</time>
      </trkpt>
      <trkpt lat="49.95169" lon="2.29206">
        <ele>66.4</ele>
        <time>2022-12-28T14:35:20Z</time>
      </trkpt>
      <trkpt lat="49.95168" lon="2.29207">
        <ele>66.4</ele>
        <time>2022-12-28T14:35:21Z</time>
      </trkpt>
      <trkpt lat="49.95167" lon="2.29207">
        <ele>66.4</ele>
        <time>2022-12-28T14:35:23Z</time>
      </trkpt>
      <trkpt lat="49.95165" lon="2.29208">
        <ele>66.4</ele>
        <time>2022-12-28T14:35:24Z</time>
      </trkpt>
      <trkpt lat="49.95165" lon="2.29208">
        <ele>66.4</ele>
        <time>2022-12-28T14:35:25Z</time>
      </trkpt>
      <trkpt lat="49.95164" lon="2.29209">
        <ele>66.4</ele>
        <time>2022-12-28T14:35:26Z</time>
      </trkpt>
      <trkpt lat="49.95163" lon="2.29209">
        <ele>66.4</ele>
        <time>2022-12-28T14:35:27Z</time>
      </trkpt>
      <trkpt lat="49.95161" lon="2.2921">
        <ele>66.4</ele>
        <time>2022-12-28T14:35:29Z</time>
      </trkpt>
      <trkpt lat="49.95159" lon="2.29211">
        <ele>66.4</ele>
        <time>2022-12-28T14:35:30Z</time>
      </trkpt>
      <trkpt lat="49.95159" lon="2.29212">
        <ele>66.4</ele>
        <time>2022-12-28T14:35:31Z</time>
      </trkpt>
      <trkpt lat="49.95158" lon="2.29212">
        <ele>66.4</ele>
        <time>2022-12-28T14:35:32Z</time>
      </trkpt>
      <trkpt lat="49.95157" lon="2.29213">
        <ele>66.4</ele>
        <time>2022-12-28T14:35:33Z</time>
      </trkpt>
      <trkpt lat="49.95156" lon="2.29214">
        <ele>66.5</ele>
        <time>2022-12-28T14:35:34Z</time>
      </trkpt>
      <trkpt lat="49.95155" lon="2.29215">
        <ele>66.5</ele>
        <time>2022-12-28T14:35:35Z</time>
      </trkpt>
      <trkpt lat="49.95154" lon="2.29215">
        <ele>66.5</ele>
        <time>2022-12-28T14:35:37Z</time>
      </trkpt>
      <trkpt lat="49.95153" lon="2.29216">
        <ele>66.5</ele>
        <time>2022-12-28T14:35:38Z</time>
      </trkpt>
      <trkpt lat="49.95152" lon="2.29217">
        <ele>66.5</ele>
        <time>2022-12-28T14:35:39Z</time>
      </trkpt>
      <trkpt lat="49.95151" lon="2.29217">
        <ele>66.5</ele>
        <time>2022-12-28T14:35:40Z</time>
      </trkpt>
      <trkpt lat="49.9515" lon="2.29218">
        <ele>66.5</ele>
        <time>2022-12-28T14:35:41Z</time>
      </trkpt>
      <trkpt lat="49.95149" lon="2.29219">
        <ele>66.5</ele>
        <time>2022-12-28T14:35:42Z</time>
      </trkpt>
      <trkpt lat="49.95148" lon="2.29219">
        <ele>66.5</ele>
        <time>2022-12-28T14:35:43Z</time>
      </trkpt>
      <trkpt lat="49.95147" lon="2.2922">
        <ele>66.5</ele>
        <time>2022-12-28T14:35:44Z</time>
      </trkpt>
      <trkpt lat="49.95146" lon="2.29221">
        <ele>66.6</ele>
        <time>2022-12-28T14:35:45Z</time>
      </trkpt>
      <trkpt lat="49.95145" lon="2.29222">
        <ele>66.6</ele>
        <time>2022-12-28T14:35:46Z</time>
      </trkpt>
      <trkpt lat="49.95144" lon="2.29222">
        <ele>66.6</ele>
        <time>2022-12-28T14:35:48Z</time>
      </trkpt>
      <trkpt lat="49.95142" lon="2.29223">
        <ele>66.6</ele>
        <time>2022-12-28T14:35:49Z</time>
      </trkpt>
      <trkpt lat="49.95141" lon="2.29224">
        <ele>66.6</ele>
        <time>2022-12-28T14:35:50Z</time>
      </trkpt>
      <trkpt lat="49.9514" lon="2.29224">
        <ele>66.6</ele>
        <time>2022-12-28T14:35:51Z</time>
      </trkpt>
      <trkpt lat="49.95139" lon="2.29225">
        <ele>66.6</ele>
        <time>2022-12-28T14:35:52Z</time>
      </trkpt>
      <trkpt lat="49.95138" lon="2.29225">
        <ele>66.7</ele>
        <time>2022-12-28T14:35:53Z</time>
      </trkpt>
      <trkpt lat="49.95136" lon="2.29226">
        <ele>66.7</ele>
        <time>2022-12-28T14:35:55Z</time>
      </trkpt>
      <trkpt lat="49.95135" lon="2.29226">
        <ele>66.7</ele>
        <time>2022-12-28T14:35:56Z</time>
      </trkpt>
      <trkpt lat="49.95134" lon="2.29227">
        <ele>66.7</ele>
        <time>2022-12-28T14:35:57Z</time>
      </trkpt>
      <trkpt lat="49.95133" lon="2.29228">
        <ele>66.7</ele>
        <time>2022-12-28T14:35:58Z</time>
      </trkpt>
      <trkpt lat="49.95131" lon="2.29229">
        <ele>66.8</ele>
        <time>2022-12-28T14:35:59Z</time>
      </trkpt>
      <trkpt lat="49.9513" lon="2.29229">
        <ele>66.8</ele>
        <time>2022-12-28T14:36:00Z</time>
      </trkpt>
      <trkpt lat="49.95129" lon="2.2923">
        <ele>66.8</ele>
        <time>2022-12-28T14:36:01Z</time>
      </trkpt>
      <trkpt lat="49.95127" lon="2.29231">
        <ele>66.8</ele>
        <time>2022-12-28T14:36:03Z</time>
      </trkpt>
      <trkpt lat="49.95125" lon="2.29232">
        <ele>66.8</ele>
        <time>2022-12-28T14:36:04Z</time>
      </trkpt>
      <trkpt lat="49.95124" lon="2.29233">
        <ele>66.8</ele>
        <time>2022-12-28T14:36:05Z</time>
      </trkpt>
      <trkpt lat="49.95123" lon="2.29234">
        <ele>66.8</ele>
        <time>2022-12-28T14:36:06Z</time>
      </trkpt>
      <trkpt lat="49.95122" lon="2.29235">
        <ele>66.8</ele>
        <time>2022-12-28T14:36:07Z</time>
      </trkpt>
      <trkpt lat="49.95121" lon="2.29235">
        <ele>66.8</ele>
        <time>2022-12-28T14:36:08Z</time>
      </trkpt>
      <trkpt lat="49.95119" lon="2.29237">
        <ele>66.8</ele>
        <time>2022-12-28T14:36:09Z</time>
      </trkpt>
      <trkpt lat="49.95118" lon="2.29237">
        <ele>66.8</ele>
        <time>2022-12-28T14:36:10Z</time>
      </trkpt>
      <trkpt lat="49.95116" lon="2.29239">
        <ele>66.8</ele>
        <time>2022-12-28T14:36:12Z</time>
      </trkpt>
      <trkpt lat="49.95115" lon="2.29239">
        <ele>66.8</ele>
        <time>2022-12-28T14:36:13Z</time>
      </trkpt>
      <trkpt lat="49.95114" lon="2.2924">
        <ele>66.8</ele>
        <time>2022-12-28T14:36:14Z</time>
      </trkpt>
      <trkpt lat="49.95112" lon="2.29241">
        <ele>66.8</ele>
        <time>2022-12-28T14:36:15Z</time>
      </trkpt>
      <trkpt lat="49.95111" lon="2.29242">
        <ele>66.8</ele>
        <time>2022-12-28T14:36:16Z</time>
      </trkpt>
      <trkpt lat="49.9511" lon="2.29242">
        <ele>66.8</ele>
        <time>2022-12-28T14:36:17Z</time>
      </trkpt>
      <trkpt lat="49.95108" lon="2.29243">
        <ele>66.8</ele>
        <time>2022-12-28T14:36:19Z</time>
      </trkpt>
      <trkpt lat="49.95108" lon="2.29244">
        <ele>66.8</ele>
        <time>2022-12-28T14:36:20Z</time>
      </trkpt>
      <trkpt lat="49.95107" lon="2.29244">
        <ele>66.8</ele>
        <time>2022-12-28T14:36:21Z</time>
      </trkpt>
      <trkpt lat="49.95105" lon="2.29245">
        <ele>66.8</ele>
        <time>2022-12-28T14:36:22Z</time>
      </trkpt>
      <trkpt lat="49.95104" lon="2.29246">
        <ele>66.7</ele>
        <time>2022-12-28T14:36:23Z</time>
      </trkpt>
      <trkpt lat="49.95102" lon="2.29247">
        <ele>66.7</ele>
        <time>2022-12-28T14:36:24Z</time>
      </trkpt>
      <trkpt lat="49.95102" lon="2.29247">
        <ele>66.7</ele>
        <time>2022-12-28T14:36:25Z</time>
      </trkpt>
      <trkpt lat="49.95101" lon="2.29248">
        <ele>66.7</ele>
        <time>2022-12-28T14:36:26Z</time>
      </trkpt>
      <trkpt lat="49.95098" lon="2.29249">
        <ele>66.7</ele>
        <time>2022-12-28T14:36:28Z</time>
      </trkpt>
      <trkpt lat="49.95097" lon="2.29249">
        <ele>66.7</ele>
        <time>2022-12-28T14:36:29Z</time>
      </trkpt>
      <trkpt lat="49.95097" lon="2.2925">
        <ele>66.7</ele>
        <time>2022-12-28T14:36:30Z</time>
      </trkpt>
      <trkpt lat="49.95096" lon="2.29251">
        <ele>66.7</ele>
        <time>2022-12-28T14:36:31Z</time>
      </trkpt>
      <trkpt lat="49.95095" lon="2.29252">
        <ele>66.7</ele>
        <time>2022-12-28T14:36:32Z</time>
      </trkpt>
      <trkpt lat="49.95093" lon="2.29253">
        <ele>66.6</ele>
        <time>2022-12-28T14:36:33Z</time>
      </trkpt>
      <trkpt lat="49.95092" lon="2.29253">
        <ele>66.6</ele>
        <time>2022-12-28T14:36:34Z</time>
      </trkpt>
      <trkpt lat="49.9509" lon="2.29255">
        <ele>66.6</ele>
        <time>2022-12-28T14:36:36Z</time>
      </trkpt>
      <trkpt lat="49.95089" lon="2.29256">
        <ele>66.6</ele>
        <time>2022-12-28T14:36:37Z</time>
      </trkpt>
      <trkpt lat="49.95089" lon="2.29256">
        <ele>66.6</ele>
        <time>2022-12-28T14:36:38Z</time>
      </trkpt>
      <trkpt lat="49.95087" lon="2.29258">
        <ele>66.6</ele>
        <time>2022-12-28T14:36:39Z</time>
      </trkpt>
      <trkpt lat="49.95086" lon="2.29259">
        <ele>66.5</ele>
        <time>2022-12-28T14:36:40Z</time>
      </trkpt>
      <trkpt lat="49.95084" lon="2.29261">
        <ele>66.5</ele>
        <time>2022-12-28T14:36:41Z</time>
      </trkpt>
      <trkpt lat="49.95084" lon="2.29261">
        <ele>66.5</ele>
        <time>2022-12-28T14:36:42Z</time>
      </trkpt>
      <trkpt lat="49.95083" lon="2.29262">
        <ele>66.5</ele>
        <time>2022-12-28T14:36:43Z</time>
      </trkpt>
      <trkpt lat="49.95081" lon="2.29264">
        <ele>66.5</ele>
        <time>2022-12-28T14:36:44Z</time>
      </trkpt>
      <trkpt lat="49.9508" lon="2.29265">
        <ele>66.5</ele>
        <time>2022-12-28T14:36:45Z</time>
      </trkpt>
      <trkpt lat="49.95079" lon="2.29266">
        <ele>66.4</ele>
        <time>2022-12-28T14:36:46Z</time>
      </trkpt>
      <trkpt lat="49.95078" lon="2.29266">
        <ele>66.4</ele>
        <time>2022-12-28T14:36:47Z</time>
      </trkpt>
      <trkpt lat="49.95076" lon="2.29267">
        <ele>66.4</ele>
        <time>2022-12-28T14:36:49Z</time>
      </trkpt>
      <trkpt lat="49.95075" lon="2.29269">
        <ele>66.4</ele>
        <time>2022-12-28T14:36:50Z</time>
      </trkpt>
      <trkpt lat="49.95073" lon="2.2927">
        <ele>66.3</ele>
        <time>2022-12-28T14:36:51Z</time>
      </trkpt>
      <trkpt lat="49.95072" lon="2.29271">
        <ele>66.3</ele>
        <time>2022-12-28T14:36:52Z</time>
      </trkpt>
      <trkpt lat="49.95071" lon="2.29271">
        <ele>66.3</ele>
        <time>2022-12-28T14:36:53Z</time>
      </trkpt>
      <trkpt lat="49.95069" lon="2.29272">
        <ele>66.3</ele>
        <time>2022-12-28T14:36:54Z</time>
      </trkpt>
      <trkpt lat="49.95068" lon="2.29273">
        <ele>66.3</ele>
        <time>2022-12-28T14:36:55Z</time>
      </trkpt>
      <trkpt lat="49.95067" lon="2.29274">
        <ele>66.2</ele>
        <time>2022-12-28T14:36:57Z</time>
      </trkpt>
      <trkpt lat="49.95065" lon="2.29275">
        <ele>66.2</ele>
        <time>2022-12-28T14:36:58Z</time>
      </trkpt>
      <trkpt lat="49.95065" lon="2.29275">
        <ele>66.2</ele>
        <time>2022-12-28T14:36:59Z</time>
      </trkpt>
      <trkpt lat="49.95063" lon="2.29276">
        <ele>66.1</ele>
        <time>2022-12-28T14:37:00Z</time>
      </trkpt>
      <trkpt lat="49.95061" lon="2.29277">
        <ele>66.1</ele>
        <time>2022-12-28T14:37:01Z</time>
      </trkpt>
      <trkpt lat="49.9506" lon="2.29278">
        <ele>66</ele>
        <time>2022-12-28T14:37:02Z</time>
      </trkpt>
      <trkpt lat="49.95059" lon="2.29278">
        <ele>66</ele>
        <time>2022-12-28T14:37:04Z</time>
      </trkpt>
      <trkpt lat="49.95057" lon="2.29279">
        <ele>66</ele>
        <time>2022-12-28T14:37:05Z</time>
      </trkpt>
      <trkpt lat="49.95055" lon="2.2928">
        <ele>65.9</ele>
        <time>2022-12-28T14:37:06Z</time>
      </trkpt>
      <trkpt lat="49.95054" lon="2.29281">
        <ele>65.9</ele>
        <time>2022-12-28T14:37:07Z</time>
      </trkpt>
      <trkpt lat="49.95053" lon="2.29281">
        <ele>65.9</ele>
        <time>2022-12-28T14:37:08Z</time>
      </trkpt>
      <trkpt lat="49.95051" lon="2.29282">
        <ele>65.9</ele>
        <time>2022-12-28T14:37:09Z</time>
      </trkpt>
      <trkpt lat="49.9505" lon="2.29283">
        <ele>65.8</ele>
        <time>2022-12-28T14:37:10Z</time>
      </trkpt>
      <trkpt lat="49.95048" lon="2.29284">
        <ele>65.8</ele>
        <time>2022-12-28T14:37:11Z</time>
      </trkpt>
      <trkpt lat="49.95047" lon="2.29285">
        <ele>65.8</ele>
        <time>2022-12-28T14:37:13Z</time>
      </trkpt>
      <trkpt lat="49.95046" lon="2.29285">
        <ele>65.8</ele>
        <time>2022-12-28T14:37:14Z</time>
      </trkpt>
      <trkpt lat="49.95045" lon="2.29286">
        <ele>65.8</ele>
        <time>2022-12-28T14:37:15Z</time>
      </trkpt>
      <trkpt lat="49.95043" lon="2.29287">
        <ele>65.8</ele>
        <time>2022-12-28T14:37:16Z</time>
      </trkpt>
      <trkpt lat="49.95041" lon="2.29288">
        <ele>65.7</ele>
        <time>2022-12-28T14:37:17Z</time>
      </trkpt>
      <trkpt lat="49.9504" lon="2.29289">
        <ele>65.7</ele>
        <time>2022-12-28T14:37:18Z</time>
      </trkpt>
      <trkpt lat="49.95039" lon="2.29289">
        <ele>65.7</ele>
        <time>2022-12-28T14:37:19Z</time>
      </trkpt>
      <trkpt lat="49.95039" lon="2.2929">
        <ele>65.7</ele>
        <time>2022-12-28T14:37:20Z</time>
      </trkpt>
      <trkpt lat="49.95037" lon="2.29291">
        <ele>65.7</ele>
        <time>2022-12-28T14:37:21Z</time>
      </trkpt>
      <trkpt lat="49.95036" lon="2.29292">
        <ele>65.7</ele>
        <time>2022-12-28T14:37:22Z</time>
      </trkpt>
      <trkpt lat="49.95035" lon="2.29293">
        <ele>65.7</ele>
        <time>2022-12-28T14:37:24Z</time>
      </trkpt>
      <trkpt lat="49.95033" lon="2.29293">
        <ele>65.7</ele>
        <time>2022-12-28T14:37:25Z</time>
      </trkpt>
      <trkpt lat="49.95032" lon="2.29294">
        <ele>65.7</ele>
        <time>2022-12-28T14:37:26Z</time>
      </trkpt>
      <trkpt lat="49.95031" lon="2.29295">
        <ele>65.7</ele>
        <time>2022-12-28T14:37:27Z</time>
      </trkpt>
      <trkpt lat="49.9503" lon="2.29296">
        <ele>65.7</ele>
        <time>2022-12-28T14:37:28Z</time>
      </trkpt>
      <trkpt lat="49.95029" lon="2.29297">
        <ele>65.7</ele>
        <time>2022-12-28T14:37:29Z</time>
      </trkpt>
      <trkpt lat="49.95029" lon="2.29298">
        <ele>65.7</ele>
        <time>2022-12-28T14:37:30Z</time>
      </trkpt>
      <trkpt lat="49.95028" lon="2.29299">
        <ele>65.7</ele>
        <time>2022-12-28T14:37:31Z</time>
      </trkpt>
      <trkpt lat="49.95027" lon="2.29299">
        <ele>65.7</ele>
        <time>2022-12-28T14:37:32Z</time>
      </trkpt>
      <trkpt lat="49.95025" lon="2.293">
        <ele>65.7</ele>
        <time>2022-12-28T14:37:33Z</time>
      </trkpt>
      <trkpt lat="49.95024" lon="2.29301">
        <ele>65.7</ele>
        <time>2022-12-28T14:37:35Z</time>
      </trkpt>
      <trkpt lat="49.95023" lon="2.29302">
        <ele>65.7</ele>
        <time>2022-12-28T14:37:36Z</time>
      </trkpt>
      <trkpt lat="49.95022" lon="2.29303">
        <ele>65.7</ele>
        <time>2022-12-28T14:37:37Z</time>
      </trkpt>
      <trkpt lat="49.95021" lon="2.29303">
        <ele>65.7</ele>
        <time>2022-12-28T14:37:38Z</time>
      </trkpt>
      <trkpt lat="49.9502" lon="2.29304">
        <ele>65.7</ele>
        <time>2022-12-28T14:37:39Z</time>
      </trkpt>
      <trkpt lat="49.95018" lon="2.29305">
        <ele>65.7</ele>
        <time>2022-12-28T14:37:40Z</time>
      </trkpt>
      <trkpt lat="49.95016" lon="2.29305">
        <ele>65.7</ele>
        <time>2022-12-28T14:37:41Z</time>
      </trkpt>
      <trkpt lat="49.95016" lon="2.29305">
        <ele>65.7</ele>
        <time>2022-12-28T14:37:42Z</time>
      </trkpt>
      <trkpt lat="49.95015" lon="2.29306">
        <ele>65.7</ele>
        <time>2022-12-28T14:37:43Z</time>
      </trkpt>
      <trkpt lat="49.95014" lon="2.29306">
        <ele>65.7</ele>
        <time>2022-12-28T14:37:44Z</time>
      </trkpt>
      <trkpt lat="49.95012" lon="2.29306">
        <ele>65.7</ele>
        <time>2022-12-28T14:37:46Z</time>
      </trkpt>
      <trkpt lat="49.95011" lon="2.29306">
        <ele>65.7</ele>
        <time>2022-12-28T14:37:47Z</time>
      </trkpt>
      <trkpt lat="49.95009" lon="2.29307">
        <ele>65.7</ele>
        <time>2022-12-28T14:37:48Z</time>
      </trkpt>
      <trkpt lat="49.95008" lon="2.29307">
        <ele>65.7</ele>
        <time>2022-12-28T14:37:49Z</time>
      </trkpt>
      <trkpt lat="49.95007" lon="2.29308">
        <ele>65.7</ele>
        <time>2022-12-28T14:37:50Z</time>
      </trkpt>
      <trkpt lat="49.95006" lon="2.29308">
        <ele>65.7</ele>
        <time>2022-12-28T14:37:51Z</time>
      </trkpt>
      <trkpt lat="49.95005" lon="2.29309">
        <ele>65.7</ele>
        <time>2022-12-28T14:37:52Z</time>
      </trkpt>
      <trkpt lat="49.95004" lon="2.29309">
        <ele>65.7</ele>
        <time>2022-12-28T14:37:53Z</time>
      </trkpt>
      <trkpt lat="49.95002" lon="2.29311">
        <ele>65.7</ele>
        <time>2022-12-28T14:37:54Z</time>
      </trkpt>
      <trkpt lat="49.95001" lon="2.29311">
        <ele>65.7</ele>
        <time>2022-12-28T14:37:56Z</time>
      </trkpt>
      <trkpt lat="49.95" lon="2.29312">
        <ele>65.7</ele>
        <time>2022-12-28T14:37:57Z</time>
      </trkpt>
      <trkpt lat="49.94999" lon="2.29313">
        <ele>65.8</ele>
        <time>2022-12-28T14:37:58Z</time>
      </trkpt>
      <trkpt lat="49.94998" lon="2.29314">
        <ele>65.8</ele>
        <time>2022-12-28T14:37:59Z</time>
      </trkpt>
      <trkpt lat="49.94997" lon="2.29315">
        <ele>65.8</ele>
        <time>2022-12-28T14:38:00Z</time>
      </trkpt>
      <trkpt lat="49.94996" lon="2.29315">
        <ele>65.8</ele>
        <time>2022-12-28T14:38:01Z</time>
      </trkpt>
      <trkpt lat="49.94995" lon="2.29316">
        <ele>65.8</ele>
        <time>2022-12-28T14:38:02Z</time>
      </trkpt>
      <trkpt lat="49.94993" lon="2.29317">
        <ele>65.8</ele>
        <time>2022-12-28T14:38:04Z</time>
      </trkpt>
      <trkpt lat="49.94993" lon="2.29317">
        <ele>65.8</ele>
        <time>2022-12-28T14:38:05Z</time>
      </trkpt>
      <trkpt lat="49.94991" lon="2.29318">
        <ele>65.9</ele>
        <time>2022-12-28T14:38:06Z</time>
      </trkpt>
      <trkpt lat="49.9499" lon="2.29319">
        <ele>65.9</ele>
        <time>2022-12-28T14:38:07Z</time>
      </trkpt>
      <trkpt lat="49.94989" lon="2.2932">
        <ele>65.9</ele>
        <time>2022-12-28T14:38:08Z</time>
      </trkpt>
      <trkpt lat="49.94987" lon="2.29321">
        <ele>65.9</ele>
        <time>2022-12-28T14:38:09Z</time>
      </trkpt>
      <trkpt lat="49.94986" lon="2.29322">
        <ele>66</ele>
        <time>2022-12-28T14:38:11Z</time>
      </trkpt>
      <trkpt lat="49.94985" lon="2.29323">
        <ele>66</ele>
        <time>2022-12-28T14:38:12Z</time>
      </trkpt>
      <trkpt lat="49.94984" lon="2.29323">
        <ele>66</ele>
        <time>2022-12-28T14:38:13Z</time>
      </trkpt>
      <trkpt lat="49.94983" lon="2.29324">
        <ele>66</ele>
        <time>2022-12-28T14:38:14Z</time>
      </trkpt>
      <trkpt lat="49.94981" lon="2.29326">
        <ele>66.1</ele>
        <time>2022-12-28T14:38:15Z</time>
      </trkpt>
      <trkpt lat="49.94981" lon="2.29327">
        <ele>66.1</ele>
        <time>2022-12-28T14:38:16Z</time>
      </trkpt>
      <trkpt lat="49.9498" lon="2.29328">
        <ele>66.1</ele>
        <time>2022-12-28T14:38:17Z</time>
      </trkpt>
      <trkpt lat="49.94979" lon="2.29329">
        <ele>66.2</ele>
        <time>2022-12-28T14:38:18Z</time>
      </trkpt>
      <trkpt lat="49.94978" lon="2.2933">
        <ele>66.2</ele>
        <time>2022-12-28T14:38:20Z</time>
      </trkpt>
      <trkpt lat="49.94976" lon="2.29332">
        <ele>66.3</ele>
        <time>2022-12-28T14:38:21Z</time>
      </trkpt>
      <trkpt lat="49.94975" lon="2.29333">
        <ele>66.3</ele>
        <time>2022-12-28T14:38:22Z</time>
      </trkpt>
      <trkpt lat="49.94975" lon="2.29333">
        <ele>66.3</ele>
        <time>2022-12-28T14:38:23Z</time>
      </trkpt>
      <trkpt lat="49.94974" lon="2.29334">
        <ele>66.3</ele>
        <time>2022-12-28T14:38:24Z</time>
      </trkpt>
      <trkpt lat="49.94972" lon="2.29336">
        <ele>66.4</ele>
        <time>2022-12-28T14:38:25Z</time>
      </trkpt>
      <trkpt lat="49.94971" lon="2.29337">
        <ele>66.4</ele>
        <time>2022-12-28T14:38:26Z</time>
      </trkpt>
      <trkpt lat="49.9497" lon="2.29337">
        <ele>66.4</ele>
        <time>2022-12-28T14:38:27Z</time>
      </trkpt>
      <trkpt lat="49.94969" lon="2.29338">
        <ele>66.5</ele>
        <time>2022-12-28T14:38:29Z</time>
      </trkpt>
      <trkpt lat="49.94968" lon="2.29339">
        <ele>66.5</ele>
        <time>2022-12-28T14:38:30Z</time>
      </trkpt>
      <trkpt lat="49.94967" lon="2.2934">
        <ele>66.6</ele>
        <time>2022-12-28T14:38:31Z</time>
      </trkpt>
      <trkpt lat="49.94966" lon="2.29341">
        <ele>66.6</ele>
        <time>2022-12-28T14:38:32Z</time>
      </trkpt>
      <trkpt lat="49.94964" lon="2.29343">
        <ele>66.6</ele>
        <time>2022-12-28T14:38:33Z</time>
      </trkpt>
      <trkpt lat="49.94963" lon="2.29343">
        <ele>66.6</ele>
        <time>2022-12-28T14:38:34Z</time>
      </trkpt>
      <trkpt lat="49.94963" lon="2.29344">
        <ele>66.7</ele>
        <time>2022-12-28T14:38:35Z</time>
      </trkpt>
      <trkpt lat="49.94962" lon="2.29345">
        <ele>66.7</ele>
        <time>2022-12-28T14:38:36Z</time>
      </trkpt>
      <trkpt lat="49.9496" lon="2.29345">
        <ele>66.7</ele>
        <time>2022-12-28T14:38:38Z</time>
      </trkpt>
      <trkpt lat="49.94959" lon="2.29346">
        <ele>66.7</ele>
        <time>2022-12-28T14:38:39Z</time>
      </trkpt>
      <trkpt lat="49.94958" lon="2.29347">
        <ele>66.8</ele>
        <time>2022-12-28T14:38:40Z</time>
      </trkpt>
      <trkpt lat="49.94957" lon="2.29348">
        <ele>66.8</ele>
        <time>2022-12-28T14:38:41Z</time>
      </trkpt>
      <trkpt lat="49.94956" lon="2.2935">
        <ele>66.8</ele>
        <time>2022-12-28T14:38:42Z</time>
      </trkpt>
      <trkpt lat="49.94956" lon="2.29351">
        <ele>66.8</ele>
        <time>2022-12-28T14:38:43Z</time>
      </trkpt>
      <trkpt lat="49.94954" lon="2.29352">
        <ele>66.9</ele>
        <time>2022-12-28T14:38:44Z</time>
      </trkpt>
      <trkpt lat="49.94952" lon="2.29354">
        <ele>66.9</ele>
        <time>2022-12-28T14:38:46Z</time>
      </trkpt>
      <trkpt lat="49.94952" lon="2.29354">
        <ele>66.9</ele>
        <time>2022-12-28T14:38:47Z</time>
      </trkpt>
      <trkpt lat="49.94951" lon="2.29354">
        <ele>66.9</ele>
        <time>2022-12-28T14:38:48Z</time>
      </trkpt>
      <trkpt lat="49.9495" lon="2.29355">
        <ele>67</ele>
        <time>2022-12-28T14:38:49Z</time>
      </trkpt>
      <trkpt lat="49.94948" lon="2.29356">
        <ele>67</ele>
        <time>2022-12-28T14:38:50Z</time>
      </trkpt>
      <trkpt lat="49.94947" lon="2.29357">
        <ele>67</ele>
        <time>2022-12-28T14:38:51Z</time>
      </trkpt>
      <trkpt lat="49.94946" lon="2.29358">
        <ele>67</ele>
        <time>2022-12-28T14:38:52Z</time>
      </trkpt>
      <trkpt lat="49.94945" lon="2.29358">
        <ele>67.1</ele>
        <time>2022-12-28T14:38:53Z</time>
      </trkpt>
      <trkpt lat="49.94944" lon="2.29359">
        <ele>67.1</ele>
        <time>2022-12-28T14:38:54Z</time>
      </trkpt>
      <trkpt lat="49.94943" lon="2.2936">
        <ele>67.1</ele>
        <time>2022-12-28T14:38:56Z</time>
      </trkpt>
      <trkpt lat="49.94942" lon="2.2936">
        <ele>67.1</ele>
        <time>2022-12-28T14:38:57Z</time>
      </trkpt>
      <trkpt lat="49.9494" lon="2.29361">
        <ele>67.2</ele>
        <time>2022-12-28T14:38:58Z</time>
      </trkpt>
      <trkpt lat="49.94939" lon="2.29361">
        <ele>67.2</ele>
        <time>2022-12-28T14:38:59Z</time>
      </trkpt>
      <trkpt lat="49.94938" lon="2.29362">
        <ele>67.2</ele>
        <time>2022-12-28T14:39:00Z</time>
      </trkpt>
      <trkpt lat="49.94937" lon="2.29362">
        <ele>67.2</ele>
        <time>2022-12-28T14:39:01Z</time>
      </trkpt>
      <trkpt lat="49.94936" lon="2.29363">
        <ele>67.2</ele>
        <time>2022-12-28T14:39:02Z</time>
      </trkpt>
      <trkpt lat="49.94935" lon="2.29363">
        <ele>67.3</ele>
        <time>2022-12-28T14:39:04Z</time>
      </trkpt>
      <trkpt lat="49.94934" lon="2.29364">
        <ele>67.3</ele>
        <time>2022-12-28T14:39:05Z</time>
      </trkpt>
      <trkpt lat="49.94933" lon="2.29364">
        <ele>67.3</ele>
        <time>2022-12-28T14:39:06Z</time>
      </trkpt>
      <trkpt lat="49.94932" lon="2.29365">
        <ele>67.3</ele>
        <time>2022-12-28T14:39:07Z</time>
      </trkpt>
      <trkpt lat="49.94929" lon="2.29366">
        <ele>67.3</ele>
        <time>2022-12-28T14:39:08Z</time>
      </trkpt>
      <trkpt lat="49.94928" lon="2.29367">
        <ele>67.4</ele>
        <time>2022-12-28T14:39:09Z</time>
      </trkpt>
      <trkpt lat="49.94927" lon="2.29367">
        <ele>67.4</ele>
        <time>2022-12-28T14:39:10Z</time>
      </trkpt>
      <trkpt lat="49.94926" lon="2.29367">
        <ele>67.4</ele>
        <time>2022-12-28T14:39:12Z</time>
      </trkpt>
      <trkpt lat="49.94925" lon="2.29367">
        <ele>67.4</ele>
        <time>2022-12-28T14:39:13Z</time>
      </trkpt>
      <trkpt lat="49.94924" lon="2.29368">
        <ele>67.4</ele>
        <time>2022-12-28T14:39:14Z</time>
      </trkpt>
      <trkpt lat="49.94923" lon="2.29368">
        <ele>67.4</ele>
        <time>2022-12-28T14:39:15Z</time>
      </trkpt>
      <trkpt lat="49.94921" lon="2.29368">
        <ele>67.5</ele>
        <time>2022-12-28T14:39:16Z</time>
      </trkpt>
      <trkpt lat="49.9492" lon="2.29368">
        <ele>67.5</ele>
        <time>2022-12-28T14:39:17Z</time>
      </trkpt>
      <trkpt lat="49.94919" lon="2.29368">
        <ele>67.5</ele>
        <time>2022-12-28T14:39:18Z</time>
      </trkpt>
      <trkpt lat="49.94917" lon="2.29368">
        <ele>67.5</ele>
        <time>2022-12-28T14:39:20Z</time>
      </trkpt>
      <trkpt lat="49.94916" lon="2.29368">
        <ele>67.5</ele>
        <time>2022-12-28T14:39:21Z</time>
      </trkpt>
      <trkpt lat="49.94915" lon="2.29368">
        <ele>67.5</ele>
        <time>2022-12-28T14:39:22Z</time>
      </trkpt>
      <trkpt lat="49.94913" lon="2.29369">
        <ele>67.5</ele>
        <time>2022-12-28T14:39:23Z</time>
      </trkpt>
      <trkpt lat="49.94912" lon="2.29369">
        <ele>67.5</ele>
        <time>2022-12-28T14:39:24Z</time>
      </trkpt>
      <trkpt lat="49.94909" lon="2.2937">
        <ele>67.5</ele>
        <time>2022-12-28T14:39:25Z</time>
      </trkpt>
      <trkpt lat="49.94909" lon="2.2937">
        <ele>67.5</ele>
        <time>2022-12-28T14:39:26Z</time>
      </trkpt>
      <trkpt lat="49.94907" lon="2.2937">
        <ele>67.5</ele>
        <time>2022-12-28T14:39:27Z</time>
      </trkpt>
      <trkpt lat="49.94906" lon="2.2937">
        <ele>67.6</ele>
        <time>2022-12-28T14:39:29Z</time>
      </trkpt>
      <trkpt lat="49.94905" lon="2.2937">
        <ele>67.6</ele>
        <time>2022-12-28T14:39:30Z</time>
      </trkpt>
      <trkpt lat="49.94903" lon="2.2937">
        <ele>67.6</ele>
        <time>2022-12-28T14:39:31Z</time>
      </trkpt>
      <trkpt lat="49.94902" lon="2.29371">
        <ele>67.6</ele>
        <time>2022-12-28T14:39:32Z</time>
      </trkpt>
      <trkpt lat="49.94902" lon="2.29371">
        <ele>67.6</ele>
        <time>2022-12-28T14:39:33Z</time>
      </trkpt>
      <trkpt lat="49.94899" lon="2.29371">
        <ele>67.6</ele>
        <time>2022-12-28T14:39:34Z</time>
      </trkpt>
      <trkpt lat="49.94898" lon="2.29371">
        <ele>67.6</ele>
        <time>2022-12-28T14:39:35Z</time>
      </trkpt>
      <trkpt lat="49.94898" lon="2.29371">
        <ele>67.6</ele>
        <time>2022-12-28T14:39:36Z</time>
      </trkpt>
      <trkpt lat="49.94896" lon="2.29371">
        <ele>67.6</ele>
        <time>2022-12-28T14:39:38Z</time>
      </trkpt>
      <trkpt lat="49.94895" lon="2.29371">
        <ele>67.7</ele>
        <time>2022-12-28T14:39:39Z</time>
      </trkpt>
      <trkpt lat="49.94894" lon="2.29372">
        <ele>67.7</ele>
        <time>2022-12-28T14:39:40Z</time>
      </trkpt>
      <trkpt lat="49.94893" lon="2.29372">
        <ele>67.7</ele>
        <time>2022-12-28T14:39:41Z</time>
      </trkpt>
      <trkpt lat="49.94892" lon="2.29372">
        <ele>67.7</ele>
        <time>2022-12-28T14:39:42Z</time>
      </trkpt>
      <trkpt lat="49.94891" lon="2.29372">
        <ele>67.7</ele>
        <time>2022-12-28T14:39:43Z</time>
      </trkpt>
      <trkpt lat="49.9489" lon="2.29373">
        <ele>67.7</ele>
        <time>2022-12-28T14:39:45Z</time>
      </trkpt>
      <trkpt lat="49.94888" lon="2.29374">
        <ele>67.7</ele>
        <time>2022-12-28T14:39:46Z</time>
      </trkpt>
      <trkpt lat="49.94887" lon="2.29374">
        <ele>67.7</ele>
        <time>2022-12-28T14:39:47Z</time>
      </trkpt>
      <trkpt lat="49.94886" lon="2.29374">
        <ele>67.7</ele>
        <time>2022-12-28T14:39:48Z</time>
      </trkpt>
      <trkpt lat="49.94885" lon="2.29374">
        <ele>67.7</ele>
        <time>2022-12-28T14:39:49Z</time>
      </trkpt>
      <trkpt lat="49.94884" lon="2.29374">
        <ele>67.7</ele>
        <time>2022-12-28T14:39:50Z</time>
      </trkpt>
      <trkpt lat="49.94883" lon="2.29374">
        <ele>67.7</ele>
        <time>2022-12-28T14:39:52Z</time>
      </trkpt>
      <trkpt lat="49.94882" lon="2.29374">
        <ele>67.7</ele>
        <time>2022-12-28T14:39:53Z</time>
      </trkpt>
      <trkpt lat="49.9488" lon="2.29374">
        <ele>67.7</ele>
        <time>2022-12-28T14:39:54Z</time>
      </trkpt>
      <trkpt lat="49.94879" lon="2.29374">
        <ele>67.7</ele>
        <time>2022-12-28T14:39:55Z</time>
      </trkpt>
      <trkpt lat="49.94878" lon="2.29374">
        <ele>67.7</ele>
        <time>2022-12-28T14:39:56Z</time>
      </trkpt>
      <trkpt lat="49.94877" lon="2.29374">
        <ele>67.8</ele>
        <time>2022-12-28T14:39:58Z</time>
      </trkpt>
      <trkpt lat="49.94876" lon="2.29373">
        <ele>67.8</ele>
        <time>2022-12-28T14:39:59Z</time>
      </trkpt>
      <trkpt lat="49.94875" lon="2.29374">
        <ele>67.8</ele>
        <time>2022-12-28T14:40:00Z</time>
      </trkpt>
      <trkpt lat="49.94877" lon="2.29376">
        <ele>67.8</ele>
        <time>2022-12-28T14:40:01Z</time>
      </trkpt>
      <trkpt lat="49.94877" lon="2.29377">
        <ele>67.8</ele>
        <time>2022-12-28T14:40:02Z</time>
      </trkpt>
      <trkpt lat="49.94877" lon="2.29377">
        <ele>67.8</ele>
        <time>2022-12-28T14:40:03Z</time>
      </trkpt>
      <trkpt lat="49.94878" lon="2.29377">
        <ele>67.8</ele>
        <time>2022-12-28T14:40:05Z</time>
      </trkpt>
      <trkpt lat="49.94878" lon="2.29377">
        <ele>67.8</ele>
        <time>2022-12-28T14:40:06Z</time>
      </trkpt>
      <trkpt lat="49.94878" lon="2.29377">
        <ele>67.8</ele>
        <time>2022-12-28T14:40:08Z</time>
      </trkpt>
      <trkpt lat="49.94878" lon="2.29377">
        <ele>67.8</ele>
        <time>2022-12-28T14:40:09Z</time>
      </trkpt>
      <trkpt lat="49.94878" lon="2.29377">
        <ele>67.8</ele>
        <time>2022-12-28T14:40:10Z</time>
      </trkpt>
      <trkpt lat="49.94879" lon="2.29377">
        <ele>67.8</ele>
        <time>2022-12-28T14:40:12Z</time>
      </trkpt>
      <trkpt lat="49.94879" lon="2.29377">
        <ele>67.8</ele>
        <time>2022-12-28T14:40:14Z</time>
      </trkpt>
      <trkpt lat="49.94879" lon="2.29378">
        <ele>67.8</ele>
        <time>2022-12-28T14:40:15Z</time>
      </trkpt>
      <trkpt lat="49.94878" lon="2.29378">
        <ele>67.8</ele>
        <time>2022-12-28T14:40:16Z</time>
      </trkpt>
      <trkpt lat="49.94879" lon="2.29378">
        <ele>67.8</ele>
        <time>2022-12-28T14:40:18Z</time>
      </trkpt>
      <trkpt lat="49.94878" lon="2.29377">
        <ele>67.8</ele>
        <time>2022-12-28T14:40:19Z</time>
      </trkpt>
      <trkpt lat="49.94878" lon="2.29377">
        <ele>67.8</ele>
        <time>2022-12-28T14:40:20Z</time>
      </trkpt>
      <trkpt lat="49.94878" lon="2.29377">
        <ele>67.8</ele>
        <time>2022-12-28T14:40:21Z</time>
      </trkpt>
      <trkpt lat="49.94878" lon="2.29377">
        <ele>67.8</ele>
        <time>2022-12-28T14:40:22Z</time>
      </trkpt>
      <trkpt lat="49.94878" lon="2.29377">
        <ele>67.8</ele>
        <time>2022-12-28T14:40:23Z</time>
      </trkpt>
      <trkpt lat="49.94878" lon="2.29377">
        <ele>67.8</ele>
        <time>2022-12-28T14:40:24Z</time>
      </trkpt>
      <trkpt lat="49.94878" lon="2.29377">
        <ele>67.8</ele>
        <time>2022-12-28T14:40:25Z</time>
      </trkpt>
      <trkpt lat="49.94878" lon="2.29377">
        <ele>67.8</ele>
        <time>2022-12-28T14:40:26Z</time>
      </trkpt>
      <trkpt lat="49.94878" lon="2.29377">
        <ele>67.8</ele>
        <time>2022-12-28T14:40:27Z</time>
      </trkpt>
      <trkpt lat="49.94878" lon="2.29377">
        <ele>67.8</ele>
        <time>2022-12-28T14:40:28Z</time>
      </trkpt>
      <trkpt lat="49.94878" lon="2.29377">
        <ele>67.8</ele>
        <time>2022-12-28T14:40:29Z</time>
      </trkpt>
      <trkpt lat="49.94878" lon="2.29377">
        <ele>67.8</ele>
        <time>2022-12-28T14:40:30Z</time>
      </trkpt>
      <trkpt lat="49.94878" lon="2.29377">
        <ele>67.8</ele>
        <time>2022-12-28T14:40:31Z</time>
      </trkpt>
      <trkpt lat="49.94878" lon="2.29377">
        <ele>67.8</ele>
        <time>2022-12-28T14:40:32Z</time>
      </trkpt>
      <trkpt lat="49.94878" lon="2.29377">
        <ele>67.8</ele>
        <time>2022-12-28T14:40:33Z</time>
      </trkpt>
      <trkpt lat="49.94878" lon="2.29377">
        <ele>67.8</ele>
        <time>2022-12-28T14:40:34Z</time>
      </trkpt>
      <trkpt lat="49.94878" lon="2.29377">
        <ele>67.8</ele>
        <time>2022-12-28T14:40:35Z</time>
      </trkpt>
      <trkpt lat="49.94878" lon="2.29377">
        <ele>67.8</ele>
        <time>2022-12-28T14:40:36Z</time>
      </trkpt>
      <trkpt lat="49.94878" lon="2.29377">
        <ele>67.8</ele>
        <time>2022-12-28T14:40:37Z</time>
      </trkpt>
      <trkpt lat="49.94878" lon="2.29377">
        <ele>67.8</ele>
        <time>2022-12-28T14:40:38Z</time>
      </trkpt>
      <trkpt lat="49.94878" lon="2.29377">
        <ele>67.8</ele>
        <time>2022-12-28T14:40:39Z</time>
      </trkpt>
      <trkpt lat="49.94878" lon="2.29377">
        <ele>67.8</ele>
        <time>2022-12-28T14:40:40Z</time>
      </trkpt>
      <trkpt lat="49.94878" lon="2.29377">
        <ele>67.8</ele>
        <time>2022-12-28T14:40:41Z</time>
      </trkpt>
      <trkpt lat="49.94878" lon="2.29377">
        <ele>67.8</ele>
        <time>2022-12-28T14:40:42Z</time>
      </trkpt>
      <trkpt lat="49.94878" lon="2.29377">
        <ele>67.8</ele>
        <time>2022-12-28T14:40:43Z</time>
      </trkpt>
      <trkpt lat="49.94878" lon="2.29377">
        <ele>67.8</ele>
        <time>2022-12-28T14:40:44Z</time>
      </trkpt>
      <trkpt lat="49.94878" lon="2.29377">
        <ele>67.8</ele>
        <time>2022-12-28T14:40:45Z</time>
      </trkpt>
      <trkpt lat="49.94878" lon="2.29377">
        <ele>67.8</ele>
        <time>2022-12-28T14:40:46Z</time>
      </trkpt>
      <trkpt lat="49.94878" lon="2.29377">
        <ele>67.8</ele>
        <time>2022-12-28T14:40:47Z</time>
      </trkpt>
      <trkpt lat="49.94878" lon="2.29377">
        <ele>67.8</ele>
        <time>2022-12-28T14:40:48Z</time>
      </trkpt>
      <trkpt lat="49.94878" lon="2.29377">
        <ele>67.8</ele>
        <time>2022-12-28T14:40:49Z</time>
      </trkpt>
      <trkpt lat="49.94878" lon="2.29377">
        <ele>67.8</ele>
        <time>2022-12-28T14:40:50Z</time>
      </trkpt>
      <trkpt lat="49.94878" lon="2.29377">
        <ele>67.8</ele>
        <time>2022-12-28T14:40:51Z</time>
      </trkpt>
      <trkpt lat="49.94878" lon="2.29377">
        <ele>67.8</ele>
        <time>2022-12-28T14:40:52Z</time>
      </trkpt>
      <trkpt lat="49.94878" lon="2.29377">
        <ele>67.8</ele>
        <time>2022-12-28T14:40:53Z</time>
      </trkpt>
      <trkpt lat="49.94878" lon="2.29377">
        <ele>67.8</ele>
        <time>2022-12-28T14:40:54Z</time>
      </trkpt>
      <trkpt lat="49.94878" lon="2.29377">
        <ele>67.8</ele>
        <time>2022-12-28T14:40:55Z</time>
      </trkpt>
      <trkpt lat="49.94878" lon="2.29377">
        <ele>67.8</ele>
        <time>2022-12-28T14:40:56Z</time>
      </trkpt>
      <trkpt lat="49.94878" lon="2.29377">
        <ele>67.8</ele>
        <time>2022-12-28T14:40:57Z</time>
      </trkpt>
      <trkpt lat="49.94878" lon="2.29377">
        <ele>67.8</ele>
        <time>2022-12-28T14:40:58Z</time>
      </trkpt>
      <trkpt lat="49.94878" lon="2.29377">
        <ele>67.8</ele>
        <time>2022-12-28T14:40:59Z</time>
      </trkpt>
      <trkpt lat="49.94878" lon="2.29377">
        <ele>67.8</ele>
        <time>2022-12-28T14:41:00Z</time>
      </trkpt>
      <trkpt lat="49.94878" lon="2.29377">
        <ele>67.8</ele>
        <time>2022-12-28T14:41:01Z</time>
      </trkpt>
      <trkpt lat="49.94878" lon="2.29377">
        <ele>67.8</ele>
        <time>2022-12-28T14:41:02Z</time>
      </trkpt>
      <trkpt lat="49.94878" lon="2.29377">
        <ele>67.8</ele>
        <time>2022-12-28T14:41:03Z</time>
      </trkpt>
      <trkpt lat="49.94878" lon="2.29377">
        <ele>67.8</ele>
        <time>2022-12-28T14:41:04Z</time>
      </trkpt>
      <trkpt lat="49.94878" lon="2.29377">
        <ele>67.8</ele>
        <time>2022-12-28T14:41:05Z</time>
      </trkpt>
      <trkpt lat="49.94878" lon="2.29377">
        <ele>67.8</ele>
        <time>2022-12-28T14:41:06Z</time>
      </trkpt>
      <trkpt lat="49.94878" lon="2.29377">
        <ele>67.8</ele>
        <time>2022-12-28T14:41:07Z</time>
      </trkpt>
      <trkpt lat="49.94878" lon="2.29377">
        <ele>67.8</ele>
        <time>2022-12-28T14:41:08Z</time>
      </trkpt>
      <trkpt lat="49.94878" lon="2.29377">
        <ele>67.8</ele>
        <time>2022-12-28T14:41:09Z</time>
      </trkpt>
      <trkpt lat="49.94878" lon="2.29377">
        <ele>67.8</ele>
        <time>2022-12-28T14:41:10Z</time>
      </trkpt>
      <trkpt lat="49.94878" lon="2.29377">
        <ele>67.8</ele>
        <time>2022-12-28T14:41:11Z</time>
      </trkpt>
      <trkpt lat="49.94878" lon="2.29377">
        <ele>67.8</ele>
        <time>2022-12-28T14:41:12Z</time>
      </trkpt>
      <trkpt lat="49.94878" lon="2.29377">
        <ele>67.8</ele>
        <time>2022-12-28T14:41:13Z</time>
      </trkpt>
      <trkpt lat="49.94878" lon="2.29377">
        <ele>67.8</ele>
        <time>2022-12-28T14:41:14Z</time>
      </trkpt>
      <trkpt lat="49.94878" lon="2.29377">
        <ele>67.8</ele>
        <time>2022-12-28T14:41:15Z</time>
      </trkpt>
      <trkpt lat="49.94878" lon="2.29377">
        <ele>67.8</ele>
        <time>2022-12-28T14:41:16Z</time>
      </trkpt>
      <trkpt lat="49.94878" lon="2.29377">
        <ele>67.8</ele>
        <time>2022-12-28T14:41:17Z</time>
      </trkpt>
      <trkpt lat="49.94878" lon="2.29377">
        <ele>67.8</ele>
        <time>2022-12-28T14:41:18Z</time>
      </trkpt>
      <trkpt lat="49.94878" lon="2.29377">
        <ele>67.8</ele>
        <time>2022-12-28T14:41:19Z</time>
      </trkpt>
      <trkpt lat="49.94878" lon="2.29377">
        <ele>67.8</ele>
        <time>2022-12-28T14:41:20Z</time>
      </trkpt>
      <trkpt lat="49.94878" lon="2.29377">
        <ele>67.8</ele>
        <time>2022-12-28T14:41:21Z</time>
      </trkpt>
      <trkpt lat="49.94878" lon="2.29377">
        <ele>67.8</ele>
        <time>2022-12-28T14:41:22Z</time>
      </trkpt>
      <trkpt lat="49.94878" lon="2.29377">
        <ele>67.8</ele>
        <time>2022-12-28T14:41:23Z</time>
      </trkpt>
      <trkpt lat="49.94878" lon="2.29377">
        <ele>67.8</ele>
        <time>2022-12-28T14:41:24Z</time>
      </trkpt>
      <trkpt lat="49.94878" lon="2.29377">
        <ele>67.8</ele>
        <time>2022-12-28T14:41:25Z</time>
      </trkpt>
      <trkpt lat="49.94878" lon="2.29377">
        <ele>67.8</ele>
        <time>2022-12-28T14:41:26Z</time>
      </trkpt>
      <trkpt lat="49.94878" lon="2.29375">
        <ele>67.8</ele>
        <time>2022-12-28T14:41:27Z</time>
      </trkpt>
      <trkpt lat="49.94877" lon="2.29374">
        <ele>67.8</ele>
        <time>2022-12-28T14:41:28Z</time>
      </trkpt>
      <trkpt lat="49.94877" lon="2.29375">
        <ele>67.8</ele>
        <time>2022-12-28T14:41:29Z</time>
      </trkpt>
      <trkpt lat="49.94877" lon="2.29375">
        <ele>67.8</ele>
        <time>2022-12-28T14:41:30Z</time>
      </trkpt>
      <trkpt lat="49.94876" lon="2.29376">
        <ele>67.8</ele>
        <time>2022-12-28T14:41:31Z</time>
      </trkpt>
      <trkpt lat="49.94876" lon="2.29377">
        <ele>67.8</ele>
        <time>2022-12-28T14:41:32Z</time>
      </trkpt>
      <trkpt lat="49.94876" lon="2.29379">
        <ele>67.8</ele>
        <time>2022-12-28T14:41:33Z</time>
      </trkpt>
      <trkpt lat="49.94875" lon="2.29379">
        <ele>67.8</ele>
        <time>2022-12-28T14:41:35Z</time>
      </trkpt>
      <trkpt lat="49.94875" lon="2.2938">
        <ele>67.8</ele>
        <time>2022-12-28T14:41:36Z</time>
      </trkpt>
      <trkpt lat="49.94875" lon="2.29382">
        <ele>67.8</ele>
        <time>2022-12-28T14:41:37Z</time>
      </trkpt>
      <trkpt lat="49.94875" lon="2.29384">
        <ele>67.8</ele>
        <time>2022-12-28T14:41:38Z</time>
      </trkpt>
      <trkpt lat="49.94875" lon="2.29386">
        <ele>67.8</ele>
        <time>2022-12-28T14:41:39Z</time>
      </trkpt>
      <trkpt lat="49.94875" lon="2.29389">
        <ele>67.9</ele>
        <time>2022-12-28T14:41:40Z</time>
      </trkpt>
      <trkpt lat="49.94875" lon="2.29391">
        <ele>67.9</ele>
        <time>2022-12-28T14:41:41Z</time>
      </trkpt>
      <trkpt lat="49.94875" lon="2.29393">
        <ele>67.9</ele>
        <time>2022-12-28T14:41:43Z</time>
      </trkpt>
      <trkpt lat="49.94876" lon="2.29395">
        <ele>67.9</ele>
        <time>2022-12-28T14:41:44Z</time>
      </trkpt>
      <trkpt lat="49.94876" lon="2.29397">
        <ele>67.9</ele>
        <time>2022-12-28T14:41:45Z</time>
      </trkpt>
      <trkpt lat="49.94877" lon="2.29399">
        <ele>67.9</ele>
        <time>2022-12-28T14:41:46Z</time>
      </trkpt>
      <trkpt lat="49.94878" lon="2.29401">
        <ele>67.9</ele>
        <time>2022-12-28T14:41:47Z</time>
      </trkpt>
      <trkpt lat="49.94879" lon="2.29403">
        <ele>67.9</ele>
        <time>2022-12-28T14:41:49Z</time>
      </trkpt>
      <trkpt lat="49.94879" lon="2.29405">
        <ele>67.9</ele>
        <time>2022-12-28T14:41:50Z</time>
      </trkpt>
      <trkpt lat="49.9488" lon="2.29408">
        <ele>67.9</ele>
        <time>2022-12-28T14:41:51Z</time>
      </trkpt>
      <trkpt lat="49.9488" lon="2.29409">
        <ele>67.9</ele>
        <time>2022-12-28T14:41:52Z</time>
      </trkpt>
      <trkpt lat="49.94881" lon="2.2941">
        <ele>67.9</ele>
        <time>2022-12-28T14:41:53Z</time>
      </trkpt>
      <trkpt lat="49.9488" lon="2.29414">
        <ele>68</ele>
        <time>2022-12-28T14:41:54Z</time>
      </trkpt>
      <trkpt lat="49.94881" lon="2.29415">
        <ele>68</ele>
        <time>2022-12-28T14:41:55Z</time>
      </trkpt>
      <trkpt lat="49.94881" lon="2.29417">
        <ele>68</ele>
        <time>2022-12-28T14:41:56Z</time>
      </trkpt>
      <trkpt lat="49.94881" lon="2.29419">
        <ele>68</ele>
        <time>2022-12-28T14:41:58Z</time>
      </trkpt>
      <trkpt lat="49.94881" lon="2.29421">
        <ele>68</ele>
        <time>2022-12-28T14:41:59Z</time>
      </trkpt>
      <trkpt lat="49.94881" lon="2.29422">
        <ele>68</ele>
        <time>2022-12-28T14:42:00Z</time>
      </trkpt>
      <trkpt lat="49.94882" lon="2.29425">
        <ele>68</ele>
        <time>2022-12-28T14:42:01Z</time>
      </trkpt>
      <trkpt lat="49.94882" lon="2.29426">
        <ele>68</ele>
        <time>2022-12-28T14:42:02Z</time>
      </trkpt>
      <trkpt lat="49.94882" lon="2.29428">
        <ele>68</ele>
        <time>2022-12-28T14:42:03Z</time>
      </trkpt>
      <trkpt lat="49.94883" lon="2.2943">
        <ele>68</ele>
        <time>2022-12-28T14:42:04Z</time>
      </trkpt>
      <trkpt lat="49.94883" lon="2.29432">
        <ele>68.1</ele>
        <time>2022-12-28T14:42:06Z</time>
      </trkpt>
      <trkpt lat="49.94884" lon="2.29434">
        <ele>68.1</ele>
        <time>2022-12-28T14:42:07Z</time>
      </trkpt>
      <trkpt lat="49.94884" lon="2.29436">
        <ele>68.1</ele>
        <time>2022-12-28T14:42:08Z</time>
      </trkpt>
      <trkpt lat="49.94884" lon="2.29439">
        <ele>68.1</ele>
        <time>2022-12-28T14:42:09Z</time>
      </trkpt>
      <trkpt lat="49.94885" lon="2.29442">
        <ele>68.1</ele>
        <time>2022-12-28T14:42:10Z</time>
      </trkpt>
      <trkpt lat="49.94885" lon="2.29443">
        <ele>68.1</ele>
        <time>2022-12-28T14:42:11Z</time>
      </trkpt>
      <trkpt lat="49.94886" lon="2.29444">
        <ele>68.2</ele>
        <time>2022-12-28T14:42:12Z</time>
      </trkpt>
      <trkpt lat="49.94886" lon="2.29447">
        <ele>68.2</ele>
        <time>2022-12-28T14:42:13Z</time>
      </trkpt>
      <trkpt lat="49.94887" lon="2.29448">
        <ele>68.2</ele>
        <time>2022-12-28T14:42:15Z</time>
      </trkpt>
      <trkpt lat="49.94887" lon="2.2945">
        <ele>68.2</ele>
        <time>2022-12-28T14:42:16Z</time>
      </trkpt>
      <trkpt lat="49.94887" lon="2.29451">
        <ele>68.2</ele>
        <time>2022-12-28T14:42:17Z</time>
      </trkpt>
      <trkpt lat="49.94888" lon="2.29453">
        <ele>68.2</ele>
        <time>2022-12-28T14:42:18Z</time>
      </trkpt>
      <trkpt lat="49.94888" lon="2.29455">
        <ele>68.3</ele>
        <time>2022-12-28T14:42:19Z</time>
      </trkpt>
      <trkpt lat="49.94888" lon="2.29457">
        <ele>68.3</ele>
        <time>2022-12-28T14:42:20Z</time>
      </trkpt>
      <trkpt lat="49.94888" lon="2.29459">
        <ele>68.3</ele>
        <time>2022-12-28T14:42:21Z</time>
      </trkpt>
      <trkpt lat="49.94888" lon="2.29461">
        <ele>68.3</ele>
        <time>2022-12-28T14:42:23Z</time>
      </trkpt>
      <trkpt lat="49.94889" lon="2.29464">
        <ele>68.3</ele>
        <time>2022-12-28T14:42:24Z</time>
      </trkpt>
      <trkpt lat="49.94889" lon="2.29465">
        <ele>68.4</ele>
        <time>2022-12-28T14:42:25Z</time>
      </trkpt>
      <trkpt lat="49.94889" lon="2.29469">
        <ele>68.4</ele>
        <time>2022-12-28T14:42:26Z</time>
      </trkpt>
      <trkpt lat="49.94889" lon="2.29471">
        <ele>68.4</ele>
        <time>2022-12-28T14:42:28Z</time>
      </trkpt>
      <trkpt lat="49.9489" lon="2.29472">
        <ele>68.4</ele>
        <time>2022-12-28T14:42:29Z</time>
      </trkpt>
      <trkpt lat="49.9489" lon="2.29474">
        <ele>68.4</ele>
        <time>2022-12-28T14:42:30Z</time>
      </trkpt>
      <trkpt lat="49.9489" lon="2.29476">
        <ele>68.5</ele>
        <time>2022-12-28T14:42:31Z</time>
      </trkpt>
      <trkpt lat="49.9489" lon="2.29478">
        <ele>68.5</ele>
        <time>2022-12-28T14:42:32Z</time>
      </trkpt>
      <trkpt lat="49.9489" lon="2.29479">
        <ele>68.5</ele>
        <time>2022-12-28T14:42:33Z</time>
      </trkpt>
      <trkpt lat="49.94889" lon="2.29481">
        <ele>68.5</ele>
        <time>2022-12-28T14:42:34Z</time>
      </trkpt>
      <trkpt lat="49.94889" lon="2.29483">
        <ele>68.5</ele>
        <time>2022-12-28T14:42:35Z</time>
      </trkpt>
      <trkpt lat="49.94889" lon="2.29485">
        <ele>68.5</ele>
        <time>2022-12-28T14:42:36Z</time>
      </trkpt>
      <trkpt lat="49.94888" lon="2.29487">
        <ele>68.6</ele>
        <time>2022-12-28T14:42:38Z</time>
      </trkpt>
      <trkpt lat="49.94888" lon="2.29489">
        <ele>68.6</ele>
        <time>2022-12-28T14:42:39Z</time>
      </trkpt>
      <trkpt lat="49.94889" lon="2.2949">
        <ele>68.6</ele>
        <time>2022-12-28T14:42:40Z</time>
      </trkpt>
      <trkpt lat="49.94889" lon="2.29492">
        <ele>68.6</ele>
        <time>2022-12-28T14:42:41Z</time>
      </trkpt>
      <trkpt lat="49.94889" lon="2.29494">
        <ele>68.6</ele>
        <time>2022-12-28T14:42:42Z</time>
      </trkpt>
      <trkpt lat="49.94889" lon="2.29497">
        <ele>68.6</ele>
        <time>2022-12-28T14:42:43Z</time>
      </trkpt>
      <trkpt lat="49.9489" lon="2.29499">
        <ele>68.6</ele>
        <time>2022-12-28T14:42:45Z</time>
      </trkpt>
      <trkpt lat="49.9489" lon="2.29501">
        <ele>68.7</ele>
        <time>2022-12-28T14:42:46Z</time>
      </trkpt>
      <trkpt lat="49.94891" lon="2.29503">
        <ele>68.7</ele>
        <time>2022-12-28T14:42:47Z</time>
      </trkpt>
      <trkpt lat="49.94891" lon="2.29505">
        <ele>68.7</ele>
        <time>2022-12-28T14:42:48Z</time>
      </trkpt>
      <trkpt lat="49.94892" lon="2.29507">
        <ele>68.7</ele>
        <time>2022-12-28T14:42:49Z</time>
      </trkpt>
      <trkpt lat="49.94892" lon="2.29509">
        <ele>68.7</ele>
        <time>2022-12-28T14:42:50Z</time>
      </trkpt>
      <trkpt lat="49.94892" lon="2.2951">
        <ele>68.7</ele>
        <time>2022-12-28T14:42:51Z</time>
      </trkpt>
      <trkpt lat="49.94893" lon="2.29513">
        <ele>68.7</ele>
        <time>2022-12-28T14:42:52Z</time>
      </trkpt>
      <trkpt lat="49.94893" lon="2.29514">
        <ele>68.7</ele>
        <time>2022-12-28T14:42:53Z</time>
      </trkpt>
      <trkpt lat="49.94893" lon="2.29516">
        <ele>68.7</ele>
        <time>2022-12-28T14:42:54Z</time>
      </trkpt>
      <trkpt lat="49.94893" lon="2.29517">
        <ele>68.7</ele>
        <time>2022-12-28T14:42:56Z</time>
      </trkpt>
      <trkpt lat="49.94893" lon="2.29519">
        <ele>68.7</ele>
        <time>2022-12-28T14:42:57Z</time>
      </trkpt>
      <trkpt lat="49.94893" lon="2.29521">
        <ele>68.7</ele>
        <time>2022-12-28T14:42:58Z</time>
      </trkpt>
      <trkpt lat="49.94893" lon="2.29525">
        <ele>68.7</ele>
        <time>2022-12-28T14:42:59Z</time>
      </trkpt>
      <trkpt lat="49.94893" lon="2.29526">
        <ele>68.7</ele>
        <time>2022-12-28T14:43:00Z</time>
      </trkpt>
      <trkpt lat="49.94893" lon="2.29527">
        <ele>68.7</ele>
        <time>2022-12-28T14:43:01Z</time>
      </trkpt>
      <trkpt lat="49.94893" lon="2.29528">
        <ele>68.8</ele>
        <time>2022-12-28T14:43:02Z</time>
      </trkpt>
      <trkpt lat="49.94893" lon="2.2953">
        <ele>68.8</ele>
        <time>2022-12-28T14:43:03Z</time>
      </trkpt>
      <trkpt lat="49.94893" lon="2.29532">
        <ele>68.8</ele>
        <time>2022-12-28T14:43:04Z</time>
      </trkpt>
      <trkpt lat="49.94894" lon="2.29534">
        <ele>68.8</ele>
        <time>2022-12-28T14:43:05Z</time>
      </trkpt>
      <trkpt lat="49.94894" lon="2.29536">
        <ele>68.8</ele>
        <time>2022-12-28T14:43:06Z</time>
      </trkpt>
      <trkpt lat="49.94894" lon="2.29538">
        <ele>68.8</ele>
        <time>2022-12-28T14:43:08Z</time>
      </trkpt>
      <trkpt lat="49.94894" lon="2.29539">
        <ele>68.8</ele>
        <time>2022-12-28T14:43:09Z</time>
      </trkpt>
      <trkpt lat="49.94894" lon="2.29541">
        <ele>68.8</ele>
        <time>2022-12-28T14:43:10Z</time>
      </trkpt>
      <trkpt lat="49.94894" lon="2.29544">
        <ele>68.8</ele>
        <time>2022-12-28T14:43:11Z</time>
      </trkpt>
      <trkpt lat="49.94894" lon="2.29545">
        <ele>68.8</ele>
        <time>2022-12-28T14:43:12Z</time>
      </trkpt>
      <trkpt lat="49.94894" lon="2.29546">
        <ele>68.8</ele>
        <time>2022-12-28T14:43:13Z</time>
      </trkpt>
      <trkpt lat="49.94895" lon="2.29548">
        <ele>68.8</ele>
        <time>2022-12-28T14:43:14Z</time>
      </trkpt>
      <trkpt lat="49.94895" lon="2.2955">
        <ele>68.8</ele>
        <time>2022-12-28T14:43:15Z</time>
      </trkpt>
      <trkpt lat="49.94895" lon="2.29551">
        <ele>68.8</ele>
        <time>2022-12-28T14:43:16Z</time>
      </trkpt>
      <trkpt lat="49.94895" lon="2.29554">
        <ele>68.8</ele>
        <time>2022-12-28T14:43:17Z</time>
      </trkpt>
      <trkpt lat="49.94896" lon="2.29556">
        <ele>68.8</ele>
        <time>2022-12-28T14:43:19Z</time>
      </trkpt>
      <trkpt lat="49.94896" lon="2.29557">
        <ele>68.8</ele>
        <time>2022-12-28T14:43:20Z</time>
      </trkpt>
      <trkpt lat="49.94897" lon="2.29559">
        <ele>68.8</ele>
        <time>2022-12-28T14:43:21Z</time>
      </trkpt>
      <trkpt lat="49.94897" lon="2.29561">
        <ele>68.8</ele>
        <time>2022-12-28T14:43:22Z</time>
      </trkpt>
      <trkpt lat="49.94898" lon="2.29563">
        <ele>68.8</ele>
        <time>2022-12-28T14:43:23Z</time>
      </trkpt>
      <trkpt lat="49.94898" lon="2.29565">
        <ele>68.8</ele>
        <time>2022-12-28T14:43:24Z</time>
      </trkpt>
      <trkpt lat="49.94899" lon="2.29567">
        <ele>68.8</ele>
        <time>2022-12-28T14:43:25Z</time>
      </trkpt>
      <trkpt lat="49.94899" lon="2.29569">
        <ele>68.8</ele>
        <time>2022-12-28T14:43:26Z</time>
      </trkpt>
      <trkpt lat="49.949" lon="2.2957">
        <ele>68.9</ele>
        <time>2022-12-28T14:43:28Z</time>
      </trkpt>
      <trkpt lat="49.949" lon="2.29572">
        <ele>68.9</ele>
        <time>2022-12-28T14:43:29Z</time>
      </trkpt>
      <trkpt lat="49.949" lon="2.29573">
        <ele>68.9</ele>
        <time>2022-12-28T14:43:30Z</time>
      </trkpt>
      <trkpt lat="49.94901" lon="2.29575">
        <ele>68.9</ele>
        <time>2022-12-28T14:43:31Z</time>
      </trkpt>
      <trkpt lat="49.94901" lon="2.29578">
        <ele>68.9</ele>
        <time>2022-12-28T14:43:32Z</time>
      </trkpt>
      <trkpt lat="49.94902" lon="2.2958">
        <ele>68.9</ele>
        <time>2022-12-28T14:43:34Z</time>
      </trkpt>
      <trkpt lat="49.94902" lon="2.29581">
        <ele>68.9</ele>
        <time>2022-12-28T14:43:35Z</time>
      </trkpt>
      <trkpt lat="49.94902" lon="2.29583">
        <ele>68.9</ele>
        <time>2022-12-28T14:43:36Z</time>
      </trkpt>
      <trkpt lat="49.94902" lon="2.29585">
        <ele>68.9</ele>
        <time>2022-12-28T14:43:37Z</time>
      </trkpt>
      <trkpt lat="49.94903" lon="2.29587">
        <ele>68.9</ele>
        <time>2022-12-28T14:43:38Z</time>
      </trkpt>
      <trkpt lat="49.94903" lon="2.29588">
        <ele>68.9</ele>
        <time>2022-12-28T14:43:39Z</time>
      </trkpt>
      <trkpt lat="49.94904" lon="2.2959">
        <ele>68.9</ele>
        <time>2022-12-28T14:43:40Z</time>
      </trkpt>
      <trkpt lat="49.94904" lon="2.29592">
        <ele>68.9</ele>
        <time>2022-12-28T14:43:42Z</time>
      </trkpt>
      <trkpt lat="49.94905" lon="2.29594">
        <ele>68.9</ele>
        <time>2022-12-28T14:43:43Z</time>
      </trkpt>
      <trkpt lat="49.94905" lon="2.29595">
        <ele>68.9</ele>
        <time>2022-12-28T14:43:44Z</time>
      </trkpt>
      <trkpt lat="49.94906" lon="2.29597">
        <ele>68.9</ele>
        <time>2022-12-28T14:43:45Z</time>
      </trkpt>
      <trkpt lat="49.94906" lon="2.296">
        <ele>69</ele>
        <time>2022-12-28T14:43:47Z</time>
      </trkpt>
      <trkpt lat="49.94907" lon="2.29601">
        <ele>69</ele>
        <time>2022-12-28T14:43:48Z</time>
      </trkpt>
      <trkpt lat="49.94907" lon="2.29603">
        <ele>69</ele>
        <time>2022-12-28T14:43:49Z</time>
      </trkpt>
      <trkpt lat="49.94908" lon="2.29605">
        <ele>69</ele>
        <time>2022-12-28T14:43:50Z</time>
      </trkpt>
      <trkpt lat="49.94908" lon="2.29608">
        <ele>69</ele>
        <time>2022-12-28T14:43:51Z</time>
      </trkpt>
      <trkpt lat="49.94907" lon="2.29609">
        <ele>69</ele>
        <time>2022-12-28T14:43:52Z</time>
      </trkpt>
      <trkpt lat="49.94906" lon="2.29609">
        <ele>69</ele>
        <time>2022-12-28T14:43:53Z</time>
      </trkpt>
      <trkpt lat="49.94904" lon="2.29609">
        <ele>69</ele>
        <time>2022-12-28T14:43:55Z</time>
      </trkpt>
      <trkpt lat="49.94904" lon="2.2961">
        <ele>69</ele>
        <time>2022-12-28T14:43:56Z</time>
      </trkpt>
      <trkpt lat="49.94904" lon="2.29612">
        <ele>69</ele>
        <time>2022-12-28T14:43:57Z</time>
      </trkpt>
      <trkpt lat="49.94905" lon="2.29613">
        <ele>69</ele>
        <time>2022-12-28T14:43:58Z</time>
      </trkpt>
      <trkpt lat="49.94906" lon="2.29614">
        <ele>69</ele>
        <time>2022-12-28T14:43:59Z</time>
      </trkpt>
      <trkpt lat="49.94907" lon="2.29616">
        <ele>69.1</ele>
        <time>2022-12-28T14:44:00Z</time>
      </trkpt>
      <trkpt lat="49.94908" lon="2.29617">
        <ele>69.1</ele>
        <time>2022-12-28T14:44:01Z</time>
      </trkpt>
      <trkpt lat="49.94909" lon="2.29619">
        <ele>69.1</ele>
        <time>2022-12-28T14:44:02Z</time>
      </trkpt>
      <trkpt lat="49.9491" lon="2.29621">
        <ele>69.1</ele>
        <time>2022-12-28T14:44:03Z</time>
      </trkpt>
      <trkpt lat="49.94911" lon="2.29622">
        <ele>69.1</ele>
        <time>2022-12-28T14:44:04Z</time>
      </trkpt>
      <trkpt lat="49.94912" lon="2.29626">
        <ele>69.1</ele>
        <time>2022-12-28T14:44:05Z</time>
      </trkpt>
      <trkpt lat="49.94913" lon="2.29628">
        <ele>69.1</ele>
        <time>2022-12-28T14:44:07Z</time>
      </trkpt>
      <trkpt lat="49.94914" lon="2.29629">
        <ele>69.1</ele>
        <time>2022-12-28T14:44:08Z</time>
      </trkpt>
      <trkpt lat="49.94914" lon="2.29631">
        <ele>69.1</ele>
        <time>2022-12-28T14:44:09Z</time>
      </trkpt>
      <trkpt lat="49.94915" lon="2.29632">
        <ele>69.1</ele>
        <time>2022-12-28T14:44:10Z</time>
      </trkpt>
      <trkpt lat="49.94916" lon="2.29634">
        <ele>69.1</ele>
        <time>2022-12-28T14:44:11Z</time>
      </trkpt>
      <trkpt lat="49.94916" lon="2.29636">
        <ele>69.1</ele>
        <time>2022-12-28T14:44:12Z</time>
      </trkpt>
      <trkpt lat="49.94917" lon="2.29638">
        <ele>69.1</ele>
        <time>2022-12-28T14:44:13Z</time>
      </trkpt>
      <trkpt lat="49.94918" lon="2.2964">
        <ele>69.1</ele>
        <time>2022-12-28T14:44:14Z</time>
      </trkpt>
      <trkpt lat="49.94918" lon="2.29641">
        <ele>69.1</ele>
        <time>2022-12-28T14:44:15Z</time>
      </trkpt>
      <trkpt lat="49.94919" lon="2.29643">
        <ele>69.1</ele>
        <time>2022-12-28T14:44:17Z</time>
      </trkpt>
      <trkpt lat="49.9492" lon="2.29645">
        <ele>69.1</ele>
        <time>2022-12-28T14:44:18Z</time>
      </trkpt>
      <trkpt lat="49.9492" lon="2.29647">
        <ele>69.2</ele>
        <time>2022-12-28T14:44:19Z</time>
      </trkpt>
      <trkpt lat="49.94921" lon="2.29649">
        <ele>69.2</ele>
        <time>2022-12-28T14:44:20Z</time>
      </trkpt>
      <trkpt lat="49.94921" lon="2.29651">
        <ele>69.2</ele>
        <time>2022-12-28T14:44:21Z</time>
      </trkpt>
      <trkpt lat="49.94922" lon="2.29653">
        <ele>69.2</ele>
        <time>2022-12-28T14:44:22Z</time>
      </trkpt>
      <trkpt lat="49.94922" lon="2.29655">
        <ele>69.2</ele>
        <time>2022-12-28T14:44:23Z</time>
      </trkpt>
      <trkpt lat="49.94922" lon="2.29656">
        <ele>69.2</ele>
        <time>2022-12-28T14:44:24Z</time>
      </trkpt>
      <trkpt lat="49.94923" lon="2.2966">
        <ele>69.2</ele>
        <time>2022-12-28T14:44:25Z</time>
      </trkpt>
      <trkpt lat="49.94923" lon="2.29661">
        <ele>69.2</ele>
        <time>2022-12-28T14:44:27Z</time>
      </trkpt>
      <trkpt lat="49.94923" lon="2.29663">
        <ele>69.2</ele>
        <time>2022-12-28T14:44:28Z</time>
      </trkpt>
      <trkpt lat="49.94923" lon="2.29665">
        <ele>69.3</ele>
        <time>2022-12-28T14:44:29Z</time>
      </trkpt>
      <trkpt lat="49.94924" lon="2.29666">
        <ele>69.3</ele>
        <time>2022-12-28T14:44:30Z</time>
      </trkpt>
      <trkpt lat="49.94924" lon="2.29669">
        <ele>69.3</ele>
        <time>2022-12-28T14:44:31Z</time>
      </trkpt>
      <trkpt lat="49.94924" lon="2.29671">
        <ele>69.3</ele>
        <time>2022-12-28T14:44:33Z</time>
      </trkpt>
      <trkpt lat="49.94924" lon="2.29673">
        <ele>69.3</ele>
        <time>2022-12-28T14:44:34Z</time>
      </trkpt>
      <trkpt lat="49.94925" lon="2.29675">
        <ele>69.3</ele>
        <time>2022-12-28T14:44:35Z</time>
      </trkpt>
      <trkpt lat="49.94925" lon="2.29677">
        <ele>69.3</ele>
        <time>2022-12-28T14:44:36Z</time>
      </trkpt>
      <trkpt lat="49.94925" lon="2.29679">
        <ele>69.3</ele>
        <time>2022-12-28T14:44:37Z</time>
      </trkpt>
      <trkpt lat="49.94926" lon="2.29681">
        <ele>69.3</ele>
        <time>2022-12-28T14:44:38Z</time>
      </trkpt>
      <trkpt lat="49.94926" lon="2.29684">
        <ele>69.4</ele>
        <time>2022-12-28T14:44:40Z</time>
      </trkpt>
      <trkpt lat="49.94926" lon="2.29685">
        <ele>69.4</ele>
        <time>2022-12-28T14:44:41Z</time>
      </trkpt>
      <trkpt lat="49.94927" lon="2.29687">
        <ele>69.4</ele>
        <time>2022-12-28T14:44:42Z</time>
      </trkpt>
      <trkpt lat="49.94927" lon="2.29689">
        <ele>69.4</ele>
        <time>2022-12-28T14:44:43Z</time>
      </trkpt>
      <trkpt lat="49.94927" lon="2.29691">
        <ele>69.4</ele>
        <time>2022-12-28T14:44:44Z</time>
      </trkpt>
      <trkpt lat="49.94928" lon="2.29693">
        <ele>69.4</ele>
        <time>2022-12-28T14:44:45Z</time>
      </trkpt>
      <trkpt lat="49.94929" lon="2.29697">
        <ele>69.4</ele>
        <time>2022-12-28T14:44:47Z</time>
      </trkpt>
      <trkpt lat="49.94929" lon="2.29701">
        <ele>69.5</ele>
        <time>2022-12-28T14:44:49Z</time>
      </trkpt>
      <trkpt lat="49.94929" lon="2.29702">
        <ele>69.5</ele>
        <time>2022-12-28T14:44:50Z</time>
      </trkpt>
      <trkpt lat="49.9493" lon="2.29704">
        <ele>69.5</ele>
        <time>2022-12-28T14:44:51Z</time>
      </trkpt>
      <trkpt lat="49.9493" lon="2.29705">
        <ele>69.5</ele>
        <time>2022-12-28T14:44:52Z</time>
      </trkpt>
      <trkpt lat="49.9493" lon="2.29708">
        <ele>69.5</ele>
        <time>2022-12-28T14:44:53Z</time>
      </trkpt>
      <trkpt lat="49.9493" lon="2.2971">
        <ele>69.5</ele>
        <time>2022-12-28T14:44:54Z</time>
      </trkpt>
      <trkpt lat="49.9493" lon="2.29711">
        <ele>69.5</ele>
        <time>2022-12-28T14:44:55Z</time>
      </trkpt>
      <trkpt lat="49.94931" lon="2.29713">
        <ele>69.6</ele>
        <time>2022-12-28T14:44:57Z</time>
      </trkpt>
      <trkpt lat="49.94931" lon="2.29714">
        <ele>69.6</ele>
        <time>2022-12-28T14:44:58Z</time>
      </trkpt>
      <trkpt lat="49.94931" lon="2.29716">
        <ele>69.6</ele>
        <time>2022-12-28T14:44:59Z</time>
      </trkpt>
      <trkpt lat="49.94932" lon="2.29719">
        <ele>69.6</ele>
        <time>2022-12-28T14:45:00Z</time>
      </trkpt>
      <trkpt lat="49.94932" lon="2.2972">
        <ele>69.6</ele>
        <time>2022-12-28T14:45:01Z</time>
      </trkpt>
      <trkpt lat="49.94932" lon="2.29721">
        <ele>69.6</ele>
        <time>2022-12-28T14:45:02Z</time>
      </trkpt>
      <trkpt lat="49.94933" lon="2.29723">
        <ele>69.6</ele>
        <time>2022-12-28T14:45:04Z</time>
      </trkpt>
      <trkpt lat="49.94933" lon="2.29725">
        <ele>69.6</ele>
        <time>2022-12-28T14:45:05Z</time>
      </trkpt>
      <trkpt lat="49.94934" lon="2.29727">
        <ele>69.6</ele>
        <time>2022-12-28T14:45:06Z</time>
      </trkpt>
      <trkpt lat="49.94934" lon="2.29729">
        <ele>69.7</ele>
        <time>2022-12-28T14:45:07Z</time>
      </trkpt>
      <trkpt lat="49.94935" lon="2.29731">
        <ele>69.7</ele>
        <time>2022-12-28T14:45:08Z</time>
      </trkpt>
      <trkpt lat="49.94935" lon="2.29733">
        <ele>69.7</ele>
        <time>2022-12-28T14:45:09Z</time>
      </trkpt>
      <trkpt lat="49.94936" lon="2.29736">
        <ele>69.7</ele>
        <time>2022-12-28T14:45:11Z</time>
      </trkpt>
      <trkpt lat="49.94937" lon="2.29737">
        <ele>69.7</ele>
        <time>2022-12-28T14:45:12Z</time>
      </trkpt>
      <trkpt lat="49.94937" lon="2.29739">
        <ele>69.7</ele>
        <time>2022-12-28T14:45:13Z</time>
      </trkpt>
      <trkpt lat="49.94938" lon="2.2974">
        <ele>69.7</ele>
        <time>2022-12-28T14:45:14Z</time>
      </trkpt>
      <trkpt lat="49.94939" lon="2.29742">
        <ele>69.8</ele>
        <time>2022-12-28T14:45:15Z</time>
      </trkpt>
      <trkpt lat="49.94939" lon="2.29744">
        <ele>69.8</ele>
        <time>2022-12-28T14:45:16Z</time>
      </trkpt>
      <trkpt lat="49.9494" lon="2.29747">
        <ele>69.8</ele>
        <time>2022-12-28T14:45:17Z</time>
      </trkpt>
      <trkpt lat="49.94941" lon="2.29749">
        <ele>69.8</ele>
        <time>2022-12-28T14:45:18Z</time>
      </trkpt>
      <trkpt lat="49.94941" lon="2.29752">
        <ele>69.8</ele>
        <time>2022-12-28T14:45:20Z</time>
      </trkpt>
      <trkpt lat="49.94942" lon="2.29754">
        <ele>69.8</ele>
        <time>2022-12-28T14:45:21Z</time>
      </trkpt>
      <trkpt lat="49.94942" lon="2.29756">
        <ele>69.8</ele>
        <time>2022-12-28T14:45:22Z</time>
      </trkpt>
      <trkpt lat="49.94943" lon="2.29758">
        <ele>69.8</ele>
        <time>2022-12-28T14:45:23Z</time>
      </trkpt>
      <trkpt lat="49.94944" lon="2.29761">
        <ele>69.9</ele>
        <time>2022-12-28T14:45:24Z</time>
      </trkpt>
      <trkpt lat="49.94945" lon="2.29763">
        <ele>69.9</ele>
        <time>2022-12-28T14:45:25Z</time>
      </trkpt>
      <trkpt lat="49.94945" lon="2.29765">
        <ele>69.9</ele>
        <time>2022-12-28T14:45:26Z</time>
      </trkpt>
      <trkpt lat="49.94946" lon="2.29767">
        <ele>69.9</ele>
        <time>2022-12-28T14:45:28Z</time>
      </trkpt>
      <trkpt lat="49.94946" lon="2.29769">
        <ele>69.9</ele>
        <time>2022-12-28T14:45:29Z</time>
      </trkpt>
      <trkpt lat="49.94947" lon="2.29771">
        <ele>69.9</ele>
        <time>2022-12-28T14:45:30Z</time>
      </trkpt>
      <trkpt lat="49.94948" lon="2.29774">
        <ele>69.9</ele>
        <time>2022-12-28T14:45:31Z</time>
      </trkpt>
      <trkpt lat="49.94948" lon="2.29776">
        <ele>69.9</ele>
        <time>2022-12-28T14:45:32Z</time>
      </trkpt>
      <trkpt lat="49.94949" lon="2.29778">
        <ele>69.9</ele>
        <time>2022-12-28T14:45:33Z</time>
      </trkpt>
      <trkpt lat="49.9495" lon="2.2978">
        <ele>69.9</ele>
        <time>2022-12-28T14:45:34Z</time>
      </trkpt>
      <trkpt lat="49.94951" lon="2.29782">
        <ele>69.9</ele>
        <time>2022-12-28T14:45:35Z</time>
      </trkpt>
      <trkpt lat="49.94951" lon="2.29784">
        <ele>69.9</ele>
        <time>2022-12-28T14:45:37Z</time>
      </trkpt>
      <trkpt lat="49.94952" lon="2.29786">
        <ele>69.9</ele>
        <time>2022-12-28T14:45:38Z</time>
      </trkpt>
      <trkpt lat="49.94952" lon="2.29788">
        <ele>69.9</ele>
        <time>2022-12-28T14:45:39Z</time>
      </trkpt>
      <trkpt lat="49.94953" lon="2.29791">
        <ele>70</ele>
        <time>2022-12-28T14:45:40Z</time>
      </trkpt>
      <trkpt lat="49.94953" lon="2.29793">
        <ele>70</ele>
        <time>2022-12-28T14:45:41Z</time>
      </trkpt>
      <trkpt lat="49.94954" lon="2.29795">
        <ele>70</ele>
        <time>2022-12-28T14:45:42Z</time>
      </trkpt>
      <trkpt lat="49.94954" lon="2.29798">
        <ele>70</ele>
        <time>2022-12-28T14:45:43Z</time>
      </trkpt>
      <trkpt lat="49.94954" lon="2.298">
        <ele>70</ele>
        <time>2022-12-28T14:45:45Z</time>
      </trkpt>
      <trkpt lat="49.94955" lon="2.29801">
        <ele>70</ele>
        <time>2022-12-28T14:45:46Z</time>
      </trkpt>
      <trkpt lat="49.94955" lon="2.29803">
        <ele>70</ele>
        <time>2022-12-28T14:45:47Z</time>
      </trkpt>
      <trkpt lat="49.94955" lon="2.29804">
        <ele>70</ele>
        <time>2022-12-28T14:45:48Z</time>
      </trkpt>
      <trkpt lat="49.94956" lon="2.29806">
        <ele>70</ele>
        <time>2022-12-28T14:45:49Z</time>
      </trkpt>
      <trkpt lat="49.94956" lon="2.29809">
        <ele>70</ele>
        <time>2022-12-28T14:45:50Z</time>
      </trkpt>
      <trkpt lat="49.94956" lon="2.2981">
        <ele>70</ele>
        <time>2022-12-28T14:45:51Z</time>
      </trkpt>
      <trkpt lat="49.94957" lon="2.29812">
        <ele>70</ele>
        <time>2022-12-28T14:45:52Z</time>
      </trkpt>
      <trkpt lat="49.94957" lon="2.29815">
        <ele>70</ele>
        <time>2022-12-28T14:45:53Z</time>
      </trkpt>
      <trkpt lat="49.94957" lon="2.29817">
        <ele>70</ele>
        <time>2022-12-28T14:45:55Z</time>
      </trkpt>
      <trkpt lat="49.94958" lon="2.29818">
        <ele>70</ele>
        <time>2022-12-28T14:45:56Z</time>
      </trkpt>
      <trkpt lat="49.94958" lon="2.2982">
        <ele>70</ele>
        <time>2022-12-28T14:45:57Z</time>
      </trkpt>
      <trkpt lat="49.94958" lon="2.29822">
        <ele>70</ele>
        <time>2022-12-28T14:45:58Z</time>
      </trkpt>
      <trkpt lat="49.94959" lon="2.29824">
        <ele>70</ele>
        <time>2022-12-28T14:45:59Z</time>
      </trkpt>
      <trkpt lat="49.94959" lon="2.29825">
        <ele>70</ele>
        <time>2022-12-28T14:46:00Z</time>
      </trkpt>
      <trkpt lat="49.9496" lon="2.29828">
        <ele>70</ele>
        <time>2022-12-28T14:46:02Z</time>
      </trkpt>
      <trkpt lat="49.9496" lon="2.2983">
        <ele>70</ele>
        <time>2022-12-28T14:46:03Z</time>
      </trkpt>
      <trkpt lat="49.94961" lon="2.29831">
        <ele>70</ele>
        <time>2022-12-28T14:46:04Z</time>
      </trkpt>
      <trkpt lat="49.94961" lon="2.29832">
        <ele>70</ele>
        <time>2022-12-28T14:46:05Z</time>
      </trkpt>
      <trkpt lat="49.94961" lon="2.29834">
        <ele>70</ele>
        <time>2022-12-28T14:46:06Z</time>
      </trkpt>
      <trkpt lat="49.94961" lon="2.29836">
        <ele>70</ele>
        <time>2022-12-28T14:46:07Z</time>
      </trkpt>
      <trkpt lat="49.94961" lon="2.29838">
        <ele>70.1</ele>
        <time>2022-12-28T14:46:08Z</time>
      </trkpt>
      <trkpt lat="49.94961" lon="2.29839">
        <ele>70.1</ele>
        <time>2022-12-28T14:46:09Z</time>
      </trkpt>
      <trkpt lat="49.94961" lon="2.29841">
        <ele>70.1</ele>
        <time>2022-12-28T14:46:10Z</time>
      </trkpt>
      <trkpt lat="49.94962" lon="2.29844">
        <ele>70.1</ele>
        <time>2022-12-28T14:46:12Z</time>
      </trkpt>
      <trkpt lat="49.94962" lon="2.29845">
        <ele>70.1</ele>
        <time>2022-12-28T14:46:13Z</time>
      </trkpt>
      <trkpt lat="49.94962" lon="2.29846">
        <ele>70.1</ele>
        <time>2022-12-28T14:46:14Z</time>
      </trkpt>
      <trkpt lat="49.94962" lon="2.29848">
        <ele>70.1</ele>
        <time>2022-12-28T14:46:15Z</time>
      </trkpt>
      <trkpt lat="49.94962" lon="2.2985">
        <ele>70.1</ele>
        <time>2022-12-28T14:46:16Z</time>
      </trkpt>
      <trkpt lat="49.94962" lon="2.29851">
        <ele>70.1</ele>
        <time>2022-12-28T14:46:17Z</time>
      </trkpt>
      <trkpt lat="49.94963" lon="2.29853">
        <ele>70.1</ele>
        <time>2022-12-28T14:46:18Z</time>
      </trkpt>
      <trkpt lat="49.94964" lon="2.29854">
        <ele>70.1</ele>
        <time>2022-12-28T14:46:19Z</time>
      </trkpt>
      <trkpt lat="49.94964" lon="2.29855">
        <ele>70.1</ele>
        <time>2022-12-28T14:46:21Z</time>
      </trkpt>
      <trkpt lat="49.94965" lon="2.29856">
        <ele>70.1</ele>
        <time>2022-12-28T14:46:22Z</time>
      </trkpt>
      <trkpt lat="49.94965" lon="2.29857">
        <ele>70.1</ele>
        <time>2022-12-28T14:46:23Z</time>
      </trkpt>
      <trkpt lat="49.94966" lon="2.29858">
        <ele>70.1</ele>
        <time>2022-12-28T14:46:24Z</time>
      </trkpt>
      <trkpt lat="49.94968" lon="2.29858">
        <ele>70.1</ele>
        <time>2022-12-28T14:46:25Z</time>
      </trkpt>
      <trkpt lat="49.94969" lon="2.29857">
        <ele>70.1</ele>
        <time>2022-12-28T14:46:26Z</time>
      </trkpt>
      <trkpt lat="49.94971" lon="2.29856">
        <ele>70.1</ele>
        <time>2022-12-28T14:46:27Z</time>
      </trkpt>
      <trkpt lat="49.94972" lon="2.29855">
        <ele>70.1</ele>
        <time>2022-12-28T14:46:29Z</time>
      </trkpt>
      <trkpt lat="49.94973" lon="2.29855">
        <ele>70.1</ele>
        <time>2022-12-28T14:46:30Z</time>
      </trkpt>
      <trkpt lat="49.94974" lon="2.29854">
        <ele>70.1</ele>
        <time>2022-12-28T14:46:31Z</time>
      </trkpt>
      <trkpt lat="49.94975" lon="2.29853">
        <ele>70.1</ele>
        <time>2022-12-28T14:46:32Z</time>
      </trkpt>
      <trkpt lat="49.94977" lon="2.29853">
        <ele>70.1</ele>
        <time>2022-12-28T14:46:33Z</time>
      </trkpt>
      <trkpt lat="49.94978" lon="2.29852">
        <ele>70.1</ele>
        <time>2022-12-28T14:46:34Z</time>
      </trkpt>
      <trkpt lat="49.94979" lon="2.29851">
        <ele>70.1</ele>
        <time>2022-12-28T14:46:35Z</time>
      </trkpt>
      <trkpt lat="49.9498" lon="2.2985">
        <ele>70.1</ele>
        <time>2022-12-28T14:46:36Z</time>
      </trkpt>
      <trkpt lat="49.94981" lon="2.2985">
        <ele>70.1</ele>
        <time>2022-12-28T14:46:37Z</time>
      </trkpt>
      <trkpt lat="49.94981" lon="2.29848">
        <ele>70.1</ele>
        <time>2022-12-28T14:46:39Z</time>
      </trkpt>
      <trkpt lat="49.94982" lon="2.29847">
        <ele>70.1</ele>
        <time>2022-12-28T14:46:40Z</time>
      </trkpt>
      <trkpt lat="49.94983" lon="2.29846">
        <ele>70.1</ele>
        <time>2022-12-28T14:46:41Z</time>
      </trkpt>
      <trkpt lat="49.94984" lon="2.29846">
        <ele>70.1</ele>
        <time>2022-12-28T14:46:42Z</time>
      </trkpt>
      <trkpt lat="49.94985" lon="2.29845">
        <ele>70.1</ele>
        <time>2022-12-28T14:46:43Z</time>
      </trkpt>
      <trkpt lat="49.94986" lon="2.29844">
        <ele>70.1</ele>
        <time>2022-12-28T14:46:44Z</time>
      </trkpt>
      <trkpt lat="49.94987" lon="2.29844">
        <ele>70.1</ele>
        <time>2022-12-28T14:46:45Z</time>
      </trkpt>
      <trkpt lat="49.94988" lon="2.29844">
        <ele>70.1</ele>
        <time>2022-12-28T14:46:47Z</time>
      </trkpt>
      <trkpt lat="49.94989" lon="2.29844">
        <ele>70.1</ele>
        <time>2022-12-28T14:46:48Z</time>
      </trkpt>
      <trkpt lat="49.9499" lon="2.29844">
        <ele>70.1</ele>
        <time>2022-12-28T14:46:49Z</time>
      </trkpt>
      <trkpt lat="49.94991" lon="2.29844">
        <ele>70.1</ele>
        <time>2022-12-28T14:46:50Z</time>
      </trkpt>
      <trkpt lat="49.94992" lon="2.29844">
        <ele>70.1</ele>
        <time>2022-12-28T14:46:51Z</time>
      </trkpt>
      <trkpt lat="49.94993" lon="2.29844">
        <ele>70.1</ele>
        <time>2022-12-28T14:46:52Z</time>
      </trkpt>
      <trkpt lat="49.94994" lon="2.29845">
        <ele>70.1</ele>
        <time>2022-12-28T14:46:53Z</time>
      </trkpt>
      <trkpt lat="49.94995" lon="2.29845">
        <ele>70.1</ele>
        <time>2022-12-28T14:46:54Z</time>
      </trkpt>
      <trkpt lat="49.94996" lon="2.29845">
        <ele>70.1</ele>
        <time>2022-12-28T14:46:56Z</time>
      </trkpt>
      <trkpt lat="49.94996" lon="2.29846">
        <ele>70.1</ele>
        <time>2022-12-28T14:46:57Z</time>
      </trkpt>
      <trkpt lat="49.94997" lon="2.29846">
        <ele>70.1</ele>
        <time>2022-12-28T14:46:58Z</time>
      </trkpt>
      <trkpt lat="49.94998" lon="2.29846">
        <ele>70.1</ele>
        <time>2022-12-28T14:46:59Z</time>
      </trkpt>
      <trkpt lat="49.94999" lon="2.29846">
        <ele>70.1</ele>
        <time>2022-12-28T14:47:00Z</time>
      </trkpt>
      <trkpt lat="49.95" lon="2.29846">
        <ele>70.1</ele>
        <time>2022-12-28T14:47:01Z</time>
      </trkpt>
      <trkpt lat="49.95001" lon="2.29846">
        <ele>70.1</ele>
        <time>2022-12-28T14:47:02Z</time>
      </trkpt>
      <trkpt lat="49.95001" lon="2.29846">
        <ele>70.1</ele>
        <time>2022-12-28T14:47:03Z</time>
      </trkpt>
      <trkpt lat="49.95002" lon="2.29845">
        <ele>70.1</ele>
        <time>2022-12-28T14:47:04Z</time>
      </trkpt>
      <trkpt lat="49.95003" lon="2.29845">
        <ele>70.1</ele>
        <time>2022-12-28T14:47:05Z</time>
      </trkpt>
      <trkpt lat="49.95004" lon="2.29845">
        <ele>70.1</ele>
        <time>2022-12-28T14:47:07Z</time>
      </trkpt>
      <trkpt lat="49.95005" lon="2.29845">
        <ele>70.1</ele>
        <time>2022-12-28T14:47:08Z</time>
      </trkpt>
      <trkpt lat="49.95006" lon="2.29845">
        <ele>70.1</ele>
        <time>2022-12-28T14:47:09Z</time>
      </trkpt>
      <trkpt lat="49.95007" lon="2.29844">
        <ele>70.1</ele>
        <time>2022-12-28T14:47:10Z</time>
      </trkpt>
      <trkpt lat="49.95008" lon="2.29844">
        <ele>70.1</ele>
        <time>2022-12-28T14:47:11Z</time>
      </trkpt>
      <trkpt lat="49.95009" lon="2.29844">
        <ele>70.1</ele>
        <time>2022-12-28T14:47:12Z</time>
      </trkpt>
      <trkpt lat="49.9501" lon="2.29843">
        <ele>70.1</ele>
        <time>2022-12-28T14:47:13Z</time>
      </trkpt>
      <trkpt lat="49.95011" lon="2.29843">
        <ele>70.1</ele>
        <time>2022-12-28T14:47:14Z</time>
      </trkpt>
      <trkpt lat="49.95012" lon="2.29843">
        <ele>70.1</ele>
        <time>2022-12-28T14:47:15Z</time>
      </trkpt>
      <trkpt lat="49.95014" lon="2.29843">
        <ele>70.1</ele>
        <time>2022-12-28T14:47:17Z</time>
      </trkpt>
      <trkpt lat="49.95015" lon="2.29843">
        <ele>70.1</ele>
        <time>2022-12-28T14:47:18Z</time>
      </trkpt>
      <trkpt lat="49.95016" lon="2.29843">
        <ele>70.1</ele>
        <time>2022-12-28T14:47:19Z</time>
      </trkpt>
      <trkpt lat="49.95017" lon="2.29844">
        <ele>70.1</ele>
        <time>2022-12-28T14:47:20Z</time>
      </trkpt>
      <trkpt lat="49.95018" lon="2.29844">
        <ele>70.1</ele>
        <time>2022-12-28T14:47:21Z</time>
      </trkpt>
      <trkpt lat="49.9502" lon="2.29844">
        <ele>70.1</ele>
        <time>2022-12-28T14:47:22Z</time>
      </trkpt>
      <trkpt lat="49.95022" lon="2.29844">
        <ele>70.1</ele>
        <time>2022-12-28T14:47:23Z</time>
      </trkpt>
      <trkpt lat="49.95023" lon="2.29844">
        <ele>70.1</ele>
        <time>2022-12-28T14:47:25Z</time>
      </trkpt>
      <trkpt lat="49.95024" lon="2.29844">
        <ele>70.1</ele>
        <time>2022-12-28T14:47:26Z</time>
      </trkpt>
      <trkpt lat="49.95025" lon="2.29844">
        <ele>70.1</ele>
        <time>2022-12-28T14:47:27Z</time>
      </trkpt>
      <trkpt lat="49.95026" lon="2.29844">
        <ele>70.1</ele>
        <time>2022-12-28T14:47:28Z</time>
      </trkpt>
      <trkpt lat="49.95028" lon="2.29844">
        <ele>70.1</ele>
        <time>2022-12-28T14:47:30Z</time>
      </trkpt>
      <trkpt lat="49.95029" lon="2.29843">
        <ele>70.1</ele>
        <time>2022-12-28T14:47:31Z</time>
      </trkpt>
      <trkpt lat="49.95031" lon="2.29843">
        <ele>70.1</ele>
        <time>2022-12-28T14:47:32Z</time>
      </trkpt>
      <trkpt lat="49.95032" lon="2.29843">
        <ele>70.1</ele>
        <time>2022-12-28T14:47:33Z</time>
      </trkpt>
      <trkpt lat="49.95034" lon="2.29843">
        <ele>70.1</ele>
        <time>2022-12-28T14:47:35Z</time>
      </trkpt>
      <trkpt lat="49.95036" lon="2.29843">
        <ele>70.1</ele>
        <time>2022-12-28T14:47:36Z</time>
      </trkpt>
      <trkpt lat="49.95038" lon="2.29842">
        <ele>70.1</ele>
        <time>2022-12-28T14:47:37Z</time>
      </trkpt>
      <trkpt lat="49.95039" lon="2.29841">
        <ele>70.1</ele>
        <time>2022-12-28T14:47:38Z</time>
      </trkpt>
      <trkpt lat="49.9504" lon="2.29841">
        <ele>70.1</ele>
        <time>2022-12-28T14:47:39Z</time>
      </trkpt>
      <trkpt lat="49.95041" lon="2.2984">
        <ele>70.1</ele>
        <time>2022-12-28T14:47:41Z</time>
      </trkpt>
      <trkpt lat="49.95042" lon="2.29839">
        <ele>70.1</ele>
        <time>2022-12-28T14:47:42Z</time>
      </trkpt>
      <trkpt lat="49.95043" lon="2.29839">
        <ele>70.1</ele>
        <time>2022-12-28T14:47:43Z</time>
      </trkpt>
      <trkpt lat="49.95045" lon="2.29838">
        <ele>70.1</ele>
        <time>2022-12-28T14:47:44Z</time>
      </trkpt>
      <trkpt lat="49.95046" lon="2.29838">
        <ele>70.1</ele>
        <time>2022-12-28T14:47:45Z</time>
      </trkpt>
      <trkpt lat="49.95047" lon="2.29837">
        <ele>70.1</ele>
        <time>2022-12-28T14:47:46Z</time>
      </trkpt>
      <trkpt lat="49.95048" lon="2.29837">
        <ele>70.1</ele>
        <time>2022-12-28T14:47:47Z</time>
      </trkpt>
      <trkpt lat="49.95049" lon="2.29836">
        <ele>70</ele>
        <time>2022-12-28T14:47:48Z</time>
      </trkpt>
      <trkpt lat="49.9505" lon="2.29836">
        <ele>70</ele>
        <time>2022-12-28T14:47:49Z</time>
      </trkpt>
      <trkpt lat="49.95051" lon="2.29836">
        <ele>70</ele>
        <time>2022-12-28T14:47:50Z</time>
      </trkpt>
      <trkpt lat="49.95052" lon="2.29835">
        <ele>70</ele>
        <time>2022-12-28T14:47:51Z</time>
      </trkpt>
      <trkpt lat="49.95053" lon="2.29834">
        <ele>70</ele>
        <time>2022-12-28T14:47:52Z</time>
      </trkpt>
      <trkpt lat="49.95055" lon="2.29834">
        <ele>70</ele>
        <time>2022-12-28T14:47:54Z</time>
      </trkpt>
      <trkpt lat="49.95056" lon="2.29834">
        <ele>70</ele>
        <time>2022-12-28T14:47:55Z</time>
      </trkpt>
      <trkpt lat="49.95057" lon="2.29833">
        <ele>70</ele>
        <time>2022-12-28T14:47:56Z</time>
      </trkpt>
      <trkpt lat="49.95058" lon="2.29833">
        <ele>70</ele>
        <time>2022-12-28T14:47:57Z</time>
      </trkpt>
      <trkpt lat="49.95059" lon="2.29832">
        <ele>70</ele>
        <time>2022-12-28T14:47:58Z</time>
      </trkpt>
      <trkpt lat="49.95061" lon="2.29831">
        <ele>70</ele>
        <time>2022-12-28T14:47:59Z</time>
      </trkpt>
      <trkpt lat="49.95062" lon="2.29831">
        <ele>70</ele>
        <time>2022-12-28T14:48:00Z</time>
      </trkpt>
      <trkpt lat="49.95063" lon="2.2983">
        <ele>70</ele>
        <time>2022-12-28T14:48:01Z</time>
      </trkpt>
      <trkpt lat="49.95064" lon="2.2983">
        <ele>70</ele>
        <time>2022-12-28T14:48:02Z</time>
      </trkpt>
      <trkpt lat="49.95065" lon="2.29831">
        <ele>70</ele>
        <time>2022-12-28T14:48:03Z</time>
      </trkpt>
      <trkpt lat="49.95066" lon="2.29831">
        <ele>70</ele>
        <time>2022-12-28T14:48:04Z</time>
      </trkpt>
      <trkpt lat="49.95067" lon="2.29831">
        <ele>70</ele>
        <time>2022-12-28T14:48:05Z</time>
      </trkpt>
      <trkpt lat="49.95068" lon="2.29831">
        <ele>70</ele>
        <time>2022-12-28T14:48:06Z</time>
      </trkpt>
      <trkpt lat="49.95069" lon="2.29831">
        <ele>70</ele>
        <time>2022-12-28T14:48:08Z</time>
      </trkpt>
      <trkpt lat="49.95071" lon="2.29831">
        <ele>70</ele>
        <time>2022-12-28T14:48:09Z</time>
      </trkpt>
      <trkpt lat="49.95072" lon="2.29832">
        <ele>70</ele>
        <time>2022-12-28T14:48:10Z</time>
      </trkpt>
      <trkpt lat="49.95073" lon="2.29832">
        <ele>70</ele>
        <time>2022-12-28T14:48:11Z</time>
      </trkpt>
      <trkpt lat="49.95074" lon="2.29832">
        <ele>70</ele>
        <time>2022-12-28T14:48:12Z</time>
      </trkpt>
      <trkpt lat="49.95075" lon="2.29833">
        <ele>70</ele>
        <time>2022-12-28T14:48:13Z</time>
      </trkpt>
      <trkpt lat="49.95076" lon="2.29833">
        <ele>70</ele>
        <time>2022-12-28T14:48:14Z</time>
      </trkpt>
      <trkpt lat="49.95077" lon="2.29833">
        <ele>70</ele>
        <time>2022-12-28T14:48:15Z</time>
      </trkpt>
      <trkpt lat="49.95078" lon="2.29833">
        <ele>70</ele>
        <time>2022-12-28T14:48:16Z</time>
      </trkpt>
      <trkpt lat="49.95079" lon="2.29833">
        <ele>70</ele>
        <time>2022-12-28T14:48:18Z</time>
      </trkpt>
      <trkpt lat="49.95081" lon="2.29833">
        <ele>70</ele>
        <time>2022-12-28T14:48:19Z</time>
      </trkpt>
      <trkpt lat="49.95082" lon="2.29833">
        <ele>70</ele>
        <time>2022-12-28T14:48:20Z</time>
      </trkpt>
      <trkpt lat="49.95083" lon="2.29833">
        <ele>70</ele>
        <time>2022-12-28T14:48:21Z</time>
      </trkpt>
      <trkpt lat="49.95084" lon="2.29832">
        <ele>70</ele>
        <time>2022-12-28T14:48:22Z</time>
      </trkpt>
      <trkpt lat="49.95085" lon="2.29832">
        <ele>70</ele>
        <time>2022-12-28T14:48:23Z</time>
      </trkpt>
      <trkpt lat="49.95085" lon="2.29832">
        <ele>70</ele>
        <time>2022-12-28T14:48:24Z</time>
      </trkpt>
      <trkpt lat="49.95086" lon="2.29832">
        <ele>70</ele>
        <time>2022-12-28T14:48:25Z</time>
      </trkpt>
      <trkpt lat="49.95088" lon="2.29832">
        <ele>70</ele>
        <time>2022-12-28T14:48:26Z</time>
      </trkpt>
      <trkpt lat="49.95089" lon="2.29832">
        <ele>70</ele>
        <time>2022-12-28T14:48:27Z</time>
      </trkpt>
      <trkpt lat="49.9509" lon="2.29832">
        <ele>70</ele>
        <time>2022-12-28T14:48:29Z</time>
      </trkpt>
      <trkpt lat="49.95091" lon="2.29832">
        <ele>70</ele>
        <time>2022-12-28T14:48:30Z</time>
      </trkpt>
      <trkpt lat="49.95092" lon="2.29832">
        <ele>70</ele>
        <time>2022-12-28T14:48:31Z</time>
      </trkpt>
      <trkpt lat="49.95093" lon="2.29831">
        <ele>70</ele>
        <time>2022-12-28T14:48:32Z</time>
      </trkpt>
      <trkpt lat="49.95095" lon="2.29831">
        <ele>70</ele>
        <time>2022-12-28T14:48:34Z</time>
      </trkpt>
      <trkpt lat="49.95096" lon="2.29831">
        <ele>70</ele>
        <time>2022-12-28T14:48:35Z</time>
      </trkpt>
      <trkpt lat="49.95097" lon="2.29831">
        <ele>70</ele>
        <time>2022-12-28T14:48:36Z</time>
      </trkpt>
      <trkpt lat="49.95098" lon="2.29831">
        <ele>70</ele>
        <time>2022-12-28T14:48:37Z</time>
      </trkpt>
      <trkpt lat="49.95099" lon="2.29832">
        <ele>70</ele>
        <time>2022-12-28T14:48:38Z</time>
      </trkpt>
      <trkpt lat="49.951" lon="2.29832">
        <ele>70</ele>
        <time>2022-12-28T14:48:39Z</time>
      </trkpt>
      <trkpt lat="49.95101" lon="2.29832">
        <ele>70</ele>
        <time>2022-12-28T14:48:41Z</time>
      </trkpt>
      <trkpt lat="49.95103" lon="2.29832">
        <ele>70</ele>
        <time>2022-12-28T14:48:42Z</time>
      </trkpt>
      <trkpt lat="49.95104" lon="2.29832">
        <ele>70.1</ele>
        <time>2022-12-28T14:48:43Z</time>
      </trkpt>
      <trkpt lat="49.95106" lon="2.29831">
        <ele>70.1</ele>
        <time>2022-12-28T14:48:44Z</time>
      </trkpt>
      <trkpt lat="49.95107" lon="2.29831">
        <ele>70.1</ele>
        <time>2022-12-28T14:48:45Z</time>
      </trkpt>
      <trkpt lat="49.95107" lon="2.2983">
        <ele>70.1</ele>
        <time>2022-12-28T14:48:46Z</time>
      </trkpt>
      <trkpt lat="49.9511" lon="2.2983">
        <ele>70.1</ele>
        <time>2022-12-28T14:48:47Z</time>
      </trkpt>
      <trkpt lat="49.95111" lon="2.29829">
        <ele>70.1</ele>
        <time>2022-12-28T14:48:48Z</time>
      </trkpt>
      <trkpt lat="49.95111" lon="2.29829">
        <ele>70.1</ele>
        <time>2022-12-28T14:48:49Z</time>
      </trkpt>
      <trkpt lat="49.95113" lon="2.29828">
        <ele>70.1</ele>
        <time>2022-12-28T14:48:51Z</time>
      </trkpt>
      <trkpt lat="49.95114" lon="2.29828">
        <ele>70.1</ele>
        <time>2022-12-28T14:48:52Z</time>
      </trkpt>
      <trkpt lat="49.95117" lon="2.29828">
        <ele>70.1</ele>
        <time>2022-12-28T14:48:53Z</time>
      </trkpt>
      <trkpt lat="49.95117" lon="2.29827">
        <ele>70.1</ele>
        <time>2022-12-28T14:48:54Z</time>
      </trkpt>
      <trkpt lat="49.95118" lon="2.29827">
        <ele>70.1</ele>
        <time>2022-12-28T14:48:55Z</time>
      </trkpt>
      <trkpt lat="49.9512" lon="2.29826">
        <ele>70.1</ele>
        <time>2022-12-28T14:48:56Z</time>
      </trkpt>
      <trkpt lat="49.95121" lon="2.29825">
        <ele>70.1</ele>
        <time>2022-12-28T14:48:58Z</time>
      </trkpt>
      <trkpt lat="49.95122" lon="2.29825">
        <ele>70.1</ele>
        <time>2022-12-28T14:48:59Z</time>
      </trkpt>
      <trkpt lat="49.95123" lon="2.29825">
        <ele>70.1</ele>
        <time>2022-12-28T14:49:00Z</time>
      </trkpt>
      <trkpt lat="49.95124" lon="2.29824">
        <ele>70.2</ele>
        <time>2022-12-28T14:49:01Z</time>
      </trkpt>
      <trkpt lat="49.95125" lon="2.29824">
        <ele>70.2</ele>
        <time>2022-12-28T14:49:02Z</time>
      </trkpt>
      <trkpt lat="49.95127" lon="2.29824">
        <ele>70.2</ele>
        <time>2022-12-28T14:49:03Z</time>
      </trkpt>
      <trkpt lat="49.95128" lon="2.29824">
        <ele>70.2</ele>
        <time>2022-12-28T14:49:04Z</time>
      </trkpt>
      <trkpt lat="49.95129" lon="2.29824">
        <ele>70.2</ele>
        <time>2022-12-28T14:49:06Z</time>
      </trkpt>
      <trkpt lat="49.95131" lon="2.29824">
        <ele>70.2</ele>
        <time>2022-12-28T14:49:07Z</time>
      </trkpt>
      <trkpt lat="49.95132" lon="2.29824">
        <ele>70.2</ele>
        <time>2022-12-28T14:49:08Z</time>
      </trkpt>
      <trkpt lat="49.95133" lon="2.29823">
        <ele>70.2</ele>
        <time>2022-12-28T14:49:09Z</time>
      </trkpt>
      <trkpt lat="49.95134" lon="2.29824">
        <ele>70.2</ele>
        <time>2022-12-28T14:49:10Z</time>
      </trkpt>
      <trkpt lat="49.95135" lon="2.29824">
        <ele>70.2</ele>
        <time>2022-12-28T14:49:11Z</time>
      </trkpt>
      <trkpt lat="49.95136" lon="2.29824">
        <ele>70.2</ele>
        <time>2022-12-28T14:49:12Z</time>
      </trkpt>
      <trkpt lat="49.95137" lon="2.29824">
        <ele>70.2</ele>
        <time>2022-12-28T14:49:13Z</time>
      </trkpt>
      <trkpt lat="49.95138" lon="2.29824">
        <ele>70.2</ele>
        <time>2022-12-28T14:49:15Z</time>
      </trkpt>
      <trkpt lat="49.95139" lon="2.29824">
        <ele>70.2</ele>
        <time>2022-12-28T14:49:16Z</time>
      </trkpt>
      <trkpt lat="49.9514" lon="2.29824">
        <ele>70.2</ele>
        <time>2022-12-28T14:49:17Z</time>
      </trkpt>
      <trkpt lat="49.95141" lon="2.29824">
        <ele>70.2</ele>
        <time>2022-12-28T14:49:18Z</time>
      </trkpt>
      <trkpt lat="49.95143" lon="2.29824">
        <ele>70.2</ele>
        <time>2022-12-28T14:49:19Z</time>
      </trkpt>
      <trkpt lat="49.95144" lon="2.29824">
        <ele>70.3</ele>
        <time>2022-12-28T14:49:20Z</time>
      </trkpt>
      <trkpt lat="49.95145" lon="2.29824">
        <ele>70.3</ele>
        <time>2022-12-28T14:49:21Z</time>
      </trkpt>
      <trkpt lat="49.95146" lon="2.29824">
        <ele>70.3</ele>
        <time>2022-12-28T14:49:22Z</time>
      </trkpt>
      <trkpt lat="49.95148" lon="2.29824">
        <ele>70.3</ele>
        <time>2022-12-28T14:49:24Z</time>
      </trkpt>
      <trkpt lat="49.95148" lon="2.29823">
        <ele>70.3</ele>
        <time>2022-12-28T14:49:25Z</time>
      </trkpt>
      <trkpt lat="49.9515" lon="2.29823">
        <ele>70.3</ele>
        <time>2022-12-28T14:49:26Z</time>
      </trkpt>
      <trkpt lat="49.95151" lon="2.29823">
        <ele>70.3</ele>
        <time>2022-12-28T14:49:27Z</time>
      </trkpt>
      <trkpt lat="49.95152" lon="2.29823">
        <ele>70.3</ele>
        <time>2022-12-28T14:49:28Z</time>
      </trkpt>
      <trkpt lat="49.95153" lon="2.29823">
        <ele>70.3</ele>
        <time>2022-12-28T14:49:29Z</time>
      </trkpt>
      <trkpt lat="49.95154" lon="2.29823">
        <ele>70.3</ele>
        <time>2022-12-28T14:49:30Z</time>
      </trkpt>
      <trkpt lat="49.95156" lon="2.29822">
        <ele>70.4</ele>
        <time>2022-12-28T14:49:31Z</time>
      </trkpt>
      <trkpt lat="49.95157" lon="2.29822">
        <ele>70.4</ele>
        <time>2022-12-28T14:49:33Z</time>
      </trkpt>
      <trkpt lat="49.95158" lon="2.29822">
        <ele>70.4</ele>
        <time>2022-12-28T14:49:34Z</time>
      </trkpt>
      <trkpt lat="49.95159" lon="2.29822">
        <ele>70.4</ele>
        <time>2022-12-28T14:49:35Z</time>
      </trkpt>
      <trkpt lat="49.9516" lon="2.29821">
        <ele>70.4</ele>
        <time>2022-12-28T14:49:36Z</time>
      </trkpt>
      <trkpt lat="49.95161" lon="2.29821">
        <ele>70.4</ele>
        <time>2022-12-28T14:49:37Z</time>
      </trkpt>
      <trkpt lat="49.95162" lon="2.29821">
        <ele>70.4</ele>
        <time>2022-12-28T14:49:38Z</time>
      </trkpt>
      <trkpt lat="49.95163" lon="2.29821">
        <ele>70.4</ele>
        <time>2022-12-28T14:49:39Z</time>
      </trkpt>
      <trkpt lat="49.95164" lon="2.2982">
        <ele>70.4</ele>
        <time>2022-12-28T14:49:41Z</time>
      </trkpt>
      <trkpt lat="49.95165" lon="2.2982">
        <ele>70.5</ele>
        <time>2022-12-28T14:49:42Z</time>
      </trkpt>
      <trkpt lat="49.95166" lon="2.29819">
        <ele>70.5</ele>
        <time>2022-12-28T14:49:43Z</time>
      </trkpt>
      <trkpt lat="49.95167" lon="2.29819">
        <ele>70.5</ele>
        <time>2022-12-28T14:49:44Z</time>
      </trkpt>
      <trkpt lat="49.95168" lon="2.29819">
        <ele>70.5</ele>
        <time>2022-12-28T14:49:46Z</time>
      </trkpt>
      <trkpt lat="49.95168" lon="2.2982">
        <ele>70.5</ele>
        <time>2022-12-28T14:49:47Z</time>
      </trkpt>
      <trkpt lat="49.95169" lon="2.29821">
        <ele>70.5</ele>
        <time>2022-12-28T14:49:48Z</time>
      </trkpt>
      <trkpt lat="49.95169" lon="2.29822">
        <ele>70.5</ele>
        <time>2022-12-28T14:49:49Z</time>
      </trkpt>
      <trkpt lat="49.9517" lon="2.29821">
        <ele>70.5</ele>
        <time>2022-12-28T14:49:50Z</time>
      </trkpt>
      <trkpt lat="49.95171" lon="2.2982">
        <ele>70.5</ele>
        <time>2022-12-28T14:49:52Z</time>
      </trkpt>
      <trkpt lat="49.95172" lon="2.2982">
        <ele>70.5</ele>
        <time>2022-12-28T14:49:53Z</time>
      </trkpt>
      <trkpt lat="49.95173" lon="2.2982">
        <ele>70.6</ele>
        <time>2022-12-28T14:49:54Z</time>
      </trkpt>
      <trkpt lat="49.95174" lon="2.29819">
        <ele>70.6</ele>
        <time>2022-12-28T14:49:55Z</time>
      </trkpt>
      <trkpt lat="49.95175" lon="2.29819">
        <ele>70.6</ele>
        <time>2022-12-28T14:49:56Z</time>
      </trkpt>
      <trkpt lat="49.95176" lon="2.29818">
        <ele>70.6</ele>
        <time>2022-12-28T14:49:58Z</time>
      </trkpt>
      <trkpt lat="49.95177" lon="2.29817">
        <ele>70.6</ele>
        <time>2022-12-28T14:49:59Z</time>
      </trkpt>
      <trkpt lat="49.95178" lon="2.29817">
        <ele>70.6</ele>
        <time>2022-12-28T14:50:00Z</time>
      </trkpt>
      <trkpt lat="49.95179" lon="2.29816">
        <ele>70.6</ele>
        <time>2022-12-28T14:50:01Z</time>
      </trkpt>
      <trkpt lat="49.9518" lon="2.29815">
        <ele>70.7</ele>
        <time>2022-12-28T14:50:02Z</time>
      </trkpt>
      <trkpt lat="49.95181" lon="2.29814">
        <ele>70.7</ele>
        <time>2022-12-28T14:50:03Z</time>
      </trkpt>
      <trkpt lat="49.95183" lon="2.29814">
        <ele>70.7</ele>
        <time>2022-12-28T14:50:04Z</time>
      </trkpt>
      <trkpt lat="49.95184" lon="2.29814">
        <ele>70.7</ele>
        <time>2022-12-28T14:50:06Z</time>
      </trkpt>
      <trkpt lat="49.95185" lon="2.29813">
        <ele>70.7</ele>
        <time>2022-12-28T14:50:07Z</time>
      </trkpt>
      <trkpt lat="49.95187" lon="2.29813">
        <ele>70.8</ele>
        <time>2022-12-28T14:50:08Z</time>
      </trkpt>
      <trkpt lat="49.95188" lon="2.29813">
        <ele>70.8</ele>
        <time>2022-12-28T14:50:09Z</time>
      </trkpt>
      <trkpt lat="49.95189" lon="2.29813">
        <ele>70.8</ele>
        <time>2022-12-28T14:50:10Z</time>
      </trkpt>
      <trkpt lat="49.9519" lon="2.29813">
        <ele>70.8</ele>
        <time>2022-12-28T14:50:11Z</time>
      </trkpt>
      <trkpt lat="49.95191" lon="2.29813">
        <ele>70.8</ele>
        <time>2022-12-28T14:50:12Z</time>
      </trkpt>
      <trkpt lat="49.95192" lon="2.29812">
        <ele>70.8</ele>
        <time>2022-12-28T14:50:13Z</time>
      </trkpt>
      <trkpt lat="49.95193" lon="2.29812">
        <ele>70.8</ele>
        <time>2022-12-28T14:50:15Z</time>
      </trkpt>
      <trkpt lat="49.95194" lon="2.29812">
        <ele>70.9</ele>
        <time>2022-12-28T14:50:16Z</time>
      </trkpt>
      <trkpt lat="49.95195" lon="2.29812">
        <ele>70.9</ele>
        <time>2022-12-28T14:50:17Z</time>
      </trkpt>
      <trkpt lat="49.95196" lon="2.29812">
        <ele>70.9</ele>
        <time>2022-12-28T14:50:18Z</time>
      </trkpt>
      <trkpt lat="49.95197" lon="2.29812">
        <ele>70.9</ele>
        <time>2022-12-28T14:50:19Z</time>
      </trkpt>
      <trkpt lat="49.95198" lon="2.29812">
        <ele>70.9</ele>
        <time>2022-12-28T14:50:20Z</time>
      </trkpt>
      <trkpt lat="49.952" lon="2.29812">
        <ele>70.9</ele>
        <time>2022-12-28T14:50:21Z</time>
      </trkpt>
      <trkpt lat="49.95201" lon="2.29812">
        <ele>70.9</ele>
        <time>2022-12-28T14:50:22Z</time>
      </trkpt>
      <trkpt lat="49.95202" lon="2.29812">
        <ele>71</ele>
        <time>2022-12-28T14:50:24Z</time>
      </trkpt>
      <trkpt lat="49.95203" lon="2.29812">
        <ele>71</ele>
        <time>2022-12-28T14:50:25Z</time>
      </trkpt>
      <trkpt lat="49.95204" lon="2.29812">
        <ele>71</ele>
        <time>2022-12-28T14:50:26Z</time>
      </trkpt>
      <trkpt lat="49.95205" lon="2.29812">
        <ele>71</ele>
        <time>2022-12-28T14:50:27Z</time>
      </trkpt>
      <trkpt lat="49.95207" lon="2.29813">
        <ele>71</ele>
        <time>2022-12-28T14:50:28Z</time>
      </trkpt>
      <trkpt lat="49.95208" lon="2.29813">
        <ele>71</ele>
        <time>2022-12-28T14:50:29Z</time>
      </trkpt>
      <trkpt lat="49.95209" lon="2.29814">
        <ele>71</ele>
        <time>2022-12-28T14:50:30Z</time>
      </trkpt>
      <trkpt lat="49.9521" lon="2.29815">
        <ele>71</ele>
        <time>2022-12-28T14:50:31Z</time>
      </trkpt>
      <trkpt lat="49.95211" lon="2.29815">
        <ele>71</ele>
        <time>2022-12-28T14:50:33Z</time>
      </trkpt>
      <trkpt lat="49.95211" lon="2.29815">
        <ele>71.1</ele>
        <time>2022-12-28T14:50:34Z</time>
      </trkpt>
      <trkpt lat="49.95212" lon="2.29815">
        <ele>71.1</ele>
        <time>2022-12-28T14:50:35Z</time>
      </trkpt>
      <trkpt lat="49.95214" lon="2.29815">
        <ele>71.1</ele>
        <time>2022-12-28T14:50:36Z</time>
      </trkpt>
      <trkpt lat="49.95215" lon="2.29815">
        <ele>71.1</ele>
        <time>2022-12-28T14:50:37Z</time>
      </trkpt>
      <trkpt lat="49.95217" lon="2.29814">
        <ele>71.1</ele>
        <time>2022-12-28T14:50:38Z</time>
      </trkpt>
      <trkpt lat="49.95218" lon="2.29814">
        <ele>71.1</ele>
        <time>2022-12-28T14:50:39Z</time>
      </trkpt>
      <trkpt lat="49.95219" lon="2.29814">
        <ele>71.1</ele>
        <time>2022-12-28T14:50:41Z</time>
      </trkpt>
      <trkpt lat="49.9522" lon="2.29814">
        <ele>71.1</ele>
        <time>2022-12-28T14:50:42Z</time>
      </trkpt>
      <trkpt lat="49.95221" lon="2.29814">
        <ele>71.1</ele>
        <time>2022-12-28T14:50:43Z</time>
      </trkpt>
      <trkpt lat="49.95222" lon="2.29814">
        <ele>71.1</ele>
        <time>2022-12-28T14:50:44Z</time>
      </trkpt>
      <trkpt lat="49.95223" lon="2.29814">
        <ele>71.1</ele>
        <time>2022-12-28T14:50:45Z</time>
      </trkpt>
      <trkpt lat="49.95224" lon="2.29814">
        <ele>71.1</ele>
        <time>2022-12-28T14:50:46Z</time>
      </trkpt>
      <trkpt lat="49.95225" lon="2.29814">
        <ele>71.2</ele>
        <time>2022-12-28T14:50:47Z</time>
      </trkpt>
      <trkpt lat="49.95228" lon="2.29813">
        <ele>71.2</ele>
        <time>2022-12-28T14:50:48Z</time>
      </trkpt>
      <trkpt lat="49.95229" lon="2.29813">
        <ele>71.2</ele>
        <time>2022-12-28T14:50:50Z</time>
      </trkpt>
      <trkpt lat="49.9523" lon="2.29813">
        <ele>71.2</ele>
        <time>2022-12-28T14:50:51Z</time>
      </trkpt>
      <trkpt lat="49.95231" lon="2.29812">
        <ele>71.2</ele>
        <time>2022-12-28T14:50:52Z</time>
      </trkpt>
      <trkpt lat="49.95232" lon="2.29812">
        <ele>71.2</ele>
        <time>2022-12-28T14:50:53Z</time>
      </trkpt>
      <trkpt lat="49.95233" lon="2.29812">
        <ele>71.2</ele>
        <time>2022-12-28T14:50:54Z</time>
      </trkpt>
      <trkpt lat="49.95235" lon="2.29812">
        <ele>71.2</ele>
        <time>2022-12-28T14:50:55Z</time>
      </trkpt>
      <trkpt lat="49.95236" lon="2.29812">
        <ele>71.2</ele>
        <time>2022-12-28T14:50:56Z</time>
      </trkpt>
      <trkpt lat="49.95237" lon="2.29812">
        <ele>71.2</ele>
        <time>2022-12-28T14:50:58Z</time>
      </trkpt>
      <trkpt lat="49.95238" lon="2.29812">
        <ele>71.3</ele>
        <time>2022-12-28T14:50:59Z</time>
      </trkpt>
      <trkpt lat="49.95239" lon="2.29811">
        <ele>71.3</ele>
        <time>2022-12-28T14:51:00Z</time>
      </trkpt>
      <trkpt lat="49.9524" lon="2.29811">
        <ele>71.3</ele>
        <time>2022-12-28T14:51:01Z</time>
      </trkpt>
      <trkpt lat="49.95242" lon="2.29811">
        <ele>71.3</ele>
        <time>2022-12-28T14:51:02Z</time>
      </trkpt>
      <trkpt lat="49.95243" lon="2.29811">
        <ele>71.3</ele>
        <time>2022-12-28T14:51:03Z</time>
      </trkpt>
      <trkpt lat="49.95244" lon="2.2981">
        <ele>71.3</ele>
        <time>2022-12-28T14:51:04Z</time>
      </trkpt>
      <trkpt lat="49.95245" lon="2.2981">
        <ele>71.3</ele>
        <time>2022-12-28T14:51:05Z</time>
      </trkpt>
      <trkpt lat="49.95246" lon="2.2981">
        <ele>71.3</ele>
        <time>2022-12-28T14:51:06Z</time>
      </trkpt>
      <trkpt lat="49.95247" lon="2.29809">
        <ele>71.3</ele>
        <time>2022-12-28T14:51:08Z</time>
      </trkpt>
      <trkpt lat="49.95248" lon="2.29809">
        <ele>71.4</ele>
        <time>2022-12-28T14:51:09Z</time>
      </trkpt>
      <trkpt lat="49.95248" lon="2.29809">
        <ele>71.4</ele>
        <time>2022-12-28T14:51:10Z</time>
      </trkpt>
      <trkpt lat="49.9525" lon="2.29809">
        <ele>71.4</ele>
        <time>2022-12-28T14:51:11Z</time>
      </trkpt>
      <trkpt lat="49.95251" lon="2.29809">
        <ele>71.4</ele>
        <time>2022-12-28T14:51:12Z</time>
      </trkpt>
      <trkpt lat="49.95253" lon="2.29808">
        <ele>71.4</ele>
        <time>2022-12-28T14:51:13Z</time>
      </trkpt>
      <trkpt lat="49.95254" lon="2.29808">
        <ele>71.4</ele>
        <time>2022-12-28T14:51:15Z</time>
      </trkpt>
      <trkpt lat="49.95255" lon="2.29808">
        <ele>71.5</ele>
        <time>2022-12-28T14:51:16Z</time>
      </trkpt>
      <trkpt lat="49.95257" lon="2.29808">
        <ele>71.5</ele>
        <time>2022-12-28T14:51:17Z</time>
      </trkpt>
      <trkpt lat="49.95258" lon="2.29808">
        <ele>71.5</ele>
        <time>2022-12-28T14:51:18Z</time>
      </trkpt>
      <trkpt lat="49.95259" lon="2.29808">
        <ele>71.5</ele>
        <time>2022-12-28T14:51:19Z</time>
      </trkpt>
      <trkpt lat="49.9526" lon="2.29807">
        <ele>71.5</ele>
        <time>2022-12-28T14:51:20Z</time>
      </trkpt>
      <trkpt lat="49.95261" lon="2.29807">
        <ele>71.6</ele>
        <time>2022-12-28T14:51:21Z</time>
      </trkpt>
      <trkpt lat="49.95262" lon="2.29806">
        <ele>71.6</ele>
        <time>2022-12-28T14:51:23Z</time>
      </trkpt>
      <trkpt lat="49.95263" lon="2.29806">
        <ele>71.6</ele>
        <time>2022-12-28T14:51:24Z</time>
      </trkpt>
      <trkpt lat="49.95265" lon="2.29805">
        <ele>71.6</ele>
        <time>2022-12-28T14:51:25Z</time>
      </trkpt>
      <trkpt lat="49.95266" lon="2.29805">
        <ele>71.6</ele>
        <time>2022-12-28T14:51:26Z</time>
      </trkpt>
      <trkpt lat="49.95268" lon="2.29804">
        <ele>71.7</ele>
        <time>2022-12-28T14:51:27Z</time>
      </trkpt>
      <trkpt lat="49.95268" lon="2.29804">
        <ele>71.7</ele>
        <time>2022-12-28T14:51:28Z</time>
      </trkpt>
      <trkpt lat="49.95269" lon="2.29804">
        <ele>71.7</ele>
        <time>2022-12-28T14:51:29Z</time>
      </trkpt>
      <trkpt lat="49.95271" lon="2.29804">
        <ele>71.7</ele>
        <time>2022-12-28T14:51:30Z</time>
      </trkpt>
      <trkpt lat="49.95272" lon="2.29804">
        <ele>71.7</ele>
        <time>2022-12-28T14:51:32Z</time>
      </trkpt>
      <trkpt lat="49.95273" lon="2.29803">
        <ele>71.8</ele>
        <time>2022-12-28T14:51:33Z</time>
      </trkpt>
      <trkpt lat="49.95274" lon="2.29803">
        <ele>71.8</ele>
        <time>2022-12-28T14:51:34Z</time>
      </trkpt>
      <trkpt lat="49.95275" lon="2.29803">
        <ele>71.8</ele>
        <time>2022-12-28T14:51:35Z</time>
      </trkpt>
      <trkpt lat="49.95276" lon="2.29803">
        <ele>71.8</ele>
        <time>2022-12-28T14:51:36Z</time>
      </trkpt>
      <trkpt lat="49.95278" lon="2.29802">
        <ele>71.8</ele>
        <time>2022-12-28T14:51:37Z</time>
      </trkpt>
      <trkpt lat="49.95279" lon="2.29802">
        <ele>71.8</ele>
        <time>2022-12-28T14:51:39Z</time>
      </trkpt>
      <trkpt lat="49.95281" lon="2.29802">
        <ele>71.9</ele>
        <time>2022-12-28T14:51:40Z</time>
      </trkpt>
      <trkpt lat="49.95282" lon="2.29801">
        <ele>71.9</ele>
        <time>2022-12-28T14:51:41Z</time>
      </trkpt>
      <trkpt lat="49.95284" lon="2.29801">
        <ele>71.9</ele>
        <time>2022-12-28T14:51:42Z</time>
      </trkpt>
      <trkpt lat="49.95285" lon="2.29801">
        <ele>71.9</ele>
        <time>2022-12-28T14:51:43Z</time>
      </trkpt>
      <trkpt lat="49.95287" lon="2.29801">
        <ele>72</ele>
        <time>2022-12-28T14:51:44Z</time>
      </trkpt>
      <trkpt lat="49.95288" lon="2.29801">
        <ele>72</ele>
        <time>2022-12-28T14:51:45Z</time>
      </trkpt>
      <trkpt lat="49.95289" lon="2.29801">
        <ele>72</ele>
        <time>2022-12-28T14:51:46Z</time>
      </trkpt>
      <trkpt lat="49.9529" lon="2.29801">
        <ele>72</ele>
        <time>2022-12-28T14:51:48Z</time>
      </trkpt>
      <trkpt lat="49.95291" lon="2.29801">
        <ele>72</ele>
        <time>2022-12-28T14:51:49Z</time>
      </trkpt>
      <trkpt lat="49.95292" lon="2.29801">
        <ele>72</ele>
        <time>2022-12-28T14:51:50Z</time>
      </trkpt>
      <trkpt lat="49.95293" lon="2.29801">
        <ele>72.1</ele>
        <time>2022-12-28T14:51:51Z</time>
      </trkpt>
      <trkpt lat="49.95295" lon="2.29801">
        <ele>72.1</ele>
        <time>2022-12-28T14:51:52Z</time>
      </trkpt>
      <trkpt lat="49.95296" lon="2.29801">
        <ele>72.1</ele>
        <time>2022-12-28T14:51:53Z</time>
      </trkpt>
      <trkpt lat="49.95297" lon="2.29801">
        <ele>72.2</ele>
        <time>2022-12-28T14:51:54Z</time>
      </trkpt>
      <trkpt lat="49.95298" lon="2.29801">
        <ele>72.2</ele>
        <time>2022-12-28T14:51:55Z</time>
      </trkpt>
      <trkpt lat="49.953" lon="2.29801">
        <ele>72.2</ele>
        <time>2022-12-28T14:51:57Z</time>
      </trkpt>
      <trkpt lat="49.95302" lon="2.298">
        <ele>72.3</ele>
        <time>2022-12-28T14:51:58Z</time>
      </trkpt>
      <trkpt lat="49.95303" lon="2.298">
        <ele>72.3</ele>
        <time>2022-12-28T14:51:59Z</time>
      </trkpt>
      <trkpt lat="49.95304" lon="2.298">
        <ele>72.3</ele>
        <time>2022-12-28T14:52:00Z</time>
      </trkpt>
      <trkpt lat="49.95305" lon="2.29799">
        <ele>72.3</ele>
        <time>2022-12-28T14:52:01Z</time>
      </trkpt>
      <trkpt lat="49.95306" lon="2.29799">
        <ele>72.4</ele>
        <time>2022-12-28T14:52:03Z</time>
      </trkpt>
      <trkpt lat="49.95307" lon="2.29799">
        <ele>72.4</ele>
        <time>2022-12-28T14:52:04Z</time>
      </trkpt>
      <trkpt lat="49.95309" lon="2.29799">
        <ele>72.4</ele>
        <time>2022-12-28T14:52:05Z</time>
      </trkpt>
      <trkpt lat="49.9531" lon="2.29798">
        <ele>72.5</ele>
        <time>2022-12-28T14:52:06Z</time>
      </trkpt>
      <trkpt lat="49.95311" lon="2.29798">
        <ele>72.5</ele>
        <time>2022-12-28T14:52:07Z</time>
      </trkpt>
      <trkpt lat="49.95313" lon="2.29798">
        <ele>72.5</ele>
        <time>2022-12-28T14:52:08Z</time>
      </trkpt>
      <trkpt lat="49.95313" lon="2.29798">
        <ele>72.5</ele>
        <time>2022-12-28T14:52:09Z</time>
      </trkpt>
      <trkpt lat="49.95314" lon="2.29798">
        <ele>72.6</ele>
        <time>2022-12-28T14:52:10Z</time>
      </trkpt>
      <trkpt lat="49.95316" lon="2.29798">
        <ele>72.6</ele>
        <time>2022-12-28T14:52:11Z</time>
      </trkpt>
      <trkpt lat="49.95317" lon="2.29798">
        <ele>72.6</ele>
        <time>2022-12-28T14:52:13Z</time>
      </trkpt>
      <trkpt lat="49.95318" lon="2.29798">
        <ele>72.7</ele>
        <time>2022-12-28T14:52:14Z</time>
      </trkpt>
      <trkpt lat="49.95319" lon="2.29798">
        <ele>72.7</ele>
        <time>2022-12-28T14:52:15Z</time>
      </trkpt>
      <trkpt lat="49.9532" lon="2.29799">
        <ele>72.7</ele>
        <time>2022-12-28T14:52:16Z</time>
      </trkpt>
      <trkpt lat="49.95321" lon="2.29799">
        <ele>72.7</ele>
        <time>2022-12-28T14:52:17Z</time>
      </trkpt>
      <trkpt lat="49.95321" lon="2.29798">
        <ele>72.7</ele>
        <time>2022-12-28T14:52:18Z</time>
      </trkpt>
      <trkpt lat="49.95322" lon="2.29797">
        <ele>72.8</ele>
        <time>2022-12-28T14:52:19Z</time>
      </trkpt>
      <trkpt lat="49.95323" lon="2.29797">
        <ele>72.8</ele>
        <time>2022-12-28T14:52:20Z</time>
      </trkpt>
      <trkpt lat="49.95324" lon="2.29796">
        <ele>72.8</ele>
        <time>2022-12-28T14:52:21Z</time>
      </trkpt>
      <trkpt lat="49.95325" lon="2.29796">
        <ele>72.8</ele>
        <time>2022-12-28T14:52:23Z</time>
      </trkpt>
      <trkpt lat="49.95327" lon="2.29796">
        <ele>72.8</ele>
        <time>2022-12-28T14:52:24Z</time>
      </trkpt>
      <trkpt lat="49.95328" lon="2.29796">
        <ele>72.9</ele>
        <time>2022-12-28T14:52:25Z</time>
      </trkpt>
      <trkpt lat="49.9533" lon="2.29796">
        <ele>72.9</ele>
        <time>2022-12-28T14:52:26Z</time>
      </trkpt>
      <trkpt lat="49.95331" lon="2.29796">
        <ele>72.9</ele>
        <time>2022-12-28T14:52:27Z</time>
      </trkpt>
      <trkpt lat="49.95332" lon="2.29796">
        <ele>72.9</ele>
        <time>2022-12-28T14:52:28Z</time>
      </trkpt>
      <trkpt lat="49.95334" lon="2.29796">
        <ele>73</ele>
        <time>2022-12-28T14:52:30Z</time>
      </trkpt>
      <trkpt lat="49.95335" lon="2.29796">
        <ele>73</ele>
        <time>2022-12-28T14:52:31Z</time>
      </trkpt>
      <trkpt lat="49.95336" lon="2.29796">
        <ele>73</ele>
        <time>2022-12-28T14:52:32Z</time>
      </trkpt>
      <trkpt lat="49.95337" lon="2.29796">
        <ele>73</ele>
        <time>2022-12-28T14:52:33Z</time>
      </trkpt>
      <trkpt lat="49.95338" lon="2.29796">
        <ele>73.1</ele>
        <time>2022-12-28T14:52:34Z</time>
      </trkpt>
      <trkpt lat="49.95339" lon="2.29796">
        <ele>73.1</ele>
        <time>2022-12-28T14:52:36Z</time>
      </trkpt>
      <trkpt lat="49.95341" lon="2.29797">
        <ele>73.1</ele>
        <time>2022-12-28T14:52:37Z</time>
      </trkpt>
      <trkpt lat="49.95342" lon="2.29797">
        <ele>73.2</ele>
        <time>2022-12-28T14:52:38Z</time>
      </trkpt>
      <trkpt lat="49.95343" lon="2.29798">
        <ele>73.2</ele>
        <time>2022-12-28T14:52:39Z</time>
      </trkpt>
      <trkpt lat="49.95345" lon="2.29798">
        <ele>73.2</ele>
        <time>2022-12-28T14:52:40Z</time>
      </trkpt>
      <trkpt lat="49.95346" lon="2.29799">
        <ele>73.2</ele>
        <time>2022-12-28T14:52:41Z</time>
      </trkpt>
      <trkpt lat="49.95347" lon="2.29799">
        <ele>73.3</ele>
        <time>2022-12-28T14:52:42Z</time>
      </trkpt>
      <trkpt lat="49.95348" lon="2.298">
        <ele>73.3</ele>
        <time>2022-12-28T14:52:43Z</time>
      </trkpt>
      <trkpt lat="49.9535" lon="2.298">
        <ele>73.3</ele>
        <time>2022-12-28T14:52:44Z</time>
      </trkpt>
      <trkpt lat="49.95351" lon="2.298">
        <ele>73.4</ele>
        <time>2022-12-28T14:52:46Z</time>
      </trkpt>
      <trkpt lat="49.95352" lon="2.298">
        <ele>73.4</ele>
        <time>2022-12-28T14:52:47Z</time>
      </trkpt>
      <trkpt lat="49.95354" lon="2.298">
        <ele>73.4</ele>
        <time>2022-12-28T14:52:48Z</time>
      </trkpt>
      <trkpt lat="49.95355" lon="2.298">
        <ele>73.4</ele>
        <time>2022-12-28T14:52:49Z</time>
      </trkpt>
      <trkpt lat="49.95356" lon="2.298">
        <ele>73.5</ele>
        <time>2022-12-28T14:52:50Z</time>
      </trkpt>
      <trkpt lat="49.95358" lon="2.29799">
        <ele>73.5</ele>
        <time>2022-12-28T14:52:51Z</time>
      </trkpt>
      <trkpt lat="49.95359" lon="2.29799">
        <ele>73.5</ele>
        <time>2022-12-28T14:52:52Z</time>
      </trkpt>
      <trkpt lat="49.9536" lon="2.29799">
        <ele>73.5</ele>
        <time>2022-12-28T14:52:53Z</time>
      </trkpt>
      <trkpt lat="49.95362" lon="2.29799">
        <ele>73.6</ele>
        <time>2022-12-28T14:52:55Z</time>
      </trkpt>
      <trkpt lat="49.95363" lon="2.29799">
        <ele>73.6</ele>
        <time>2022-12-28T14:52:56Z</time>
      </trkpt>
      <trkpt lat="49.95364" lon="2.29799">
        <ele>73.6</ele>
        <time>2022-12-28T14:52:57Z</time>
      </trkpt>
      <trkpt lat="49.95365" lon="2.29799">
        <ele>73.6</ele>
        <time>2022-12-28T14:52:58Z</time>
      </trkpt>
      <trkpt lat="49.95366" lon="2.29798">
        <ele>73.6</ele>
        <time>2022-12-28T14:52:59Z</time>
      </trkpt>
      <trkpt lat="49.95367" lon="2.29797">
        <ele>73.7</ele>
        <time>2022-12-28T14:53:01Z</time>
      </trkpt>
      <trkpt lat="49.95368" lon="2.29797">
        <ele>73.7</ele>
        <time>2022-12-28T14:53:02Z</time>
      </trkpt>
      <trkpt lat="49.95369" lon="2.29796">
        <ele>73.7</ele>
        <time>2022-12-28T14:53:03Z</time>
      </trkpt>
      <trkpt lat="49.9537" lon="2.29795">
        <ele>73.7</ele>
        <time>2022-12-28T14:53:04Z</time>
      </trkpt>
      <trkpt lat="49.95371" lon="2.29795">
        <ele>73.7</ele>
        <time>2022-12-28T14:53:05Z</time>
      </trkpt>
      <trkpt lat="49.95372" lon="2.29795">
        <ele>73.7</ele>
        <time>2022-12-28T14:53:06Z</time>
      </trkpt>
      <trkpt lat="49.95373" lon="2.29795">
        <ele>73.8</ele>
        <time>2022-12-28T14:53:07Z</time>
      </trkpt>
      <trkpt lat="49.95375" lon="2.29795">
        <ele>73.8</ele>
        <time>2022-12-28T14:53:08Z</time>
      </trkpt>
      <trkpt lat="49.95376" lon="2.29795">
        <ele>73.8</ele>
        <time>2022-12-28T14:53:09Z</time>
      </trkpt>
      <trkpt lat="49.95377" lon="2.29795">
        <ele>73.8</ele>
        <time>2022-12-28T14:53:11Z</time>
      </trkpt>
      <trkpt lat="49.95379" lon="2.29795">
        <ele>73.9</ele>
        <time>2022-12-28T14:53:12Z</time>
      </trkpt>
      <trkpt lat="49.9538" lon="2.29795">
        <ele>73.9</ele>
        <time>2022-12-28T14:53:13Z</time>
      </trkpt>
      <trkpt lat="49.95381" lon="2.29795">
        <ele>73.9</ele>
        <time>2022-12-28T14:53:14Z</time>
      </trkpt>
      <trkpt lat="49.95383" lon="2.29796">
        <ele>73.9</ele>
        <time>2022-12-28T14:53:15Z</time>
      </trkpt>
      <trkpt lat="49.95384" lon="2.29796">
        <ele>73.9</ele>
        <time>2022-12-28T14:53:16Z</time>
      </trkpt>
      <trkpt lat="49.95385" lon="2.29796">
        <ele>74</ele>
        <time>2022-12-28T14:53:17Z</time>
      </trkpt>
      <trkpt lat="49.95387" lon="2.29796">
        <ele>74</ele>
        <time>2022-12-28T14:53:18Z</time>
      </trkpt>
      <trkpt lat="49.95388" lon="2.29797">
        <ele>74</ele>
        <time>2022-12-28T14:53:19Z</time>
      </trkpt>
      <trkpt lat="49.95389" lon="2.29797">
        <ele>74</ele>
        <time>2022-12-28T14:53:21Z</time>
      </trkpt>
      <trkpt lat="49.9539" lon="2.29797">
        <ele>74</ele>
        <time>2022-12-28T14:53:22Z</time>
      </trkpt>
      <trkpt lat="49.95392" lon="2.29797">
        <ele>74.1</ele>
        <time>2022-12-28T14:53:23Z</time>
      </trkpt>
      <trkpt lat="49.95394" lon="2.29797">
        <ele>74.1</ele>
        <time>2022-12-28T14:53:24Z</time>
      </trkpt>
      <trkpt lat="49.95394" lon="2.29797">
        <ele>74.1</ele>
        <time>2022-12-28T14:53:25Z</time>
      </trkpt>
      <trkpt lat="49.95395" lon="2.29797">
        <ele>74.1</ele>
        <time>2022-12-28T14:53:26Z</time>
      </trkpt>
      <trkpt lat="49.95396" lon="2.29797">
        <ele>74.1</ele>
        <time>2022-12-28T14:53:27Z</time>
      </trkpt>
      <trkpt lat="49.95397" lon="2.29797">
        <ele>74.2</ele>
        <time>2022-12-28T14:53:28Z</time>
      </trkpt>
      <trkpt lat="49.95399" lon="2.29796">
        <ele>74.2</ele>
        <time>2022-12-28T14:53:30Z</time>
      </trkpt>
      <trkpt lat="49.95399" lon="2.29796">
        <ele>74.2</ele>
        <time>2022-12-28T14:53:31Z</time>
      </trkpt>
      <trkpt lat="49.954" lon="2.29796">
        <ele>74.2</ele>
        <time>2022-12-28T14:53:32Z</time>
      </trkpt>
      <trkpt lat="49.95401" lon="2.29796">
        <ele>74.2</ele>
        <time>2022-12-28T14:53:33Z</time>
      </trkpt>
      <trkpt lat="49.95402" lon="2.29797">
        <ele>74.2</ele>
        <time>2022-12-28T14:53:35Z</time>
      </trkpt>
      <trkpt lat="49.95403" lon="2.29797">
        <ele>74.3</ele>
        <time>2022-12-28T14:53:36Z</time>
      </trkpt>
      <trkpt lat="49.95404" lon="2.29797">
        <ele>74.3</ele>
        <time>2022-12-28T14:53:37Z</time>
      </trkpt>
      <trkpt lat="49.95406" lon="2.29797">
        <ele>74.3</ele>
        <time>2022-12-28T14:53:38Z</time>
      </trkpt>
      <trkpt lat="49.95407" lon="2.29797">
        <ele>74.3</ele>
        <time>2022-12-28T14:53:39Z</time>
      </trkpt>
      <trkpt lat="49.95408" lon="2.29797">
        <ele>74.3</ele>
        <time>2022-12-28T14:53:40Z</time>
      </trkpt>
      <trkpt lat="49.95409" lon="2.29797">
        <ele>74.4</ele>
        <time>2022-12-28T14:53:41Z</time>
      </trkpt>
      <trkpt lat="49.9541" lon="2.29797">
        <ele>74.4</ele>
        <time>2022-12-28T14:53:42Z</time>
      </trkpt>
      <trkpt lat="49.95412" lon="2.29797">
        <ele>74.4</ele>
        <time>2022-12-28T14:53:43Z</time>
      </trkpt>
      <trkpt lat="49.95413" lon="2.29797">
        <ele>74.4</ele>
        <time>2022-12-28T14:53:45Z</time>
      </trkpt>
      <trkpt lat="49.95415" lon="2.29797">
        <ele>74.4</ele>
        <time>2022-12-28T14:53:46Z</time>
      </trkpt>
      <trkpt lat="49.95415" lon="2.29797">
        <ele>74.4</ele>
        <time>2022-12-28T14:53:47Z</time>
      </trkpt>
      <trkpt lat="49.95416" lon="2.29798">
        <ele>74.5</ele>
        <time>2022-12-28T14:53:48Z</time>
      </trkpt>
      <trkpt lat="49.95417" lon="2.29798">
        <ele>74.5</ele>
        <time>2022-12-28T14:53:49Z</time>
      </trkpt>
      <trkpt lat="49.95418" lon="2.29798">
        <ele>74.5</ele>
        <time>2022-12-28T14:53:50Z</time>
      </trkpt>
      <trkpt lat="49.95419" lon="2.29799">
        <ele>74.5</ele>
        <time>2022-12-28T14:53:51Z</time>
      </trkpt>
      <trkpt lat="49.9542" lon="2.29799">
        <ele>74.5</ele>
        <time>2022-12-28T14:53:52Z</time>
      </trkpt>
      <trkpt lat="49.95421" lon="2.29799">
        <ele>74.5</ele>
        <time>2022-12-28T14:53:53Z</time>
      </trkpt>
      <trkpt lat="49.95423" lon="2.298">
        <ele>74.6</ele>
        <time>2022-12-28T14:53:55Z</time>
      </trkpt>
      <trkpt lat="49.95424" lon="2.298">
        <ele>74.6</ele>
        <time>2022-12-28T14:53:56Z</time>
      </trkpt>
      <trkpt lat="49.95425" lon="2.29801">
        <ele>74.6</ele>
        <time>2022-12-28T14:53:57Z</time>
      </trkpt>
      <trkpt lat="49.95426" lon="2.29801">
        <ele>74.6</ele>
        <time>2022-12-28T14:53:58Z</time>
      </trkpt>
      <trkpt lat="49.95427" lon="2.29801">
        <ele>74.6</ele>
        <time>2022-12-28T14:53:59Z</time>
      </trkpt>
      <trkpt lat="49.95428" lon="2.29801">
        <ele>74.7</ele>
        <time>2022-12-28T14:54:00Z</time>
      </trkpt>
      <trkpt lat="49.95429" lon="2.29801">
        <ele>74.7</ele>
        <time>2022-12-28T14:54:01Z</time>
      </trkpt>
      <trkpt lat="49.9543" lon="2.29802">
        <ele>74.7</ele>
        <time>2022-12-28T14:54:02Z</time>
      </trkpt>
      <trkpt lat="49.95431" lon="2.29804">
        <ele>74.7</ele>
        <time>2022-12-28T14:54:04Z</time>
      </trkpt>
      <trkpt lat="49.95431" lon="2.29805">
        <ele>74.7</ele>
        <time>2022-12-28T14:54:05Z</time>
      </trkpt>
      <trkpt lat="49.95431" lon="2.29805">
        <ele>74.7</ele>
        <time>2022-12-28T14:54:06Z</time>
      </trkpt>
      <trkpt lat="49.95432" lon="2.29805">
        <ele>74.7</ele>
        <time>2022-12-28T14:54:07Z</time>
      </trkpt>
      <trkpt lat="49.95434" lon="2.29805">
        <ele>74.8</ele>
        <time>2022-12-28T14:54:08Z</time>
      </trkpt>
      <trkpt lat="49.95436" lon="2.29804">
        <ele>74.8</ele>
        <time>2022-12-28T14:54:10Z</time>
      </trkpt>
      <trkpt lat="49.95436" lon="2.29804">
        <ele>74.8</ele>
        <time>2022-12-28T14:54:11Z</time>
      </trkpt>
      <trkpt lat="49.95437" lon="2.29804">
        <ele>74.8</ele>
        <time>2022-12-28T14:54:12Z</time>
      </trkpt>
      <trkpt lat="49.95439" lon="2.29803">
        <ele>74.9</ele>
        <time>2022-12-28T14:54:13Z</time>
      </trkpt>
      <trkpt lat="49.9544" lon="2.29803">
        <ele>74.9</ele>
        <time>2022-12-28T14:54:14Z</time>
      </trkpt>
      <trkpt lat="49.95441" lon="2.29803">
        <ele>74.9</ele>
        <time>2022-12-28T14:54:15Z</time>
      </trkpt>
      <trkpt lat="49.95443" lon="2.29802">
        <ele>74.9</ele>
        <time>2022-12-28T14:54:16Z</time>
      </trkpt>
      <trkpt lat="49.95444" lon="2.29802">
        <ele>74.9</ele>
        <time>2022-12-28T14:54:17Z</time>
      </trkpt>
      <trkpt lat="49.95445" lon="2.29801">
        <ele>74.9</ele>
        <time>2022-12-28T14:54:19Z</time>
      </trkpt>
      <trkpt lat="49.95447" lon="2.29801">
        <ele>75</ele>
        <time>2022-12-28T14:54:20Z</time>
      </trkpt>
      <trkpt lat="49.95448" lon="2.298">
        <ele>75</ele>
        <time>2022-12-28T14:54:21Z</time>
      </trkpt>
      <trkpt lat="49.9545" lon="2.298">
        <ele>75</ele>
        <time>2022-12-28T14:54:22Z</time>
      </trkpt>
      <trkpt lat="49.95451" lon="2.298">
        <ele>75</ele>
        <time>2022-12-28T14:54:23Z</time>
      </trkpt>
      <trkpt lat="49.95452" lon="2.29799">
        <ele>75</ele>
        <time>2022-12-28T14:54:24Z</time>
      </trkpt>
      <trkpt lat="49.95454" lon="2.29799">
        <ele>75.1</ele>
        <time>2022-12-28T14:54:25Z</time>
      </trkpt>
      <trkpt lat="49.95455" lon="2.29799">
        <ele>75.1</ele>
        <time>2022-12-28T14:54:26Z</time>
      </trkpt>
      <trkpt lat="49.95457" lon="2.29799">
        <ele>75.1</ele>
        <time>2022-12-28T14:54:28Z</time>
      </trkpt>
      <trkpt lat="49.95458" lon="2.29799">
        <ele>75.1</ele>
        <time>2022-12-28T14:54:29Z</time>
      </trkpt>
      <trkpt lat="49.9546" lon="2.29799">
        <ele>75.2</ele>
        <time>2022-12-28T14:54:30Z</time>
      </trkpt>
      <trkpt lat="49.95461" lon="2.29799">
        <ele>75.2</ele>
        <time>2022-12-28T14:54:31Z</time>
      </trkpt>
      <trkpt lat="49.95462" lon="2.29799">
        <ele>75.2</ele>
        <time>2022-12-28T14:54:32Z</time>
      </trkpt>
      <trkpt lat="49.95464" lon="2.29799">
        <ele>75.2</ele>
        <time>2022-12-28T14:54:33Z</time>
      </trkpt>
      <trkpt lat="49.95465" lon="2.29799">
        <ele>75.2</ele>
        <time>2022-12-28T14:54:34Z</time>
      </trkpt>
      <trkpt lat="49.95466" lon="2.29799">
        <ele>75.2</ele>
        <time>2022-12-28T14:54:36Z</time>
      </trkpt>
      <trkpt lat="49.95467" lon="2.29799">
        <ele>75.2</ele>
        <time>2022-12-28T14:54:37Z</time>
      </trkpt>
      <trkpt lat="49.95468" lon="2.29799">
        <ele>75.2</ele>
        <time>2022-12-28T14:54:38Z</time>
      </trkpt>
      <trkpt lat="49.95469" lon="2.298">
        <ele>75.3</ele>
        <time>2022-12-28T14:54:39Z</time>
      </trkpt>
      <trkpt lat="49.9547" lon="2.298">
        <ele>75.3</ele>
        <time>2022-12-28T14:54:40Z</time>
      </trkpt>
      <trkpt lat="49.95471" lon="2.298">
        <ele>75.3</ele>
        <time>2022-12-28T14:54:41Z</time>
      </trkpt>
      <trkpt lat="49.95472" lon="2.29801">
        <ele>75.3</ele>
        <time>2022-12-28T14:54:42Z</time>
      </trkpt>
      <trkpt lat="49.95475" lon="2.29801">
        <ele>75.3</ele>
        <time>2022-12-28T14:54:43Z</time>
      </trkpt>
      <trkpt lat="49.95475" lon="2.29801">
        <ele>75.3</ele>
        <time>2022-12-28T14:54:45Z</time>
      </trkpt>
      <trkpt lat="49.95476" lon="2.29801">
        <ele>75.3</ele>
        <time>2022-12-28T14:54:46Z</time>
      </trkpt>
      <trkpt lat="49.95478" lon="2.29801">
        <ele>75.4</ele>
        <time>2022-12-28T14:54:47Z</time>
      </trkpt>
      <trkpt lat="49.95479" lon="2.29801">
        <ele>75.4</ele>
        <time>2022-12-28T14:54:48Z</time>
      </trkpt>
      <trkpt lat="49.9548" lon="2.29801">
        <ele>75.4</ele>
        <time>2022-12-28T14:54:49Z</time>
      </trkpt>
      <trkpt lat="49.95482" lon="2.29801">
        <ele>75.4</ele>
        <time>2022-12-28T14:54:50Z</time>
      </trkpt>
      <trkpt lat="49.95483" lon="2.29801">
        <ele>75.4</ele>
        <time>2022-12-28T14:54:51Z</time>
      </trkpt>
      <trkpt lat="49.95484" lon="2.29801">
        <ele>75.4</ele>
        <time>2022-12-28T14:54:52Z</time>
      </trkpt>
      <trkpt lat="49.95485" lon="2.29801">
        <ele>75.5</ele>
        <time>2022-12-28T14:54:53Z</time>
      </trkpt>
      <trkpt lat="49.95486" lon="2.29802">
        <ele>75.5</ele>
        <time>2022-12-28T14:54:55Z</time>
      </trkpt>
      <trkpt lat="49.95487" lon="2.29802">
        <ele>75.5</ele>
        <time>2022-12-28T14:54:56Z</time>
      </trkpt>
      <trkpt lat="49.95488" lon="2.29803">
        <ele>75.5</ele>
        <time>2022-12-28T14:54:57Z</time>
      </trkpt>
      <trkpt lat="49.9549" lon="2.29803">
        <ele>75.5</ele>
        <time>2022-12-28T14:54:58Z</time>
      </trkpt>
      <trkpt lat="49.95491" lon="2.29804">
        <ele>75.5</ele>
        <time>2022-12-28T14:54:59Z</time>
      </trkpt>
      <trkpt lat="49.95492" lon="2.29804">
        <ele>75.5</ele>
        <time>2022-12-28T14:55:00Z</time>
      </trkpt>
      <trkpt lat="49.95494" lon="2.29804">
        <ele>75.6</ele>
        <time>2022-12-28T14:55:01Z</time>
      </trkpt>
      <trkpt lat="49.95494" lon="2.29804">
        <ele>75.6</ele>
        <time>2022-12-28T14:55:03Z</time>
      </trkpt>
      <trkpt lat="49.95496" lon="2.29804">
        <ele>75.6</ele>
        <time>2022-12-28T14:55:04Z</time>
      </trkpt>
      <trkpt lat="49.95497" lon="2.29804">
        <ele>75.6</ele>
        <time>2022-12-28T14:55:05Z</time>
      </trkpt>
      <trkpt lat="49.95498" lon="2.29804">
        <ele>75.6</ele>
        <time>2022-12-28T14:55:06Z</time>
      </trkpt>
      <trkpt lat="49.955" lon="2.29804">
        <ele>75.6</ele>
        <time>2022-12-28T14:55:07Z</time>
      </trkpt>
      <trkpt lat="49.95501" lon="2.29804">
        <ele>75.6</ele>
        <time>2022-12-28T14:55:08Z</time>
      </trkpt>
      <trkpt lat="49.95502" lon="2.29804">
        <ele>75.6</ele>
        <time>2022-12-28T14:55:09Z</time>
      </trkpt>
      <trkpt lat="49.95503" lon="2.29805">
        <ele>75.6</ele>
        <time>2022-12-28T14:55:10Z</time>
      </trkpt>
      <trkpt lat="49.95505" lon="2.29805">
        <ele>75.7</ele>
        <time>2022-12-28T14:55:12Z</time>
      </trkpt>
      <trkpt lat="49.95506" lon="2.29805">
        <ele>75.7</ele>
        <time>2022-12-28T14:55:13Z</time>
      </trkpt>
      <trkpt lat="49.95507" lon="2.29805">
        <ele>75.7</ele>
        <time>2022-12-28T14:55:14Z</time>
      </trkpt>
      <trkpt lat="49.95508" lon="2.29805">
        <ele>75.7</ele>
        <time>2022-12-28T14:55:15Z</time>
      </trkpt>
      <trkpt lat="49.95509" lon="2.29805">
        <ele>75.7</ele>
        <time>2022-12-28T14:55:16Z</time>
      </trkpt>
      <trkpt lat="49.9551" lon="2.29805">
        <ele>75.7</ele>
        <time>2022-12-28T14:55:17Z</time>
      </trkpt>
      <trkpt lat="49.95512" lon="2.29805">
        <ele>75.7</ele>
        <time>2022-12-28T14:55:18Z</time>
      </trkpt>
      <trkpt lat="49.95513" lon="2.29805">
        <ele>75.7</ele>
        <time>2022-12-28T14:55:19Z</time>
      </trkpt>
      <trkpt lat="49.95516" lon="2.29805">
        <ele>75.8</ele>
        <time>2022-12-28T14:55:21Z</time>
      </trkpt>
      <trkpt lat="49.95517" lon="2.29805">
        <ele>75.8</ele>
        <time>2022-12-28T14:55:22Z</time>
      </trkpt>
      <trkpt lat="49.95517" lon="2.29805">
        <ele>75.8</ele>
        <time>2022-12-28T14:55:23Z</time>
      </trkpt>
      <trkpt lat="49.95519" lon="2.29806">
        <ele>75.8</ele>
        <time>2022-12-28T14:55:25Z</time>
      </trkpt>
      <trkpt lat="49.9552" lon="2.29806">
        <ele>75.8</ele>
        <time>2022-12-28T14:55:26Z</time>
      </trkpt>
      <trkpt lat="49.95522" lon="2.29805">
        <ele>75.8</ele>
        <time>2022-12-28T14:55:27Z</time>
      </trkpt>
      <trkpt lat="49.95524" lon="2.29805">
        <ele>75.9</ele>
        <time>2022-12-28T14:55:28Z</time>
      </trkpt>
      <trkpt lat="49.95525" lon="2.29805">
        <ele>75.9</ele>
        <time>2022-12-28T14:55:29Z</time>
      </trkpt>
      <trkpt lat="49.95527" lon="2.29805">
        <ele>75.9</ele>
        <time>2022-12-28T14:55:30Z</time>
      </trkpt>
      <trkpt lat="49.95527" lon="2.29805">
        <ele>75.9</ele>
        <time>2022-12-28T14:55:31Z</time>
      </trkpt>
      <trkpt lat="49.95528" lon="2.29805">
        <ele>75.9</ele>
        <time>2022-12-28T14:55:32Z</time>
      </trkpt>
      <trkpt lat="49.9553" lon="2.29806">
        <ele>75.9</ele>
        <time>2022-12-28T14:55:34Z</time>
      </trkpt>
      <trkpt lat="49.95531" lon="2.29806">
        <ele>75.9</ele>
        <time>2022-12-28T14:55:35Z</time>
      </trkpt>
      <trkpt lat="49.95533" lon="2.29807">
        <ele>76</ele>
        <time>2022-12-28T14:55:36Z</time>
      </trkpt>
      <trkpt lat="49.95534" lon="2.29808">
        <ele>76</ele>
        <time>2022-12-28T14:55:37Z</time>
      </trkpt>
      <trkpt lat="49.95535" lon="2.29808">
        <ele>76</ele>
        <time>2022-12-28T14:55:38Z</time>
      </trkpt>
      <trkpt lat="49.95536" lon="2.29808">
        <ele>76</ele>
        <time>2022-12-28T14:55:39Z</time>
      </trkpt>
      <trkpt lat="49.95538" lon="2.29809">
        <ele>76</ele>
        <time>2022-12-28T14:55:40Z</time>
      </trkpt>
      <trkpt lat="49.9554" lon="2.29809">
        <ele>76</ele>
        <time>2022-12-28T14:55:42Z</time>
      </trkpt>
      <trkpt lat="49.95541" lon="2.29809">
        <ele>76</ele>
        <time>2022-12-28T14:55:43Z</time>
      </trkpt>
      <trkpt lat="49.95542" lon="2.29809">
        <ele>76</ele>
        <time>2022-12-28T14:55:44Z</time>
      </trkpt>
      <trkpt lat="49.95544" lon="2.2981">
        <ele>76</ele>
        <time>2022-12-28T14:55:45Z</time>
      </trkpt>
      <trkpt lat="49.95544" lon="2.2981">
        <ele>76</ele>
        <time>2022-12-28T14:55:46Z</time>
      </trkpt>
      <trkpt lat="49.95546" lon="2.2981">
        <ele>76.1</ele>
        <time>2022-12-28T14:55:47Z</time>
      </trkpt>
      <trkpt lat="49.95547" lon="2.2981">
        <ele>76.1</ele>
        <time>2022-12-28T14:55:48Z</time>
      </trkpt>
      <trkpt lat="49.95548" lon="2.2981">
        <ele>76.1</ele>
        <time>2022-12-28T14:55:49Z</time>
      </trkpt>
      <trkpt lat="49.9555" lon="2.29811">
        <ele>76.1</ele>
        <time>2022-12-28T14:55:51Z</time>
      </trkpt>
      <trkpt lat="49.95551" lon="2.2981">
        <ele>76.1</ele>
        <time>2022-12-28T14:55:52Z</time>
      </trkpt>
      <trkpt lat="49.95553" lon="2.29809">
        <ele>76.1</ele>
        <time>2022-12-28T14:55:53Z</time>
      </trkpt>
      <trkpt lat="49.95553" lon="2.29809">
        <ele>76.1</ele>
        <time>2022-12-28T14:55:54Z</time>
      </trkpt>
      <trkpt lat="49.95554" lon="2.29808">
        <ele>76.1</ele>
        <time>2022-12-28T14:55:55Z</time>
      </trkpt>
      <trkpt lat="49.95555" lon="2.29808">
        <ele>76.1</ele>
        <time>2022-12-28T14:55:56Z</time>
      </trkpt>
      <trkpt lat="49.95556" lon="2.29808">
        <ele>76.1</ele>
        <time>2022-12-28T14:55:57Z</time>
      </trkpt>
      <trkpt lat="49.95557" lon="2.29808">
        <ele>76.1</ele>
        <time>2022-12-28T14:55:58Z</time>
      </trkpt>
      <trkpt lat="49.95558" lon="2.29808">
        <ele>76.1</ele>
        <time>2022-12-28T14:56:00Z</time>
      </trkpt>
      <trkpt lat="49.9556" lon="2.29808">
        <ele>76.2</ele>
        <time>2022-12-28T14:56:01Z</time>
      </trkpt>
      <trkpt lat="49.95561" lon="2.29808">
        <ele>76.2</ele>
        <time>2022-12-28T14:56:02Z</time>
      </trkpt>
      <trkpt lat="49.95563" lon="2.29808">
        <ele>76.2</ele>
        <time>2022-12-28T14:56:03Z</time>
      </trkpt>
      <trkpt lat="49.95564" lon="2.29808">
        <ele>76.2</ele>
        <time>2022-12-28T14:56:04Z</time>
      </trkpt>
      <trkpt lat="49.95565" lon="2.29808">
        <ele>76.2</ele>
        <time>2022-12-28T14:56:05Z</time>
      </trkpt>
      <trkpt lat="49.95565" lon="2.29808">
        <ele>76.2</ele>
        <time>2022-12-28T14:56:06Z</time>
      </trkpt>
      <trkpt lat="49.95567" lon="2.29808">
        <ele>76.2</ele>
        <time>2022-12-28T14:56:08Z</time>
      </trkpt>
      <trkpt lat="49.95568" lon="2.29808">
        <ele>76.2</ele>
        <time>2022-12-28T14:56:09Z</time>
      </trkpt>
      <trkpt lat="49.95568" lon="2.29808">
        <ele>76.2</ele>
        <time>2022-12-28T14:56:10Z</time>
      </trkpt>
      <trkpt lat="49.9557" lon="2.29808">
        <ele>76.3</ele>
        <time>2022-12-28T14:56:11Z</time>
      </trkpt>
      <trkpt lat="49.95571" lon="2.29808">
        <ele>76.3</ele>
        <time>2022-12-28T14:56:12Z</time>
      </trkpt>
      <trkpt lat="49.95573" lon="2.29808">
        <ele>76.3</ele>
        <time>2022-12-28T14:56:13Z</time>
      </trkpt>
      <trkpt lat="49.95574" lon="2.29808">
        <ele>76.3</ele>
        <time>2022-12-28T14:56:14Z</time>
      </trkpt>
      <trkpt lat="49.95575" lon="2.29809">
        <ele>76.3</ele>
        <time>2022-12-28T14:56:15Z</time>
      </trkpt>
      <trkpt lat="49.95576" lon="2.29809">
        <ele>76.3</ele>
        <time>2022-12-28T14:56:16Z</time>
      </trkpt>
      <trkpt lat="49.95577" lon="2.29809">
        <ele>76.3</ele>
        <time>2022-12-28T14:56:18Z</time>
      </trkpt>
      <trkpt lat="49.95578" lon="2.29809">
        <ele>76.3</ele>
        <time>2022-12-28T14:56:19Z</time>
      </trkpt>
      <trkpt lat="49.9558" lon="2.29809">
        <ele>76.4</ele>
        <time>2022-12-28T14:56:20Z</time>
      </trkpt>
      <trkpt lat="49.95581" lon="2.2981">
        <ele>76.4</ele>
        <time>2022-12-28T14:56:21Z</time>
      </trkpt>
      <trkpt lat="49.95581" lon="2.2981">
        <ele>76.4</ele>
        <time>2022-12-28T14:56:22Z</time>
      </trkpt>
      <trkpt lat="49.95582" lon="2.2981">
        <ele>76.4</ele>
        <time>2022-12-28T14:56:23Z</time>
      </trkpt>
      <trkpt lat="49.95583" lon="2.2981">
        <ele>76.4</ele>
        <time>2022-12-28T14:56:24Z</time>
      </trkpt>
      <trkpt lat="49.95585" lon="2.2981">
        <ele>76.4</ele>
        <time>2022-12-28T14:56:26Z</time>
      </trkpt>
      <trkpt lat="49.95586" lon="2.2981">
        <ele>76.4</ele>
        <time>2022-12-28T14:56:27Z</time>
      </trkpt>
      <trkpt lat="49.95587" lon="2.29811">
        <ele>76.4</ele>
        <time>2022-12-28T14:56:28Z</time>
      </trkpt>
      <trkpt lat="49.95588" lon="2.29811">
        <ele>76.5</ele>
        <time>2022-12-28T14:56:29Z</time>
      </trkpt>
      <trkpt lat="49.9559" lon="2.29811">
        <ele>76.5</ele>
        <time>2022-12-28T14:56:30Z</time>
      </trkpt>
      <trkpt lat="49.9559" lon="2.29811">
        <ele>76.5</ele>
        <time>2022-12-28T14:56:31Z</time>
      </trkpt>
      <trkpt lat="49.95592" lon="2.29811">
        <ele>76.5</ele>
        <time>2022-12-28T14:56:32Z</time>
      </trkpt>
      <trkpt lat="49.95594" lon="2.29812">
        <ele>76.5</ele>
        <time>2022-12-28T14:56:34Z</time>
      </trkpt>
      <trkpt lat="49.95595" lon="2.29812">
        <ele>76.5</ele>
        <time>2022-12-28T14:56:35Z</time>
      </trkpt>
      <trkpt lat="49.95595" lon="2.29812">
        <ele>76.5</ele>
        <time>2022-12-28T14:56:36Z</time>
      </trkpt>
      <trkpt lat="49.95596" lon="2.29812">
        <ele>76.5</ele>
        <time>2022-12-28T14:56:37Z</time>
      </trkpt>
      <trkpt lat="49.95597" lon="2.29812">
        <ele>76.5</ele>
        <time>2022-12-28T14:56:38Z</time>
      </trkpt>
      <trkpt lat="49.95598" lon="2.29813">
        <ele>76.5</ele>
        <time>2022-12-28T14:56:39Z</time>
      </trkpt>
      <trkpt lat="49.956" lon="2.29813">
        <ele>76.5</ele>
        <time>2022-12-28T14:56:40Z</time>
      </trkpt>
      <trkpt lat="49.95601" lon="2.29813">
        <ele>76.5</ele>
        <time>2022-12-28T14:56:41Z</time>
      </trkpt>
      <trkpt lat="49.95602" lon="2.29813">
        <ele>76.6</ele>
        <time>2022-12-28T14:56:43Z</time>
      </trkpt>
      <trkpt lat="49.95603" lon="2.29814">
        <ele>76.6</ele>
        <time>2022-12-28T14:56:44Z</time>
      </trkpt>
      <trkpt lat="49.95603" lon="2.29814">
        <ele>76.6</ele>
        <time>2022-12-28T14:56:45Z</time>
      </trkpt>
      <trkpt lat="49.95605" lon="2.29815">
        <ele>76.6</ele>
        <time>2022-12-28T14:56:46Z</time>
      </trkpt>
      <trkpt lat="49.95606" lon="2.29815">
        <ele>76.6</ele>
        <time>2022-12-28T14:56:47Z</time>
      </trkpt>
      <trkpt lat="49.95607" lon="2.29816">
        <ele>76.6</ele>
        <time>2022-12-28T14:56:48Z</time>
      </trkpt>
      <trkpt lat="49.95608" lon="2.29816">
        <ele>76.6</ele>
        <time>2022-12-28T14:56:49Z</time>
      </trkpt>
      <trkpt lat="49.95611" lon="2.29816">
        <ele>76.6</ele>
        <time>2022-12-28T14:56:50Z</time>
      </trkpt>
      <trkpt lat="49.95611" lon="2.29817">
        <ele>76.6</ele>
        <time>2022-12-28T14:56:52Z</time>
      </trkpt>
      <trkpt lat="49.95612" lon="2.29817">
        <ele>76.6</ele>
        <time>2022-12-28T14:56:53Z</time>
      </trkpt>
      <trkpt lat="49.95613" lon="2.29817">
        <ele>76.6</ele>
        <time>2022-12-28T14:56:54Z</time>
      </trkpt>
      <trkpt lat="49.95615" lon="2.29817">
        <ele>76.7</ele>
        <time>2022-12-28T14:56:55Z</time>
      </trkpt>
      <trkpt lat="49.95616" lon="2.29817">
        <ele>76.7</ele>
        <time>2022-12-28T14:56:56Z</time>
      </trkpt>
      <trkpt lat="49.95617" lon="2.29818">
        <ele>76.7</ele>
        <time>2022-12-28T14:56:57Z</time>
      </trkpt>
      <trkpt lat="49.95619" lon="2.29818">
        <ele>76.7</ele>
        <time>2022-12-28T14:56:58Z</time>
      </trkpt>
      <trkpt lat="49.9562" lon="2.29818">
        <ele>76.7</ele>
        <time>2022-12-28T14:57:00Z</time>
      </trkpt>
      <trkpt lat="49.95622" lon="2.29818">
        <ele>76.7</ele>
        <time>2022-12-28T14:57:01Z</time>
      </trkpt>
      <trkpt lat="49.95623" lon="2.29818">
        <ele>76.7</ele>
        <time>2022-12-28T14:57:02Z</time>
      </trkpt>
      <trkpt lat="49.95624" lon="2.29819">
        <ele>76.7</ele>
        <time>2022-12-28T14:57:03Z</time>
      </trkpt>
      <trkpt lat="49.95625" lon="2.29819">
        <ele>76.7</ele>
        <time>2022-12-28T14:57:04Z</time>
      </trkpt>
      <trkpt lat="49.95627" lon="2.29819">
        <ele>76.8</ele>
        <time>2022-12-28T14:57:05Z</time>
      </trkpt>
      <trkpt lat="49.95628" lon="2.29819">
        <ele>76.8</ele>
        <time>2022-12-28T14:57:06Z</time>
      </trkpt>
      <trkpt lat="49.95629" lon="2.29819">
        <ele>76.8</ele>
        <time>2022-12-28T14:57:07Z</time>
      </trkpt>
      <trkpt lat="49.95631" lon="2.2982">
        <ele>76.8</ele>
        <time>2022-12-28T14:57:09Z</time>
      </trkpt>
      <trkpt lat="49.95632" lon="2.2982">
        <ele>76.8</ele>
        <time>2022-12-28T14:57:10Z</time>
      </trkpt>
      <trkpt lat="49.95633" lon="2.2982">
        <ele>76.8</ele>
        <time>2022-12-28T14:57:11Z</time>
      </trkpt>
      <trkpt lat="49.95634" lon="2.2982">
        <ele>76.8</ele>
        <time>2022-12-28T14:57:12Z</time>
      </trkpt>
      <trkpt lat="49.95635" lon="2.2982">
        <ele>76.8</ele>
        <time>2022-12-28T14:57:13Z</time>
      </trkpt>
      <trkpt lat="49.95636" lon="2.2982">
        <ele>76.9</ele>
        <time>2022-12-28T14:57:14Z</time>
      </trkpt>
      <trkpt lat="49.95638" lon="2.2982">
        <ele>76.9</ele>
        <time>2022-12-28T14:57:15Z</time>
      </trkpt>
      <trkpt lat="49.95639" lon="2.2982">
        <ele>76.9</ele>
        <time>2022-12-28T14:57:17Z</time>
      </trkpt>
      <trkpt lat="49.9564" lon="2.2982">
        <ele>76.9</ele>
        <time>2022-12-28T14:57:18Z</time>
      </trkpt>
      <trkpt lat="49.95641" lon="2.2982">
        <ele>76.9</ele>
        <time>2022-12-28T14:57:19Z</time>
      </trkpt>
      <trkpt lat="49.95643" lon="2.2982">
        <ele>76.9</ele>
        <time>2022-12-28T14:57:20Z</time>
      </trkpt>
      <trkpt lat="49.95643" lon="2.2982">
        <ele>76.9</ele>
        <time>2022-12-28T14:57:21Z</time>
      </trkpt>
      <trkpt lat="49.95644" lon="2.2982">
        <ele>77</ele>
        <time>2022-12-28T14:57:22Z</time>
      </trkpt>
      <trkpt lat="49.95645" lon="2.2982">
        <ele>77</ele>
        <time>2022-12-28T14:57:24Z</time>
      </trkpt>
      <trkpt lat="49.95647" lon="2.2982">
        <ele>77</ele>
        <time>2022-12-28T14:57:25Z</time>
      </trkpt>
      <trkpt lat="49.95648" lon="2.2982">
        <ele>77</ele>
        <time>2022-12-28T14:57:26Z</time>
      </trkpt>
      <trkpt lat="49.95649" lon="2.2982">
        <ele>77</ele>
        <time>2022-12-28T14:57:27Z</time>
      </trkpt>
      <trkpt lat="49.9565" lon="2.2982">
        <ele>77</ele>
        <time>2022-12-28T14:57:28Z</time>
      </trkpt>
      <trkpt lat="49.95651" lon="2.2982">
        <ele>77</ele>
        <time>2022-12-28T14:57:29Z</time>
      </trkpt>
      <trkpt lat="49.95652" lon="2.29821">
        <ele>77.1</ele>
        <time>2022-12-28T14:57:31Z</time>
      </trkpt>
      <trkpt lat="49.95653" lon="2.29821">
        <ele>77.1</ele>
        <time>2022-12-28T14:57:32Z</time>
      </trkpt>
      <trkpt lat="49.95654" lon="2.29821">
        <ele>77.1</ele>
        <time>2022-12-28T14:57:33Z</time>
      </trkpt>
      <trkpt lat="49.95655" lon="2.29821">
        <ele>77.1</ele>
        <time>2022-12-28T14:57:34Z</time>
      </trkpt>
      <trkpt lat="49.95656" lon="2.29821">
        <ele>77.1</ele>
        <time>2022-12-28T14:57:35Z</time>
      </trkpt>
      <trkpt lat="49.95658" lon="2.29821">
        <ele>77.1</ele>
        <time>2022-12-28T14:57:36Z</time>
      </trkpt>
      <trkpt lat="49.95659" lon="2.29821">
        <ele>77.2</ele>
        <time>2022-12-28T14:57:37Z</time>
      </trkpt>
      <trkpt lat="49.9566" lon="2.29821">
        <ele>77.2</ele>
        <time>2022-12-28T14:57:39Z</time>
      </trkpt>
      <trkpt lat="49.95661" lon="2.2982">
        <ele>77.2</ele>
        <time>2022-12-28T14:57:40Z</time>
      </trkpt>
      <trkpt lat="49.95662" lon="2.2982">
        <ele>77.2</ele>
        <time>2022-12-28T14:57:41Z</time>
      </trkpt>
      <trkpt lat="49.95663" lon="2.2982">
        <ele>77.2</ele>
        <time>2022-12-28T14:57:42Z</time>
      </trkpt>
      <trkpt lat="49.95664" lon="2.29819">
        <ele>77.2</ele>
        <time>2022-12-28T14:57:43Z</time>
      </trkpt>
      <trkpt lat="49.95665" lon="2.29819">
        <ele>77.3</ele>
        <time>2022-12-28T14:57:44Z</time>
      </trkpt>
      <trkpt lat="49.95667" lon="2.29819">
        <ele>77.3</ele>
        <time>2022-12-28T14:57:45Z</time>
      </trkpt>
      <trkpt lat="49.95667" lon="2.29819">
        <ele>77.3</ele>
        <time>2022-12-28T14:57:47Z</time>
      </trkpt>
      <trkpt lat="49.95668" lon="2.2982">
        <ele>77.3</ele>
        <time>2022-12-28T14:57:48Z</time>
      </trkpt>
      <trkpt lat="49.95669" lon="2.2982">
        <ele>77.3</ele>
        <time>2022-12-28T14:57:49Z</time>
      </trkpt>
      <trkpt lat="49.95669" lon="2.29821">
        <ele>77.3</ele>
        <time>2022-12-28T14:57:50Z</time>
      </trkpt>
      <trkpt lat="49.9567" lon="2.29822">
        <ele>77.4</ele>
        <time>2022-12-28T14:57:51Z</time>
      </trkpt>
      <trkpt lat="49.95671" lon="2.29822">
        <ele>77.4</ele>
        <time>2022-12-28T14:57:52Z</time>
      </trkpt>
      <trkpt lat="49.95672" lon="2.29823">
        <ele>77.4</ele>
        <time>2022-12-28T14:57:54Z</time>
      </trkpt>
      <trkpt lat="49.95673" lon="2.29823">
        <ele>77.4</ele>
        <time>2022-12-28T14:57:55Z</time>
      </trkpt>
      <trkpt lat="49.95674" lon="2.29824">
        <ele>77.4</ele>
        <time>2022-12-28T14:57:56Z</time>
      </trkpt>
      <trkpt lat="49.95675" lon="2.29824">
        <ele>77.4</ele>
        <time>2022-12-28T14:57:57Z</time>
      </trkpt>
      <trkpt lat="49.95675" lon="2.29824">
        <ele>77.5</ele>
        <time>2022-12-28T14:57:58Z</time>
      </trkpt>
      <trkpt lat="49.95676" lon="2.29825">
        <ele>77.5</ele>
        <time>2022-12-28T14:57:59Z</time>
      </trkpt>
      <trkpt lat="49.95678" lon="2.29825">
        <ele>77.5</ele>
        <time>2022-12-28T14:58:01Z</time>
      </trkpt>
      <trkpt lat="49.95679" lon="2.29825">
        <ele>77.5</ele>
        <time>2022-12-28T14:58:02Z</time>
      </trkpt>
      <trkpt lat="49.9568" lon="2.29826">
        <ele>77.5</ele>
        <time>2022-12-28T14:58:03Z</time>
      </trkpt>
      <trkpt lat="49.95681" lon="2.29826">
        <ele>77.5</ele>
        <time>2022-12-28T14:58:04Z</time>
      </trkpt>
      <trkpt lat="49.95682" lon="2.29826">
        <ele>77.6</ele>
        <time>2022-12-28T14:58:05Z</time>
      </trkpt>
      <trkpt lat="49.95683" lon="2.29827">
        <ele>77.6</ele>
        <time>2022-12-28T14:58:06Z</time>
      </trkpt>
      <trkpt lat="49.95684" lon="2.29827">
        <ele>77.6</ele>
        <time>2022-12-28T14:58:08Z</time>
      </trkpt>
      <trkpt lat="49.95685" lon="2.29828">
        <ele>77.6</ele>
        <time>2022-12-28T14:58:09Z</time>
      </trkpt>
      <trkpt lat="49.95686" lon="2.29828">
        <ele>77.6</ele>
        <time>2022-12-28T14:58:10Z</time>
      </trkpt>
      <trkpt lat="49.95687" lon="2.29829">
        <ele>77.6</ele>
        <time>2022-12-28T14:58:11Z</time>
      </trkpt>
      <trkpt lat="49.95688" lon="2.2983">
        <ele>77.7</ele>
        <time>2022-12-28T14:58:12Z</time>
      </trkpt>
      <trkpt lat="49.9569" lon="2.29831">
        <ele>77.7</ele>
        <time>2022-12-28T14:58:13Z</time>
      </trkpt>
      <trkpt lat="49.95691" lon="2.29831">
        <ele>77.7</ele>
        <time>2022-12-28T14:58:15Z</time>
      </trkpt>
      <trkpt lat="49.95692" lon="2.29831">
        <ele>77.7</ele>
        <time>2022-12-28T14:58:16Z</time>
      </trkpt>
      <trkpt lat="49.95692" lon="2.29832">
        <ele>77.7</ele>
        <time>2022-12-28T14:58:17Z</time>
      </trkpt>
      <trkpt lat="49.95693" lon="2.29832">
        <ele>77.7</ele>
        <time>2022-12-28T14:58:18Z</time>
      </trkpt>
      <trkpt lat="49.95695" lon="2.29832">
        <ele>77.8</ele>
        <time>2022-12-28T14:58:19Z</time>
      </trkpt>
      <trkpt lat="49.95696" lon="2.29832">
        <ele>77.8</ele>
        <time>2022-12-28T14:58:20Z</time>
      </trkpt>
      <trkpt lat="49.95697" lon="2.29832">
        <ele>77.8</ele>
        <time>2022-12-28T14:58:21Z</time>
      </trkpt>
      <trkpt lat="49.95698" lon="2.29832">
        <ele>77.8</ele>
        <time>2022-12-28T14:58:23Z</time>
      </trkpt>
      <trkpt lat="49.957" lon="2.29832">
        <ele>77.9</ele>
        <time>2022-12-28T14:58:24Z</time>
      </trkpt>
      <trkpt lat="49.95701" lon="2.29832">
        <ele>77.9</ele>
        <time>2022-12-28T14:58:25Z</time>
      </trkpt>
      <trkpt lat="49.95702" lon="2.29832">
        <ele>77.9</ele>
        <time>2022-12-28T14:58:26Z</time>
      </trkpt>
      <trkpt lat="49.95703" lon="2.29832">
        <ele>77.9</ele>
        <time>2022-12-28T14:58:27Z</time>
      </trkpt>
      <trkpt lat="49.95704" lon="2.29833">
        <ele>77.9</ele>
        <time>2022-12-28T14:58:28Z</time>
      </trkpt>
      <trkpt lat="49.95705" lon="2.29833">
        <ele>78</ele>
        <time>2022-12-28T14:58:30Z</time>
      </trkpt>
      <trkpt lat="49.95707" lon="2.29833">
        <ele>78</ele>
        <time>2022-12-28T14:58:31Z</time>
      </trkpt>
      <trkpt lat="49.95708" lon="2.29834">
        <ele>78</ele>
        <time>2022-12-28T14:58:32Z</time>
      </trkpt>
      <trkpt lat="49.95709" lon="2.29834">
        <ele>78</ele>
        <time>2022-12-28T14:58:33Z</time>
      </trkpt>
      <trkpt lat="49.9571" lon="2.29834">
        <ele>78.1</ele>
        <time>2022-12-28T14:58:34Z</time>
      </trkpt>
      <trkpt lat="49.95711" lon="2.29835">
        <ele>78.1</ele>
        <time>2022-12-28T14:58:35Z</time>
      </trkpt>
      <trkpt lat="49.95713" lon="2.29835">
        <ele>78.1</ele>
        <time>2022-12-28T14:58:36Z</time>
      </trkpt>
      <trkpt lat="49.95714" lon="2.29835">
        <ele>78.1</ele>
        <time>2022-12-28T14:58:38Z</time>
      </trkpt>
      <trkpt lat="49.95715" lon="2.29835">
        <ele>78.1</ele>
        <time>2022-12-28T14:58:39Z</time>
      </trkpt>
      <trkpt lat="49.95716" lon="2.29835">
        <ele>78.2</ele>
        <time>2022-12-28T14:58:40Z</time>
      </trkpt>
      <trkpt lat="49.95718" lon="2.29836">
        <ele>78.2</ele>
        <time>2022-12-28T14:58:41Z</time>
      </trkpt>
      <trkpt lat="49.95718" lon="2.29836">
        <ele>78.2</ele>
        <time>2022-12-28T14:58:42Z</time>
      </trkpt>
      <trkpt lat="49.95719" lon="2.29836">
        <ele>78.2</ele>
        <time>2022-12-28T14:58:43Z</time>
      </trkpt>
      <trkpt lat="49.95721" lon="2.29836">
        <ele>78.2</ele>
        <time>2022-12-28T14:58:44Z</time>
      </trkpt>
      <trkpt lat="49.95722" lon="2.29837">
        <ele>78.2</ele>
        <time>2022-12-28T14:58:46Z</time>
      </trkpt>
      <trkpt lat="49.95723" lon="2.29837">
        <ele>78.3</ele>
        <time>2022-12-28T14:58:47Z</time>
      </trkpt>
      <trkpt lat="49.95724" lon="2.29838">
        <ele>78.3</ele>
        <time>2022-12-28T14:58:48Z</time>
      </trkpt>
      <trkpt lat="49.95725" lon="2.29838">
        <ele>78.3</ele>
        <time>2022-12-28T14:58:49Z</time>
      </trkpt>
      <trkpt lat="49.95726" lon="2.29839">
        <ele>78.3</ele>
        <time>2022-12-28T14:58:50Z</time>
      </trkpt>
      <trkpt lat="49.95728" lon="2.29839">
        <ele>78.3</ele>
        <time>2022-12-28T14:58:51Z</time>
      </trkpt>
      <trkpt lat="49.95729" lon="2.29839">
        <ele>78.3</ele>
        <time>2022-12-28T14:58:52Z</time>
      </trkpt>
      <trkpt lat="49.95731" lon="2.2984">
        <ele>78.4</ele>
        <time>2022-12-28T14:58:53Z</time>
      </trkpt>
      <trkpt lat="49.95732" lon="2.2984">
        <ele>78.4</ele>
        <time>2022-12-28T14:58:55Z</time>
      </trkpt>
      <trkpt lat="49.95733" lon="2.29841">
        <ele>78.4</ele>
        <time>2022-12-28T14:58:56Z</time>
      </trkpt>
      <trkpt lat="49.95734" lon="2.29841">
        <ele>78.4</ele>
        <time>2022-12-28T14:58:57Z</time>
      </trkpt>
      <trkpt lat="49.95735" lon="2.29841">
        <ele>78.4</ele>
        <time>2022-12-28T14:58:58Z</time>
      </trkpt>
      <trkpt lat="49.95736" lon="2.29842">
        <ele>78.4</ele>
        <time>2022-12-28T14:58:59Z</time>
      </trkpt>
      <trkpt lat="49.95737" lon="2.29842">
        <ele>78.4</ele>
        <time>2022-12-28T14:59:00Z</time>
      </trkpt>
      <trkpt lat="49.95739" lon="2.29842">
        <ele>78.4</ele>
        <time>2022-12-28T14:59:01Z</time>
      </trkpt>
      <trkpt lat="49.95741" lon="2.29843">
        <ele>78.4</ele>
        <time>2022-12-28T14:59:02Z</time>
      </trkpt>
      <trkpt lat="49.95742" lon="2.29843">
        <ele>78.5</ele>
        <time>2022-12-28T14:59:04Z</time>
      </trkpt>
      <trkpt lat="49.95742" lon="2.29843">
        <ele>78.5</ele>
        <time>2022-12-28T14:59:05Z</time>
      </trkpt>
      <trkpt lat="49.95745" lon="2.29843">
        <ele>78.5</ele>
        <time>2022-12-28T14:59:06Z</time>
      </trkpt>
      <trkpt lat="49.95745" lon="2.29844">
        <ele>78.5</ele>
        <time>2022-12-28T14:59:07Z</time>
      </trkpt>
      <trkpt lat="49.95746" lon="2.29844">
        <ele>78.5</ele>
        <time>2022-12-28T14:59:08Z</time>
      </trkpt>
      <trkpt lat="49.95747" lon="2.29844">
        <ele>78.5</ele>
        <time>2022-12-28T14:59:09Z</time>
      </trkpt>
      <trkpt lat="49.95748" lon="2.29844">
        <ele>78.5</ele>
        <time>2022-12-28T14:59:10Z</time>
      </trkpt>
      <trkpt lat="49.9575" lon="2.29844">
        <ele>78.5</ele>
        <time>2022-12-28T14:59:12Z</time>
      </trkpt>
      <trkpt lat="49.95751" lon="2.29844">
        <ele>78.5</ele>
        <time>2022-12-28T14:59:13Z</time>
      </trkpt>
      <trkpt lat="49.95752" lon="2.29845">
        <ele>78.5</ele>
        <time>2022-12-28T14:59:14Z</time>
      </trkpt>
      <trkpt lat="49.95753" lon="2.29845">
        <ele>78.5</ele>
        <time>2022-12-28T14:59:15Z</time>
      </trkpt>
      <trkpt lat="49.95756" lon="2.29846">
        <ele>78.6</ele>
        <time>2022-12-28T14:59:16Z</time>
      </trkpt>
      <trkpt lat="49.95756" lon="2.29846">
        <ele>78.6</ele>
        <time>2022-12-28T14:59:17Z</time>
      </trkpt>
      <trkpt lat="49.95757" lon="2.29846">
        <ele>78.6</ele>
        <time>2022-12-28T14:59:18Z</time>
      </trkpt>
      <trkpt lat="49.95759" lon="2.29847">
        <ele>78.6</ele>
        <time>2022-12-28T14:59:20Z</time>
      </trkpt>
      <trkpt lat="49.9576" lon="2.29847">
        <ele>78.6</ele>
        <time>2022-12-28T14:59:21Z</time>
      </trkpt>
      <trkpt lat="49.95761" lon="2.29848">
        <ele>78.6</ele>
        <time>2022-12-28T14:59:22Z</time>
      </trkpt>
      <trkpt lat="49.95762" lon="2.29848">
        <ele>78.6</ele>
        <time>2022-12-28T14:59:23Z</time>
      </trkpt>
      <trkpt lat="49.95763" lon="2.29848">
        <ele>78.6</ele>
        <time>2022-12-28T14:59:24Z</time>
      </trkpt>
      <trkpt lat="49.95764" lon="2.29849">
        <ele>78.6</ele>
        <time>2022-12-28T14:59:25Z</time>
      </trkpt>
      <trkpt lat="49.95766" lon="2.29849">
        <ele>78.6</ele>
        <time>2022-12-28T14:59:26Z</time>
      </trkpt>
      <trkpt lat="49.95767" lon="2.29849">
        <ele>78.6</ele>
        <time>2022-12-28T14:59:27Z</time>
      </trkpt>
      <trkpt lat="49.9577" lon="2.29849">
        <ele>78.7</ele>
        <time>2022-12-28T14:59:29Z</time>
      </trkpt>
      <trkpt lat="49.9577" lon="2.2985">
        <ele>78.7</ele>
        <time>2022-12-28T14:59:30Z</time>
      </trkpt>
      <trkpt lat="49.95771" lon="2.2985">
        <ele>78.7</ele>
        <time>2022-12-28T14:59:31Z</time>
      </trkpt>
      <trkpt lat="49.95773" lon="2.2985">
        <ele>78.7</ele>
        <time>2022-12-28T14:59:32Z</time>
      </trkpt>
      <trkpt lat="49.95774" lon="2.2985">
        <ele>78.7</ele>
        <time>2022-12-28T14:59:33Z</time>
      </trkpt>
      <trkpt lat="49.95775" lon="2.2985">
        <ele>78.7</ele>
        <time>2022-12-28T14:59:34Z</time>
      </trkpt>
      <trkpt lat="49.95776" lon="2.2985">
        <ele>78.7</ele>
        <time>2022-12-28T14:59:35Z</time>
      </trkpt>
      <trkpt lat="49.95778" lon="2.2985">
        <ele>78.7</ele>
        <time>2022-12-28T14:59:36Z</time>
      </trkpt>
      <trkpt lat="49.95779" lon="2.2985">
        <ele>78.7</ele>
        <time>2022-12-28T14:59:38Z</time>
      </trkpt>
      <trkpt lat="49.9578" lon="2.29851">
        <ele>78.7</ele>
        <time>2022-12-28T14:59:39Z</time>
      </trkpt>
      <trkpt lat="49.95781" lon="2.29851">
        <ele>78.7</ele>
        <time>2022-12-28T14:59:40Z</time>
      </trkpt>
      <trkpt lat="49.95782" lon="2.29852">
        <ele>78.7</ele>
        <time>2022-12-28T14:59:41Z</time>
      </trkpt>
      <trkpt lat="49.95783" lon="2.29852">
        <ele>78.7</ele>
        <time>2022-12-28T14:59:42Z</time>
      </trkpt>
      <trkpt lat="49.95784" lon="2.29853">
        <ele>78.7</ele>
        <time>2022-12-28T14:59:43Z</time>
      </trkpt>
      <trkpt lat="49.95786" lon="2.29854">
        <ele>78.7</ele>
        <time>2022-12-28T14:59:44Z</time>
      </trkpt>
      <trkpt lat="49.95787" lon="2.29854">
        <ele>78.7</ele>
        <time>2022-12-28T14:59:46Z</time>
      </trkpt>
      <trkpt lat="49.95788" lon="2.29854">
        <ele>78.7</ele>
        <time>2022-12-28T14:59:47Z</time>
      </trkpt>
      <trkpt lat="49.95789" lon="2.29854">
        <ele>78.7</ele>
        <time>2022-12-28T14:59:48Z</time>
      </trkpt>
      <trkpt lat="49.9579" lon="2.29854">
        <ele>78.7</ele>
        <time>2022-12-28T14:59:49Z</time>
      </trkpt>
      <trkpt lat="49.95791" lon="2.29854">
        <ele>78.7</ele>
        <time>2022-12-28T14:59:50Z</time>
      </trkpt>
      <trkpt lat="49.95793" lon="2.29854">
        <ele>78.7</ele>
        <time>2022-12-28T14:59:51Z</time>
      </trkpt>
      <trkpt lat="49.95794" lon="2.29854">
        <ele>78.7</ele>
        <time>2022-12-28T14:59:53Z</time>
      </trkpt>
      <trkpt lat="49.95794" lon="2.29855">
        <ele>78.7</ele>
        <time>2022-12-28T14:59:54Z</time>
      </trkpt>
      <trkpt lat="49.95795" lon="2.29856">
        <ele>78.7</ele>
        <time>2022-12-28T14:59:55Z</time>
      </trkpt>
      <trkpt lat="49.95795" lon="2.29857">
        <ele>78.7</ele>
        <time>2022-12-28T14:59:56Z</time>
      </trkpt>
      <trkpt lat="49.95797" lon="2.29857">
        <ele>78.7</ele>
        <time>2022-12-28T14:59:57Z</time>
      </trkpt>
      <trkpt lat="49.95798" lon="2.29857">
        <ele>78.7</ele>
        <time>2022-12-28T14:59:59Z</time>
      </trkpt>
      <trkpt lat="49.95799" lon="2.29858">
        <ele>78.7</ele>
        <time>2022-12-28T15:00:00Z</time>
      </trkpt>
      <trkpt lat="49.958" lon="2.29858">
        <ele>78.6</ele>
        <time>2022-12-28T15:00:01Z</time>
      </trkpt>
      <trkpt lat="49.95802" lon="2.29858">
        <ele>78.6</ele>
        <time>2022-12-28T15:00:02Z</time>
      </trkpt>
      <trkpt lat="49.95803" lon="2.29859">
        <ele>78.6</ele>
        <time>2022-12-28T15:00:03Z</time>
      </trkpt>
      <trkpt lat="49.95804" lon="2.29859">
        <ele>78.6</ele>
        <time>2022-12-28T15:00:04Z</time>
      </trkpt>
      <trkpt lat="49.95805" lon="2.2986">
        <ele>78.6</ele>
        <time>2022-12-28T15:00:05Z</time>
      </trkpt>
      <trkpt lat="49.95807" lon="2.2986">
        <ele>78.6</ele>
        <time>2022-12-28T15:00:07Z</time>
      </trkpt>
      <trkpt lat="49.95808" lon="2.2986">
        <ele>78.6</ele>
        <time>2022-12-28T15:00:08Z</time>
      </trkpt>
      <trkpt lat="49.95809" lon="2.29861">
        <ele>78.6</ele>
        <time>2022-12-28T15:00:09Z</time>
      </trkpt>
      <trkpt lat="49.9581" lon="2.29861">
        <ele>78.6</ele>
        <time>2022-12-28T15:00:10Z</time>
      </trkpt>
      <trkpt lat="49.95811" lon="2.29861">
        <ele>78.6</ele>
        <time>2022-12-28T15:00:11Z</time>
      </trkpt>
      <trkpt lat="49.95813" lon="2.29862">
        <ele>78.6</ele>
        <time>2022-12-28T15:00:12Z</time>
      </trkpt>
      <trkpt lat="49.95815" lon="2.29862">
        <ele>78.6</ele>
        <time>2022-12-28T15:00:13Z</time>
      </trkpt>
      <trkpt lat="49.95816" lon="2.29862">
        <ele>78.6</ele>
        <time>2022-12-28T15:00:14Z</time>
      </trkpt>
      <trkpt lat="49.95817" lon="2.29862">
        <ele>78.6</ele>
        <time>2022-12-28T15:00:15Z</time>
      </trkpt>
      <trkpt lat="49.95819" lon="2.29863">
        <ele>78.6</ele>
        <time>2022-12-28T15:00:17Z</time>
      </trkpt>
      <trkpt lat="49.95819" lon="2.29863">
        <ele>78.6</ele>
        <time>2022-12-28T15:00:18Z</time>
      </trkpt>
      <trkpt lat="49.9582" lon="2.29863">
        <ele>78.6</ele>
        <time>2022-12-28T15:00:19Z</time>
      </trkpt>
      <trkpt lat="49.95821" lon="2.29863">
        <ele>78.6</ele>
        <time>2022-12-28T15:00:20Z</time>
      </trkpt>
      <trkpt lat="49.95823" lon="2.29863">
        <ele>78.6</ele>
        <time>2022-12-28T15:00:21Z</time>
      </trkpt>
      <trkpt lat="49.95824" lon="2.29863">
        <ele>78.6</ele>
        <time>2022-12-28T15:00:22Z</time>
      </trkpt>
      <trkpt lat="49.95825" lon="2.29863">
        <ele>78.6</ele>
        <time>2022-12-28T15:00:23Z</time>
      </trkpt>
      <trkpt lat="49.95826" lon="2.29863">
        <ele>78.6</ele>
        <time>2022-12-28T15:00:25Z</time>
      </trkpt>
      <trkpt lat="49.95827" lon="2.29864">
        <ele>78.6</ele>
        <time>2022-12-28T15:00:26Z</time>
      </trkpt>
      <trkpt lat="49.95828" lon="2.29864">
        <ele>78.6</ele>
        <time>2022-12-28T15:00:27Z</time>
      </trkpt>
      <trkpt lat="49.95829" lon="2.29864">
        <ele>78.6</ele>
        <time>2022-12-28T15:00:28Z</time>
      </trkpt>
      <trkpt lat="49.9583" lon="2.29865">
        <ele>78.6</ele>
        <time>2022-12-28T15:00:29Z</time>
      </trkpt>
      <trkpt lat="49.95832" lon="2.29865">
        <ele>78.6</ele>
        <time>2022-12-28T15:00:30Z</time>
      </trkpt>
      <trkpt lat="49.95833" lon="2.29865">
        <ele>78.6</ele>
        <time>2022-12-28T15:00:31Z</time>
      </trkpt>
      <trkpt lat="49.95834" lon="2.29866">
        <ele>78.6</ele>
        <time>2022-12-28T15:00:32Z</time>
      </trkpt>
      <trkpt lat="49.95835" lon="2.29866">
        <ele>78.6</ele>
        <time>2022-12-28T15:00:34Z</time>
      </trkpt>
      <trkpt lat="49.95837" lon="2.29866">
        <ele>78.6</ele>
        <time>2022-12-28T15:00:35Z</time>
      </trkpt>
      <trkpt lat="49.95839" lon="2.29866">
        <ele>78.5</ele>
        <time>2022-12-28T15:00:36Z</time>
      </trkpt>
      <trkpt lat="49.9584" lon="2.29866">
        <ele>78.5</ele>
        <time>2022-12-28T15:00:37Z</time>
      </trkpt>
      <trkpt lat="49.9584" lon="2.29866">
        <ele>78.5</ele>
        <time>2022-12-28T15:00:38Z</time>
      </trkpt>
      <trkpt lat="49.95843" lon="2.29866">
        <ele>78.5</ele>
        <time>2022-12-28T15:00:39Z</time>
      </trkpt>
      <trkpt lat="49.95844" lon="2.29866">
        <ele>78.5</ele>
        <time>2022-12-28T15:00:40Z</time>
      </trkpt>
      <trkpt lat="49.95845" lon="2.29866">
        <ele>78.5</ele>
        <time>2022-12-28T15:00:41Z</time>
      </trkpt>
      <trkpt lat="49.95845" lon="2.29866">
        <ele>78.5</ele>
        <time>2022-12-28T15:00:43Z</time>
      </trkpt>
      <trkpt lat="49.95846" lon="2.29867">
        <ele>78.5</ele>
        <time>2022-12-28T15:00:44Z</time>
      </trkpt>
      <trkpt lat="49.95847" lon="2.29867">
        <ele>78.5</ele>
        <time>2022-12-28T15:00:45Z</time>
      </trkpt>
      <trkpt lat="49.95848" lon="2.29867">
        <ele>78.5</ele>
        <time>2022-12-28T15:00:46Z</time>
      </trkpt>
      <trkpt lat="49.9585" lon="2.29868">
        <ele>78.5</ele>
        <time>2022-12-28T15:00:47Z</time>
      </trkpt>
      <trkpt lat="49.95851" lon="2.29868">
        <ele>78.5</ele>
        <time>2022-12-28T15:00:49Z</time>
      </trkpt>
      <trkpt lat="49.95853" lon="2.29869">
        <ele>78.5</ele>
        <time>2022-12-28T15:00:50Z</time>
      </trkpt>
      <trkpt lat="49.95854" lon="2.29869">
        <ele>78.5</ele>
        <time>2022-12-28T15:00:51Z</time>
      </trkpt>
      <trkpt lat="49.95855" lon="2.2987">
        <ele>78.5</ele>
        <time>2022-12-28T15:00:52Z</time>
      </trkpt>
      <trkpt lat="49.95856" lon="2.2987">
        <ele>78.4</ele>
        <time>2022-12-28T15:00:53Z</time>
      </trkpt>
      <trkpt lat="49.95857" lon="2.2987">
        <ele>78.4</ele>
        <time>2022-12-28T15:00:54Z</time>
      </trkpt>
      <trkpt lat="49.95858" lon="2.29871">
        <ele>78.4</ele>
        <time>2022-12-28T15:00:55Z</time>
      </trkpt>
      <trkpt lat="49.95859" lon="2.29871">
        <ele>78.4</ele>
        <time>2022-12-28T15:00:56Z</time>
      </trkpt>
      <trkpt lat="49.95862" lon="2.29871">
        <ele>78.4</ele>
        <time>2022-12-28T15:00:58Z</time>
      </trkpt>
      <trkpt lat="49.95863" lon="2.29871">
        <ele>78.4</ele>
        <time>2022-12-28T15:00:59Z</time>
      </trkpt>
      <trkpt lat="49.95864" lon="2.29872">
        <ele>78.4</ele>
        <time>2022-12-28T15:01:00Z</time>
      </trkpt>
      <trkpt lat="49.95865" lon="2.29872">
        <ele>78.4</ele>
        <time>2022-12-28T15:01:01Z</time>
      </trkpt>
      <trkpt lat="49.95868" lon="2.29873">
        <ele>78.4</ele>
        <time>2022-12-28T15:01:02Z</time>
      </trkpt>
      <trkpt lat="49.95869" lon="2.29873">
        <ele>78.4</ele>
        <time>2022-12-28T15:01:04Z</time>
      </trkpt>
      <trkpt lat="49.9587" lon="2.29873">
        <ele>78.4</ele>
        <time>2022-12-28T15:01:05Z</time>
      </trkpt>
      <trkpt lat="49.95871" lon="2.29873">
        <ele>78.4</ele>
        <time>2022-12-28T15:01:06Z</time>
      </trkpt>
      <trkpt lat="49.95872" lon="2.29873">
        <ele>78.4</ele>
        <time>2022-12-28T15:01:07Z</time>
      </trkpt>
      <trkpt lat="49.95872" lon="2.29873">
        <ele>78.4</ele>
        <time>2022-12-28T15:01:08Z</time>
      </trkpt>
      <trkpt lat="49.95873" lon="2.29873">
        <ele>78.3</ele>
        <time>2022-12-28T15:01:09Z</time>
      </trkpt>
      <trkpt lat="49.95875" lon="2.29873">
        <ele>78.3</ele>
        <time>2022-12-28T15:01:10Z</time>
      </trkpt>
      <trkpt lat="49.95876" lon="2.29873">
        <ele>78.3</ele>
        <time>2022-12-28T15:01:11Z</time>
      </trkpt>
      <trkpt lat="49.95878" lon="2.29874">
        <ele>78.3</ele>
        <time>2022-12-28T15:01:12Z</time>
      </trkpt>
      <trkpt lat="49.95879" lon="2.29874">
        <ele>78.3</ele>
        <time>2022-12-28T15:01:14Z</time>
      </trkpt>
      <trkpt lat="49.9588" lon="2.29874">
        <ele>78.3</ele>
        <time>2022-12-28T15:01:15Z</time>
      </trkpt>
      <trkpt lat="49.95881" lon="2.29874">
        <ele>78.3</ele>
        <time>2022-12-28T15:01:16Z</time>
      </trkpt>
      <trkpt lat="49.95883" lon="2.29874">
        <ele>78.3</ele>
        <time>2022-12-28T15:01:17Z</time>
      </trkpt>
      <trkpt lat="49.95884" lon="2.29874">
        <ele>78.3</ele>
        <time>2022-12-28T15:01:18Z</time>
      </trkpt>
      <trkpt lat="49.95886" lon="2.29874">
        <ele>78.3</ele>
        <time>2022-12-28T15:01:19Z</time>
      </trkpt>
      <trkpt lat="49.95887" lon="2.29874">
        <ele>78.3</ele>
        <time>2022-12-28T15:01:20Z</time>
      </trkpt>
      <trkpt lat="49.95887" lon="2.29874">
        <ele>78.2</ele>
        <time>2022-12-28T15:01:21Z</time>
      </trkpt>
      <trkpt lat="49.9589" lon="2.29874">
        <ele>78.2</ele>
        <time>2022-12-28T15:01:22Z</time>
      </trkpt>
      <trkpt lat="49.95892" lon="2.29874">
        <ele>78.2</ele>
        <time>2022-12-28T15:01:24Z</time>
      </trkpt>
      <trkpt lat="49.95893" lon="2.29874">
        <ele>78.2</ele>
        <time>2022-12-28T15:01:25Z</time>
      </trkpt>
      <trkpt lat="49.95894" lon="2.29874">
        <ele>78.2</ele>
        <time>2022-12-28T15:01:26Z</time>
      </trkpt>
      <trkpt lat="49.95895" lon="2.29874">
        <ele>78.2</ele>
        <time>2022-12-28T15:01:27Z</time>
      </trkpt>
      <trkpt lat="49.95896" lon="2.29874">
        <ele>78.2</ele>
        <time>2022-12-28T15:01:28Z</time>
      </trkpt>
      <trkpt lat="49.95897" lon="2.29874">
        <ele>78.2</ele>
        <time>2022-12-28T15:01:29Z</time>
      </trkpt>
      <trkpt lat="49.95898" lon="2.29874">
        <ele>78.1</ele>
        <time>2022-12-28T15:01:30Z</time>
      </trkpt>
      <trkpt lat="49.95899" lon="2.29874">
        <ele>78.1</ele>
        <time>2022-12-28T15:01:31Z</time>
      </trkpt>
      <trkpt lat="49.95901" lon="2.29874">
        <ele>78.1</ele>
        <time>2022-12-28T15:01:32Z</time>
      </trkpt>
      <trkpt lat="49.95902" lon="2.29874">
        <ele>78.1</ele>
        <time>2022-12-28T15:01:34Z</time>
      </trkpt>
      <trkpt lat="49.95903" lon="2.29874">
        <ele>78.1</ele>
        <time>2022-12-28T15:01:35Z</time>
      </trkpt>
      <trkpt lat="49.95904" lon="2.29873">
        <ele>78.1</ele>
        <time>2022-12-28T15:01:36Z</time>
      </trkpt>
      <trkpt lat="49.95906" lon="2.29873">
        <ele>78.1</ele>
        <time>2022-12-28T15:01:37Z</time>
      </trkpt>
      <trkpt lat="49.95907" lon="2.29874">
        <ele>78.1</ele>
        <time>2022-12-28T15:01:38Z</time>
      </trkpt>
      <trkpt lat="49.95909" lon="2.29874">
        <ele>78.1</ele>
        <time>2022-12-28T15:01:40Z</time>
      </trkpt>
      <trkpt lat="49.95911" lon="2.29874">
        <ele>78.1</ele>
        <time>2022-12-28T15:01:41Z</time>
      </trkpt>
      <trkpt lat="49.95912" lon="2.29874">
        <ele>78.1</ele>
        <time>2022-12-28T15:01:42Z</time>
      </trkpt>
      <trkpt lat="49.95913" lon="2.29874">
        <ele>78</ele>
        <time>2022-12-28T15:01:43Z</time>
      </trkpt>
      <trkpt lat="49.95916" lon="2.29874">
        <ele>78</ele>
        <time>2022-12-28T15:01:44Z</time>
      </trkpt>
      <trkpt lat="49.95916" lon="2.29874">
        <ele>78</ele>
        <time>2022-12-28T15:01:45Z</time>
      </trkpt>
      <trkpt lat="49.95917" lon="2.29874">
        <ele>78</ele>
        <time>2022-12-28T15:01:46Z</time>
      </trkpt>
      <trkpt lat="49.95918" lon="2.29874">
        <ele>78</ele>
        <time>2022-12-28T15:01:48Z</time>
      </trkpt>
      <trkpt lat="49.95919" lon="2.29874">
        <ele>78</ele>
        <time>2022-12-28T15:01:49Z</time>
      </trkpt>
      <trkpt lat="49.9592" lon="2.29874">
        <ele>78</ele>
        <time>2022-12-28T15:01:50Z</time>
      </trkpt>
      <trkpt lat="49.95921" lon="2.29873">
        <ele>78</ele>
        <time>2022-12-28T15:01:51Z</time>
      </trkpt>
      <trkpt lat="49.95922" lon="2.29873">
        <ele>78</ele>
        <time>2022-12-28T15:01:52Z</time>
      </trkpt>
      <trkpt lat="49.95924" lon="2.29872">
        <ele>78</ele>
        <time>2022-12-28T15:01:53Z</time>
      </trkpt>
      <trkpt lat="49.95925" lon="2.29872">
        <ele>78</ele>
        <time>2022-12-28T15:01:54Z</time>
      </trkpt>
      <trkpt lat="49.95926" lon="2.29871">
        <ele>78</ele>
        <time>2022-12-28T15:01:56Z</time>
      </trkpt>
      <trkpt lat="49.95927" lon="2.29871">
        <ele>78</ele>
        <time>2022-12-28T15:01:57Z</time>
      </trkpt>
      <trkpt lat="49.95927" lon="2.29871">
        <ele>78</ele>
        <time>2022-12-28T15:01:58Z</time>
      </trkpt>
      <trkpt lat="49.95928" lon="2.29871">
        <ele>78</ele>
        <time>2022-12-28T15:01:59Z</time>
      </trkpt>
      <trkpt lat="49.95929" lon="2.2987">
        <ele>78</ele>
        <time>2022-12-28T15:02:00Z</time>
      </trkpt>
      <trkpt lat="49.9593" lon="2.2987">
        <ele>78</ele>
        <time>2022-12-28T15:02:01Z</time>
      </trkpt>
      <trkpt lat="49.95931" lon="2.2987">
        <ele>78</ele>
        <time>2022-12-28T15:02:02Z</time>
      </trkpt>
      <trkpt lat="49.95932" lon="2.2987">
        <ele>78</ele>
        <time>2022-12-28T15:02:03Z</time>
      </trkpt>
      <trkpt lat="49.95933" lon="2.2987">
        <ele>78</ele>
        <time>2022-12-28T15:02:04Z</time>
      </trkpt>
      <trkpt lat="49.95935" lon="2.29869">
        <ele>78</ele>
        <time>2022-12-28T15:02:06Z</time>
      </trkpt>
      <trkpt lat="49.95936" lon="2.29869">
        <ele>78</ele>
        <time>2022-12-28T15:02:07Z</time>
      </trkpt>
      <trkpt lat="49.95937" lon="2.29869">
        <ele>78</ele>
        <time>2022-12-28T15:02:08Z</time>
      </trkpt>
      <trkpt lat="49.95938" lon="2.29869">
        <ele>78</ele>
        <time>2022-12-28T15:02:09Z</time>
      </trkpt>
      <trkpt lat="49.95939" lon="2.29868">
        <ele>78</ele>
        <time>2022-12-28T15:02:10Z</time>
      </trkpt>
      <trkpt lat="49.9594" lon="2.29868">
        <ele>78.1</ele>
        <time>2022-12-28T15:02:11Z</time>
      </trkpt>
      <trkpt lat="49.95941" lon="2.29868">
        <ele>78.1</ele>
        <time>2022-12-28T15:02:12Z</time>
      </trkpt>
      <trkpt lat="49.95942" lon="2.29868">
        <ele>78.1</ele>
        <time>2022-12-28T15:02:13Z</time>
      </trkpt>
      <trkpt lat="49.95943" lon="2.29868">
        <ele>78.1</ele>
        <time>2022-12-28T15:02:15Z</time>
      </trkpt>
      <trkpt lat="49.95944" lon="2.29867">
        <ele>78.1</ele>
        <time>2022-12-28T15:02:16Z</time>
      </trkpt>
      <trkpt lat="49.95945" lon="2.29867">
        <ele>78.1</ele>
        <time>2022-12-28T15:02:17Z</time>
      </trkpt>
      <trkpt lat="49.95946" lon="2.29866">
        <ele>78.1</ele>
        <time>2022-12-28T15:02:18Z</time>
      </trkpt>
      <trkpt lat="49.95947" lon="2.29866">
        <ele>78.1</ele>
        <time>2022-12-28T15:02:19Z</time>
      </trkpt>
      <trkpt lat="49.95948" lon="2.29866">
        <ele>78.1</ele>
        <time>2022-12-28T15:02:20Z</time>
      </trkpt>
      <trkpt lat="49.95949" lon="2.29866">
        <ele>78.1</ele>
        <time>2022-12-28T15:02:21Z</time>
      </trkpt>
      <trkpt lat="49.95951" lon="2.29867">
        <ele>78.1</ele>
        <time>2022-12-28T15:02:22Z</time>
      </trkpt>
      <trkpt lat="49.95952" lon="2.29867">
        <ele>78.1</ele>
        <time>2022-12-28T15:02:23Z</time>
      </trkpt>
      <trkpt lat="49.95953" lon="2.29867">
        <ele>78.2</ele>
        <time>2022-12-28T15:02:25Z</time>
      </trkpt>
      <trkpt lat="49.95954" lon="2.29868">
        <ele>78.2</ele>
        <time>2022-12-28T15:02:26Z</time>
      </trkpt>
      <trkpt lat="49.95955" lon="2.29868">
        <ele>78.2</ele>
        <time>2022-12-28T15:02:27Z</time>
      </trkpt>
      <trkpt lat="49.95956" lon="2.29868">
        <ele>78.2</ele>
        <time>2022-12-28T15:02:28Z</time>
      </trkpt>
      <trkpt lat="49.95957" lon="2.29868">
        <ele>78.2</ele>
        <time>2022-12-28T15:02:29Z</time>
      </trkpt>
      <trkpt lat="49.95958" lon="2.29868">
        <ele>78.2</ele>
        <time>2022-12-28T15:02:30Z</time>
      </trkpt>
      <trkpt lat="49.95959" lon="2.29868">
        <ele>78.2</ele>
        <time>2022-12-28T15:02:31Z</time>
      </trkpt>
      <trkpt lat="49.95961" lon="2.29869">
        <ele>78.2</ele>
        <time>2022-12-28T15:02:33Z</time>
      </trkpt>
      <trkpt lat="49.95962" lon="2.2987">
        <ele>78.2</ele>
        <time>2022-12-28T15:02:34Z</time>
      </trkpt>
      <trkpt lat="49.95963" lon="2.29872">
        <ele>78.2</ele>
        <time>2022-12-28T15:02:36Z</time>
      </trkpt>
      <trkpt lat="49.95962" lon="2.29873">
        <ele>78.2</ele>
        <time>2022-12-28T15:02:37Z</time>
      </trkpt>
      <trkpt lat="49.95961" lon="2.29875">
        <ele>78.2</ele>
        <time>2022-12-28T15:02:38Z</time>
      </trkpt>
      <trkpt lat="49.95961" lon="2.29876">
        <ele>78.2</ele>
        <time>2022-12-28T15:02:39Z</time>
      </trkpt>
      <trkpt lat="49.95959" lon="2.29878">
        <ele>78.2</ele>
        <time>2022-12-28T15:02:40Z</time>
      </trkpt>
      <trkpt lat="49.95958" lon="2.29879">
        <ele>78.2</ele>
        <time>2022-12-28T15:02:41Z</time>
      </trkpt>
      <trkpt lat="49.95955" lon="2.2988">
        <ele>78.2</ele>
        <time>2022-12-28T15:02:43Z</time>
      </trkpt>
      <trkpt lat="49.95954" lon="2.29882">
        <ele>78.2</ele>
        <time>2022-12-28T15:02:45Z</time>
      </trkpt>
      <trkpt lat="49.95954" lon="2.29883">
        <ele>78.2</ele>
        <time>2022-12-28T15:02:46Z</time>
      </trkpt>
      <trkpt lat="49.95954" lon="2.29884">
        <ele>78.2</ele>
        <time>2022-12-28T15:02:47Z</time>
      </trkpt>
      <trkpt lat="49.95955" lon="2.29885">
        <ele>78.2</ele>
        <time>2022-12-28T15:02:48Z</time>
      </trkpt>
      <trkpt lat="49.95956" lon="2.29885">
        <ele>78.2</ele>
        <time>2022-12-28T15:02:50Z</time>
      </trkpt>
      <trkpt lat="49.95957" lon="2.29886">
        <ele>78.2</ele>
        <time>2022-12-28T15:02:51Z</time>
      </trkpt>
      <trkpt lat="49.95957" lon="2.29887">
        <ele>78.2</ele>
        <time>2022-12-28T15:02:52Z</time>
      </trkpt>
      <trkpt lat="49.95957" lon="2.29888">
        <ele>78.2</ele>
        <time>2022-12-28T15:02:53Z</time>
      </trkpt>
      <trkpt lat="49.95957" lon="2.29888">
        <ele>78.2</ele>
        <time>2022-12-28T15:02:54Z</time>
      </trkpt>
      <trkpt lat="49.95958" lon="2.29888">
        <ele>78.2</ele>
        <time>2022-12-28T15:02:55Z</time>
      </trkpt>
      <trkpt lat="49.95958" lon="2.29888">
        <ele>78.2</ele>
        <time>2022-12-28T15:02:56Z</time>
      </trkpt>
      <trkpt lat="49.95959" lon="2.29888">
        <ele>78.2</ele>
        <time>2022-12-28T15:02:58Z</time>
      </trkpt>
      <trkpt lat="49.95959" lon="2.29889">
        <ele>78.2</ele>
        <time>2022-12-28T15:02:59Z</time>
      </trkpt>
      <trkpt lat="49.9596" lon="2.29889">
        <ele>78.2</ele>
        <time>2022-12-28T15:03:00Z</time>
      </trkpt>
      <trkpt lat="49.9596" lon="2.29889">
        <ele>78.2</ele>
        <time>2022-12-28T15:03:01Z</time>
      </trkpt>
      <trkpt lat="49.95961" lon="2.29887">
        <ele>78.2</ele>
        <time>2022-12-28T15:03:03Z</time>
      </trkpt>
      <trkpt lat="49.95961" lon="2.29886">
        <ele>78.2</ele>
        <time>2022-12-28T15:03:05Z</time>
      </trkpt>
      <trkpt lat="49.9596" lon="2.29885">
        <ele>78.2</ele>
        <time>2022-12-28T15:03:07Z</time>
      </trkpt>
      <trkpt lat="49.9596" lon="2.29885">
        <ele>78.2</ele>
        <time>2022-12-28T15:03:08Z</time>
      </trkpt>
      <trkpt lat="49.9596" lon="2.29884">
        <ele>78.2</ele>
        <time>2022-12-28T15:03:09Z</time>
      </trkpt>
      <trkpt lat="49.95961" lon="2.29884">
        <ele>78.2</ele>
        <time>2022-12-28T15:03:10Z</time>
      </trkpt>
      <trkpt lat="49.95961" lon="2.29885">
        <ele>78.2</ele>
        <time>2022-12-28T15:03:11Z</time>
      </trkpt>
      <trkpt lat="49.95961" lon="2.29886">
        <ele>78.2</ele>
        <time>2022-12-28T15:03:13Z</time>
      </trkpt>
      <trkpt lat="49.95961" lon="2.29887">
        <ele>78.2</ele>
        <time>2022-12-28T15:03:14Z</time>
      </trkpt>
      <trkpt lat="49.95961" lon="2.29889">
        <ele>78.2</ele>
        <time>2022-12-28T15:03:16Z</time>
      </trkpt>
      <trkpt lat="49.95962" lon="2.2989">
        <ele>78.2</ele>
        <time>2022-12-28T15:03:17Z</time>
      </trkpt>
      <trkpt lat="49.95961" lon="2.29891">
        <ele>78.2</ele>
        <time>2022-12-28T15:03:18Z</time>
      </trkpt>
      <trkpt lat="49.95961" lon="2.29892">
        <ele>78.2</ele>
        <time>2022-12-28T15:03:19Z</time>
      </trkpt>
      <trkpt lat="49.95962" lon="2.29893">
        <ele>78.2</ele>
        <time>2022-12-28T15:03:21Z</time>
      </trkpt>
      <trkpt lat="49.95962" lon="2.29894">
        <ele>78.2</ele>
        <time>2022-12-28T15:03:22Z</time>
      </trkpt>
      <trkpt lat="49.95961" lon="2.29895">
        <ele>78.2</ele>
        <time>2022-12-28T15:03:24Z</time>
      </trkpt>
      <trkpt lat="49.95961" lon="2.29895">
        <ele>78.2</ele>
        <time>2022-12-28T15:03:25Z</time>
      </trkpt>
      <trkpt lat="49.95961" lon="2.29895">
        <ele>78.2</ele>
        <time>2022-12-28T15:03:27Z</time>
      </trkpt>
      <trkpt lat="49.9596" lon="2.29894">
        <ele>78.2</ele>
        <time>2022-12-28T15:03:28Z</time>
      </trkpt>
      <trkpt lat="49.9596" lon="2.29894">
        <ele>78.2</ele>
        <time>2022-12-28T15:03:29Z</time>
      </trkpt>
      <trkpt lat="49.9596" lon="2.29894">
        <ele>78.2</ele>
        <time>2022-12-28T15:03:31Z</time>
      </trkpt>
      <trkpt lat="49.9596" lon="2.29894">
        <ele>78.2</ele>
        <time>2022-12-28T15:03:32Z</time>
      </trkpt>
      <trkpt lat="49.95959" lon="2.29893">
        <ele>78.2</ele>
        <time>2022-12-28T15:03:34Z</time>
      </trkpt>
      <trkpt lat="49.95959" lon="2.29893">
        <ele>78.2</ele>
        <time>2022-12-28T15:03:35Z</time>
      </trkpt>
      <trkpt lat="49.95959" lon="2.29893">
        <ele>78.2</ele>
        <time>2022-12-28T15:03:36Z</time>
      </trkpt>
      <trkpt lat="49.95959" lon="2.29893">
        <ele>78.2</ele>
        <time>2022-12-28T15:03:38Z</time>
      </trkpt>
      <trkpt lat="49.95959" lon="2.29893">
        <ele>78.2</ele>
        <time>2022-12-28T15:03:39Z</time>
      </trkpt>
      <trkpt lat="49.95959" lon="2.29893">
        <ele>78.2</ele>
        <time>2022-12-28T15:03:41Z</time>
      </trkpt>
      <trkpt lat="49.95959" lon="2.29892">
        <ele>78.2</ele>
        <time>2022-12-28T15:03:42Z</time>
      </trkpt>
      <trkpt lat="49.95959" lon="2.29892">
        <ele>78.2</ele>
        <time>2022-12-28T15:03:43Z</time>
      </trkpt>
      <trkpt lat="49.95959" lon="2.29892">
        <ele>78.2</ele>
        <time>2022-12-28T15:03:44Z</time>
      </trkpt>
      <trkpt lat="49.95959" lon="2.29892">
        <ele>78.2</ele>
        <time>2022-12-28T15:03:45Z</time>
      </trkpt>
      <trkpt lat="49.95959" lon="2.29892">
        <ele>78.2</ele>
        <time>2022-12-28T15:03:46Z</time>
      </trkpt>
      <trkpt lat="49.95959" lon="2.29892">
        <ele>78.2</ele>
        <time>2022-12-28T15:03:47Z</time>
      </trkpt>
      <trkpt lat="49.95959" lon="2.29892">
        <ele>78.2</ele>
        <time>2022-12-28T15:03:48Z</time>
      </trkpt>
      <trkpt lat="49.95959" lon="2.29892">
        <ele>78.2</ele>
        <time>2022-12-28T15:03:49Z</time>
      </trkpt>
      <trkpt lat="49.95959" lon="2.29892">
        <ele>78.2</ele>
        <time>2022-12-28T15:03:50Z</time>
      </trkpt>
      <trkpt lat="49.95959" lon="2.29892">
        <ele>78.2</ele>
        <time>2022-12-28T15:03:51Z</time>
      </trkpt>
      <trkpt lat="49.95959" lon="2.29892">
        <ele>78.2</ele>
        <time>2022-12-28T15:03:52Z</time>
      </trkpt>
      <trkpt lat="49.95959" lon="2.29892">
        <ele>78.2</ele>
        <time>2022-12-28T15:03:53Z</time>
      </trkpt>
      <trkpt lat="49.95959" lon="2.29892">
        <ele>78.2</ele>
        <time>2022-12-28T15:03:54Z</time>
      </trkpt>
      <trkpt lat="49.95959" lon="2.29892">
        <ele>78.2</ele>
        <time>2022-12-28T15:03:55Z</time>
      </trkpt>
      <trkpt lat="49.95959" lon="2.29892">
        <ele>78.2</ele>
        <time>2022-12-28T15:03:56Z</time>
      </trkpt>
      <trkpt lat="49.95959" lon="2.29892">
        <ele>78.2</ele>
        <time>2022-12-28T15:03:57Z</time>
      </trkpt>
      <trkpt lat="49.95959" lon="2.29892">
        <ele>78.2</ele>
        <time>2022-12-28T15:03:58Z</time>
      </trkpt>
      <trkpt lat="49.95959" lon="2.29892">
        <ele>78.2</ele>
        <time>2022-12-28T15:03:59Z</time>
      </trkpt>
      <trkpt lat="49.95959" lon="2.29892">
        <ele>78.2</ele>
        <time>2022-12-28T15:04:00Z</time>
      </trkpt>
      <trkpt lat="49.95959" lon="2.29892">
        <ele>78.2</ele>
        <time>2022-12-28T15:04:01Z</time>
      </trkpt>
      <trkpt lat="49.95959" lon="2.29892">
        <ele>78.2</ele>
        <time>2022-12-28T15:04:02Z</time>
      </trkpt>
      <trkpt lat="49.95959" lon="2.29892">
        <ele>78.2</ele>
        <time>2022-12-28T15:04:03Z</time>
      </trkpt>
      <trkpt lat="49.95959" lon="2.29892">
        <ele>78.2</ele>
        <time>2022-12-28T15:04:04Z</time>
      </trkpt>
      <trkpt lat="49.95959" lon="2.29892">
        <ele>78.2</ele>
        <time>2022-12-28T15:04:05Z</time>
      </trkpt>
      <trkpt lat="49.95959" lon="2.29892">
        <ele>78.2</ele>
        <time>2022-12-28T15:04:06Z</time>
      </trkpt>
      <trkpt lat="49.95959" lon="2.29892">
        <ele>78.2</ele>
        <time>2022-12-28T15:04:07Z</time>
      </trkpt>
      <trkpt lat="49.95959" lon="2.29892">
        <ele>78.2</ele>
        <time>2022-12-28T15:04:09Z</time>
      </trkpt>
      <trkpt lat="49.95959" lon="2.29892">
        <ele>78.2</ele>
        <time>2022-12-28T15:04:10Z</time>
      </trkpt>
      <trkpt lat="49.95959" lon="2.29892">
        <ele>78.2</ele>
        <time>2022-12-28T15:04:11Z</time>
      </trkpt>
      <trkpt lat="49.95959" lon="2.29892">
        <ele>78.2</ele>
        <time>2022-12-28T15:04:13Z</time>
      </trkpt>
      <trkpt lat="49.95959" lon="2.29892">
        <ele>78.2</ele>
        <time>2022-12-28T15:04:14Z</time>
      </trkpt>
      <trkpt lat="49.95959" lon="2.29892">
        <ele>78.2</ele>
        <time>2022-12-28T15:04:16Z</time>
      </trkpt>
      <trkpt lat="49.95959" lon="2.29891">
        <ele>78.2</ele>
        <time>2022-12-28T15:04:17Z</time>
      </trkpt>
      <trkpt lat="49.95959" lon="2.29891">
        <ele>78.2</ele>
        <time>2022-12-28T15:04:19Z</time>
      </trkpt>
      <trkpt lat="49.95959" lon="2.29892">
        <ele>78.2</ele>
        <time>2022-12-28T15:04:20Z</time>
      </trkpt>
      <trkpt lat="49.95959" lon="2.29892">
        <ele>78.2</ele>
        <time>2022-12-28T15:04:21Z</time>
      </trkpt>
      <trkpt lat="49.95959" lon="2.29892">
        <ele>78.2</ele>
        <time>2022-12-28T15:04:23Z</time>
      </trkpt>
      <trkpt lat="49.95959" lon="2.29892">
        <ele>78.2</ele>
        <time>2022-12-28T15:04:24Z</time>
      </trkpt>
      <trkpt lat="49.95959" lon="2.29892">
        <ele>78.2</ele>
        <time>2022-12-28T15:04:25Z</time>
      </trkpt>
      <trkpt lat="49.95959" lon="2.29892">
        <ele>78.2</ele>
        <time>2022-12-28T15:04:26Z</time>
      </trkpt>
      <trkpt lat="49.95959" lon="2.29892">
        <ele>78.2</ele>
        <time>2022-12-28T15:04:27Z</time>
      </trkpt>
      <trkpt lat="49.95959" lon="2.29892">
        <ele>78.2</ele>
        <time>2022-12-28T15:04:28Z</time>
      </trkpt>
      <trkpt lat="49.95959" lon="2.29892">
        <ele>78.2</ele>
        <time>2022-12-28T15:04:29Z</time>
      </trkpt>
      <trkpt lat="49.95959" lon="2.29892">
        <ele>78.2</ele>
        <time>2022-12-28T15:04:30Z</time>
      </trkpt>
      <trkpt lat="49.95959" lon="2.29892">
        <ele>78.2</ele>
        <time>2022-12-28T15:04:31Z</time>
      </trkpt>
      <trkpt lat="49.95959" lon="2.29892">
        <ele>78.2</ele>
        <time>2022-12-28T15:04:32Z</time>
      </trkpt>
      <trkpt lat="49.95959" lon="2.29892">
        <ele>78.2</ele>
        <time>2022-12-28T15:04:33Z</time>
      </trkpt>
      <trkpt lat="49.95959" lon="2.29892">
        <ele>78.2</ele>
        <time>2022-12-28T15:04:34Z</time>
      </trkpt>
      <trkpt lat="49.95958" lon="2.29892">
        <ele>78.2</ele>
        <time>2022-12-28T15:04:36Z</time>
      </trkpt>
      <trkpt lat="49.95958" lon="2.29893">
        <ele>78.2</ele>
        <time>2022-12-28T15:04:37Z</time>
      </trkpt>
      <trkpt lat="49.95958" lon="2.29893">
        <ele>78.2</ele>
        <time>2022-12-28T15:04:38Z</time>
      </trkpt>
      <trkpt lat="49.95958" lon="2.29894">
        <ele>78.2</ele>
        <time>2022-12-28T15:04:40Z</time>
      </trkpt>
      <trkpt lat="49.95958" lon="2.29894">
        <ele>78.2</ele>
        <time>2022-12-28T15:04:42Z</time>
      </trkpt>
      <trkpt lat="49.95957" lon="2.29894">
        <ele>78.2</ele>
        <time>2022-12-28T15:04:43Z</time>
      </trkpt>
      <trkpt lat="49.95957" lon="2.29894">
        <ele>78.2</ele>
        <time>2022-12-28T15:04:44Z</time>
      </trkpt>
      <trkpt lat="49.95957" lon="2.29894">
        <ele>78.2</ele>
        <time>2022-12-28T15:04:45Z</time>
      </trkpt>
      <trkpt lat="49.95957" lon="2.29893">
        <ele>78.2</ele>
        <time>2022-12-28T15:04:47Z</time>
      </trkpt>
      <trkpt lat="49.95957" lon="2.29893">
        <ele>78.2</ele>
        <time>2022-12-28T15:04:48Z</time>
      </trkpt>
      <trkpt lat="49.95956" lon="2.29892">
        <ele>78.2</ele>
        <time>2022-12-28T15:04:49Z</time>
      </trkpt>
      <trkpt lat="49.95956" lon="2.29892">
        <ele>78.2</ele>
        <time>2022-12-28T15:04:50Z</time>
      </trkpt>
      <trkpt lat="49.95956" lon="2.29892">
        <ele>78.2</ele>
        <time>2022-12-28T15:04:51Z</time>
      </trkpt>
      <trkpt lat="49.95956" lon="2.29893">
        <ele>78.2</ele>
        <time>2022-12-28T15:04:52Z</time>
      </trkpt>
      <trkpt lat="49.95955" lon="2.29893">
        <ele>78.2</ele>
        <time>2022-12-28T15:04:54Z</time>
      </trkpt>
      <trkpt lat="49.95955" lon="2.29893">
        <ele>78.2</ele>
        <time>2022-12-28T15:04:55Z</time>
      </trkpt>
      <trkpt lat="49.95955" lon="2.29893">
        <ele>78.2</ele>
        <time>2022-12-28T15:04:56Z</time>
      </trkpt>
      <trkpt lat="49.95955" lon="2.29893">
        <ele>78.2</ele>
        <time>2022-12-28T15:04:58Z</time>
      </trkpt>
      <trkpt lat="49.95955" lon="2.29892">
        <ele>78.2</ele>
        <time>2022-12-28T15:04:59Z</time>
      </trkpt>
      <trkpt lat="49.95956" lon="2.2989">
        <ele>78.2</ele>
        <time>2022-12-28T15:05:00Z</time>
      </trkpt>
      <trkpt lat="49.95956" lon="2.29889">
        <ele>78.2</ele>
        <time>2022-12-28T15:05:01Z</time>
      </trkpt>
      <trkpt lat="49.95957" lon="2.29888">
        <ele>78.2</ele>
        <time>2022-12-28T15:05:02Z</time>
      </trkpt>
      <trkpt lat="49.95957" lon="2.29888">
        <ele>78.2</ele>
        <time>2022-12-28T15:05:03Z</time>
      </trkpt>
      <trkpt lat="49.95958" lon="2.29887">
        <ele>78.2</ele>
        <time>2022-12-28T15:05:04Z</time>
      </trkpt>
      <trkpt lat="49.95958" lon="2.29887">
        <ele>78.2</ele>
        <time>2022-12-28T15:05:05Z</time>
      </trkpt>
      <trkpt lat="49.95958" lon="2.29886">
        <ele>78.2</ele>
        <time>2022-12-28T15:05:06Z</time>
      </trkpt>
      <trkpt lat="49.95959" lon="2.29884">
        <ele>78.2</ele>
        <time>2022-12-28T15:05:08Z</time>
      </trkpt>
      <trkpt lat="49.95959" lon="2.29883">
        <ele>78.2</ele>
        <time>2022-12-28T15:05:09Z</time>
      </trkpt>
      <trkpt lat="49.95959" lon="2.29882">
        <ele>78.2</ele>
        <time>2022-12-28T15:05:10Z</time>
      </trkpt>
      <trkpt lat="49.95959" lon="2.2988">
        <ele>78.2</ele>
        <time>2022-12-28T15:05:11Z</time>
      </trkpt>
      <trkpt lat="49.95959" lon="2.29877">
        <ele>78.2</ele>
        <time>2022-12-28T15:05:12Z</time>
      </trkpt>
      <trkpt lat="49.95959" lon="2.29875">
        <ele>78.2</ele>
        <time>2022-12-28T15:05:13Z</time>
      </trkpt>
      <trkpt lat="49.95958" lon="2.29872">
        <ele>78.2</ele>
        <time>2022-12-28T15:05:14Z</time>
      </trkpt>
      <trkpt lat="49.95957" lon="2.29871">
        <ele>78.2</ele>
        <time>2022-12-28T15:05:15Z</time>
      </trkpt>
      <trkpt lat="49.95956" lon="2.29868">
        <ele>78.2</ele>
        <time>2022-12-28T15:05:16Z</time>
      </trkpt>
      <trkpt lat="49.95956" lon="2.29866">
        <ele>78.2</ele>
        <time>2022-12-28T15:05:18Z</time>
      </trkpt>
      <trkpt lat="49.95956" lon="2.29865">
        <ele>78.2</ele>
        <time>2022-12-28T15:05:20Z</time>
      </trkpt>
      <trkpt lat="49.95956" lon="2.29864">
        <ele>78.2</ele>
        <time>2022-12-28T15:05:21Z</time>
      </trkpt>
      <trkpt lat="49.95956" lon="2.29864">
        <ele>78.2</ele>
        <time>2022-12-28T15:05:22Z</time>
      </trkpt>
      <trkpt lat="49.95956" lon="2.29863">
        <ele>78.2</ele>
        <time>2022-12-28T15:05:24Z</time>
      </trkpt>
      <trkpt lat="49.95956" lon="2.29862">
        <ele>78.2</ele>
        <time>2022-12-28T15:05:25Z</time>
      </trkpt>
      <trkpt lat="49.95956" lon="2.29861">
        <ele>78.2</ele>
        <time>2022-12-28T15:05:26Z</time>
      </trkpt>
      <trkpt lat="49.95956" lon="2.2986">
        <ele>78.2</ele>
        <time>2022-12-28T15:05:27Z</time>
      </trkpt>
      <trkpt lat="49.95957" lon="2.29858">
        <ele>78.2</ele>
        <time>2022-12-28T15:05:28Z</time>
      </trkpt>
      <trkpt lat="49.95957" lon="2.29856">
        <ele>78.3</ele>
        <time>2022-12-28T15:05:29Z</time>
      </trkpt>
      <trkpt lat="49.95958" lon="2.29855">
        <ele>78.3</ele>
        <time>2022-12-28T15:05:30Z</time>
      </trkpt>
      <trkpt lat="49.95958" lon="2.29854">
        <ele>78.3</ele>
        <time>2022-12-28T15:05:32Z</time>
      </trkpt>
      <trkpt lat="49.95958" lon="2.29853">
        <ele>78.3</ele>
        <time>2022-12-28T15:05:33Z</time>
      </trkpt>
      <trkpt lat="49.95958" lon="2.29853">
        <ele>78.3</ele>
        <time>2022-12-28T15:05:34Z</time>
      </trkpt>
      <trkpt lat="49.95958" lon="2.29855">
        <ele>78.3</ele>
        <time>2022-12-28T15:05:36Z</time>
      </trkpt>
      <trkpt lat="49.95958" lon="2.29855">
        <ele>78.3</ele>
        <time>2022-12-28T15:05:38Z</time>
      </trkpt>
      <trkpt lat="49.95958" lon="2.29855">
        <ele>78.3</ele>
        <time>2022-12-28T15:05:39Z</time>
      </trkpt>
      <trkpt lat="49.95958" lon="2.29855">
        <ele>78.3</ele>
        <time>2022-12-28T15:05:40Z</time>
      </trkpt>
      <trkpt lat="49.95958" lon="2.29855">
        <ele>78.3</ele>
        <time>2022-12-28T15:05:41Z</time>
      </trkpt>
      <trkpt lat="49.95958" lon="2.29856">
        <ele>78.3</ele>
        <time>2022-12-28T15:05:43Z</time>
      </trkpt>
      <trkpt lat="49.95958" lon="2.29856">
        <ele>78.3</ele>
        <time>2022-12-28T15:05:44Z</time>
      </trkpt>
      <trkpt lat="49.95959" lon="2.29857">
        <ele>78.3</ele>
        <time>2022-12-28T15:05:46Z</time>
      </trkpt>
      <trkpt lat="49.95959" lon="2.29857">
        <ele>78.3</ele>
        <time>2022-12-28T15:05:47Z</time>
      </trkpt>
      <trkpt lat="49.95959" lon="2.29857">
        <ele>78.3</ele>
        <time>2022-12-28T15:05:48Z</time>
      </trkpt>
      <trkpt lat="49.9596" lon="2.29857">
        <ele>78.3</ele>
        <time>2022-12-28T15:05:49Z</time>
      </trkpt>
      <trkpt lat="49.95961" lon="2.29856">
        <ele>78.4</ele>
        <time>2022-12-28T15:05:50Z</time>
      </trkpt>
      <trkpt lat="49.95961" lon="2.29856">
        <ele>78.4</ele>
        <time>2022-12-28T15:05:51Z</time>
      </trkpt>
      <trkpt lat="49.95962" lon="2.29856">
        <ele>78.4</ele>
        <time>2022-12-28T15:05:52Z</time>
      </trkpt>
      <trkpt lat="49.95963" lon="2.29855">
        <ele>78.4</ele>
        <time>2022-12-28T15:05:53Z</time>
      </trkpt>
      <trkpt lat="49.95964" lon="2.29855">
        <ele>78.4</ele>
        <time>2022-12-28T15:05:54Z</time>
      </trkpt>
      <trkpt lat="49.95965" lon="2.29855">
        <ele>78.4</ele>
        <time>2022-12-28T15:05:55Z</time>
      </trkpt>
      <trkpt lat="49.95966" lon="2.29855">
        <ele>78.4</ele>
        <time>2022-12-28T15:05:56Z</time>
      </trkpt>
      <trkpt lat="49.95967" lon="2.29854">
        <ele>78.4</ele>
        <time>2022-12-28T15:05:58Z</time>
      </trkpt>
      <trkpt lat="49.95968" lon="2.29854">
        <ele>78.4</ele>
        <time>2022-12-28T15:05:59Z</time>
      </trkpt>
      <trkpt lat="49.95968" lon="2.29854">
        <ele>78.5</ele>
        <time>2022-12-28T15:06:00Z</time>
      </trkpt>
      <trkpt lat="49.95969" lon="2.29854">
        <ele>78.5</ele>
        <time>2022-12-28T15:06:01Z</time>
      </trkpt>
      <trkpt lat="49.95969" lon="2.29853">
        <ele>78.5</ele>
        <time>2022-12-28T15:06:02Z</time>
      </trkpt>
      <trkpt lat="49.9597" lon="2.29854">
        <ele>78.5</ele>
        <time>2022-12-28T15:06:03Z</time>
      </trkpt>
      <trkpt lat="49.9597" lon="2.29854">
        <ele>78.5</ele>
        <time>2022-12-28T15:06:04Z</time>
      </trkpt>
      <trkpt lat="49.95971" lon="2.29853">
        <ele>78.5</ele>
        <time>2022-12-28T15:06:05Z</time>
      </trkpt>
      <trkpt lat="49.95972" lon="2.29853">
        <ele>78.5</ele>
        <time>2022-12-28T15:06:07Z</time>
      </trkpt>
      <trkpt lat="49.95973" lon="2.29853">
        <ele>78.5</ele>
        <time>2022-12-28T15:06:08Z</time>
      </trkpt>
      <trkpt lat="49.95974" lon="2.29852">
        <ele>78.5</ele>
        <time>2022-12-28T15:06:09Z</time>
      </trkpt>
      <trkpt lat="49.95975" lon="2.29852">
        <ele>78.5</ele>
        <time>2022-12-28T15:06:10Z</time>
      </trkpt>
      <trkpt lat="49.95976" lon="2.29852">
        <ele>78.6</ele>
        <time>2022-12-28T15:06:11Z</time>
      </trkpt>
      <trkpt lat="49.95976" lon="2.29852">
        <ele>78.6</ele>
        <time>2022-12-28T15:06:12Z</time>
      </trkpt>
      <trkpt lat="49.95977" lon="2.29852">
        <ele>78.6</ele>
        <time>2022-12-28T15:06:13Z</time>
      </trkpt>
      <trkpt lat="49.95978" lon="2.29852">
        <ele>78.6</ele>
        <time>2022-12-28T15:06:14Z</time>
      </trkpt>
      <trkpt lat="49.95981" lon="2.29851">
        <ele>78.6</ele>
        <time>2022-12-28T15:06:15Z</time>
      </trkpt>
      <trkpt lat="49.95982" lon="2.29851">
        <ele>78.6</ele>
        <time>2022-12-28T15:06:16Z</time>
      </trkpt>
      <trkpt lat="49.95982" lon="2.29851">
        <ele>78.6</ele>
        <time>2022-12-28T15:06:18Z</time>
      </trkpt>
      <trkpt lat="49.95983" lon="2.2985">
        <ele>78.6</ele>
        <time>2022-12-28T15:06:19Z</time>
      </trkpt>
      <trkpt lat="49.95984" lon="2.2985">
        <ele>78.6</ele>
        <time>2022-12-28T15:06:20Z</time>
      </trkpt>
      <trkpt lat="49.95985" lon="2.2985">
        <ele>78.7</ele>
        <time>2022-12-28T15:06:21Z</time>
      </trkpt>
      <trkpt lat="49.95987" lon="2.2985">
        <ele>78.7</ele>
        <time>2022-12-28T15:06:22Z</time>
      </trkpt>
      <trkpt lat="49.95988" lon="2.29849">
        <ele>78.7</ele>
        <time>2022-12-28T15:06:23Z</time>
      </trkpt>
      <trkpt lat="49.9599" lon="2.29848">
        <ele>78.7</ele>
        <time>2022-12-28T15:06:24Z</time>
      </trkpt>
      <trkpt lat="49.95991" lon="2.29848">
        <ele>78.7</ele>
        <time>2022-12-28T15:06:25Z</time>
      </trkpt>
      <trkpt lat="49.95992" lon="2.29847">
        <ele>78.7</ele>
        <time>2022-12-28T15:06:26Z</time>
      </trkpt>
      <trkpt lat="49.95994" lon="2.29847">
        <ele>78.7</ele>
        <time>2022-12-28T15:06:27Z</time>
      </trkpt>
      <trkpt lat="49.95995" lon="2.29846">
        <ele>78.8</ele>
        <time>2022-12-28T15:06:28Z</time>
      </trkpt>
      <trkpt lat="49.95996" lon="2.29846">
        <ele>78.8</ele>
        <time>2022-12-28T15:06:30Z</time>
      </trkpt>
      <trkpt lat="49.95997" lon="2.29846">
        <ele>78.8</ele>
        <time>2022-12-28T15:06:31Z</time>
      </trkpt>
      <trkpt lat="49.95998" lon="2.29846">
        <ele>78.8</ele>
        <time>2022-12-28T15:06:32Z</time>
      </trkpt>
      <trkpt lat="49.95999" lon="2.29846">
        <ele>78.8</ele>
        <time>2022-12-28T15:06:33Z</time>
      </trkpt>
      <trkpt lat="49.96" lon="2.29845">
        <ele>78.8</ele>
        <time>2022-12-28T15:06:34Z</time>
      </trkpt>
      <trkpt lat="49.96002" lon="2.29845">
        <ele>78.8</ele>
        <time>2022-12-28T15:06:35Z</time>
      </trkpt>
      <trkpt lat="49.96002" lon="2.29844">
        <ele>78.8</ele>
        <time>2022-12-28T15:06:37Z</time>
      </trkpt>
      <trkpt lat="49.96003" lon="2.29844">
        <ele>78.9</ele>
        <time>2022-12-28T15:06:38Z</time>
      </trkpt>
      <trkpt lat="49.96004" lon="2.29843">
        <ele>78.9</ele>
        <time>2022-12-28T15:06:39Z</time>
      </trkpt>
      <trkpt lat="49.96006" lon="2.29842">
        <ele>78.9</ele>
        <time>2022-12-28T15:06:40Z</time>
      </trkpt>
      <trkpt lat="49.96006" lon="2.29843">
        <ele>78.9</ele>
        <time>2022-12-28T15:06:41Z</time>
      </trkpt>
      <trkpt lat="49.96007" lon="2.29843">
        <ele>78.9</ele>
        <time>2022-12-28T15:06:42Z</time>
      </trkpt>
      <trkpt lat="49.96009" lon="2.29842">
        <ele>78.9</ele>
        <time>2022-12-28T15:06:43Z</time>
      </trkpt>
      <trkpt lat="49.9601" lon="2.29842">
        <ele>78.9</ele>
        <time>2022-12-28T15:06:44Z</time>
      </trkpt>
      <trkpt lat="49.96012" lon="2.29842">
        <ele>79</ele>
        <time>2022-12-28T15:06:46Z</time>
      </trkpt>
      <trkpt lat="49.96013" lon="2.29842">
        <ele>79</ele>
        <time>2022-12-28T15:06:47Z</time>
      </trkpt>
      <trkpt lat="49.96014" lon="2.29841">
        <ele>79</ele>
        <time>2022-12-28T15:06:48Z</time>
      </trkpt>
      <trkpt lat="49.96016" lon="2.29841">
        <ele>79</ele>
        <time>2022-12-28T15:06:49Z</time>
      </trkpt>
      <trkpt lat="49.96017" lon="2.2984">
        <ele>79</ele>
        <time>2022-12-28T15:06:50Z</time>
      </trkpt>
      <trkpt lat="49.9602" lon="2.29839">
        <ele>79.1</ele>
        <time>2022-12-28T15:06:52Z</time>
      </trkpt>
      <trkpt lat="49.96021" lon="2.29839">
        <ele>79.1</ele>
        <time>2022-12-28T15:06:53Z</time>
      </trkpt>
      <trkpt lat="49.96022" lon="2.29838">
        <ele>79.1</ele>
        <time>2022-12-28T15:06:54Z</time>
      </trkpt>
      <trkpt lat="49.96023" lon="2.29837">
        <ele>79.1</ele>
        <time>2022-12-28T15:06:55Z</time>
      </trkpt>
      <trkpt lat="49.96024" lon="2.29837">
        <ele>79.1</ele>
        <time>2022-12-28T15:06:56Z</time>
      </trkpt>
      <trkpt lat="49.96027" lon="2.29836">
        <ele>79.1</ele>
        <time>2022-12-28T15:06:57Z</time>
      </trkpt>
      <trkpt lat="49.96028" lon="2.29835">
        <ele>79.2</ele>
        <time>2022-12-28T15:06:58Z</time>
      </trkpt>
      <trkpt lat="49.9603" lon="2.29834">
        <ele>79.2</ele>
        <time>2022-12-28T15:06:59Z</time>
      </trkpt>
      <trkpt lat="49.96032" lon="2.29834">
        <ele>79.2</ele>
        <time>2022-12-28T15:07:01Z</time>
      </trkpt>
      <trkpt lat="49.96035" lon="2.29834">
        <ele>79.2</ele>
        <time>2022-12-28T15:07:02Z</time>
      </trkpt>
      <trkpt lat="49.96036" lon="2.29834">
        <ele>79.3</ele>
        <time>2022-12-28T15:07:03Z</time>
      </trkpt>
      <trkpt lat="49.96037" lon="2.29834">
        <ele>79.3</ele>
        <time>2022-12-28T15:07:04Z</time>
      </trkpt>
      <trkpt lat="49.96039" lon="2.29834">
        <ele>79.3</ele>
        <time>2022-12-28T15:07:05Z</time>
      </trkpt>
      <trkpt lat="49.9604" lon="2.29834">
        <ele>79.3</ele>
        <time>2022-12-28T15:07:06Z</time>
      </trkpt>
      <trkpt lat="49.96042" lon="2.29833">
        <ele>79.3</ele>
        <time>2022-12-28T15:07:07Z</time>
      </trkpt>
      <trkpt lat="49.96044" lon="2.29833">
        <ele>79.3</ele>
        <time>2022-12-28T15:07:08Z</time>
      </trkpt>
      <trkpt lat="49.96045" lon="2.29832">
        <ele>79.3</ele>
        <time>2022-12-28T15:07:09Z</time>
      </trkpt>
      <trkpt lat="49.96047" lon="2.29831">
        <ele>79.4</ele>
        <time>2022-12-28T15:07:11Z</time>
      </trkpt>
      <trkpt lat="49.96048" lon="2.29831">
        <ele>79.4</ele>
        <time>2022-12-28T15:07:12Z</time>
      </trkpt>
      <trkpt lat="49.96049" lon="2.29831">
        <ele>79.4</ele>
        <time>2022-12-28T15:07:13Z</time>
      </trkpt>
      <trkpt lat="49.9605" lon="2.2983">
        <ele>79.4</ele>
        <time>2022-12-28T15:07:14Z</time>
      </trkpt>
      <trkpt lat="49.96051" lon="2.2983">
        <ele>79.4</ele>
        <time>2022-12-28T15:07:15Z</time>
      </trkpt>
      <trkpt lat="49.96054" lon="2.29829">
        <ele>79.5</ele>
        <time>2022-12-28T15:07:16Z</time>
      </trkpt>
      <trkpt lat="49.96054" lon="2.29828">
        <ele>79.5</ele>
        <time>2022-12-28T15:07:17Z</time>
      </trkpt>
      <trkpt lat="49.96055" lon="2.29828">
        <ele>79.5</ele>
        <time>2022-12-28T15:07:18Z</time>
      </trkpt>
      <trkpt lat="49.96056" lon="2.29828">
        <ele>79.5</ele>
        <time>2022-12-28T15:07:19Z</time>
      </trkpt>
      <trkpt lat="49.96058" lon="2.29827">
        <ele>79.5</ele>
        <time>2022-12-28T15:07:20Z</time>
      </trkpt>
      <trkpt lat="49.96059" lon="2.29827">
        <ele>79.5</ele>
        <time>2022-12-28T15:07:22Z</time>
      </trkpt>
      <trkpt lat="49.9606" lon="2.29826">
        <ele>79.6</ele>
        <time>2022-12-28T15:07:23Z</time>
      </trkpt>
      <trkpt lat="49.96062" lon="2.29825">
        <ele>79.6</ele>
        <time>2022-12-28T15:07:24Z</time>
      </trkpt>
      <trkpt lat="49.96064" lon="2.29824">
        <ele>79.6</ele>
        <time>2022-12-28T15:07:25Z</time>
      </trkpt>
      <trkpt lat="49.96065" lon="2.29823">
        <ele>79.6</ele>
        <time>2022-12-28T15:07:26Z</time>
      </trkpt>
      <trkpt lat="49.96066" lon="2.29823">
        <ele>79.6</ele>
        <time>2022-12-28T15:07:27Z</time>
      </trkpt>
      <trkpt lat="49.96067" lon="2.29822">
        <ele>79.7</ele>
        <time>2022-12-28T15:07:28Z</time>
      </trkpt>
      <trkpt lat="49.96068" lon="2.29821">
        <ele>79.7</ele>
        <time>2022-12-28T15:07:29Z</time>
      </trkpt>
      <trkpt lat="49.96069" lon="2.29821">
        <ele>79.7</ele>
        <time>2022-12-28T15:07:30Z</time>
      </trkpt>
      <trkpt lat="49.9607" lon="2.29821">
        <ele>79.7</ele>
        <time>2022-12-28T15:07:31Z</time>
      </trkpt>
      <trkpt lat="49.96072" lon="2.29821">
        <ele>79.7</ele>
        <time>2022-12-28T15:07:32Z</time>
      </trkpt>
      <trkpt lat="49.96074" lon="2.29821">
        <ele>79.8</ele>
        <time>2022-12-28T15:07:33Z</time>
      </trkpt>
      <trkpt lat="49.96075" lon="2.29821">
        <ele>79.8</ele>
        <time>2022-12-28T15:07:35Z</time>
      </trkpt>
      <trkpt lat="49.96076" lon="2.29821">
        <ele>79.8</ele>
        <time>2022-12-28T15:07:36Z</time>
      </trkpt>
      <trkpt lat="49.96077" lon="2.29821">
        <ele>79.8</ele>
        <time>2022-12-28T15:07:37Z</time>
      </trkpt>
      <trkpt lat="49.96078" lon="2.29821">
        <ele>79.8</ele>
        <time>2022-12-28T15:07:38Z</time>
      </trkpt>
      <trkpt lat="49.9608" lon="2.2982">
        <ele>79.8</ele>
        <time>2022-12-28T15:07:39Z</time>
      </trkpt>
      <trkpt lat="49.96081" lon="2.2982">
        <ele>79.9</ele>
        <time>2022-12-28T15:07:40Z</time>
      </trkpt>
      <trkpt lat="49.96083" lon="2.2982">
        <ele>79.9</ele>
        <time>2022-12-28T15:07:41Z</time>
      </trkpt>
      <trkpt lat="49.96084" lon="2.2982">
        <ele>79.9</ele>
        <time>2022-12-28T15:07:42Z</time>
      </trkpt>
      <trkpt lat="49.96085" lon="2.2982">
        <ele>79.9</ele>
        <time>2022-12-28T15:07:43Z</time>
      </trkpt>
      <trkpt lat="49.96086" lon="2.2982">
        <ele>79.9</ele>
        <time>2022-12-28T15:07:44Z</time>
      </trkpt>
      <trkpt lat="49.96087" lon="2.29819">
        <ele>80</ele>
        <time>2022-12-28T15:07:46Z</time>
      </trkpt>
      <trkpt lat="49.96088" lon="2.29819">
        <ele>80</ele>
        <time>2022-12-28T15:07:47Z</time>
      </trkpt>
      <trkpt lat="49.96089" lon="2.29818">
        <ele>80</ele>
        <time>2022-12-28T15:07:48Z</time>
      </trkpt>
      <trkpt lat="49.96091" lon="2.29818">
        <ele>80</ele>
        <time>2022-12-28T15:07:49Z</time>
      </trkpt>
      <trkpt lat="49.96092" lon="2.29818">
        <ele>80</ele>
        <time>2022-12-28T15:07:50Z</time>
      </trkpt>
      <trkpt lat="49.96094" lon="2.29818">
        <ele>80.1</ele>
        <time>2022-12-28T15:07:52Z</time>
      </trkpt>
      <trkpt lat="49.96095" lon="2.29818">
        <ele>80.1</ele>
        <time>2022-12-28T15:07:53Z</time>
      </trkpt>
      <trkpt lat="49.96096" lon="2.29817">
        <ele>80.1</ele>
        <time>2022-12-28T15:07:54Z</time>
      </trkpt>
      <trkpt lat="49.96097" lon="2.29817">
        <ele>80.2</ele>
        <time>2022-12-28T15:07:55Z</time>
      </trkpt>
      <trkpt lat="49.961" lon="2.29817">
        <ele>80.2</ele>
        <time>2022-12-28T15:07:56Z</time>
      </trkpt>
      <trkpt lat="49.96101" lon="2.29816">
        <ele>80.2</ele>
        <time>2022-12-28T15:07:57Z</time>
      </trkpt>
      <trkpt lat="49.96102" lon="2.29816">
        <ele>80.2</ele>
        <time>2022-12-28T15:07:58Z</time>
      </trkpt>
      <trkpt lat="49.96103" lon="2.29816">
        <ele>80.3</ele>
        <time>2022-12-28T15:07:59Z</time>
      </trkpt>
      <trkpt lat="49.96104" lon="2.29816">
        <ele>80.3</ele>
        <time>2022-12-28T15:08:00Z</time>
      </trkpt>
      <trkpt lat="49.96106" lon="2.29815">
        <ele>80.4</ele>
        <time>2022-12-28T15:08:02Z</time>
      </trkpt>
      <trkpt lat="49.96107" lon="2.29815">
        <ele>80.4</ele>
        <time>2022-12-28T15:08:03Z</time>
      </trkpt>
      <trkpt lat="49.96108" lon="2.29815">
        <ele>80.4</ele>
        <time>2022-12-28T15:08:04Z</time>
      </trkpt>
      <trkpt lat="49.96109" lon="2.29815">
        <ele>80.4</ele>
        <time>2022-12-28T15:08:05Z</time>
      </trkpt>
      <trkpt lat="49.9611" lon="2.29814">
        <ele>80.5</ele>
        <time>2022-12-28T15:08:06Z</time>
      </trkpt>
      <trkpt lat="49.96112" lon="2.29814">
        <ele>80.5</ele>
        <time>2022-12-28T15:08:08Z</time>
      </trkpt>
      <trkpt lat="49.96114" lon="2.29814">
        <ele>80.5</ele>
        <time>2022-12-28T15:08:09Z</time>
      </trkpt>
      <trkpt lat="49.96115" lon="2.29813">
        <ele>80.6</ele>
        <time>2022-12-28T15:08:10Z</time>
      </trkpt>
      <trkpt lat="49.96117" lon="2.29813">
        <ele>80.6</ele>
        <time>2022-12-28T15:08:11Z</time>
      </trkpt>
      <trkpt lat="49.96118" lon="2.29812">
        <ele>80.6</ele>
        <time>2022-12-28T15:08:12Z</time>
      </trkpt>
      <trkpt lat="49.96119" lon="2.29812">
        <ele>80.7</ele>
        <time>2022-12-28T15:08:13Z</time>
      </trkpt>
      <trkpt lat="49.96119" lon="2.29812">
        <ele>80.7</ele>
        <time>2022-12-28T15:08:14Z</time>
      </trkpt>
      <trkpt lat="49.9612" lon="2.29812">
        <ele>80.7</ele>
        <time>2022-12-28T15:08:16Z</time>
      </trkpt>
      <trkpt lat="49.96121" lon="2.29812">
        <ele>80.7</ele>
        <time>2022-12-28T15:08:17Z</time>
      </trkpt>
      <trkpt lat="49.96123" lon="2.29812">
        <ele>80.8</ele>
        <time>2022-12-28T15:08:18Z</time>
      </trkpt>
      <trkpt lat="49.96125" lon="2.29812">
        <ele>80.8</ele>
        <time>2022-12-28T15:08:19Z</time>
      </trkpt>
      <trkpt lat="49.96125" lon="2.29812">
        <ele>80.8</ele>
        <time>2022-12-28T15:08:20Z</time>
      </trkpt>
      <trkpt lat="49.96126" lon="2.29812">
        <ele>80.8</ele>
        <time>2022-12-28T15:08:21Z</time>
      </trkpt>
      <trkpt lat="49.96127" lon="2.29812">
        <ele>80.9</ele>
        <time>2022-12-28T15:08:22Z</time>
      </trkpt>
      <trkpt lat="49.96128" lon="2.29811">
        <ele>80.9</ele>
        <time>2022-12-28T15:08:23Z</time>
      </trkpt>
      <trkpt lat="49.9613" lon="2.2981">
        <ele>81</ele>
        <time>2022-12-28T15:08:24Z</time>
      </trkpt>
      <trkpt lat="49.96131" lon="2.2981">
        <ele>81</ele>
        <time>2022-12-28T15:08:26Z</time>
      </trkpt>
      <trkpt lat="49.96133" lon="2.2981">
        <ele>81</ele>
        <time>2022-12-28T15:08:27Z</time>
      </trkpt>
      <trkpt lat="49.96134" lon="2.2981">
        <ele>81</ele>
        <time>2022-12-28T15:08:28Z</time>
      </trkpt>
      <trkpt lat="49.96135" lon="2.29809">
        <ele>81.1</ele>
        <time>2022-12-28T15:08:29Z</time>
      </trkpt>
      <trkpt lat="49.96136" lon="2.29809">
        <ele>81.1</ele>
        <time>2022-12-28T15:08:30Z</time>
      </trkpt>
      <trkpt lat="49.96137" lon="2.29809">
        <ele>81.1</ele>
        <time>2022-12-28T15:08:31Z</time>
      </trkpt>
      <trkpt lat="49.96138" lon="2.29809">
        <ele>81.1</ele>
        <time>2022-12-28T15:08:32Z</time>
      </trkpt>
      <trkpt lat="49.96138" lon="2.29809">
        <ele>81.2</ele>
        <time>2022-12-28T15:08:33Z</time>
      </trkpt>
      <trkpt lat="49.96139" lon="2.29809">
        <ele>81.2</ele>
        <time>2022-12-28T15:08:35Z</time>
      </trkpt>
      <trkpt lat="49.9614" lon="2.2981">
        <ele>81.2</ele>
        <time>2022-12-28T15:08:36Z</time>
      </trkpt>
      <trkpt lat="49.96141" lon="2.2981">
        <ele>81.2</ele>
        <time>2022-12-28T15:08:37Z</time>
      </trkpt>
      <trkpt lat="49.96143" lon="2.2981">
        <ele>81.3</ele>
        <time>2022-12-28T15:08:38Z</time>
      </trkpt>
      <trkpt lat="49.96144" lon="2.29809">
        <ele>81.3</ele>
        <time>2022-12-28T15:08:39Z</time>
      </trkpt>
      <trkpt lat="49.96145" lon="2.29809">
        <ele>81.3</ele>
        <time>2022-12-28T15:08:40Z</time>
      </trkpt>
      <trkpt lat="49.96146" lon="2.29809">
        <ele>81.3</ele>
        <time>2022-12-28T15:08:41Z</time>
      </trkpt>
      <trkpt lat="49.96148" lon="2.29809">
        <ele>81.4</ele>
        <time>2022-12-28T15:08:42Z</time>
      </trkpt>
      <trkpt lat="49.96149" lon="2.29808">
        <ele>81.4</ele>
        <time>2022-12-28T15:08:44Z</time>
      </trkpt>
      <trkpt lat="49.9615" lon="2.29808">
        <ele>81.4</ele>
        <time>2022-12-28T15:08:45Z</time>
      </trkpt>
      <trkpt lat="49.96152" lon="2.29808">
        <ele>81.5</ele>
        <time>2022-12-28T15:08:46Z</time>
      </trkpt>
      <trkpt lat="49.96153" lon="2.29808">
        <ele>81.5</ele>
        <time>2022-12-28T15:08:47Z</time>
      </trkpt>
      <trkpt lat="49.96154" lon="2.29808">
        <ele>81.5</ele>
        <time>2022-12-28T15:08:48Z</time>
      </trkpt>
      <trkpt lat="49.96155" lon="2.29808">
        <ele>81.5</ele>
        <time>2022-12-28T15:08:49Z</time>
      </trkpt>
      <trkpt lat="49.96156" lon="2.29807">
        <ele>81.5</ele>
        <time>2022-12-28T15:08:50Z</time>
      </trkpt>
      <trkpt lat="49.96157" lon="2.29807">
        <ele>81.6</ele>
        <time>2022-12-28T15:08:51Z</time>
      </trkpt>
      <trkpt lat="49.96159" lon="2.29807">
        <ele>81.6</ele>
        <time>2022-12-28T15:08:53Z</time>
      </trkpt>
      <trkpt lat="49.9616" lon="2.29806">
        <ele>81.6</ele>
        <time>2022-12-28T15:08:54Z</time>
      </trkpt>
      <trkpt lat="49.96161" lon="2.29806">
        <ele>81.6</ele>
        <time>2022-12-28T15:08:55Z</time>
      </trkpt>
      <trkpt lat="49.96162" lon="2.29805">
        <ele>81.7</ele>
        <time>2022-12-28T15:08:56Z</time>
      </trkpt>
      <trkpt lat="49.96164" lon="2.29805">
        <ele>81.7</ele>
        <time>2022-12-28T15:08:57Z</time>
      </trkpt>
      <trkpt lat="49.96165" lon="2.29804">
        <ele>81.7</ele>
        <time>2022-12-28T15:08:58Z</time>
      </trkpt>
      <trkpt lat="49.96166" lon="2.29804">
        <ele>81.7</ele>
        <time>2022-12-28T15:08:59Z</time>
      </trkpt>
      <trkpt lat="49.96167" lon="2.29803">
        <ele>81.7</ele>
        <time>2022-12-28T15:09:00Z</time>
      </trkpt>
      <trkpt lat="49.96169" lon="2.29803">
        <ele>81.8</ele>
        <time>2022-12-28T15:09:02Z</time>
      </trkpt>
      <trkpt lat="49.9617" lon="2.29803">
        <ele>81.8</ele>
        <time>2022-12-28T15:09:03Z</time>
      </trkpt>
      <trkpt lat="49.96171" lon="2.29803">
        <ele>81.8</ele>
        <time>2022-12-28T15:09:04Z</time>
      </trkpt>
      <trkpt lat="49.96172" lon="2.29803">
        <ele>81.8</ele>
        <time>2022-12-28T15:09:05Z</time>
      </trkpt>
      <trkpt lat="49.96173" lon="2.29803">
        <ele>81.8</ele>
        <time>2022-12-28T15:09:06Z</time>
      </trkpt>
      <trkpt lat="49.96175" lon="2.29803">
        <ele>81.8</ele>
        <time>2022-12-28T15:09:07Z</time>
      </trkpt>
      <trkpt lat="49.96176" lon="2.29804">
        <ele>81.9</ele>
        <time>2022-12-28T15:09:08Z</time>
      </trkpt>
      <trkpt lat="49.96177" lon="2.29804">
        <ele>81.9</ele>
        <time>2022-12-28T15:09:09Z</time>
      </trkpt>
      <trkpt lat="49.96178" lon="2.29804">
        <ele>81.9</ele>
        <time>2022-12-28T15:09:11Z</time>
      </trkpt>
      <trkpt lat="49.96181" lon="2.29805">
        <ele>81.9</ele>
        <time>2022-12-28T15:09:12Z</time>
      </trkpt>
      <trkpt lat="49.96182" lon="2.29805">
        <ele>82</ele>
        <time>2022-12-28T15:09:13Z</time>
      </trkpt>
      <trkpt lat="49.96183" lon="2.29805">
        <ele>82</ele>
        <time>2022-12-28T15:09:14Z</time>
      </trkpt>
      <trkpt lat="49.96184" lon="2.29806">
        <ele>82</ele>
        <time>2022-12-28T15:09:15Z</time>
      </trkpt>
      <trkpt lat="49.96185" lon="2.29806">
        <ele>82</ele>
        <time>2022-12-28T15:09:16Z</time>
      </trkpt>
      <trkpt lat="49.96186" lon="2.29806">
        <ele>82</ele>
        <time>2022-12-28T15:09:17Z</time>
      </trkpt>
      <trkpt lat="49.96187" lon="2.29807">
        <ele>82</ele>
        <time>2022-12-28T15:09:18Z</time>
      </trkpt>
      <trkpt lat="49.96188" lon="2.29807">
        <ele>82.1</ele>
        <time>2022-12-28T15:09:19Z</time>
      </trkpt>
      <trkpt lat="49.96189" lon="2.29808">
        <ele>82.1</ele>
        <time>2022-12-28T15:09:21Z</time>
      </trkpt>
      <trkpt lat="49.96191" lon="2.29809">
        <ele>82.1</ele>
        <time>2022-12-28T15:09:22Z</time>
      </trkpt>
      <trkpt lat="49.96192" lon="2.29809">
        <ele>82.1</ele>
        <time>2022-12-28T15:09:23Z</time>
      </trkpt>
      <trkpt lat="49.96193" lon="2.29809">
        <ele>82.1</ele>
        <time>2022-12-28T15:09:24Z</time>
      </trkpt>
      <trkpt lat="49.96194" lon="2.2981">
        <ele>82.1</ele>
        <time>2022-12-28T15:09:25Z</time>
      </trkpt>
      <trkpt lat="49.96195" lon="2.2981">
        <ele>82.2</ele>
        <time>2022-12-28T15:09:27Z</time>
      </trkpt>
      <trkpt lat="49.96196" lon="2.2981">
        <ele>82.2</ele>
        <time>2022-12-28T15:09:28Z</time>
      </trkpt>
      <trkpt lat="49.96197" lon="2.29811">
        <ele>82.2</ele>
        <time>2022-12-28T15:09:29Z</time>
      </trkpt>
      <trkpt lat="49.96198" lon="2.29811">
        <ele>82.2</ele>
        <time>2022-12-28T15:09:30Z</time>
      </trkpt>
      <trkpt lat="49.962" lon="2.29812">
        <ele>82.2</ele>
        <time>2022-12-28T15:09:31Z</time>
      </trkpt>
      <trkpt lat="49.96201" lon="2.29812">
        <ele>82.2</ele>
        <time>2022-12-28T15:09:32Z</time>
      </trkpt>
      <trkpt lat="49.96202" lon="2.29813">
        <ele>82.3</ele>
        <time>2022-12-28T15:09:33Z</time>
      </trkpt>
      <trkpt lat="49.96203" lon="2.29813">
        <ele>82.3</ele>
        <time>2022-12-28T15:09:34Z</time>
      </trkpt>
      <trkpt lat="49.96204" lon="2.29813">
        <ele>82.3</ele>
        <time>2022-12-28T15:09:35Z</time>
      </trkpt>
      <trkpt lat="49.96205" lon="2.29813">
        <ele>82.3</ele>
        <time>2022-12-28T15:09:37Z</time>
      </trkpt>
      <trkpt lat="49.96207" lon="2.29814">
        <ele>82.3</ele>
        <time>2022-12-28T15:09:38Z</time>
      </trkpt>
      <trkpt lat="49.96208" lon="2.29814">
        <ele>82.3</ele>
        <time>2022-12-28T15:09:39Z</time>
      </trkpt>
      <trkpt lat="49.96209" lon="2.29815">
        <ele>82.4</ele>
        <time>2022-12-28T15:09:40Z</time>
      </trkpt>
      <trkpt lat="49.9621" lon="2.29815">
        <ele>82.4</ele>
        <time>2022-12-28T15:09:41Z</time>
      </trkpt>
      <trkpt lat="49.96211" lon="2.29816">
        <ele>82.4</ele>
        <time>2022-12-28T15:09:42Z</time>
      </trkpt>
      <trkpt lat="49.96212" lon="2.29816">
        <ele>82.4</ele>
        <time>2022-12-28T15:09:43Z</time>
      </trkpt>
      <trkpt lat="49.96213" lon="2.29817">
        <ele>82.4</ele>
        <time>2022-12-28T15:09:44Z</time>
      </trkpt>
      <trkpt lat="49.96214" lon="2.29817">
        <ele>82.4</ele>
        <time>2022-12-28T15:09:45Z</time>
      </trkpt>
      <trkpt lat="49.96215" lon="2.29818">
        <ele>82.4</ele>
        <time>2022-12-28T15:09:47Z</time>
      </trkpt>
      <trkpt lat="49.96216" lon="2.29818">
        <ele>82.5</ele>
        <time>2022-12-28T15:09:48Z</time>
      </trkpt>
      <trkpt lat="49.96219" lon="2.29819">
        <ele>82.5</ele>
        <time>2022-12-28T15:09:49Z</time>
      </trkpt>
      <trkpt lat="49.9622" lon="2.29819">
        <ele>82.5</ele>
        <time>2022-12-28T15:09:50Z</time>
      </trkpt>
      <trkpt lat="49.9622" lon="2.29819">
        <ele>82.5</ele>
        <time>2022-12-28T15:09:51Z</time>
      </trkpt>
      <trkpt lat="49.96221" lon="2.29819">
        <ele>82.5</ele>
        <time>2022-12-28T15:09:53Z</time>
      </trkpt>
      <trkpt lat="49.96223" lon="2.2982">
        <ele>82.5</ele>
        <time>2022-12-28T15:09:54Z</time>
      </trkpt>
      <trkpt lat="49.96224" lon="2.2982">
        <ele>82.5</ele>
        <time>2022-12-28T15:09:55Z</time>
      </trkpt>
      <trkpt lat="49.96225" lon="2.2982">
        <ele>82.5</ele>
        <time>2022-12-28T15:09:56Z</time>
      </trkpt>
      <trkpt lat="49.96226" lon="2.2982">
        <ele>82.5</ele>
        <time>2022-12-28T15:09:57Z</time>
      </trkpt>
      <trkpt lat="49.96227" lon="2.29821">
        <ele>82.6</ele>
        <time>2022-12-28T15:09:58Z</time>
      </trkpt>
      <trkpt lat="49.96228" lon="2.29821">
        <ele>82.6</ele>
        <time>2022-12-28T15:09:59Z</time>
      </trkpt>
      <trkpt lat="49.9623" lon="2.29821">
        <ele>82.6</ele>
        <time>2022-12-28T15:10:01Z</time>
      </trkpt>
      <trkpt lat="49.96231" lon="2.29822">
        <ele>82.6</ele>
        <time>2022-12-28T15:10:02Z</time>
      </trkpt>
      <trkpt lat="49.96231" lon="2.29822">
        <ele>82.6</ele>
        <time>2022-12-28T15:10:03Z</time>
      </trkpt>
      <trkpt lat="49.96233" lon="2.29823">
        <ele>82.6</ele>
        <time>2022-12-28T15:10:04Z</time>
      </trkpt>
      <trkpt lat="49.96234" lon="2.29823">
        <ele>82.6</ele>
        <time>2022-12-28T15:10:05Z</time>
      </trkpt>
      <trkpt lat="49.96235" lon="2.29822">
        <ele>82.6</ele>
        <time>2022-12-28T15:10:07Z</time>
      </trkpt>
      <trkpt lat="49.96236" lon="2.29823">
        <ele>82.6</ele>
        <time>2022-12-28T15:10:08Z</time>
      </trkpt>
      <trkpt lat="49.96237" lon="2.29823">
        <ele>82.6</ele>
        <time>2022-12-28T15:10:09Z</time>
      </trkpt>
      <trkpt lat="49.96238" lon="2.29824">
        <ele>82.6</ele>
        <time>2022-12-28T15:10:10Z</time>
      </trkpt>
      <trkpt lat="49.96238" lon="2.29825">
        <ele>82.6</ele>
        <time>2022-12-28T15:10:11Z</time>
      </trkpt>
      <trkpt lat="49.96239" lon="2.29825">
        <ele>82.6</ele>
        <time>2022-12-28T15:10:12Z</time>
      </trkpt>
      <trkpt lat="49.9624" lon="2.29825">
        <ele>82.6</ele>
        <time>2022-12-28T15:10:13Z</time>
      </trkpt>
      <trkpt lat="49.96242" lon="2.29825">
        <ele>82.6</ele>
        <time>2022-12-28T15:10:15Z</time>
      </trkpt>
      <trkpt lat="49.96243" lon="2.29825">
        <ele>82.6</ele>
        <time>2022-12-28T15:10:16Z</time>
      </trkpt>
      <trkpt lat="49.96244" lon="2.29825">
        <ele>82.6</ele>
        <time>2022-12-28T15:10:17Z</time>
      </trkpt>
      <trkpt lat="49.96245" lon="2.29825">
        <ele>82.6</ele>
        <time>2022-12-28T15:10:18Z</time>
      </trkpt>
      <trkpt lat="49.96246" lon="2.29825">
        <ele>82.6</ele>
        <time>2022-12-28T15:10:19Z</time>
      </trkpt>
      <trkpt lat="49.96247" lon="2.29825">
        <ele>82.6</ele>
        <time>2022-12-28T15:10:20Z</time>
      </trkpt>
      <trkpt lat="49.96249" lon="2.29825">
        <ele>82.6</ele>
        <time>2022-12-28T15:10:22Z</time>
      </trkpt>
      <trkpt lat="49.96249" lon="2.29828">
        <ele>82.6</ele>
        <time>2022-12-28T15:10:24Z</time>
      </trkpt>
      <trkpt lat="49.9625" lon="2.29829">
        <ele>82.6</ele>
        <time>2022-12-28T15:10:26Z</time>
      </trkpt>
      <trkpt lat="49.96251" lon="2.29829">
        <ele>82.6</ele>
        <time>2022-12-28T15:10:27Z</time>
      </trkpt>
      <trkpt lat="49.96252" lon="2.29829">
        <ele>82.6</ele>
        <time>2022-12-28T15:10:28Z</time>
      </trkpt>
      <trkpt lat="49.96253" lon="2.29829">
        <ele>82.5</ele>
        <time>2022-12-28T15:10:29Z</time>
      </trkpt>
      <trkpt lat="49.96254" lon="2.29828">
        <ele>82.5</ele>
        <time>2022-12-28T15:10:30Z</time>
      </trkpt>
      <trkpt lat="49.96256" lon="2.29829">
        <ele>82.5</ele>
        <time>2022-12-28T15:10:31Z</time>
      </trkpt>
      <trkpt lat="49.96257" lon="2.29829">
        <ele>82.5</ele>
        <time>2022-12-28T15:10:33Z</time>
      </trkpt>
      <trkpt lat="49.96258" lon="2.29829">
        <ele>82.5</ele>
        <time>2022-12-28T15:10:34Z</time>
      </trkpt>
      <trkpt lat="49.96261" lon="2.29829">
        <ele>82.5</ele>
        <time>2022-12-28T15:10:35Z</time>
      </trkpt>
      <trkpt lat="49.96261" lon="2.29829">
        <ele>82.5</ele>
        <time>2022-12-28T15:10:36Z</time>
      </trkpt>
      <trkpt lat="49.96262" lon="2.2983">
        <ele>82.5</ele>
        <time>2022-12-28T15:10:37Z</time>
      </trkpt>
      <trkpt lat="49.96264" lon="2.2983">
        <ele>82.4</ele>
        <time>2022-12-28T15:10:38Z</time>
      </trkpt>
      <trkpt lat="49.96265" lon="2.2983">
        <ele>82.4</ele>
        <time>2022-12-28T15:10:40Z</time>
      </trkpt>
      <trkpt lat="49.96266" lon="2.2983">
        <ele>82.4</ele>
        <time>2022-12-28T15:10:41Z</time>
      </trkpt>
      <trkpt lat="49.96267" lon="2.2983">
        <ele>82.4</ele>
        <time>2022-12-28T15:10:42Z</time>
      </trkpt>
      <trkpt lat="49.96268" lon="2.2983">
        <ele>82.4</ele>
        <time>2022-12-28T15:10:43Z</time>
      </trkpt>
      <trkpt lat="49.9627" lon="2.29831">
        <ele>82.4</ele>
        <time>2022-12-28T15:10:44Z</time>
      </trkpt>
      <trkpt lat="49.96271" lon="2.29831">
        <ele>82.4</ele>
        <time>2022-12-28T15:10:45Z</time>
      </trkpt>
      <trkpt lat="49.96272" lon="2.29831">
        <ele>82.3</ele>
        <time>2022-12-28T15:10:47Z</time>
      </trkpt>
      <trkpt lat="49.96273" lon="2.29832">
        <ele>82.3</ele>
        <time>2022-12-28T15:10:48Z</time>
      </trkpt>
      <trkpt lat="49.96274" lon="2.29832">
        <ele>82.3</ele>
        <time>2022-12-28T15:10:49Z</time>
      </trkpt>
      <trkpt lat="49.96275" lon="2.29832">
        <ele>82.3</ele>
        <time>2022-12-28T15:10:50Z</time>
      </trkpt>
      <trkpt lat="49.96276" lon="2.29832">
        <ele>82.3</ele>
        <time>2022-12-28T15:10:51Z</time>
      </trkpt>
      <trkpt lat="49.96277" lon="2.29832">
        <ele>82.3</ele>
        <time>2022-12-28T15:10:52Z</time>
      </trkpt>
      <trkpt lat="49.96278" lon="2.29832">
        <ele>82.2</ele>
        <time>2022-12-28T15:10:53Z</time>
      </trkpt>
      <trkpt lat="49.9628" lon="2.29833">
        <ele>82.2</ele>
        <time>2022-12-28T15:10:54Z</time>
      </trkpt>
      <trkpt lat="49.96282" lon="2.29833">
        <ele>82.2</ele>
        <time>2022-12-28T15:10:56Z</time>
      </trkpt>
      <trkpt lat="49.96283" lon="2.29834">
        <ele>82.1</ele>
        <time>2022-12-28T15:10:57Z</time>
      </trkpt>
      <trkpt lat="49.96284" lon="2.29834">
        <ele>82.1</ele>
        <time>2022-12-28T15:10:58Z</time>
      </trkpt>
      <trkpt lat="49.96285" lon="2.29834">
        <ele>82.1</ele>
        <time>2022-12-28T15:10:59Z</time>
      </trkpt>
      <trkpt lat="49.96286" lon="2.29835">
        <ele>82.1</ele>
        <time>2022-12-28T15:11:00Z</time>
      </trkpt>
      <trkpt lat="49.96286" lon="2.29835">
        <ele>82.1</ele>
        <time>2022-12-28T15:11:01Z</time>
      </trkpt>
      <trkpt lat="49.96287" lon="2.29836">
        <ele>82</ele>
        <time>2022-12-28T15:11:02Z</time>
      </trkpt>
      <trkpt lat="49.96289" lon="2.29837">
        <ele>82</ele>
        <time>2022-12-28T15:11:04Z</time>
      </trkpt>
      <trkpt lat="49.9629" lon="2.29838">
        <ele>82</ele>
        <time>2022-12-28T15:11:05Z</time>
      </trkpt>
      <trkpt lat="49.96291" lon="2.29838">
        <ele>81.9</ele>
        <time>2022-12-28T15:11:06Z</time>
      </trkpt>
      <trkpt lat="49.96292" lon="2.29838">
        <ele>81.9</ele>
        <time>2022-12-28T15:11:07Z</time>
      </trkpt>
      <trkpt lat="49.96293" lon="2.29838">
        <ele>81.9</ele>
        <time>2022-12-28T15:11:08Z</time>
      </trkpt>
      <trkpt lat="49.96294" lon="2.29838">
        <ele>81.9</ele>
        <time>2022-12-28T15:11:09Z</time>
      </trkpt>
      <trkpt lat="49.96297" lon="2.29838">
        <ele>81.8</ele>
        <time>2022-12-28T15:11:10Z</time>
      </trkpt>
      <trkpt lat="49.96298" lon="2.29839">
        <ele>81.8</ele>
        <time>2022-12-28T15:11:12Z</time>
      </trkpt>
      <trkpt lat="49.96299" lon="2.29839">
        <ele>81.7</ele>
        <time>2022-12-28T15:11:13Z</time>
      </trkpt>
      <trkpt lat="49.963" lon="2.29839">
        <ele>81.7</ele>
        <time>2022-12-28T15:11:14Z</time>
      </trkpt>
      <trkpt lat="49.96301" lon="2.29839">
        <ele>81.7</ele>
        <time>2022-12-28T15:11:15Z</time>
      </trkpt>
      <trkpt lat="49.96303" lon="2.2984">
        <ele>81.6</ele>
        <time>2022-12-28T15:11:16Z</time>
      </trkpt>
      <trkpt lat="49.96304" lon="2.2984">
        <ele>81.6</ele>
        <time>2022-12-28T15:11:17Z</time>
      </trkpt>
      <trkpt lat="49.96305" lon="2.29841">
        <ele>81.6</ele>
        <time>2022-12-28T15:11:18Z</time>
      </trkpt>
      <trkpt lat="49.96307" lon="2.29841">
        <ele>81.5</ele>
        <time>2022-12-28T15:11:20Z</time>
      </trkpt>
      <trkpt lat="49.96307" lon="2.29842">
        <ele>81.5</ele>
        <time>2022-12-28T15:11:21Z</time>
      </trkpt>
      <trkpt lat="49.96308" lon="2.29842">
        <ele>81.5</ele>
        <time>2022-12-28T15:11:22Z</time>
      </trkpt>
      <trkpt lat="49.9631" lon="2.29843">
        <ele>81.4</ele>
        <time>2022-12-28T15:11:23Z</time>
      </trkpt>
      <trkpt lat="49.96311" lon="2.29843">
        <ele>81.4</ele>
        <time>2022-12-28T15:11:24Z</time>
      </trkpt>
      <trkpt lat="49.96312" lon="2.29843">
        <ele>81.3</ele>
        <time>2022-12-28T15:11:25Z</time>
      </trkpt>
      <trkpt lat="49.96313" lon="2.29844">
        <ele>81.3</ele>
        <time>2022-12-28T15:11:27Z</time>
      </trkpt>
      <trkpt lat="49.96314" lon="2.29844">
        <ele>81.3</ele>
        <time>2022-12-28T15:11:28Z</time>
      </trkpt>
      <trkpt lat="49.96315" lon="2.29844">
        <ele>81.2</ele>
        <time>2022-12-28T15:11:29Z</time>
      </trkpt>
      <trkpt lat="49.96316" lon="2.29845">
        <ele>81.2</ele>
        <time>2022-12-28T15:11:30Z</time>
      </trkpt>
      <trkpt lat="49.96317" lon="2.29845">
        <ele>81.1</ele>
        <time>2022-12-28T15:11:31Z</time>
      </trkpt>
      <trkpt lat="49.96318" lon="2.29845">
        <ele>81.1</ele>
        <time>2022-12-28T15:11:32Z</time>
      </trkpt>
      <trkpt lat="49.96319" lon="2.29845">
        <ele>81.1</ele>
        <time>2022-12-28T15:11:34Z</time>
      </trkpt>
      <trkpt lat="49.9632" lon="2.29846">
        <ele>81</ele>
        <time>2022-12-28T15:11:35Z</time>
      </trkpt>
      <trkpt lat="49.96321" lon="2.29846">
        <ele>81</ele>
        <time>2022-12-28T15:11:36Z</time>
      </trkpt>
      <trkpt lat="49.96322" lon="2.29846">
        <ele>80.9</ele>
        <time>2022-12-28T15:11:37Z</time>
      </trkpt>
      <trkpt lat="49.96323" lon="2.29846">
        <ele>80.9</ele>
        <time>2022-12-28T15:11:38Z</time>
      </trkpt>
      <trkpt lat="49.96324" lon="2.29847">
        <ele>80.9</ele>
        <time>2022-12-28T15:11:39Z</time>
      </trkpt>
      <trkpt lat="49.96325" lon="2.29847">
        <ele>80.8</ele>
        <time>2022-12-28T15:11:41Z</time>
      </trkpt>
      <trkpt lat="49.96326" lon="2.29847">
        <ele>80.8</ele>
        <time>2022-12-28T15:11:42Z</time>
      </trkpt>
      <trkpt lat="49.96327" lon="2.29847">
        <ele>80.7</ele>
        <time>2022-12-28T15:11:43Z</time>
      </trkpt>
      <trkpt lat="49.96328" lon="2.29848">
        <ele>80.7</ele>
        <time>2022-12-28T15:11:44Z</time>
      </trkpt>
      <trkpt lat="49.96329" lon="2.29848">
        <ele>80.6</ele>
        <time>2022-12-28T15:11:45Z</time>
      </trkpt>
      <trkpt lat="49.9633" lon="2.29848">
        <ele>80.6</ele>
        <time>2022-12-28T15:11:47Z</time>
      </trkpt>
      <trkpt lat="49.96331" lon="2.29848">
        <ele>80.5</ele>
        <time>2022-12-28T15:11:48Z</time>
      </trkpt>
      <trkpt lat="49.96332" lon="2.29849">
        <ele>80.4</ele>
        <time>2022-12-28T15:11:49Z</time>
      </trkpt>
      <trkpt lat="49.96333" lon="2.29849">
        <ele>80.4</ele>
        <time>2022-12-28T15:11:50Z</time>
      </trkpt>
      <trkpt lat="49.96334" lon="2.29849">
        <ele>80.4</ele>
        <time>2022-12-28T15:11:51Z</time>
      </trkpt>
      <trkpt lat="49.96335" lon="2.2985">
        <ele>80.3</ele>
        <time>2022-12-28T15:11:52Z</time>
      </trkpt>
      <trkpt lat="49.96336" lon="2.2985">
        <ele>80.2</ele>
        <time>2022-12-28T15:11:53Z</time>
      </trkpt>
      <trkpt lat="49.96337" lon="2.2985">
        <ele>80.2</ele>
        <time>2022-12-28T15:11:55Z</time>
      </trkpt>
      <trkpt lat="49.96339" lon="2.29851">
        <ele>80.1</ele>
        <time>2022-12-28T15:11:56Z</time>
      </trkpt>
      <trkpt lat="49.9634" lon="2.29851">
        <ele>80</ele>
        <time>2022-12-28T15:11:57Z</time>
      </trkpt>
      <trkpt lat="49.96341" lon="2.29851">
        <ele>80</ele>
        <time>2022-12-28T15:11:58Z</time>
      </trkpt>
      <trkpt lat="49.96342" lon="2.29852">
        <ele>79.9</ele>
        <time>2022-12-28T15:11:59Z</time>
      </trkpt>
      <trkpt lat="49.96343" lon="2.29852">
        <ele>79.8</ele>
        <time>2022-12-28T15:12:00Z</time>
      </trkpt>
      <trkpt lat="49.96344" lon="2.29852">
        <ele>79.8</ele>
        <time>2022-12-28T15:12:02Z</time>
      </trkpt>
      <trkpt lat="49.96345" lon="2.29853">
        <ele>79.7</ele>
        <time>2022-12-28T15:12:03Z</time>
      </trkpt>
      <trkpt lat="49.96346" lon="2.29853">
        <ele>79.7</ele>
        <time>2022-12-28T15:12:04Z</time>
      </trkpt>
      <trkpt lat="49.96347" lon="2.29853">
        <ele>79.6</ele>
        <time>2022-12-28T15:12:05Z</time>
      </trkpt>
      <trkpt lat="49.96349" lon="2.29853">
        <ele>79.5</ele>
        <time>2022-12-28T15:12:06Z</time>
      </trkpt>
      <trkpt lat="49.96349" lon="2.29853">
        <ele>79.5</ele>
        <time>2022-12-28T15:12:07Z</time>
      </trkpt>
      <trkpt lat="49.9635" lon="2.29853">
        <ele>79.4</ele>
        <time>2022-12-28T15:12:09Z</time>
      </trkpt>
      <trkpt lat="49.96351" lon="2.29853">
        <ele>79.4</ele>
        <time>2022-12-28T15:12:10Z</time>
      </trkpt>
      <trkpt lat="49.96353" lon="2.29853">
        <ele>79.3</ele>
        <time>2022-12-28T15:12:11Z</time>
      </trkpt>
      <trkpt lat="49.96354" lon="2.29853">
        <ele>79.3</ele>
        <time>2022-12-28T15:12:12Z</time>
      </trkpt>
      <trkpt lat="49.96355" lon="2.29854">
        <ele>79.2</ele>
        <time>2022-12-28T15:12:13Z</time>
      </trkpt>
      <trkpt lat="49.96356" lon="2.29854">
        <ele>79.1</ele>
        <time>2022-12-28T15:12:14Z</time>
      </trkpt>
      <trkpt lat="49.96357" lon="2.29855">
        <ele>79.1</ele>
        <time>2022-12-28T15:12:15Z</time>
      </trkpt>
      <trkpt lat="49.96358" lon="2.29855">
        <ele>79</ele>
        <time>2022-12-28T15:12:16Z</time>
      </trkpt>
      <trkpt lat="49.96359" lon="2.29855">
        <ele>79</ele>
        <time>2022-12-28T15:12:18Z</time>
      </trkpt>
      <trkpt lat="49.9636" lon="2.29856">
        <ele>78.9</ele>
        <time>2022-12-28T15:12:19Z</time>
      </trkpt>
      <trkpt lat="49.96361" lon="2.29856">
        <ele>78.9</ele>
        <time>2022-12-28T15:12:20Z</time>
      </trkpt>
      <trkpt lat="49.96362" lon="2.29856">
        <ele>78.8</ele>
        <time>2022-12-28T15:12:21Z</time>
      </trkpt>
      <trkpt lat="49.96363" lon="2.29856">
        <ele>78.8</ele>
        <time>2022-12-28T15:12:22Z</time>
      </trkpt>
      <trkpt lat="49.96364" lon="2.29856">
        <ele>78.7</ele>
        <time>2022-12-28T15:12:23Z</time>
      </trkpt>
      <trkpt lat="49.96365" lon="2.29856">
        <ele>78.7</ele>
        <time>2022-12-28T15:12:24Z</time>
      </trkpt>
      <trkpt lat="49.96367" lon="2.29856">
        <ele>78.6</ele>
        <time>2022-12-28T15:12:26Z</time>
      </trkpt>
      <trkpt lat="49.96368" lon="2.29857">
        <ele>78.5</ele>
        <time>2022-12-28T15:12:27Z</time>
      </trkpt>
      <trkpt lat="49.96369" lon="2.29857">
        <ele>78.5</ele>
        <time>2022-12-28T15:12:28Z</time>
      </trkpt>
      <trkpt lat="49.9637" lon="2.29858">
        <ele>78.4</ele>
        <time>2022-12-28T15:12:29Z</time>
      </trkpt>
      <trkpt lat="49.96371" lon="2.29858">
        <ele>78.4</ele>
        <time>2022-12-28T15:12:30Z</time>
      </trkpt>
      <trkpt lat="49.96372" lon="2.29859">
        <ele>78.3</ele>
        <time>2022-12-28T15:12:31Z</time>
      </trkpt>
      <trkpt lat="49.96373" lon="2.29859">
        <ele>78.3</ele>
        <time>2022-12-28T15:12:32Z</time>
      </trkpt>
      <trkpt lat="49.96375" lon="2.2986">
        <ele>78.2</ele>
        <time>2022-12-28T15:12:34Z</time>
      </trkpt>
      <trkpt lat="49.96376" lon="2.29861">
        <ele>78.1</ele>
        <time>2022-12-28T15:12:35Z</time>
      </trkpt>
      <trkpt lat="49.96376" lon="2.29861">
        <ele>78.1</ele>
        <time>2022-12-28T15:12:36Z</time>
      </trkpt>
      <trkpt lat="49.96377" lon="2.29862">
        <ele>78.1</ele>
        <time>2022-12-28T15:12:37Z</time>
      </trkpt>
      <trkpt lat="49.96378" lon="2.29862">
        <ele>78</ele>
        <time>2022-12-28T15:12:38Z</time>
      </trkpt>
      <trkpt lat="49.96379" lon="2.29863">
        <ele>78</ele>
        <time>2022-12-28T15:12:39Z</time>
      </trkpt>
      <trkpt lat="49.9638" lon="2.29863">
        <ele>78</ele>
        <time>2022-12-28T15:12:40Z</time>
      </trkpt>
      <trkpt lat="49.96382" lon="2.29863">
        <ele>77.9</ele>
        <time>2022-12-28T15:12:41Z</time>
      </trkpt>
      <trkpt lat="49.96383" lon="2.29864">
        <ele>77.8</ele>
        <time>2022-12-28T15:12:43Z</time>
      </trkpt>
      <trkpt lat="49.96383" lon="2.29864">
        <ele>77.8</ele>
        <time>2022-12-28T15:12:44Z</time>
      </trkpt>
      <trkpt lat="49.96384" lon="2.29864">
        <ele>77.8</ele>
        <time>2022-12-28T15:12:45Z</time>
      </trkpt>
      <trkpt lat="49.96386" lon="2.29865">
        <ele>77.7</ele>
        <time>2022-12-28T15:12:46Z</time>
      </trkpt>
      <trkpt lat="49.96387" lon="2.29866">
        <ele>77.7</ele>
        <time>2022-12-28T15:12:47Z</time>
      </trkpt>
      <trkpt lat="49.96387" lon="2.29866">
        <ele>77.7</ele>
        <time>2022-12-28T15:12:48Z</time>
      </trkpt>
      <trkpt lat="49.96388" lon="2.29867">
        <ele>77.6</ele>
        <time>2022-12-28T15:12:49Z</time>
      </trkpt>
      <trkpt lat="49.96389" lon="2.29867">
        <ele>77.6</ele>
        <time>2022-12-28T15:12:50Z</time>
      </trkpt>
      <trkpt lat="49.96391" lon="2.29868">
        <ele>77.5</ele>
        <time>2022-12-28T15:12:52Z</time>
      </trkpt>
      <trkpt lat="49.96392" lon="2.29868">
        <ele>77.5</ele>
        <time>2022-12-28T15:12:53Z</time>
      </trkpt>
      <trkpt lat="49.96393" lon="2.29868">
        <ele>77.5</ele>
        <time>2022-12-28T15:12:54Z</time>
      </trkpt>
      <trkpt lat="49.96394" lon="2.29869">
        <ele>77.4</ele>
        <time>2022-12-28T15:12:55Z</time>
      </trkpt>
      <trkpt lat="49.96395" lon="2.29869">
        <ele>77.4</ele>
        <time>2022-12-28T15:12:56Z</time>
      </trkpt>
      <trkpt lat="49.96396" lon="2.29869">
        <ele>77.3</ele>
        <time>2022-12-28T15:12:57Z</time>
      </trkpt>
      <trkpt lat="49.96398" lon="2.29869">
        <ele>77.3</ele>
        <time>2022-12-28T15:12:58Z</time>
      </trkpt>
      <trkpt lat="49.96399" lon="2.29869">
        <ele>77.2</ele>
        <time>2022-12-28T15:13:00Z</time>
      </trkpt>
      <trkpt lat="49.964" lon="2.29869">
        <ele>77.2</ele>
        <time>2022-12-28T15:13:01Z</time>
      </trkpt>
      <trkpt lat="49.96402" lon="2.29869">
        <ele>77.2</ele>
        <time>2022-12-28T15:13:02Z</time>
      </trkpt>
      <trkpt lat="49.96402" lon="2.29869">
        <ele>77.2</ele>
        <time>2022-12-28T15:13:03Z</time>
      </trkpt>
      <trkpt lat="49.96403" lon="2.29869">
        <ele>77.1</ele>
        <time>2022-12-28T15:13:04Z</time>
      </trkpt>
      <trkpt lat="49.96404" lon="2.29869">
        <ele>77.1</ele>
        <time>2022-12-28T15:13:05Z</time>
      </trkpt>
      <trkpt lat="49.96407" lon="2.29868">
        <ele>77.1</ele>
        <time>2022-12-28T15:13:06Z</time>
      </trkpt>
      <trkpt lat="49.96407" lon="2.29868">
        <ele>77</ele>
        <time>2022-12-28T15:13:07Z</time>
      </trkpt>
      <trkpt lat="49.96408" lon="2.29868">
        <ele>77</ele>
        <time>2022-12-28T15:13:08Z</time>
      </trkpt>
      <trkpt lat="49.9641" lon="2.29868">
        <ele>77</ele>
        <time>2022-12-28T15:13:10Z</time>
      </trkpt>
      <trkpt lat="49.96411" lon="2.29868">
        <ele>76.9</ele>
        <time>2022-12-28T15:13:11Z</time>
      </trkpt>
      <trkpt lat="49.96412" lon="2.29868">
        <ele>76.9</ele>
        <time>2022-12-28T15:13:12Z</time>
      </trkpt>
      <trkpt lat="49.96413" lon="2.29868">
        <ele>76.9</ele>
        <time>2022-12-28T15:13:13Z</time>
      </trkpt>
      <trkpt lat="49.96414" lon="2.29868">
        <ele>76.9</ele>
        <time>2022-12-28T15:13:14Z</time>
      </trkpt>
      <trkpt lat="49.96415" lon="2.29868">
        <ele>76.8</ele>
        <time>2022-12-28T15:13:15Z</time>
      </trkpt>
      <trkpt lat="49.96416" lon="2.29868">
        <ele>76.8</ele>
        <time>2022-12-28T15:13:16Z</time>
      </trkpt>
      <trkpt lat="49.96418" lon="2.29868">
        <ele>76.8</ele>
        <time>2022-12-28T15:13:17Z</time>
      </trkpt>
      <trkpt lat="49.96419" lon="2.29868">
        <ele>76.8</ele>
        <time>2022-12-28T15:13:19Z</time>
      </trkpt>
      <trkpt lat="49.9642" lon="2.29868">
        <ele>76.7</ele>
        <time>2022-12-28T15:13:20Z</time>
      </trkpt>
      <trkpt lat="49.96422" lon="2.29868">
        <ele>76.7</ele>
        <time>2022-12-28T15:13:21Z</time>
      </trkpt>
      <trkpt lat="49.96422" lon="2.29869">
        <ele>76.7</ele>
        <time>2022-12-28T15:13:22Z</time>
      </trkpt>
      <trkpt lat="49.96423" lon="2.29869">
        <ele>76.7</ele>
        <time>2022-12-28T15:13:23Z</time>
      </trkpt>
      <trkpt lat="49.96424" lon="2.2987">
        <ele>76.7</ele>
        <time>2022-12-28T15:13:24Z</time>
      </trkpt>
      <trkpt lat="49.96425" lon="2.2987">
        <ele>76.6</ele>
        <time>2022-12-28T15:13:25Z</time>
      </trkpt>
      <trkpt lat="49.96427" lon="2.29871">
        <ele>76.6</ele>
        <time>2022-12-28T15:13:26Z</time>
      </trkpt>
      <trkpt lat="49.96428" lon="2.29871">
        <ele>76.6</ele>
        <time>2022-12-28T15:13:27Z</time>
      </trkpt>
      <trkpt lat="49.96429" lon="2.29871">
        <ele>76.6</ele>
        <time>2022-12-28T15:13:29Z</time>
      </trkpt>
      <trkpt lat="49.9643" lon="2.29872">
        <ele>76.5</ele>
        <time>2022-12-28T15:13:30Z</time>
      </trkpt>
      <trkpt lat="49.96432" lon="2.29872">
        <ele>76.5</ele>
        <time>2022-12-28T15:13:31Z</time>
      </trkpt>
      <trkpt lat="49.96432" lon="2.29873">
        <ele>76.5</ele>
        <time>2022-12-28T15:13:32Z</time>
      </trkpt>
      <trkpt lat="49.96434" lon="2.29873">
        <ele>76.5</ele>
        <time>2022-12-28T15:13:33Z</time>
      </trkpt>
      <trkpt lat="49.96435" lon="2.29873">
        <ele>76.5</ele>
        <time>2022-12-28T15:13:34Z</time>
      </trkpt>
      <trkpt lat="49.96436" lon="2.29873">
        <ele>76.5</ele>
        <time>2022-12-28T15:13:35Z</time>
      </trkpt>
      <trkpt lat="49.96438" lon="2.29874">
        <ele>76.4</ele>
        <time>2022-12-28T15:13:36Z</time>
      </trkpt>
      <trkpt lat="49.9644" lon="2.29874">
        <ele>76.4</ele>
        <time>2022-12-28T15:13:37Z</time>
      </trkpt>
      <trkpt lat="49.96441" lon="2.29874">
        <ele>76.4</ele>
        <time>2022-12-28T15:13:39Z</time>
      </trkpt>
      <trkpt lat="49.96442" lon="2.29875">
        <ele>76.4</ele>
        <time>2022-12-28T15:13:40Z</time>
      </trkpt>
      <trkpt lat="49.96444" lon="2.29875">
        <ele>76.3</ele>
        <time>2022-12-28T15:13:41Z</time>
      </trkpt>
      <trkpt lat="49.96445" lon="2.29875">
        <ele>76.3</ele>
        <time>2022-12-28T15:13:42Z</time>
      </trkpt>
      <trkpt lat="49.96446" lon="2.29875">
        <ele>76.3</ele>
        <time>2022-12-28T15:13:43Z</time>
      </trkpt>
      <trkpt lat="49.96447" lon="2.29875">
        <ele>76.3</ele>
        <time>2022-12-28T15:13:44Z</time>
      </trkpt>
      <trkpt lat="49.96448" lon="2.29875">
        <ele>76.3</ele>
        <time>2022-12-28T15:13:45Z</time>
      </trkpt>
      <trkpt lat="49.96449" lon="2.29875">
        <ele>76.3</ele>
        <time>2022-12-28T15:13:46Z</time>
      </trkpt>
      <trkpt lat="49.9645" lon="2.29875">
        <ele>76.3</ele>
        <time>2022-12-28T15:13:48Z</time>
      </trkpt>
      <trkpt lat="49.96451" lon="2.29876">
        <ele>76.2</ele>
        <time>2022-12-28T15:13:49Z</time>
      </trkpt>
      <trkpt lat="49.96451" lon="2.29876">
        <ele>76.2</ele>
        <time>2022-12-28T15:13:50Z</time>
      </trkpt>
      <trkpt lat="49.96454" lon="2.29877">
        <ele>76.2</ele>
        <time>2022-12-28T15:13:51Z</time>
      </trkpt>
      <trkpt lat="49.96455" lon="2.29877">
        <ele>76.2</ele>
        <time>2022-12-28T15:13:52Z</time>
      </trkpt>
      <trkpt lat="49.96456" lon="2.29877">
        <ele>76.2</ele>
        <time>2022-12-28T15:13:54Z</time>
      </trkpt>
      <trkpt lat="49.96457" lon="2.29878">
        <ele>76.2</ele>
        <time>2022-12-28T15:13:55Z</time>
      </trkpt>
      <trkpt lat="49.96458" lon="2.29878">
        <ele>76.2</ele>
        <time>2022-12-28T15:13:56Z</time>
      </trkpt>
      <trkpt lat="49.96459" lon="2.29878">
        <ele>76.2</ele>
        <time>2022-12-28T15:13:57Z</time>
      </trkpt>
      <trkpt lat="49.96461" lon="2.29879">
        <ele>76.2</ele>
        <time>2022-12-28T15:13:58Z</time>
      </trkpt>
      <trkpt lat="49.96461" lon="2.2988">
        <ele>76.2</ele>
        <time>2022-12-28T15:13:59Z</time>
      </trkpt>
      <trkpt lat="49.96462" lon="2.2988">
        <ele>76.1</ele>
        <time>2022-12-28T15:14:00Z</time>
      </trkpt>
      <trkpt lat="49.96463" lon="2.29881">
        <ele>76.1</ele>
        <time>2022-12-28T15:14:01Z</time>
      </trkpt>
      <trkpt lat="49.96465" lon="2.29881">
        <ele>76.1</ele>
        <time>2022-12-28T15:14:02Z</time>
      </trkpt>
      <trkpt lat="49.96466" lon="2.29882">
        <ele>76.1</ele>
        <time>2022-12-28T15:14:04Z</time>
      </trkpt>
      <trkpt lat="49.96467" lon="2.29882">
        <ele>76.1</ele>
        <time>2022-12-28T15:14:05Z</time>
      </trkpt>
      <trkpt lat="49.96469" lon="2.29882">
        <ele>76.1</ele>
        <time>2022-12-28T15:14:06Z</time>
      </trkpt>
      <trkpt lat="49.9647" lon="2.29882">
        <ele>76.1</ele>
        <time>2022-12-28T15:14:07Z</time>
      </trkpt>
      <trkpt lat="49.96471" lon="2.29882">
        <ele>76.1</ele>
        <time>2022-12-28T15:14:08Z</time>
      </trkpt>
      <trkpt lat="49.96472" lon="2.29882">
        <ele>76.1</ele>
        <time>2022-12-28T15:14:09Z</time>
      </trkpt>
      <trkpt lat="49.96473" lon="2.29883">
        <ele>76.1</ele>
        <time>2022-12-28T15:14:10Z</time>
      </trkpt>
      <trkpt lat="49.96475" lon="2.29883">
        <ele>76.1</ele>
        <time>2022-12-28T15:14:11Z</time>
      </trkpt>
      <trkpt lat="49.96476" lon="2.29883">
        <ele>76.1</ele>
        <time>2022-12-28T15:14:12Z</time>
      </trkpt>
      <trkpt lat="49.96476" lon="2.29883">
        <ele>76.1</ele>
        <time>2022-12-28T15:14:13Z</time>
      </trkpt>
      <trkpt lat="49.96477" lon="2.29883">
        <ele>76.1</ele>
        <time>2022-12-28T15:14:14Z</time>
      </trkpt>
      <trkpt lat="49.96479" lon="2.29884">
        <ele>76.1</ele>
        <time>2022-12-28T15:14:16Z</time>
      </trkpt>
      <trkpt lat="49.9648" lon="2.29884">
        <ele>76.1</ele>
        <time>2022-12-28T15:14:17Z</time>
      </trkpt>
      <trkpt lat="49.96481" lon="2.29884">
        <ele>76.1</ele>
        <time>2022-12-28T15:14:18Z</time>
      </trkpt>
      <trkpt lat="49.96482" lon="2.29884">
        <ele>76.1</ele>
        <time>2022-12-28T15:14:19Z</time>
      </trkpt>
      <trkpt lat="49.96483" lon="2.29885">
        <ele>76.1</ele>
        <time>2022-12-28T15:14:20Z</time>
      </trkpt>
      <trkpt lat="49.96485" lon="2.29885">
        <ele>76.1</ele>
        <time>2022-12-28T15:14:21Z</time>
      </trkpt>
      <trkpt lat="49.96485" lon="2.29885">
        <ele>76.1</ele>
        <time>2022-12-28T15:14:22Z</time>
      </trkpt>
      <trkpt lat="49.96486" lon="2.29886">
        <ele>76.1</ele>
        <time>2022-12-28T15:14:23Z</time>
      </trkpt>
      <trkpt lat="49.96487" lon="2.29886">
        <ele>76.1</ele>
        <time>2022-12-28T15:14:24Z</time>
      </trkpt>
      <trkpt lat="49.96488" lon="2.29886">
        <ele>76.1</ele>
        <time>2022-12-28T15:14:26Z</time>
      </trkpt>
      <trkpt lat="49.96489" lon="2.29886">
        <ele>76.1</ele>
        <time>2022-12-28T15:14:27Z</time>
      </trkpt>
      <trkpt lat="49.9649" lon="2.29886">
        <ele>76.1</ele>
        <time>2022-12-28T15:14:28Z</time>
      </trkpt>
      <trkpt lat="49.96491" lon="2.29887">
        <ele>76.1</ele>
        <time>2022-12-28T15:14:29Z</time>
      </trkpt>
      <trkpt lat="49.96493" lon="2.29887">
        <ele>76.1</ele>
        <time>2022-12-28T15:14:30Z</time>
      </trkpt>
      <trkpt lat="49.96495" lon="2.29887">
        <ele>76.1</ele>
        <time>2022-12-28T15:14:32Z</time>
      </trkpt>
      <trkpt lat="49.96496" lon="2.29888">
        <ele>76.2</ele>
        <time>2022-12-28T15:14:33Z</time>
      </trkpt>
      <trkpt lat="49.96498" lon="2.29888">
        <ele>76.2</ele>
        <time>2022-12-28T15:14:34Z</time>
      </trkpt>
      <trkpt lat="49.96499" lon="2.29888">
        <ele>76.2</ele>
        <time>2022-12-28T15:14:35Z</time>
      </trkpt>
      <trkpt lat="49.96501" lon="2.29888">
        <ele>76.2</ele>
        <time>2022-12-28T15:14:36Z</time>
      </trkpt>
      <trkpt lat="49.96501" lon="2.29888">
        <ele>76.2</ele>
        <time>2022-12-28T15:14:37Z</time>
      </trkpt>
      <trkpt lat="49.96502" lon="2.29888">
        <ele>76.2</ele>
        <time>2022-12-28T15:14:38Z</time>
      </trkpt>
      <trkpt lat="49.96504" lon="2.29889">
        <ele>76.2</ele>
        <time>2022-12-28T15:14:40Z</time>
      </trkpt>
      <trkpt lat="49.96505" lon="2.29889">
        <ele>76.2</ele>
        <time>2022-12-28T15:14:41Z</time>
      </trkpt>
      <trkpt lat="49.96507" lon="2.29889">
        <ele>76.2</ele>
        <time>2022-12-28T15:14:42Z</time>
      </trkpt>
      <trkpt lat="49.96508" lon="2.2989">
        <ele>76.2</ele>
        <time>2022-12-28T15:14:43Z</time>
      </trkpt>
      <trkpt lat="49.96509" lon="2.2989">
        <ele>76.2</ele>
        <time>2022-12-28T15:14:44Z</time>
      </trkpt>
      <trkpt lat="49.9651" lon="2.2989">
        <ele>76.2</ele>
        <time>2022-12-28T15:14:45Z</time>
      </trkpt>
      <trkpt lat="49.96511" lon="2.2989">
        <ele>76.2</ele>
        <time>2022-12-28T15:14:46Z</time>
      </trkpt>
      <trkpt lat="49.96512" lon="2.2989">
        <ele>76.3</ele>
        <time>2022-12-28T15:14:47Z</time>
      </trkpt>
      <trkpt lat="49.96513" lon="2.2989">
        <ele>76.3</ele>
        <time>2022-12-28T15:14:49Z</time>
      </trkpt>
      <trkpt lat="49.96514" lon="2.29891">
        <ele>76.3</ele>
        <time>2022-12-28T15:14:50Z</time>
      </trkpt>
      <trkpt lat="49.96515" lon="2.29891">
        <ele>76.3</ele>
        <time>2022-12-28T15:14:51Z</time>
      </trkpt>
      <trkpt lat="49.96516" lon="2.29892">
        <ele>76.3</ele>
        <time>2022-12-28T15:14:52Z</time>
      </trkpt>
      <trkpt lat="49.96517" lon="2.29892">
        <ele>76.3</ele>
        <time>2022-12-28T15:14:53Z</time>
      </trkpt>
      <trkpt lat="49.96519" lon="2.29893">
        <ele>76.3</ele>
        <time>2022-12-28T15:14:54Z</time>
      </trkpt>
      <trkpt lat="49.9652" lon="2.29893">
        <ele>76.3</ele>
        <time>2022-12-28T15:14:55Z</time>
      </trkpt>
      <trkpt lat="49.96521" lon="2.29893">
        <ele>76.3</ele>
        <time>2022-12-28T15:14:56Z</time>
      </trkpt>
      <trkpt lat="49.96522" lon="2.29893">
        <ele>76.3</ele>
        <time>2022-12-28T15:14:57Z</time>
      </trkpt>
      <trkpt lat="49.96523" lon="2.29894">
        <ele>76.3</ele>
        <time>2022-12-28T15:14:59Z</time>
      </trkpt>
      <trkpt lat="49.96525" lon="2.29894">
        <ele>76.4</ele>
        <time>2022-12-28T15:15:00Z</time>
      </trkpt>
      <trkpt lat="49.96526" lon="2.29894">
        <ele>76.4</ele>
        <time>2022-12-28T15:15:01Z</time>
      </trkpt>
      <trkpt lat="49.96527" lon="2.29895">
        <ele>76.4</ele>
        <time>2022-12-28T15:15:02Z</time>
      </trkpt>
      <trkpt lat="49.96528" lon="2.29895">
        <ele>76.4</ele>
        <time>2022-12-28T15:15:03Z</time>
      </trkpt>
      <trkpt lat="49.96529" lon="2.29896">
        <ele>76.4</ele>
        <time>2022-12-28T15:15:04Z</time>
      </trkpt>
      <trkpt lat="49.9653" lon="2.29896">
        <ele>76.4</ele>
        <time>2022-12-28T15:15:05Z</time>
      </trkpt>
      <trkpt lat="49.96531" lon="2.29897">
        <ele>76.4</ele>
        <time>2022-12-28T15:15:06Z</time>
      </trkpt>
      <trkpt lat="49.96533" lon="2.29898">
        <ele>76.5</ele>
        <time>2022-12-28T15:15:07Z</time>
      </trkpt>
      <trkpt lat="49.96533" lon="2.29898">
        <ele>76.5</ele>
        <time>2022-12-28T15:15:09Z</time>
      </trkpt>
      <trkpt lat="49.96534" lon="2.29898">
        <ele>76.5</ele>
        <time>2022-12-28T15:15:10Z</time>
      </trkpt>
      <trkpt lat="49.96535" lon="2.29899">
        <ele>76.5</ele>
        <time>2022-12-28T15:15:11Z</time>
      </trkpt>
      <trkpt lat="49.96537" lon="2.29899">
        <ele>76.5</ele>
        <time>2022-12-28T15:15:12Z</time>
      </trkpt>
      <trkpt lat="49.96538" lon="2.29899">
        <ele>76.5</ele>
        <time>2022-12-28T15:15:13Z</time>
      </trkpt>
      <trkpt lat="49.96539" lon="2.29899">
        <ele>76.5</ele>
        <time>2022-12-28T15:15:14Z</time>
      </trkpt>
      <trkpt lat="49.9654" lon="2.299">
        <ele>76.5</ele>
        <time>2022-12-28T15:15:15Z</time>
      </trkpt>
      <trkpt lat="49.96543" lon="2.29901">
        <ele>76.6</ele>
        <time>2022-12-28T15:15:16Z</time>
      </trkpt>
      <trkpt lat="49.96544" lon="2.29901">
        <ele>76.6</ele>
        <time>2022-12-28T15:15:18Z</time>
      </trkpt>
      <trkpt lat="49.96545" lon="2.29901">
        <ele>76.6</ele>
        <time>2022-12-28T15:15:19Z</time>
      </trkpt>
      <trkpt lat="49.96546" lon="2.29901">
        <ele>76.6</ele>
        <time>2022-12-28T15:15:20Z</time>
      </trkpt>
      <trkpt lat="49.96547" lon="2.29901">
        <ele>76.6</ele>
        <time>2022-12-28T15:15:21Z</time>
      </trkpt>
      <trkpt lat="49.96549" lon="2.29902">
        <ele>76.6</ele>
        <time>2022-12-28T15:15:22Z</time>
      </trkpt>
      <trkpt lat="49.96549" lon="2.29902">
        <ele>76.6</ele>
        <time>2022-12-28T15:15:23Z</time>
      </trkpt>
      <trkpt lat="49.9655" lon="2.29902">
        <ele>76.7</ele>
        <time>2022-12-28T15:15:24Z</time>
      </trkpt>
      <trkpt lat="49.96552" lon="2.29903">
        <ele>76.7</ele>
        <time>2022-12-28T15:15:25Z</time>
      </trkpt>
      <trkpt lat="49.96553" lon="2.29904">
        <ele>76.7</ele>
        <time>2022-12-28T15:15:27Z</time>
      </trkpt>
      <trkpt lat="49.96554" lon="2.29904">
        <ele>76.7</ele>
        <time>2022-12-28T15:15:28Z</time>
      </trkpt>
      <trkpt lat="49.96555" lon="2.29904">
        <ele>76.7</ele>
        <time>2022-12-28T15:15:29Z</time>
      </trkpt>
      <trkpt lat="49.96556" lon="2.29905">
        <ele>76.7</ele>
        <time>2022-12-28T15:15:30Z</time>
      </trkpt>
      <trkpt lat="49.96557" lon="2.29905">
        <ele>76.7</ele>
        <time>2022-12-28T15:15:31Z</time>
      </trkpt>
      <trkpt lat="49.96559" lon="2.29906">
        <ele>76.8</ele>
        <time>2022-12-28T15:15:33Z</time>
      </trkpt>
      <trkpt lat="49.9656" lon="2.29906">
        <ele>76.8</ele>
        <time>2022-12-28T15:15:34Z</time>
      </trkpt>
      <trkpt lat="49.9656" lon="2.29906">
        <ele>76.8</ele>
        <time>2022-12-28T15:15:35Z</time>
      </trkpt>
      <trkpt lat="49.96562" lon="2.29906">
        <ele>76.8</ele>
        <time>2022-12-28T15:15:36Z</time>
      </trkpt>
      <trkpt lat="49.96563" lon="2.29906">
        <ele>76.8</ele>
        <time>2022-12-28T15:15:37Z</time>
      </trkpt>
      <trkpt lat="49.96564" lon="2.29906">
        <ele>76.8</ele>
        <time>2022-12-28T15:15:38Z</time>
      </trkpt>
      <trkpt lat="49.96566" lon="2.29904">
        <ele>76.9</ele>
        <time>2022-12-28T15:15:40Z</time>
      </trkpt>
      <trkpt lat="49.96567" lon="2.29903">
        <ele>76.9</ele>
        <time>2022-12-28T15:15:41Z</time>
      </trkpt>
      <trkpt lat="49.96567" lon="2.29902">
        <ele>76.9</ele>
        <time>2022-12-28T15:15:42Z</time>
      </trkpt>
      <trkpt lat="49.96567" lon="2.29902">
        <ele>76.9</ele>
        <time>2022-12-28T15:15:44Z</time>
      </trkpt>
      <trkpt lat="49.96567" lon="2.29902">
        <ele>76.9</ele>
        <time>2022-12-28T15:15:45Z</time>
      </trkpt>
      <trkpt lat="49.96567" lon="2.29903">
        <ele>76.9</ele>
        <time>2022-12-28T15:15:46Z</time>
      </trkpt>
      <trkpt lat="49.96567" lon="2.29903">
        <ele>76.9</ele>
        <time>2022-12-28T15:15:47Z</time>
      </trkpt>
      <trkpt lat="49.96568" lon="2.29903">
        <ele>76.9</ele>
        <time>2022-12-28T15:15:49Z</time>
      </trkpt>
      <trkpt lat="49.96568" lon="2.29903">
        <ele>76.9</ele>
        <time>2022-12-28T15:15:50Z</time>
      </trkpt>
      <trkpt lat="49.96569" lon="2.29903">
        <ele>76.9</ele>
        <time>2022-12-28T15:15:51Z</time>
      </trkpt>
      <trkpt lat="49.9657" lon="2.29904">
        <ele>76.9</ele>
        <time>2022-12-28T15:15:52Z</time>
      </trkpt>
      <trkpt lat="49.96571" lon="2.29904">
        <ele>77</ele>
        <time>2022-12-28T15:15:53Z</time>
      </trkpt>
      <trkpt lat="49.96572" lon="2.29904">
        <ele>77</ele>
        <time>2022-12-28T15:15:54Z</time>
      </trkpt>
      <trkpt lat="49.96573" lon="2.29904">
        <ele>77</ele>
        <time>2022-12-28T15:15:55Z</time>
      </trkpt>
      <trkpt lat="49.96574" lon="2.29905">
        <ele>77</ele>
        <time>2022-12-28T15:15:56Z</time>
      </trkpt>
      <trkpt lat="49.96576" lon="2.29905">
        <ele>77</ele>
        <time>2022-12-28T15:15:58Z</time>
      </trkpt>
      <trkpt lat="49.96577" lon="2.29905">
        <ele>77.1</ele>
        <time>2022-12-28T15:15:59Z</time>
      </trkpt>
      <trkpt lat="49.96578" lon="2.29905">
        <ele>77.1</ele>
        <time>2022-12-28T15:16:00Z</time>
      </trkpt>
      <trkpt lat="49.96579" lon="2.29906">
        <ele>77.1</ele>
        <time>2022-12-28T15:16:01Z</time>
      </trkpt>
      <trkpt lat="49.96582" lon="2.29907">
        <ele>77.2</ele>
        <time>2022-12-28T15:16:02Z</time>
      </trkpt>
      <trkpt lat="49.96582" lon="2.29907">
        <ele>77.2</ele>
        <time>2022-12-28T15:16:03Z</time>
      </trkpt>
      <trkpt lat="49.96583" lon="2.29907">
        <ele>77.2</ele>
        <time>2022-12-28T15:16:04Z</time>
      </trkpt>
      <trkpt lat="49.96584" lon="2.29907">
        <ele>77.2</ele>
        <time>2022-12-28T15:16:05Z</time>
      </trkpt>
      <trkpt lat="49.96585" lon="2.29907">
        <ele>77.2</ele>
        <time>2022-12-28T15:16:07Z</time>
      </trkpt>
      <trkpt lat="49.96585" lon="2.29908">
        <ele>77.2</ele>
        <time>2022-12-28T15:16:08Z</time>
      </trkpt>
      <trkpt lat="49.96586" lon="2.29908">
        <ele>77.3</ele>
        <time>2022-12-28T15:16:09Z</time>
      </trkpt>
      <trkpt lat="49.96588" lon="2.29908">
        <ele>77.3</ele>
        <time>2022-12-28T15:16:10Z</time>
      </trkpt>
      <trkpt lat="49.96589" lon="2.29909">
        <ele>77.3</ele>
        <time>2022-12-28T15:16:11Z</time>
      </trkpt>
      <trkpt lat="49.96591" lon="2.2991">
        <ele>77.4</ele>
        <time>2022-12-28T15:16:12Z</time>
      </trkpt>
      <trkpt lat="49.96592" lon="2.2991">
        <ele>77.4</ele>
        <time>2022-12-28T15:16:13Z</time>
      </trkpt>
      <trkpt lat="49.96593" lon="2.2991">
        <ele>77.4</ele>
        <time>2022-12-28T15:16:14Z</time>
      </trkpt>
      <trkpt lat="49.96594" lon="2.2991">
        <ele>77.4</ele>
        <time>2022-12-28T15:16:15Z</time>
      </trkpt>
      <trkpt lat="49.96595" lon="2.29911">
        <ele>77.5</ele>
        <time>2022-12-28T15:16:17Z</time>
      </trkpt>
      <trkpt lat="49.96598" lon="2.29909">
        <ele>77.5</ele>
        <time>2022-12-28T15:16:18Z</time>
      </trkpt>
      <trkpt lat="49.96599" lon="2.29909">
        <ele>77.5</ele>
        <time>2022-12-28T15:16:19Z</time>
      </trkpt>
      <trkpt lat="49.966" lon="2.29909">
        <ele>77.6</ele>
        <time>2022-12-28T15:16:20Z</time>
      </trkpt>
      <trkpt lat="49.96601" lon="2.29909">
        <ele>77.6</ele>
        <time>2022-12-28T15:16:21Z</time>
      </trkpt>
      <trkpt lat="49.96602" lon="2.2991">
        <ele>77.6</ele>
        <time>2022-12-28T15:16:22Z</time>
      </trkpt>
      <trkpt lat="49.96602" lon="2.29912">
        <ele>77.6</ele>
        <time>2022-12-28T15:16:23Z</time>
      </trkpt>
      <trkpt lat="49.96602" lon="2.29912">
        <ele>77.7</ele>
        <time>2022-12-28T15:16:24Z</time>
      </trkpt>
      <trkpt lat="49.96603" lon="2.29912">
        <ele>77.7</ele>
        <time>2022-12-28T15:16:26Z</time>
      </trkpt>
      <trkpt lat="49.96604" lon="2.29913">
        <ele>77.7</ele>
        <time>2022-12-28T15:16:27Z</time>
      </trkpt>
      <trkpt lat="49.96605" lon="2.29913">
        <ele>77.7</ele>
        <time>2022-12-28T15:16:28Z</time>
      </trkpt>
      <trkpt lat="49.96606" lon="2.29913">
        <ele>77.7</ele>
        <time>2022-12-28T15:16:29Z</time>
      </trkpt>
      <trkpt lat="49.96607" lon="2.29914">
        <ele>77.7</ele>
        <time>2022-12-28T15:16:30Z</time>
      </trkpt>
      <trkpt lat="49.96609" lon="2.29914">
        <ele>77.7</ele>
        <time>2022-12-28T15:16:31Z</time>
      </trkpt>
      <trkpt lat="49.9661" lon="2.29914">
        <ele>77.7</ele>
        <time>2022-12-28T15:16:32Z</time>
      </trkpt>
      <trkpt lat="49.9661" lon="2.29914">
        <ele>77.7</ele>
        <time>2022-12-28T15:16:33Z</time>
      </trkpt>
      <trkpt lat="49.96613" lon="2.29915">
        <ele>77.7</ele>
        <time>2022-12-28T15:16:35Z</time>
      </trkpt>
      <trkpt lat="49.96614" lon="2.29916">
        <ele>77.8</ele>
        <time>2022-12-28T15:16:36Z</time>
      </trkpt>
      <trkpt lat="49.96614" lon="2.29918">
        <ele>77.8</ele>
        <time>2022-12-28T15:16:37Z</time>
      </trkpt>
      <trkpt lat="49.96615" lon="2.2992">
        <ele>77.8</ele>
        <time>2022-12-28T15:16:38Z</time>
      </trkpt>
      <trkpt lat="49.96615" lon="2.29921">
        <ele>77.8</ele>
        <time>2022-12-28T15:16:39Z</time>
      </trkpt>
      <trkpt lat="49.96615" lon="2.29923">
        <ele>77.8</ele>
        <time>2022-12-28T15:16:41Z</time>
      </trkpt>
      <trkpt lat="49.96615" lon="2.29924">
        <ele>77.8</ele>
        <time>2022-12-28T15:16:42Z</time>
      </trkpt>
      <trkpt lat="49.96615" lon="2.29925">
        <ele>77.8</ele>
        <time>2022-12-28T15:16:43Z</time>
      </trkpt>
      <trkpt lat="49.96615" lon="2.29927">
        <ele>77.8</ele>
        <time>2022-12-28T15:16:44Z</time>
      </trkpt>
      <trkpt lat="49.96615" lon="2.29929">
        <ele>77.8</ele>
        <time>2022-12-28T15:16:45Z</time>
      </trkpt>
      <trkpt lat="49.96615" lon="2.2993">
        <ele>77.8</ele>
        <time>2022-12-28T15:16:46Z</time>
      </trkpt>
      <trkpt lat="49.96615" lon="2.29931">
        <ele>77.8</ele>
        <time>2022-12-28T15:16:48Z</time>
      </trkpt>
      <trkpt lat="49.96615" lon="2.29931">
        <ele>77.8</ele>
        <time>2022-12-28T15:16:49Z</time>
      </trkpt>
      <trkpt lat="49.96615" lon="2.29931">
        <ele>77.8</ele>
        <time>2022-12-28T15:16:51Z</time>
      </trkpt>
      <trkpt lat="49.96616" lon="2.2993">
        <ele>77.8</ele>
        <time>2022-12-28T15:16:52Z</time>
      </trkpt>
      <trkpt lat="49.96616" lon="2.2993">
        <ele>77.8</ele>
        <time>2022-12-28T15:16:53Z</time>
      </trkpt>
      <trkpt lat="49.96617" lon="2.2993">
        <ele>77.8</ele>
        <time>2022-12-28T15:16:55Z</time>
      </trkpt>
      <trkpt lat="49.96618" lon="2.29931">
        <ele>77.8</ele>
        <time>2022-12-28T15:16:56Z</time>
      </trkpt>
      <trkpt lat="49.96619" lon="2.2993">
        <ele>77.8</ele>
        <time>2022-12-28T15:16:57Z</time>
      </trkpt>
      <trkpt lat="49.9662" lon="2.29929">
        <ele>77.9</ele>
        <time>2022-12-28T15:16:58Z</time>
      </trkpt>
      <trkpt lat="49.96621" lon="2.29928">
        <ele>77.9</ele>
        <time>2022-12-28T15:16:59Z</time>
      </trkpt>
      <trkpt lat="49.96622" lon="2.29927">
        <ele>77.9</ele>
        <time>2022-12-28T15:17:00Z</time>
      </trkpt>
      <trkpt lat="49.96623" lon="2.29926">
        <ele>77.9</ele>
        <time>2022-12-28T15:17:01Z</time>
      </trkpt>
      <trkpt lat="49.96625" lon="2.29923">
        <ele>77.9</ele>
        <time>2022-12-28T15:17:02Z</time>
      </trkpt>
      <trkpt lat="49.96626" lon="2.29922">
        <ele>77.9</ele>
        <time>2022-12-28T15:17:04Z</time>
      </trkpt>
      <trkpt lat="49.96627" lon="2.29921">
        <ele>77.9</ele>
        <time>2022-12-28T15:17:05Z</time>
      </trkpt>
      <trkpt lat="49.96626" lon="2.2992">
        <ele>77.9</ele>
        <time>2022-12-28T15:17:06Z</time>
      </trkpt>
      <trkpt lat="49.96623" lon="2.29919">
        <ele>77.9</ele>
        <time>2022-12-28T15:17:07Z</time>
      </trkpt>
      <trkpt lat="49.96623" lon="2.29919">
        <ele>77.9</ele>
        <time>2022-12-28T15:17:09Z</time>
      </trkpt>
      <trkpt lat="49.96623" lon="2.29919">
        <ele>77.9</ele>
        <time>2022-12-28T15:17:10Z</time>
      </trkpt>
      <trkpt lat="49.96622" lon="2.29919">
        <ele>77.9</ele>
        <time>2022-12-28T15:17:11Z</time>
      </trkpt>
      <trkpt lat="49.96623" lon="2.29918">
        <ele>77.9</ele>
        <time>2022-12-28T15:17:13Z</time>
      </trkpt>
      <trkpt lat="49.96624" lon="2.29918">
        <ele>77.9</ele>
        <time>2022-12-28T15:17:15Z</time>
      </trkpt>
      <trkpt lat="49.96624" lon="2.29918">
        <ele>78</ele>
        <time>2022-12-28T15:17:16Z</time>
      </trkpt>
      <trkpt lat="49.96624" lon="2.29918">
        <ele>78</ele>
        <time>2022-12-28T15:17:17Z</time>
      </trkpt>
      <trkpt lat="49.96626" lon="2.29918">
        <ele>78</ele>
        <time>2022-12-28T15:17:18Z</time>
      </trkpt>
      <trkpt lat="49.96626" lon="2.29918">
        <ele>78</ele>
        <time>2022-12-28T15:17:19Z</time>
      </trkpt>
      <trkpt lat="49.96626" lon="2.29918">
        <ele>78</ele>
        <time>2022-12-28T15:17:21Z</time>
      </trkpt>
      <trkpt lat="49.96624" lon="2.2992">
        <ele>78</ele>
        <time>2022-12-28T15:17:22Z</time>
      </trkpt>
      <trkpt lat="49.96622" lon="2.29921">
        <ele>78</ele>
        <time>2022-12-28T15:17:24Z</time>
      </trkpt>
      <trkpt lat="49.96621" lon="2.29921">
        <ele>78</ele>
        <time>2022-12-28T15:17:25Z</time>
      </trkpt>
      <trkpt lat="49.96621" lon="2.29921">
        <ele>78</ele>
        <time>2022-12-28T15:17:26Z</time>
      </trkpt>
      <trkpt lat="49.9662" lon="2.29921">
        <ele>78</ele>
        <time>2022-12-28T15:17:28Z</time>
      </trkpt>
      <trkpt lat="49.9662" lon="2.29921">
        <ele>78</ele>
        <time>2022-12-28T15:17:29Z</time>
      </trkpt>
      <trkpt lat="49.96619" lon="2.29922">
        <ele>78</ele>
        <time>2022-12-28T15:17:31Z</time>
      </trkpt>
      <trkpt lat="49.96619" lon="2.29922">
        <ele>78</ele>
        <time>2022-12-28T15:17:32Z</time>
      </trkpt>
      <trkpt lat="49.96619" lon="2.29922">
        <ele>78</ele>
        <time>2022-12-28T15:17:34Z</time>
      </trkpt>
      <trkpt lat="49.96619" lon="2.29923">
        <ele>78</ele>
        <time>2022-12-28T15:17:35Z</time>
      </trkpt>
      <trkpt lat="49.96619" lon="2.29923">
        <ele>78</ele>
        <time>2022-12-28T15:17:36Z</time>
      </trkpt>
      <trkpt lat="49.96619" lon="2.29922">
        <ele>78</ele>
        <time>2022-12-28T15:17:38Z</time>
      </trkpt>
      <trkpt lat="49.96619" lon="2.29923">
        <ele>78</ele>
        <time>2022-12-28T15:17:39Z</time>
      </trkpt>
      <trkpt lat="49.96619" lon="2.29923">
        <ele>78</ele>
        <time>2022-12-28T15:17:41Z</time>
      </trkpt>
      <trkpt lat="49.96618" lon="2.29923">
        <ele>78</ele>
        <time>2022-12-28T15:17:42Z</time>
      </trkpt>
      <trkpt lat="49.96618" lon="2.29923">
        <ele>78</ele>
        <time>2022-12-28T15:17:44Z</time>
      </trkpt>
      <trkpt lat="49.96618" lon="2.29924">
        <ele>78</ele>
        <time>2022-12-28T15:17:45Z</time>
      </trkpt>
      <trkpt lat="49.96618" lon="2.29924">
        <ele>78</ele>
        <time>2022-12-28T15:17:46Z</time>
      </trkpt>
      <trkpt lat="49.96619" lon="2.29923">
        <ele>78</ele>
        <time>2022-12-28T15:17:48Z</time>
      </trkpt>
      <trkpt lat="49.96619" lon="2.29924">
        <ele>78.1</ele>
        <time>2022-12-28T15:17:49Z</time>
      </trkpt>
      <trkpt lat="49.96619" lon="2.29924">
        <ele>78.1</ele>
        <time>2022-12-28T15:17:51Z</time>
      </trkpt>
      <trkpt lat="49.96619" lon="2.29924">
        <ele>78.1</ele>
        <time>2022-12-28T15:17:52Z</time>
      </trkpt>
      <trkpt lat="49.96619" lon="2.29924">
        <ele>78.1</ele>
        <time>2022-12-28T15:17:53Z</time>
      </trkpt>
      <trkpt lat="49.96619" lon="2.29924">
        <ele>78.1</ele>
        <time>2022-12-28T15:17:55Z</time>
      </trkpt>
      <trkpt lat="49.9662" lon="2.29924">
        <ele>78.1</ele>
        <time>2022-12-28T15:17:56Z</time>
      </trkpt>
      <trkpt lat="49.9662" lon="2.29924">
        <ele>78.1</ele>
        <time>2022-12-28T15:17:57Z</time>
      </trkpt>
      <trkpt lat="49.96621" lon="2.29924">
        <ele>78.1</ele>
        <time>2022-12-28T15:17:58Z</time>
      </trkpt>
      <trkpt lat="49.96622" lon="2.29923">
        <ele>78.1</ele>
        <time>2022-12-28T15:18:00Z</time>
      </trkpt>
      <trkpt lat="49.96623" lon="2.29923">
        <ele>78.1</ele>
        <time>2022-12-28T15:18:02Z</time>
      </trkpt>
      <trkpt lat="49.96625" lon="2.29922">
        <ele>78.1</ele>
        <time>2022-12-28T15:18:03Z</time>
      </trkpt>
      <trkpt lat="49.96626" lon="2.29921">
        <ele>78.1</ele>
        <time>2022-12-28T15:18:04Z</time>
      </trkpt>
      <trkpt lat="49.96628" lon="2.2992">
        <ele>78.1</ele>
        <time>2022-12-28T15:18:06Z</time>
      </trkpt>
      <trkpt lat="49.96628" lon="2.2992">
        <ele>78.1</ele>
        <time>2022-12-28T15:18:07Z</time>
      </trkpt>
      <trkpt lat="49.96628" lon="2.29919">
        <ele>78.1</ele>
        <time>2022-12-28T15:18:09Z</time>
      </trkpt>
      <trkpt lat="49.96628" lon="2.29919">
        <ele>78.1</ele>
        <time>2022-12-28T15:18:10Z</time>
      </trkpt>
      <trkpt lat="49.96628" lon="2.29919">
        <ele>78.1</ele>
        <time>2022-12-28T15:18:12Z</time>
      </trkpt>
      <trkpt lat="49.96628" lon="2.29919">
        <ele>78.1</ele>
        <time>2022-12-28T15:18:13Z</time>
      </trkpt>
      <trkpt lat="49.96628" lon="2.29919">
        <ele>78.1</ele>
        <time>2022-12-28T15:18:15Z</time>
      </trkpt>
      <trkpt lat="49.96628" lon="2.29919">
        <ele>78.1</ele>
        <time>2022-12-28T15:18:16Z</time>
      </trkpt>
      <trkpt lat="49.96628" lon="2.29919">
        <ele>78.1</ele>
        <time>2022-12-28T15:18:17Z</time>
      </trkpt>
      <trkpt lat="49.96628" lon="2.29919">
        <ele>78.1</ele>
        <time>2022-12-28T15:18:19Z</time>
      </trkpt>
      <trkpt lat="49.96627" lon="2.29921">
        <ele>78.2</ele>
        <time>2022-12-28T15:18:20Z</time>
      </trkpt>
      <trkpt lat="49.96627" lon="2.29922">
        <ele>78.2</ele>
        <time>2022-12-28T15:18:21Z</time>
      </trkpt>
      <trkpt lat="49.96627" lon="2.29922">
        <ele>78.2</ele>
        <time>2022-12-28T15:18:22Z</time>
      </trkpt>
      <trkpt lat="49.96627" lon="2.29922">
        <ele>78.2</ele>
        <time>2022-12-28T15:18:23Z</time>
      </trkpt>
      <trkpt lat="49.96628" lon="2.29922">
        <ele>78.2</ele>
        <time>2022-12-28T15:18:24Z</time>
      </trkpt>
      <trkpt lat="49.96628" lon="2.29922">
        <ele>78.2</ele>
        <time>2022-12-28T15:18:25Z</time>
      </trkpt>
      <trkpt lat="49.96628" lon="2.29922">
        <ele>78.2</ele>
        <time>2022-12-28T15:18:26Z</time>
      </trkpt>
      <trkpt lat="49.96628" lon="2.29922">
        <ele>78.2</ele>
        <time>2022-12-28T15:18:27Z</time>
      </trkpt>
      <trkpt lat="49.96628" lon="2.29922">
        <ele>78.2</ele>
        <time>2022-12-28T15:18:28Z</time>
      </trkpt>
      <trkpt lat="49.96628" lon="2.29922">
        <ele>78.2</ele>
        <time>2022-12-28T15:18:29Z</time>
      </trkpt>
      <trkpt lat="49.96628" lon="2.29922">
        <ele>78.2</ele>
        <time>2022-12-28T15:18:30Z</time>
      </trkpt>
      <trkpt lat="49.96628" lon="2.29922">
        <ele>78.2</ele>
        <time>2022-12-28T15:18:31Z</time>
      </trkpt>
      <trkpt lat="49.96628" lon="2.29922">
        <ele>78.2</ele>
        <time>2022-12-28T15:18:32Z</time>
      </trkpt>
      <trkpt lat="49.96628" lon="2.29922">
        <ele>78.2</ele>
        <time>2022-12-28T15:18:33Z</time>
      </trkpt>
      <trkpt lat="49.96628" lon="2.29922">
        <ele>78.2</ele>
        <time>2022-12-28T15:18:34Z</time>
      </trkpt>
      <trkpt lat="49.96628" lon="2.29922">
        <ele>78.2</ele>
        <time>2022-12-28T15:18:35Z</time>
      </trkpt>
      <trkpt lat="49.96628" lon="2.29922">
        <ele>78.2</ele>
        <time>2022-12-28T15:18:36Z</time>
      </trkpt>
      <trkpt lat="49.96629" lon="2.29923">
        <ele>78.2</ele>
        <time>2022-12-28T15:18:37Z</time>
      </trkpt>
      <trkpt lat="49.96629" lon="2.29923">
        <ele>78.2</ele>
        <time>2022-12-28T15:18:38Z</time>
      </trkpt>
      <trkpt lat="49.96629" lon="2.29923">
        <ele>78.2</ele>
        <time>2022-12-28T15:18:39Z</time>
      </trkpt>
      <trkpt lat="49.96629" lon="2.29923">
        <ele>78.2</ele>
        <time>2022-12-28T15:18:40Z</time>
      </trkpt>
      <trkpt lat="49.96631" lon="2.29921">
        <ele>78.2</ele>
        <time>2022-12-28T15:18:41Z</time>
      </trkpt>
      <trkpt lat="49.96632" lon="2.29918">
        <ele>78.2</ele>
        <time>2022-12-28T15:18:43Z</time>
      </trkpt>
      <trkpt lat="49.96632" lon="2.29917">
        <ele>78.2</ele>
        <time>2022-12-28T15:18:45Z</time>
      </trkpt>
      <trkpt lat="49.96631" lon="2.29917">
        <ele>78.2</ele>
        <time>2022-12-28T15:18:46Z</time>
      </trkpt>
      <trkpt lat="49.96631" lon="2.29918">
        <ele>78.2</ele>
        <time>2022-12-28T15:18:48Z</time>
      </trkpt>
      <trkpt lat="49.9663" lon="2.29919">
        <ele>78.2</ele>
        <time>2022-12-28T15:18:49Z</time>
      </trkpt>
      <trkpt lat="49.9663" lon="2.2992">
        <ele>78.2</ele>
        <time>2022-12-28T15:18:50Z</time>
      </trkpt>
      <trkpt lat="49.9663" lon="2.2992">
        <ele>78.3</ele>
        <time>2022-12-28T15:18:52Z</time>
      </trkpt>
      <trkpt lat="49.9663" lon="2.2992">
        <ele>78.3</ele>
        <time>2022-12-28T15:18:53Z</time>
      </trkpt>
      <trkpt lat="49.9663" lon="2.29921">
        <ele>78.3</ele>
        <time>2022-12-28T15:18:55Z</time>
      </trkpt>
      <trkpt lat="49.9663" lon="2.29921">
        <ele>78.3</ele>
        <time>2022-12-28T15:18:56Z</time>
      </trkpt>
      <trkpt lat="49.9663" lon="2.29921">
        <ele>78.3</ele>
        <time>2022-12-28T15:18:58Z</time>
      </trkpt>
      <trkpt lat="49.96629" lon="2.29921">
        <ele>78.3</ele>
        <time>2022-12-28T15:18:59Z</time>
      </trkpt>
      <trkpt lat="49.96629" lon="2.29921">
        <ele>78.3</ele>
        <time>2022-12-28T15:19:00Z</time>
      </trkpt>
      <trkpt lat="49.96629" lon="2.29922">
        <ele>78.3</ele>
        <time>2022-12-28T15:19:02Z</time>
      </trkpt>
      <trkpt lat="49.9663" lon="2.29922">
        <ele>78.3</ele>
        <time>2022-12-28T15:19:03Z</time>
      </trkpt>
      <trkpt lat="49.9663" lon="2.29922">
        <ele>78.3</ele>
        <time>2022-12-28T15:19:04Z</time>
      </trkpt>
      <trkpt lat="49.9663" lon="2.29922">
        <ele>78.3</ele>
        <time>2022-12-28T15:19:05Z</time>
      </trkpt>
      <trkpt lat="49.9663" lon="2.29922">
        <ele>78.3</ele>
        <time>2022-12-28T15:19:06Z</time>
      </trkpt>
      <trkpt lat="49.9663" lon="2.29922">
        <ele>78.3</ele>
        <time>2022-12-28T15:19:07Z</time>
      </trkpt>
      <trkpt lat="49.9663" lon="2.29922">
        <ele>78.3</ele>
        <time>2022-12-28T15:19:08Z</time>
      </trkpt>
      <trkpt lat="49.9663" lon="2.29922">
        <ele>78.3</ele>
        <time>2022-12-28T15:19:09Z</time>
      </trkpt>
      <trkpt lat="49.9663" lon="2.29922">
        <ele>78.3</ele>
        <time>2022-12-28T15:19:10Z</time>
      </trkpt>
      <trkpt lat="49.9663" lon="2.29922">
        <ele>78.3</ele>
        <time>2022-12-28T15:19:11Z</time>
      </trkpt>
      <trkpt lat="49.9663" lon="2.29922">
        <ele>78.3</ele>
        <time>2022-12-28T15:19:12Z</time>
      </trkpt>
      <trkpt lat="49.9663" lon="2.29922">
        <ele>78.3</ele>
        <time>2022-12-28T15:19:13Z</time>
      </trkpt>
      <trkpt lat="49.96631" lon="2.29922">
        <ele>78.3</ele>
        <time>2022-12-28T15:19:14Z</time>
      </trkpt>
      <trkpt lat="49.96631" lon="2.29922">
        <ele>78.3</ele>
        <time>2022-12-28T15:19:15Z</time>
      </trkpt>
      <trkpt lat="49.96631" lon="2.29923">
        <ele>78.3</ele>
        <time>2022-12-28T15:19:16Z</time>
      </trkpt>
      <trkpt lat="49.96631" lon="2.29923">
        <ele>78.3</ele>
        <time>2022-12-28T15:19:17Z</time>
      </trkpt>
      <trkpt lat="49.96631" lon="2.29922">
        <ele>78.3</ele>
        <time>2022-12-28T15:19:18Z</time>
      </trkpt>
      <trkpt lat="49.96631" lon="2.29923">
        <ele>78.3</ele>
        <time>2022-12-28T15:19:19Z</time>
      </trkpt>
      <trkpt lat="49.9663" lon="2.29923">
        <ele>78.3</ele>
        <time>2022-12-28T15:19:20Z</time>
      </trkpt>
      <trkpt lat="49.96631" lon="2.29923">
        <ele>78.3</ele>
        <time>2022-12-28T15:19:21Z</time>
      </trkpt>
      <trkpt lat="49.96631" lon="2.29923">
        <ele>78.3</ele>
        <time>2022-12-28T15:19:22Z</time>
      </trkpt>
      <trkpt lat="49.96631" lon="2.29923">
        <ele>78.3</ele>
        <time>2022-12-28T15:19:23Z</time>
      </trkpt>
      <trkpt lat="49.96631" lon="2.29923">
        <ele>78.3</ele>
        <time>2022-12-28T15:19:24Z</time>
      </trkpt>
      <trkpt lat="49.9663" lon="2.29922">
        <ele>78.3</ele>
        <time>2022-12-28T15:19:25Z</time>
      </trkpt>
      <trkpt lat="49.9663" lon="2.29922">
        <ele>78.3</ele>
        <time>2022-12-28T15:19:26Z</time>
      </trkpt>
      <trkpt lat="49.9663" lon="2.29922">
        <ele>78.3</ele>
        <time>2022-12-28T15:19:27Z</time>
      </trkpt>
      <trkpt lat="49.9663" lon="2.29923">
        <ele>78.3</ele>
        <time>2022-12-28T15:19:28Z</time>
      </trkpt>
      <trkpt lat="49.9663" lon="2.29923">
        <ele>78.3</ele>
        <time>2022-12-28T15:19:29Z</time>
      </trkpt>
      <trkpt lat="49.9663" lon="2.29923">
        <ele>78.3</ele>
        <time>2022-12-28T15:19:30Z</time>
      </trkpt>
      <trkpt lat="49.9663" lon="2.29922">
        <ele>78.3</ele>
        <time>2022-12-28T15:19:31Z</time>
      </trkpt>
      <trkpt lat="49.96631" lon="2.29921">
        <ele>78.3</ele>
        <time>2022-12-28T15:19:32Z</time>
      </trkpt>
      <trkpt lat="49.96632" lon="2.29921">
        <ele>78.3</ele>
        <time>2022-12-28T15:19:34Z</time>
      </trkpt>
      <trkpt lat="49.96633" lon="2.29921">
        <ele>78.3</ele>
        <time>2022-12-28T15:19:36Z</time>
      </trkpt>
      <trkpt lat="49.96634" lon="2.29921">
        <ele>78.3</ele>
        <time>2022-12-28T15:19:37Z</time>
      </trkpt>
      <trkpt lat="49.96634" lon="2.29921">
        <ele>78.3</ele>
        <time>2022-12-28T15:19:38Z</time>
      </trkpt>
      <trkpt lat="49.96634" lon="2.29921">
        <ele>78.3</ele>
        <time>2022-12-28T15:19:39Z</time>
      </trkpt>
      <trkpt lat="49.96634" lon="2.2992">
        <ele>78.3</ele>
        <time>2022-12-28T15:19:40Z</time>
      </trkpt>
      <trkpt lat="49.96633" lon="2.29919">
        <ele>78.3</ele>
        <time>2022-12-28T15:19:42Z</time>
      </trkpt>
      <trkpt lat="49.96633" lon="2.29919">
        <ele>78.3</ele>
        <time>2022-12-28T15:19:43Z</time>
      </trkpt>
      <trkpt lat="49.96633" lon="2.29919">
        <ele>78.3</ele>
        <time>2022-12-28T15:19:45Z</time>
      </trkpt>
      <trkpt lat="49.96633" lon="2.29918">
        <ele>78.4</ele>
        <time>2022-12-28T15:19:46Z</time>
      </trkpt>
      <trkpt lat="49.96633" lon="2.29919">
        <ele>78.4</ele>
        <time>2022-12-28T15:19:47Z</time>
      </trkpt>
      <trkpt lat="49.96634" lon="2.29918">
        <ele>78.4</ele>
        <time>2022-12-28T15:19:48Z</time>
      </trkpt>
      <trkpt lat="49.96634" lon="2.29919">
        <ele>78.4</ele>
        <time>2022-12-28T15:19:50Z</time>
      </trkpt>
      <trkpt lat="49.96636" lon="2.29918">
        <ele>78.4</ele>
        <time>2022-12-28T15:19:51Z</time>
      </trkpt>
      <trkpt lat="49.96637" lon="2.29917">
        <ele>78.4</ele>
        <time>2022-12-28T15:19:52Z</time>
      </trkpt>
      <trkpt lat="49.96638" lon="2.29917">
        <ele>78.4</ele>
        <time>2022-12-28T15:19:53Z</time>
      </trkpt>
      <trkpt lat="49.96639" lon="2.29916">
        <ele>78.4</ele>
        <time>2022-12-28T15:19:54Z</time>
      </trkpt>
      <trkpt lat="49.96641" lon="2.29915">
        <ele>78.5</ele>
        <time>2022-12-28T15:19:56Z</time>
      </trkpt>
      <trkpt lat="49.96642" lon="2.29914">
        <ele>78.5</ele>
        <time>2022-12-28T15:19:57Z</time>
      </trkpt>
      <trkpt lat="49.96644" lon="2.29915">
        <ele>78.5</ele>
        <time>2022-12-28T15:19:58Z</time>
      </trkpt>
      <trkpt lat="49.96645" lon="2.29915">
        <ele>78.6</ele>
        <time>2022-12-28T15:19:59Z</time>
      </trkpt>
      <trkpt lat="49.96646" lon="2.29916">
        <ele>78.6</ele>
        <time>2022-12-28T15:20:00Z</time>
      </trkpt>
      <trkpt lat="49.96647" lon="2.29918">
        <ele>78.6</ele>
        <time>2022-12-28T15:20:01Z</time>
      </trkpt>
      <trkpt lat="49.96647" lon="2.29919">
        <ele>78.7</ele>
        <time>2022-12-28T15:20:03Z</time>
      </trkpt>
      <trkpt lat="49.96648" lon="2.2992">
        <ele>78.7</ele>
        <time>2022-12-28T15:20:04Z</time>
      </trkpt>
      <trkpt lat="49.96648" lon="2.29921">
        <ele>78.7</ele>
        <time>2022-12-28T15:20:05Z</time>
      </trkpt>
      <trkpt lat="49.96648" lon="2.29922">
        <ele>78.7</ele>
        <time>2022-12-28T15:20:06Z</time>
      </trkpt>
      <trkpt lat="49.96649" lon="2.29923">
        <ele>78.7</ele>
        <time>2022-12-28T15:20:07Z</time>
      </trkpt>
      <trkpt lat="49.96649" lon="2.29924">
        <ele>78.7</ele>
        <time>2022-12-28T15:20:08Z</time>
      </trkpt>
      <trkpt lat="49.96652" lon="2.29924">
        <ele>78.8</ele>
        <time>2022-12-28T15:20:09Z</time>
      </trkpt>
      <trkpt lat="49.96653" lon="2.29924">
        <ele>78.9</ele>
        <time>2022-12-28T15:20:10Z</time>
      </trkpt>
      <trkpt lat="49.96654" lon="2.29925">
        <ele>78.9</ele>
        <time>2022-12-28T15:20:12Z</time>
      </trkpt>
      <trkpt lat="49.96656" lon="2.29925">
        <ele>79</ele>
        <time>2022-12-28T15:20:13Z</time>
      </trkpt>
      <trkpt lat="49.96658" lon="2.29925">
        <ele>79</ele>
        <time>2022-12-28T15:20:14Z</time>
      </trkpt>
      <trkpt lat="49.96659" lon="2.29925">
        <ele>79.1</ele>
        <time>2022-12-28T15:20:15Z</time>
      </trkpt>
      <trkpt lat="49.9666" lon="2.29925">
        <ele>79.1</ele>
        <time>2022-12-28T15:20:16Z</time>
      </trkpt>
      <trkpt lat="49.96661" lon="2.29925">
        <ele>79.1</ele>
        <time>2022-12-28T15:20:18Z</time>
      </trkpt>
      <trkpt lat="49.96663" lon="2.29925">
        <ele>79.2</ele>
        <time>2022-12-28T15:20:19Z</time>
      </trkpt>
      <trkpt lat="49.96665" lon="2.29925">
        <ele>79.3</ele>
        <time>2022-12-28T15:20:20Z</time>
      </trkpt>
      <trkpt lat="49.96666" lon="2.29925">
        <ele>79.3</ele>
        <time>2022-12-28T15:20:21Z</time>
      </trkpt>
      <trkpt lat="49.96667" lon="2.29924">
        <ele>79.3</ele>
        <time>2022-12-28T15:20:22Z</time>
      </trkpt>
      <trkpt lat="49.96668" lon="2.29924">
        <ele>79.4</ele>
        <time>2022-12-28T15:20:23Z</time>
      </trkpt>
      <trkpt lat="49.9667" lon="2.29925">
        <ele>79.4</ele>
        <time>2022-12-28T15:20:25Z</time>
      </trkpt>
      <trkpt lat="49.96671" lon="2.29926">
        <ele>79.5</ele>
        <time>2022-12-28T15:20:26Z</time>
      </trkpt>
      <trkpt lat="49.96671" lon="2.29927">
        <ele>79.5</ele>
        <time>2022-12-28T15:20:27Z</time>
      </trkpt>
      <trkpt lat="49.96672" lon="2.29927">
        <ele>79.6</ele>
        <time>2022-12-28T15:20:28Z</time>
      </trkpt>
      <trkpt lat="49.96673" lon="2.29928">
        <ele>79.6</ele>
        <time>2022-12-28T15:20:29Z</time>
      </trkpt>
      <trkpt lat="49.96674" lon="2.29928">
        <ele>79.6</ele>
        <time>2022-12-28T15:20:30Z</time>
      </trkpt>
      <trkpt lat="49.96675" lon="2.29929">
        <ele>79.7</ele>
        <time>2022-12-28T15:20:31Z</time>
      </trkpt>
      <trkpt lat="49.96677" lon="2.29929">
        <ele>79.8</ele>
        <time>2022-12-28T15:20:33Z</time>
      </trkpt>
      <trkpt lat="49.96678" lon="2.29929">
        <ele>79.8</ele>
        <time>2022-12-28T15:20:34Z</time>
      </trkpt>
      <trkpt lat="49.96679" lon="2.29929">
        <ele>79.8</ele>
        <time>2022-12-28T15:20:35Z</time>
      </trkpt>
      <trkpt lat="49.9668" lon="2.29929">
        <ele>79.9</ele>
        <time>2022-12-28T15:20:36Z</time>
      </trkpt>
      <trkpt lat="49.96682" lon="2.29929">
        <ele>79.9</ele>
        <time>2022-12-28T15:20:37Z</time>
      </trkpt>
      <trkpt lat="49.96683" lon="2.29929">
        <ele>80</ele>
        <time>2022-12-28T15:20:39Z</time>
      </trkpt>
      <trkpt lat="49.96685" lon="2.29928">
        <ele>80</ele>
        <time>2022-12-28T15:20:40Z</time>
      </trkpt>
      <trkpt lat="49.96686" lon="2.29929">
        <ele>80.1</ele>
        <time>2022-12-28T15:20:41Z</time>
      </trkpt>
      <trkpt lat="49.96687" lon="2.29929">
        <ele>80.1</ele>
        <time>2022-12-28T15:20:42Z</time>
      </trkpt>
      <trkpt lat="49.96688" lon="2.29929">
        <ele>80.2</ele>
        <time>2022-12-28T15:20:43Z</time>
      </trkpt>
      <trkpt lat="49.9669" lon="2.2993">
        <ele>80.3</ele>
        <time>2022-12-28T15:20:44Z</time>
      </trkpt>
      <trkpt lat="49.96691" lon="2.2993">
        <ele>80.3</ele>
        <time>2022-12-28T15:20:45Z</time>
      </trkpt>
      <trkpt lat="49.96694" lon="2.2993">
        <ele>80.4</ele>
        <time>2022-12-28T15:20:47Z</time>
      </trkpt>
      <trkpt lat="49.96695" lon="2.2993">
        <ele>80.5</ele>
        <time>2022-12-28T15:20:48Z</time>
      </trkpt>
      <trkpt lat="49.96696" lon="2.2993">
        <ele>80.5</ele>
        <time>2022-12-28T15:20:49Z</time>
      </trkpt>
      <trkpt lat="49.96696" lon="2.2993">
        <ele>80.5</ele>
        <time>2022-12-28T15:20:50Z</time>
      </trkpt>
      <trkpt lat="49.96697" lon="2.2993">
        <ele>80.6</ele>
        <time>2022-12-28T15:20:51Z</time>
      </trkpt>
      <trkpt lat="49.96698" lon="2.29931">
        <ele>80.6</ele>
        <time>2022-12-28T15:20:52Z</time>
      </trkpt>
      <trkpt lat="49.96699" lon="2.2993">
        <ele>80.7</ele>
        <time>2022-12-28T15:20:53Z</time>
      </trkpt>
      <trkpt lat="49.967" lon="2.29931">
        <ele>80.7</ele>
        <time>2022-12-28T15:20:55Z</time>
      </trkpt>
      <trkpt lat="49.96698" lon="2.29933">
        <ele>80.8</ele>
        <time>2022-12-28T15:20:56Z</time>
      </trkpt>
      <trkpt lat="49.96698" lon="2.29934">
        <ele>80.8</ele>
        <time>2022-12-28T15:20:57Z</time>
      </trkpt>
      <trkpt lat="49.967" lon="2.29935">
        <ele>80.9</ele>
        <time>2022-12-28T15:20:58Z</time>
      </trkpt>
      <trkpt lat="49.96703" lon="2.29936">
        <ele>81</ele>
        <time>2022-12-28T15:20:59Z</time>
      </trkpt>
      <trkpt lat="49.96705" lon="2.29937">
        <ele>81.1</ele>
        <time>2022-12-28T15:21:00Z</time>
      </trkpt>
      <trkpt lat="49.96707" lon="2.29937">
        <ele>81.2</ele>
        <time>2022-12-28T15:21:01Z</time>
      </trkpt>
      <trkpt lat="49.96709" lon="2.29938">
        <ele>81.3</ele>
        <time>2022-12-28T15:21:03Z</time>
      </trkpt>
      <trkpt lat="49.9671" lon="2.29938">
        <ele>81.3</ele>
        <time>2022-12-28T15:21:04Z</time>
      </trkpt>
      <trkpt lat="49.96712" lon="2.29937">
        <ele>81.4</ele>
        <time>2022-12-28T15:21:05Z</time>
      </trkpt>
      <trkpt lat="49.96713" lon="2.29937">
        <ele>81.4</ele>
        <time>2022-12-28T15:21:06Z</time>
      </trkpt>
      <trkpt lat="49.96715" lon="2.29937">
        <ele>81.5</ele>
        <time>2022-12-28T15:21:07Z</time>
      </trkpt>
      <trkpt lat="49.96716" lon="2.29937">
        <ele>81.5</ele>
        <time>2022-12-28T15:21:08Z</time>
      </trkpt>
      <trkpt lat="49.96717" lon="2.29937">
        <ele>81.6</ele>
        <time>2022-12-28T15:21:09Z</time>
      </trkpt>
      <trkpt lat="49.96719" lon="2.29937">
        <ele>81.6</ele>
        <time>2022-12-28T15:21:11Z</time>
      </trkpt>
      <trkpt lat="49.9672" lon="2.29937">
        <ele>81.7</ele>
        <time>2022-12-28T15:21:12Z</time>
      </trkpt>
      <trkpt lat="49.96722" lon="2.29937">
        <ele>81.8</ele>
        <time>2022-12-28T15:21:13Z</time>
      </trkpt>
      <trkpt lat="49.96723" lon="2.29937">
        <ele>81.8</ele>
        <time>2022-12-28T15:21:14Z</time>
      </trkpt>
      <trkpt lat="49.96724" lon="2.29937">
        <ele>81.8</ele>
        <time>2022-12-28T15:21:15Z</time>
      </trkpt>
      <trkpt lat="49.96725" lon="2.29937">
        <ele>81.9</ele>
        <time>2022-12-28T15:21:16Z</time>
      </trkpt>
      <trkpt lat="49.96726" lon="2.29937">
        <ele>81.9</ele>
        <time>2022-12-28T15:21:17Z</time>
      </trkpt>
      <trkpt lat="49.96727" lon="2.29938">
        <ele>81.9</ele>
        <time>2022-12-28T15:21:19Z</time>
      </trkpt>
      <trkpt lat="49.9673" lon="2.29938">
        <ele>82</ele>
        <time>2022-12-28T15:21:20Z</time>
      </trkpt>
      <trkpt lat="49.96732" lon="2.29939">
        <ele>82.1</ele>
        <time>2022-12-28T15:21:21Z</time>
      </trkpt>
      <trkpt lat="49.96732" lon="2.29939">
        <ele>82.1</ele>
        <time>2022-12-28T15:21:22Z</time>
      </trkpt>
      <trkpt lat="49.96733" lon="2.29939">
        <ele>82.1</ele>
        <time>2022-12-28T15:21:23Z</time>
      </trkpt>
      <trkpt lat="49.96734" lon="2.29939">
        <ele>82.2</ele>
        <time>2022-12-28T15:21:24Z</time>
      </trkpt>
      <trkpt lat="49.96736" lon="2.2994">
        <ele>82.2</ele>
        <time>2022-12-28T15:21:25Z</time>
      </trkpt>
      <trkpt lat="49.96737" lon="2.2994">
        <ele>82.3</ele>
        <time>2022-12-28T15:21:27Z</time>
      </trkpt>
      <trkpt lat="49.96737" lon="2.29941">
        <ele>82.3</ele>
        <time>2022-12-28T15:21:28Z</time>
      </trkpt>
      <trkpt lat="49.96739" lon="2.29942">
        <ele>82.3</ele>
        <time>2022-12-28T15:21:29Z</time>
      </trkpt>
      <trkpt lat="49.9674" lon="2.29943">
        <ele>82.4</ele>
        <time>2022-12-28T15:21:30Z</time>
      </trkpt>
      <trkpt lat="49.96741" lon="2.29943">
        <ele>82.4</ele>
        <time>2022-12-28T15:21:31Z</time>
      </trkpt>
      <trkpt lat="49.96742" lon="2.29945">
        <ele>82.5</ele>
        <time>2022-12-28T15:21:32Z</time>
      </trkpt>
      <trkpt lat="49.96743" lon="2.29946">
        <ele>82.5</ele>
        <time>2022-12-28T15:21:33Z</time>
      </trkpt>
      <trkpt lat="49.96744" lon="2.29947">
        <ele>82.6</ele>
        <time>2022-12-28T15:21:34Z</time>
      </trkpt>
      <trkpt lat="49.96745" lon="2.29948">
        <ele>82.6</ele>
        <time>2022-12-28T15:21:36Z</time>
      </trkpt>
      <trkpt lat="49.96746" lon="2.29948">
        <ele>82.6</ele>
        <time>2022-12-28T15:21:37Z</time>
      </trkpt>
      <trkpt lat="49.96747" lon="2.29947">
        <ele>82.6</ele>
        <time>2022-12-28T15:21:38Z</time>
      </trkpt>
      <trkpt lat="49.96748" lon="2.29947">
        <ele>82.7</ele>
        <time>2022-12-28T15:21:39Z</time>
      </trkpt>
      <trkpt lat="49.96748" lon="2.29947">
        <ele>82.7</ele>
        <time>2022-12-28T15:21:40Z</time>
      </trkpt>
      <trkpt lat="49.96748" lon="2.29947">
        <ele>82.7</ele>
        <time>2022-12-28T15:21:41Z</time>
      </trkpt>
      <trkpt lat="49.96749" lon="2.29947">
        <ele>82.7</ele>
        <time>2022-12-28T15:21:42Z</time>
      </trkpt>
      <trkpt lat="49.9675" lon="2.29947">
        <ele>82.7</ele>
        <time>2022-12-28T15:21:44Z</time>
      </trkpt>
      <trkpt lat="49.96751" lon="2.29947">
        <ele>82.8</ele>
        <time>2022-12-28T15:21:45Z</time>
      </trkpt>
      <trkpt lat="49.96751" lon="2.29947">
        <ele>82.8</ele>
        <time>2022-12-28T15:21:46Z</time>
      </trkpt>
      <trkpt lat="49.96752" lon="2.29947">
        <ele>82.8</ele>
        <time>2022-12-28T15:21:47Z</time>
      </trkpt>
      <trkpt lat="49.96753" lon="2.29947">
        <ele>82.8</ele>
        <time>2022-12-28T15:21:48Z</time>
      </trkpt>
      <trkpt lat="49.96754" lon="2.29947">
        <ele>82.9</ele>
        <time>2022-12-28T15:21:49Z</time>
      </trkpt>
      <trkpt lat="49.96755" lon="2.29946">
        <ele>82.9</ele>
        <time>2022-12-28T15:21:51Z</time>
      </trkpt>
      <trkpt lat="49.96757" lon="2.29945">
        <ele>83</ele>
        <time>2022-12-28T15:21:52Z</time>
      </trkpt>
      <trkpt lat="49.96758" lon="2.29945">
        <ele>83</ele>
        <time>2022-12-28T15:21:53Z</time>
      </trkpt>
      <trkpt lat="49.96758" lon="2.29944">
        <ele>83</ele>
        <time>2022-12-28T15:21:54Z</time>
      </trkpt>
      <trkpt lat="49.9676" lon="2.29942">
        <ele>83.1</ele>
        <time>2022-12-28T15:21:55Z</time>
      </trkpt>
      <trkpt lat="49.9676" lon="2.29941">
        <ele>83.1</ele>
        <time>2022-12-28T15:21:56Z</time>
      </trkpt>
      <trkpt lat="49.9676" lon="2.29939">
        <ele>83.1</ele>
        <time>2022-12-28T15:21:58Z</time>
      </trkpt>
      <trkpt lat="49.9676" lon="2.29937">
        <ele>83.2</ele>
        <time>2022-12-28T15:21:59Z</time>
      </trkpt>
      <trkpt lat="49.9676" lon="2.29936">
        <ele>83.2</ele>
        <time>2022-12-28T15:22:00Z</time>
      </trkpt>
      <trkpt lat="49.96759" lon="2.29934">
        <ele>83.2</ele>
        <time>2022-12-28T15:22:02Z</time>
      </trkpt>
      <trkpt lat="49.96758" lon="2.29932">
        <ele>83.3</ele>
        <time>2022-12-28T15:22:03Z</time>
      </trkpt>
      <trkpt lat="49.96758" lon="2.29931">
        <ele>83.3</ele>
        <time>2022-12-28T15:22:04Z</time>
      </trkpt>
      <trkpt lat="49.96757" lon="2.29931">
        <ele>83.3</ele>
        <time>2022-12-28T15:22:06Z</time>
      </trkpt>
      <trkpt lat="49.96757" lon="2.29932">
        <ele>83.3</ele>
        <time>2022-12-28T15:22:07Z</time>
      </trkpt>
      <trkpt lat="49.96758" lon="2.29932">
        <ele>83.3</ele>
        <time>2022-12-28T15:22:08Z</time>
      </trkpt>
      <trkpt lat="49.96758" lon="2.29932">
        <ele>83.4</ele>
        <time>2022-12-28T15:22:09Z</time>
      </trkpt>
      <trkpt lat="49.96759" lon="2.29933">
        <ele>83.4</ele>
        <time>2022-12-28T15:22:11Z</time>
      </trkpt>
      <trkpt lat="49.9676" lon="2.29933">
        <ele>83.4</ele>
        <time>2022-12-28T15:22:12Z</time>
      </trkpt>
      <trkpt lat="49.96761" lon="2.29933">
        <ele>83.4</ele>
        <time>2022-12-28T15:22:13Z</time>
      </trkpt>
      <trkpt lat="49.96762" lon="2.29933">
        <ele>83.5</ele>
        <time>2022-12-28T15:22:14Z</time>
      </trkpt>
      <trkpt lat="49.96764" lon="2.29936">
        <ele>83.6</ele>
        <time>2022-12-28T15:22:15Z</time>
      </trkpt>
      <trkpt lat="49.96765" lon="2.29937">
        <ele>83.6</ele>
        <time>2022-12-28T15:22:16Z</time>
      </trkpt>
      <trkpt lat="49.96768" lon="2.29941">
        <ele>83.7</ele>
        <time>2022-12-28T15:22:18Z</time>
      </trkpt>
      <trkpt lat="49.9677" lon="2.29943">
        <ele>83.8</ele>
        <time>2022-12-28T15:22:19Z</time>
      </trkpt>
      <trkpt lat="49.96771" lon="2.29944">
        <ele>83.8</ele>
        <time>2022-12-28T15:22:20Z</time>
      </trkpt>
      <trkpt lat="49.96771" lon="2.29945">
        <ele>83.8</ele>
        <time>2022-12-28T15:22:21Z</time>
      </trkpt>
      <trkpt lat="49.96772" lon="2.29946">
        <ele>83.9</ele>
        <time>2022-12-28T15:22:22Z</time>
      </trkpt>
      <trkpt lat="49.96774" lon="2.29947">
        <ele>83.9</ele>
        <time>2022-12-28T15:22:23Z</time>
      </trkpt>
      <trkpt lat="49.96775" lon="2.29948">
        <ele>83.9</ele>
        <time>2022-12-28T15:22:24Z</time>
      </trkpt>
      <trkpt lat="49.96777" lon="2.2995">
        <ele>84</ele>
        <time>2022-12-28T15:22:25Z</time>
      </trkpt>
      <trkpt lat="49.96778" lon="2.29951">
        <ele>84.1</ele>
        <time>2022-12-28T15:22:26Z</time>
      </trkpt>
      <trkpt lat="49.96779" lon="2.29952">
        <ele>84.1</ele>
        <time>2022-12-28T15:22:28Z</time>
      </trkpt>
      <trkpt lat="49.9678" lon="2.29952">
        <ele>84.1</ele>
        <time>2022-12-28T15:22:29Z</time>
      </trkpt>
      <trkpt lat="49.96782" lon="2.29954">
        <ele>84.2</ele>
        <time>2022-12-28T15:22:30Z</time>
      </trkpt>
      <trkpt lat="49.96783" lon="2.29954">
        <ele>84.2</ele>
        <time>2022-12-28T15:22:31Z</time>
      </trkpt>
      <trkpt lat="49.96783" lon="2.29954">
        <ele>84.2</ele>
        <time>2022-12-28T15:22:32Z</time>
      </trkpt>
      <trkpt lat="49.96785" lon="2.29955">
        <ele>84.3</ele>
        <time>2022-12-28T15:22:33Z</time>
      </trkpt>
      <trkpt lat="49.96786" lon="2.29955">
        <ele>84.3</ele>
        <time>2022-12-28T15:22:34Z</time>
      </trkpt>
      <trkpt lat="49.96787" lon="2.29956">
        <ele>84.3</ele>
        <time>2022-12-28T15:22:35Z</time>
      </trkpt>
      <trkpt lat="49.96788" lon="2.29956">
        <ele>84.4</ele>
        <time>2022-12-28T15:22:37Z</time>
      </trkpt>
      <trkpt lat="49.96789" lon="2.29956">
        <ele>84.4</ele>
        <time>2022-12-28T15:22:38Z</time>
      </trkpt>
      <trkpt lat="49.9679" lon="2.29957">
        <ele>84.5</ele>
        <time>2022-12-28T15:22:39Z</time>
      </trkpt>
      <trkpt lat="49.96791" lon="2.29957">
        <ele>84.5</ele>
        <time>2022-12-28T15:22:40Z</time>
      </trkpt>
      <trkpt lat="49.96793" lon="2.29958">
        <ele>84.5</ele>
        <time>2022-12-28T15:22:41Z</time>
      </trkpt>
      <trkpt lat="49.96794" lon="2.29958">
        <ele>84.6</ele>
        <time>2022-12-28T15:22:42Z</time>
      </trkpt>
      <trkpt lat="49.96795" lon="2.29959">
        <ele>84.6</ele>
        <time>2022-12-28T15:22:43Z</time>
      </trkpt>
      <trkpt lat="49.96796" lon="2.29959">
        <ele>84.7</ele>
        <time>2022-12-28T15:22:44Z</time>
      </trkpt>
      <trkpt lat="49.96798" lon="2.29959">
        <ele>84.7</ele>
        <time>2022-12-28T15:22:46Z</time>
      </trkpt>
      <trkpt lat="49.96799" lon="2.29959">
        <ele>84.7</ele>
        <time>2022-12-28T15:22:47Z</time>
      </trkpt>
      <trkpt lat="49.968" lon="2.29959">
        <ele>84.8</ele>
        <time>2022-12-28T15:22:48Z</time>
      </trkpt>
      <trkpt lat="49.96801" lon="2.2996">
        <ele>84.8</ele>
        <time>2022-12-28T15:22:49Z</time>
      </trkpt>
      <trkpt lat="49.96803" lon="2.29961">
        <ele>84.9</ele>
        <time>2022-12-28T15:22:50Z</time>
      </trkpt>
      <trkpt lat="49.96803" lon="2.29961">
        <ele>84.9</ele>
        <time>2022-12-28T15:22:51Z</time>
      </trkpt>
      <trkpt lat="49.96804" lon="2.29962">
        <ele>84.9</ele>
        <time>2022-12-28T15:22:52Z</time>
      </trkpt>
      <trkpt lat="49.96806" lon="2.29962">
        <ele>85</ele>
        <time>2022-12-28T15:22:54Z</time>
      </trkpt>
      <trkpt lat="49.96807" lon="2.29962">
        <ele>85</ele>
        <time>2022-12-28T15:22:55Z</time>
      </trkpt>
      <trkpt lat="49.96808" lon="2.29962">
        <ele>85</ele>
        <time>2022-12-28T15:22:56Z</time>
      </trkpt>
      <trkpt lat="49.96809" lon="2.29963">
        <ele>85.1</ele>
        <time>2022-12-28T15:22:57Z</time>
      </trkpt>
      <trkpt lat="49.9681" lon="2.29963">
        <ele>85.1</ele>
        <time>2022-12-28T15:22:58Z</time>
      </trkpt>
      <trkpt lat="49.96811" lon="2.29963">
        <ele>85.2</ele>
        <time>2022-12-28T15:22:59Z</time>
      </trkpt>
      <trkpt lat="49.96812" lon="2.29964">
        <ele>85.2</ele>
        <time>2022-12-28T15:23:00Z</time>
      </trkpt>
      <trkpt lat="49.96814" lon="2.29964">
        <ele>85.3</ele>
        <time>2022-12-28T15:23:01Z</time>
      </trkpt>
      <trkpt lat="49.96815" lon="2.29964">
        <ele>85.3</ele>
        <time>2022-12-28T15:23:03Z</time>
      </trkpt>
      <trkpt lat="49.96816" lon="2.29964">
        <ele>85.4</ele>
        <time>2022-12-28T15:23:04Z</time>
      </trkpt>
      <trkpt lat="49.96817" lon="2.29965">
        <ele>85.4</ele>
        <time>2022-12-28T15:23:05Z</time>
      </trkpt>
      <trkpt lat="49.96818" lon="2.29965">
        <ele>85.4</ele>
        <time>2022-12-28T15:23:06Z</time>
      </trkpt>
      <trkpt lat="49.96819" lon="2.29965">
        <ele>85.5</ele>
        <time>2022-12-28T15:23:07Z</time>
      </trkpt>
      <trkpt lat="49.9682" lon="2.29965">
        <ele>85.5</ele>
        <time>2022-12-28T15:23:08Z</time>
      </trkpt>
      <trkpt lat="49.96822" lon="2.29965">
        <ele>85.6</ele>
        <time>2022-12-28T15:23:09Z</time>
      </trkpt>
      <trkpt lat="49.96823" lon="2.29966">
        <ele>85.6</ele>
        <time>2022-12-28T15:23:11Z</time>
      </trkpt>
      <trkpt lat="49.96824" lon="2.29966">
        <ele>85.7</ele>
        <time>2022-12-28T15:23:12Z</time>
      </trkpt>
      <trkpt lat="49.96825" lon="2.29966">
        <ele>85.7</ele>
        <time>2022-12-28T15:23:13Z</time>
      </trkpt>
      <trkpt lat="49.96826" lon="2.29966">
        <ele>85.7</ele>
        <time>2022-12-28T15:23:14Z</time>
      </trkpt>
      <trkpt lat="49.96826" lon="2.29966">
        <ele>85.7</ele>
        <time>2022-12-28T15:23:15Z</time>
      </trkpt>
      <trkpt lat="49.96828" lon="2.29967">
        <ele>85.8</ele>
        <time>2022-12-28T15:23:16Z</time>
      </trkpt>
      <trkpt lat="49.96829" lon="2.29968">
        <ele>85.8</ele>
        <time>2022-12-28T15:23:17Z</time>
      </trkpt>
      <trkpt lat="49.96831" lon="2.29968">
        <ele>85.9</ele>
        <time>2022-12-28T15:23:19Z</time>
      </trkpt>
      <trkpt lat="49.96832" lon="2.29968">
        <ele>85.9</ele>
        <time>2022-12-28T15:23:20Z</time>
      </trkpt>
      <trkpt lat="49.96833" lon="2.29968">
        <ele>86</ele>
        <time>2022-12-28T15:23:21Z</time>
      </trkpt>
      <trkpt lat="49.96834" lon="2.29968">
        <ele>86</ele>
        <time>2022-12-28T15:23:22Z</time>
      </trkpt>
      <trkpt lat="49.96835" lon="2.29968">
        <ele>86.1</ele>
        <time>2022-12-28T15:23:23Z</time>
      </trkpt>
      <trkpt lat="49.96836" lon="2.29968">
        <ele>86.1</ele>
        <time>2022-12-28T15:23:25Z</time>
      </trkpt>
      <trkpt lat="49.96837" lon="2.29968">
        <ele>86.1</ele>
        <time>2022-12-28T15:23:26Z</time>
      </trkpt>
      <trkpt lat="49.96838" lon="2.29968">
        <ele>86.2</ele>
        <time>2022-12-28T15:23:27Z</time>
      </trkpt>
      <trkpt lat="49.96839" lon="2.29969">
        <ele>86.2</ele>
        <time>2022-12-28T15:23:28Z</time>
      </trkpt>
      <trkpt lat="49.9684" lon="2.29969">
        <ele>86.3</ele>
        <time>2022-12-28T15:23:29Z</time>
      </trkpt>
      <trkpt lat="49.96843" lon="2.29969">
        <ele>86.4</ele>
        <time>2022-12-28T15:23:30Z</time>
      </trkpt>
      <trkpt lat="49.96844" lon="2.29969">
        <ele>86.4</ele>
        <time>2022-12-28T15:23:32Z</time>
      </trkpt>
      <trkpt lat="49.96844" lon="2.29969">
        <ele>86.4</ele>
        <time>2022-12-28T15:23:33Z</time>
      </trkpt>
      <trkpt lat="49.96845" lon="2.29969">
        <ele>86.4</ele>
        <time>2022-12-28T15:23:34Z</time>
      </trkpt>
      <trkpt lat="49.96846" lon="2.29969">
        <ele>86.5</ele>
        <time>2022-12-28T15:23:35Z</time>
      </trkpt>
      <trkpt lat="49.96846" lon="2.2997">
        <ele>86.5</ele>
        <time>2022-12-28T15:23:36Z</time>
      </trkpt>
      <trkpt lat="49.96847" lon="2.2997">
        <ele>86.5</ele>
        <time>2022-12-28T15:23:37Z</time>
      </trkpt>
      <trkpt lat="49.96849" lon="2.2997">
        <ele>86.6</ele>
        <time>2022-12-28T15:23:38Z</time>
      </trkpt>
      <trkpt lat="49.9685" lon="2.2997">
        <ele>86.6</ele>
        <time>2022-12-28T15:23:39Z</time>
      </trkpt>
      <trkpt lat="49.96851" lon="2.2997">
        <ele>86.7</ele>
        <time>2022-12-28T15:23:41Z</time>
      </trkpt>
      <trkpt lat="49.96851" lon="2.2997">
        <ele>86.7</ele>
        <time>2022-12-28T15:23:42Z</time>
      </trkpt>
      <trkpt lat="49.96852" lon="2.29971">
        <ele>86.7</ele>
        <time>2022-12-28T15:23:43Z</time>
      </trkpt>
      <trkpt lat="49.96853" lon="2.29971">
        <ele>86.7</ele>
        <time>2022-12-28T15:23:44Z</time>
      </trkpt>
      <trkpt lat="49.96854" lon="2.29971">
        <ele>86.8</ele>
        <time>2022-12-28T15:23:45Z</time>
      </trkpt>
      <trkpt lat="49.96856" lon="2.29973">
        <ele>86.9</ele>
        <time>2022-12-28T15:23:46Z</time>
      </trkpt>
      <trkpt lat="49.96857" lon="2.29973">
        <ele>86.9</ele>
        <time>2022-12-28T15:23:47Z</time>
      </trkpt>
      <trkpt lat="49.96858" lon="2.29973">
        <ele>87</ele>
        <time>2022-12-28T15:23:49Z</time>
      </trkpt>
      <trkpt lat="49.96859" lon="2.29973">
        <ele>87</ele>
        <time>2022-12-28T15:23:50Z</time>
      </trkpt>
      <trkpt lat="49.9686" lon="2.29973">
        <ele>87</ele>
        <time>2022-12-28T15:23:51Z</time>
      </trkpt>
      <trkpt lat="49.96862" lon="2.29972">
        <ele>87.1</ele>
        <time>2022-12-28T15:23:52Z</time>
      </trkpt>
      <trkpt lat="49.96862" lon="2.29972">
        <ele>87.1</ele>
        <time>2022-12-28T15:23:53Z</time>
      </trkpt>
      <trkpt lat="49.96863" lon="2.29972">
        <ele>87.2</ele>
        <time>2022-12-28T15:23:54Z</time>
      </trkpt>
      <trkpt lat="49.96863" lon="2.29972">
        <ele>87.2</ele>
        <time>2022-12-28T15:23:55Z</time>
      </trkpt>
      <trkpt lat="49.96864" lon="2.29971">
        <ele>87.2</ele>
        <time>2022-12-28T15:23:56Z</time>
      </trkpt>
      <trkpt lat="49.96865" lon="2.29971">
        <ele>87.2</ele>
        <time>2022-12-28T15:23:58Z</time>
      </trkpt>
      <trkpt lat="49.96866" lon="2.29971">
        <ele>87.3</ele>
        <time>2022-12-28T15:23:59Z</time>
      </trkpt>
      <trkpt lat="49.96867" lon="2.29971">
        <ele>87.3</ele>
        <time>2022-12-28T15:24:00Z</time>
      </trkpt>
      <trkpt lat="49.96868" lon="2.29972">
        <ele>87.4</ele>
        <time>2022-12-28T15:24:01Z</time>
      </trkpt>
      <trkpt lat="49.96869" lon="2.29972">
        <ele>87.4</ele>
        <time>2022-12-28T15:24:02Z</time>
      </trkpt>
      <trkpt lat="49.9687" lon="2.29972">
        <ele>87.4</ele>
        <time>2022-12-28T15:24:03Z</time>
      </trkpt>
      <trkpt lat="49.96871" lon="2.29972">
        <ele>87.5</ele>
        <time>2022-12-28T15:24:04Z</time>
      </trkpt>
      <trkpt lat="49.96873" lon="2.29973">
        <ele>87.7</ele>
        <time>2022-12-28T15:24:06Z</time>
      </trkpt>
      <trkpt lat="49.96987" lon="2.29921">
        <ele>89.9</ele>
        <time>2022-12-28T15:27:27Z</time>
      </trkpt>
      <trkpt lat="49.96988" lon="2.2992">
        <ele>89.9</ele>
        <time>2022-12-28T15:27:28Z</time>
      </trkpt>
      <trkpt lat="49.96989" lon="2.29918">
        <ele>89.9</ele>
        <time>2022-12-28T15:27:29Z</time>
      </trkpt>
      <trkpt lat="49.96991" lon="2.29916">
        <ele>89.9</ele>
        <time>2022-12-28T15:27:30Z</time>
      </trkpt>
      <trkpt lat="49.96993" lon="2.29915">
        <ele>90</ele>
        <time>2022-12-28T15:27:31Z</time>
      </trkpt>
      <trkpt lat="49.96994" lon="2.29913">
        <ele>90</ele>
        <time>2022-12-28T15:27:33Z</time>
      </trkpt>
      <trkpt lat="49.96995" lon="2.29911">
        <ele>90</ele>
        <time>2022-12-28T15:27:34Z</time>
      </trkpt>
      <trkpt lat="49.96997" lon="2.2991">
        <ele>90.1</ele>
        <time>2022-12-28T15:27:35Z</time>
      </trkpt>
      <trkpt lat="49.96998" lon="2.29908">
        <ele>90.1</ele>
        <time>2022-12-28T15:27:36Z</time>
      </trkpt>
      <trkpt lat="49.96999" lon="2.29907">
        <ele>90.1</ele>
        <time>2022-12-28T15:27:37Z</time>
      </trkpt>
      <trkpt lat="49.97001" lon="2.29906">
        <ele>90.1</ele>
        <time>2022-12-28T15:27:38Z</time>
      </trkpt>
      <trkpt lat="49.97002" lon="2.29906">
        <ele>90.1</ele>
        <time>2022-12-28T15:27:39Z</time>
      </trkpt>
      <trkpt lat="49.97002" lon="2.29906">
        <ele>90.2</ele>
        <time>2022-12-28T15:27:40Z</time>
      </trkpt>
      <trkpt lat="49.97004" lon="2.29906">
        <ele>90.2</ele>
        <time>2022-12-28T15:27:41Z</time>
      </trkpt>
      <trkpt lat="49.97005" lon="2.29906">
        <ele>90.2</ele>
        <time>2022-12-28T15:27:42Z</time>
      </trkpt>
      <trkpt lat="49.97007" lon="2.29905">
        <ele>90.2</ele>
        <time>2022-12-28T15:27:44Z</time>
      </trkpt>
      <trkpt lat="49.97008" lon="2.29905">
        <ele>90.3</ele>
        <time>2022-12-28T15:27:45Z</time>
      </trkpt>
      <trkpt lat="49.9701" lon="2.29904">
        <ele>90.3</ele>
        <time>2022-12-28T15:27:46Z</time>
      </trkpt>
      <trkpt lat="49.97011" lon="2.29903">
        <ele>90.3</ele>
        <time>2022-12-28T15:27:47Z</time>
      </trkpt>
      <trkpt lat="49.97012" lon="2.29902">
        <ele>90.3</ele>
        <time>2022-12-28T15:27:49Z</time>
      </trkpt>
      <trkpt lat="49.97013" lon="2.29901">
        <ele>90.4</ele>
        <time>2022-12-28T15:27:50Z</time>
      </trkpt>
      <trkpt lat="49.97014" lon="2.29901">
        <ele>90.4</ele>
        <time>2022-12-28T15:27:51Z</time>
      </trkpt>
      <trkpt lat="49.97015" lon="2.29901">
        <ele>90.4</ele>
        <time>2022-12-28T15:27:52Z</time>
      </trkpt>
      <trkpt lat="49.97016" lon="2.29901">
        <ele>90.5</ele>
        <time>2022-12-28T15:27:54Z</time>
      </trkpt>
      <trkpt lat="49.97017" lon="2.299">
        <ele>90.5</ele>
        <time>2022-12-28T15:27:55Z</time>
      </trkpt>
      <trkpt lat="49.97017" lon="2.29899">
        <ele>90.5</ele>
        <time>2022-12-28T15:27:56Z</time>
      </trkpt>
      <trkpt lat="49.97017" lon="2.299">
        <ele>90.5</ele>
        <time>2022-12-28T15:27:58Z</time>
      </trkpt>
      <trkpt lat="49.97016" lon="2.29901">
        <ele>90.5</ele>
        <time>2022-12-28T15:27:59Z</time>
      </trkpt>
      <trkpt lat="49.97016" lon="2.29902">
        <ele>90.5</ele>
        <time>2022-12-28T15:28:00Z</time>
      </trkpt>
      <trkpt lat="49.97015" lon="2.29905">
        <ele>90.6</ele>
        <time>2022-12-28T15:28:01Z</time>
      </trkpt>
      <trkpt lat="49.97015" lon="2.29906">
        <ele>90.6</ele>
        <time>2022-12-28T15:28:03Z</time>
      </trkpt>
      <trkpt lat="49.97014" lon="2.29907">
        <ele>90.6</ele>
        <time>2022-12-28T15:28:04Z</time>
      </trkpt>
      <trkpt lat="49.97014" lon="2.29909">
        <ele>90.7</ele>
        <time>2022-12-28T15:28:05Z</time>
      </trkpt>
      <trkpt lat="49.97013" lon="2.29911">
        <ele>90.7</ele>
        <time>2022-12-28T15:28:06Z</time>
      </trkpt>
      <trkpt lat="49.97012" lon="2.29913">
        <ele>90.7</ele>
        <time>2022-12-28T15:28:07Z</time>
      </trkpt>
      <trkpt lat="49.97011" lon="2.29915">
        <ele>90.8</ele>
        <time>2022-12-28T15:28:08Z</time>
      </trkpt>
      <trkpt lat="49.97011" lon="2.29916">
        <ele>90.8</ele>
        <time>2022-12-28T15:28:09Z</time>
      </trkpt>
      <trkpt lat="49.97011" lon="2.2992">
        <ele>90.9</ele>
        <time>2022-12-28T15:28:10Z</time>
      </trkpt>
      <trkpt lat="49.97012" lon="2.29922">
        <ele>90.9</ele>
        <time>2022-12-28T15:28:11Z</time>
      </trkpt>
      <trkpt lat="49.97071" lon="2.29955">
        <ele>93.4</ele>
        <time>2022-12-28T15:29:01Z</time>
      </trkpt>
      <trkpt lat="49.97071" lon="2.29955">
        <ele>93.5</ele>
        <time>2022-12-28T15:29:02Z</time>
      </trkpt>
      <trkpt lat="49.97086" lon="2.29964">
        <ele>94.2</ele>
        <time>2022-12-28T15:29:17Z</time>
      </trkpt>
      <trkpt lat="49.97086" lon="2.29964">
        <ele>94.2</ele>
        <time>2022-12-28T15:29:18Z</time>
      </trkpt>
      <trkpt lat="49.97087" lon="2.29964">
        <ele>94.3</ele>
        <time>2022-12-28T15:29:20Z</time>
      </trkpt>
      <trkpt lat="49.97094" lon="2.29962">
        <ele>94.4</ele>
        <time>2022-12-28T15:29:27Z</time>
      </trkpt>
      <trkpt lat="49.97095" lon="2.29962">
        <ele>94.4</ele>
        <time>2022-12-28T15:29:28Z</time>
      </trkpt>
      <trkpt lat="49.97097" lon="2.29963">
        <ele>94.4</ele>
        <time>2022-12-28T15:29:31Z</time>
      </trkpt>
      <trkpt lat="49.97098" lon="2.29964">
        <ele>94.4</ele>
        <time>2022-12-28T15:29:32Z</time>
      </trkpt>
      <trkpt lat="49.97102" lon="2.29968">
        <ele>94.4</ele>
        <time>2022-12-28T15:29:38Z</time>
      </trkpt>
      <trkpt lat="49.97103" lon="2.29968">
        <ele>94.5</ele>
        <time>2022-12-28T15:29:39Z</time>
      </trkpt>
      <trkpt lat="49.97104" lon="2.29968">
        <ele>94.5</ele>
        <time>2022-12-28T15:29:40Z</time>
      </trkpt>
      <trkpt lat="49.97107" lon="2.29969">
        <ele>94.5</ele>
        <time>2022-12-28T15:29:41Z</time>
      </trkpt>
      <trkpt lat="49.97107" lon="2.2997">
        <ele>94.5</ele>
        <time>2022-12-28T15:29:42Z</time>
      </trkpt>
      <trkpt lat="49.97108" lon="2.2997">
        <ele>94.5</ele>
        <time>2022-12-28T15:29:43Z</time>
      </trkpt>
      <trkpt lat="49.97109" lon="2.29971">
        <ele>94.5</ele>
        <time>2022-12-28T15:29:44Z</time>
      </trkpt>
      <trkpt lat="49.9711" lon="2.29972">
        <ele>94.5</ele>
        <time>2022-12-28T15:29:46Z</time>
      </trkpt>
      <trkpt lat="49.97113" lon="2.29974">
        <ele>94.5</ele>
        <time>2022-12-28T15:29:48Z</time>
      </trkpt>
      <trkpt lat="49.97128" lon="2.29973">
        <ele>94.7</ele>
        <time>2022-12-28T15:30:04Z</time>
      </trkpt>
      <trkpt lat="49.97129" lon="2.29973">
        <ele>94.7</ele>
        <time>2022-12-28T15:30:05Z</time>
      </trkpt>
      <trkpt lat="49.9713" lon="2.29972">
        <ele>94.7</ele>
        <time>2022-12-28T15:30:06Z</time>
      </trkpt>
      <trkpt lat="49.97131" lon="2.29972">
        <ele>94.7</ele>
        <time>2022-12-28T15:30:07Z</time>
      </trkpt>
      <trkpt lat="49.97133" lon="2.29972">
        <ele>94.7</ele>
        <time>2022-12-28T15:30:08Z</time>
      </trkpt>
      <trkpt lat="49.97134" lon="2.29972">
        <ele>94.7</ele>
        <time>2022-12-28T15:30:09Z</time>
      </trkpt>
      <trkpt lat="49.97136" lon="2.29972">
        <ele>94.7</ele>
        <time>2022-12-28T15:30:10Z</time>
      </trkpt>
      <trkpt lat="49.97137" lon="2.29972">
        <ele>94.7</ele>
        <time>2022-12-28T15:30:12Z</time>
      </trkpt>
      <trkpt lat="49.97138" lon="2.29972">
        <ele>94.7</ele>
        <time>2022-12-28T15:30:13Z</time>
      </trkpt>
      <trkpt lat="49.97152" lon="2.29979">
        <ele>94.9</ele>
        <time>2022-12-28T15:30:29Z</time>
      </trkpt>
      <trkpt lat="49.97152" lon="2.29981">
        <ele>94.9</ele>
        <time>2022-12-28T15:30:34Z</time>
      </trkpt>
      <trkpt lat="49.97153" lon="2.29982">
        <ele>94.9</ele>
        <time>2022-12-28T15:30:35Z</time>
      </trkpt>
      <trkpt lat="49.97154" lon="2.29982">
        <ele>94.9</ele>
        <time>2022-12-28T15:30:36Z</time>
      </trkpt>
      <trkpt lat="49.97155" lon="2.29982">
        <ele>95</ele>
        <time>2022-12-28T15:30:37Z</time>
      </trkpt>
      <trkpt lat="49.97156" lon="2.29982">
        <ele>95</ele>
        <time>2022-12-28T15:30:38Z</time>
      </trkpt>
      <trkpt lat="49.97157" lon="2.29982">
        <ele>95</ele>
        <time>2022-12-28T15:30:40Z</time>
      </trkpt>
      <trkpt lat="49.97157" lon="2.29981">
        <ele>95</ele>
        <time>2022-12-28T15:30:41Z</time>
      </trkpt>
      <trkpt lat="49.97158" lon="2.29981">
        <ele>95</ele>
        <time>2022-12-28T15:30:42Z</time>
      </trkpt>
      <trkpt lat="49.97159" lon="2.29981">
        <ele>95</ele>
        <time>2022-12-28T15:30:43Z</time>
      </trkpt>
      <trkpt lat="49.9716" lon="2.29982">
        <ele>95</ele>
        <time>2022-12-28T15:30:45Z</time>
      </trkpt>
      <trkpt lat="49.9716" lon="2.29981">
        <ele>95</ele>
        <time>2022-12-28T15:30:46Z</time>
      </trkpt>
      <trkpt lat="49.97161" lon="2.29981">
        <ele>95</ele>
        <time>2022-12-28T15:30:47Z</time>
      </trkpt>
      <trkpt lat="49.97161" lon="2.2998">
        <ele>95</ele>
        <time>2022-12-28T15:30:48Z</time>
      </trkpt>
      <trkpt lat="49.97162" lon="2.29977">
        <ele>95</ele>
        <time>2022-12-28T15:30:49Z</time>
      </trkpt>
      <trkpt lat="49.97162" lon="2.29977">
        <ele>95</ele>
        <time>2022-12-28T15:30:51Z</time>
      </trkpt>
      <trkpt lat="49.97162" lon="2.29977">
        <ele>95</ele>
        <time>2022-12-28T15:30:52Z</time>
      </trkpt>
      <trkpt lat="49.97161" lon="2.29977">
        <ele>95.1</ele>
        <time>2022-12-28T15:30:53Z</time>
      </trkpt>
      <trkpt lat="49.97161" lon="2.29977">
        <ele>95.1</ele>
        <time>2022-12-28T15:30:54Z</time>
      </trkpt>
      <trkpt lat="49.9716" lon="2.29976">
        <ele>95.1</ele>
        <time>2022-12-28T15:30:56Z</time>
      </trkpt>
      <trkpt lat="49.97159" lon="2.29976">
        <ele>95.1</ele>
        <time>2022-12-28T15:30:58Z</time>
      </trkpt>
      <trkpt lat="49.97158" lon="2.29976">
        <ele>95.1</ele>
        <time>2022-12-28T15:30:59Z</time>
      </trkpt>
      <trkpt lat="49.97157" lon="2.29976">
        <ele>95.1</ele>
        <time>2022-12-28T15:31:01Z</time>
      </trkpt>
      <trkpt lat="49.97157" lon="2.29976">
        <ele>95.1</ele>
        <time>2022-12-28T15:31:02Z</time>
      </trkpt>
      <trkpt lat="49.97157" lon="2.29976">
        <ele>95.1</ele>
        <time>2022-12-28T15:31:03Z</time>
      </trkpt>
      <trkpt lat="49.97156" lon="2.29977">
        <ele>95.1</ele>
        <time>2022-12-28T15:31:05Z</time>
      </trkpt>
      <trkpt lat="49.97156" lon="2.29977">
        <ele>95.1</ele>
        <time>2022-12-28T15:31:06Z</time>
      </trkpt>
      <trkpt lat="49.97156" lon="2.29977">
        <ele>95.1</ele>
        <time>2022-12-28T15:31:07Z</time>
      </trkpt>
      <trkpt lat="49.97156" lon="2.29977">
        <ele>95.1</ele>
        <time>2022-12-28T15:31:08Z</time>
      </trkpt>
      <trkpt lat="49.97156" lon="2.29977">
        <ele>95.1</ele>
        <time>2022-12-28T15:31:09Z</time>
      </trkpt>
      <trkpt lat="49.97156" lon="2.29977">
        <ele>95.1</ele>
        <time>2022-12-28T15:31:10Z</time>
      </trkpt>
      <trkpt lat="49.97156" lon="2.29977">
        <ele>95.1</ele>
        <time>2022-12-28T15:31:11Z</time>
      </trkpt>
      <trkpt lat="49.97156" lon="2.29977">
        <ele>95.1</ele>
        <time>2022-12-28T15:31:12Z</time>
      </trkpt>
      <trkpt lat="49.97155" lon="2.29977">
        <ele>95.1</ele>
        <time>2022-12-28T15:31:13Z</time>
      </trkpt>
      <trkpt lat="49.97155" lon="2.29977">
        <ele>95.1</ele>
        <time>2022-12-28T15:31:14Z</time>
      </trkpt>
      <trkpt lat="49.97155" lon="2.29977">
        <ele>95.1</ele>
        <time>2022-12-28T15:31:15Z</time>
      </trkpt>
      <trkpt lat="49.97155" lon="2.29978">
        <ele>95.1</ele>
        <time>2022-12-28T15:31:16Z</time>
      </trkpt>
      <trkpt lat="49.97155" lon="2.29978">
        <ele>95.1</ele>
        <time>2022-12-28T15:31:17Z</time>
      </trkpt>
      <trkpt lat="49.97155" lon="2.29978">
        <ele>95.1</ele>
        <time>2022-12-28T15:31:18Z</time>
      </trkpt>
      <trkpt lat="49.97155" lon="2.29978">
        <ele>95.1</ele>
        <time>2022-12-28T15:31:19Z</time>
      </trkpt>
      <trkpt lat="49.97155" lon="2.29978">
        <ele>95.1</ele>
        <time>2022-12-28T15:31:20Z</time>
      </trkpt>
      <trkpt lat="49.97155" lon="2.29978">
        <ele>95.1</ele>
        <time>2022-12-28T15:31:21Z</time>
      </trkpt>
      <trkpt lat="49.97155" lon="2.29978">
        <ele>95.1</ele>
        <time>2022-12-28T15:31:22Z</time>
      </trkpt>
      <trkpt lat="49.97154" lon="2.29979">
        <ele>95.1</ele>
        <time>2022-12-28T15:31:23Z</time>
      </trkpt>
      <trkpt lat="49.97154" lon="2.29979">
        <ele>95.1</ele>
        <time>2022-12-28T15:31:24Z</time>
      </trkpt>
      <trkpt lat="49.97154" lon="2.29979">
        <ele>95.1</ele>
        <time>2022-12-28T15:31:25Z</time>
      </trkpt>
      <trkpt lat="49.97154" lon="2.29979">
        <ele>95.1</ele>
        <time>2022-12-28T15:31:26Z</time>
      </trkpt>
      <trkpt lat="49.97154" lon="2.29979">
        <ele>95.1</ele>
        <time>2022-12-28T15:31:27Z</time>
      </trkpt>
      <trkpt lat="49.97154" lon="2.29979">
        <ele>95.1</ele>
        <time>2022-12-28T15:31:28Z</time>
      </trkpt>
      <trkpt lat="49.97154" lon="2.29979">
        <ele>95.1</ele>
        <time>2022-12-28T15:31:29Z</time>
      </trkpt>
      <trkpt lat="49.97154" lon="2.29979">
        <ele>95.1</ele>
        <time>2022-12-28T15:31:30Z</time>
      </trkpt>
      <trkpt lat="49.97154" lon="2.2998">
        <ele>95.1</ele>
        <time>2022-12-28T15:31:31Z</time>
      </trkpt>
      <trkpt lat="49.97154" lon="2.2998">
        <ele>95.1</ele>
        <time>2022-12-28T15:31:32Z</time>
      </trkpt>
      <trkpt lat="49.97153" lon="2.2998">
        <ele>95.1</ele>
        <time>2022-12-28T15:31:33Z</time>
      </trkpt>
      <trkpt lat="49.97153" lon="2.2998">
        <ele>95.2</ele>
        <time>2022-12-28T15:31:34Z</time>
      </trkpt>
      <trkpt lat="49.97153" lon="2.2998">
        <ele>95.2</ele>
        <time>2022-12-28T15:31:35Z</time>
      </trkpt>
      <trkpt lat="49.97153" lon="2.2998">
        <ele>95.2</ele>
        <time>2022-12-28T15:31:36Z</time>
      </trkpt>
      <trkpt lat="49.97153" lon="2.2998">
        <ele>95.2</ele>
        <time>2022-12-28T15:31:37Z</time>
      </trkpt>
      <trkpt lat="49.97153" lon="2.29981">
        <ele>95.2</ele>
        <time>2022-12-28T15:31:38Z</time>
      </trkpt>
      <trkpt lat="49.97153" lon="2.29981">
        <ele>95.2</ele>
        <time>2022-12-28T15:31:39Z</time>
      </trkpt>
      <trkpt lat="49.97153" lon="2.29981">
        <ele>95.2</ele>
        <time>2022-12-28T15:31:40Z</time>
      </trkpt>
      <trkpt lat="49.97153" lon="2.29981">
        <ele>95.2</ele>
        <time>2022-12-28T15:31:41Z</time>
      </trkpt>
      <trkpt lat="49.97152" lon="2.29982">
        <ele>95.2</ele>
        <time>2022-12-28T15:31:42Z</time>
      </trkpt>
      <trkpt lat="49.97152" lon="2.29983">
        <ele>95.2</ele>
        <time>2022-12-28T15:31:43Z</time>
      </trkpt>
      <trkpt lat="49.97152" lon="2.29983">
        <ele>95.2</ele>
        <time>2022-12-28T15:31:44Z</time>
      </trkpt>
      <trkpt lat="49.97152" lon="2.29983">
        <ele>95.2</ele>
        <time>2022-12-28T15:31:45Z</time>
      </trkpt>
      <trkpt lat="49.97152" lon="2.29983">
        <ele>95.2</ele>
        <time>2022-12-28T15:31:46Z</time>
      </trkpt>
      <trkpt lat="49.97152" lon="2.29983">
        <ele>95.2</ele>
        <time>2022-12-28T15:31:47Z</time>
      </trkpt>
      <trkpt lat="49.97152" lon="2.29983">
        <ele>95.2</ele>
        <time>2022-12-28T15:31:48Z</time>
      </trkpt>
      <trkpt lat="49.97152" lon="2.29983">
        <ele>95.2</ele>
        <time>2022-12-28T15:31:49Z</time>
      </trkpt>
      <trkpt lat="49.97152" lon="2.29983">
        <ele>95.2</ele>
        <time>2022-12-28T15:31:50Z</time>
      </trkpt>
      <trkpt lat="49.97152" lon="2.29983">
        <ele>95.2</ele>
        <time>2022-12-28T15:31:51Z</time>
      </trkpt>
      <trkpt lat="49.97152" lon="2.29983">
        <ele>95.2</ele>
        <time>2022-12-28T15:31:52Z</time>
      </trkpt>
      <trkpt lat="49.97152" lon="2.29983">
        <ele>95.2</ele>
        <time>2022-12-28T15:31:53Z</time>
      </trkpt>
      <trkpt lat="49.97152" lon="2.29983">
        <ele>95.2</ele>
        <time>2022-12-28T15:31:54Z</time>
      </trkpt>
      <trkpt lat="49.97152" lon="2.29983">
        <ele>95.2</ele>
        <time>2022-12-28T15:31:55Z</time>
      </trkpt>
      <trkpt lat="49.97152" lon="2.29983">
        <ele>95.2</ele>
        <time>2022-12-28T15:31:56Z</time>
      </trkpt>
      <trkpt lat="49.97152" lon="2.29983">
        <ele>95.2</ele>
        <time>2022-12-28T15:31:57Z</time>
      </trkpt>
      <trkpt lat="49.97152" lon="2.29983">
        <ele>95.2</ele>
        <time>2022-12-28T15:31:58Z</time>
      </trkpt>
      <trkpt lat="49.97152" lon="2.29983">
        <ele>95.2</ele>
        <time>2022-12-28T15:31:59Z</time>
      </trkpt>
      <trkpt lat="49.97152" lon="2.29983">
        <ele>95.2</ele>
        <time>2022-12-28T15:32:00Z</time>
      </trkpt>
      <trkpt lat="49.97152" lon="2.29983">
        <ele>95.2</ele>
        <time>2022-12-28T15:32:01Z</time>
      </trkpt>
      <trkpt lat="49.97152" lon="2.29983">
        <ele>95.2</ele>
        <time>2022-12-28T15:32:02Z</time>
      </trkpt>
      <trkpt lat="49.97152" lon="2.29983">
        <ele>95.2</ele>
        <time>2022-12-28T15:32:03Z</time>
      </trkpt>
      <trkpt lat="49.97152" lon="2.29983">
        <ele>95.2</ele>
        <time>2022-12-28T15:32:04Z</time>
      </trkpt>
      <trkpt lat="49.97152" lon="2.29983">
        <ele>95.2</ele>
        <time>2022-12-28T15:32:05Z</time>
      </trkpt>
      <trkpt lat="49.97152" lon="2.29983">
        <ele>95.2</ele>
        <time>2022-12-28T15:32:06Z</time>
      </trkpt>
      <trkpt lat="49.97152" lon="2.29983">
        <ele>95.2</ele>
        <time>2022-12-28T15:32:07Z</time>
      </trkpt>
      <trkpt lat="49.97152" lon="2.29983">
        <ele>95.2</ele>
        <time>2022-12-28T15:32:08Z</time>
      </trkpt>
      <trkpt lat="49.97152" lon="2.29983">
        <ele>95.2</ele>
        <time>2022-12-28T15:32:09Z</time>
      </trkpt>
      <trkpt lat="49.97152" lon="2.29983">
        <ele>95.2</ele>
        <time>2022-12-28T15:32:10Z</time>
      </trkpt>
      <trkpt lat="49.97152" lon="2.29983">
        <ele>95.2</ele>
        <time>2022-12-28T15:32:11Z</time>
      </trkpt>
      <trkpt lat="49.97152" lon="2.29983">
        <ele>95.2</ele>
        <time>2022-12-28T15:32:12Z</time>
      </trkpt>
      <trkpt lat="49.97152" lon="2.29983">
        <ele>95.2</ele>
        <time>2022-12-28T15:32:13Z</time>
      </trkpt>
      <trkpt lat="49.97152" lon="2.29983">
        <ele>95.2</ele>
        <time>2022-12-28T15:32:14Z</time>
      </trkpt>
      <trkpt lat="49.97152" lon="2.29983">
        <ele>95.2</ele>
        <time>2022-12-28T15:32:15Z</time>
      </trkpt>
      <trkpt lat="49.97152" lon="2.29983">
        <ele>95.2</ele>
        <time>2022-12-28T15:32:16Z</time>
      </trkpt>
      <trkpt lat="49.97152" lon="2.29983">
        <ele>95.2</ele>
        <time>2022-12-28T15:32:17Z</time>
      </trkpt>
      <trkpt lat="49.97152" lon="2.29983">
        <ele>95.2</ele>
        <time>2022-12-28T15:32:18Z</time>
      </trkpt>
      <trkpt lat="49.97152" lon="2.29983">
        <ele>95.2</ele>
        <time>2022-12-28T15:32:19Z</time>
      </trkpt>
      <trkpt lat="49.97152" lon="2.29983">
        <ele>95.2</ele>
        <time>2022-12-28T15:32:20Z</time>
      </trkpt>
      <trkpt lat="49.97152" lon="2.29983">
        <ele>95.2</ele>
        <time>2022-12-28T15:32:21Z</time>
      </trkpt>
      <trkpt lat="49.97152" lon="2.29983">
        <ele>95.2</ele>
        <time>2022-12-28T15:32:22Z</time>
      </trkpt>
      <trkpt lat="49.97152" lon="2.29983">
        <ele>95.2</ele>
        <time>2022-12-28T15:32:23Z</time>
      </trkpt>
      <trkpt lat="49.97152" lon="2.29983">
        <ele>95.2</ele>
        <time>2022-12-28T15:32:24Z</time>
      </trkpt>
      <trkpt lat="49.97152" lon="2.29983">
        <ele>95.2</ele>
        <time>2022-12-28T15:32:25Z</time>
      </trkpt>
      <trkpt lat="49.97152" lon="2.29983">
        <ele>95.2</ele>
        <time>2022-12-28T15:32:26Z</time>
      </trkpt>
      <trkpt lat="49.97152" lon="2.29983">
        <ele>95.2</ele>
        <time>2022-12-28T15:32:27Z</time>
      </trkpt>
      <trkpt lat="49.97152" lon="2.29983">
        <ele>95.2</ele>
        <time>2022-12-28T15:32:28Z</time>
      </trkpt>
      <trkpt lat="49.97152" lon="2.29983">
        <ele>95.2</ele>
        <time>2022-12-28T15:32:29Z</time>
      </trkpt>
      <trkpt lat="49.97152" lon="2.29983">
        <ele>95.2</ele>
        <time>2022-12-28T15:32:30Z</time>
      </trkpt>
      <trkpt lat="49.97152" lon="2.29983">
        <ele>95.2</ele>
        <time>2022-12-28T15:32:31Z</time>
      </trkpt>
      <trkpt lat="49.97152" lon="2.29983">
        <ele>95.2</ele>
        <time>2022-12-28T15:32:32Z</time>
      </trkpt>
      <trkpt lat="49.97152" lon="2.29983">
        <ele>95.2</ele>
        <time>2022-12-28T15:32:33Z</time>
      </trkpt>
      <trkpt lat="49.97152" lon="2.29983">
        <ele>95.2</ele>
        <time>2022-12-28T15:32:34Z</time>
      </trkpt>
      <trkpt lat="49.97152" lon="2.29983">
        <ele>95.2</ele>
        <time>2022-12-28T15:32:35Z</time>
      </trkpt>
      <trkpt lat="49.97152" lon="2.29983">
        <ele>95.2</ele>
        <time>2022-12-28T15:32:36Z</time>
      </trkpt>
      <trkpt lat="49.97152" lon="2.29983">
        <ele>95.2</ele>
        <time>2022-12-28T15:32:37Z</time>
      </trkpt>
      <trkpt lat="49.97152" lon="2.29983">
        <ele>95.2</ele>
        <time>2022-12-28T15:32:38Z</time>
      </trkpt>
      <trkpt lat="49.97152" lon="2.29983">
        <ele>95.2</ele>
        <time>2022-12-28T15:32:39Z</time>
      </trkpt>
      <trkpt lat="49.97152" lon="2.29983">
        <ele>95.2</ele>
        <time>2022-12-28T15:32:40Z</time>
      </trkpt>
      <trkpt lat="49.97152" lon="2.29983">
        <ele>95.2</ele>
        <time>2022-12-28T15:32:41Z</time>
      </trkpt>
      <trkpt lat="49.97152" lon="2.29983">
        <ele>95.2</ele>
        <time>2022-12-28T15:32:42Z</time>
      </trkpt>
      <trkpt lat="49.97152" lon="2.29983">
        <ele>95.2</ele>
        <time>2022-12-28T15:32:45Z</time>
      </trkpt>
      <trkpt lat="49.97152" lon="2.29983">
        <ele>95.2</ele>
        <time>2022-12-28T15:32:46Z</time>
      </trkpt>
      <trkpt lat="49.97152" lon="2.29983">
        <ele>95.2</ele>
        <time>2022-12-28T15:32:47Z</time>
      </trkpt>
      <trkpt lat="49.97152" lon="2.29983">
        <ele>95.2</ele>
        <time>2022-12-28T15:32:48Z</time>
      </trkpt>
      <trkpt lat="49.97152" lon="2.29983">
        <ele>95.2</ele>
        <time>2022-12-28T15:32:49Z</time>
      </trkpt>
      <trkpt lat="49.97152" lon="2.29983">
        <ele>95.2</ele>
        <time>2022-12-28T15:32:50Z</time>
      </trkpt>
      <trkpt lat="49.97152" lon="2.29983">
        <ele>95.2</ele>
        <time>2022-12-28T15:32:51Z</time>
      </trkpt>
      <trkpt lat="49.97152" lon="2.29983">
        <ele>95.2</ele>
        <time>2022-12-28T15:32:52Z</time>
      </trkpt>
      <trkpt lat="49.97152" lon="2.29983">
        <ele>95.2</ele>
        <time>2022-12-28T15:32:53Z</time>
      </trkpt>
      <trkpt lat="49.97152" lon="2.29983">
        <ele>95.2</ele>
        <time>2022-12-28T15:32:54Z</time>
      </trkpt>
      <trkpt lat="49.97152" lon="2.29983">
        <ele>95.2</ele>
        <time>2022-12-28T15:32:55Z</time>
      </trkpt>
      <trkpt lat="49.97152" lon="2.29983">
        <ele>95.2</ele>
        <time>2022-12-28T15:32:56Z</time>
      </trkpt>
      <trkpt lat="49.97152" lon="2.29983">
        <ele>95.2</ele>
        <time>2022-12-28T15:32:57Z</time>
      </trkpt>
      <trkpt lat="49.97152" lon="2.29983">
        <ele>95.2</ele>
        <time>2022-12-28T15:32:58Z</time>
      </trkpt>
      <trkpt lat="49.97152" lon="2.29983">
        <ele>95.2</ele>
        <time>2022-12-28T15:32:59Z</time>
      </trkpt>
      <trkpt lat="49.97152" lon="2.29983">
        <ele>95.2</ele>
        <time>2022-12-28T15:33:00Z</time>
      </trkpt>
      <trkpt lat="49.97152" lon="2.29983">
        <ele>95.2</ele>
        <time>2022-12-28T15:33:01Z</time>
      </trkpt>
      <trkpt lat="49.97152" lon="2.29983">
        <ele>95.2</ele>
        <time>2022-12-28T15:33:02Z</time>
      </trkpt>
      <trkpt lat="49.97152" lon="2.29983">
        <ele>95.2</ele>
        <time>2022-12-28T15:33:03Z</time>
      </trkpt>
      <trkpt lat="49.97152" lon="2.29983">
        <ele>95.2</ele>
        <time>2022-12-28T15:33:04Z</time>
      </trkpt>
      <trkpt lat="49.97152" lon="2.29983">
        <ele>95.2</ele>
        <time>2022-12-28T15:33:05Z</time>
      </trkpt>
      <trkpt lat="49.97152" lon="2.29983">
        <ele>95.2</ele>
        <time>2022-12-28T15:33:06Z</time>
      </trkpt>
      <trkpt lat="49.97152" lon="2.29983">
        <ele>95.2</ele>
        <time>2022-12-28T15:33:07Z</time>
      </trkpt>
      <trkpt lat="49.97152" lon="2.29983">
        <ele>95.2</ele>
        <time>2022-12-28T15:33:08Z</time>
      </trkpt>
      <trkpt lat="49.97152" lon="2.29983">
        <ele>95.2</ele>
        <time>2022-12-28T15:33:09Z</time>
      </trkpt>
      <trkpt lat="49.97152" lon="2.29983">
        <ele>95.2</ele>
        <time>2022-12-28T15:33:10Z</time>
      </trkpt>
      <trkpt lat="49.97152" lon="2.29983">
        <ele>95.2</ele>
        <time>2022-12-28T15:33:11Z</time>
      </trkpt>
      <trkpt lat="49.97152" lon="2.29983">
        <ele>95.2</ele>
        <time>2022-12-28T15:33:12Z</time>
      </trkpt>
      <trkpt lat="49.97152" lon="2.29983">
        <ele>95.2</ele>
        <time>2022-12-28T15:33:13Z</time>
      </trkpt>
      <trkpt lat="49.97152" lon="2.29983">
        <ele>95.2</ele>
        <time>2022-12-28T15:33:14Z</time>
      </trkpt>
      <trkpt lat="49.97152" lon="2.29983">
        <ele>95.2</ele>
        <time>2022-12-28T15:33:15Z</time>
      </trkpt>
      <trkpt lat="49.97152" lon="2.29983">
        <ele>95.2</ele>
        <time>2022-12-28T15:33:16Z</time>
      </trkpt>
      <trkpt lat="49.97152" lon="2.29983">
        <ele>95.2</ele>
        <time>2022-12-28T15:33:17Z</time>
      </trkpt>
      <trkpt lat="49.97152" lon="2.29983">
        <ele>95.2</ele>
        <time>2022-12-28T15:33:18Z</time>
      </trkpt>
      <trkpt lat="49.97152" lon="2.29983">
        <ele>95.2</ele>
        <time>2022-12-28T15:33:19Z</time>
      </trkpt>
      <trkpt lat="49.97152" lon="2.29983">
        <ele>95.2</ele>
        <time>2022-12-28T15:33:20Z</time>
      </trkpt>
      <trkpt lat="49.97152" lon="2.29983">
        <ele>95.2</ele>
        <time>2022-12-28T15:33:21Z</time>
      </trkpt>
      <trkpt lat="49.97152" lon="2.29983">
        <ele>95.2</ele>
        <time>2022-12-28T15:33:22Z</time>
      </trkpt>
      <trkpt lat="49.97152" lon="2.29983">
        <ele>95.2</ele>
        <time>2022-12-28T15:33:23Z</time>
      </trkpt>
      <trkpt lat="49.97152" lon="2.29983">
        <ele>95.2</ele>
        <time>2022-12-28T15:33:24Z</time>
      </trkpt>
      <trkpt lat="49.97152" lon="2.29983">
        <ele>95.2</ele>
        <time>2022-12-28T15:33:25Z</time>
      </trkpt>
      <trkpt lat="49.97152" lon="2.29983">
        <ele>95.2</ele>
        <time>2022-12-28T15:33:26Z</time>
      </trkpt>
      <trkpt lat="49.97152" lon="2.29983">
        <ele>95.2</ele>
        <time>2022-12-28T15:33:27Z</time>
      </trkpt>
      <trkpt lat="49.97152" lon="2.29983">
        <ele>95.2</ele>
        <time>2022-12-28T15:33:28Z</time>
      </trkpt>
      <trkpt lat="49.97152" lon="2.29983">
        <ele>95.2</ele>
        <time>2022-12-28T15:33:29Z</time>
      </trkpt>
      <trkpt lat="49.97152" lon="2.29983">
        <ele>95.2</ele>
        <time>2022-12-28T15:33:30Z</time>
      </trkpt>
      <trkpt lat="49.97152" lon="2.29983">
        <ele>95.2</ele>
        <time>2022-12-28T15:33:31Z</time>
      </trkpt>
      <trkpt lat="49.97152" lon="2.29983">
        <ele>95.2</ele>
        <time>2022-12-28T15:33:32Z</time>
      </trkpt>
      <trkpt lat="49.97152" lon="2.29983">
        <ele>95.2</ele>
        <time>2022-12-28T15:33:33Z</time>
      </trkpt>
      <trkpt lat="49.97152" lon="2.29983">
        <ele>95.2</ele>
        <time>2022-12-28T15:33:34Z</time>
      </trkpt>
      <trkpt lat="49.97152" lon="2.29983">
        <ele>95.2</ele>
        <time>2022-12-28T15:33:35Z</time>
      </trkpt>
      <trkpt lat="49.97152" lon="2.29983">
        <ele>95.2</ele>
        <time>2022-12-28T15:33:36Z</time>
      </trkpt>
      <trkpt lat="49.97152" lon="2.29983">
        <ele>95.2</ele>
        <time>2022-12-28T15:33:37Z</time>
      </trkpt>
      <trkpt lat="49.97152" lon="2.29983">
        <ele>95.2</ele>
        <time>2022-12-28T15:33:38Z</time>
      </trkpt>
      <trkpt lat="49.97152" lon="2.29983">
        <ele>95.2</ele>
        <time>2022-12-28T15:33:39Z</time>
      </trkpt>
      <trkpt lat="49.97152" lon="2.29983">
        <ele>95.2</ele>
        <time>2022-12-28T15:33:40Z</time>
      </trkpt>
      <trkpt lat="49.97152" lon="2.29983">
        <ele>95.2</ele>
        <time>2022-12-28T15:33:41Z</time>
      </trkpt>
      <trkpt lat="49.97152" lon="2.29983">
        <ele>95.2</ele>
        <time>2022-12-28T15:33:42Z</time>
      </trkpt>
      <trkpt lat="49.97152" lon="2.29983">
        <ele>95.2</ele>
        <time>2022-12-28T15:33:43Z</time>
      </trkpt>
      <trkpt lat="49.97152" lon="2.29983">
        <ele>95.2</ele>
        <time>2022-12-28T15:33:44Z</time>
      </trkpt>
      <trkpt lat="49.97152" lon="2.29983">
        <ele>95.2</ele>
        <time>2022-12-28T15:33:45Z</time>
      </trkpt>
      <trkpt lat="49.97152" lon="2.29983">
        <ele>95.2</ele>
        <time>2022-12-28T15:33:46Z</time>
      </trkpt>
      <trkpt lat="49.97152" lon="2.29983">
        <ele>95.2</ele>
        <time>2022-12-28T15:33:47Z</time>
      </trkpt>
      <trkpt lat="49.97152" lon="2.29983">
        <ele>95.2</ele>
        <time>2022-12-28T15:33:48Z</time>
      </trkpt>
      <trkpt lat="49.97152" lon="2.29983">
        <ele>95.2</ele>
        <time>2022-12-28T15:33:49Z</time>
      </trkpt>
      <trkpt lat="49.97152" lon="2.29983">
        <ele>95.2</ele>
        <time>2022-12-28T15:33:50Z</time>
      </trkpt>
      <trkpt lat="49.97152" lon="2.29983">
        <ele>95.2</ele>
        <time>2022-12-28T15:33:51Z</time>
      </trkpt>
      <trkpt lat="49.97152" lon="2.29983">
        <ele>95.2</ele>
        <time>2022-12-28T15:33:52Z</time>
      </trkpt>
      <trkpt lat="49.97152" lon="2.29983">
        <ele>95.2</ele>
        <time>2022-12-28T15:33:53Z</time>
      </trkpt>
      <trkpt lat="49.97152" lon="2.29983">
        <ele>95.2</ele>
        <time>2022-12-28T15:33:54Z</time>
      </trkpt>
      <trkpt lat="49.97152" lon="2.29983">
        <ele>95.2</ele>
        <time>2022-12-28T15:33:55Z</time>
      </trkpt>
      <trkpt lat="49.97152" lon="2.29983">
        <ele>95.2</ele>
        <time>2022-12-28T15:33:56Z</time>
      </trkpt>
      <trkpt lat="49.97152" lon="2.29983">
        <ele>95.2</ele>
        <time>2022-12-28T15:33:57Z</time>
      </trkpt>
      <trkpt lat="49.97152" lon="2.29983">
        <ele>95.2</ele>
        <time>2022-12-28T15:33:58Z</time>
      </trkpt>
      <trkpt lat="49.97152" lon="2.29983">
        <ele>95.2</ele>
        <time>2022-12-28T15:33:59Z</time>
      </trkpt>
      <trkpt lat="49.97152" lon="2.29983">
        <ele>95.2</ele>
        <time>2022-12-28T15:34:00Z</time>
      </trkpt>
      <trkpt lat="49.97152" lon="2.29983">
        <ele>95.2</ele>
        <time>2022-12-28T15:34:01Z</time>
      </trkpt>
      <trkpt lat="49.97152" lon="2.29983">
        <ele>95.2</ele>
        <time>2022-12-28T15:34:02Z</time>
      </trkpt>
      <trkpt lat="49.97152" lon="2.29983">
        <ele>95.2</ele>
        <time>2022-12-28T15:34:03Z</time>
      </trkpt>
      <trkpt lat="49.97152" lon="2.29983">
        <ele>95.2</ele>
        <time>2022-12-28T15:34:04Z</time>
      </trkpt>
      <trkpt lat="49.97152" lon="2.29983">
        <ele>95.2</ele>
        <time>2022-12-28T15:34:05Z</time>
      </trkpt>
      <trkpt lat="49.97152" lon="2.29983">
        <ele>95.2</ele>
        <time>2022-12-28T15:34:06Z</time>
      </trkpt>
      <trkpt lat="49.97152" lon="2.29982">
        <ele>95.2</ele>
        <time>2022-12-28T15:34:12Z</time>
      </trkpt>
      <trkpt lat="49.97152" lon="2.29982">
        <ele>95.3</ele>
        <time>2022-12-28T15:34:20Z</time>
      </trkpt>
      <trkpt lat="49.97152" lon="2.29981">
        <ele>95.3</ele>
        <time>2022-12-28T15:34:22Z</time>
      </trkpt>
      <trkpt lat="49.97152" lon="2.29981">
        <ele>95.3</ele>
        <time>2022-12-28T15:34:23Z</time>
      </trkpt>
      <trkpt lat="49.97152" lon="2.29981">
        <ele>95.3</ele>
        <time>2022-12-28T15:34:24Z</time>
      </trkpt>
      <trkpt lat="49.97151" lon="2.29984">
        <ele>95.3</ele>
        <time>2022-12-28T15:34:42Z</time>
      </trkpt>
      <trkpt lat="49.97152" lon="2.29983">
        <ele>95.3</ele>
        <time>2022-12-28T15:34:44Z</time>
      </trkpt>
      <trkpt lat="49.97152" lon="2.29982">
        <ele>95.3</ele>
        <time>2022-12-28T15:34:46Z</time>
      </trkpt>
      <trkpt lat="49.97152" lon="2.29981">
        <ele>95.3</ele>
        <time>2022-12-28T15:34:47Z</time>
      </trkpt>
      <trkpt lat="49.97152" lon="2.29984">
        <ele>95.5</ele>
        <time>2022-12-28T15:36:13Z</time>
      </trkpt>
      <trkpt lat="49.97154" lon="2.29984">
        <ele>95.5</ele>
        <time>2022-12-28T15:36:14Z</time>
      </trkpt>
      <trkpt lat="49.97155" lon="2.29984">
        <ele>95.5</ele>
        <time>2022-12-28T15:36:15Z</time>
      </trkpt>
      <trkpt lat="49.97157" lon="2.29985">
        <ele>95.5</ele>
        <time>2022-12-28T15:36:16Z</time>
      </trkpt>
      <trkpt lat="49.97159" lon="2.29985">
        <ele>95.6</ele>
        <time>2022-12-28T15:36:18Z</time>
      </trkpt>
      <trkpt lat="49.97158" lon="2.29985">
        <ele>95.6</ele>
        <time>2022-12-28T15:36:19Z</time>
      </trkpt>
      <trkpt lat="49.97157" lon="2.29985">
        <ele>95.6</ele>
        <time>2022-12-28T15:36:20Z</time>
      </trkpt>
      <trkpt lat="49.97156" lon="2.29985">
        <ele>95.6</ele>
        <time>2022-12-28T15:36:21Z</time>
      </trkpt>
      <trkpt lat="49.97155" lon="2.29985">
        <ele>95.6</ele>
        <time>2022-12-28T15:36:23Z</time>
      </trkpt>
      <trkpt lat="49.97154" lon="2.29985">
        <ele>95.6</ele>
        <time>2022-12-28T15:36:24Z</time>
      </trkpt>
      <trkpt lat="49.97153" lon="2.29985">
        <ele>95.6</ele>
        <time>2022-12-28T15:36:25Z</time>
      </trkpt>
      <trkpt lat="49.97152" lon="2.29984">
        <ele>95.7</ele>
        <time>2022-12-28T15:36:26Z</time>
      </trkpt>
      <trkpt lat="49.97153" lon="2.29986">
        <ele>95.7</ele>
        <time>2022-12-28T15:36:29Z</time>
      </trkpt>
      <trkpt lat="49.97155" lon="2.29986">
        <ele>95.7</ele>
        <time>2022-12-28T15:36:31Z</time>
      </trkpt>
      <trkpt lat="49.97156" lon="2.29987">
        <ele>95.7</ele>
        <time>2022-12-28T15:36:32Z</time>
      </trkpt>
      <trkpt lat="49.97156" lon="2.29988">
        <ele>95.8</ele>
        <time>2022-12-28T15:36:33Z</time>
      </trkpt>
      <trkpt lat="49.97157" lon="2.29988">
        <ele>95.8</ele>
        <time>2022-12-28T15:36:35Z</time>
      </trkpt>
      <trkpt lat="49.97157" lon="2.29988">
        <ele>95.8</ele>
        <time>2022-12-28T15:36:36Z</time>
      </trkpt>
      <trkpt lat="49.97157" lon="2.29988">
        <ele>95.8</ele>
        <time>2022-12-28T15:36:37Z</time>
      </trkpt>
      <trkpt lat="49.97157" lon="2.29989">
        <ele>95.8</ele>
        <time>2022-12-28T15:36:39Z</time>
      </trkpt>
      <trkpt lat="49.97157" lon="2.29989">
        <ele>95.8</ele>
        <time>2022-12-28T15:36:40Z</time>
      </trkpt>
      <trkpt lat="49.97157" lon="2.29989">
        <ele>95.8</ele>
        <time>2022-12-28T15:36:41Z</time>
      </trkpt>
      <trkpt lat="49.97156" lon="2.29989">
        <ele>95.8</ele>
        <time>2022-12-28T15:36:43Z</time>
      </trkpt>
      <trkpt lat="49.97157" lon="2.29989">
        <ele>95.8</ele>
        <time>2022-12-28T15:36:44Z</time>
      </trkpt>
      <trkpt lat="49.97157" lon="2.2999">
        <ele>95.8</ele>
        <time>2022-12-28T15:36:45Z</time>
      </trkpt>
      <trkpt lat="49.97158" lon="2.2999">
        <ele>95.8</ele>
        <time>2022-12-28T15:36:46Z</time>
      </trkpt>
      <trkpt lat="49.97158" lon="2.29991">
        <ele>95.8</ele>
        <time>2022-12-28T15:36:47Z</time>
      </trkpt>
      <trkpt lat="49.97159" lon="2.29992">
        <ele>95.8</ele>
        <time>2022-12-28T15:36:49Z</time>
      </trkpt>
      <trkpt lat="49.97161" lon="2.29993">
        <ele>95.9</ele>
        <time>2022-12-28T15:36:50Z</time>
      </trkpt>
      <trkpt lat="49.97161" lon="2.29993">
        <ele>95.9</ele>
        <time>2022-12-28T15:36:51Z</time>
      </trkpt>
      <trkpt lat="49.97162" lon="2.29993">
        <ele>95.9</ele>
        <time>2022-12-28T15:36:52Z</time>
      </trkpt>
      <trkpt lat="49.97163" lon="2.29993">
        <ele>95.9</ele>
        <time>2022-12-28T15:36:53Z</time>
      </trkpt>
      <trkpt lat="49.97163" lon="2.29994">
        <ele>95.9</ele>
        <time>2022-12-28T15:36:54Z</time>
      </trkpt>
      <trkpt lat="49.97164" lon="2.29995">
        <ele>95.9</ele>
        <time>2022-12-28T15:36:55Z</time>
      </trkpt>
      <trkpt lat="49.97165" lon="2.29995">
        <ele>95.8</ele>
        <time>2022-12-28T15:36:57Z</time>
      </trkpt>
      <trkpt lat="49.97166" lon="2.29996">
        <ele>95.8</ele>
        <time>2022-12-28T15:36:58Z</time>
      </trkpt>
      <trkpt lat="49.97166" lon="2.29996">
        <ele>95.8</ele>
        <time>2022-12-28T15:36:59Z</time>
      </trkpt>
      <trkpt lat="49.97167" lon="2.29997">
        <ele>95.8</ele>
        <time>2022-12-28T15:37:00Z</time>
      </trkpt>
      <trkpt lat="49.97167" lon="2.29996">
        <ele>95.8</ele>
        <time>2022-12-28T15:37:01Z</time>
      </trkpt>
      <trkpt lat="49.97167" lon="2.29994">
        <ele>95.8</ele>
        <time>2022-12-28T15:37:02Z</time>
      </trkpt>
      <trkpt lat="49.97167" lon="2.29993">
        <ele>95.8</ele>
        <time>2022-12-28T15:37:03Z</time>
      </trkpt>
      <trkpt lat="49.97167" lon="2.29993">
        <ele>95.8</ele>
        <time>2022-12-28T15:37:04Z</time>
      </trkpt>
      <trkpt lat="49.97168" lon="2.29993">
        <ele>95.8</ele>
        <time>2022-12-28T15:37:06Z</time>
      </trkpt>
      <trkpt lat="49.97168" lon="2.29993">
        <ele>95.8</ele>
        <time>2022-12-28T15:37:07Z</time>
      </trkpt>
      <trkpt lat="49.97169" lon="2.29993">
        <ele>95.7</ele>
        <time>2022-12-28T15:37:08Z</time>
      </trkpt>
      <trkpt lat="49.9717" lon="2.29993">
        <ele>95.7</ele>
        <time>2022-12-28T15:37:09Z</time>
      </trkpt>
      <trkpt lat="49.97171" lon="2.29993">
        <ele>95.7</ele>
        <time>2022-12-28T15:37:10Z</time>
      </trkpt>
      <trkpt lat="49.97172" lon="2.29993">
        <ele>95.7</ele>
        <time>2022-12-28T15:37:11Z</time>
      </trkpt>
      <trkpt lat="49.97173" lon="2.29992">
        <ele>95.7</ele>
        <time>2022-12-28T15:37:13Z</time>
      </trkpt>
      <trkpt lat="49.97173" lon="2.29992">
        <ele>95.7</ele>
        <time>2022-12-28T15:37:14Z</time>
      </trkpt>
      <trkpt lat="49.97174" lon="2.29992">
        <ele>95.7</ele>
        <time>2022-12-28T15:37:15Z</time>
      </trkpt>
      <trkpt lat="49.97175" lon="2.29992">
        <ele>95.7</ele>
        <time>2022-12-28T15:37:16Z</time>
      </trkpt>
      <trkpt lat="49.97175" lon="2.29991">
        <ele>95.7</ele>
        <time>2022-12-28T15:37:17Z</time>
      </trkpt>
      <trkpt lat="49.97176" lon="2.2999">
        <ele>95.7</ele>
        <time>2022-12-28T15:37:19Z</time>
      </trkpt>
      <trkpt lat="49.97177" lon="2.2999">
        <ele>95.6</ele>
        <time>2022-12-28T15:37:20Z</time>
      </trkpt>
      <trkpt lat="49.97177" lon="2.2999">
        <ele>95.6</ele>
        <time>2022-12-28T15:37:21Z</time>
      </trkpt>
      <trkpt lat="49.97177" lon="2.2999">
        <ele>95.6</ele>
        <time>2022-12-28T15:37:22Z</time>
      </trkpt>
      <trkpt lat="49.97177" lon="2.2999">
        <ele>95.6</ele>
        <time>2022-12-28T15:37:23Z</time>
      </trkpt>
      <trkpt lat="49.97176" lon="2.2999">
        <ele>95.6</ele>
        <time>2022-12-28T15:37:25Z</time>
      </trkpt>
      <trkpt lat="49.97175" lon="2.29991">
        <ele>95.6</ele>
        <time>2022-12-28T15:37:26Z</time>
      </trkpt>
      <trkpt lat="49.97174" lon="2.29991">
        <ele>95.6</ele>
        <time>2022-12-28T15:37:28Z</time>
      </trkpt>
      <trkpt lat="49.97174" lon="2.29991">
        <ele>95.6</ele>
        <time>2022-12-28T15:37:29Z</time>
      </trkpt>
      <trkpt lat="49.97174" lon="2.29991">
        <ele>95.6</ele>
        <time>2022-12-28T15:37:31Z</time>
      </trkpt>
      <trkpt lat="49.97174" lon="2.29991">
        <ele>95.6</ele>
        <time>2022-12-28T15:37:32Z</time>
      </trkpt>
      <trkpt lat="49.97174" lon="2.29991">
        <ele>95.6</ele>
        <time>2022-12-28T15:37:34Z</time>
      </trkpt>
      <trkpt lat="49.97174" lon="2.29991">
        <ele>95.6</ele>
        <time>2022-12-28T15:37:35Z</time>
      </trkpt>
      <trkpt lat="49.97174" lon="2.29991">
        <ele>95.6</ele>
        <time>2022-12-28T15:37:36Z</time>
      </trkpt>
      <trkpt lat="49.97174" lon="2.29991">
        <ele>95.6</ele>
        <time>2022-12-28T15:37:38Z</time>
      </trkpt>
      <trkpt lat="49.97173" lon="2.29992">
        <ele>95.6</ele>
        <time>2022-12-28T15:37:39Z</time>
      </trkpt>
      <trkpt lat="49.97173" lon="2.29992">
        <ele>95.6</ele>
        <time>2022-12-28T15:37:40Z</time>
      </trkpt>
      <trkpt lat="49.97173" lon="2.29992">
        <ele>95.6</ele>
        <time>2022-12-28T15:37:41Z</time>
      </trkpt>
      <trkpt lat="49.97173" lon="2.29992">
        <ele>95.6</ele>
        <time>2022-12-28T15:37:42Z</time>
      </trkpt>
      <trkpt lat="49.97173" lon="2.29992">
        <ele>95.6</ele>
        <time>2022-12-28T15:37:43Z</time>
      </trkpt>
      <trkpt lat="49.97173" lon="2.29992">
        <ele>95.6</ele>
        <time>2022-12-28T15:37:44Z</time>
      </trkpt>
      <trkpt lat="49.97173" lon="2.29992">
        <ele>95.6</ele>
        <time>2022-12-28T15:37:45Z</time>
      </trkpt>
      <trkpt lat="49.97173" lon="2.29992">
        <ele>95.6</ele>
        <time>2022-12-28T15:37:46Z</time>
      </trkpt>
      <trkpt lat="49.97173" lon="2.29992">
        <ele>95.6</ele>
        <time>2022-12-28T15:37:47Z</time>
      </trkpt>
      <trkpt lat="49.97173" lon="2.29992">
        <ele>95.6</ele>
        <time>2022-12-28T15:37:48Z</time>
      </trkpt>
      <trkpt lat="49.97173" lon="2.29992">
        <ele>95.6</ele>
        <time>2022-12-28T15:37:49Z</time>
      </trkpt>
      <trkpt lat="49.97173" lon="2.29992">
        <ele>95.6</ele>
        <time>2022-12-28T15:37:50Z</time>
      </trkpt>
      <trkpt lat="49.97173" lon="2.29992">
        <ele>95.6</ele>
        <time>2022-12-28T15:37:51Z</time>
      </trkpt>
      <trkpt lat="49.97173" lon="2.29992">
        <ele>95.6</ele>
        <time>2022-12-28T15:37:52Z</time>
      </trkpt>
      <trkpt lat="49.97173" lon="2.29992">
        <ele>95.6</ele>
        <time>2022-12-28T15:37:53Z</time>
      </trkpt>
      <trkpt lat="49.97173" lon="2.29992">
        <ele>95.6</ele>
        <time>2022-12-28T15:37:54Z</time>
      </trkpt>
      <trkpt lat="49.97173" lon="2.29992">
        <ele>95.6</ele>
        <time>2022-12-28T15:37:55Z</time>
      </trkpt>
      <trkpt lat="49.97173" lon="2.29992">
        <ele>95.6</ele>
        <time>2022-12-28T15:37:56Z</time>
      </trkpt>
      <trkpt lat="49.97173" lon="2.29992">
        <ele>95.6</ele>
        <time>2022-12-28T15:37:57Z</time>
      </trkpt>
      <trkpt lat="49.97173" lon="2.29992">
        <ele>95.6</ele>
        <time>2022-12-28T15:37:58Z</time>
      </trkpt>
      <trkpt lat="49.97173" lon="2.29992">
        <ele>95.6</ele>
        <time>2022-12-28T15:37:59Z</time>
      </trkpt>
      <trkpt lat="49.97173" lon="2.29992">
        <ele>95.6</ele>
        <time>2022-12-28T15:38:00Z</time>
      </trkpt>
      <trkpt lat="49.97173" lon="2.29992">
        <ele>95.6</ele>
        <time>2022-12-28T15:38:01Z</time>
      </trkpt>
      <trkpt lat="49.97173" lon="2.29992">
        <ele>95.6</ele>
        <time>2022-12-28T15:38:02Z</time>
      </trkpt>
      <trkpt lat="49.97173" lon="2.29992">
        <ele>95.6</ele>
        <time>2022-12-28T15:38:03Z</time>
      </trkpt>
      <trkpt lat="49.97173" lon="2.29992">
        <ele>95.6</ele>
        <time>2022-12-28T15:38:04Z</time>
      </trkpt>
      <trkpt lat="49.97173" lon="2.29992">
        <ele>95.6</ele>
        <time>2022-12-28T15:38:05Z</time>
      </trkpt>
      <trkpt lat="49.97173" lon="2.29992">
        <ele>95.6</ele>
        <time>2022-12-28T15:38:06Z</time>
      </trkpt>
      <trkpt lat="49.97173" lon="2.29992">
        <ele>95.6</ele>
        <time>2022-12-28T15:38:07Z</time>
      </trkpt>
      <trkpt lat="49.97173" lon="2.29992">
        <ele>95.6</ele>
        <time>2022-12-28T15:38:08Z</time>
      </trkpt>
      <trkpt lat="49.97173" lon="2.29992">
        <ele>95.6</ele>
        <time>2022-12-28T15:38:09Z</time>
      </trkpt>
      <trkpt lat="49.97173" lon="2.29992">
        <ele>95.6</ele>
        <time>2022-12-28T15:38:10Z</time>
      </trkpt>
      <trkpt lat="49.97173" lon="2.29992">
        <ele>95.6</ele>
        <time>2022-12-28T15:38:11Z</time>
      </trkpt>
      <trkpt lat="49.97173" lon="2.29992">
        <ele>95.6</ele>
        <time>2022-12-28T15:38:12Z</time>
      </trkpt>
      <trkpt lat="49.97173" lon="2.29992">
        <ele>95.6</ele>
        <time>2022-12-28T15:38:13Z</time>
      </trkpt>
      <trkpt lat="49.97173" lon="2.29992">
        <ele>95.6</ele>
        <time>2022-12-28T15:38:14Z</time>
      </trkpt>
      <trkpt lat="49.97173" lon="2.29992">
        <ele>95.6</ele>
        <time>2022-12-28T15:38:15Z</time>
      </trkpt>
      <trkpt lat="49.97173" lon="2.29992">
        <ele>95.6</ele>
        <time>2022-12-28T15:38:16Z</time>
      </trkpt>
      <trkpt lat="49.97173" lon="2.29992">
        <ele>95.6</ele>
        <time>2022-12-28T15:38:17Z</time>
      </trkpt>
      <trkpt lat="49.97173" lon="2.29992">
        <ele>95.6</ele>
        <time>2022-12-28T15:38:18Z</time>
      </trkpt>
      <trkpt lat="49.97173" lon="2.29992">
        <ele>95.6</ele>
        <time>2022-12-28T15:38:19Z</time>
      </trkpt>
      <trkpt lat="49.97173" lon="2.29992">
        <ele>95.6</ele>
        <time>2022-12-28T15:38:20Z</time>
      </trkpt>
      <trkpt lat="49.97173" lon="2.29992">
        <ele>95.6</ele>
        <time>2022-12-28T15:38:21Z</time>
      </trkpt>
      <trkpt lat="49.97173" lon="2.29992">
        <ele>95.6</ele>
        <time>2022-12-28T15:38:22Z</time>
      </trkpt>
      <trkpt lat="49.97173" lon="2.29992">
        <ele>95.6</ele>
        <time>2022-12-28T15:38:23Z</time>
      </trkpt>
      <trkpt lat="49.97173" lon="2.29992">
        <ele>95.6</ele>
        <time>2022-12-28T15:38:24Z</time>
      </trkpt>
      <trkpt lat="49.97173" lon="2.29992">
        <ele>95.6</ele>
        <time>2022-12-28T15:38:25Z</time>
      </trkpt>
      <trkpt lat="49.97173" lon="2.29992">
        <ele>95.6</ele>
        <time>2022-12-28T15:38:26Z</time>
      </trkpt>
      <trkpt lat="49.97173" lon="2.29992">
        <ele>95.6</ele>
        <time>2022-12-28T15:38:27Z</time>
      </trkpt>
      <trkpt lat="49.97173" lon="2.29992">
        <ele>95.6</ele>
        <time>2022-12-28T15:38:28Z</time>
      </trkpt>
      <trkpt lat="49.97173" lon="2.29992">
        <ele>95.6</ele>
        <time>2022-12-28T15:38:29Z</time>
      </trkpt>
      <trkpt lat="49.97173" lon="2.29992">
        <ele>95.6</ele>
        <time>2022-12-28T15:38:30Z</time>
      </trkpt>
      <trkpt lat="49.97173" lon="2.29992">
        <ele>95.6</ele>
        <time>2022-12-28T15:38:31Z</time>
      </trkpt>
      <trkpt lat="49.97173" lon="2.29992">
        <ele>95.6</ele>
        <time>2022-12-28T15:38:32Z</time>
      </trkpt>
      <trkpt lat="49.97173" lon="2.29992">
        <ele>95.6</ele>
        <time>2022-12-28T15:38:33Z</time>
      </trkpt>
      <trkpt lat="49.97173" lon="2.29992">
        <ele>95.6</ele>
        <time>2022-12-28T15:38:34Z</time>
      </trkpt>
      <trkpt lat="49.97173" lon="2.29992">
        <ele>95.6</ele>
        <time>2022-12-28T15:38:35Z</time>
      </trkpt>
      <trkpt lat="49.97173" lon="2.29992">
        <ele>95.6</ele>
        <time>2022-12-28T15:38:36Z</time>
      </trkpt>
      <trkpt lat="49.97173" lon="2.29992">
        <ele>95.6</ele>
        <time>2022-12-28T15:38:37Z</time>
      </trkpt>
      <trkpt lat="49.97173" lon="2.29992">
        <ele>95.6</ele>
        <time>2022-12-28T15:38:38Z</time>
      </trkpt>
      <trkpt lat="49.97173" lon="2.29992">
        <ele>95.6</ele>
        <time>2022-12-28T15:38:39Z</time>
      </trkpt>
      <trkpt lat="49.97173" lon="2.29992">
        <ele>95.6</ele>
        <time>2022-12-28T15:38:40Z</time>
      </trkpt>
      <trkpt lat="49.97173" lon="2.29992">
        <ele>95.6</ele>
        <time>2022-12-28T15:38:41Z</time>
      </trkpt>
      <trkpt lat="49.97173" lon="2.29992">
        <ele>95.6</ele>
        <time>2022-12-28T15:38:42Z</time>
      </trkpt>
      <trkpt lat="49.97173" lon="2.29992">
        <ele>95.6</ele>
        <time>2022-12-28T15:38:43Z</time>
      </trkpt>
      <trkpt lat="49.97173" lon="2.29992">
        <ele>95.6</ele>
        <time>2022-12-28T15:38:44Z</time>
      </trkpt>
      <trkpt lat="49.97173" lon="2.29992">
        <ele>95.6</ele>
        <time>2022-12-28T15:38:45Z</time>
      </trkpt>
      <trkpt lat="49.97173" lon="2.29992">
        <ele>95.6</ele>
        <time>2022-12-28T15:38:46Z</time>
      </trkpt>
      <trkpt lat="49.97173" lon="2.29992">
        <ele>95.6</ele>
        <time>2022-12-28T15:38:47Z</time>
      </trkpt>
      <trkpt lat="49.97173" lon="2.29992">
        <ele>95.6</ele>
        <time>2022-12-28T15:38:48Z</time>
      </trkpt>
      <trkpt lat="49.97173" lon="2.29992">
        <ele>95.6</ele>
        <time>2022-12-28T15:38:49Z</time>
      </trkpt>
      <trkpt lat="49.97173" lon="2.29992">
        <ele>95.6</ele>
        <time>2022-12-28T15:38:50Z</time>
      </trkpt>
      <trkpt lat="49.97173" lon="2.29992">
        <ele>95.6</ele>
        <time>2022-12-28T15:38:51Z</time>
      </trkpt>
      <trkpt lat="49.97173" lon="2.29992">
        <ele>95.6</ele>
        <time>2022-12-28T15:38:52Z</time>
      </trkpt>
      <trkpt lat="49.97173" lon="2.29992">
        <ele>95.6</ele>
        <time>2022-12-28T15:38:53Z</time>
      </trkpt>
      <trkpt lat="49.97173" lon="2.29992">
        <ele>95.6</ele>
        <time>2022-12-28T15:38:54Z</time>
      </trkpt>
      <trkpt lat="49.97173" lon="2.29992">
        <ele>95.6</ele>
        <time>2022-12-28T15:38:55Z</time>
      </trkpt>
      <trkpt lat="49.97173" lon="2.29992">
        <ele>95.6</ele>
        <time>2022-12-28T15:38:56Z</time>
      </trkpt>
      <trkpt lat="49.97173" lon="2.29992">
        <ele>95.6</ele>
        <time>2022-12-28T15:38:57Z</time>
      </trkpt>
      <trkpt lat="49.97173" lon="2.29992">
        <ele>95.6</ele>
        <time>2022-12-28T15:38:58Z</time>
      </trkpt>
      <trkpt lat="49.97173" lon="2.29992">
        <ele>95.6</ele>
        <time>2022-12-28T15:38:59Z</time>
      </trkpt>
      <trkpt lat="49.97173" lon="2.29992">
        <ele>95.6</ele>
        <time>2022-12-28T15:39:00Z</time>
      </trkpt>
      <trkpt lat="49.97173" lon="2.29992">
        <ele>95.6</ele>
        <time>2022-12-28T15:39:01Z</time>
      </trkpt>
      <trkpt lat="49.97173" lon="2.29992">
        <ele>95.6</ele>
        <time>2022-12-28T15:39:02Z</time>
      </trkpt>
      <trkpt lat="49.97173" lon="2.29992">
        <ele>95.6</ele>
        <time>2022-12-28T15:39:03Z</time>
      </trkpt>
      <trkpt lat="49.97173" lon="2.29992">
        <ele>95.6</ele>
        <time>2022-12-28T15:39:04Z</time>
      </trkpt>
      <trkpt lat="49.97173" lon="2.29992">
        <ele>95.6</ele>
        <time>2022-12-28T15:39:05Z</time>
      </trkpt>
      <trkpt lat="49.97173" lon="2.29992">
        <ele>95.6</ele>
        <time>2022-12-28T15:39:06Z</time>
      </trkpt>
      <trkpt lat="49.97173" lon="2.29992">
        <ele>95.6</ele>
        <time>2022-12-28T15:39:07Z</time>
      </trkpt>
      <trkpt lat="49.97173" lon="2.29992">
        <ele>95.6</ele>
        <time>2022-12-28T15:39:08Z</time>
      </trkpt>
      <trkpt lat="49.97173" lon="2.29992">
        <ele>95.6</ele>
        <time>2022-12-28T15:39:09Z</time>
      </trkpt>
      <trkpt lat="49.97173" lon="2.29992">
        <ele>95.6</ele>
        <time>2022-12-28T15:39:10Z</time>
      </trkpt>
      <trkpt lat="49.97174" lon="2.29991">
        <ele>95.6</ele>
        <time>2022-12-28T15:39:11Z</time>
      </trkpt>
      <trkpt lat="49.97174" lon="2.29991">
        <ele>95.5</ele>
        <time>2022-12-28T15:39:12Z</time>
      </trkpt>
      <trkpt lat="49.97175" lon="2.29991">
        <ele>95.5</ele>
        <time>2022-12-28T15:39:13Z</time>
      </trkpt>
      <trkpt lat="49.97175" lon="2.29991">
        <ele>95.5</ele>
        <time>2022-12-28T15:39:14Z</time>
      </trkpt>
      <trkpt lat="49.97175" lon="2.29991">
        <ele>95.5</ele>
        <time>2022-12-28T15:39:15Z</time>
      </trkpt>
      <trkpt lat="49.97175" lon="2.2999">
        <ele>95.5</ele>
        <time>2022-12-28T15:39:16Z</time>
      </trkpt>
      <trkpt lat="49.97175" lon="2.2999">
        <ele>95.5</ele>
        <time>2022-12-28T15:39:17Z</time>
      </trkpt>
      <trkpt lat="49.97175" lon="2.2999">
        <ele>95.5</ele>
        <time>2022-12-28T15:39:18Z</time>
      </trkpt>
      <trkpt lat="49.97175" lon="2.2999">
        <ele>95.5</ele>
        <time>2022-12-28T15:39:19Z</time>
      </trkpt>
      <trkpt lat="49.97175" lon="2.2999">
        <ele>95.5</ele>
        <time>2022-12-28T15:39:20Z</time>
      </trkpt>
      <trkpt lat="49.97175" lon="2.2999">
        <ele>95.5</ele>
        <time>2022-12-28T15:39:21Z</time>
      </trkpt>
      <trkpt lat="49.97176" lon="2.2999">
        <ele>95.5</ele>
        <time>2022-12-28T15:39:22Z</time>
      </trkpt>
      <trkpt lat="49.97176" lon="2.2999">
        <ele>95.5</ele>
        <time>2022-12-28T15:39:23Z</time>
      </trkpt>
      <trkpt lat="49.97176" lon="2.2999">
        <ele>95.5</ele>
        <time>2022-12-28T15:39:24Z</time>
      </trkpt>
      <trkpt lat="49.97176" lon="2.2999">
        <ele>95.5</ele>
        <time>2022-12-28T15:39:25Z</time>
      </trkpt>
      <trkpt lat="49.97176" lon="2.2999">
        <ele>95.5</ele>
        <time>2022-12-28T15:39:26Z</time>
      </trkpt>
      <trkpt lat="49.97176" lon="2.2999">
        <ele>95.5</ele>
        <time>2022-12-28T15:39:27Z</time>
      </trkpt>
      <trkpt lat="49.97176" lon="2.2999">
        <ele>95.5</ele>
        <time>2022-12-28T15:39:28Z</time>
      </trkpt>
      <trkpt lat="49.97176" lon="2.2999">
        <ele>95.5</ele>
        <time>2022-12-28T15:39:29Z</time>
      </trkpt>
      <trkpt lat="49.97176" lon="2.2999">
        <ele>95.5</ele>
        <time>2022-12-28T15:39:30Z</time>
      </trkpt>
      <trkpt lat="49.97176" lon="2.2999">
        <ele>95.5</ele>
        <time>2022-12-28T15:39:31Z</time>
      </trkpt>
      <trkpt lat="49.97176" lon="2.2999">
        <ele>95.5</ele>
        <time>2022-12-28T15:39:32Z</time>
      </trkpt>
      <trkpt lat="49.97176" lon="2.2999">
        <ele>95.5</ele>
        <time>2022-12-28T15:39:33Z</time>
      </trkpt>
      <trkpt lat="49.97176" lon="2.2999">
        <ele>95.5</ele>
        <time>2022-12-28T15:39:34Z</time>
      </trkpt>
      <trkpt lat="49.97176" lon="2.2999">
        <ele>95.5</ele>
        <time>2022-12-28T15:39:35Z</time>
      </trkpt>
      <trkpt lat="49.97176" lon="2.2999">
        <ele>95.5</ele>
        <time>2022-12-28T15:39:36Z</time>
      </trkpt>
      <trkpt lat="49.97176" lon="2.2999">
        <ele>95.5</ele>
        <time>2022-12-28T15:39:37Z</time>
      </trkpt>
      <trkpt lat="49.97176" lon="2.2999">
        <ele>95.5</ele>
        <time>2022-12-28T15:39:38Z</time>
      </trkpt>
      <trkpt lat="49.97176" lon="2.29991">
        <ele>95.5</ele>
        <time>2022-12-28T15:39:39Z</time>
      </trkpt>
      <trkpt lat="49.97176" lon="2.29991">
        <ele>95.5</ele>
        <time>2022-12-28T15:39:40Z</time>
      </trkpt>
      <trkpt lat="49.97176" lon="2.29991">
        <ele>95.5</ele>
        <time>2022-12-28T15:39:41Z</time>
      </trkpt>
      <trkpt lat="49.97176" lon="2.29991">
        <ele>95.5</ele>
        <time>2022-12-28T15:39:42Z</time>
      </trkpt>
      <trkpt lat="49.97176" lon="2.29991">
        <ele>95.5</ele>
        <time>2022-12-28T15:39:43Z</time>
      </trkpt>
      <trkpt lat="49.97176" lon="2.29991">
        <ele>95.5</ele>
        <time>2022-12-28T15:39:44Z</time>
      </trkpt>
      <trkpt lat="49.97176" lon="2.29991">
        <ele>95.5</ele>
        <time>2022-12-28T15:39:45Z</time>
      </trkpt>
      <trkpt lat="49.97176" lon="2.29991">
        <ele>95.5</ele>
        <time>2022-12-28T15:39:46Z</time>
      </trkpt>
      <trkpt lat="49.97176" lon="2.29991">
        <ele>95.5</ele>
        <time>2022-12-28T15:39:47Z</time>
      </trkpt>
      <trkpt lat="49.97176" lon="2.29991">
        <ele>95.5</ele>
        <time>2022-12-28T15:39:48Z</time>
      </trkpt>
      <trkpt lat="49.97176" lon="2.29991">
        <ele>95.5</ele>
        <time>2022-12-28T15:39:49Z</time>
      </trkpt>
      <trkpt lat="49.97176" lon="2.29991">
        <ele>95.5</ele>
        <time>2022-12-28T15:39:50Z</time>
      </trkpt>
      <trkpt lat="49.97176" lon="2.29991">
        <ele>95.5</ele>
        <time>2022-12-28T15:39:51Z</time>
      </trkpt>
      <trkpt lat="49.97176" lon="2.29991">
        <ele>95.5</ele>
        <time>2022-12-28T15:39:52Z</time>
      </trkpt>
      <trkpt lat="49.97176" lon="2.29991">
        <ele>95.5</ele>
        <time>2022-12-28T15:39:53Z</time>
      </trkpt>
      <trkpt lat="49.97176" lon="2.29991">
        <ele>95.5</ele>
        <time>2022-12-28T15:39:54Z</time>
      </trkpt>
      <trkpt lat="49.97176" lon="2.29991">
        <ele>95.5</ele>
        <time>2022-12-28T15:39:55Z</time>
      </trkpt>
      <trkpt lat="49.97176" lon="2.29991">
        <ele>95.5</ele>
        <time>2022-12-28T15:39:56Z</time>
      </trkpt>
      <trkpt lat="49.97176" lon="2.29991">
        <ele>95.5</ele>
        <time>2022-12-28T15:39:57Z</time>
      </trkpt>
      <trkpt lat="49.97176" lon="2.29991">
        <ele>95.5</ele>
        <time>2022-12-28T15:39:58Z</time>
      </trkpt>
      <trkpt lat="49.97176" lon="2.29991">
        <ele>95.5</ele>
        <time>2022-12-28T15:39:59Z</time>
      </trkpt>
      <trkpt lat="49.97176" lon="2.29991">
        <ele>95.5</ele>
        <time>2022-12-28T15:40:00Z</time>
      </trkpt>
      <trkpt lat="49.97176" lon="2.29991">
        <ele>95.5</ele>
        <time>2022-12-28T15:40:01Z</time>
      </trkpt>
      <trkpt lat="49.97176" lon="2.29991">
        <ele>95.5</ele>
        <time>2022-12-28T15:40:02Z</time>
      </trkpt>
      <trkpt lat="49.97176" lon="2.29991">
        <ele>95.5</ele>
        <time>2022-12-28T15:40:03Z</time>
      </trkpt>
      <trkpt lat="49.97176" lon="2.29991">
        <ele>95.5</ele>
        <time>2022-12-28T15:40:04Z</time>
      </trkpt>
      <trkpt lat="49.97176" lon="2.29991">
        <ele>95.5</ele>
        <time>2022-12-28T15:40:05Z</time>
      </trkpt>
      <trkpt lat="49.97176" lon="2.29991">
        <ele>95.5</ele>
        <time>2022-12-28T15:40:06Z</time>
      </trkpt>
      <trkpt lat="49.97176" lon="2.29991">
        <ele>95.5</ele>
        <time>2022-12-28T15:40:07Z</time>
      </trkpt>
      <trkpt lat="49.97176" lon="2.29991">
        <ele>95.5</ele>
        <time>2022-12-28T15:40:08Z</time>
      </trkpt>
      <trkpt lat="49.97176" lon="2.29991">
        <ele>95.5</ele>
        <time>2022-12-28T15:40:09Z</time>
      </trkpt>
      <trkpt lat="49.97176" lon="2.29991">
        <ele>95.5</ele>
        <time>2022-12-28T15:40:10Z</time>
      </trkpt>
      <trkpt lat="49.97176" lon="2.29991">
        <ele>95.5</ele>
        <time>2022-12-28T15:40:11Z</time>
      </trkpt>
      <trkpt lat="49.97176" lon="2.29991">
        <ele>95.5</ele>
        <time>2022-12-28T15:40:12Z</time>
      </trkpt>
      <trkpt lat="49.97176" lon="2.29991">
        <ele>95.5</ele>
        <time>2022-12-28T15:40:13Z</time>
      </trkpt>
      <trkpt lat="49.97176" lon="2.29991">
        <ele>95.5</ele>
        <time>2022-12-28T15:40:14Z</time>
      </trkpt>
      <trkpt lat="49.97176" lon="2.29991">
        <ele>95.5</ele>
        <time>2022-12-28T15:40:15Z</time>
      </trkpt>
      <trkpt lat="49.97176" lon="2.29991">
        <ele>95.5</ele>
        <time>2022-12-28T15:40:16Z</time>
      </trkpt>
      <trkpt lat="49.97176" lon="2.29991">
        <ele>95.5</ele>
        <time>2022-12-28T15:40:17Z</time>
      </trkpt>
      <trkpt lat="49.97176" lon="2.29991">
        <ele>95.5</ele>
        <time>2022-12-28T15:40:18Z</time>
      </trkpt>
      <trkpt lat="49.97176" lon="2.29991">
        <ele>95.5</ele>
        <time>2022-12-28T15:40:19Z</time>
      </trkpt>
      <trkpt lat="49.97176" lon="2.29991">
        <ele>95.5</ele>
        <time>2022-12-28T15:40:20Z</time>
      </trkpt>
      <trkpt lat="49.97176" lon="2.29991">
        <ele>95.5</ele>
        <time>2022-12-28T15:40:21Z</time>
      </trkpt>
      <trkpt lat="49.97176" lon="2.29991">
        <ele>95.5</ele>
        <time>2022-12-28T15:40:22Z</time>
      </trkpt>
      <trkpt lat="49.97176" lon="2.29991">
        <ele>95.5</ele>
        <time>2022-12-28T15:40:23Z</time>
      </trkpt>
      <trkpt lat="49.97176" lon="2.29991">
        <ele>95.5</ele>
        <time>2022-12-28T15:40:24Z</time>
      </trkpt>
      <trkpt lat="49.97176" lon="2.29991">
        <ele>95.5</ele>
        <time>2022-12-28T15:40:25Z</time>
      </trkpt>
      <trkpt lat="49.97176" lon="2.29991">
        <ele>95.5</ele>
        <time>2022-12-28T15:40:26Z</time>
      </trkpt>
      <trkpt lat="49.97176" lon="2.29991">
        <ele>95.5</ele>
        <time>2022-12-28T15:40:27Z</time>
      </trkpt>
      <trkpt lat="49.97176" lon="2.29991">
        <ele>95.5</ele>
        <time>2022-12-28T15:40:28Z</time>
      </trkpt>
      <trkpt lat="49.97176" lon="2.29991">
        <ele>95.5</ele>
        <time>2022-12-28T15:40:29Z</time>
      </trkpt>
      <trkpt lat="49.97176" lon="2.29991">
        <ele>95.5</ele>
        <time>2022-12-28T15:40:30Z</time>
      </trkpt>
      <trkpt lat="49.97176" lon="2.29991">
        <ele>95.5</ele>
        <time>2022-12-28T15:40:31Z</time>
      </trkpt>
      <trkpt lat="49.97176" lon="2.29991">
        <ele>95.5</ele>
        <time>2022-12-28T15:40:32Z</time>
      </trkpt>
      <trkpt lat="49.97176" lon="2.29991">
        <ele>95.5</ele>
        <time>2022-12-28T15:40:33Z</time>
      </trkpt>
      <trkpt lat="49.97176" lon="2.29991">
        <ele>95.5</ele>
        <time>2022-12-28T15:40:34Z</time>
      </trkpt>
      <trkpt lat="49.97176" lon="2.29991">
        <ele>95.5</ele>
        <time>2022-12-28T15:40:35Z</time>
      </trkpt>
      <trkpt lat="49.97176" lon="2.29991">
        <ele>95.5</ele>
        <time>2022-12-28T15:40:36Z</time>
      </trkpt>
      <trkpt lat="49.97176" lon="2.29991">
        <ele>95.5</ele>
        <time>2022-12-28T15:40:37Z</time>
      </trkpt>
      <trkpt lat="49.97176" lon="2.29991">
        <ele>95.5</ele>
        <time>2022-12-28T15:40:38Z</time>
      </trkpt>
      <trkpt lat="49.97176" lon="2.29991">
        <ele>95.5</ele>
        <time>2022-12-28T15:40:39Z</time>
      </trkpt>
      <trkpt lat="49.97176" lon="2.29991">
        <ele>95.5</ele>
        <time>2022-12-28T15:40:40Z</time>
      </trkpt>
      <trkpt lat="49.97176" lon="2.29991">
        <ele>95.5</ele>
        <time>2022-12-28T15:40:41Z</time>
      </trkpt>
      <trkpt lat="49.97176" lon="2.29991">
        <ele>95.5</ele>
        <time>2022-12-28T15:40:42Z</time>
      </trkpt>
      <trkpt lat="49.97176" lon="2.29991">
        <ele>95.5</ele>
        <time>2022-12-28T15:40:43Z</time>
      </trkpt>
      <trkpt lat="49.97176" lon="2.29991">
        <ele>95.5</ele>
        <time>2022-12-28T15:40:44Z</time>
      </trkpt>
      <trkpt lat="49.97176" lon="2.29991">
        <ele>95.5</ele>
        <time>2022-12-28T15:40:45Z</time>
      </trkpt>
      <trkpt lat="49.97176" lon="2.29991">
        <ele>95.5</ele>
        <time>2022-12-28T15:40:46Z</time>
      </trkpt>
      <trkpt lat="49.97176" lon="2.29991">
        <ele>95.5</ele>
        <time>2022-12-28T15:40:47Z</time>
      </trkpt>
      <trkpt lat="49.97176" lon="2.29991">
        <ele>95.5</ele>
        <time>2022-12-28T15:40:48Z</time>
      </trkpt>
      <trkpt lat="49.97176" lon="2.29991">
        <ele>95.5</ele>
        <time>2022-12-28T15:40:49Z</time>
      </trkpt>
      <trkpt lat="49.97176" lon="2.29991">
        <ele>95.5</ele>
        <time>2022-12-28T15:40:50Z</time>
      </trkpt>
      <trkpt lat="49.97176" lon="2.29991">
        <ele>95.5</ele>
        <time>2022-12-28T15:40:51Z</time>
      </trkpt>
      <trkpt lat="49.97176" lon="2.29992">
        <ele>95.5</ele>
        <time>2022-12-28T15:40:52Z</time>
      </trkpt>
      <trkpt lat="49.97176" lon="2.29992">
        <ele>95.5</ele>
        <time>2022-12-28T15:40:53Z</time>
      </trkpt>
      <trkpt lat="49.97176" lon="2.29992">
        <ele>95.5</ele>
        <time>2022-12-28T15:40:54Z</time>
      </trkpt>
      <trkpt lat="49.97176" lon="2.29992">
        <ele>95.5</ele>
        <time>2022-12-28T15:40:55Z</time>
      </trkpt>
      <trkpt lat="49.97176" lon="2.29992">
        <ele>95.5</ele>
        <time>2022-12-28T15:40:56Z</time>
      </trkpt>
      <trkpt lat="49.97176" lon="2.29992">
        <ele>95.5</ele>
        <time>2022-12-28T15:40:57Z</time>
      </trkpt>
      <trkpt lat="49.97176" lon="2.29992">
        <ele>95.5</ele>
        <time>2022-12-28T15:40:58Z</time>
      </trkpt>
      <trkpt lat="49.97176" lon="2.29992">
        <ele>95.5</ele>
        <time>2022-12-28T15:40:59Z</time>
      </trkpt>
      <trkpt lat="49.97176" lon="2.29992">
        <ele>95.5</ele>
        <time>2022-12-28T15:41:00Z</time>
      </trkpt>
      <trkpt lat="49.97176" lon="2.29992">
        <ele>95.5</ele>
        <time>2022-12-28T15:41:01Z</time>
      </trkpt>
      <trkpt lat="49.97176" lon="2.29992">
        <ele>95.5</ele>
        <time>2022-12-28T15:41:02Z</time>
      </trkpt>
      <trkpt lat="49.97176" lon="2.29992">
        <ele>95.5</ele>
        <time>2022-12-28T15:41:03Z</time>
      </trkpt>
      <trkpt lat="49.97176" lon="2.29992">
        <ele>95.5</ele>
        <time>2022-12-28T15:41:04Z</time>
      </trkpt>
      <trkpt lat="49.97176" lon="2.29992">
        <ele>95.5</ele>
        <time>2022-12-28T15:41:05Z</time>
      </trkpt>
      <trkpt lat="49.97176" lon="2.29992">
        <ele>95.5</ele>
        <time>2022-12-28T15:41:06Z</time>
      </trkpt>
      <trkpt lat="49.97176" lon="2.29992">
        <ele>95.5</ele>
        <time>2022-12-28T15:41:07Z</time>
      </trkpt>
      <trkpt lat="49.97176" lon="2.29992">
        <ele>95.5</ele>
        <time>2022-12-28T15:41:08Z</time>
      </trkpt>
      <trkpt lat="49.97176" lon="2.29992">
        <ele>95.5</ele>
        <time>2022-12-28T15:41:09Z</time>
      </trkpt>
      <trkpt lat="49.97176" lon="2.29992">
        <ele>95.5</ele>
        <time>2022-12-28T15:41:10Z</time>
      </trkpt>
      <trkpt lat="49.97176" lon="2.29992">
        <ele>95.5</ele>
        <time>2022-12-28T15:41:11Z</time>
      </trkpt>
      <trkpt lat="49.97176" lon="2.29992">
        <ele>95.5</ele>
        <time>2022-12-28T15:41:12Z</time>
      </trkpt>
      <trkpt lat="49.97176" lon="2.29992">
        <ele>95.5</ele>
        <time>2022-12-28T15:41:13Z</time>
      </trkpt>
      <trkpt lat="49.97176" lon="2.29992">
        <ele>95.5</ele>
        <time>2022-12-28T15:41:14Z</time>
      </trkpt>
      <trkpt lat="49.97176" lon="2.29992">
        <ele>95.5</ele>
        <time>2022-12-28T15:41:15Z</time>
      </trkpt>
      <trkpt lat="49.97176" lon="2.29992">
        <ele>95.5</ele>
        <time>2022-12-28T15:41:16Z</time>
      </trkpt>
      <trkpt lat="49.97176" lon="2.29992">
        <ele>95.5</ele>
        <time>2022-12-28T15:41:17Z</time>
      </trkpt>
      <trkpt lat="49.97176" lon="2.29992">
        <ele>95.5</ele>
        <time>2022-12-28T15:41:18Z</time>
      </trkpt>
      <trkpt lat="49.97176" lon="2.29992">
        <ele>95.5</ele>
        <time>2022-12-28T15:41:19Z</time>
      </trkpt>
      <trkpt lat="49.97176" lon="2.29992">
        <ele>95.5</ele>
        <time>2022-12-28T15:41:20Z</time>
      </trkpt>
      <trkpt lat="49.97176" lon="2.29992">
        <ele>95.5</ele>
        <time>2022-12-28T15:41:21Z</time>
      </trkpt>
      <trkpt lat="49.97176" lon="2.29992">
        <ele>95.5</ele>
        <time>2022-12-28T15:41:22Z</time>
      </trkpt>
      <trkpt lat="49.97176" lon="2.29992">
        <ele>95.5</ele>
        <time>2022-12-28T15:41:23Z</time>
      </trkpt>
      <trkpt lat="49.97176" lon="2.29992">
        <ele>95.5</ele>
        <time>2022-12-28T15:41:24Z</time>
      </trkpt>
      <trkpt lat="49.97176" lon="2.29992">
        <ele>95.5</ele>
        <time>2022-12-28T15:41:25Z</time>
      </trkpt>
      <trkpt lat="49.97176" lon="2.29992">
        <ele>95.5</ele>
        <time>2022-12-28T15:41:26Z</time>
      </trkpt>
      <trkpt lat="49.97176" lon="2.29992">
        <ele>95.5</ele>
        <time>2022-12-28T15:41:27Z</time>
      </trkpt>
      <trkpt lat="49.97176" lon="2.29992">
        <ele>95.5</ele>
        <time>2022-12-28T15:41:28Z</time>
      </trkpt>
      <trkpt lat="49.97176" lon="2.29992">
        <ele>95.5</ele>
        <time>2022-12-28T15:41:29Z</time>
      </trkpt>
      <trkpt lat="49.97176" lon="2.29992">
        <ele>95.5</ele>
        <time>2022-12-28T15:41:30Z</time>
      </trkpt>
      <trkpt lat="49.97176" lon="2.29992">
        <ele>95.5</ele>
        <time>2022-12-28T15:41:31Z</time>
      </trkpt>
      <trkpt lat="49.97176" lon="2.29992">
        <ele>95.5</ele>
        <time>2022-12-28T15:41:32Z</time>
      </trkpt>
      <trkpt lat="49.97176" lon="2.29992">
        <ele>95.5</ele>
        <time>2022-12-28T15:41:33Z</time>
      </trkpt>
      <trkpt lat="49.97176" lon="2.29992">
        <ele>95.5</ele>
        <time>2022-12-28T15:41:34Z</time>
      </trkpt>
      <trkpt lat="49.97176" lon="2.29992">
        <ele>95.5</ele>
        <time>2022-12-28T15:41:35Z</time>
      </trkpt>
      <trkpt lat="49.97176" lon="2.29992">
        <ele>95.5</ele>
        <time>2022-12-28T15:41:36Z</time>
      </trkpt>
      <trkpt lat="49.97176" lon="2.29992">
        <ele>95.5</ele>
        <time>2022-12-28T15:41:37Z</time>
      </trkpt>
      <trkpt lat="49.97176" lon="2.29992">
        <ele>95.5</ele>
        <time>2022-12-28T15:41:38Z</time>
      </trkpt>
      <trkpt lat="49.97176" lon="2.29992">
        <ele>95.5</ele>
        <time>2022-12-28T15:41:39Z</time>
      </trkpt>
      <trkpt lat="49.97176" lon="2.29992">
        <ele>95.5</ele>
        <time>2022-12-28T15:41:40Z</time>
      </trkpt>
      <trkpt lat="49.97176" lon="2.29992">
        <ele>95.5</ele>
        <time>2022-12-28T15:41:41Z</time>
      </trkpt>
      <trkpt lat="49.97176" lon="2.29992">
        <ele>95.5</ele>
        <time>2022-12-28T15:41:42Z</time>
      </trkpt>
      <trkpt lat="49.97176" lon="2.29992">
        <ele>95.5</ele>
        <time>2022-12-28T15:41:43Z</time>
      </trkpt>
      <trkpt lat="49.97176" lon="2.29992">
        <ele>95.5</ele>
        <time>2022-12-28T15:41:44Z</time>
      </trkpt>
      <trkpt lat="49.97176" lon="2.29992">
        <ele>95.5</ele>
        <time>2022-12-28T15:41:45Z</time>
      </trkpt>
      <trkpt lat="49.97176" lon="2.29992">
        <ele>95.5</ele>
        <time>2022-12-28T15:41:46Z</time>
      </trkpt>
      <trkpt lat="49.97176" lon="2.29992">
        <ele>95.5</ele>
        <time>2022-12-28T15:41:47Z</time>
      </trkpt>
      <trkpt lat="49.97176" lon="2.29992">
        <ele>95.5</ele>
        <time>2022-12-28T15:41:48Z</time>
      </trkpt>
      <trkpt lat="49.97176" lon="2.29992">
        <ele>95.5</ele>
        <time>2022-12-28T15:41:49Z</time>
      </trkpt>
      <trkpt lat="49.97176" lon="2.29992">
        <ele>95.5</ele>
        <time>2022-12-28T15:41:50Z</time>
      </trkpt>
      <trkpt lat="49.97176" lon="2.29992">
        <ele>95.5</ele>
        <time>2022-12-28T15:41:51Z</time>
      </trkpt>
      <trkpt lat="49.97176" lon="2.29992">
        <ele>95.5</ele>
        <time>2022-12-28T15:41:52Z</time>
      </trkpt>
      <trkpt lat="49.97176" lon="2.29992">
        <ele>95.5</ele>
        <time>2022-12-28T15:41:53Z</time>
      </trkpt>
      <trkpt lat="49.97176" lon="2.29992">
        <ele>95.5</ele>
        <time>2022-12-28T15:41:54Z</time>
      </trkpt>
      <trkpt lat="49.97176" lon="2.29992">
        <ele>95.5</ele>
        <time>2022-12-28T15:41:55Z</time>
      </trkpt>
      <trkpt lat="49.97176" lon="2.29992">
        <ele>95.5</ele>
        <time>2022-12-28T15:41:56Z</time>
      </trkpt>
      <trkpt lat="49.97176" lon="2.29992">
        <ele>95.5</ele>
        <time>2022-12-28T15:41:57Z</time>
      </trkpt>
      <trkpt lat="49.97176" lon="2.29992">
        <ele>95.5</ele>
        <time>2022-12-28T15:41:58Z</time>
      </trkpt>
      <trkpt lat="49.97176" lon="2.29992">
        <ele>95.5</ele>
        <time>2022-12-28T15:41:59Z</time>
      </trkpt>
      <trkpt lat="49.97176" lon="2.29992">
        <ele>95.5</ele>
        <time>2022-12-28T15:42:00Z</time>
      </trkpt>
      <trkpt lat="49.97176" lon="2.29992">
        <ele>95.5</ele>
        <time>2022-12-28T15:42:01Z</time>
      </trkpt>
      <trkpt lat="49.97176" lon="2.29992">
        <ele>95.5</ele>
        <time>2022-12-28T15:42:02Z</time>
      </trkpt>
      <trkpt lat="49.97176" lon="2.29992">
        <ele>95.5</ele>
        <time>2022-12-28T15:42:03Z</time>
      </trkpt>
      <trkpt lat="49.97176" lon="2.29992">
        <ele>95.5</ele>
        <time>2022-12-28T15:42:04Z</time>
      </trkpt>
      <trkpt lat="49.97176" lon="2.29993">
        <ele>95.5</ele>
        <time>2022-12-28T15:42:05Z</time>
      </trkpt>
      <trkpt lat="49.97176" lon="2.29993">
        <ele>95.5</ele>
        <time>2022-12-28T15:42:06Z</time>
      </trkpt>
      <trkpt lat="49.97176" lon="2.29993">
        <ele>95.5</ele>
        <time>2022-12-28T15:42:07Z</time>
      </trkpt>
      <trkpt lat="49.97176" lon="2.29993">
        <ele>95.5</ele>
        <time>2022-12-28T15:42:08Z</time>
      </trkpt>
      <trkpt lat="49.97176" lon="2.29993">
        <ele>95.5</ele>
        <time>2022-12-28T15:42:09Z</time>
      </trkpt>
      <trkpt lat="49.97176" lon="2.29993">
        <ele>95.5</ele>
        <time>2022-12-28T15:42:10Z</time>
      </trkpt>
      <trkpt lat="49.97176" lon="2.29993">
        <ele>95.5</ele>
        <time>2022-12-28T15:42:11Z</time>
      </trkpt>
      <trkpt lat="49.97176" lon="2.29993">
        <ele>95.5</ele>
        <time>2022-12-28T15:42:12Z</time>
      </trkpt>
      <trkpt lat="49.97176" lon="2.29993">
        <ele>95.5</ele>
        <time>2022-12-28T15:42:13Z</time>
      </trkpt>
      <trkpt lat="49.97176" lon="2.29993">
        <ele>95.5</ele>
        <time>2022-12-28T15:42:14Z</time>
      </trkpt>
      <trkpt lat="49.97176" lon="2.29993">
        <ele>95.5</ele>
        <time>2022-12-28T15:42:15Z</time>
      </trkpt>
      <trkpt lat="49.97176" lon="2.29993">
        <ele>95.5</ele>
        <time>2022-12-28T15:42:16Z</time>
      </trkpt>
      <trkpt lat="49.97176" lon="2.29993">
        <ele>95.5</ele>
        <time>2022-12-28T15:42:17Z</time>
      </trkpt>
      <trkpt lat="49.97176" lon="2.29993">
        <ele>95.5</ele>
        <time>2022-12-28T15:42:18Z</time>
      </trkpt>
      <trkpt lat="49.97176" lon="2.29993">
        <ele>95.5</ele>
        <time>2022-12-28T15:42:19Z</time>
      </trkpt>
      <trkpt lat="49.97176" lon="2.29993">
        <ele>95.5</ele>
        <time>2022-12-28T15:42:20Z</time>
      </trkpt>
      <trkpt lat="49.97176" lon="2.29993">
        <ele>95.5</ele>
        <time>2022-12-28T15:42:21Z</time>
      </trkpt>
      <trkpt lat="49.97176" lon="2.29993">
        <ele>95.5</ele>
        <time>2022-12-28T15:42:22Z</time>
      </trkpt>
      <trkpt lat="49.97176" lon="2.29993">
        <ele>95.5</ele>
        <time>2022-12-28T15:42:23Z</time>
      </trkpt>
      <trkpt lat="49.97176" lon="2.29993">
        <ele>95.5</ele>
        <time>2022-12-28T15:42:24Z</time>
      </trkpt>
      <trkpt lat="49.97176" lon="2.29993">
        <ele>95.5</ele>
        <time>2022-12-28T15:42:25Z</time>
      </trkpt>
      <trkpt lat="49.97176" lon="2.29993">
        <ele>95.5</ele>
        <time>2022-12-28T15:42:26Z</time>
      </trkpt>
      <trkpt lat="49.97177" lon="2.29993">
        <ele>95.5</ele>
        <time>2022-12-28T15:42:27Z</time>
      </trkpt>
      <trkpt lat="49.97177" lon="2.29993">
        <ele>95.5</ele>
        <time>2022-12-28T15:42:28Z</time>
      </trkpt>
      <trkpt lat="49.97177" lon="2.29993">
        <ele>95.5</ele>
        <time>2022-12-28T15:42:29Z</time>
      </trkpt>
      <trkpt lat="49.97177" lon="2.29993">
        <ele>95.5</ele>
        <time>2022-12-28T15:42:30Z</time>
      </trkpt>
      <trkpt lat="49.97177" lon="2.29993">
        <ele>95.5</ele>
        <time>2022-12-28T15:42:31Z</time>
      </trkpt>
      <trkpt lat="49.97177" lon="2.29993">
        <ele>95.5</ele>
        <time>2022-12-28T15:42:32Z</time>
      </trkpt>
      <trkpt lat="49.97177" lon="2.29993">
        <ele>95.5</ele>
        <time>2022-12-28T15:42:33Z</time>
      </trkpt>
      <trkpt lat="49.97177" lon="2.29993">
        <ele>95.5</ele>
        <time>2022-12-28T15:42:34Z</time>
      </trkpt>
      <trkpt lat="49.97177" lon="2.29993">
        <ele>95.5</ele>
        <time>2022-12-28T15:42:35Z</time>
      </trkpt>
      <trkpt lat="49.97177" lon="2.29993">
        <ele>95.5</ele>
        <time>2022-12-28T15:42:36Z</time>
      </trkpt>
      <trkpt lat="49.97177" lon="2.29993">
        <ele>95.5</ele>
        <time>2022-12-28T15:42:37Z</time>
      </trkpt>
      <trkpt lat="49.97177" lon="2.29993">
        <ele>95.5</ele>
        <time>2022-12-28T15:42:38Z</time>
      </trkpt>
      <trkpt lat="49.97177" lon="2.29993">
        <ele>95.5</ele>
        <time>2022-12-28T15:42:39Z</time>
      </trkpt>
      <trkpt lat="49.97177" lon="2.29993">
        <ele>95.5</ele>
        <time>2022-12-28T15:42:40Z</time>
      </trkpt>
      <trkpt lat="49.97177" lon="2.29993">
        <ele>95.5</ele>
        <time>2022-12-28T15:42:41Z</time>
      </trkpt>
      <trkpt lat="49.97177" lon="2.29993">
        <ele>95.5</ele>
        <time>2022-12-28T15:42:42Z</time>
      </trkpt>
      <trkpt lat="49.97177" lon="2.29993">
        <ele>95.5</ele>
        <time>2022-12-28T15:42:43Z</time>
      </trkpt>
      <trkpt lat="49.97177" lon="2.29993">
        <ele>95.5</ele>
        <time>2022-12-28T15:42:44Z</time>
      </trkpt>
      <trkpt lat="49.97177" lon="2.29993">
        <ele>95.5</ele>
        <time>2022-12-28T15:42:45Z</time>
      </trkpt>
      <trkpt lat="49.97177" lon="2.29993">
        <ele>95.5</ele>
        <time>2022-12-28T15:42:46Z</time>
      </trkpt>
      <trkpt lat="49.97177" lon="2.29993">
        <ele>95.5</ele>
        <time>2022-12-28T15:42:47Z</time>
      </trkpt>
      <trkpt lat="49.97177" lon="2.29993">
        <ele>95.5</ele>
        <time>2022-12-28T15:42:48Z</time>
      </trkpt>
      <trkpt lat="49.97177" lon="2.29993">
        <ele>95.5</ele>
        <time>2022-12-28T15:42:49Z</time>
      </trkpt>
      <trkpt lat="49.97177" lon="2.29993">
        <ele>95.5</ele>
        <time>2022-12-28T15:42:50Z</time>
      </trkpt>
      <trkpt lat="49.97177" lon="2.29993">
        <ele>95.5</ele>
        <time>2022-12-28T15:42:51Z</time>
      </trkpt>
      <trkpt lat="49.97177" lon="2.29993">
        <ele>95.5</ele>
        <time>2022-12-28T15:42:52Z</time>
      </trkpt>
      <trkpt lat="49.97177" lon="2.29993">
        <ele>95.5</ele>
        <time>2022-12-28T15:42:53Z</time>
      </trkpt>
      <trkpt lat="49.97177" lon="2.29993">
        <ele>95.5</ele>
        <time>2022-12-28T15:42:54Z</time>
      </trkpt>
      <trkpt lat="49.97177" lon="2.29993">
        <ele>95.5</ele>
        <time>2022-12-28T15:42:55Z</time>
      </trkpt>
      <trkpt lat="49.97177" lon="2.29993">
        <ele>95.5</ele>
        <time>2022-12-28T15:42:56Z</time>
      </trkpt>
      <trkpt lat="49.97177" lon="2.29993">
        <ele>95.5</ele>
        <time>2022-12-28T15:42:57Z</time>
      </trkpt>
      <trkpt lat="49.97177" lon="2.29993">
        <ele>95.5</ele>
        <time>2022-12-28T15:42:58Z</time>
      </trkpt>
      <trkpt lat="49.97177" lon="2.29993">
        <ele>95.5</ele>
        <time>2022-12-28T15:42:59Z</time>
      </trkpt>
      <trkpt lat="49.97177" lon="2.29993">
        <ele>95.5</ele>
        <time>2022-12-28T15:43:00Z</time>
      </trkpt>
      <trkpt lat="49.97177" lon="2.29993">
        <ele>95.5</ele>
        <time>2022-12-28T15:43:01Z</time>
      </trkpt>
      <trkpt lat="49.97177" lon="2.29993">
        <ele>95.5</ele>
        <time>2022-12-28T15:43:02Z</time>
      </trkpt>
      <trkpt lat="49.97177" lon="2.29993">
        <ele>95.5</ele>
        <time>2022-12-28T15:43:03Z</time>
      </trkpt>
      <trkpt lat="49.97177" lon="2.29993">
        <ele>95.5</ele>
        <time>2022-12-28T15:43:04Z</time>
      </trkpt>
      <trkpt lat="49.97177" lon="2.29993">
        <ele>95.5</ele>
        <time>2022-12-28T15:43:05Z</time>
      </trkpt>
      <trkpt lat="49.97177" lon="2.29993">
        <ele>95.5</ele>
        <time>2022-12-28T15:43:06Z</time>
      </trkpt>
      <trkpt lat="49.97177" lon="2.29993">
        <ele>95.5</ele>
        <time>2022-12-28T15:43:07Z</time>
      </trkpt>
      <trkpt lat="49.97177" lon="2.29993">
        <ele>95.5</ele>
        <time>2022-12-28T15:43:08Z</time>
      </trkpt>
      <trkpt lat="49.97177" lon="2.29993">
        <ele>95.5</ele>
        <time>2022-12-28T15:43:09Z</time>
      </trkpt>
      <trkpt lat="49.97177" lon="2.29993">
        <ele>95.5</ele>
        <time>2022-12-28T15:43:10Z</time>
      </trkpt>
      <trkpt lat="49.97177" lon="2.29993">
        <ele>95.5</ele>
        <time>2022-12-28T15:43:11Z</time>
      </trkpt>
      <trkpt lat="49.97177" lon="2.29993">
        <ele>95.5</ele>
        <time>2022-12-28T15:43:12Z</time>
      </trkpt>
      <trkpt lat="49.97177" lon="2.29993">
        <ele>95.5</ele>
        <time>2022-12-28T15:43:13Z</time>
      </trkpt>
      <trkpt lat="49.97177" lon="2.29993">
        <ele>95.5</ele>
        <time>2022-12-28T15:43:14Z</time>
      </trkpt>
      <trkpt lat="49.97177" lon="2.29993">
        <ele>95.5</ele>
        <time>2022-12-28T15:43:15Z</time>
      </trkpt>
      <trkpt lat="49.97177" lon="2.29993">
        <ele>95.5</ele>
        <time>2022-12-28T15:43:16Z</time>
      </trkpt>
      <trkpt lat="49.97177" lon="2.29993">
        <ele>95.5</ele>
        <time>2022-12-28T15:43:17Z</time>
      </trkpt>
      <trkpt lat="49.97177" lon="2.29993">
        <ele>95.5</ele>
        <time>2022-12-28T15:43:18Z</time>
      </trkpt>
      <trkpt lat="49.97177" lon="2.29994">
        <ele>95.5</ele>
        <time>2022-12-28T15:43:19Z</time>
      </trkpt>
      <trkpt lat="49.97177" lon="2.29994">
        <ele>95.5</ele>
        <time>2022-12-28T15:43:20Z</time>
      </trkpt>
      <trkpt lat="49.97177" lon="2.29994">
        <ele>95.5</ele>
        <time>2022-12-28T15:43:21Z</time>
      </trkpt>
      <trkpt lat="49.97177" lon="2.29994">
        <ele>95.5</ele>
        <time>2022-12-28T15:43:22Z</time>
      </trkpt>
      <trkpt lat="49.97177" lon="2.29994">
        <ele>95.5</ele>
        <time>2022-12-28T15:43:23Z</time>
      </trkpt>
      <trkpt lat="49.97177" lon="2.29994">
        <ele>95.5</ele>
        <time>2022-12-28T15:43:24Z</time>
      </trkpt>
      <trkpt lat="49.97177" lon="2.29994">
        <ele>95.5</ele>
        <time>2022-12-28T15:43:25Z</time>
      </trkpt>
      <trkpt lat="49.97177" lon="2.29994">
        <ele>95.5</ele>
        <time>2022-12-28T15:43:26Z</time>
      </trkpt>
      <trkpt lat="49.97177" lon="2.29994">
        <ele>95.5</ele>
        <time>2022-12-28T15:43:27Z</time>
      </trkpt>
      <trkpt lat="49.97177" lon="2.29994">
        <ele>95.5</ele>
        <time>2022-12-28T15:43:28Z</time>
      </trkpt>
      <trkpt lat="49.97177" lon="2.29994">
        <ele>95.5</ele>
        <time>2022-12-28T15:43:29Z</time>
      </trkpt>
      <trkpt lat="49.97177" lon="2.29994">
        <ele>95.5</ele>
        <time>2022-12-28T15:43:30Z</time>
      </trkpt>
      <trkpt lat="49.97177" lon="2.29994">
        <ele>95.5</ele>
        <time>2022-12-28T15:43:31Z</time>
      </trkpt>
      <trkpt lat="49.97177" lon="2.29994">
        <ele>95.5</ele>
        <time>2022-12-28T15:43:32Z</time>
      </trkpt>
      <trkpt lat="49.97177" lon="2.29994">
        <ele>95.5</ele>
        <time>2022-12-28T15:43:33Z</time>
      </trkpt>
      <trkpt lat="49.97177" lon="2.29994">
        <ele>95.5</ele>
        <time>2022-12-28T15:43:34Z</time>
      </trkpt>
      <trkpt lat="49.97177" lon="2.29994">
        <ele>95.5</ele>
        <time>2022-12-28T15:43:35Z</time>
      </trkpt>
      <trkpt lat="49.97177" lon="2.29994">
        <ele>95.5</ele>
        <time>2022-12-28T15:43:36Z</time>
      </trkpt>
      <trkpt lat="49.97177" lon="2.29994">
        <ele>95.5</ele>
        <time>2022-12-28T15:43:37Z</time>
      </trkpt>
      <trkpt lat="49.97177" lon="2.29994">
        <ele>95.5</ele>
        <time>2022-12-28T15:43:38Z</time>
      </trkpt>
      <trkpt lat="49.97177" lon="2.29994">
        <ele>95.5</ele>
        <time>2022-12-28T15:43:39Z</time>
      </trkpt>
      <trkpt lat="49.97177" lon="2.29994">
        <ele>95.5</ele>
        <time>2022-12-28T15:43:40Z</time>
      </trkpt>
      <trkpt lat="49.97177" lon="2.29994">
        <ele>95.5</ele>
        <time>2022-12-28T15:43:41Z</time>
      </trkpt>
      <trkpt lat="49.97177" lon="2.29994">
        <ele>95.5</ele>
        <time>2022-12-28T15:43:42Z</time>
      </trkpt>
      <trkpt lat="49.97177" lon="2.29994">
        <ele>95.5</ele>
        <time>2022-12-28T15:43:43Z</time>
      </trkpt>
      <trkpt lat="49.97177" lon="2.29994">
        <ele>95.5</ele>
        <time>2022-12-28T15:43:44Z</time>
      </trkpt>
      <trkpt lat="49.97177" lon="2.29994">
        <ele>95.5</ele>
        <time>2022-12-28T15:43:45Z</time>
      </trkpt>
      <trkpt lat="49.97177" lon="2.29994">
        <ele>95.5</ele>
        <time>2022-12-28T15:43:46Z</time>
      </trkpt>
      <trkpt lat="49.97177" lon="2.29994">
        <ele>95.5</ele>
        <time>2022-12-28T15:43:47Z</time>
      </trkpt>
      <trkpt lat="49.97177" lon="2.29994">
        <ele>95.5</ele>
        <time>2022-12-28T15:43:48Z</time>
      </trkpt>
      <trkpt lat="49.97177" lon="2.29994">
        <ele>95.5</ele>
        <time>2022-12-28T15:43:49Z</time>
      </trkpt>
      <trkpt lat="49.97177" lon="2.29994">
        <ele>95.5</ele>
        <time>2022-12-28T15:43:50Z</time>
      </trkpt>
      <trkpt lat="49.97177" lon="2.29994">
        <ele>95.5</ele>
        <time>2022-12-28T15:43:51Z</time>
      </trkpt>
      <trkpt lat="49.97177" lon="2.29994">
        <ele>95.5</ele>
        <time>2022-12-28T15:43:52Z</time>
      </trkpt>
      <trkpt lat="49.97177" lon="2.29994">
        <ele>95.5</ele>
        <time>2022-12-28T15:43:53Z</time>
      </trkpt>
      <trkpt lat="49.97177" lon="2.29994">
        <ele>95.5</ele>
        <time>2022-12-28T15:43:54Z</time>
      </trkpt>
      <trkpt lat="49.97177" lon="2.29994">
        <ele>95.5</ele>
        <time>2022-12-28T15:43:55Z</time>
      </trkpt>
      <trkpt lat="49.97177" lon="2.29994">
        <ele>95.5</ele>
        <time>2022-12-28T15:43:56Z</time>
      </trkpt>
      <trkpt lat="49.97177" lon="2.29994">
        <ele>95.5</ele>
        <time>2022-12-28T15:43:57Z</time>
      </trkpt>
      <trkpt lat="49.97177" lon="2.29994">
        <ele>95.5</ele>
        <time>2022-12-28T15:43:58Z</time>
      </trkpt>
      <trkpt lat="49.97177" lon="2.29994">
        <ele>95.5</ele>
        <time>2022-12-28T15:43:59Z</time>
      </trkpt>
      <trkpt lat="49.97177" lon="2.29994">
        <ele>95.5</ele>
        <time>2022-12-28T15:44:00Z</time>
      </trkpt>
      <trkpt lat="49.97177" lon="2.29994">
        <ele>95.5</ele>
        <time>2022-12-28T15:44:01Z</time>
      </trkpt>
      <trkpt lat="49.97177" lon="2.29994">
        <ele>95.5</ele>
        <time>2022-12-28T15:44:02Z</time>
      </trkpt>
      <trkpt lat="49.97177" lon="2.29994">
        <ele>95.5</ele>
        <time>2022-12-28T15:44:03Z</time>
      </trkpt>
      <trkpt lat="49.97177" lon="2.29994">
        <ele>95.5</ele>
        <time>2022-12-28T15:44:04Z</time>
      </trkpt>
      <trkpt lat="49.97177" lon="2.29994">
        <ele>95.5</ele>
        <time>2022-12-28T15:44:05Z</time>
      </trkpt>
      <trkpt lat="49.97177" lon="2.29994">
        <ele>95.5</ele>
        <time>2022-12-28T15:44:06Z</time>
      </trkpt>
      <trkpt lat="49.97177" lon="2.29994">
        <ele>95.5</ele>
        <time>2022-12-28T15:44:07Z</time>
      </trkpt>
      <trkpt lat="49.97177" lon="2.29994">
        <ele>95.5</ele>
        <time>2022-12-28T15:44:08Z</time>
      </trkpt>
      <trkpt lat="49.97177" lon="2.29994">
        <ele>95.5</ele>
        <time>2022-12-28T15:44:09Z</time>
      </trkpt>
      <trkpt lat="49.97177" lon="2.29994">
        <ele>95.5</ele>
        <time>2022-12-28T15:44:10Z</time>
      </trkpt>
      <trkpt lat="49.97177" lon="2.29994">
        <ele>95.5</ele>
        <time>2022-12-28T15:44:11Z</time>
      </trkpt>
      <trkpt lat="49.97177" lon="2.29994">
        <ele>95.5</ele>
        <time>2022-12-28T15:44:12Z</time>
      </trkpt>
      <trkpt lat="49.97177" lon="2.29994">
        <ele>95.5</ele>
        <time>2022-12-28T15:44:13Z</time>
      </trkpt>
      <trkpt lat="49.97177" lon="2.29994">
        <ele>95.5</ele>
        <time>2022-12-28T15:44:14Z</time>
      </trkpt>
      <trkpt lat="49.97177" lon="2.29994">
        <ele>95.5</ele>
        <time>2022-12-28T15:44:15Z</time>
      </trkpt>
      <trkpt lat="49.97177" lon="2.29994">
        <ele>95.5</ele>
        <time>2022-12-28T15:44:16Z</time>
      </trkpt>
      <trkpt lat="49.97177" lon="2.29994">
        <ele>95.5</ele>
        <time>2022-12-28T15:44:17Z</time>
      </trkpt>
      <trkpt lat="49.97177" lon="2.29994">
        <ele>95.5</ele>
        <time>2022-12-28T15:44:18Z</time>
      </trkpt>
      <trkpt lat="49.97177" lon="2.29994">
        <ele>95.5</ele>
        <time>2022-12-28T15:44:19Z</time>
      </trkpt>
      <trkpt lat="49.97177" lon="2.29994">
        <ele>95.5</ele>
        <time>2022-12-28T15:44:20Z</time>
      </trkpt>
      <trkpt lat="49.97177" lon="2.29994">
        <ele>95.5</ele>
        <time>2022-12-28T15:44:21Z</time>
      </trkpt>
      <trkpt lat="49.97177" lon="2.29994">
        <ele>95.5</ele>
        <time>2022-12-28T15:44:22Z</time>
      </trkpt>
      <trkpt lat="49.97177" lon="2.29994">
        <ele>95.5</ele>
        <time>2022-12-28T15:44:23Z</time>
      </trkpt>
      <trkpt lat="49.97177" lon="2.29994">
        <ele>95.5</ele>
        <time>2022-12-28T15:44:24Z</time>
      </trkpt>
      <trkpt lat="49.97177" lon="2.29994">
        <ele>95.5</ele>
        <time>2022-12-28T15:44:25Z</time>
      </trkpt>
      <trkpt lat="49.97177" lon="2.29994">
        <ele>95.5</ele>
        <time>2022-12-28T15:44:26Z</time>
      </trkpt>
      <trkpt lat="49.97177" lon="2.29994">
        <ele>95.5</ele>
        <time>2022-12-28T15:44:27Z</time>
      </trkpt>
      <trkpt lat="49.97177" lon="2.29994">
        <ele>95.5</ele>
        <time>2022-12-28T15:44:28Z</time>
      </trkpt>
      <trkpt lat="49.97177" lon="2.29994">
        <ele>95.5</ele>
        <time>2022-12-28T15:44:29Z</time>
      </trkpt>
      <trkpt lat="49.97177" lon="2.29994">
        <ele>95.5</ele>
        <time>2022-12-28T15:44:30Z</time>
      </trkpt>
      <trkpt lat="49.97177" lon="2.29994">
        <ele>95.5</ele>
        <time>2022-12-28T15:44:31Z</time>
      </trkpt>
      <trkpt lat="49.97177" lon="2.29995">
        <ele>95.5</ele>
        <time>2022-12-28T15:44:32Z</time>
      </trkpt>
      <trkpt lat="49.97177" lon="2.29995">
        <ele>95.5</ele>
        <time>2022-12-28T15:44:33Z</time>
      </trkpt>
      <trkpt lat="49.97177" lon="2.29995">
        <ele>95.5</ele>
        <time>2022-12-28T15:44:34Z</time>
      </trkpt>
      <trkpt lat="49.97177" lon="2.29995">
        <ele>95.5</ele>
        <time>2022-12-28T15:44:35Z</time>
      </trkpt>
      <trkpt lat="49.97177" lon="2.29995">
        <ele>95.5</ele>
        <time>2022-12-28T15:44:36Z</time>
      </trkpt>
      <trkpt lat="49.97177" lon="2.29995">
        <ele>95.5</ele>
        <time>2022-12-28T15:44:37Z</time>
      </trkpt>
      <trkpt lat="49.97177" lon="2.29995">
        <ele>95.5</ele>
        <time>2022-12-28T15:44:38Z</time>
      </trkpt>
      <trkpt lat="49.97177" lon="2.29995">
        <ele>95.5</ele>
        <time>2022-12-28T15:44:39Z</time>
      </trkpt>
      <trkpt lat="49.97177" lon="2.29995">
        <ele>95.5</ele>
        <time>2022-12-28T15:44:40Z</time>
      </trkpt>
      <trkpt lat="49.97177" lon="2.29995">
        <ele>95.5</ele>
        <time>2022-12-28T15:44:41Z</time>
      </trkpt>
      <trkpt lat="49.97177" lon="2.29995">
        <ele>95.5</ele>
        <time>2022-12-28T15:44:42Z</time>
      </trkpt>
      <trkpt lat="49.97177" lon="2.29995">
        <ele>95.5</ele>
        <time>2022-12-28T15:44:43Z</time>
      </trkpt>
      <trkpt lat="49.97177" lon="2.29995">
        <ele>95.5</ele>
        <time>2022-12-28T15:44:44Z</time>
      </trkpt>
      <trkpt lat="49.97177" lon="2.29995">
        <ele>95.5</ele>
        <time>2022-12-28T15:44:45Z</time>
      </trkpt>
      <trkpt lat="49.97177" lon="2.29995">
        <ele>95.5</ele>
        <time>2022-12-28T15:44:46Z</time>
      </trkpt>
      <trkpt lat="49.97177" lon="2.29995">
        <ele>95.5</ele>
        <time>2022-12-28T15:44:47Z</time>
      </trkpt>
      <trkpt lat="49.97177" lon="2.29995">
        <ele>95.5</ele>
        <time>2022-12-28T15:44:48Z</time>
      </trkpt>
      <trkpt lat="49.97177" lon="2.29995">
        <ele>95.5</ele>
        <time>2022-12-28T15:44:49Z</time>
      </trkpt>
      <trkpt lat="49.97177" lon="2.29995">
        <ele>95.5</ele>
        <time>2022-12-28T15:44:50Z</time>
      </trkpt>
      <trkpt lat="49.97177" lon="2.29995">
        <ele>95.5</ele>
        <time>2022-12-28T15:44:51Z</time>
      </trkpt>
      <trkpt lat="49.97177" lon="2.29995">
        <ele>95.5</ele>
        <time>2022-12-28T15:44:52Z</time>
      </trkpt>
      <trkpt lat="49.97177" lon="2.29995">
        <ele>95.5</ele>
        <time>2022-12-28T15:44:53Z</time>
      </trkpt>
      <trkpt lat="49.97177" lon="2.29995">
        <ele>95.5</ele>
        <time>2022-12-28T15:44:54Z</time>
      </trkpt>
      <trkpt lat="49.97177" lon="2.29995">
        <ele>95.5</ele>
        <time>2022-12-28T15:44:55Z</time>
      </trkpt>
      <trkpt lat="49.97177" lon="2.29995">
        <ele>95.5</ele>
        <time>2022-12-28T15:44:56Z</time>
      </trkpt>
      <trkpt lat="49.97177" lon="2.29995">
        <ele>95.5</ele>
        <time>2022-12-28T15:44:57Z</time>
      </trkpt>
      <trkpt lat="49.97177" lon="2.29995">
        <ele>95.5</ele>
        <time>2022-12-28T15:44:58Z</time>
      </trkpt>
      <trkpt lat="49.97177" lon="2.29995">
        <ele>95.5</ele>
        <time>2022-12-28T15:44:59Z</time>
      </trkpt>
      <trkpt lat="49.97177" lon="2.29995">
        <ele>95.5</ele>
        <time>2022-12-28T15:45:00Z</time>
      </trkpt>
      <trkpt lat="49.97177" lon="2.29995">
        <ele>95.5</ele>
        <time>2022-12-28T15:45:01Z</time>
      </trkpt>
      <trkpt lat="49.97177" lon="2.29995">
        <ele>95.5</ele>
        <time>2022-12-28T15:45:02Z</time>
      </trkpt>
      <trkpt lat="49.97177" lon="2.29995">
        <ele>95.5</ele>
        <time>2022-12-28T15:45:03Z</time>
      </trkpt>
      <trkpt lat="49.97177" lon="2.29995">
        <ele>95.5</ele>
        <time>2022-12-28T15:45:04Z</time>
      </trkpt>
      <trkpt lat="49.97177" lon="2.29995">
        <ele>95.5</ele>
        <time>2022-12-28T15:45:05Z</time>
      </trkpt>
      <trkpt lat="49.97177" lon="2.29995">
        <ele>95.5</ele>
        <time>2022-12-28T15:45:06Z</time>
      </trkpt>
      <trkpt lat="49.97177" lon="2.29995">
        <ele>95.5</ele>
        <time>2022-12-28T15:45:07Z</time>
      </trkpt>
      <trkpt lat="49.97177" lon="2.29995">
        <ele>95.5</ele>
        <time>2022-12-28T15:45:08Z</time>
      </trkpt>
      <trkpt lat="49.97177" lon="2.29995">
        <ele>95.5</ele>
        <time>2022-12-28T15:45:09Z</time>
      </trkpt>
      <trkpt lat="49.97177" lon="2.29995">
        <ele>95.5</ele>
        <time>2022-12-28T15:45:10Z</time>
      </trkpt>
      <trkpt lat="49.97177" lon="2.29995">
        <ele>95.5</ele>
        <time>2022-12-28T15:45:11Z</time>
      </trkpt>
      <trkpt lat="49.97177" lon="2.29995">
        <ele>95.5</ele>
        <time>2022-12-28T15:45:12Z</time>
      </trkpt>
      <trkpt lat="49.97177" lon="2.29995">
        <ele>95.5</ele>
        <time>2022-12-28T15:45:13Z</time>
      </trkpt>
      <trkpt lat="49.97177" lon="2.29995">
        <ele>95.5</ele>
        <time>2022-12-28T15:45:14Z</time>
      </trkpt>
      <trkpt lat="49.97177" lon="2.29995">
        <ele>95.5</ele>
        <time>2022-12-28T15:45:15Z</time>
      </trkpt>
      <trkpt lat="49.97177" lon="2.29995">
        <ele>95.5</ele>
        <time>2022-12-28T15:45:16Z</time>
      </trkpt>
      <trkpt lat="49.97177" lon="2.29995">
        <ele>95.5</ele>
        <time>2022-12-28T15:45:17Z</time>
      </trkpt>
      <trkpt lat="49.97177" lon="2.29995">
        <ele>95.5</ele>
        <time>2022-12-28T15:45:18Z</time>
      </trkpt>
      <trkpt lat="49.97177" lon="2.29995">
        <ele>95.5</ele>
        <time>2022-12-28T15:45:19Z</time>
      </trkpt>
      <trkpt lat="49.97177" lon="2.29995">
        <ele>95.5</ele>
        <time>2022-12-28T15:45:20Z</time>
      </trkpt>
      <trkpt lat="49.97177" lon="2.29995">
        <ele>95.5</ele>
        <time>2022-12-28T15:45:21Z</time>
      </trkpt>
      <trkpt lat="49.97177" lon="2.29995">
        <ele>95.5</ele>
        <time>2022-12-28T15:45:22Z</time>
      </trkpt>
      <trkpt lat="49.97177" lon="2.29995">
        <ele>95.5</ele>
        <time>2022-12-28T15:45:23Z</time>
      </trkpt>
      <trkpt lat="49.97177" lon="2.29995">
        <ele>95.5</ele>
        <time>2022-12-28T15:45:24Z</time>
      </trkpt>
      <trkpt lat="49.97177" lon="2.29995">
        <ele>95.5</ele>
        <time>2022-12-28T15:45:25Z</time>
      </trkpt>
      <trkpt lat="49.97177" lon="2.29995">
        <ele>95.5</ele>
        <time>2022-12-28T15:45:26Z</time>
      </trkpt>
      <trkpt lat="49.97177" lon="2.29995">
        <ele>95.5</ele>
        <time>2022-12-28T15:45:27Z</time>
      </trkpt>
      <trkpt lat="49.97177" lon="2.29995">
        <ele>95.5</ele>
        <time>2022-12-28T15:45:28Z</time>
      </trkpt>
      <trkpt lat="49.97177" lon="2.29995">
        <ele>95.5</ele>
        <time>2022-12-28T15:45:29Z</time>
      </trkpt>
      <trkpt lat="49.97177" lon="2.29995">
        <ele>95.5</ele>
        <time>2022-12-28T15:45:30Z</time>
      </trkpt>
      <trkpt lat="49.97177" lon="2.29995">
        <ele>95.5</ele>
        <time>2022-12-28T15:45:31Z</time>
      </trkpt>
      <trkpt lat="49.97177" lon="2.29995">
        <ele>95.5</ele>
        <time>2022-12-28T15:45:32Z</time>
      </trkpt>
      <trkpt lat="49.97177" lon="2.29995">
        <ele>95.5</ele>
        <time>2022-12-28T15:45:33Z</time>
      </trkpt>
      <trkpt lat="49.97178" lon="2.29995">
        <ele>95.5</ele>
        <time>2022-12-28T15:45:34Z</time>
      </trkpt>
      <trkpt lat="49.97178" lon="2.29995">
        <ele>95.5</ele>
        <time>2022-12-28T15:45:35Z</time>
      </trkpt>
      <trkpt lat="49.97178" lon="2.29995">
        <ele>95.5</ele>
        <time>2022-12-28T15:45:36Z</time>
      </trkpt>
      <trkpt lat="49.97178" lon="2.29995">
        <ele>95.5</ele>
        <time>2022-12-28T15:45:37Z</time>
      </trkpt>
      <trkpt lat="49.97178" lon="2.29995">
        <ele>95.5</ele>
        <time>2022-12-28T15:45:38Z</time>
      </trkpt>
      <trkpt lat="49.97178" lon="2.29995">
        <ele>95.5</ele>
        <time>2022-12-28T15:45:39Z</time>
      </trkpt>
      <trkpt lat="49.97178" lon="2.29995">
        <ele>95.5</ele>
        <time>2022-12-28T15:45:40Z</time>
      </trkpt>
      <trkpt lat="49.97178" lon="2.29995">
        <ele>95.5</ele>
        <time>2022-12-28T15:45:41Z</time>
      </trkpt>
      <trkpt lat="49.97178" lon="2.29995">
        <ele>95.5</ele>
        <time>2022-12-28T15:45:42Z</time>
      </trkpt>
      <trkpt lat="49.97178" lon="2.29995">
        <ele>95.5</ele>
        <time>2022-12-28T15:45:43Z</time>
      </trkpt>
      <trkpt lat="49.97178" lon="2.29996">
        <ele>95.5</ele>
        <time>2022-12-28T15:45:44Z</time>
      </trkpt>
      <trkpt lat="49.97178" lon="2.29996">
        <ele>95.5</ele>
        <time>2022-12-28T15:45:45Z</time>
      </trkpt>
      <trkpt lat="49.97178" lon="2.29996">
        <ele>95.5</ele>
        <time>2022-12-28T15:45:46Z</time>
      </trkpt>
      <trkpt lat="49.97178" lon="2.29996">
        <ele>95.5</ele>
        <time>2022-12-28T15:45:47Z</time>
      </trkpt>
      <trkpt lat="49.97178" lon="2.29996">
        <ele>95.5</ele>
        <time>2022-12-28T15:45:48Z</time>
      </trkpt>
      <trkpt lat="49.97178" lon="2.29996">
        <ele>95.5</ele>
        <time>2022-12-28T15:45:49Z</time>
      </trkpt>
      <trkpt lat="49.97177" lon="2.29996">
        <ele>95.5</ele>
        <time>2022-12-28T15:45:50Z</time>
      </trkpt>
      <trkpt lat="49.97177" lon="2.29996">
        <ele>95.5</ele>
        <time>2022-12-28T15:45:51Z</time>
      </trkpt>
      <trkpt lat="49.97177" lon="2.29996">
        <ele>95.4</ele>
        <time>2022-12-28T15:45:52Z</time>
      </trkpt>
      <trkpt lat="49.97176" lon="2.29995">
        <ele>95.4</ele>
        <time>2022-12-28T15:45:53Z</time>
      </trkpt>
      <trkpt lat="49.97176" lon="2.29995">
        <ele>95.4</ele>
        <time>2022-12-28T15:45:54Z</time>
      </trkpt>
      <trkpt lat="49.97175" lon="2.29994">
        <ele>95.4</ele>
        <time>2022-12-28T15:45:55Z</time>
      </trkpt>
      <trkpt lat="49.97175" lon="2.29993">
        <ele>95.4</ele>
        <time>2022-12-28T15:45:56Z</time>
      </trkpt>
      <trkpt lat="49.97174" lon="2.29992">
        <ele>95.4</ele>
        <time>2022-12-28T15:45:57Z</time>
      </trkpt>
      <trkpt lat="49.97173" lon="2.29991">
        <ele>95.4</ele>
        <time>2022-12-28T15:45:58Z</time>
      </trkpt>
      <trkpt lat="49.97172" lon="2.29991">
        <ele>95.4</ele>
        <time>2022-12-28T15:45:59Z</time>
      </trkpt>
      <trkpt lat="49.9717" lon="2.2999">
        <ele>95.4</ele>
        <time>2022-12-28T15:46:00Z</time>
      </trkpt>
      <trkpt lat="49.97169" lon="2.2999">
        <ele>95.3</ele>
        <time>2022-12-28T15:46:01Z</time>
      </trkpt>
      <trkpt lat="49.97168" lon="2.2999">
        <ele>95.3</ele>
        <time>2022-12-28T15:46:02Z</time>
      </trkpt>
      <trkpt lat="49.97166" lon="2.29989">
        <ele>95.3</ele>
        <time>2022-12-28T15:46:04Z</time>
      </trkpt>
      <trkpt lat="49.97165" lon="2.29989">
        <ele>95.3</ele>
        <time>2022-12-28T15:46:05Z</time>
      </trkpt>
      <trkpt lat="49.97164" lon="2.29988">
        <ele>95.3</ele>
        <time>2022-12-28T15:46:06Z</time>
      </trkpt>
      <trkpt lat="49.97164" lon="2.29988">
        <ele>95.3</ele>
        <time>2022-12-28T15:46:07Z</time>
      </trkpt>
      <trkpt lat="49.97163" lon="2.29988">
        <ele>95.3</ele>
        <time>2022-12-28T15:46:08Z</time>
      </trkpt>
      <trkpt lat="49.97163" lon="2.29987">
        <ele>95.3</ele>
        <time>2022-12-28T15:46:09Z</time>
      </trkpt>
      <trkpt lat="49.97162" lon="2.29986">
        <ele>95.3</ele>
        <time>2022-12-28T15:46:10Z</time>
      </trkpt>
      <trkpt lat="49.97161" lon="2.29985">
        <ele>95.3</ele>
        <time>2022-12-28T15:46:11Z</time>
      </trkpt>
      <trkpt lat="49.9716" lon="2.29985">
        <ele>95.2</ele>
        <time>2022-12-28T15:46:12Z</time>
      </trkpt>
      <trkpt lat="49.97159" lon="2.29984">
        <ele>95.2</ele>
        <time>2022-12-28T15:46:14Z</time>
      </trkpt>
      <trkpt lat="49.97158" lon="2.29984">
        <ele>95.2</ele>
        <time>2022-12-28T15:46:15Z</time>
      </trkpt>
      <trkpt lat="49.97157" lon="2.29984">
        <ele>95.2</ele>
        <time>2022-12-28T15:46:16Z</time>
      </trkpt>
      <trkpt lat="49.97157" lon="2.29984">
        <ele>95.2</ele>
        <time>2022-12-28T15:46:17Z</time>
      </trkpt>
      <trkpt lat="49.97156" lon="2.29985">
        <ele>95.2</ele>
        <time>2022-12-28T15:46:18Z</time>
      </trkpt>
      <trkpt lat="49.97155" lon="2.29985">
        <ele>95.2</ele>
        <time>2022-12-28T15:46:20Z</time>
      </trkpt>
      <trkpt lat="49.97155" lon="2.29985">
        <ele>95.2</ele>
        <time>2022-12-28T15:46:21Z</time>
      </trkpt>
      <trkpt lat="49.97155" lon="2.29984">
        <ele>95.2</ele>
        <time>2022-12-28T15:46:22Z</time>
      </trkpt>
      <trkpt lat="49.97155" lon="2.29984">
        <ele>95.2</ele>
        <time>2022-12-28T15:46:24Z</time>
      </trkpt>
      <trkpt lat="49.97155" lon="2.29984">
        <ele>95.2</ele>
        <time>2022-12-28T15:46:25Z</time>
      </trkpt>
      <trkpt lat="49.97155" lon="2.29984">
        <ele>95.2</ele>
        <time>2022-12-28T15:46:26Z</time>
      </trkpt>
      <trkpt lat="49.97155" lon="2.29984">
        <ele>95.2</ele>
        <time>2022-12-28T15:46:28Z</time>
      </trkpt>
      <trkpt lat="49.97155" lon="2.29984">
        <ele>95.2</ele>
        <time>2022-12-28T15:46:29Z</time>
      </trkpt>
      <trkpt lat="49.97155" lon="2.29984">
        <ele>95.2</ele>
        <time>2022-12-28T15:46:30Z</time>
      </trkpt>
      <trkpt lat="49.97154" lon="2.29984">
        <ele>95.2</ele>
        <time>2022-12-28T15:46:32Z</time>
      </trkpt>
      <trkpt lat="49.97154" lon="2.29984">
        <ele>95.2</ele>
        <time>2022-12-28T15:46:33Z</time>
      </trkpt>
      <trkpt lat="49.97154" lon="2.29983">
        <ele>95.2</ele>
        <time>2022-12-28T15:46:35Z</time>
      </trkpt>
      <trkpt lat="49.97154" lon="2.29983">
        <ele>95.2</ele>
        <time>2022-12-28T15:46:36Z</time>
      </trkpt>
      <trkpt lat="49.97154" lon="2.29984">
        <ele>95.2</ele>
        <time>2022-12-28T15:46:37Z</time>
      </trkpt>
      <trkpt lat="49.97154" lon="2.29984">
        <ele>95.2</ele>
        <time>2022-12-28T15:46:38Z</time>
      </trkpt>
      <trkpt lat="49.97154" lon="2.29985">
        <ele>95.2</ele>
        <time>2022-12-28T15:46:40Z</time>
      </trkpt>
      <trkpt lat="49.97154" lon="2.29985">
        <ele>95.2</ele>
        <time>2022-12-28T15:46:41Z</time>
      </trkpt>
      <trkpt lat="49.97155" lon="2.29985">
        <ele>95.2</ele>
        <time>2022-12-28T15:46:42Z</time>
      </trkpt>
      <trkpt lat="49.97155" lon="2.29986">
        <ele>95.1</ele>
        <time>2022-12-28T15:46:43Z</time>
      </trkpt>
      <trkpt lat="49.97155" lon="2.29986">
        <ele>95.1</ele>
        <time>2022-12-28T15:46:44Z</time>
      </trkpt>
      <trkpt lat="49.97155" lon="2.29985">
        <ele>95.1</ele>
        <time>2022-12-28T15:46:46Z</time>
      </trkpt>
      <trkpt lat="49.97155" lon="2.29985">
        <ele>95.1</ele>
        <time>2022-12-28T15:46:47Z</time>
      </trkpt>
      <trkpt lat="49.97154" lon="2.29984">
        <ele>95.1</ele>
        <time>2022-12-28T15:46:48Z</time>
      </trkpt>
      <trkpt lat="49.97154" lon="2.29984">
        <ele>95.1</ele>
        <time>2022-12-28T15:46:49Z</time>
      </trkpt>
      <trkpt lat="49.97154" lon="2.29983">
        <ele>95.1</ele>
        <time>2022-12-28T15:46:51Z</time>
      </trkpt>
      <trkpt lat="49.97154" lon="2.29981">
        <ele>95.1</ele>
        <time>2022-12-28T15:46:53Z</time>
      </trkpt>
      <trkpt lat="49.97153" lon="2.29981">
        <ele>95.1</ele>
        <time>2022-12-28T15:46:54Z</time>
      </trkpt>
      <trkpt lat="49.97153" lon="2.29981">
        <ele>95.1</ele>
        <time>2022-12-28T15:46:55Z</time>
      </trkpt>
      <trkpt lat="49.97153" lon="2.29981">
        <ele>95.1</ele>
        <time>2022-12-28T15:46:56Z</time>
      </trkpt>
      <trkpt lat="49.97152" lon="2.29981">
        <ele>95.1</ele>
        <time>2022-12-28T15:46:57Z</time>
      </trkpt>
      <trkpt lat="49.97152" lon="2.2998">
        <ele>95.1</ele>
        <time>2022-12-28T15:46:59Z</time>
      </trkpt>
      <trkpt lat="49.97152" lon="2.29981">
        <ele>95.1</ele>
        <time>2022-12-28T15:47:00Z</time>
      </trkpt>
      <trkpt lat="49.97152" lon="2.29982">
        <ele>95.1</ele>
        <time>2022-12-28T15:47:01Z</time>
      </trkpt>
      <trkpt lat="49.97151" lon="2.29984">
        <ele>95.1</ele>
        <time>2022-12-28T15:47:11Z</time>
      </trkpt>
      <trkpt lat="49.97151" lon="2.29985">
        <ele>95.1</ele>
        <time>2022-12-28T15:47:13Z</time>
      </trkpt>
      <trkpt lat="49.97152" lon="2.29985">
        <ele>95.1</ele>
        <time>2022-12-28T15:47:14Z</time>
      </trkpt>
      <trkpt lat="49.97152" lon="2.29985">
        <ele>95.1</ele>
        <time>2022-12-28T15:47:16Z</time>
      </trkpt>
      <trkpt lat="49.97152" lon="2.29985">
        <ele>95.1</ele>
        <time>2022-12-28T15:47:17Z</time>
      </trkpt>
      <trkpt lat="49.97152" lon="2.29985">
        <ele>95.1</ele>
        <time>2022-12-28T15:47:18Z</time>
      </trkpt>
      <trkpt lat="49.97152" lon="2.29985">
        <ele>95</ele>
        <time>2022-12-28T15:47:20Z</time>
      </trkpt>
      <trkpt lat="49.97152" lon="2.29985">
        <ele>95</ele>
        <time>2022-12-28T15:47:21Z</time>
      </trkpt>
      <trkpt lat="49.97152" lon="2.29985">
        <ele>95</ele>
        <time>2022-12-28T15:47:22Z</time>
      </trkpt>
      <trkpt lat="49.97152" lon="2.29985">
        <ele>95</ele>
        <time>2022-12-28T15:47:23Z</time>
      </trkpt>
      <trkpt lat="49.97152" lon="2.29985">
        <ele>95</ele>
        <time>2022-12-28T15:47:24Z</time>
      </trkpt>
      <trkpt lat="49.97152" lon="2.29985">
        <ele>95</ele>
        <time>2022-12-28T15:47:25Z</time>
      </trkpt>
      <trkpt lat="49.97152" lon="2.29985">
        <ele>95</ele>
        <time>2022-12-28T15:47:26Z</time>
      </trkpt>
      <trkpt lat="49.97152" lon="2.29985">
        <ele>95</ele>
        <time>2022-12-28T15:47:27Z</time>
      </trkpt>
      <trkpt lat="49.97152" lon="2.29985">
        <ele>95</ele>
        <time>2022-12-28T15:47:28Z</time>
      </trkpt>
      <trkpt lat="49.97152" lon="2.29985">
        <ele>95</ele>
        <time>2022-12-28T15:47:29Z</time>
      </trkpt>
      <trkpt lat="49.97152" lon="2.29985">
        <ele>95</ele>
        <time>2022-12-28T15:47:30Z</time>
      </trkpt>
      <trkpt lat="49.97152" lon="2.29985">
        <ele>95</ele>
        <time>2022-12-28T15:47:31Z</time>
      </trkpt>
      <trkpt lat="49.97152" lon="2.29985">
        <ele>95</ele>
        <time>2022-12-28T15:47:32Z</time>
      </trkpt>
      <trkpt lat="49.97152" lon="2.29985">
        <ele>95</ele>
        <time>2022-12-28T15:47:33Z</time>
      </trkpt>
      <trkpt lat="49.97152" lon="2.29985">
        <ele>95</ele>
        <time>2022-12-28T15:47:34Z</time>
      </trkpt>
      <trkpt lat="49.97152" lon="2.29985">
        <ele>95</ele>
        <time>2022-12-28T15:47:35Z</time>
      </trkpt>
      <trkpt lat="49.97152" lon="2.29985">
        <ele>95</ele>
        <time>2022-12-28T15:47:36Z</time>
      </trkpt>
      <trkpt lat="49.97152" lon="2.29985">
        <ele>95</ele>
        <time>2022-12-28T15:47:37Z</time>
      </trkpt>
      <trkpt lat="49.97152" lon="2.29985">
        <ele>95</ele>
        <time>2022-12-28T15:47:38Z</time>
      </trkpt>
      <trkpt lat="49.97152" lon="2.29985">
        <ele>95</ele>
        <time>2022-12-28T15:47:39Z</time>
      </trkpt>
      <trkpt lat="49.97152" lon="2.29985">
        <ele>95</ele>
        <time>2022-12-28T15:47:40Z</time>
      </trkpt>
      <trkpt lat="49.97152" lon="2.29985">
        <ele>95</ele>
        <time>2022-12-28T15:47:41Z</time>
      </trkpt>
      <trkpt lat="49.97152" lon="2.29984">
        <ele>95</ele>
        <time>2022-12-28T15:47:42Z</time>
      </trkpt>
      <trkpt lat="49.97151" lon="2.29985">
        <ele>95</ele>
        <time>2022-12-28T15:47:44Z</time>
      </trkpt>
      <trkpt lat="49.97151" lon="2.29985">
        <ele>95</ele>
        <time>2022-12-28T15:47:45Z</time>
      </trkpt>
      <trkpt lat="49.97151" lon="2.29986">
        <ele>95</ele>
        <time>2022-12-28T15:47:46Z</time>
      </trkpt>
      <trkpt lat="49.97151" lon="2.29986">
        <ele>95</ele>
        <time>2022-12-28T15:47:47Z</time>
      </trkpt>
      <trkpt lat="49.97151" lon="2.29986">
        <ele>95</ele>
        <time>2022-12-28T15:47:49Z</time>
      </trkpt>
      <trkpt lat="49.97151" lon="2.29985">
        <ele>95</ele>
        <time>2022-12-28T15:47:51Z</time>
      </trkpt>
      <trkpt lat="49.97151" lon="2.29985">
        <ele>95</ele>
        <time>2022-12-28T15:47:52Z</time>
      </trkpt>
      <trkpt lat="49.97151" lon="2.29985">
        <ele>95</ele>
        <time>2022-12-28T15:47:54Z</time>
      </trkpt>
      <trkpt lat="49.97151" lon="2.29985">
        <ele>95</ele>
        <time>2022-12-28T15:47:55Z</time>
      </trkpt>
      <trkpt lat="49.97151" lon="2.29985">
        <ele>95</ele>
        <time>2022-12-28T15:47:57Z</time>
      </trkpt>
      <trkpt lat="49.97151" lon="2.29985">
        <ele>95</ele>
        <time>2022-12-28T15:47:58Z</time>
      </trkpt>
      <trkpt lat="49.97151" lon="2.29985">
        <ele>95</ele>
        <time>2022-12-28T15:47:59Z</time>
      </trkpt>
      <trkpt lat="49.97151" lon="2.29985">
        <ele>95</ele>
        <time>2022-12-28T15:48:01Z</time>
      </trkpt>
      <trkpt lat="49.97151" lon="2.29985">
        <ele>95</ele>
        <time>2022-12-28T15:48:02Z</time>
      </trkpt>
      <trkpt lat="49.97151" lon="2.29984">
        <ele>95</ele>
        <time>2022-12-28T15:48:07Z</time>
      </trkpt>
      <trkpt lat="49.97151" lon="2.29984">
        <ele>95</ele>
        <time>2022-12-28T15:48:11Z</time>
      </trkpt>
      <trkpt lat="49.97152" lon="2.29982">
        <ele>95</ele>
        <time>2022-12-28T15:48:16Z</time>
      </trkpt>
      <trkpt lat="49.97152" lon="2.29982">
        <ele>95</ele>
        <time>2022-12-28T15:48:17Z</time>
      </trkpt>
      <trkpt lat="49.97152" lon="2.29982">
        <ele>95</ele>
        <time>2022-12-28T15:48:18Z</time>
      </trkpt>
      <trkpt lat="49.97152" lon="2.29982">
        <ele>95</ele>
        <time>2022-12-28T15:48:19Z</time>
      </trkpt>
      <trkpt lat="49.97152" lon="2.29982">
        <ele>95</ele>
        <time>2022-12-28T15:48:25Z</time>
      </trkpt>
      <trkpt lat="49.97151" lon="2.29976">
        <ele>94.9</ele>
        <time>2022-12-28T15:48:46Z</time>
      </trkpt>
      <trkpt lat="49.97151" lon="2.29975">
        <ele>94.9</ele>
        <time>2022-12-28T15:48:47Z</time>
      </trkpt>
      <trkpt lat="49.97152" lon="2.29975">
        <ele>94.9</ele>
        <time>2022-12-28T15:48:48Z</time>
      </trkpt>
      <trkpt lat="49.97152" lon="2.29975">
        <ele>94.9</ele>
        <time>2022-12-28T15:48:50Z</time>
      </trkpt>
      <trkpt lat="49.97152" lon="2.29976">
        <ele>94.9</ele>
        <time>2022-12-28T15:48:51Z</time>
      </trkpt>
      <trkpt lat="49.97152" lon="2.29977">
        <ele>94.9</ele>
        <time>2022-12-28T15:48:52Z</time>
      </trkpt>
      <trkpt lat="49.97152" lon="2.29978">
        <ele>94.9</ele>
        <time>2022-12-28T15:48:54Z</time>
      </trkpt>
      <trkpt lat="49.97152" lon="2.29978">
        <ele>94.9</ele>
        <time>2022-12-28T15:48:55Z</time>
      </trkpt>
      <trkpt lat="49.97152" lon="2.29978">
        <ele>94.9</ele>
        <time>2022-12-28T15:48:56Z</time>
      </trkpt>
      <trkpt lat="49.97152" lon="2.29978">
        <ele>94.9</ele>
        <time>2022-12-28T15:48:58Z</time>
      </trkpt>
      <trkpt lat="49.97152" lon="2.29978">
        <ele>94.9</ele>
        <time>2022-12-28T15:48:59Z</time>
      </trkpt>
      <trkpt lat="49.97152" lon="2.29978">
        <ele>94.9</ele>
        <time>2022-12-28T15:49:00Z</time>
      </trkpt>
      <trkpt lat="49.97152" lon="2.29978">
        <ele>94.9</ele>
        <time>2022-12-28T15:49:02Z</time>
      </trkpt>
      <trkpt lat="49.97152" lon="2.29978">
        <ele>94.9</ele>
        <time>2022-12-28T15:49:03Z</time>
      </trkpt>
    </trkseg>
  </trk>
</gpx>